<?xml version="1.0" encoding="UTF-8" standalone="no" ?>
<gpx xmlns="http://www.topografix.com/GPX/1/1" xmlns:xsi="http://www.w3.org/2001/XMLSchema-instance" xsi:schemaLocation="http://www.topografix.com/GPX/1/1 http://www.topografix.com/GPX/1/1/gpx.xsd" version="1.1" creator="VisuGPX - https://www.visugpx.com">
  <metadata>
    <name>Treguier - Plestin les Grèves</name>
    <desc><![CDATA[Notre plus longue étape d'un tour en Bretagne du Nord.
]]></desc>
  </metadata>
  <trk>
    <name><![CDATA[Treguier - lannion]]></name>
    <desc><![CDATA[Treguier - lannion]]></desc>
    <trkseg>
      <trkpt lat="48.78456" lon="-3.25184">
        <ele>20.1</ele>
        <time>2019-07-11T05:53:56Z</time>
      </trkpt>
      <trkpt lat="48.78457" lon="-3.25185">
        <ele>20.3</ele>
        <time>2019-07-11T05:53:57Z</time>
      </trkpt>
      <trkpt lat="48.78457" lon="-3.25185">
        <ele>20.3</ele>
        <time>2019-07-11T05:53:58Z</time>
      </trkpt>
      <trkpt lat="48.78463" lon="-3.25185">
        <ele>21.5</ele>
        <time>2019-07-11T05:54:07Z</time>
      </trkpt>
      <trkpt lat="48.78465" lon="-3.25185">
        <ele>21.8</ele>
        <time>2019-07-11T05:54:08Z</time>
      </trkpt>
      <trkpt lat="48.78468" lon="-3.25184">
        <ele>22</ele>
        <time>2019-07-11T05:54:09Z</time>
      </trkpt>
      <trkpt lat="48.7847" lon="-3.25183">
        <ele>22.4</ele>
        <time>2019-07-11T05:54:10Z</time>
      </trkpt>
      <trkpt lat="48.78473" lon="-3.25182">
        <ele>22.7</ele>
        <time>2019-07-11T05:54:11Z</time>
      </trkpt>
      <trkpt lat="48.78474" lon="-3.2518">
        <ele>23.2</ele>
        <time>2019-07-11T05:54:12Z</time>
      </trkpt>
      <trkpt lat="48.78476" lon="-3.25179">
        <ele>23.7</ele>
        <time>2019-07-11T05:54:13Z</time>
      </trkpt>
      <trkpt lat="48.78478" lon="-3.25178">
        <ele>24.3</ele>
        <time>2019-07-11T05:54:14Z</time>
      </trkpt>
      <trkpt lat="48.7848" lon="-3.25177">
        <ele>25</ele>
        <time>2019-07-11T05:54:15Z</time>
      </trkpt>
      <trkpt lat="48.78481" lon="-3.25176">
        <ele>25.5</ele>
        <time>2019-07-11T05:54:16Z</time>
      </trkpt>
      <trkpt lat="48.78483" lon="-3.25175">
        <ele>26.3</ele>
        <time>2019-07-11T05:54:17Z</time>
      </trkpt>
      <trkpt lat="48.78484" lon="-3.25174">
        <ele>27.3</ele>
        <time>2019-07-11T05:54:18Z</time>
      </trkpt>
      <trkpt lat="48.78486" lon="-3.25172">
        <ele>28</ele>
        <time>2019-07-11T05:54:19Z</time>
      </trkpt>
      <trkpt lat="48.78487" lon="-3.2517">
        <ele>28.9</ele>
        <time>2019-07-11T05:54:20Z</time>
      </trkpt>
      <trkpt lat="48.78487" lon="-3.25167">
        <ele>29.8</ele>
        <time>2019-07-11T05:54:21Z</time>
      </trkpt>
      <trkpt lat="48.78488" lon="-3.25164">
        <ele>30.7</ele>
        <time>2019-07-11T05:54:22Z</time>
      </trkpt>
      <trkpt lat="48.78488" lon="-3.25161">
        <ele>31.5</ele>
        <time>2019-07-11T05:54:23Z</time>
      </trkpt>
      <trkpt lat="48.78488" lon="-3.25158">
        <ele>32.5</ele>
        <time>2019-07-11T05:54:24Z</time>
      </trkpt>
      <trkpt lat="48.78487" lon="-3.25155">
        <ele>33.3</ele>
        <time>2019-07-11T05:54:25Z</time>
      </trkpt>
      <trkpt lat="48.78486" lon="-3.25153">
        <ele>33.9</ele>
        <time>2019-07-11T05:54:26Z</time>
      </trkpt>
      <trkpt lat="48.78484" lon="-3.25151">
        <ele>34.9</ele>
        <time>2019-07-11T05:54:27Z</time>
      </trkpt>
      <trkpt lat="48.78483" lon="-3.2515">
        <ele>35.6</ele>
        <time>2019-07-11T05:54:28Z</time>
      </trkpt>
      <trkpt lat="48.78482" lon="-3.25149">
        <ele>36.3</ele>
        <time>2019-07-11T05:54:29Z</time>
      </trkpt>
      <trkpt lat="48.7848" lon="-3.25148">
        <ele>37</ele>
        <time>2019-07-11T05:54:30Z</time>
      </trkpt>
      <trkpt lat="48.78479" lon="-3.25148">
        <ele>37.6</ele>
        <time>2019-07-11T05:54:31Z</time>
      </trkpt>
      <trkpt lat="48.78478" lon="-3.25147">
        <ele>38.3</ele>
        <time>2019-07-11T05:54:32Z</time>
      </trkpt>
      <trkpt lat="48.78476" lon="-3.25148">
        <ele>38.7</ele>
        <time>2019-07-11T05:54:33Z</time>
      </trkpt>
      <trkpt lat="48.78475" lon="-3.25148">
        <ele>39.3</ele>
        <time>2019-07-11T05:54:34Z</time>
      </trkpt>
      <trkpt lat="48.78473" lon="-3.25147">
        <ele>40.3</ele>
        <time>2019-07-11T05:54:35Z</time>
      </trkpt>
      <trkpt lat="48.78471" lon="-3.25147">
        <ele>41.2</ele>
        <time>2019-07-11T05:54:36Z</time>
      </trkpt>
      <trkpt lat="48.78469" lon="-3.25145">
        <ele>41.5</ele>
        <time>2019-07-11T05:54:37Z</time>
      </trkpt>
      <trkpt lat="48.78466" lon="-3.25144">
        <ele>41.5</ele>
        <time>2019-07-11T05:54:38Z</time>
      </trkpt>
      <trkpt lat="48.78464" lon="-3.25143">
        <ele>41.3</ele>
        <time>2019-07-11T05:54:39Z</time>
      </trkpt>
      <trkpt lat="48.78462" lon="-3.25142">
        <ele>41</ele>
        <time>2019-07-11T05:54:40Z</time>
      </trkpt>
      <trkpt lat="48.78459" lon="-3.25141">
        <ele>40.9</ele>
        <time>2019-07-11T05:54:41Z</time>
      </trkpt>
      <trkpt lat="48.78457" lon="-3.2514">
        <ele>41.3</ele>
        <time>2019-07-11T05:54:42Z</time>
      </trkpt>
      <trkpt lat="48.78455" lon="-3.25139">
        <ele>41.3</ele>
        <time>2019-07-11T05:54:43Z</time>
      </trkpt>
      <trkpt lat="48.78452" lon="-3.25139">
        <ele>41.6</ele>
        <time>2019-07-11T05:54:44Z</time>
      </trkpt>
      <trkpt lat="48.7845" lon="-3.25137">
        <ele>42.1</ele>
        <time>2019-07-11T05:54:45Z</time>
      </trkpt>
      <trkpt lat="48.78448" lon="-3.25136">
        <ele>42.9</ele>
        <time>2019-07-11T05:54:46Z</time>
      </trkpt>
      <trkpt lat="48.78446" lon="-3.25135">
        <ele>43.9</ele>
        <time>2019-07-11T05:54:47Z</time>
      </trkpt>
      <trkpt lat="48.78445" lon="-3.25134">
        <ele>44.6</ele>
        <time>2019-07-11T05:54:48Z</time>
      </trkpt>
      <trkpt lat="48.78442" lon="-3.25133">
        <ele>45.3</ele>
        <time>2019-07-11T05:54:49Z</time>
      </trkpt>
      <trkpt lat="48.7844" lon="-3.25132">
        <ele>46</ele>
        <time>2019-07-11T05:54:50Z</time>
      </trkpt>
      <trkpt lat="48.78438" lon="-3.25131">
        <ele>46.9</ele>
        <time>2019-07-11T05:54:51Z</time>
      </trkpt>
      <trkpt lat="48.78436" lon="-3.25129">
        <ele>48.2</ele>
        <time>2019-07-11T05:54:52Z</time>
      </trkpt>
      <trkpt lat="48.78434" lon="-3.25127">
        <ele>49.1</ele>
        <time>2019-07-11T05:54:53Z</time>
      </trkpt>
      <trkpt lat="48.78433" lon="-3.25127">
        <ele>50.4</ele>
        <time>2019-07-11T05:54:54Z</time>
      </trkpt>
      <trkpt lat="48.7843" lon="-3.25125">
        <ele>51.2</ele>
        <time>2019-07-11T05:54:55Z</time>
      </trkpt>
      <trkpt lat="48.78428" lon="-3.25124">
        <ele>51.9</ele>
        <time>2019-07-11T05:54:56Z</time>
      </trkpt>
      <trkpt lat="48.78425" lon="-3.25122">
        <ele>52.5</ele>
        <time>2019-07-11T05:54:57Z</time>
      </trkpt>
      <trkpt lat="48.78421" lon="-3.25122">
        <ele>52.6</ele>
        <time>2019-07-11T05:54:58Z</time>
      </trkpt>
      <trkpt lat="48.78419" lon="-3.25121">
        <ele>53.3</ele>
        <time>2019-07-11T05:54:59Z</time>
      </trkpt>
      <trkpt lat="48.78416" lon="-3.2512">
        <ele>53.8</ele>
        <time>2019-07-11T05:55:00Z</time>
      </trkpt>
      <trkpt lat="48.78414" lon="-3.2512">
        <ele>54.3</ele>
        <time>2019-07-11T05:55:01Z</time>
      </trkpt>
      <trkpt lat="48.78412" lon="-3.25119">
        <ele>55.1</ele>
        <time>2019-07-11T05:55:02Z</time>
      </trkpt>
      <trkpt lat="48.7841" lon="-3.25118">
        <ele>55.8</ele>
        <time>2019-07-11T05:55:03Z</time>
      </trkpt>
      <trkpt lat="48.78407" lon="-3.25118">
        <ele>56.2</ele>
        <time>2019-07-11T05:55:04Z</time>
      </trkpt>
      <trkpt lat="48.78405" lon="-3.25117">
        <ele>56.6</ele>
        <time>2019-07-11T05:55:05Z</time>
      </trkpt>
      <trkpt lat="48.78403" lon="-3.25117">
        <ele>57.3</ele>
        <time>2019-07-11T05:55:06Z</time>
      </trkpt>
      <trkpt lat="48.78402" lon="-3.25116">
        <ele>58.2</ele>
        <time>2019-07-11T05:55:07Z</time>
      </trkpt>
      <trkpt lat="48.784" lon="-3.25115">
        <ele>58.6</ele>
        <time>2019-07-11T05:55:08Z</time>
      </trkpt>
      <trkpt lat="48.78398" lon="-3.25114">
        <ele>59</ele>
        <time>2019-07-11T05:55:09Z</time>
      </trkpt>
      <trkpt lat="48.78397" lon="-3.25113">
        <ele>59.7</ele>
        <time>2019-07-11T05:55:10Z</time>
      </trkpt>
      <trkpt lat="48.78395" lon="-3.25113">
        <ele>60.1</ele>
        <time>2019-07-11T05:55:11Z</time>
      </trkpt>
      <trkpt lat="48.78392" lon="-3.25112">
        <ele>60.7</ele>
        <time>2019-07-11T05:55:12Z</time>
      </trkpt>
      <trkpt lat="48.78391" lon="-3.25111">
        <ele>61.1</ele>
        <time>2019-07-11T05:55:13Z</time>
      </trkpt>
      <trkpt lat="48.78389" lon="-3.25111">
        <ele>61.9</ele>
        <time>2019-07-11T05:55:14Z</time>
      </trkpt>
      <trkpt lat="48.78386" lon="-3.2511">
        <ele>62.5</ele>
        <time>2019-07-11T05:55:15Z</time>
      </trkpt>
      <trkpt lat="48.78384" lon="-3.25108">
        <ele>63.1</ele>
        <time>2019-07-11T05:55:16Z</time>
      </trkpt>
      <trkpt lat="48.78383" lon="-3.25107">
        <ele>63.5</ele>
        <time>2019-07-11T05:55:17Z</time>
      </trkpt>
      <trkpt lat="48.78381" lon="-3.25105">
        <ele>64.2</ele>
        <time>2019-07-11T05:55:18Z</time>
      </trkpt>
      <trkpt lat="48.78379" lon="-3.25104">
        <ele>64.4</ele>
        <time>2019-07-11T05:55:19Z</time>
      </trkpt>
      <trkpt lat="48.78377" lon="-3.25103">
        <ele>65.1</ele>
        <time>2019-07-11T05:55:20Z</time>
      </trkpt>
      <trkpt lat="48.78375" lon="-3.25102">
        <ele>65.6</ele>
        <time>2019-07-11T05:55:21Z</time>
      </trkpt>
      <trkpt lat="48.7837" lon="-3.25102">
        <ele>65.7</ele>
        <time>2019-07-11T05:55:22Z</time>
      </trkpt>
      <trkpt lat="48.78367" lon="-3.25099">
        <ele>65.5</ele>
        <time>2019-07-11T05:55:23Z</time>
      </trkpt>
      <trkpt lat="48.78364" lon="-3.25097">
        <ele>64.8</ele>
        <time>2019-07-11T05:55:24Z</time>
      </trkpt>
      <trkpt lat="48.78362" lon="-3.25096">
        <ele>64.6</ele>
        <time>2019-07-11T05:55:25Z</time>
      </trkpt>
      <trkpt lat="48.78359" lon="-3.25095">
        <ele>62.1</ele>
        <time>2019-07-11T05:55:26Z</time>
      </trkpt>
      <trkpt lat="48.78356" lon="-3.25093">
        <ele>59.3</ele>
        <time>2019-07-11T05:55:27Z</time>
      </trkpt>
      <trkpt lat="48.78353" lon="-3.2509">
        <ele>56.4</ele>
        <time>2019-07-11T05:55:28Z</time>
      </trkpt>
      <trkpt lat="48.78351" lon="-3.25088">
        <ele>55.3</ele>
        <time>2019-07-11T05:55:29Z</time>
      </trkpt>
      <trkpt lat="48.78348" lon="-3.25086">
        <ele>53.2</ele>
        <time>2019-07-11T05:55:30Z</time>
      </trkpt>
      <trkpt lat="48.78343" lon="-3.25083">
        <ele>50.4</ele>
        <time>2019-07-11T05:55:31Z</time>
      </trkpt>
      <trkpt lat="48.7834" lon="-3.2508">
        <ele>48.6</ele>
        <time>2019-07-11T05:55:32Z</time>
      </trkpt>
      <trkpt lat="48.78338" lon="-3.25075">
        <ele>47.5</ele>
        <time>2019-07-11T05:55:33Z</time>
      </trkpt>
      <trkpt lat="48.78337" lon="-3.25071">
        <ele>47.3</ele>
        <time>2019-07-11T05:55:34Z</time>
      </trkpt>
      <trkpt lat="48.78336" lon="-3.25067">
        <ele>47</ele>
        <time>2019-07-11T05:55:35Z</time>
      </trkpt>
      <trkpt lat="48.78335" lon="-3.25063">
        <ele>46.9</ele>
        <time>2019-07-11T05:55:36Z</time>
      </trkpt>
      <trkpt lat="48.78335" lon="-3.25058">
        <ele>47</ele>
        <time>2019-07-11T05:55:37Z</time>
      </trkpt>
      <trkpt lat="48.78334" lon="-3.25054">
        <ele>47.3</ele>
        <time>2019-07-11T05:55:38Z</time>
      </trkpt>
      <trkpt lat="48.78334" lon="-3.25049">
        <ele>47.4</ele>
        <time>2019-07-11T05:55:39Z</time>
      </trkpt>
      <trkpt lat="48.78333" lon="-3.25045">
        <ele>47.3</ele>
        <time>2019-07-11T05:55:40Z</time>
      </trkpt>
      <trkpt lat="48.78333" lon="-3.25039">
        <ele>46.1</ele>
        <time>2019-07-11T05:55:41Z</time>
      </trkpt>
      <trkpt lat="48.78332" lon="-3.25035">
        <ele>45.6</ele>
        <time>2019-07-11T05:55:42Z</time>
      </trkpt>
      <trkpt lat="48.78331" lon="-3.25031">
        <ele>45</ele>
        <time>2019-07-11T05:55:43Z</time>
      </trkpt>
      <trkpt lat="48.78331" lon="-3.25026">
        <ele>44.8</ele>
        <time>2019-07-11T05:55:44Z</time>
      </trkpt>
      <trkpt lat="48.7833" lon="-3.25021">
        <ele>44.2</ele>
        <time>2019-07-11T05:55:45Z</time>
      </trkpt>
      <trkpt lat="48.7833" lon="-3.25016">
        <ele>43.4</ele>
        <time>2019-07-11T05:55:46Z</time>
      </trkpt>
      <trkpt lat="48.78329" lon="-3.25012">
        <ele>42.9</ele>
        <time>2019-07-11T05:55:47Z</time>
      </trkpt>
      <trkpt lat="48.78328" lon="-3.25007">
        <ele>42.1</ele>
        <time>2019-07-11T05:55:48Z</time>
      </trkpt>
      <trkpt lat="48.78328" lon="-3.25003">
        <ele>41.4</ele>
        <time>2019-07-11T05:55:49Z</time>
      </trkpt>
      <trkpt lat="48.78328" lon="-3.24998">
        <ele>40.9</ele>
        <time>2019-07-11T05:55:50Z</time>
      </trkpt>
      <trkpt lat="48.78327" lon="-3.24993">
        <ele>39.9</ele>
        <time>2019-07-11T05:55:51Z</time>
      </trkpt>
      <trkpt lat="48.78326" lon="-3.24988">
        <ele>39</ele>
        <time>2019-07-11T05:55:52Z</time>
      </trkpt>
      <trkpt lat="48.78325" lon="-3.24983">
        <ele>38.3</ele>
        <time>2019-07-11T05:55:53Z</time>
      </trkpt>
      <trkpt lat="48.78325" lon="-3.24978">
        <ele>37.7</ele>
        <time>2019-07-11T05:55:54Z</time>
      </trkpt>
      <trkpt lat="48.78324" lon="-3.24973">
        <ele>37.2</ele>
        <time>2019-07-11T05:55:55Z</time>
      </trkpt>
      <trkpt lat="48.78323" lon="-3.24969">
        <ele>36.9</ele>
        <time>2019-07-11T05:55:56Z</time>
      </trkpt>
      <trkpt lat="48.78323" lon="-3.24964">
        <ele>36.4</ele>
        <time>2019-07-11T05:55:57Z</time>
      </trkpt>
      <trkpt lat="48.78322" lon="-3.2496">
        <ele>36.4</ele>
        <time>2019-07-11T05:55:58Z</time>
      </trkpt>
      <trkpt lat="48.78321" lon="-3.24955">
        <ele>36.2</ele>
        <time>2019-07-11T05:55:59Z</time>
      </trkpt>
      <trkpt lat="48.7832" lon="-3.2495">
        <ele>35.9</ele>
        <time>2019-07-11T05:56:00Z</time>
      </trkpt>
      <trkpt lat="48.7832" lon="-3.24946">
        <ele>35.7</ele>
        <time>2019-07-11T05:56:01Z</time>
      </trkpt>
      <trkpt lat="48.78319" lon="-3.24941">
        <ele>35.7</ele>
        <time>2019-07-11T05:56:02Z</time>
      </trkpt>
      <trkpt lat="48.78318" lon="-3.24937">
        <ele>35.9</ele>
        <time>2019-07-11T05:56:03Z</time>
      </trkpt>
      <trkpt lat="48.78317" lon="-3.24933">
        <ele>36.1</ele>
        <time>2019-07-11T05:56:04Z</time>
      </trkpt>
      <trkpt lat="48.78317" lon="-3.24929">
        <ele>36.1</ele>
        <time>2019-07-11T05:56:05Z</time>
      </trkpt>
      <trkpt lat="48.78316" lon="-3.24925">
        <ele>36.2</ele>
        <time>2019-07-11T05:56:06Z</time>
      </trkpt>
      <trkpt lat="48.78315" lon="-3.24919">
        <ele>35.3</ele>
        <time>2019-07-11T05:56:07Z</time>
      </trkpt>
      <trkpt lat="48.78313" lon="-3.24914">
        <ele>35.2</ele>
        <time>2019-07-11T05:56:08Z</time>
      </trkpt>
      <trkpt lat="48.78313" lon="-3.24909">
        <ele>35.2</ele>
        <time>2019-07-11T05:56:09Z</time>
      </trkpt>
      <trkpt lat="48.78312" lon="-3.24904">
        <ele>35.1</ele>
        <time>2019-07-11T05:56:10Z</time>
      </trkpt>
      <trkpt lat="48.78311" lon="-3.24898">
        <ele>35.1</ele>
        <time>2019-07-11T05:56:11Z</time>
      </trkpt>
      <trkpt lat="48.7831" lon="-3.24893">
        <ele>35</ele>
        <time>2019-07-11T05:56:12Z</time>
      </trkpt>
      <trkpt lat="48.7831" lon="-3.24887">
        <ele>34.9</ele>
        <time>2019-07-11T05:56:13Z</time>
      </trkpt>
      <trkpt lat="48.78309" lon="-3.24881">
        <ele>34.6</ele>
        <time>2019-07-11T05:56:14Z</time>
      </trkpt>
      <trkpt lat="48.78309" lon="-3.24875">
        <ele>34.4</ele>
        <time>2019-07-11T05:56:15Z</time>
      </trkpt>
      <trkpt lat="48.78308" lon="-3.24868">
        <ele>34.3</ele>
        <time>2019-07-11T05:56:16Z</time>
      </trkpt>
      <trkpt lat="48.78307" lon="-3.24862">
        <ele>34.3</ele>
        <time>2019-07-11T05:56:17Z</time>
      </trkpt>
      <trkpt lat="48.78306" lon="-3.24856">
        <ele>34.4</ele>
        <time>2019-07-11T05:56:18Z</time>
      </trkpt>
      <trkpt lat="48.78306" lon="-3.2485">
        <ele>34.3</ele>
        <time>2019-07-11T05:56:19Z</time>
      </trkpt>
      <trkpt lat="48.78305" lon="-3.24844">
        <ele>34.4</ele>
        <time>2019-07-11T05:56:20Z</time>
      </trkpt>
      <trkpt lat="48.78305" lon="-3.24837">
        <ele>34.3</ele>
        <time>2019-07-11T05:56:21Z</time>
      </trkpt>
      <trkpt lat="48.78304" lon="-3.2483">
        <ele>34.3</ele>
        <time>2019-07-11T05:56:22Z</time>
      </trkpt>
      <trkpt lat="48.78303" lon="-3.24823">
        <ele>34.5</ele>
        <time>2019-07-11T05:56:23Z</time>
      </trkpt>
      <trkpt lat="48.78302" lon="-3.24816">
        <ele>34.8</ele>
        <time>2019-07-11T05:56:24Z</time>
      </trkpt>
      <trkpt lat="48.78301" lon="-3.24808">
        <ele>34.4</ele>
        <time>2019-07-11T05:56:25Z</time>
      </trkpt>
      <trkpt lat="48.783" lon="-3.24799">
        <ele>33.6</ele>
        <time>2019-07-11T05:56:26Z</time>
      </trkpt>
      <trkpt lat="48.78298" lon="-3.2479">
        <ele>33.1</ele>
        <time>2019-07-11T05:56:27Z</time>
      </trkpt>
      <trkpt lat="48.78297" lon="-3.24779">
        <ele>31.9</ele>
        <time>2019-07-11T05:56:28Z</time>
      </trkpt>
      <trkpt lat="48.78294" lon="-3.24768">
        <ele>31.2</ele>
        <time>2019-07-11T05:56:29Z</time>
      </trkpt>
      <trkpt lat="48.78291" lon="-3.24756">
        <ele>30.1</ele>
        <time>2019-07-11T05:56:30Z</time>
      </trkpt>
      <trkpt lat="48.78286" lon="-3.24744">
        <ele>29</ele>
        <time>2019-07-11T05:56:31Z</time>
      </trkpt>
      <trkpt lat="48.7828" lon="-3.24731">
        <ele>28.8</ele>
        <time>2019-07-11T05:56:32Z</time>
      </trkpt>
      <trkpt lat="48.78278" lon="-3.24716">
        <ele>27.6</ele>
        <time>2019-07-11T05:56:33Z</time>
      </trkpt>
      <trkpt lat="48.78277" lon="-3.24701">
        <ele>25.7</ele>
        <time>2019-07-11T05:56:34Z</time>
      </trkpt>
      <trkpt lat="48.78278" lon="-3.24686">
        <ele>23</ele>
        <time>2019-07-11T05:56:35Z</time>
      </trkpt>
      <trkpt lat="48.78273" lon="-3.24672">
        <ele>22.1</ele>
        <time>2019-07-11T05:56:36Z</time>
      </trkpt>
      <trkpt lat="48.7827" lon="-3.24656">
        <ele>20.3</ele>
        <time>2019-07-11T05:56:37Z</time>
      </trkpt>
      <trkpt lat="48.78262" lon="-3.24645">
        <ele>17.5</ele>
        <time>2019-07-11T05:56:38Z</time>
      </trkpt>
      <trkpt lat="48.78257" lon="-3.2463">
        <ele>16.3</ele>
        <time>2019-07-11T05:56:39Z</time>
      </trkpt>
      <trkpt lat="48.78254" lon="-3.24614">
        <ele>14.1</ele>
        <time>2019-07-11T05:56:40Z</time>
      </trkpt>
      <trkpt lat="48.7825" lon="-3.24598">
        <ele>16.3</ele>
        <time>2019-07-11T05:56:41Z</time>
      </trkpt>
      <trkpt lat="48.7825" lon="-3.24581">
        <ele>17.1</ele>
        <time>2019-07-11T05:56:42Z</time>
      </trkpt>
      <trkpt lat="48.7825" lon="-3.24564">
        <ele>18.6</ele>
        <time>2019-07-11T05:56:43Z</time>
      </trkpt>
      <trkpt lat="48.78251" lon="-3.24548">
        <ele>18.7</ele>
        <time>2019-07-11T05:56:44Z</time>
      </trkpt>
      <trkpt lat="48.78252" lon="-3.2453">
        <ele>18.8</ele>
        <time>2019-07-11T05:56:45Z</time>
      </trkpt>
      <trkpt lat="48.78255" lon="-3.24515">
        <ele>17</ele>
        <time>2019-07-11T05:56:46Z</time>
      </trkpt>
      <trkpt lat="48.78256" lon="-3.24499">
        <ele>16.6</ele>
        <time>2019-07-11T05:56:47Z</time>
      </trkpt>
      <trkpt lat="48.78256" lon="-3.24482">
        <ele>14.8</ele>
        <time>2019-07-11T05:56:48Z</time>
      </trkpt>
      <trkpt lat="48.78257" lon="-3.24465">
        <ele>13.9</ele>
        <time>2019-07-11T05:56:49Z</time>
      </trkpt>
      <trkpt lat="48.78258" lon="-3.24448">
        <ele>13.8</ele>
        <time>2019-07-11T05:56:50Z</time>
      </trkpt>
      <trkpt lat="48.78258" lon="-3.24434">
        <ele>14.2</ele>
        <time>2019-07-11T05:56:51Z</time>
      </trkpt>
      <trkpt lat="48.78258" lon="-3.24419">
        <ele>13.7</ele>
        <time>2019-07-11T05:56:52Z</time>
      </trkpt>
      <trkpt lat="48.78259" lon="-3.24406">
        <ele>13.3</ele>
        <time>2019-07-11T05:56:53Z</time>
      </trkpt>
      <trkpt lat="48.7826" lon="-3.24392">
        <ele>12.9</ele>
        <time>2019-07-11T05:56:54Z</time>
      </trkpt>
      <trkpt lat="48.78261" lon="-3.2438">
        <ele>13.1</ele>
        <time>2019-07-11T05:56:55Z</time>
      </trkpt>
      <trkpt lat="48.78262" lon="-3.24367">
        <ele>13</ele>
        <time>2019-07-11T05:56:56Z</time>
      </trkpt>
      <trkpt lat="48.78265" lon="-3.24356">
        <ele>12.6</ele>
        <time>2019-07-11T05:56:57Z</time>
      </trkpt>
      <trkpt lat="48.78267" lon="-3.24344">
        <ele>11.5</ele>
        <time>2019-07-11T05:56:58Z</time>
      </trkpt>
      <trkpt lat="48.7827" lon="-3.24335">
        <ele>10.2</ele>
        <time>2019-07-11T05:56:59Z</time>
      </trkpt>
      <trkpt lat="48.78272" lon="-3.24325">
        <ele>10</ele>
        <time>2019-07-11T05:57:00Z</time>
      </trkpt>
      <trkpt lat="48.78273" lon="-3.24316">
        <ele>10</ele>
        <time>2019-07-11T05:57:01Z</time>
      </trkpt>
      <trkpt lat="48.78275" lon="-3.24308">
        <ele>10.1</ele>
        <time>2019-07-11T05:57:02Z</time>
      </trkpt>
      <trkpt lat="48.78277" lon="-3.24301">
        <ele>10.3</ele>
        <time>2019-07-11T05:57:03Z</time>
      </trkpt>
      <trkpt lat="48.7828" lon="-3.24294">
        <ele>11.2</ele>
        <time>2019-07-11T05:57:04Z</time>
      </trkpt>
      <trkpt lat="48.78281" lon="-3.24288">
        <ele>12.3</ele>
        <time>2019-07-11T05:57:05Z</time>
      </trkpt>
      <trkpt lat="48.78283" lon="-3.24282">
        <ele>12.9</ele>
        <time>2019-07-11T05:57:06Z</time>
      </trkpt>
      <trkpt lat="48.78284" lon="-3.24276">
        <ele>13.7</ele>
        <time>2019-07-11T05:57:07Z</time>
      </trkpt>
      <trkpt lat="48.78286" lon="-3.2427">
        <ele>14.4</ele>
        <time>2019-07-11T05:57:08Z</time>
      </trkpt>
      <trkpt lat="48.78287" lon="-3.24264">
        <ele>15</ele>
        <time>2019-07-11T05:57:09Z</time>
      </trkpt>
      <trkpt lat="48.78289" lon="-3.24259">
        <ele>15.9</ele>
        <time>2019-07-11T05:57:10Z</time>
      </trkpt>
      <trkpt lat="48.7829" lon="-3.24255">
        <ele>16.9</ele>
        <time>2019-07-11T05:57:11Z</time>
      </trkpt>
      <trkpt lat="48.78291" lon="-3.2425">
        <ele>18</ele>
        <time>2019-07-11T05:57:12Z</time>
      </trkpt>
      <trkpt lat="48.78294" lon="-3.24247">
        <ele>19.5</ele>
        <time>2019-07-11T05:57:13Z</time>
      </trkpt>
      <trkpt lat="48.78296" lon="-3.24242">
        <ele>20.5</ele>
        <time>2019-07-11T05:57:14Z</time>
      </trkpt>
      <trkpt lat="48.78297" lon="-3.24236">
        <ele>21.2</ele>
        <time>2019-07-11T05:57:15Z</time>
      </trkpt>
      <trkpt lat="48.78299" lon="-3.24231">
        <ele>22.2</ele>
        <time>2019-07-11T05:57:16Z</time>
      </trkpt>
      <trkpt lat="48.78301" lon="-3.24227">
        <ele>22.9</ele>
        <time>2019-07-11T05:57:17Z</time>
      </trkpt>
      <trkpt lat="48.78302" lon="-3.24222">
        <ele>24.1</ele>
        <time>2019-07-11T05:57:18Z</time>
      </trkpt>
      <trkpt lat="48.78302" lon="-3.24217">
        <ele>24.4</ele>
        <time>2019-07-11T05:57:19Z</time>
      </trkpt>
      <trkpt lat="48.78303" lon="-3.24214">
        <ele>25</ele>
        <time>2019-07-11T05:57:20Z</time>
      </trkpt>
      <trkpt lat="48.78303" lon="-3.2421">
        <ele>25.6</ele>
        <time>2019-07-11T05:57:21Z</time>
      </trkpt>
      <trkpt lat="48.78304" lon="-3.24207">
        <ele>25.9</ele>
        <time>2019-07-11T05:57:22Z</time>
      </trkpt>
      <trkpt lat="48.78305" lon="-3.24204">
        <ele>26.3</ele>
        <time>2019-07-11T05:57:23Z</time>
      </trkpt>
      <trkpt lat="48.78305" lon="-3.242">
        <ele>26.9</ele>
        <time>2019-07-11T05:57:24Z</time>
      </trkpt>
      <trkpt lat="48.78306" lon="-3.24196">
        <ele>27.7</ele>
        <time>2019-07-11T05:57:25Z</time>
      </trkpt>
      <trkpt lat="48.78307" lon="-3.24193">
        <ele>28.3</ele>
        <time>2019-07-11T05:57:26Z</time>
      </trkpt>
      <trkpt lat="48.78308" lon="-3.2419">
        <ele>29</ele>
        <time>2019-07-11T05:57:27Z</time>
      </trkpt>
      <trkpt lat="48.78309" lon="-3.24185">
        <ele>28.8</ele>
        <time>2019-07-11T05:57:28Z</time>
      </trkpt>
      <trkpt lat="48.78308" lon="-3.24181">
        <ele>28.5</ele>
        <time>2019-07-11T05:57:29Z</time>
      </trkpt>
      <trkpt lat="48.78306" lon="-3.24177">
        <ele>27.9</ele>
        <time>2019-07-11T05:57:30Z</time>
      </trkpt>
      <trkpt lat="48.78306" lon="-3.24173">
        <ele>27.8</ele>
        <time>2019-07-11T05:57:31Z</time>
      </trkpt>
      <trkpt lat="48.78307" lon="-3.24169">
        <ele>28</ele>
        <time>2019-07-11T05:57:32Z</time>
      </trkpt>
      <trkpt lat="48.78308" lon="-3.24164">
        <ele>28.6</ele>
        <time>2019-07-11T05:57:33Z</time>
      </trkpt>
      <trkpt lat="48.7831" lon="-3.24159">
        <ele>28.8</ele>
        <time>2019-07-11T05:57:34Z</time>
      </trkpt>
      <trkpt lat="48.7831" lon="-3.24154">
        <ele>29.3</ele>
        <time>2019-07-11T05:57:35Z</time>
      </trkpt>
      <trkpt lat="48.78312" lon="-3.24149">
        <ele>29.5</ele>
        <time>2019-07-11T05:57:36Z</time>
      </trkpt>
      <trkpt lat="48.78313" lon="-3.24145">
        <ele>29.4</ele>
        <time>2019-07-11T05:57:37Z</time>
      </trkpt>
      <trkpt lat="48.78315" lon="-3.24141">
        <ele>29.7</ele>
        <time>2019-07-11T05:57:38Z</time>
      </trkpt>
      <trkpt lat="48.78317" lon="-3.24137">
        <ele>30.1</ele>
        <time>2019-07-11T05:57:39Z</time>
      </trkpt>
      <trkpt lat="48.78319" lon="-3.24133">
        <ele>30.5</ele>
        <time>2019-07-11T05:57:40Z</time>
      </trkpt>
      <trkpt lat="48.7832" lon="-3.2413">
        <ele>31</ele>
        <time>2019-07-11T05:57:41Z</time>
      </trkpt>
      <trkpt lat="48.78322" lon="-3.24127">
        <ele>31.9</ele>
        <time>2019-07-11T05:57:42Z</time>
      </trkpt>
      <trkpt lat="48.78323" lon="-3.24124">
        <ele>32.2</ele>
        <time>2019-07-11T05:57:43Z</time>
      </trkpt>
      <trkpt lat="48.78325" lon="-3.24122">
        <ele>32.3</ele>
        <time>2019-07-11T05:57:44Z</time>
      </trkpt>
      <trkpt lat="48.78326" lon="-3.24119">
        <ele>32.2</ele>
        <time>2019-07-11T05:57:45Z</time>
      </trkpt>
      <trkpt lat="48.78328" lon="-3.24115">
        <ele>32.1</ele>
        <time>2019-07-11T05:57:46Z</time>
      </trkpt>
      <trkpt lat="48.7833" lon="-3.24112">
        <ele>32.2</ele>
        <time>2019-07-11T05:57:47Z</time>
      </trkpt>
      <trkpt lat="48.78331" lon="-3.24109">
        <ele>32.1</ele>
        <time>2019-07-11T05:57:48Z</time>
      </trkpt>
      <trkpt lat="48.78333" lon="-3.24106">
        <ele>32.3</ele>
        <time>2019-07-11T05:57:49Z</time>
      </trkpt>
      <trkpt lat="48.78334" lon="-3.24104">
        <ele>32.2</ele>
        <time>2019-07-11T05:57:50Z</time>
      </trkpt>
      <trkpt lat="48.78335" lon="-3.24101">
        <ele>31.9</ele>
        <time>2019-07-11T05:57:51Z</time>
      </trkpt>
      <trkpt lat="48.78337" lon="-3.24099">
        <ele>31.6</ele>
        <time>2019-07-11T05:57:52Z</time>
      </trkpt>
      <trkpt lat="48.78339" lon="-3.24097">
        <ele>31.5</ele>
        <time>2019-07-11T05:57:53Z</time>
      </trkpt>
      <trkpt lat="48.78341" lon="-3.24095">
        <ele>31.3</ele>
        <time>2019-07-11T05:57:54Z</time>
      </trkpt>
      <trkpt lat="48.78342" lon="-3.24093">
        <ele>31.3</ele>
        <time>2019-07-11T05:57:55Z</time>
      </trkpt>
      <trkpt lat="48.78344" lon="-3.24091">
        <ele>31.3</ele>
        <time>2019-07-11T05:57:56Z</time>
      </trkpt>
      <trkpt lat="48.78345" lon="-3.24089">
        <ele>31.1</ele>
        <time>2019-07-11T05:57:57Z</time>
      </trkpt>
      <trkpt lat="48.78347" lon="-3.24086">
        <ele>31.1</ele>
        <time>2019-07-11T05:57:58Z</time>
      </trkpt>
      <trkpt lat="48.78349" lon="-3.24084">
        <ele>31.2</ele>
        <time>2019-07-11T05:57:59Z</time>
      </trkpt>
      <trkpt lat="48.7835" lon="-3.24082">
        <ele>31.1</ele>
        <time>2019-07-11T05:58:00Z</time>
      </trkpt>
      <trkpt lat="48.78352" lon="-3.2408">
        <ele>31.1</ele>
        <time>2019-07-11T05:58:01Z</time>
      </trkpt>
      <trkpt lat="48.78354" lon="-3.24079">
        <ele>31.1</ele>
        <time>2019-07-11T05:58:02Z</time>
      </trkpt>
      <trkpt lat="48.78356" lon="-3.24077">
        <ele>30.9</ele>
        <time>2019-07-11T05:58:03Z</time>
      </trkpt>
      <trkpt lat="48.78358" lon="-3.24074">
        <ele>30.5</ele>
        <time>2019-07-11T05:58:04Z</time>
      </trkpt>
      <trkpt lat="48.7836" lon="-3.24071">
        <ele>30.2</ele>
        <time>2019-07-11T05:58:05Z</time>
      </trkpt>
      <trkpt lat="48.78362" lon="-3.24069">
        <ele>30.1</ele>
        <time>2019-07-11T05:58:06Z</time>
      </trkpt>
      <trkpt lat="48.78363" lon="-3.24067">
        <ele>30.1</ele>
        <time>2019-07-11T05:58:07Z</time>
      </trkpt>
      <trkpt lat="48.78365" lon="-3.24064">
        <ele>29.9</ele>
        <time>2019-07-11T05:58:08Z</time>
      </trkpt>
      <trkpt lat="48.78367" lon="-3.24061">
        <ele>30.1</ele>
        <time>2019-07-11T05:58:09Z</time>
      </trkpt>
      <trkpt lat="48.78368" lon="-3.24058">
        <ele>30</ele>
        <time>2019-07-11T05:58:10Z</time>
      </trkpt>
      <trkpt lat="48.7837" lon="-3.24056">
        <ele>30</ele>
        <time>2019-07-11T05:58:11Z</time>
      </trkpt>
      <trkpt lat="48.78371" lon="-3.24055">
        <ele>29.8</ele>
        <time>2019-07-11T05:58:12Z</time>
      </trkpt>
      <trkpt lat="48.78374" lon="-3.24053">
        <ele>29.4</ele>
        <time>2019-07-11T05:58:13Z</time>
      </trkpt>
      <trkpt lat="48.78376" lon="-3.24052">
        <ele>29.4</ele>
        <time>2019-07-11T05:58:14Z</time>
      </trkpt>
      <trkpt lat="48.78377" lon="-3.2405">
        <ele>29.5</ele>
        <time>2019-07-11T05:58:15Z</time>
      </trkpt>
      <trkpt lat="48.78378" lon="-3.24049">
        <ele>29.7</ele>
        <time>2019-07-11T05:58:16Z</time>
      </trkpt>
      <trkpt lat="48.78379" lon="-3.24046">
        <ele>29.9</ele>
        <time>2019-07-11T05:58:17Z</time>
      </trkpt>
      <trkpt lat="48.78381" lon="-3.24044">
        <ele>30.3</ele>
        <time>2019-07-11T05:58:18Z</time>
      </trkpt>
      <trkpt lat="48.78383" lon="-3.24042">
        <ele>30.5</ele>
        <time>2019-07-11T05:58:19Z</time>
      </trkpt>
      <trkpt lat="48.78383" lon="-3.2404">
        <ele>30.9</ele>
        <time>2019-07-11T05:58:20Z</time>
      </trkpt>
      <trkpt lat="48.78384" lon="-3.24039">
        <ele>31.4</ele>
        <time>2019-07-11T05:58:21Z</time>
      </trkpt>
      <trkpt lat="48.78386" lon="-3.24036">
        <ele>32.2</ele>
        <time>2019-07-11T05:58:22Z</time>
      </trkpt>
      <trkpt lat="48.78388" lon="-3.24032">
        <ele>33</ele>
        <time>2019-07-11T05:58:23Z</time>
      </trkpt>
      <trkpt lat="48.78389" lon="-3.24029">
        <ele>33.9</ele>
        <time>2019-07-11T05:58:24Z</time>
      </trkpt>
      <trkpt lat="48.7839" lon="-3.24026">
        <ele>34.5</ele>
        <time>2019-07-11T05:58:25Z</time>
      </trkpt>
      <trkpt lat="48.78392" lon="-3.24024">
        <ele>35</ele>
        <time>2019-07-11T05:58:26Z</time>
      </trkpt>
      <trkpt lat="48.78393" lon="-3.24022">
        <ele>35.2</ele>
        <time>2019-07-11T05:58:27Z</time>
      </trkpt>
      <trkpt lat="48.78395" lon="-3.2402">
        <ele>35.5</ele>
        <time>2019-07-11T05:58:28Z</time>
      </trkpt>
      <trkpt lat="48.78396" lon="-3.24018">
        <ele>35.8</ele>
        <time>2019-07-11T05:58:29Z</time>
      </trkpt>
      <trkpt lat="48.78397" lon="-3.24016">
        <ele>36.2</ele>
        <time>2019-07-11T05:58:30Z</time>
      </trkpt>
      <trkpt lat="48.78399" lon="-3.24015">
        <ele>36.5</ele>
        <time>2019-07-11T05:58:31Z</time>
      </trkpt>
      <trkpt lat="48.784" lon="-3.24013">
        <ele>36.9</ele>
        <time>2019-07-11T05:58:32Z</time>
      </trkpt>
      <trkpt lat="48.78402" lon="-3.24012">
        <ele>37.8</ele>
        <time>2019-07-11T05:58:33Z</time>
      </trkpt>
      <trkpt lat="48.78403" lon="-3.24011">
        <ele>38.6</ele>
        <time>2019-07-11T05:58:34Z</time>
      </trkpt>
      <trkpt lat="48.78405" lon="-3.2401">
        <ele>39.6</ele>
        <time>2019-07-11T05:58:35Z</time>
      </trkpt>
      <trkpt lat="48.78406" lon="-3.24009">
        <ele>40.5</ele>
        <time>2019-07-11T05:58:36Z</time>
      </trkpt>
      <trkpt lat="48.78408" lon="-3.24007">
        <ele>41.3</ele>
        <time>2019-07-11T05:58:37Z</time>
      </trkpt>
      <trkpt lat="48.7841" lon="-3.24006">
        <ele>42.3</ele>
        <time>2019-07-11T05:58:38Z</time>
      </trkpt>
      <trkpt lat="48.78411" lon="-3.24004">
        <ele>43.1</ele>
        <time>2019-07-11T05:58:39Z</time>
      </trkpt>
      <trkpt lat="48.78412" lon="-3.24003">
        <ele>43.5</ele>
        <time>2019-07-11T05:58:40Z</time>
      </trkpt>
      <trkpt lat="48.78413" lon="-3.24002">
        <ele>44</ele>
        <time>2019-07-11T05:58:41Z</time>
      </trkpt>
      <trkpt lat="48.78415" lon="-3.24">
        <ele>44.5</ele>
        <time>2019-07-11T05:58:42Z</time>
      </trkpt>
      <trkpt lat="48.78416" lon="-3.23999">
        <ele>44.6</ele>
        <time>2019-07-11T05:58:43Z</time>
      </trkpt>
      <trkpt lat="48.78417" lon="-3.23997">
        <ele>44.5</ele>
        <time>2019-07-11T05:58:44Z</time>
      </trkpt>
      <trkpt lat="48.78419" lon="-3.23996">
        <ele>44.5</ele>
        <time>2019-07-11T05:58:45Z</time>
      </trkpt>
      <trkpt lat="48.78422" lon="-3.23993">
        <ele>43.2</ele>
        <time>2019-07-11T05:58:46Z</time>
      </trkpt>
      <trkpt lat="48.78424" lon="-3.23991">
        <ele>42.4</ele>
        <time>2019-07-11T05:58:47Z</time>
      </trkpt>
      <trkpt lat="48.78426" lon="-3.23989">
        <ele>41.5</ele>
        <time>2019-07-11T05:58:48Z</time>
      </trkpt>
      <trkpt lat="48.78428" lon="-3.23987">
        <ele>40.7</ele>
        <time>2019-07-11T05:58:49Z</time>
      </trkpt>
      <trkpt lat="48.7843" lon="-3.23985">
        <ele>40</ele>
        <time>2019-07-11T05:58:50Z</time>
      </trkpt>
      <trkpt lat="48.78432" lon="-3.23983">
        <ele>39.2</ele>
        <time>2019-07-11T05:58:51Z</time>
      </trkpt>
      <trkpt lat="48.78434" lon="-3.23982">
        <ele>39.3</ele>
        <time>2019-07-11T05:58:52Z</time>
      </trkpt>
      <trkpt lat="48.78435" lon="-3.2398">
        <ele>39.1</ele>
        <time>2019-07-11T05:58:53Z</time>
      </trkpt>
      <trkpt lat="48.78437" lon="-3.23978">
        <ele>38.6</ele>
        <time>2019-07-11T05:58:54Z</time>
      </trkpt>
      <trkpt lat="48.78439" lon="-3.23976">
        <ele>38.4</ele>
        <time>2019-07-11T05:58:55Z</time>
      </trkpt>
      <trkpt lat="48.7844" lon="-3.23974">
        <ele>38.2</ele>
        <time>2019-07-11T05:58:56Z</time>
      </trkpt>
      <trkpt lat="48.78442" lon="-3.23971">
        <ele>38.2</ele>
        <time>2019-07-11T05:58:57Z</time>
      </trkpt>
      <trkpt lat="48.78444" lon="-3.23969">
        <ele>38.1</ele>
        <time>2019-07-11T05:58:58Z</time>
      </trkpt>
      <trkpt lat="48.78445" lon="-3.23967">
        <ele>38.3</ele>
        <time>2019-07-11T05:58:59Z</time>
      </trkpt>
      <trkpt lat="48.78447" lon="-3.23965">
        <ele>39</ele>
        <time>2019-07-11T05:59:00Z</time>
      </trkpt>
      <trkpt lat="48.78449" lon="-3.23963">
        <ele>39.3</ele>
        <time>2019-07-11T05:59:01Z</time>
      </trkpt>
      <trkpt lat="48.7845" lon="-3.23961">
        <ele>39.7</ele>
        <time>2019-07-11T05:59:02Z</time>
      </trkpt>
      <trkpt lat="48.78452" lon="-3.23959">
        <ele>39.9</ele>
        <time>2019-07-11T05:59:03Z</time>
      </trkpt>
      <trkpt lat="48.78454" lon="-3.23957">
        <ele>39.9</ele>
        <time>2019-07-11T05:59:04Z</time>
      </trkpt>
      <trkpt lat="48.78455" lon="-3.23954">
        <ele>40.3</ele>
        <time>2019-07-11T05:59:05Z</time>
      </trkpt>
      <trkpt lat="48.78457" lon="-3.23952">
        <ele>40.6</ele>
        <time>2019-07-11T05:59:06Z</time>
      </trkpt>
      <trkpt lat="48.78459" lon="-3.2395">
        <ele>40.4</ele>
        <time>2019-07-11T05:59:07Z</time>
      </trkpt>
      <trkpt lat="48.78461" lon="-3.23948">
        <ele>40.6</ele>
        <time>2019-07-11T05:59:08Z</time>
      </trkpt>
      <trkpt lat="48.78463" lon="-3.23945">
        <ele>41.3</ele>
        <time>2019-07-11T05:59:09Z</time>
      </trkpt>
      <trkpt lat="48.78465" lon="-3.23943">
        <ele>41.6</ele>
        <time>2019-07-11T05:59:10Z</time>
      </trkpt>
      <trkpt lat="48.78466" lon="-3.2394">
        <ele>41.9</ele>
        <time>2019-07-11T05:59:11Z</time>
      </trkpt>
      <trkpt lat="48.78468" lon="-3.23938">
        <ele>42</ele>
        <time>2019-07-11T05:59:12Z</time>
      </trkpt>
      <trkpt lat="48.7847" lon="-3.23935">
        <ele>42</ele>
        <time>2019-07-11T05:59:13Z</time>
      </trkpt>
      <trkpt lat="48.78472" lon="-3.23933">
        <ele>41.9</ele>
        <time>2019-07-11T05:59:14Z</time>
      </trkpt>
      <trkpt lat="48.78474" lon="-3.2393">
        <ele>42.5</ele>
        <time>2019-07-11T05:59:15Z</time>
      </trkpt>
      <trkpt lat="48.78475" lon="-3.23928">
        <ele>42.7</ele>
        <time>2019-07-11T05:59:16Z</time>
      </trkpt>
      <trkpt lat="48.78477" lon="-3.23925">
        <ele>43</ele>
        <time>2019-07-11T05:59:17Z</time>
      </trkpt>
      <trkpt lat="48.78479" lon="-3.23922">
        <ele>43.1</ele>
        <time>2019-07-11T05:59:18Z</time>
      </trkpt>
      <trkpt lat="48.78481" lon="-3.23919">
        <ele>43.1</ele>
        <time>2019-07-11T05:59:19Z</time>
      </trkpt>
      <trkpt lat="48.78482" lon="-3.23916">
        <ele>42.5</ele>
        <time>2019-07-11T05:59:20Z</time>
      </trkpt>
      <trkpt lat="48.78484" lon="-3.23913">
        <ele>41.6</ele>
        <time>2019-07-11T05:59:21Z</time>
      </trkpt>
      <trkpt lat="48.78486" lon="-3.2391">
        <ele>41.2</ele>
        <time>2019-07-11T05:59:22Z</time>
      </trkpt>
      <trkpt lat="48.78487" lon="-3.23907">
        <ele>41.3</ele>
        <time>2019-07-11T05:59:23Z</time>
      </trkpt>
      <trkpt lat="48.78489" lon="-3.23904">
        <ele>41.6</ele>
        <time>2019-07-11T05:59:24Z</time>
      </trkpt>
      <trkpt lat="48.78491" lon="-3.23901">
        <ele>41.4</ele>
        <time>2019-07-11T05:59:25Z</time>
      </trkpt>
      <trkpt lat="48.78492" lon="-3.23898">
        <ele>40.6</ele>
        <time>2019-07-11T05:59:26Z</time>
      </trkpt>
      <trkpt lat="48.78494" lon="-3.23895">
        <ele>39.5</ele>
        <time>2019-07-11T05:59:27Z</time>
      </trkpt>
      <trkpt lat="48.78496" lon="-3.23892">
        <ele>38.4</ele>
        <time>2019-07-11T05:59:28Z</time>
      </trkpt>
      <trkpt lat="48.78498" lon="-3.23889">
        <ele>38.3</ele>
        <time>2019-07-11T05:59:29Z</time>
      </trkpt>
      <trkpt lat="48.785" lon="-3.23886">
        <ele>39.5</ele>
        <time>2019-07-11T05:59:30Z</time>
      </trkpt>
      <trkpt lat="48.78501" lon="-3.23884">
        <ele>39.9</ele>
        <time>2019-07-11T05:59:31Z</time>
      </trkpt>
      <trkpt lat="48.78503" lon="-3.23882">
        <ele>39.9</ele>
        <time>2019-07-11T05:59:32Z</time>
      </trkpt>
      <trkpt lat="48.78504" lon="-3.23879">
        <ele>40.4</ele>
        <time>2019-07-11T05:59:33Z</time>
      </trkpt>
      <trkpt lat="48.78506" lon="-3.23877">
        <ele>40.5</ele>
        <time>2019-07-11T05:59:34Z</time>
      </trkpt>
      <trkpt lat="48.78507" lon="-3.23874">
        <ele>40.7</ele>
        <time>2019-07-11T05:59:35Z</time>
      </trkpt>
      <trkpt lat="48.78509" lon="-3.23872">
        <ele>40.9</ele>
        <time>2019-07-11T05:59:36Z</time>
      </trkpt>
      <trkpt lat="48.7851" lon="-3.23869">
        <ele>41.4</ele>
        <time>2019-07-11T05:59:37Z</time>
      </trkpt>
      <trkpt lat="48.78511" lon="-3.23867">
        <ele>42.3</ele>
        <time>2019-07-11T05:59:38Z</time>
      </trkpt>
      <trkpt lat="48.78512" lon="-3.23864">
        <ele>43.2</ele>
        <time>2019-07-11T05:59:39Z</time>
      </trkpt>
      <trkpt lat="48.78513" lon="-3.23861">
        <ele>43.9</ele>
        <time>2019-07-11T05:59:40Z</time>
      </trkpt>
      <trkpt lat="48.78515" lon="-3.23859">
        <ele>44.9</ele>
        <time>2019-07-11T05:59:41Z</time>
      </trkpt>
      <trkpt lat="48.78516" lon="-3.23856">
        <ele>44.9</ele>
        <time>2019-07-11T05:59:42Z</time>
      </trkpt>
      <trkpt lat="48.78517" lon="-3.23853">
        <ele>44.9</ele>
        <time>2019-07-11T05:59:43Z</time>
      </trkpt>
      <trkpt lat="48.78519" lon="-3.23851">
        <ele>44.7</ele>
        <time>2019-07-11T05:59:44Z</time>
      </trkpt>
      <trkpt lat="48.7852" lon="-3.23848">
        <ele>45</ele>
        <time>2019-07-11T05:59:45Z</time>
      </trkpt>
      <trkpt lat="48.78522" lon="-3.23845">
        <ele>45.2</ele>
        <time>2019-07-11T05:59:46Z</time>
      </trkpt>
      <trkpt lat="48.78523" lon="-3.23842">
        <ele>45.4</ele>
        <time>2019-07-11T05:59:47Z</time>
      </trkpt>
      <trkpt lat="48.78524" lon="-3.2384">
        <ele>45.3</ele>
        <time>2019-07-11T05:59:48Z</time>
      </trkpt>
      <trkpt lat="48.78526" lon="-3.23837">
        <ele>45.7</ele>
        <time>2019-07-11T05:59:49Z</time>
      </trkpt>
      <trkpt lat="48.78528" lon="-3.23834">
        <ele>45.5</ele>
        <time>2019-07-11T05:59:50Z</time>
      </trkpt>
      <trkpt lat="48.78529" lon="-3.2383">
        <ele>45</ele>
        <time>2019-07-11T05:59:51Z</time>
      </trkpt>
      <trkpt lat="48.78531" lon="-3.23827">
        <ele>44.5</ele>
        <time>2019-07-11T05:59:52Z</time>
      </trkpt>
      <trkpt lat="48.78532" lon="-3.23823">
        <ele>44.2</ele>
        <time>2019-07-11T05:59:53Z</time>
      </trkpt>
      <trkpt lat="48.78534" lon="-3.23821">
        <ele>44.2</ele>
        <time>2019-07-11T05:59:54Z</time>
      </trkpt>
      <trkpt lat="48.78536" lon="-3.23818">
        <ele>43.9</ele>
        <time>2019-07-11T05:59:55Z</time>
      </trkpt>
      <trkpt lat="48.78537" lon="-3.23814">
        <ele>43.7</ele>
        <time>2019-07-11T05:59:56Z</time>
      </trkpt>
      <trkpt lat="48.78539" lon="-3.23811">
        <ele>43.5</ele>
        <time>2019-07-11T05:59:57Z</time>
      </trkpt>
      <trkpt lat="48.7854" lon="-3.23808">
        <ele>43.8</ele>
        <time>2019-07-11T05:59:58Z</time>
      </trkpt>
      <trkpt lat="48.78541" lon="-3.23806">
        <ele>43.9</ele>
        <time>2019-07-11T05:59:59Z</time>
      </trkpt>
      <trkpt lat="48.78542" lon="-3.23803">
        <ele>43.8</ele>
        <time>2019-07-11T06:00:00Z</time>
      </trkpt>
      <trkpt lat="48.78544" lon="-3.23801">
        <ele>43.9</ele>
        <time>2019-07-11T06:00:01Z</time>
      </trkpt>
      <trkpt lat="48.78545" lon="-3.23798">
        <ele>43.8</ele>
        <time>2019-07-11T06:00:02Z</time>
      </trkpt>
      <trkpt lat="48.78546" lon="-3.23795">
        <ele>44.4</ele>
        <time>2019-07-11T06:00:03Z</time>
      </trkpt>
      <trkpt lat="48.78547" lon="-3.23792">
        <ele>45.3</ele>
        <time>2019-07-11T06:00:04Z</time>
      </trkpt>
      <trkpt lat="48.78548" lon="-3.23789">
        <ele>46.2</ele>
        <time>2019-07-11T06:00:05Z</time>
      </trkpt>
      <trkpt lat="48.7855" lon="-3.23787">
        <ele>46.9</ele>
        <time>2019-07-11T06:00:06Z</time>
      </trkpt>
      <trkpt lat="48.7855" lon="-3.23786">
        <ele>47.7</ele>
        <time>2019-07-11T06:00:07Z</time>
      </trkpt>
      <trkpt lat="48.78552" lon="-3.23784">
        <ele>47.9</ele>
        <time>2019-07-11T06:00:08Z</time>
      </trkpt>
      <trkpt lat="48.78553" lon="-3.23781">
        <ele>48.1</ele>
        <time>2019-07-11T06:00:09Z</time>
      </trkpt>
      <trkpt lat="48.78554" lon="-3.2378">
        <ele>48.2</ele>
        <time>2019-07-11T06:00:10Z</time>
      </trkpt>
      <trkpt lat="48.78571" lon="-3.23765">
        <ele>43.9</ele>
        <time>2019-07-11T06:06:07Z</time>
      </trkpt>
      <trkpt lat="48.78573" lon="-3.23762">
        <ele>44.1</ele>
        <time>2019-07-11T06:06:11Z</time>
      </trkpt>
      <trkpt lat="48.78574" lon="-3.23761">
        <ele>44.1</ele>
        <time>2019-07-11T06:06:12Z</time>
      </trkpt>
      <trkpt lat="48.78576" lon="-3.23759">
        <ele>44.1</ele>
        <time>2019-07-11T06:06:13Z</time>
      </trkpt>
      <trkpt lat="48.78577" lon="-3.23758">
        <ele>44.2</ele>
        <time>2019-07-11T06:06:14Z</time>
      </trkpt>
      <trkpt lat="48.78578" lon="-3.23756">
        <ele>44.3</ele>
        <time>2019-07-11T06:06:15Z</time>
      </trkpt>
      <trkpt lat="48.7858" lon="-3.23755">
        <ele>44.5</ele>
        <time>2019-07-11T06:06:16Z</time>
      </trkpt>
      <trkpt lat="48.78581" lon="-3.23754">
        <ele>44.7</ele>
        <time>2019-07-11T06:06:17Z</time>
      </trkpt>
      <trkpt lat="48.78582" lon="-3.23753">
        <ele>45.8</ele>
        <time>2019-07-11T06:06:18Z</time>
      </trkpt>
      <trkpt lat="48.78584" lon="-3.23751">
        <ele>46.2</ele>
        <time>2019-07-11T06:06:19Z</time>
      </trkpt>
      <trkpt lat="48.78586" lon="-3.23749">
        <ele>46.9</ele>
        <time>2019-07-11T06:06:20Z</time>
      </trkpt>
      <trkpt lat="48.78587" lon="-3.23746">
        <ele>47</ele>
        <time>2019-07-11T06:06:21Z</time>
      </trkpt>
      <trkpt lat="48.78589" lon="-3.23744">
        <ele>47</ele>
        <time>2019-07-11T06:06:22Z</time>
      </trkpt>
      <trkpt lat="48.7859" lon="-3.23741">
        <ele>47.3</ele>
        <time>2019-07-11T06:06:23Z</time>
      </trkpt>
      <trkpt lat="48.78593" lon="-3.23738">
        <ele>47.8</ele>
        <time>2019-07-11T06:06:24Z</time>
      </trkpt>
      <trkpt lat="48.78595" lon="-3.23735">
        <ele>48.5</ele>
        <time>2019-07-11T06:06:25Z</time>
      </trkpt>
      <trkpt lat="48.78597" lon="-3.23732">
        <ele>48.9</ele>
        <time>2019-07-11T06:06:26Z</time>
      </trkpt>
      <trkpt lat="48.78599" lon="-3.23729">
        <ele>49.5</ele>
        <time>2019-07-11T06:06:27Z</time>
      </trkpt>
      <trkpt lat="48.78602" lon="-3.23727">
        <ele>49.9</ele>
        <time>2019-07-11T06:06:28Z</time>
      </trkpt>
      <trkpt lat="48.78603" lon="-3.23724">
        <ele>50.2</ele>
        <time>2019-07-11T06:06:29Z</time>
      </trkpt>
      <trkpt lat="48.78606" lon="-3.23721">
        <ele>50.7</ele>
        <time>2019-07-11T06:06:30Z</time>
      </trkpt>
      <trkpt lat="48.78608" lon="-3.23719">
        <ele>51.3</ele>
        <time>2019-07-11T06:06:31Z</time>
      </trkpt>
      <trkpt lat="48.7861" lon="-3.23717">
        <ele>51.3</ele>
        <time>2019-07-11T06:06:32Z</time>
      </trkpt>
      <trkpt lat="48.78611" lon="-3.23715">
        <ele>51.2</ele>
        <time>2019-07-11T06:06:33Z</time>
      </trkpt>
      <trkpt lat="48.78613" lon="-3.23713">
        <ele>51.3</ele>
        <time>2019-07-11T06:06:34Z</time>
      </trkpt>
      <trkpt lat="48.78615" lon="-3.23711">
        <ele>51.8</ele>
        <time>2019-07-11T06:06:35Z</time>
      </trkpt>
      <trkpt lat="48.78617" lon="-3.2371">
        <ele>52.1</ele>
        <time>2019-07-11T06:06:36Z</time>
      </trkpt>
      <trkpt lat="48.78618" lon="-3.23707">
        <ele>52</ele>
        <time>2019-07-11T06:06:37Z</time>
      </trkpt>
      <trkpt lat="48.78619" lon="-3.23703">
        <ele>52.1</ele>
        <time>2019-07-11T06:06:38Z</time>
      </trkpt>
      <trkpt lat="48.78619" lon="-3.23698">
        <ele>51.9</ele>
        <time>2019-07-11T06:06:39Z</time>
      </trkpt>
      <trkpt lat="48.78619" lon="-3.23694">
        <ele>52.2</ele>
        <time>2019-07-11T06:06:40Z</time>
      </trkpt>
      <trkpt lat="48.78619" lon="-3.2369">
        <ele>52.8</ele>
        <time>2019-07-11T06:06:41Z</time>
      </trkpt>
      <trkpt lat="48.78619" lon="-3.23687">
        <ele>53.4</ele>
        <time>2019-07-11T06:06:42Z</time>
      </trkpt>
      <trkpt lat="48.78619" lon="-3.23683">
        <ele>54</ele>
        <time>2019-07-11T06:06:43Z</time>
      </trkpt>
      <trkpt lat="48.7862" lon="-3.23678">
        <ele>55.3</ele>
        <time>2019-07-11T06:06:44Z</time>
      </trkpt>
      <trkpt lat="48.78621" lon="-3.23673">
        <ele>56.6</ele>
        <time>2019-07-11T06:06:45Z</time>
      </trkpt>
      <trkpt lat="48.78622" lon="-3.23668">
        <ele>57.5</ele>
        <time>2019-07-11T06:06:46Z</time>
      </trkpt>
      <trkpt lat="48.78623" lon="-3.23663">
        <ele>58.2</ele>
        <time>2019-07-11T06:06:47Z</time>
      </trkpt>
      <trkpt lat="48.78624" lon="-3.23658">
        <ele>58.3</ele>
        <time>2019-07-11T06:06:48Z</time>
      </trkpt>
      <trkpt lat="48.78626" lon="-3.23652">
        <ele>58.4</ele>
        <time>2019-07-11T06:06:49Z</time>
      </trkpt>
      <trkpt lat="48.78627" lon="-3.23647">
        <ele>58.7</ele>
        <time>2019-07-11T06:06:50Z</time>
      </trkpt>
      <trkpt lat="48.7863" lon="-3.23641">
        <ele>58.9</ele>
        <time>2019-07-11T06:06:51Z</time>
      </trkpt>
      <trkpt lat="48.78631" lon="-3.23635">
        <ele>59.9</ele>
        <time>2019-07-11T06:06:52Z</time>
      </trkpt>
      <trkpt lat="48.78632" lon="-3.23629">
        <ele>60.4</ele>
        <time>2019-07-11T06:06:53Z</time>
      </trkpt>
      <trkpt lat="48.78635" lon="-3.23623">
        <ele>60.8</ele>
        <time>2019-07-11T06:06:54Z</time>
      </trkpt>
      <trkpt lat="48.78634" lon="-3.23618">
        <ele>59.7</ele>
        <time>2019-07-11T06:06:55Z</time>
      </trkpt>
      <trkpt lat="48.78634" lon="-3.23612">
        <ele>59.2</ele>
        <time>2019-07-11T06:06:56Z</time>
      </trkpt>
      <trkpt lat="48.78635" lon="-3.23605">
        <ele>59.1</ele>
        <time>2019-07-11T06:06:57Z</time>
      </trkpt>
      <trkpt lat="48.78636" lon="-3.23599">
        <ele>59.6</ele>
        <time>2019-07-11T06:06:58Z</time>
      </trkpt>
      <trkpt lat="48.78637" lon="-3.23593">
        <ele>59.9</ele>
        <time>2019-07-11T06:06:59Z</time>
      </trkpt>
      <trkpt lat="48.78639" lon="-3.23586">
        <ele>60</ele>
        <time>2019-07-11T06:07:00Z</time>
      </trkpt>
      <trkpt lat="48.78641" lon="-3.23581">
        <ele>59.7</ele>
        <time>2019-07-11T06:07:01Z</time>
      </trkpt>
      <trkpt lat="48.78643" lon="-3.23575">
        <ele>59.6</ele>
        <time>2019-07-11T06:07:02Z</time>
      </trkpt>
      <trkpt lat="48.78645" lon="-3.23569">
        <ele>59</ele>
        <time>2019-07-11T06:07:03Z</time>
      </trkpt>
      <trkpt lat="48.78647" lon="-3.23563">
        <ele>59</ele>
        <time>2019-07-11T06:07:04Z</time>
      </trkpt>
      <trkpt lat="48.78648" lon="-3.23558">
        <ele>58.2</ele>
        <time>2019-07-11T06:07:05Z</time>
      </trkpt>
      <trkpt lat="48.7865" lon="-3.23553">
        <ele>56.7</ele>
        <time>2019-07-11T06:07:06Z</time>
      </trkpt>
      <trkpt lat="48.78651" lon="-3.23547">
        <ele>55.6</ele>
        <time>2019-07-11T06:07:07Z</time>
      </trkpt>
      <trkpt lat="48.78653" lon="-3.23541">
        <ele>54.8</ele>
        <time>2019-07-11T06:07:08Z</time>
      </trkpt>
      <trkpt lat="48.78654" lon="-3.23535">
        <ele>54.5</ele>
        <time>2019-07-11T06:07:09Z</time>
      </trkpt>
      <trkpt lat="48.78655" lon="-3.23529">
        <ele>54.7</ele>
        <time>2019-07-11T06:07:10Z</time>
      </trkpt>
      <trkpt lat="48.78658" lon="-3.23524">
        <ele>55</ele>
        <time>2019-07-11T06:07:11Z</time>
      </trkpt>
      <trkpt lat="48.78659" lon="-3.23517">
        <ele>55.3</ele>
        <time>2019-07-11T06:07:12Z</time>
      </trkpt>
      <trkpt lat="48.78661" lon="-3.23511">
        <ele>55.6</ele>
        <time>2019-07-11T06:07:13Z</time>
      </trkpt>
      <trkpt lat="48.78662" lon="-3.23505">
        <ele>55.4</ele>
        <time>2019-07-11T06:07:14Z</time>
      </trkpt>
      <trkpt lat="48.78663" lon="-3.235">
        <ele>55.4</ele>
        <time>2019-07-11T06:07:15Z</time>
      </trkpt>
      <trkpt lat="48.78664" lon="-3.23494">
        <ele>55.5</ele>
        <time>2019-07-11T06:07:16Z</time>
      </trkpt>
      <trkpt lat="48.78664" lon="-3.23491">
        <ele>56.3</ele>
        <time>2019-07-11T06:07:17Z</time>
      </trkpt>
      <trkpt lat="48.78666" lon="-3.23487">
        <ele>56.9</ele>
        <time>2019-07-11T06:07:18Z</time>
      </trkpt>
      <trkpt lat="48.78667" lon="-3.23482">
        <ele>56.9</ele>
        <time>2019-07-11T06:07:19Z</time>
      </trkpt>
      <trkpt lat="48.78669" lon="-3.23477">
        <ele>57</ele>
        <time>2019-07-11T06:07:20Z</time>
      </trkpt>
      <trkpt lat="48.78671" lon="-3.23471">
        <ele>56.7</ele>
        <time>2019-07-11T06:07:21Z</time>
      </trkpt>
      <trkpt lat="48.78673" lon="-3.23465">
        <ele>56.7</ele>
        <time>2019-07-11T06:07:22Z</time>
      </trkpt>
      <trkpt lat="48.78674" lon="-3.2346">
        <ele>56.8</ele>
        <time>2019-07-11T06:07:23Z</time>
      </trkpt>
      <trkpt lat="48.78674" lon="-3.23457">
        <ele>56.8</ele>
        <time>2019-07-11T06:07:24Z</time>
      </trkpt>
      <trkpt lat="48.78674" lon="-3.23456">
        <ele>57.1</ele>
        <time>2019-07-11T06:07:25Z</time>
      </trkpt>
      <trkpt lat="48.78675" lon="-3.23455">
        <ele>57.2</ele>
        <time>2019-07-11T06:07:26Z</time>
      </trkpt>
      <trkpt lat="48.78677" lon="-3.23449">
        <ele>56.6</ele>
        <time>2019-07-11T06:07:29Z</time>
      </trkpt>
      <trkpt lat="48.78679" lon="-3.23443">
        <ele>55</ele>
        <time>2019-07-11T06:07:33Z</time>
      </trkpt>
      <trkpt lat="48.78679" lon="-3.23441">
        <ele>54.7</ele>
        <time>2019-07-11T06:07:34Z</time>
      </trkpt>
      <trkpt lat="48.7868" lon="-3.23435">
        <ele>52.3</ele>
        <time>2019-07-11T06:07:35Z</time>
      </trkpt>
      <trkpt lat="48.7868" lon="-3.23434">
        <ele>52.8</ele>
        <time>2019-07-11T06:07:36Z</time>
      </trkpt>
      <trkpt lat="48.7868" lon="-3.23433">
        <ele>52.8</ele>
        <time>2019-07-11T06:07:37Z</time>
      </trkpt>
      <trkpt lat="48.78677" lon="-3.23428">
        <ele>53.4</ele>
        <time>2019-07-11T06:07:51Z</time>
      </trkpt>
      <trkpt lat="48.78675" lon="-3.23427">
        <ele>53.6</ele>
        <time>2019-07-11T06:07:52Z</time>
      </trkpt>
      <trkpt lat="48.78674" lon="-3.23424">
        <ele>53.7</ele>
        <time>2019-07-11T06:07:53Z</time>
      </trkpt>
      <trkpt lat="48.78673" lon="-3.23423">
        <ele>53.6</ele>
        <time>2019-07-11T06:07:54Z</time>
      </trkpt>
      <trkpt lat="48.78672" lon="-3.23421">
        <ele>53.8</ele>
        <time>2019-07-11T06:07:55Z</time>
      </trkpt>
      <trkpt lat="48.78671" lon="-3.2342">
        <ele>54.2</ele>
        <time>2019-07-11T06:07:56Z</time>
      </trkpt>
      <trkpt lat="48.78673" lon="-3.23416">
        <ele>54.1</ele>
        <time>2019-07-11T06:07:57Z</time>
      </trkpt>
      <trkpt lat="48.78674" lon="-3.23411">
        <ele>54.2</ele>
        <time>2019-07-11T06:07:58Z</time>
      </trkpt>
      <trkpt lat="48.78676" lon="-3.23405">
        <ele>54</ele>
        <time>2019-07-11T06:07:59Z</time>
      </trkpt>
      <trkpt lat="48.78679" lon="-3.23402">
        <ele>53.8</ele>
        <time>2019-07-11T06:08:00Z</time>
      </trkpt>
      <trkpt lat="48.78681" lon="-3.23399">
        <ele>53.7</ele>
        <time>2019-07-11T06:08:01Z</time>
      </trkpt>
      <trkpt lat="48.78684" lon="-3.23398">
        <ele>53.1</ele>
        <time>2019-07-11T06:08:02Z</time>
      </trkpt>
      <trkpt lat="48.78687" lon="-3.23395">
        <ele>52.7</ele>
        <time>2019-07-11T06:08:03Z</time>
      </trkpt>
      <trkpt lat="48.7869" lon="-3.23391">
        <ele>52.5</ele>
        <time>2019-07-11T06:08:04Z</time>
      </trkpt>
      <trkpt lat="48.78693" lon="-3.23387">
        <ele>52.1</ele>
        <time>2019-07-11T06:08:05Z</time>
      </trkpt>
      <trkpt lat="48.78696" lon="-3.23384">
        <ele>52.3</ele>
        <time>2019-07-11T06:08:06Z</time>
      </trkpt>
      <trkpt lat="48.78698" lon="-3.2338">
        <ele>52.2</ele>
        <time>2019-07-11T06:08:07Z</time>
      </trkpt>
      <trkpt lat="48.78697" lon="-3.23378">
        <ele>51.4</ele>
        <time>2019-07-11T06:08:08Z</time>
      </trkpt>
      <trkpt lat="48.78698" lon="-3.23375">
        <ele>51.1</ele>
        <time>2019-07-11T06:08:09Z</time>
      </trkpt>
      <trkpt lat="48.78698" lon="-3.23372">
        <ele>51</ele>
        <time>2019-07-11T06:08:10Z</time>
      </trkpt>
      <trkpt lat="48.78699" lon="-3.23369">
        <ele>50.7</ele>
        <time>2019-07-11T06:08:11Z</time>
      </trkpt>
      <trkpt lat="48.787" lon="-3.23365">
        <ele>50.7</ele>
        <time>2019-07-11T06:08:12Z</time>
      </trkpt>
      <trkpt lat="48.78701" lon="-3.2336">
        <ele>50.6</ele>
        <time>2019-07-11T06:08:13Z</time>
      </trkpt>
      <trkpt lat="48.78703" lon="-3.23354">
        <ele>50.7</ele>
        <time>2019-07-11T06:08:14Z</time>
      </trkpt>
      <trkpt lat="48.78704" lon="-3.23349">
        <ele>50.7</ele>
        <time>2019-07-11T06:08:15Z</time>
      </trkpt>
      <trkpt lat="48.78705" lon="-3.23345">
        <ele>50.6</ele>
        <time>2019-07-11T06:08:16Z</time>
      </trkpt>
      <trkpt lat="48.78705" lon="-3.23341">
        <ele>50.7</ele>
        <time>2019-07-11T06:08:17Z</time>
      </trkpt>
      <trkpt lat="48.78707" lon="-3.23337">
        <ele>50.9</ele>
        <time>2019-07-11T06:08:18Z</time>
      </trkpt>
      <trkpt lat="48.78708" lon="-3.23333">
        <ele>51.2</ele>
        <time>2019-07-11T06:08:19Z</time>
      </trkpt>
      <trkpt lat="48.7871" lon="-3.2333">
        <ele>51.4</ele>
        <time>2019-07-11T06:08:20Z</time>
      </trkpt>
      <trkpt lat="48.78713" lon="-3.23325">
        <ele>51.5</ele>
        <time>2019-07-11T06:08:21Z</time>
      </trkpt>
      <trkpt lat="48.78714" lon="-3.23321">
        <ele>51.6</ele>
        <time>2019-07-11T06:08:22Z</time>
      </trkpt>
      <trkpt lat="48.78715" lon="-3.23318">
        <ele>51.7</ele>
        <time>2019-07-11T06:08:23Z</time>
      </trkpt>
      <trkpt lat="48.78716" lon="-3.23316">
        <ele>52.1</ele>
        <time>2019-07-11T06:08:24Z</time>
      </trkpt>
      <trkpt lat="48.78719" lon="-3.23307">
        <ele>54.3</ele>
        <time>2019-07-11T06:08:30Z</time>
      </trkpt>
      <trkpt lat="48.7872" lon="-3.23307">
        <ele>54.4</ele>
        <time>2019-07-11T06:08:31Z</time>
      </trkpt>
      <trkpt lat="48.78721" lon="-3.23306">
        <ele>54.4</ele>
        <time>2019-07-11T06:08:32Z</time>
      </trkpt>
      <trkpt lat="48.78721" lon="-3.23303">
        <ele>54.4</ele>
        <time>2019-07-11T06:08:33Z</time>
      </trkpt>
      <trkpt lat="48.78722" lon="-3.233">
        <ele>54.6</ele>
        <time>2019-07-11T06:08:34Z</time>
      </trkpt>
      <trkpt lat="48.78723" lon="-3.23296">
        <ele>54.6</ele>
        <time>2019-07-11T06:08:35Z</time>
      </trkpt>
      <trkpt lat="48.78725" lon="-3.23292">
        <ele>55</ele>
        <time>2019-07-11T06:08:36Z</time>
      </trkpt>
      <trkpt lat="48.78726" lon="-3.23288">
        <ele>55.1</ele>
        <time>2019-07-11T06:08:37Z</time>
      </trkpt>
      <trkpt lat="48.78728" lon="-3.23284">
        <ele>55.1</ele>
        <time>2019-07-11T06:08:38Z</time>
      </trkpt>
      <trkpt lat="48.78729" lon="-3.23281">
        <ele>55</ele>
        <time>2019-07-11T06:08:39Z</time>
      </trkpt>
      <trkpt lat="48.7873" lon="-3.23278">
        <ele>54.8</ele>
        <time>2019-07-11T06:08:40Z</time>
      </trkpt>
      <trkpt lat="48.78731" lon="-3.23275">
        <ele>54.7</ele>
        <time>2019-07-11T06:08:41Z</time>
      </trkpt>
      <trkpt lat="48.78733" lon="-3.23272">
        <ele>54.4</ele>
        <time>2019-07-11T06:08:42Z</time>
      </trkpt>
      <trkpt lat="48.78733" lon="-3.2327">
        <ele>54.5</ele>
        <time>2019-07-11T06:08:43Z</time>
      </trkpt>
      <trkpt lat="48.78735" lon="-3.23269">
        <ele>54.2</ele>
        <time>2019-07-11T06:08:44Z</time>
      </trkpt>
      <trkpt lat="48.78742" lon="-3.23272">
        <ele>54.3</ele>
        <time>2019-07-11T06:08:51Z</time>
      </trkpt>
      <trkpt lat="48.78746" lon="-3.23274">
        <ele>54.2</ele>
        <time>2019-07-11T06:08:52Z</time>
      </trkpt>
      <trkpt lat="48.78751" lon="-3.23278">
        <ele>54.1</ele>
        <time>2019-07-11T06:08:53Z</time>
      </trkpt>
      <trkpt lat="48.78755" lon="-3.2328">
        <ele>54.2</ele>
        <time>2019-07-11T06:08:54Z</time>
      </trkpt>
      <trkpt lat="48.78758" lon="-3.23282">
        <ele>54.4</ele>
        <time>2019-07-11T06:08:55Z</time>
      </trkpt>
      <trkpt lat="48.78761" lon="-3.23284">
        <ele>54.6</ele>
        <time>2019-07-11T06:08:56Z</time>
      </trkpt>
      <trkpt lat="48.78763" lon="-3.23287">
        <ele>54.5</ele>
        <time>2019-07-11T06:08:57Z</time>
      </trkpt>
      <trkpt lat="48.78767" lon="-3.23289">
        <ele>54.8</ele>
        <time>2019-07-11T06:08:58Z</time>
      </trkpt>
      <trkpt lat="48.7877" lon="-3.23291">
        <ele>55.1</ele>
        <time>2019-07-11T06:08:59Z</time>
      </trkpt>
      <trkpt lat="48.78774" lon="-3.23293">
        <ele>55.4</ele>
        <time>2019-07-11T06:09:00Z</time>
      </trkpt>
      <trkpt lat="48.78777" lon="-3.23295">
        <ele>55.6</ele>
        <time>2019-07-11T06:09:01Z</time>
      </trkpt>
      <trkpt lat="48.7878" lon="-3.23298">
        <ele>55.6</ele>
        <time>2019-07-11T06:09:02Z</time>
      </trkpt>
      <trkpt lat="48.78787" lon="-3.23298">
        <ele>54.8</ele>
        <time>2019-07-11T06:09:03Z</time>
      </trkpt>
      <trkpt lat="48.7879" lon="-3.23299">
        <ele>54.8</ele>
        <time>2019-07-11T06:09:04Z</time>
      </trkpt>
      <trkpt lat="48.78793" lon="-3.23301">
        <ele>55</ele>
        <time>2019-07-11T06:09:05Z</time>
      </trkpt>
      <trkpt lat="48.78796" lon="-3.23305">
        <ele>55.1</ele>
        <time>2019-07-11T06:09:06Z</time>
      </trkpt>
      <trkpt lat="48.78799" lon="-3.23309">
        <ele>53.9</ele>
        <time>2019-07-11T06:09:07Z</time>
      </trkpt>
      <trkpt lat="48.78802" lon="-3.23313">
        <ele>52.6</ele>
        <time>2019-07-11T06:09:08Z</time>
      </trkpt>
      <trkpt lat="48.78806" lon="-3.23318">
        <ele>50.7</ele>
        <time>2019-07-11T06:09:09Z</time>
      </trkpt>
      <trkpt lat="48.78809" lon="-3.23322">
        <ele>49.6</ele>
        <time>2019-07-11T06:09:10Z</time>
      </trkpt>
      <trkpt lat="48.78813" lon="-3.23326">
        <ele>48.9</ele>
        <time>2019-07-11T06:09:11Z</time>
      </trkpt>
      <trkpt lat="48.78817" lon="-3.2333">
        <ele>47.1</ele>
        <time>2019-07-11T06:09:12Z</time>
      </trkpt>
      <trkpt lat="48.7882" lon="-3.23334">
        <ele>46</ele>
        <time>2019-07-11T06:09:13Z</time>
      </trkpt>
      <trkpt lat="48.78824" lon="-3.23336">
        <ele>44.5</ele>
        <time>2019-07-11T06:09:14Z</time>
      </trkpt>
      <trkpt lat="48.78827" lon="-3.23339">
        <ele>43.1</ele>
        <time>2019-07-11T06:09:15Z</time>
      </trkpt>
      <trkpt lat="48.7883" lon="-3.23341">
        <ele>42</ele>
        <time>2019-07-11T06:09:16Z</time>
      </trkpt>
      <trkpt lat="48.78833" lon="-3.23344">
        <ele>41.3</ele>
        <time>2019-07-11T06:09:17Z</time>
      </trkpt>
      <trkpt lat="48.78834" lon="-3.23347">
        <ele>41.7</ele>
        <time>2019-07-11T06:09:18Z</time>
      </trkpt>
      <trkpt lat="48.78835" lon="-3.23353">
        <ele>43.3</ele>
        <time>2019-07-11T06:09:19Z</time>
      </trkpt>
      <trkpt lat="48.78836" lon="-3.23359">
        <ele>44</ele>
        <time>2019-07-11T06:09:20Z</time>
      </trkpt>
      <trkpt lat="48.78837" lon="-3.23365">
        <ele>43.9</ele>
        <time>2019-07-11T06:09:21Z</time>
      </trkpt>
      <trkpt lat="48.78836" lon="-3.23372">
        <ele>42.5</ele>
        <time>2019-07-11T06:09:22Z</time>
      </trkpt>
      <trkpt lat="48.78835" lon="-3.23379">
        <ele>41.9</ele>
        <time>2019-07-11T06:09:23Z</time>
      </trkpt>
      <trkpt lat="48.78834" lon="-3.23385">
        <ele>42.1</ele>
        <time>2019-07-11T06:09:24Z</time>
      </trkpt>
      <trkpt lat="48.78832" lon="-3.23392">
        <ele>41.4</ele>
        <time>2019-07-11T06:09:25Z</time>
      </trkpt>
      <trkpt lat="48.78829" lon="-3.23397">
        <ele>41.5</ele>
        <time>2019-07-11T06:09:26Z</time>
      </trkpt>
      <trkpt lat="48.78827" lon="-3.23403">
        <ele>40.9</ele>
        <time>2019-07-11T06:09:27Z</time>
      </trkpt>
      <trkpt lat="48.78825" lon="-3.2341">
        <ele>40.2</ele>
        <time>2019-07-11T06:09:28Z</time>
      </trkpt>
      <trkpt lat="48.78824" lon="-3.23415">
        <ele>39.1</ele>
        <time>2019-07-11T06:09:29Z</time>
      </trkpt>
      <trkpt lat="48.78824" lon="-3.23421">
        <ele>38</ele>
        <time>2019-07-11T06:09:30Z</time>
      </trkpt>
      <trkpt lat="48.78823" lon="-3.23426">
        <ele>36.6</ele>
        <time>2019-07-11T06:09:31Z</time>
      </trkpt>
      <trkpt lat="48.78824" lon="-3.23431">
        <ele>35.1</ele>
        <time>2019-07-11T06:09:32Z</time>
      </trkpt>
      <trkpt lat="48.78824" lon="-3.23437">
        <ele>33.4</ele>
        <time>2019-07-11T06:09:33Z</time>
      </trkpt>
      <trkpt lat="48.78823" lon="-3.23442">
        <ele>31.7</ele>
        <time>2019-07-11T06:09:34Z</time>
      </trkpt>
      <trkpt lat="48.78823" lon="-3.23447">
        <ele>30.5</ele>
        <time>2019-07-11T06:09:35Z</time>
      </trkpt>
      <trkpt lat="48.78822" lon="-3.23452">
        <ele>29</ele>
        <time>2019-07-11T06:09:36Z</time>
      </trkpt>
      <trkpt lat="48.78821" lon="-3.23458">
        <ele>28.1</ele>
        <time>2019-07-11T06:09:37Z</time>
      </trkpt>
      <trkpt lat="48.78821" lon="-3.23466">
        <ele>27.3</ele>
        <time>2019-07-11T06:09:38Z</time>
      </trkpt>
      <trkpt lat="48.78821" lon="-3.23473">
        <ele>26.8</ele>
        <time>2019-07-11T06:09:39Z</time>
      </trkpt>
      <trkpt lat="48.78819" lon="-3.2348">
        <ele>26.4</ele>
        <time>2019-07-11T06:09:40Z</time>
      </trkpt>
      <trkpt lat="48.78817" lon="-3.23487">
        <ele>25.7</ele>
        <time>2019-07-11T06:09:41Z</time>
      </trkpt>
      <trkpt lat="48.78816" lon="-3.23494">
        <ele>25.2</ele>
        <time>2019-07-11T06:09:42Z</time>
      </trkpt>
      <trkpt lat="48.78814" lon="-3.235">
        <ele>24.6</ele>
        <time>2019-07-11T06:09:43Z</time>
      </trkpt>
      <trkpt lat="48.78812" lon="-3.23505">
        <ele>24</ele>
        <time>2019-07-11T06:09:44Z</time>
      </trkpt>
      <trkpt lat="48.78811" lon="-3.2351">
        <ele>23.7</ele>
        <time>2019-07-11T06:09:45Z</time>
      </trkpt>
      <trkpt lat="48.7881" lon="-3.23515">
        <ele>23.8</ele>
        <time>2019-07-11T06:09:46Z</time>
      </trkpt>
      <trkpt lat="48.78808" lon="-3.23522">
        <ele>23.6</ele>
        <time>2019-07-11T06:09:47Z</time>
      </trkpt>
      <trkpt lat="48.78807" lon="-3.23528">
        <ele>23.7</ele>
        <time>2019-07-11T06:09:48Z</time>
      </trkpt>
      <trkpt lat="48.78806" lon="-3.23535">
        <ele>23.8</ele>
        <time>2019-07-11T06:09:49Z</time>
      </trkpt>
      <trkpt lat="48.78805" lon="-3.23542">
        <ele>23.7</ele>
        <time>2019-07-11T06:09:50Z</time>
      </trkpt>
      <trkpt lat="48.78804" lon="-3.23548">
        <ele>23.9</ele>
        <time>2019-07-11T06:09:51Z</time>
      </trkpt>
      <trkpt lat="48.78803" lon="-3.23554">
        <ele>24</ele>
        <time>2019-07-11T06:09:52Z</time>
      </trkpt>
      <trkpt lat="48.78802" lon="-3.23559">
        <ele>23.7</ele>
        <time>2019-07-11T06:09:53Z</time>
      </trkpt>
      <trkpt lat="48.78802" lon="-3.23562">
        <ele>23.3</ele>
        <time>2019-07-11T06:09:54Z</time>
      </trkpt>
      <trkpt lat="48.78801" lon="-3.23565">
        <ele>23.1</ele>
        <time>2019-07-11T06:09:55Z</time>
      </trkpt>
      <trkpt lat="48.78801" lon="-3.23568">
        <ele>23.2</ele>
        <time>2019-07-11T06:09:56Z</time>
      </trkpt>
      <trkpt lat="48.78801" lon="-3.23571">
        <ele>23.4</ele>
        <time>2019-07-11T06:09:57Z</time>
      </trkpt>
      <trkpt lat="48.78802" lon="-3.23575">
        <ele>23.3</ele>
        <time>2019-07-11T06:09:58Z</time>
      </trkpt>
      <trkpt lat="48.78803" lon="-3.2358">
        <ele>22.9</ele>
        <time>2019-07-11T06:09:59Z</time>
      </trkpt>
      <trkpt lat="48.78806" lon="-3.23585">
        <ele>22.5</ele>
        <time>2019-07-11T06:10:00Z</time>
      </trkpt>
      <trkpt lat="48.78809" lon="-3.23591">
        <ele>21.6</ele>
        <time>2019-07-11T06:10:01Z</time>
      </trkpt>
      <trkpt lat="48.78812" lon="-3.23595">
        <ele>21.1</ele>
        <time>2019-07-11T06:10:02Z</time>
      </trkpt>
      <trkpt lat="48.78815" lon="-3.23602">
        <ele>20.7</ele>
        <time>2019-07-11T06:10:03Z</time>
      </trkpt>
      <trkpt lat="48.78818" lon="-3.23609">
        <ele>20.7</ele>
        <time>2019-07-11T06:10:04Z</time>
      </trkpt>
      <trkpt lat="48.7882" lon="-3.23615">
        <ele>21.1</ele>
        <time>2019-07-11T06:10:05Z</time>
      </trkpt>
      <trkpt lat="48.78822" lon="-3.23621">
        <ele>22</ele>
        <time>2019-07-11T06:10:06Z</time>
      </trkpt>
      <trkpt lat="48.78824" lon="-3.23627">
        <ele>22.6</ele>
        <time>2019-07-11T06:10:07Z</time>
      </trkpt>
      <trkpt lat="48.78826" lon="-3.23632">
        <ele>23</ele>
        <time>2019-07-11T06:10:08Z</time>
      </trkpt>
      <trkpt lat="48.78828" lon="-3.23638">
        <ele>23.3</ele>
        <time>2019-07-11T06:10:09Z</time>
      </trkpt>
      <trkpt lat="48.78828" lon="-3.23645">
        <ele>25</ele>
        <time>2019-07-11T06:10:10Z</time>
      </trkpt>
      <trkpt lat="48.78831" lon="-3.23651">
        <ele>25.6</ele>
        <time>2019-07-11T06:10:11Z</time>
      </trkpt>
      <trkpt lat="48.78834" lon="-3.23656">
        <ele>26</ele>
        <time>2019-07-11T06:10:12Z</time>
      </trkpt>
      <trkpt lat="48.78838" lon="-3.2366">
        <ele>26.1</ele>
        <time>2019-07-11T06:10:13Z</time>
      </trkpt>
      <trkpt lat="48.78841" lon="-3.23664">
        <ele>26.2</ele>
        <time>2019-07-11T06:10:14Z</time>
      </trkpt>
      <trkpt lat="48.78845" lon="-3.23668">
        <ele>26.1</ele>
        <time>2019-07-11T06:10:15Z</time>
      </trkpt>
      <trkpt lat="48.78847" lon="-3.23671">
        <ele>26.3</ele>
        <time>2019-07-11T06:10:16Z</time>
      </trkpt>
      <trkpt lat="48.78851" lon="-3.23676">
        <ele>26.4</ele>
        <time>2019-07-11T06:10:17Z</time>
      </trkpt>
      <trkpt lat="48.78855" lon="-3.23679">
        <ele>26.8</ele>
        <time>2019-07-11T06:10:18Z</time>
      </trkpt>
      <trkpt lat="48.78859" lon="-3.23684">
        <ele>26.5</ele>
        <time>2019-07-11T06:10:19Z</time>
      </trkpt>
      <trkpt lat="48.78863" lon="-3.23688">
        <ele>25.8</ele>
        <time>2019-07-11T06:10:20Z</time>
      </trkpt>
      <trkpt lat="48.78867" lon="-3.23689">
        <ele>26.5</ele>
        <time>2019-07-11T06:10:21Z</time>
      </trkpt>
      <trkpt lat="48.7887" lon="-3.23693">
        <ele>26.4</ele>
        <time>2019-07-11T06:10:22Z</time>
      </trkpt>
      <trkpt lat="48.78872" lon="-3.23697">
        <ele>26.5</ele>
        <time>2019-07-11T06:10:23Z</time>
      </trkpt>
      <trkpt lat="48.78875" lon="-3.23702">
        <ele>26.4</ele>
        <time>2019-07-11T06:10:24Z</time>
      </trkpt>
      <trkpt lat="48.78878" lon="-3.23707">
        <ele>26.4</ele>
        <time>2019-07-11T06:10:25Z</time>
      </trkpt>
      <trkpt lat="48.78882" lon="-3.23712">
        <ele>26.3</ele>
        <time>2019-07-11T06:10:26Z</time>
      </trkpt>
      <trkpt lat="48.78885" lon="-3.23716">
        <ele>25.9</ele>
        <time>2019-07-11T06:10:27Z</time>
      </trkpt>
      <trkpt lat="48.78889" lon="-3.23721">
        <ele>25.3</ele>
        <time>2019-07-11T06:10:28Z</time>
      </trkpt>
      <trkpt lat="48.78893" lon="-3.23725">
        <ele>25.1</ele>
        <time>2019-07-11T06:10:29Z</time>
      </trkpt>
      <trkpt lat="48.78898" lon="-3.23729">
        <ele>25</ele>
        <time>2019-07-11T06:10:30Z</time>
      </trkpt>
      <trkpt lat="48.78902" lon="-3.23735">
        <ele>24.9</ele>
        <time>2019-07-11T06:10:31Z</time>
      </trkpt>
      <trkpt lat="48.78906" lon="-3.2374">
        <ele>24.7</ele>
        <time>2019-07-11T06:10:32Z</time>
      </trkpt>
      <trkpt lat="48.7891" lon="-3.23744">
        <ele>25.9</ele>
        <time>2019-07-11T06:10:33Z</time>
      </trkpt>
      <trkpt lat="48.78915" lon="-3.23746">
        <ele>26.5</ele>
        <time>2019-07-11T06:10:34Z</time>
      </trkpt>
      <trkpt lat="48.7892" lon="-3.23747">
        <ele>26.8</ele>
        <time>2019-07-11T06:10:35Z</time>
      </trkpt>
      <trkpt lat="48.78923" lon="-3.23748">
        <ele>28.1</ele>
        <time>2019-07-11T06:10:36Z</time>
      </trkpt>
      <trkpt lat="48.78926" lon="-3.23753">
        <ele>26.1</ele>
        <time>2019-07-11T06:10:37Z</time>
      </trkpt>
      <trkpt lat="48.7893" lon="-3.23755">
        <ele>25.3</ele>
        <time>2019-07-11T06:10:38Z</time>
      </trkpt>
      <trkpt lat="48.78933" lon="-3.23756">
        <ele>25.5</ele>
        <time>2019-07-11T06:10:39Z</time>
      </trkpt>
      <trkpt lat="48.78937" lon="-3.23759">
        <ele>25.2</ele>
        <time>2019-07-11T06:10:40Z</time>
      </trkpt>
      <trkpt lat="48.7894" lon="-3.23758">
        <ele>25.5</ele>
        <time>2019-07-11T06:10:41Z</time>
      </trkpt>
      <trkpt lat="48.78944" lon="-3.23756">
        <ele>23.5</ele>
        <time>2019-07-11T06:10:42Z</time>
      </trkpt>
      <trkpt lat="48.7895" lon="-3.23752">
        <ele>21</ele>
        <time>2019-07-11T06:10:43Z</time>
      </trkpt>
      <trkpt lat="48.78954" lon="-3.23747">
        <ele>19.4</ele>
        <time>2019-07-11T06:10:44Z</time>
      </trkpt>
      <trkpt lat="48.78958" lon="-3.23745">
        <ele>18.1</ele>
        <time>2019-07-11T06:10:45Z</time>
      </trkpt>
      <trkpt lat="48.78962" lon="-3.23742">
        <ele>16.4</ele>
        <time>2019-07-11T06:10:46Z</time>
      </trkpt>
      <trkpt lat="48.78966" lon="-3.23739">
        <ele>14</ele>
        <time>2019-07-11T06:10:47Z</time>
      </trkpt>
      <trkpt lat="48.78969" lon="-3.23737">
        <ele>12.5</ele>
        <time>2019-07-11T06:10:48Z</time>
      </trkpt>
      <trkpt lat="48.78972" lon="-3.23736">
        <ele>11.2</ele>
        <time>2019-07-11T06:10:49Z</time>
      </trkpt>
      <trkpt lat="48.78974" lon="-3.23735">
        <ele>10.4</ele>
        <time>2019-07-11T06:10:50Z</time>
      </trkpt>
      <trkpt lat="48.78975" lon="-3.23734">
        <ele>9.1</ele>
        <time>2019-07-11T06:10:51Z</time>
      </trkpt>
      <trkpt lat="48.78976" lon="-3.23732">
        <ele>8.3</ele>
        <time>2019-07-11T06:10:52Z</time>
      </trkpt>
      <trkpt lat="48.78977" lon="-3.23731">
        <ele>7.9</ele>
        <time>2019-07-11T06:10:53Z</time>
      </trkpt>
      <trkpt lat="48.78978" lon="-3.23729">
        <ele>7.5</ele>
        <time>2019-07-11T06:10:54Z</time>
      </trkpt>
      <trkpt lat="48.78978" lon="-3.23727">
        <ele>7</ele>
        <time>2019-07-11T06:10:55Z</time>
      </trkpt>
      <trkpt lat="48.78978" lon="-3.23725">
        <ele>6.9</ele>
        <time>2019-07-11T06:10:56Z</time>
      </trkpt>
      <trkpt lat="48.78978" lon="-3.23723">
        <ele>6.6</ele>
        <time>2019-07-11T06:10:57Z</time>
      </trkpt>
      <trkpt lat="48.78978" lon="-3.23722">
        <ele>6.3</ele>
        <time>2019-07-11T06:10:58Z</time>
      </trkpt>
      <trkpt lat="48.78978" lon="-3.2372">
        <ele>5.7</ele>
        <time>2019-07-11T06:10:59Z</time>
      </trkpt>
      <trkpt lat="48.78978" lon="-3.23718">
        <ele>5.5</ele>
        <time>2019-07-11T06:11:00Z</time>
      </trkpt>
      <trkpt lat="48.78977" lon="-3.2371">
        <ele>4.5</ele>
        <time>2019-07-11T06:11:16Z</time>
      </trkpt>
      <trkpt lat="48.78977" lon="-3.23708">
        <ele>4.4</ele>
        <time>2019-07-11T06:11:17Z</time>
      </trkpt>
      <trkpt lat="48.78976" lon="-3.23706">
        <ele>4.4</ele>
        <time>2019-07-11T06:11:18Z</time>
      </trkpt>
      <trkpt lat="48.78976" lon="-3.23703">
        <ele>4.3</ele>
        <time>2019-07-11T06:11:19Z</time>
      </trkpt>
      <trkpt lat="48.78976" lon="-3.237">
        <ele>4.1</ele>
        <time>2019-07-11T06:11:20Z</time>
      </trkpt>
      <trkpt lat="48.78976" lon="-3.23697">
        <ele>4</ele>
        <time>2019-07-11T06:11:21Z</time>
      </trkpt>
      <trkpt lat="48.78976" lon="-3.23694">
        <ele>3.7</ele>
        <time>2019-07-11T06:11:22Z</time>
      </trkpt>
      <trkpt lat="48.78975" lon="-3.23691">
        <ele>3</ele>
        <time>2019-07-11T06:11:23Z</time>
      </trkpt>
      <trkpt lat="48.78975" lon="-3.23687">
        <ele>2.3</ele>
        <time>2019-07-11T06:11:24Z</time>
      </trkpt>
      <trkpt lat="48.78974" lon="-3.23684">
        <ele>1.5</ele>
        <time>2019-07-11T06:11:25Z</time>
      </trkpt>
      <trkpt lat="48.78974" lon="-3.2368">
        <ele>0.5</ele>
        <time>2019-07-11T06:11:26Z</time>
      </trkpt>
      <trkpt lat="48.78973" lon="-3.23676">
        <ele>-0.5</ele>
        <time>2019-07-11T06:11:27Z</time>
      </trkpt>
      <trkpt lat="48.78973" lon="-3.23672">
        <ele>-0.9</ele>
        <time>2019-07-11T06:11:28Z</time>
      </trkpt>
      <trkpt lat="48.78972" lon="-3.23668">
        <ele>-1.4</ele>
        <time>2019-07-11T06:11:29Z</time>
      </trkpt>
      <trkpt lat="48.78972" lon="-3.23664">
        <ele>-1.8</ele>
        <time>2019-07-11T06:11:30Z</time>
      </trkpt>
      <trkpt lat="48.7897" lon="-3.23661">
        <ele>-1.9</ele>
        <time>2019-07-11T06:11:31Z</time>
      </trkpt>
      <trkpt lat="48.7897" lon="-3.23657">
        <ele>-1.5</ele>
        <time>2019-07-11T06:11:32Z</time>
      </trkpt>
      <trkpt lat="48.78969" lon="-3.23654">
        <ele>-1</ele>
        <time>2019-07-11T06:11:33Z</time>
      </trkpt>
      <trkpt lat="48.78969" lon="-3.23651">
        <ele>-0.9</ele>
        <time>2019-07-11T06:11:34Z</time>
      </trkpt>
      <trkpt lat="48.78968" lon="-3.23648">
        <ele>-0.6</ele>
        <time>2019-07-11T06:11:35Z</time>
      </trkpt>
      <trkpt lat="48.78968" lon="-3.23647">
        <ele>-0.3</ele>
        <time>2019-07-11T06:11:36Z</time>
      </trkpt>
      <trkpt lat="48.78968" lon="-3.23645">
        <time>2019-07-11T06:11:37Z</time>
      </trkpt>
      <trkpt lat="48.78966" lon="-3.23633">
        <ele>2</ele>
        <time>2019-07-11T06:11:49Z</time>
      </trkpt>
      <trkpt lat="48.78965" lon="-3.23631">
        <ele>2</ele>
        <time>2019-07-11T06:11:50Z</time>
      </trkpt>
      <trkpt lat="48.78965" lon="-3.23628">
        <ele>2.1</ele>
        <time>2019-07-11T06:11:51Z</time>
      </trkpt>
      <trkpt lat="48.78965" lon="-3.23626">
        <ele>2</ele>
        <time>2019-07-11T06:11:52Z</time>
      </trkpt>
      <trkpt lat="48.78965" lon="-3.23623">
        <ele>2.2</ele>
        <time>2019-07-11T06:11:53Z</time>
      </trkpt>
      <trkpt lat="48.78966" lon="-3.23621">
        <ele>2.5</ele>
        <time>2019-07-11T06:11:54Z</time>
      </trkpt>
      <trkpt lat="48.78967" lon="-3.23619">
        <ele>2.9</ele>
        <time>2019-07-11T06:11:55Z</time>
      </trkpt>
      <trkpt lat="48.78969" lon="-3.23617">
        <ele>3.4</ele>
        <time>2019-07-11T06:11:56Z</time>
      </trkpt>
      <trkpt lat="48.7897" lon="-3.23615">
        <ele>4</ele>
        <time>2019-07-11T06:11:57Z</time>
      </trkpt>
      <trkpt lat="48.78972" lon="-3.23614">
        <ele>4.4</ele>
        <time>2019-07-11T06:11:58Z</time>
      </trkpt>
      <trkpt lat="48.78972" lon="-3.23613">
        <ele>5</ele>
        <time>2019-07-11T06:11:59Z</time>
      </trkpt>
      <trkpt lat="48.78973" lon="-3.23612">
        <ele>5.6</ele>
        <time>2019-07-11T06:12:00Z</time>
      </trkpt>
      <trkpt lat="48.78974" lon="-3.23612">
        <ele>6</ele>
        <time>2019-07-11T06:12:01Z</time>
      </trkpt>
      <trkpt lat="48.78976" lon="-3.23611">
        <ele>6.9</ele>
        <time>2019-07-11T06:12:02Z</time>
      </trkpt>
      <trkpt lat="48.78978" lon="-3.23611">
        <ele>7.9</ele>
        <time>2019-07-11T06:12:03Z</time>
      </trkpt>
      <trkpt lat="48.7898" lon="-3.2361">
        <ele>8.9</ele>
        <time>2019-07-11T06:12:04Z</time>
      </trkpt>
      <trkpt lat="48.78981" lon="-3.23609">
        <ele>9.8</ele>
        <time>2019-07-11T06:12:05Z</time>
      </trkpt>
      <trkpt lat="48.78983" lon="-3.23609">
        <ele>10.5</ele>
        <time>2019-07-11T06:12:06Z</time>
      </trkpt>
      <trkpt lat="48.78985" lon="-3.23608">
        <ele>11.1</ele>
        <time>2019-07-11T06:12:07Z</time>
      </trkpt>
      <trkpt lat="48.78985" lon="-3.23606">
        <ele>11.6</ele>
        <time>2019-07-11T06:12:08Z</time>
      </trkpt>
      <trkpt lat="48.78986" lon="-3.23603">
        <ele>11.8</ele>
        <time>2019-07-11T06:12:09Z</time>
      </trkpt>
      <trkpt lat="48.78986" lon="-3.23601">
        <ele>12.4</ele>
        <time>2019-07-11T06:12:10Z</time>
      </trkpt>
      <trkpt lat="48.78986" lon="-3.23598">
        <ele>13</ele>
        <time>2019-07-11T06:12:11Z</time>
      </trkpt>
      <trkpt lat="48.78986" lon="-3.23596">
        <ele>13.5</ele>
        <time>2019-07-11T06:12:12Z</time>
      </trkpt>
      <trkpt lat="48.78985" lon="-3.23594">
        <ele>14.2</ele>
        <time>2019-07-11T06:12:13Z</time>
      </trkpt>
      <trkpt lat="48.78984" lon="-3.23593">
        <ele>14.7</ele>
        <time>2019-07-11T06:12:14Z</time>
      </trkpt>
      <trkpt lat="48.78983" lon="-3.23591">
        <ele>14.8</ele>
        <time>2019-07-11T06:12:15Z</time>
      </trkpt>
      <trkpt lat="48.78982" lon="-3.23589">
        <ele>14.7</ele>
        <time>2019-07-11T06:12:16Z</time>
      </trkpt>
      <trkpt lat="48.78981" lon="-3.23587">
        <ele>14.6</ele>
        <time>2019-07-11T06:12:17Z</time>
      </trkpt>
      <trkpt lat="48.7898" lon="-3.23584">
        <ele>14.6</ele>
        <time>2019-07-11T06:12:18Z</time>
      </trkpt>
      <trkpt lat="48.78978" lon="-3.23582">
        <ele>14.3</ele>
        <time>2019-07-11T06:12:19Z</time>
      </trkpt>
      <trkpt lat="48.78978" lon="-3.2358">
        <ele>14.1</ele>
        <time>2019-07-11T06:12:20Z</time>
      </trkpt>
      <trkpt lat="48.78978" lon="-3.23577">
        <ele>13.5</ele>
        <time>2019-07-11T06:12:21Z</time>
      </trkpt>
      <trkpt lat="48.78978" lon="-3.23575">
        <ele>13</ele>
        <time>2019-07-11T06:12:22Z</time>
      </trkpt>
      <trkpt lat="48.78978" lon="-3.23572">
        <ele>12.7</ele>
        <time>2019-07-11T06:12:23Z</time>
      </trkpt>
      <trkpt lat="48.78978" lon="-3.23569">
        <ele>11.6</ele>
        <time>2019-07-11T06:12:24Z</time>
      </trkpt>
      <trkpt lat="48.78978" lon="-3.23566">
        <ele>10.6</ele>
        <time>2019-07-11T06:12:25Z</time>
      </trkpt>
      <trkpt lat="48.78979" lon="-3.23563">
        <ele>9.6</ele>
        <time>2019-07-11T06:12:26Z</time>
      </trkpt>
      <trkpt lat="48.78979" lon="-3.2356">
        <ele>9.1</ele>
        <time>2019-07-11T06:12:27Z</time>
      </trkpt>
      <trkpt lat="48.78978" lon="-3.23557">
        <ele>8.8</ele>
        <time>2019-07-11T06:12:28Z</time>
      </trkpt>
      <trkpt lat="48.78978" lon="-3.23554">
        <ele>8.8</ele>
        <time>2019-07-11T06:12:29Z</time>
      </trkpt>
      <trkpt lat="48.78978" lon="-3.23551">
        <ele>8.4</ele>
        <time>2019-07-11T06:12:30Z</time>
      </trkpt>
      <trkpt lat="48.78978" lon="-3.23549">
        <ele>8.9</ele>
        <time>2019-07-11T06:12:31Z</time>
      </trkpt>
      <trkpt lat="48.78978" lon="-3.23546">
        <ele>8.9</ele>
        <time>2019-07-11T06:12:32Z</time>
      </trkpt>
      <trkpt lat="48.78978" lon="-3.23544">
        <ele>8.9</ele>
        <time>2019-07-11T06:12:33Z</time>
      </trkpt>
      <trkpt lat="48.78978" lon="-3.23541">
        <ele>8.8</ele>
        <time>2019-07-11T06:12:34Z</time>
      </trkpt>
      <trkpt lat="48.78979" lon="-3.23537">
        <ele>7.8</ele>
        <time>2019-07-11T06:12:35Z</time>
      </trkpt>
      <trkpt lat="48.7898" lon="-3.23534">
        <ele>6.7</ele>
        <time>2019-07-11T06:12:36Z</time>
      </trkpt>
      <trkpt lat="48.7898" lon="-3.23531">
        <ele>6.5</ele>
        <time>2019-07-11T06:12:37Z</time>
      </trkpt>
      <trkpt lat="48.78981" lon="-3.23528">
        <ele>6.7</ele>
        <time>2019-07-11T06:12:38Z</time>
      </trkpt>
      <trkpt lat="48.78982" lon="-3.23525">
        <ele>6.8</ele>
        <time>2019-07-11T06:12:39Z</time>
      </trkpt>
      <trkpt lat="48.78983" lon="-3.23522">
        <ele>6.9</ele>
        <time>2019-07-11T06:12:40Z</time>
      </trkpt>
      <trkpt lat="48.78984" lon="-3.23519">
        <ele>7.5</ele>
        <time>2019-07-11T06:12:41Z</time>
      </trkpt>
      <trkpt lat="48.78984" lon="-3.23516">
        <ele>7.5</ele>
        <time>2019-07-11T06:12:42Z</time>
      </trkpt>
      <trkpt lat="48.78985" lon="-3.23513">
        <ele>8.2</ele>
        <time>2019-07-11T06:12:43Z</time>
      </trkpt>
      <trkpt lat="48.78986" lon="-3.2351">
        <ele>8.5</ele>
        <time>2019-07-11T06:12:44Z</time>
      </trkpt>
      <trkpt lat="48.78986" lon="-3.23507">
        <ele>8.6</ele>
        <time>2019-07-11T06:12:45Z</time>
      </trkpt>
      <trkpt lat="48.78988" lon="-3.23503">
        <ele>8.4</ele>
        <time>2019-07-11T06:12:46Z</time>
      </trkpt>
      <trkpt lat="48.78989" lon="-3.235">
        <ele>8.7</ele>
        <time>2019-07-11T06:12:47Z</time>
      </trkpt>
      <trkpt lat="48.78991" lon="-3.23496">
        <ele>9.6</ele>
        <time>2019-07-11T06:12:48Z</time>
      </trkpt>
      <trkpt lat="48.78992" lon="-3.23493">
        <ele>10.2</ele>
        <time>2019-07-11T06:12:49Z</time>
      </trkpt>
      <trkpt lat="48.78993" lon="-3.23489">
        <ele>11.1</ele>
        <time>2019-07-11T06:12:50Z</time>
      </trkpt>
      <trkpt lat="48.78995" lon="-3.23484">
        <ele>11.2</ele>
        <time>2019-07-11T06:12:51Z</time>
      </trkpt>
      <trkpt lat="48.78996" lon="-3.2348">
        <ele>12.4</ele>
        <time>2019-07-11T06:12:52Z</time>
      </trkpt>
      <trkpt lat="48.78998" lon="-3.23477">
        <ele>13.3</ele>
        <time>2019-07-11T06:12:53Z</time>
      </trkpt>
      <trkpt lat="48.78999" lon="-3.23473">
        <ele>13.5</ele>
        <time>2019-07-11T06:12:54Z</time>
      </trkpt>
      <trkpt lat="48.79001" lon="-3.23469">
        <ele>14</ele>
        <time>2019-07-11T06:12:55Z</time>
      </trkpt>
      <trkpt lat="48.79003" lon="-3.23465">
        <ele>14.8</ele>
        <time>2019-07-11T06:12:56Z</time>
      </trkpt>
      <trkpt lat="48.79005" lon="-3.23462">
        <ele>14.9</ele>
        <time>2019-07-11T06:12:57Z</time>
      </trkpt>
      <trkpt lat="48.79007" lon="-3.23458">
        <ele>15.4</ele>
        <time>2019-07-11T06:12:58Z</time>
      </trkpt>
      <trkpt lat="48.79009" lon="-3.23455">
        <ele>15.4</ele>
        <time>2019-07-11T06:12:59Z</time>
      </trkpt>
      <trkpt lat="48.7901" lon="-3.23452">
        <ele>16</ele>
        <time>2019-07-11T06:13:00Z</time>
      </trkpt>
      <trkpt lat="48.79012" lon="-3.2345">
        <ele>16.5</ele>
        <time>2019-07-11T06:13:01Z</time>
      </trkpt>
      <trkpt lat="48.79014" lon="-3.2345">
        <ele>16.7</ele>
        <time>2019-07-11T06:13:02Z</time>
      </trkpt>
      <trkpt lat="48.79015" lon="-3.2345">
        <ele>17.3</ele>
        <time>2019-07-11T06:13:03Z</time>
      </trkpt>
      <trkpt lat="48.79017" lon="-3.2345">
        <ele>17.8</ele>
        <time>2019-07-11T06:13:04Z</time>
      </trkpt>
      <trkpt lat="48.79018" lon="-3.23452">
        <ele>18.3</ele>
        <time>2019-07-11T06:13:05Z</time>
      </trkpt>
      <trkpt lat="48.7902" lon="-3.23454">
        <ele>18.9</ele>
        <time>2019-07-11T06:13:06Z</time>
      </trkpt>
      <trkpt lat="48.7902" lon="-3.23458">
        <ele>19.4</ele>
        <time>2019-07-11T06:13:07Z</time>
      </trkpt>
      <trkpt lat="48.79021" lon="-3.23461">
        <ele>20.1</ele>
        <time>2019-07-11T06:13:08Z</time>
      </trkpt>
      <trkpt lat="48.79022" lon="-3.23465">
        <ele>20.7</ele>
        <time>2019-07-11T06:13:09Z</time>
      </trkpt>
      <trkpt lat="48.79022" lon="-3.23469">
        <ele>21.5</ele>
        <time>2019-07-11T06:13:10Z</time>
      </trkpt>
      <trkpt lat="48.79023" lon="-3.23473">
        <ele>21.6</ele>
        <time>2019-07-11T06:13:11Z</time>
      </trkpt>
      <trkpt lat="48.79024" lon="-3.23477">
        <ele>21.6</ele>
        <time>2019-07-11T06:13:12Z</time>
      </trkpt>
      <trkpt lat="48.79025" lon="-3.23482">
        <ele>21.2</ele>
        <time>2019-07-11T06:13:13Z</time>
      </trkpt>
      <trkpt lat="48.79026" lon="-3.23485">
        <ele>21.2</ele>
        <time>2019-07-11T06:13:14Z</time>
      </trkpt>
      <trkpt lat="48.79027" lon="-3.23489">
        <ele>21.6</ele>
        <time>2019-07-11T06:13:15Z</time>
      </trkpt>
      <trkpt lat="48.79028" lon="-3.23493">
        <ele>21.8</ele>
        <time>2019-07-11T06:13:16Z</time>
      </trkpt>
      <trkpt lat="48.79029" lon="-3.23498">
        <ele>21.9</ele>
        <time>2019-07-11T06:13:17Z</time>
      </trkpt>
      <trkpt lat="48.7903" lon="-3.23502">
        <ele>22.1</ele>
        <time>2019-07-11T06:13:18Z</time>
      </trkpt>
      <trkpt lat="48.79031" lon="-3.23507">
        <ele>22.5</ele>
        <time>2019-07-11T06:13:19Z</time>
      </trkpt>
      <trkpt lat="48.79032" lon="-3.23512">
        <ele>22.7</ele>
        <time>2019-07-11T06:13:20Z</time>
      </trkpt>
      <trkpt lat="48.79033" lon="-3.23516">
        <ele>22.9</ele>
        <time>2019-07-11T06:13:21Z</time>
      </trkpt>
      <trkpt lat="48.79034" lon="-3.2352">
        <ele>23.5</ele>
        <time>2019-07-11T06:13:22Z</time>
      </trkpt>
      <trkpt lat="48.79036" lon="-3.23524">
        <ele>23.9</ele>
        <time>2019-07-11T06:13:23Z</time>
      </trkpt>
      <trkpt lat="48.79037" lon="-3.23529">
        <ele>24.1</ele>
        <time>2019-07-11T06:13:24Z</time>
      </trkpt>
      <trkpt lat="48.79039" lon="-3.23532">
        <ele>24.3</ele>
        <time>2019-07-11T06:13:25Z</time>
      </trkpt>
      <trkpt lat="48.7904" lon="-3.23536">
        <ele>24.2</ele>
        <time>2019-07-11T06:13:26Z</time>
      </trkpt>
      <trkpt lat="48.79042" lon="-3.2354">
        <ele>23.5</ele>
        <time>2019-07-11T06:13:27Z</time>
      </trkpt>
      <trkpt lat="48.79043" lon="-3.23543">
        <ele>23.4</ele>
        <time>2019-07-11T06:13:28Z</time>
      </trkpt>
      <trkpt lat="48.79045" lon="-3.23546">
        <ele>23</ele>
        <time>2019-07-11T06:13:29Z</time>
      </trkpt>
      <trkpt lat="48.79047" lon="-3.23549">
        <ele>23.2</ele>
        <time>2019-07-11T06:13:30Z</time>
      </trkpt>
      <trkpt lat="48.79048" lon="-3.23552">
        <ele>23.5</ele>
        <time>2019-07-11T06:13:31Z</time>
      </trkpt>
      <trkpt lat="48.7905" lon="-3.23556">
        <ele>23.6</ele>
        <time>2019-07-11T06:13:32Z</time>
      </trkpt>
      <trkpt lat="48.79054" lon="-3.2356">
        <ele>23.5</ele>
        <time>2019-07-11T06:13:33Z</time>
      </trkpt>
      <trkpt lat="48.79057" lon="-3.23564">
        <ele>22.6</ele>
        <time>2019-07-11T06:13:34Z</time>
      </trkpt>
      <trkpt lat="48.79062" lon="-3.23568">
        <ele>21.6</ele>
        <time>2019-07-11T06:13:35Z</time>
      </trkpt>
      <trkpt lat="48.79066" lon="-3.23571">
        <ele>21.6</ele>
        <time>2019-07-11T06:13:36Z</time>
      </trkpt>
      <trkpt lat="48.7907" lon="-3.23575">
        <ele>21.9</ele>
        <time>2019-07-11T06:13:37Z</time>
      </trkpt>
      <trkpt lat="48.79075" lon="-3.23578">
        <ele>22</ele>
        <time>2019-07-11T06:13:38Z</time>
      </trkpt>
      <trkpt lat="48.79079" lon="-3.23581">
        <ele>22.1</ele>
        <time>2019-07-11T06:13:39Z</time>
      </trkpt>
      <trkpt lat="48.79084" lon="-3.23584">
        <ele>21.5</ele>
        <time>2019-07-11T06:13:40Z</time>
      </trkpt>
      <trkpt lat="48.79088" lon="-3.23587">
        <ele>20.7</ele>
        <time>2019-07-11T06:13:41Z</time>
      </trkpt>
      <trkpt lat="48.79092" lon="-3.2359">
        <ele>19.5</ele>
        <time>2019-07-11T06:13:42Z</time>
      </trkpt>
      <trkpt lat="48.79097" lon="-3.23594">
        <ele>17.6</ele>
        <time>2019-07-11T06:13:43Z</time>
      </trkpt>
      <trkpt lat="48.79102" lon="-3.23599">
        <ele>15.8</ele>
        <time>2019-07-11T06:13:44Z</time>
      </trkpt>
      <trkpt lat="48.79105" lon="-3.23603">
        <ele>15.3</ele>
        <time>2019-07-11T06:13:45Z</time>
      </trkpt>
      <trkpt lat="48.79109" lon="-3.23607">
        <ele>14.8</ele>
        <time>2019-07-11T06:13:46Z</time>
      </trkpt>
      <trkpt lat="48.79113" lon="-3.23612">
        <ele>14.2</ele>
        <time>2019-07-11T06:13:47Z</time>
      </trkpt>
      <trkpt lat="48.79117" lon="-3.23617">
        <ele>13.7</ele>
        <time>2019-07-11T06:13:48Z</time>
      </trkpt>
      <trkpt lat="48.79121" lon="-3.23623">
        <ele>13.5</ele>
        <time>2019-07-11T06:13:49Z</time>
      </trkpt>
      <trkpt lat="48.79125" lon="-3.23628">
        <ele>13.2</ele>
        <time>2019-07-11T06:13:50Z</time>
      </trkpt>
      <trkpt lat="48.79129" lon="-3.23633">
        <ele>12.9</ele>
        <time>2019-07-11T06:13:51Z</time>
      </trkpt>
      <trkpt lat="48.79134" lon="-3.23639">
        <ele>12.6</ele>
        <time>2019-07-11T06:13:52Z</time>
      </trkpt>
      <trkpt lat="48.79138" lon="-3.23644">
        <ele>12.2</ele>
        <time>2019-07-11T06:13:53Z</time>
      </trkpt>
      <trkpt lat="48.79142" lon="-3.2365">
        <ele>11.8</ele>
        <time>2019-07-11T06:13:54Z</time>
      </trkpt>
      <trkpt lat="48.79147" lon="-3.23656">
        <ele>11.6</ele>
        <time>2019-07-11T06:13:55Z</time>
      </trkpt>
      <trkpt lat="48.79151" lon="-3.23663">
        <ele>11.7</ele>
        <time>2019-07-11T06:13:56Z</time>
      </trkpt>
      <trkpt lat="48.79155" lon="-3.2367">
        <ele>11.7</ele>
        <time>2019-07-11T06:13:57Z</time>
      </trkpt>
      <trkpt lat="48.7916" lon="-3.23677">
        <ele>11.6</ele>
        <time>2019-07-11T06:13:58Z</time>
      </trkpt>
      <trkpt lat="48.79165" lon="-3.23684">
        <ele>11.2</ele>
        <time>2019-07-11T06:13:59Z</time>
      </trkpt>
      <trkpt lat="48.7917" lon="-3.23691">
        <ele>10.9</ele>
        <time>2019-07-11T06:14:00Z</time>
      </trkpt>
      <trkpt lat="48.79174" lon="-3.23698">
        <ele>10.5</ele>
        <time>2019-07-11T06:14:01Z</time>
      </trkpt>
      <trkpt lat="48.7918" lon="-3.23703">
        <ele>9</ele>
        <time>2019-07-11T06:14:02Z</time>
      </trkpt>
      <trkpt lat="48.79186" lon="-3.23709">
        <ele>8.5</ele>
        <time>2019-07-11T06:14:03Z</time>
      </trkpt>
      <trkpt lat="48.79191" lon="-3.23716">
        <ele>8</ele>
        <time>2019-07-11T06:14:04Z</time>
      </trkpt>
      <trkpt lat="48.79197" lon="-3.23723">
        <ele>7.6</ele>
        <time>2019-07-11T06:14:05Z</time>
      </trkpt>
      <trkpt lat="48.79202" lon="-3.23729">
        <ele>6.9</ele>
        <time>2019-07-11T06:14:06Z</time>
      </trkpt>
      <trkpt lat="48.79206" lon="-3.23735">
        <ele>6.7</ele>
        <time>2019-07-11T06:14:07Z</time>
      </trkpt>
      <trkpt lat="48.7921" lon="-3.23743">
        <ele>6.6</ele>
        <time>2019-07-11T06:14:08Z</time>
      </trkpt>
      <trkpt lat="48.79212" lon="-3.23749">
        <ele>6.7</ele>
        <time>2019-07-11T06:14:09Z</time>
      </trkpt>
      <trkpt lat="48.79212" lon="-3.23754">
        <ele>8.1</ele>
        <time>2019-07-11T06:14:10Z</time>
      </trkpt>
      <trkpt lat="48.79212" lon="-3.23762">
        <ele>8.1</ele>
        <time>2019-07-11T06:14:11Z</time>
      </trkpt>
      <trkpt lat="48.79212" lon="-3.23768">
        <ele>7</ele>
        <time>2019-07-11T06:14:12Z</time>
      </trkpt>
      <trkpt lat="48.79214" lon="-3.23773">
        <ele>6.3</ele>
        <time>2019-07-11T06:14:13Z</time>
      </trkpt>
      <trkpt lat="48.79216" lon="-3.23777">
        <ele>5.8</ele>
        <time>2019-07-11T06:14:14Z</time>
      </trkpt>
      <trkpt lat="48.79218" lon="-3.23779">
        <ele>5.9</ele>
        <time>2019-07-11T06:14:15Z</time>
      </trkpt>
      <trkpt lat="48.79221" lon="-3.2378">
        <ele>5.7</ele>
        <time>2019-07-11T06:14:16Z</time>
      </trkpt>
      <trkpt lat="48.79223" lon="-3.23781">
        <ele>5.9</ele>
        <time>2019-07-11T06:14:17Z</time>
      </trkpt>
      <trkpt lat="48.79226" lon="-3.23782">
        <ele>6.6</ele>
        <time>2019-07-11T06:14:18Z</time>
      </trkpt>
      <trkpt lat="48.79229" lon="-3.23784">
        <ele>7.3</ele>
        <time>2019-07-11T06:14:19Z</time>
      </trkpt>
      <trkpt lat="48.79232" lon="-3.23785">
        <ele>7.5</ele>
        <time>2019-07-11T06:14:20Z</time>
      </trkpt>
      <trkpt lat="48.79234" lon="-3.23787">
        <ele>8</ele>
        <time>2019-07-11T06:14:21Z</time>
      </trkpt>
      <trkpt lat="48.79236" lon="-3.23789">
        <ele>8.1</ele>
        <time>2019-07-11T06:14:22Z</time>
      </trkpt>
      <trkpt lat="48.79238" lon="-3.2379">
        <ele>8.6</ele>
        <time>2019-07-11T06:14:23Z</time>
      </trkpt>
      <trkpt lat="48.7924" lon="-3.23792">
        <ele>9.3</ele>
        <time>2019-07-11T06:14:24Z</time>
      </trkpt>
      <trkpt lat="48.79242" lon="-3.23794">
        <ele>10.1</ele>
        <time>2019-07-11T06:14:25Z</time>
      </trkpt>
      <trkpt lat="48.79244" lon="-3.23795">
        <ele>11.1</ele>
        <time>2019-07-11T06:14:26Z</time>
      </trkpt>
      <trkpt lat="48.79245" lon="-3.23796">
        <ele>12</ele>
        <time>2019-07-11T06:14:27Z</time>
      </trkpt>
      <trkpt lat="48.79247" lon="-3.23798">
        <ele>12.3</ele>
        <time>2019-07-11T06:14:28Z</time>
      </trkpt>
      <trkpt lat="48.79249" lon="-3.23799">
        <ele>12.5</ele>
        <time>2019-07-11T06:14:29Z</time>
      </trkpt>
      <trkpt lat="48.7925" lon="-3.238">
        <ele>12.6</ele>
        <time>2019-07-11T06:14:30Z</time>
      </trkpt>
      <trkpt lat="48.79252" lon="-3.23801">
        <ele>12.8</ele>
        <time>2019-07-11T06:14:31Z</time>
      </trkpt>
      <trkpt lat="48.79254" lon="-3.23802">
        <ele>13.2</ele>
        <time>2019-07-11T06:14:32Z</time>
      </trkpt>
      <trkpt lat="48.79255" lon="-3.23804">
        <ele>13.8</ele>
        <time>2019-07-11T06:14:33Z</time>
      </trkpt>
      <trkpt lat="48.79257" lon="-3.23805">
        <ele>14.1</ele>
        <time>2019-07-11T06:14:34Z</time>
      </trkpt>
      <trkpt lat="48.79259" lon="-3.23806">
        <ele>14.4</ele>
        <time>2019-07-11T06:14:35Z</time>
      </trkpt>
      <trkpt lat="48.79261" lon="-3.23806">
        <ele>14.7</ele>
        <time>2019-07-11T06:14:36Z</time>
      </trkpt>
      <trkpt lat="48.79263" lon="-3.23807">
        <ele>15.8</ele>
        <time>2019-07-11T06:14:37Z</time>
      </trkpt>
      <trkpt lat="48.79265" lon="-3.23808">
        <ele>16.8</ele>
        <time>2019-07-11T06:14:38Z</time>
      </trkpt>
      <trkpt lat="48.79266" lon="-3.23809">
        <ele>17.1</ele>
        <time>2019-07-11T06:14:39Z</time>
      </trkpt>
      <trkpt lat="48.79268" lon="-3.23811">
        <ele>17.1</ele>
        <time>2019-07-11T06:14:40Z</time>
      </trkpt>
      <trkpt lat="48.79269" lon="-3.23813">
        <ele>17.3</ele>
        <time>2019-07-11T06:14:41Z</time>
      </trkpt>
      <trkpt lat="48.79271" lon="-3.23815">
        <ele>17.3</ele>
        <time>2019-07-11T06:14:42Z</time>
      </trkpt>
      <trkpt lat="48.79272" lon="-3.23817">
        <ele>17.3</ele>
        <time>2019-07-11T06:14:43Z</time>
      </trkpt>
      <trkpt lat="48.79274" lon="-3.23818">
        <ele>17.7</ele>
        <time>2019-07-11T06:14:44Z</time>
      </trkpt>
      <trkpt lat="48.79276" lon="-3.23819">
        <ele>18.1</ele>
        <time>2019-07-11T06:14:45Z</time>
      </trkpt>
      <trkpt lat="48.79277" lon="-3.23821">
        <ele>18.7</ele>
        <time>2019-07-11T06:14:46Z</time>
      </trkpt>
      <trkpt lat="48.79278" lon="-3.23822">
        <ele>19.1</ele>
        <time>2019-07-11T06:14:47Z</time>
      </trkpt>
      <trkpt lat="48.7928" lon="-3.23823">
        <ele>19.3</ele>
        <time>2019-07-11T06:14:48Z</time>
      </trkpt>
      <trkpt lat="48.79282" lon="-3.23823">
        <ele>19.3</ele>
        <time>2019-07-11T06:14:49Z</time>
      </trkpt>
      <trkpt lat="48.79284" lon="-3.23824">
        <ele>19.5</ele>
        <time>2019-07-11T06:14:50Z</time>
      </trkpt>
      <trkpt lat="48.79285" lon="-3.23825">
        <ele>19.7</ele>
        <time>2019-07-11T06:14:51Z</time>
      </trkpt>
      <trkpt lat="48.79287" lon="-3.23826">
        <ele>19.8</ele>
        <time>2019-07-11T06:14:52Z</time>
      </trkpt>
      <trkpt lat="48.79288" lon="-3.23827">
        <ele>19.7</ele>
        <time>2019-07-11T06:14:53Z</time>
      </trkpt>
      <trkpt lat="48.79289" lon="-3.23827">
        <ele>19.6</ele>
        <time>2019-07-11T06:14:54Z</time>
      </trkpt>
      <trkpt lat="48.79291" lon="-3.23829">
        <ele>20.1</ele>
        <time>2019-07-11T06:14:55Z</time>
      </trkpt>
      <trkpt lat="48.79292" lon="-3.23829">
        <ele>20.8</ele>
        <time>2019-07-11T06:14:56Z</time>
      </trkpt>
      <trkpt lat="48.79293" lon="-3.2383">
        <ele>21.3</ele>
        <time>2019-07-11T06:14:57Z</time>
      </trkpt>
      <trkpt lat="48.79295" lon="-3.23831">
        <ele>21.6</ele>
        <time>2019-07-11T06:14:58Z</time>
      </trkpt>
      <trkpt lat="48.79296" lon="-3.23832">
        <ele>22.2</ele>
        <time>2019-07-11T06:14:59Z</time>
      </trkpt>
      <trkpt lat="48.79298" lon="-3.23833">
        <ele>22.3</ele>
        <time>2019-07-11T06:15:00Z</time>
      </trkpt>
      <trkpt lat="48.793" lon="-3.23833">
        <ele>22.4</ele>
        <time>2019-07-11T06:15:01Z</time>
      </trkpt>
      <trkpt lat="48.79302" lon="-3.23834">
        <ele>22.8</ele>
        <time>2019-07-11T06:15:02Z</time>
      </trkpt>
      <trkpt lat="48.79303" lon="-3.23835">
        <ele>23.3</ele>
        <time>2019-07-11T06:15:03Z</time>
      </trkpt>
      <trkpt lat="48.79305" lon="-3.23837">
        <ele>23.6</ele>
        <time>2019-07-11T06:15:04Z</time>
      </trkpt>
      <trkpt lat="48.79306" lon="-3.23838">
        <ele>23.9</ele>
        <time>2019-07-11T06:15:05Z</time>
      </trkpt>
      <trkpt lat="48.79308" lon="-3.23839">
        <ele>24.1</ele>
        <time>2019-07-11T06:15:06Z</time>
      </trkpt>
      <trkpt lat="48.7931" lon="-3.23841">
        <ele>24.7</ele>
        <time>2019-07-11T06:15:07Z</time>
      </trkpt>
      <trkpt lat="48.79312" lon="-3.23843">
        <ele>25.4</ele>
        <time>2019-07-11T06:15:08Z</time>
      </trkpt>
      <trkpt lat="48.79313" lon="-3.23844">
        <ele>25.8</ele>
        <time>2019-07-11T06:15:09Z</time>
      </trkpt>
      <trkpt lat="48.79314" lon="-3.23846">
        <ele>26.2</ele>
        <time>2019-07-11T06:15:10Z</time>
      </trkpt>
      <trkpt lat="48.79316" lon="-3.23848">
        <ele>26.7</ele>
        <time>2019-07-11T06:15:11Z</time>
      </trkpt>
      <trkpt lat="48.79318" lon="-3.23849">
        <ele>27</ele>
        <time>2019-07-11T06:15:12Z</time>
      </trkpt>
      <trkpt lat="48.79319" lon="-3.23851">
        <ele>26.9</ele>
        <time>2019-07-11T06:15:13Z</time>
      </trkpt>
      <trkpt lat="48.79321" lon="-3.23853">
        <ele>26.9</ele>
        <time>2019-07-11T06:15:14Z</time>
      </trkpt>
      <trkpt lat="48.79323" lon="-3.23854">
        <ele>27.4</ele>
        <time>2019-07-11T06:15:15Z</time>
      </trkpt>
      <trkpt lat="48.79325" lon="-3.23856">
        <ele>27.6</ele>
        <time>2019-07-11T06:15:16Z</time>
      </trkpt>
      <trkpt lat="48.79327" lon="-3.23858">
        <ele>27.9</ele>
        <time>2019-07-11T06:15:17Z</time>
      </trkpt>
      <trkpt lat="48.79328" lon="-3.23859">
        <ele>28.2</ele>
        <time>2019-07-11T06:15:18Z</time>
      </trkpt>
      <trkpt lat="48.79329" lon="-3.2386">
        <ele>28.4</ele>
        <time>2019-07-11T06:15:19Z</time>
      </trkpt>
      <trkpt lat="48.7933" lon="-3.23862">
        <ele>28.7</ele>
        <time>2019-07-11T06:15:20Z</time>
      </trkpt>
      <trkpt lat="48.79331" lon="-3.23863">
        <ele>28.9</ele>
        <time>2019-07-11T06:15:21Z</time>
      </trkpt>
      <trkpt lat="48.79333" lon="-3.23865">
        <ele>29</ele>
        <time>2019-07-11T06:15:22Z</time>
      </trkpt>
      <trkpt lat="48.79335" lon="-3.23865">
        <ele>29.4</ele>
        <time>2019-07-11T06:15:23Z</time>
      </trkpt>
      <trkpt lat="48.79336" lon="-3.23866">
        <ele>28.7</ele>
        <time>2019-07-11T06:15:24Z</time>
      </trkpt>
      <trkpt lat="48.79338" lon="-3.23866">
        <ele>28.4</ele>
        <time>2019-07-11T06:15:25Z</time>
      </trkpt>
      <trkpt lat="48.79339" lon="-3.23867">
        <ele>28.2</ele>
        <time>2019-07-11T06:15:26Z</time>
      </trkpt>
      <trkpt lat="48.7934" lon="-3.23867">
        <ele>28.3</ele>
        <time>2019-07-11T06:15:27Z</time>
      </trkpt>
      <trkpt lat="48.79342" lon="-3.23869">
        <ele>28</ele>
        <time>2019-07-11T06:15:28Z</time>
      </trkpt>
      <trkpt lat="48.79344" lon="-3.2387">
        <ele>28.2</ele>
        <time>2019-07-11T06:15:29Z</time>
      </trkpt>
      <trkpt lat="48.79345" lon="-3.23871">
        <ele>28.2</ele>
        <time>2019-07-11T06:15:30Z</time>
      </trkpt>
      <trkpt lat="48.79346" lon="-3.23871">
        <ele>27.7</ele>
        <time>2019-07-11T06:15:31Z</time>
      </trkpt>
      <trkpt lat="48.79348" lon="-3.23872">
        <ele>27.4</ele>
        <time>2019-07-11T06:15:32Z</time>
      </trkpt>
      <trkpt lat="48.79349" lon="-3.23873">
        <ele>27.4</ele>
        <time>2019-07-11T06:15:33Z</time>
      </trkpt>
      <trkpt lat="48.7935" lon="-3.23874">
        <ele>27.8</ele>
        <time>2019-07-11T06:15:34Z</time>
      </trkpt>
      <trkpt lat="48.79351" lon="-3.23876">
        <ele>28.3</ele>
        <time>2019-07-11T06:15:35Z</time>
      </trkpt>
      <trkpt lat="48.79353" lon="-3.23877">
        <ele>28.6</ele>
        <time>2019-07-11T06:15:36Z</time>
      </trkpt>
      <trkpt lat="48.79354" lon="-3.23878">
        <ele>28.9</ele>
        <time>2019-07-11T06:15:37Z</time>
      </trkpt>
      <trkpt lat="48.79355" lon="-3.23879">
        <ele>29</ele>
        <time>2019-07-11T06:15:38Z</time>
      </trkpt>
      <trkpt lat="48.79356" lon="-3.2388">
        <ele>29.1</ele>
        <time>2019-07-11T06:15:39Z</time>
      </trkpt>
      <trkpt lat="48.79358" lon="-3.23881">
        <ele>29.1</ele>
        <time>2019-07-11T06:15:40Z</time>
      </trkpt>
      <trkpt lat="48.79358" lon="-3.23882">
        <ele>29</ele>
        <time>2019-07-11T06:15:41Z</time>
      </trkpt>
      <trkpt lat="48.79359" lon="-3.23883">
        <ele>29.4</ele>
        <time>2019-07-11T06:15:42Z</time>
      </trkpt>
      <trkpt lat="48.79359" lon="-3.23884">
        <ele>29.9</ele>
        <time>2019-07-11T06:15:43Z</time>
      </trkpt>
      <trkpt lat="48.7936" lon="-3.23885">
        <ele>30.4</ele>
        <time>2019-07-11T06:15:44Z</time>
      </trkpt>
      <trkpt lat="48.79361" lon="-3.23888">
        <ele>30.4</ele>
        <time>2019-07-11T06:15:45Z</time>
      </trkpt>
      <trkpt lat="48.79361" lon="-3.2389">
        <ele>30.7</ele>
        <time>2019-07-11T06:15:46Z</time>
      </trkpt>
      <trkpt lat="48.79361" lon="-3.23892">
        <ele>30.7</ele>
        <time>2019-07-11T06:15:47Z</time>
      </trkpt>
      <trkpt lat="48.79361" lon="-3.23894">
        <ele>30.3</ele>
        <time>2019-07-11T06:15:48Z</time>
      </trkpt>
      <trkpt lat="48.79361" lon="-3.23896">
        <ele>30</ele>
        <time>2019-07-11T06:15:49Z</time>
      </trkpt>
      <trkpt lat="48.79361" lon="-3.23898">
        <ele>30.1</ele>
        <time>2019-07-11T06:15:50Z</time>
      </trkpt>
      <trkpt lat="48.79361" lon="-3.239">
        <ele>30.3</ele>
        <time>2019-07-11T06:15:51Z</time>
      </trkpt>
      <trkpt lat="48.7936" lon="-3.23903">
        <ele>30.3</ele>
        <time>2019-07-11T06:15:52Z</time>
      </trkpt>
      <trkpt lat="48.7936" lon="-3.23905">
        <ele>30</ele>
        <time>2019-07-11T06:15:53Z</time>
      </trkpt>
      <trkpt lat="48.79359" lon="-3.23907">
        <ele>29.7</ele>
        <time>2019-07-11T06:15:54Z</time>
      </trkpt>
      <trkpt lat="48.79358" lon="-3.23909">
        <ele>29.3</ele>
        <time>2019-07-11T06:15:55Z</time>
      </trkpt>
      <trkpt lat="48.79357" lon="-3.23911">
        <ele>29.2</ele>
        <time>2019-07-11T06:15:56Z</time>
      </trkpt>
      <trkpt lat="48.79356" lon="-3.23914">
        <ele>29.3</ele>
        <time>2019-07-11T06:15:57Z</time>
      </trkpt>
      <trkpt lat="48.79356" lon="-3.23917">
        <ele>29.5</ele>
        <time>2019-07-11T06:15:58Z</time>
      </trkpt>
      <trkpt lat="48.79355" lon="-3.23919">
        <ele>29.7</ele>
        <time>2019-07-11T06:15:59Z</time>
      </trkpt>
      <trkpt lat="48.79355" lon="-3.23921">
        <ele>29.8</ele>
        <time>2019-07-11T06:16:00Z</time>
      </trkpt>
      <trkpt lat="48.79355" lon="-3.23924">
        <ele>29.9</ele>
        <time>2019-07-11T06:16:01Z</time>
      </trkpt>
      <trkpt lat="48.79355" lon="-3.23926">
        <ele>29.8</ele>
        <time>2019-07-11T06:16:02Z</time>
      </trkpt>
      <trkpt lat="48.79354" lon="-3.23928">
        <ele>29.7</ele>
        <time>2019-07-11T06:16:03Z</time>
      </trkpt>
      <trkpt lat="48.79353" lon="-3.2393">
        <ele>29.5</ele>
        <time>2019-07-11T06:16:04Z</time>
      </trkpt>
      <trkpt lat="48.79353" lon="-3.23932">
        <ele>29.9</ele>
        <time>2019-07-11T06:16:05Z</time>
      </trkpt>
      <trkpt lat="48.79352" lon="-3.23935">
        <ele>30.5</ele>
        <time>2019-07-11T06:16:06Z</time>
      </trkpt>
      <trkpt lat="48.79352" lon="-3.23937">
        <ele>30.9</ele>
        <time>2019-07-11T06:16:07Z</time>
      </trkpt>
      <trkpt lat="48.79351" lon="-3.23939">
        <ele>31.2</ele>
        <time>2019-07-11T06:16:08Z</time>
      </trkpt>
      <trkpt lat="48.79351" lon="-3.23941">
        <ele>31.3</ele>
        <time>2019-07-11T06:16:09Z</time>
      </trkpt>
      <trkpt lat="48.7935" lon="-3.23943">
        <ele>31.9</ele>
        <time>2019-07-11T06:16:10Z</time>
      </trkpt>
      <trkpt lat="48.7935" lon="-3.23945">
        <ele>32.3</ele>
        <time>2019-07-11T06:16:11Z</time>
      </trkpt>
      <trkpt lat="48.79349" lon="-3.23947">
        <ele>32.8</ele>
        <time>2019-07-11T06:16:12Z</time>
      </trkpt>
      <trkpt lat="48.79348" lon="-3.23949">
        <ele>33.1</ele>
        <time>2019-07-11T06:16:13Z</time>
      </trkpt>
      <trkpt lat="48.79348" lon="-3.23951">
        <ele>33.2</ele>
        <time>2019-07-11T06:16:14Z</time>
      </trkpt>
      <trkpt lat="48.79347" lon="-3.23954">
        <ele>33.1</ele>
        <time>2019-07-11T06:16:15Z</time>
      </trkpt>
      <trkpt lat="48.79347" lon="-3.23956">
        <ele>33.3</ele>
        <time>2019-07-11T06:16:16Z</time>
      </trkpt>
      <trkpt lat="48.79346" lon="-3.23958">
        <ele>33.6</ele>
        <time>2019-07-11T06:16:17Z</time>
      </trkpt>
      <trkpt lat="48.79345" lon="-3.2396">
        <ele>33.6</ele>
        <time>2019-07-11T06:16:18Z</time>
      </trkpt>
      <trkpt lat="48.79345" lon="-3.23962">
        <ele>33.7</ele>
        <time>2019-07-11T06:16:19Z</time>
      </trkpt>
      <trkpt lat="48.79343" lon="-3.23964">
        <ele>33.8</ele>
        <time>2019-07-11T06:16:20Z</time>
      </trkpt>
      <trkpt lat="48.79342" lon="-3.23966">
        <ele>34</ele>
        <time>2019-07-11T06:16:21Z</time>
      </trkpt>
      <trkpt lat="48.79342" lon="-3.23969">
        <ele>34.4</ele>
        <time>2019-07-11T06:16:22Z</time>
      </trkpt>
      <trkpt lat="48.7934" lon="-3.23971">
        <ele>34.6</ele>
        <time>2019-07-11T06:16:23Z</time>
      </trkpt>
      <trkpt lat="48.7934" lon="-3.23974">
        <ele>34.9</ele>
        <time>2019-07-11T06:16:24Z</time>
      </trkpt>
      <trkpt lat="48.79339" lon="-3.23977">
        <ele>35.2</ele>
        <time>2019-07-11T06:16:25Z</time>
      </trkpt>
      <trkpt lat="48.79337" lon="-3.23979">
        <ele>35.4</ele>
        <time>2019-07-11T06:16:26Z</time>
      </trkpt>
      <trkpt lat="48.79336" lon="-3.23982">
        <ele>35.8</ele>
        <time>2019-07-11T06:16:27Z</time>
      </trkpt>
      <trkpt lat="48.79335" lon="-3.23985">
        <ele>36.1</ele>
        <time>2019-07-11T06:16:28Z</time>
      </trkpt>
      <trkpt lat="48.79334" lon="-3.23987">
        <ele>36.7</ele>
        <time>2019-07-11T06:16:29Z</time>
      </trkpt>
      <trkpt lat="48.79332" lon="-3.23989">
        <ele>37.1</ele>
        <time>2019-07-11T06:16:30Z</time>
      </trkpt>
      <trkpt lat="48.79331" lon="-3.23991">
        <ele>37.3</ele>
        <time>2019-07-11T06:16:31Z</time>
      </trkpt>
      <trkpt lat="48.79329" lon="-3.23993">
        <ele>37.6</ele>
        <time>2019-07-11T06:16:32Z</time>
      </trkpt>
      <trkpt lat="48.79328" lon="-3.23995">
        <ele>37.5</ele>
        <time>2019-07-11T06:16:33Z</time>
      </trkpt>
      <trkpt lat="48.79326" lon="-3.23997">
        <ele>37.6</ele>
        <time>2019-07-11T06:16:34Z</time>
      </trkpt>
      <trkpt lat="48.79325" lon="-3.23999">
        <ele>37.6</ele>
        <time>2019-07-11T06:16:35Z</time>
      </trkpt>
      <trkpt lat="48.79324" lon="-3.24001">
        <ele>37.6</ele>
        <time>2019-07-11T06:16:36Z</time>
      </trkpt>
      <trkpt lat="48.79323" lon="-3.24002">
        <ele>37.5</ele>
        <time>2019-07-11T06:16:37Z</time>
      </trkpt>
      <trkpt lat="48.79321" lon="-3.24004">
        <ele>37.5</ele>
        <time>2019-07-11T06:16:38Z</time>
      </trkpt>
      <trkpt lat="48.7932" lon="-3.24006">
        <ele>37.4</ele>
        <time>2019-07-11T06:16:39Z</time>
      </trkpt>
      <trkpt lat="48.79318" lon="-3.24008">
        <ele>37.4</ele>
        <time>2019-07-11T06:16:40Z</time>
      </trkpt>
      <trkpt lat="48.79317" lon="-3.2401">
        <ele>37.5</ele>
        <time>2019-07-11T06:16:41Z</time>
      </trkpt>
      <trkpt lat="48.79315" lon="-3.24011">
        <ele>37.7</ele>
        <time>2019-07-11T06:16:42Z</time>
      </trkpt>
      <trkpt lat="48.79313" lon="-3.24012">
        <ele>37.8</ele>
        <time>2019-07-11T06:16:43Z</time>
      </trkpt>
      <trkpt lat="48.79311" lon="-3.24014">
        <ele>38.4</ele>
        <time>2019-07-11T06:16:44Z</time>
      </trkpt>
      <trkpt lat="48.7931" lon="-3.24016">
        <ele>38.6</ele>
        <time>2019-07-11T06:16:45Z</time>
      </trkpt>
      <trkpt lat="48.79308" lon="-3.24017">
        <ele>38.2</ele>
        <time>2019-07-11T06:16:46Z</time>
      </trkpt>
      <trkpt lat="48.79307" lon="-3.24019">
        <ele>37.5</ele>
        <time>2019-07-11T06:16:47Z</time>
      </trkpt>
      <trkpt lat="48.79306" lon="-3.24022">
        <ele>37.1</ele>
        <time>2019-07-11T06:16:48Z</time>
      </trkpt>
      <trkpt lat="48.79305" lon="-3.24023">
        <ele>36.8</ele>
        <time>2019-07-11T06:16:49Z</time>
      </trkpt>
      <trkpt lat="48.79304" lon="-3.24025">
        <ele>36.7</ele>
        <time>2019-07-11T06:16:50Z</time>
      </trkpt>
      <trkpt lat="48.79303" lon="-3.24026">
        <ele>36.7</ele>
        <time>2019-07-11T06:16:51Z</time>
      </trkpt>
      <trkpt lat="48.79301" lon="-3.24028">
        <ele>36.9</ele>
        <time>2019-07-11T06:16:52Z</time>
      </trkpt>
      <trkpt lat="48.793" lon="-3.2403">
        <ele>36.6</ele>
        <time>2019-07-11T06:16:53Z</time>
      </trkpt>
      <trkpt lat="48.79298" lon="-3.24032">
        <ele>36.3</ele>
        <time>2019-07-11T06:16:54Z</time>
      </trkpt>
      <trkpt lat="48.79298" lon="-3.24035">
        <ele>35.4</ele>
        <time>2019-07-11T06:16:55Z</time>
      </trkpt>
      <trkpt lat="48.79297" lon="-3.24037">
        <ele>34.7</ele>
        <time>2019-07-11T06:16:56Z</time>
      </trkpt>
      <trkpt lat="48.79295" lon="-3.24038">
        <ele>34.5</ele>
        <time>2019-07-11T06:16:57Z</time>
      </trkpt>
      <trkpt lat="48.79295" lon="-3.24039">
        <ele>34.3</ele>
        <time>2019-07-11T06:16:58Z</time>
      </trkpt>
      <trkpt lat="48.79293" lon="-3.24041">
        <ele>34</ele>
        <time>2019-07-11T06:16:59Z</time>
      </trkpt>
      <trkpt lat="48.79292" lon="-3.24042">
        <ele>33.1</ele>
        <time>2019-07-11T06:17:00Z</time>
      </trkpt>
      <trkpt lat="48.7929" lon="-3.24044">
        <ele>33.4</ele>
        <time>2019-07-11T06:17:01Z</time>
      </trkpt>
      <trkpt lat="48.79289" lon="-3.24045">
        <ele>33.2</ele>
        <time>2019-07-11T06:17:02Z</time>
      </trkpt>
      <trkpt lat="48.79287" lon="-3.24046">
        <ele>32.7</ele>
        <time>2019-07-11T06:17:03Z</time>
      </trkpt>
      <trkpt lat="48.79286" lon="-3.24048">
        <ele>32.1</ele>
        <time>2019-07-11T06:17:04Z</time>
      </trkpt>
      <trkpt lat="48.79285" lon="-3.2405">
        <ele>31.4</ele>
        <time>2019-07-11T06:17:05Z</time>
      </trkpt>
      <trkpt lat="48.79283" lon="-3.24052">
        <ele>31.4</ele>
        <time>2019-07-11T06:17:06Z</time>
      </trkpt>
      <trkpt lat="48.79281" lon="-3.24054">
        <ele>31.3</ele>
        <time>2019-07-11T06:17:07Z</time>
      </trkpt>
      <trkpt lat="48.7928" lon="-3.24055">
        <ele>31.6</ele>
        <time>2019-07-11T06:17:08Z</time>
      </trkpt>
      <trkpt lat="48.79278" lon="-3.24057">
        <ele>31.7</ele>
        <time>2019-07-11T06:17:09Z</time>
      </trkpt>
      <trkpt lat="48.79277" lon="-3.24058">
        <ele>32</ele>
        <time>2019-07-11T06:17:10Z</time>
      </trkpt>
      <trkpt lat="48.79275" lon="-3.24059">
        <ele>32.1</ele>
        <time>2019-07-11T06:17:11Z</time>
      </trkpt>
      <trkpt lat="48.79273" lon="-3.2406">
        <ele>32.4</ele>
        <time>2019-07-11T06:17:12Z</time>
      </trkpt>
      <trkpt lat="48.79271" lon="-3.2406">
        <ele>32.7</ele>
        <time>2019-07-11T06:17:13Z</time>
      </trkpt>
      <trkpt lat="48.79269" lon="-3.24061">
        <ele>33</ele>
        <time>2019-07-11T06:17:14Z</time>
      </trkpt>
      <trkpt lat="48.79268" lon="-3.24062">
        <ele>33.6</ele>
        <time>2019-07-11T06:17:15Z</time>
      </trkpt>
      <trkpt lat="48.79266" lon="-3.24063">
        <ele>34.2</ele>
        <time>2019-07-11T06:17:16Z</time>
      </trkpt>
      <trkpt lat="48.79264" lon="-3.24063">
        <ele>34.7</ele>
        <time>2019-07-11T06:17:17Z</time>
      </trkpt>
      <trkpt lat="48.79262" lon="-3.24065">
        <ele>35.3</ele>
        <time>2019-07-11T06:17:18Z</time>
      </trkpt>
      <trkpt lat="48.7926" lon="-3.24066">
        <ele>36</ele>
        <time>2019-07-11T06:17:19Z</time>
      </trkpt>
      <trkpt lat="48.79258" lon="-3.24068">
        <ele>36.6</ele>
        <time>2019-07-11T06:17:20Z</time>
      </trkpt>
      <trkpt lat="48.79255" lon="-3.24069">
        <ele>36.9</ele>
        <time>2019-07-11T06:17:21Z</time>
      </trkpt>
      <trkpt lat="48.79252" lon="-3.24071">
        <ele>36.6</ele>
        <time>2019-07-11T06:17:22Z</time>
      </trkpt>
      <trkpt lat="48.7925" lon="-3.24072">
        <ele>36.7</ele>
        <time>2019-07-11T06:17:23Z</time>
      </trkpt>
      <trkpt lat="48.79248" lon="-3.24073">
        <ele>37.3</ele>
        <time>2019-07-11T06:17:24Z</time>
      </trkpt>
      <trkpt lat="48.79245" lon="-3.24074">
        <ele>37.7</ele>
        <time>2019-07-11T06:17:25Z</time>
      </trkpt>
      <trkpt lat="48.79244" lon="-3.24074">
        <ele>38.4</ele>
        <time>2019-07-11T06:17:26Z</time>
      </trkpt>
      <trkpt lat="48.79242" lon="-3.24075">
        <ele>39.3</ele>
        <time>2019-07-11T06:17:27Z</time>
      </trkpt>
      <trkpt lat="48.7924" lon="-3.24075">
        <ele>40.3</ele>
        <time>2019-07-11T06:17:28Z</time>
      </trkpt>
      <trkpt lat="48.79237" lon="-3.24075">
        <ele>41.2</ele>
        <time>2019-07-11T06:17:29Z</time>
      </trkpt>
      <trkpt lat="48.79235" lon="-3.24075">
        <ele>42.2</ele>
        <time>2019-07-11T06:17:30Z</time>
      </trkpt>
      <trkpt lat="48.79232" lon="-3.24076">
        <ele>42</ele>
        <time>2019-07-11T06:17:31Z</time>
      </trkpt>
      <trkpt lat="48.7923" lon="-3.24077">
        <ele>41.7</ele>
        <time>2019-07-11T06:17:32Z</time>
      </trkpt>
      <trkpt lat="48.79227" lon="-3.2408">
        <ele>42</ele>
        <time>2019-07-11T06:17:33Z</time>
      </trkpt>
      <trkpt lat="48.79225" lon="-3.24082">
        <ele>42.4</ele>
        <time>2019-07-11T06:17:34Z</time>
      </trkpt>
      <trkpt lat="48.79223" lon="-3.24084">
        <ele>42.8</ele>
        <time>2019-07-11T06:17:35Z</time>
      </trkpt>
      <trkpt lat="48.7922" lon="-3.24087">
        <ele>43.2</ele>
        <time>2019-07-11T06:17:36Z</time>
      </trkpt>
      <trkpt lat="48.79218" lon="-3.24089">
        <ele>43.9</ele>
        <time>2019-07-11T06:17:37Z</time>
      </trkpt>
      <trkpt lat="48.79216" lon="-3.24092">
        <ele>44.1</ele>
        <time>2019-07-11T06:17:38Z</time>
      </trkpt>
      <trkpt lat="48.79214" lon="-3.24095">
        <ele>44.1</ele>
        <time>2019-07-11T06:17:39Z</time>
      </trkpt>
      <trkpt lat="48.79212" lon="-3.24098">
        <ele>43.7</ele>
        <time>2019-07-11T06:17:40Z</time>
      </trkpt>
      <trkpt lat="48.79211" lon="-3.24102">
        <ele>43.2</ele>
        <time>2019-07-11T06:17:41Z</time>
      </trkpt>
      <trkpt lat="48.79208" lon="-3.24106">
        <ele>42.4</ele>
        <time>2019-07-11T06:17:42Z</time>
      </trkpt>
      <trkpt lat="48.79207" lon="-3.24109">
        <ele>42.4</ele>
        <time>2019-07-11T06:17:43Z</time>
      </trkpt>
      <trkpt lat="48.79205" lon="-3.24112">
        <ele>42.1</ele>
        <time>2019-07-11T06:17:44Z</time>
      </trkpt>
      <trkpt lat="48.79203" lon="-3.24116">
        <ele>41.4</ele>
        <time>2019-07-11T06:17:45Z</time>
      </trkpt>
      <trkpt lat="48.79201" lon="-3.24119">
        <ele>41.4</ele>
        <time>2019-07-11T06:17:46Z</time>
      </trkpt>
      <trkpt lat="48.792" lon="-3.24122">
        <ele>41.4</ele>
        <time>2019-07-11T06:17:47Z</time>
      </trkpt>
      <trkpt lat="48.79198" lon="-3.24126">
        <ele>41.3</ele>
        <time>2019-07-11T06:17:48Z</time>
      </trkpt>
      <trkpt lat="48.79196" lon="-3.24129">
        <ele>41.3</ele>
        <time>2019-07-11T06:17:49Z</time>
      </trkpt>
      <trkpt lat="48.79195" lon="-3.24132">
        <ele>41.7</ele>
        <time>2019-07-11T06:17:50Z</time>
      </trkpt>
      <trkpt lat="48.79194" lon="-3.24135">
        <ele>41.9</ele>
        <time>2019-07-11T06:17:51Z</time>
      </trkpt>
      <trkpt lat="48.79192" lon="-3.24138">
        <ele>42.1</ele>
        <time>2019-07-11T06:17:52Z</time>
      </trkpt>
      <trkpt lat="48.79191" lon="-3.24141">
        <ele>41.8</ele>
        <time>2019-07-11T06:17:53Z</time>
      </trkpt>
      <trkpt lat="48.7919" lon="-3.24144">
        <ele>42.1</ele>
        <time>2019-07-11T06:17:54Z</time>
      </trkpt>
      <trkpt lat="48.79189" lon="-3.24147">
        <ele>42.5</ele>
        <time>2019-07-11T06:17:55Z</time>
      </trkpt>
      <trkpt lat="48.79188" lon="-3.24151">
        <ele>42.8</ele>
        <time>2019-07-11T06:17:56Z</time>
      </trkpt>
      <trkpt lat="48.79187" lon="-3.24154">
        <ele>43.9</ele>
        <time>2019-07-11T06:17:57Z</time>
      </trkpt>
      <trkpt lat="48.79187" lon="-3.24158">
        <ele>44.8</ele>
        <time>2019-07-11T06:17:58Z</time>
      </trkpt>
      <trkpt lat="48.79186" lon="-3.24161">
        <ele>45.6</ele>
        <time>2019-07-11T06:17:59Z</time>
      </trkpt>
      <trkpt lat="48.79185" lon="-3.24164">
        <ele>46.4</ele>
        <time>2019-07-11T06:18:00Z</time>
      </trkpt>
      <trkpt lat="48.79183" lon="-3.24167">
        <ele>46.7</ele>
        <time>2019-07-11T06:18:01Z</time>
      </trkpt>
      <trkpt lat="48.79182" lon="-3.2417">
        <ele>47.1</ele>
        <time>2019-07-11T06:18:02Z</time>
      </trkpt>
      <trkpt lat="48.79181" lon="-3.24173">
        <ele>47.7</ele>
        <time>2019-07-11T06:18:03Z</time>
      </trkpt>
      <trkpt lat="48.79179" lon="-3.24177">
        <ele>48</ele>
        <time>2019-07-11T06:18:04Z</time>
      </trkpt>
      <trkpt lat="48.79178" lon="-3.24181">
        <ele>47.6</ele>
        <time>2019-07-11T06:18:05Z</time>
      </trkpt>
      <trkpt lat="48.79177" lon="-3.24186">
        <ele>47.2</ele>
        <time>2019-07-11T06:18:06Z</time>
      </trkpt>
      <trkpt lat="48.79176" lon="-3.2419">
        <ele>46.3</ele>
        <time>2019-07-11T06:18:07Z</time>
      </trkpt>
      <trkpt lat="48.79174" lon="-3.24195">
        <ele>45.4</ele>
        <time>2019-07-11T06:18:08Z</time>
      </trkpt>
      <trkpt lat="48.79173" lon="-3.24199">
        <ele>44.6</ele>
        <time>2019-07-11T06:18:09Z</time>
      </trkpt>
      <trkpt lat="48.79172" lon="-3.24203">
        <ele>44.3</ele>
        <time>2019-07-11T06:18:10Z</time>
      </trkpt>
      <trkpt lat="48.79171" lon="-3.24207">
        <ele>43.6</ele>
        <time>2019-07-11T06:18:11Z</time>
      </trkpt>
      <trkpt lat="48.7917" lon="-3.24211">
        <ele>43.4</ele>
        <time>2019-07-11T06:18:12Z</time>
      </trkpt>
      <trkpt lat="48.79169" lon="-3.24214">
        <ele>43.2</ele>
        <time>2019-07-11T06:18:13Z</time>
      </trkpt>
      <trkpt lat="48.79168" lon="-3.24217">
        <ele>43.4</ele>
        <time>2019-07-11T06:18:14Z</time>
      </trkpt>
      <trkpt lat="48.79166" lon="-3.24221">
        <ele>43.1</ele>
        <time>2019-07-11T06:18:15Z</time>
      </trkpt>
      <trkpt lat="48.79165" lon="-3.24224">
        <ele>43.6</ele>
        <time>2019-07-11T06:18:16Z</time>
      </trkpt>
      <trkpt lat="48.79165" lon="-3.24227">
        <ele>44.1</ele>
        <time>2019-07-11T06:18:17Z</time>
      </trkpt>
      <trkpt lat="48.79164" lon="-3.24231">
        <ele>45</ele>
        <time>2019-07-11T06:18:18Z</time>
      </trkpt>
      <trkpt lat="48.79163" lon="-3.24235">
        <ele>45.4</ele>
        <time>2019-07-11T06:18:19Z</time>
      </trkpt>
      <trkpt lat="48.79161" lon="-3.24239">
        <ele>45.9</ele>
        <time>2019-07-11T06:18:20Z</time>
      </trkpt>
      <trkpt lat="48.7916" lon="-3.24243">
        <ele>46.1</ele>
        <time>2019-07-11T06:18:21Z</time>
      </trkpt>
      <trkpt lat="48.79159" lon="-3.24247">
        <ele>46.4</ele>
        <time>2019-07-11T06:18:22Z</time>
      </trkpt>
      <trkpt lat="48.79158" lon="-3.24251">
        <ele>46.8</ele>
        <time>2019-07-11T06:18:23Z</time>
      </trkpt>
      <trkpt lat="48.79157" lon="-3.24256">
        <ele>46.7</ele>
        <time>2019-07-11T06:18:24Z</time>
      </trkpt>
      <trkpt lat="48.79155" lon="-3.2426">
        <ele>46.6</ele>
        <time>2019-07-11T06:18:25Z</time>
      </trkpt>
      <trkpt lat="48.79154" lon="-3.24264">
        <ele>46.5</ele>
        <time>2019-07-11T06:18:26Z</time>
      </trkpt>
      <trkpt lat="48.79153" lon="-3.24267">
        <ele>46.6</ele>
        <time>2019-07-11T06:18:27Z</time>
      </trkpt>
      <trkpt lat="48.79152" lon="-3.2427">
        <ele>46.5</ele>
        <time>2019-07-11T06:18:28Z</time>
      </trkpt>
      <trkpt lat="48.79151" lon="-3.24274">
        <ele>46.7</ele>
        <time>2019-07-11T06:18:29Z</time>
      </trkpt>
      <trkpt lat="48.7915" lon="-3.24277">
        <ele>46.8</ele>
        <time>2019-07-11T06:18:30Z</time>
      </trkpt>
      <trkpt lat="48.79149" lon="-3.24282">
        <ele>46.2</ele>
        <time>2019-07-11T06:18:31Z</time>
      </trkpt>
      <trkpt lat="48.79148" lon="-3.24286">
        <ele>45.5</ele>
        <time>2019-07-11T06:18:32Z</time>
      </trkpt>
      <trkpt lat="48.79147" lon="-3.2429">
        <ele>44.9</ele>
        <time>2019-07-11T06:18:33Z</time>
      </trkpt>
      <trkpt lat="48.79146" lon="-3.24294">
        <ele>43.9</ele>
        <time>2019-07-11T06:18:34Z</time>
      </trkpt>
      <trkpt lat="48.79145" lon="-3.24298">
        <ele>43.6</ele>
        <time>2019-07-11T06:18:35Z</time>
      </trkpt>
      <trkpt lat="48.79144" lon="-3.24301">
        <ele>43.2</ele>
        <time>2019-07-11T06:18:36Z</time>
      </trkpt>
      <trkpt lat="48.79144" lon="-3.24305">
        <ele>42.9</ele>
        <time>2019-07-11T06:18:37Z</time>
      </trkpt>
      <trkpt lat="48.79143" lon="-3.24309">
        <ele>43.1</ele>
        <time>2019-07-11T06:18:38Z</time>
      </trkpt>
      <trkpt lat="48.79142" lon="-3.24313">
        <ele>43.2</ele>
        <time>2019-07-11T06:18:39Z</time>
      </trkpt>
      <trkpt lat="48.79141" lon="-3.24317">
        <ele>43.2</ele>
        <time>2019-07-11T06:18:40Z</time>
      </trkpt>
      <trkpt lat="48.79141" lon="-3.24321">
        <ele>43.3</ele>
        <time>2019-07-11T06:18:41Z</time>
      </trkpt>
      <trkpt lat="48.7914" lon="-3.24324">
        <ele>43.2</ele>
        <time>2019-07-11T06:18:42Z</time>
      </trkpt>
      <trkpt lat="48.7914" lon="-3.24328">
        <ele>43.1</ele>
        <time>2019-07-11T06:18:43Z</time>
      </trkpt>
      <trkpt lat="48.7914" lon="-3.24332">
        <ele>42.7</ele>
        <time>2019-07-11T06:18:44Z</time>
      </trkpt>
      <trkpt lat="48.79139" lon="-3.24336">
        <ele>42.1</ele>
        <time>2019-07-11T06:18:45Z</time>
      </trkpt>
      <trkpt lat="48.79139" lon="-3.2434">
        <ele>40.9</ele>
        <time>2019-07-11T06:18:46Z</time>
      </trkpt>
      <trkpt lat="48.79139" lon="-3.24344">
        <ele>40.2</ele>
        <time>2019-07-11T06:18:47Z</time>
      </trkpt>
      <trkpt lat="48.79138" lon="-3.24348">
        <ele>39.2</ele>
        <time>2019-07-11T06:18:48Z</time>
      </trkpt>
      <trkpt lat="48.79138" lon="-3.24352">
        <ele>38.3</ele>
        <time>2019-07-11T06:18:49Z</time>
      </trkpt>
      <trkpt lat="48.79137" lon="-3.24356">
        <ele>37.3</ele>
        <time>2019-07-11T06:18:50Z</time>
      </trkpt>
      <trkpt lat="48.79137" lon="-3.2436">
        <ele>36.8</ele>
        <time>2019-07-11T06:18:51Z</time>
      </trkpt>
      <trkpt lat="48.79136" lon="-3.24363">
        <ele>36.6</ele>
        <time>2019-07-11T06:18:52Z</time>
      </trkpt>
      <trkpt lat="48.79136" lon="-3.24366">
        <ele>36.5</ele>
        <time>2019-07-11T06:18:53Z</time>
      </trkpt>
      <trkpt lat="48.79136" lon="-3.2437">
        <ele>36.1</ele>
        <time>2019-07-11T06:18:54Z</time>
      </trkpt>
      <trkpt lat="48.79136" lon="-3.24373">
        <ele>35.6</ele>
        <time>2019-07-11T06:18:55Z</time>
      </trkpt>
      <trkpt lat="48.79136" lon="-3.24377">
        <ele>34.9</ele>
        <time>2019-07-11T06:18:56Z</time>
      </trkpt>
      <trkpt lat="48.79135" lon="-3.2438">
        <ele>34.3</ele>
        <time>2019-07-11T06:18:57Z</time>
      </trkpt>
      <trkpt lat="48.79134" lon="-3.24383">
        <ele>33.8</ele>
        <time>2019-07-11T06:18:58Z</time>
      </trkpt>
      <trkpt lat="48.79133" lon="-3.24386">
        <ele>33.8</ele>
        <time>2019-07-11T06:18:59Z</time>
      </trkpt>
      <trkpt lat="48.79133" lon="-3.24389">
        <ele>34.2</ele>
        <time>2019-07-11T06:19:00Z</time>
      </trkpt>
      <trkpt lat="48.79132" lon="-3.24392">
        <ele>34.5</ele>
        <time>2019-07-11T06:19:01Z</time>
      </trkpt>
      <trkpt lat="48.79131" lon="-3.24395">
        <ele>35.1</ele>
        <time>2019-07-11T06:19:02Z</time>
      </trkpt>
      <trkpt lat="48.79131" lon="-3.24397">
        <ele>35.7</ele>
        <time>2019-07-11T06:19:03Z</time>
      </trkpt>
      <trkpt lat="48.79131" lon="-3.244">
        <ele>36.6</ele>
        <time>2019-07-11T06:19:04Z</time>
      </trkpt>
      <trkpt lat="48.7913" lon="-3.24402">
        <ele>37.4</ele>
        <time>2019-07-11T06:19:05Z</time>
      </trkpt>
      <trkpt lat="48.7913" lon="-3.24404">
        <ele>38.6</ele>
        <time>2019-07-11T06:19:06Z</time>
      </trkpt>
      <trkpt lat="48.79129" lon="-3.24408">
        <ele>39.8</ele>
        <time>2019-07-11T06:19:07Z</time>
      </trkpt>
      <trkpt lat="48.79128" lon="-3.24411">
        <ele>40.8</ele>
        <time>2019-07-11T06:19:08Z</time>
      </trkpt>
      <trkpt lat="48.79127" lon="-3.24415">
        <ele>41.8</ele>
        <time>2019-07-11T06:19:09Z</time>
      </trkpt>
      <trkpt lat="48.79126" lon="-3.24418">
        <ele>42.4</ele>
        <time>2019-07-11T06:19:10Z</time>
      </trkpt>
      <trkpt lat="48.79126" lon="-3.24422">
        <ele>43.4</ele>
        <time>2019-07-11T06:19:11Z</time>
      </trkpt>
      <trkpt lat="48.79126" lon="-3.24425">
        <ele>44.3</ele>
        <time>2019-07-11T06:19:12Z</time>
      </trkpt>
      <trkpt lat="48.79126" lon="-3.24429">
        <ele>45.1</ele>
        <time>2019-07-11T06:19:13Z</time>
      </trkpt>
      <trkpt lat="48.79125" lon="-3.24433">
        <ele>45.4</ele>
        <time>2019-07-11T06:19:14Z</time>
      </trkpt>
      <trkpt lat="48.79125" lon="-3.24436">
        <ele>46.3</ele>
        <time>2019-07-11T06:19:15Z</time>
      </trkpt>
      <trkpt lat="48.79124" lon="-3.2444">
        <ele>46.6</ele>
        <time>2019-07-11T06:19:16Z</time>
      </trkpt>
      <trkpt lat="48.79124" lon="-3.24444">
        <ele>47.2</ele>
        <time>2019-07-11T06:19:17Z</time>
      </trkpt>
      <trkpt lat="48.79124" lon="-3.24448">
        <ele>47.2</ele>
        <time>2019-07-11T06:19:18Z</time>
      </trkpt>
      <trkpt lat="48.79123" lon="-3.24452">
        <ele>46.8</ele>
        <time>2019-07-11T06:19:19Z</time>
      </trkpt>
      <trkpt lat="48.79123" lon="-3.24456">
        <ele>46.6</ele>
        <time>2019-07-11T06:19:20Z</time>
      </trkpt>
      <trkpt lat="48.79123" lon="-3.2446">
        <ele>46.1</ele>
        <time>2019-07-11T06:19:21Z</time>
      </trkpt>
      <trkpt lat="48.79122" lon="-3.24463">
        <ele>46</ele>
        <time>2019-07-11T06:19:22Z</time>
      </trkpt>
      <trkpt lat="48.79121" lon="-3.24467">
        <ele>46.1</ele>
        <time>2019-07-11T06:19:23Z</time>
      </trkpt>
      <trkpt lat="48.79121" lon="-3.24471">
        <ele>45.4</ele>
        <time>2019-07-11T06:19:24Z</time>
      </trkpt>
      <trkpt lat="48.79121" lon="-3.24475">
        <ele>45.1</ele>
        <time>2019-07-11T06:19:25Z</time>
      </trkpt>
      <trkpt lat="48.7912" lon="-3.24478">
        <ele>44.8</ele>
        <time>2019-07-11T06:19:26Z</time>
      </trkpt>
      <trkpt lat="48.7912" lon="-3.24482">
        <ele>44.3</ele>
        <time>2019-07-11T06:19:27Z</time>
      </trkpt>
      <trkpt lat="48.79119" lon="-3.24486">
        <ele>44.2</ele>
        <time>2019-07-11T06:19:28Z</time>
      </trkpt>
      <trkpt lat="48.79118" lon="-3.24489">
        <ele>44.1</ele>
        <time>2019-07-11T06:19:29Z</time>
      </trkpt>
      <trkpt lat="48.79118" lon="-3.24492">
        <ele>44.3</ele>
        <time>2019-07-11T06:19:30Z</time>
      </trkpt>
      <trkpt lat="48.79118" lon="-3.24496">
        <ele>44.2</ele>
        <time>2019-07-11T06:19:31Z</time>
      </trkpt>
      <trkpt lat="48.79117" lon="-3.245">
        <ele>43.6</ele>
        <time>2019-07-11T06:19:32Z</time>
      </trkpt>
      <trkpt lat="48.79117" lon="-3.24503">
        <ele>43.4</ele>
        <time>2019-07-11T06:19:33Z</time>
      </trkpt>
      <trkpt lat="48.79116" lon="-3.24507">
        <ele>43.3</ele>
        <time>2019-07-11T06:19:34Z</time>
      </trkpt>
      <trkpt lat="48.79116" lon="-3.2451">
        <ele>43</ele>
        <time>2019-07-11T06:19:35Z</time>
      </trkpt>
      <trkpt lat="48.79115" lon="-3.24514">
        <ele>42.8</ele>
        <time>2019-07-11T06:19:36Z</time>
      </trkpt>
      <trkpt lat="48.79114" lon="-3.24517">
        <ele>42.7</ele>
        <time>2019-07-11T06:19:37Z</time>
      </trkpt>
      <trkpt lat="48.79114" lon="-3.24521">
        <ele>42.8</ele>
        <time>2019-07-11T06:19:38Z</time>
      </trkpt>
      <trkpt lat="48.79113" lon="-3.24524">
        <ele>42.7</ele>
        <time>2019-07-11T06:19:39Z</time>
      </trkpt>
      <trkpt lat="48.79113" lon="-3.24527">
        <ele>42.8</ele>
        <time>2019-07-11T06:19:40Z</time>
      </trkpt>
      <trkpt lat="48.79113" lon="-3.2453">
        <ele>43.1</ele>
        <time>2019-07-11T06:19:41Z</time>
      </trkpt>
      <trkpt lat="48.79113" lon="-3.24534">
        <ele>43.4</ele>
        <time>2019-07-11T06:19:42Z</time>
      </trkpt>
      <trkpt lat="48.79112" lon="-3.24537">
        <ele>43.3</ele>
        <time>2019-07-11T06:19:43Z</time>
      </trkpt>
      <trkpt lat="48.79112" lon="-3.24541">
        <ele>43.9</ele>
        <time>2019-07-11T06:19:44Z</time>
      </trkpt>
      <trkpt lat="48.79112" lon="-3.24544">
        <ele>44</ele>
        <time>2019-07-11T06:19:45Z</time>
      </trkpt>
      <trkpt lat="48.79111" lon="-3.24548">
        <ele>44.2</ele>
        <time>2019-07-11T06:19:46Z</time>
      </trkpt>
      <trkpt lat="48.79111" lon="-3.24552">
        <ele>44.7</ele>
        <time>2019-07-11T06:19:47Z</time>
      </trkpt>
      <trkpt lat="48.7911" lon="-3.24556">
        <ele>44.9</ele>
        <time>2019-07-11T06:19:48Z</time>
      </trkpt>
      <trkpt lat="48.7911" lon="-3.2456">
        <ele>45.3</ele>
        <time>2019-07-11T06:19:49Z</time>
      </trkpt>
      <trkpt lat="48.7911" lon="-3.24563">
        <ele>45.9</ele>
        <time>2019-07-11T06:19:50Z</time>
      </trkpt>
      <trkpt lat="48.7911" lon="-3.24567">
        <ele>46.7</ele>
        <time>2019-07-11T06:19:51Z</time>
      </trkpt>
      <trkpt lat="48.79109" lon="-3.2457">
        <ele>47.4</ele>
        <time>2019-07-11T06:19:52Z</time>
      </trkpt>
      <trkpt lat="48.79109" lon="-3.24574">
        <ele>47.7</ele>
        <time>2019-07-11T06:19:53Z</time>
      </trkpt>
      <trkpt lat="48.79109" lon="-3.24578">
        <ele>47.7</ele>
        <time>2019-07-11T06:19:54Z</time>
      </trkpt>
      <trkpt lat="48.79109" lon="-3.24581">
        <ele>48</ele>
        <time>2019-07-11T06:19:55Z</time>
      </trkpt>
      <trkpt lat="48.79109" lon="-3.24585">
        <ele>48.1</ele>
        <time>2019-07-11T06:19:56Z</time>
      </trkpt>
      <trkpt lat="48.79109" lon="-3.24589">
        <ele>47.8</ele>
        <time>2019-07-11T06:19:57Z</time>
      </trkpt>
      <trkpt lat="48.79109" lon="-3.24593">
        <ele>47.5</ele>
        <time>2019-07-11T06:19:58Z</time>
      </trkpt>
      <trkpt lat="48.79109" lon="-3.24596">
        <ele>47.7</ele>
        <time>2019-07-11T06:19:59Z</time>
      </trkpt>
      <trkpt lat="48.79109" lon="-3.246">
        <ele>47.5</ele>
        <time>2019-07-11T06:20:00Z</time>
      </trkpt>
      <trkpt lat="48.7911" lon="-3.24603">
        <ele>47.3</ele>
        <time>2019-07-11T06:20:01Z</time>
      </trkpt>
      <trkpt lat="48.7911" lon="-3.24607">
        <ele>46.9</ele>
        <time>2019-07-11T06:20:02Z</time>
      </trkpt>
      <trkpt lat="48.7911" lon="-3.24612">
        <ele>46.4</ele>
        <time>2019-07-11T06:20:03Z</time>
      </trkpt>
      <trkpt lat="48.79111" lon="-3.24615">
        <ele>46.3</ele>
        <time>2019-07-11T06:20:04Z</time>
      </trkpt>
      <trkpt lat="48.79111" lon="-3.24619">
        <ele>46.6</ele>
        <time>2019-07-11T06:20:05Z</time>
      </trkpt>
      <trkpt lat="48.79111" lon="-3.24622">
        <ele>46.8</ele>
        <time>2019-07-11T06:20:06Z</time>
      </trkpt>
      <trkpt lat="48.79112" lon="-3.24626">
        <ele>47.1</ele>
        <time>2019-07-11T06:20:07Z</time>
      </trkpt>
      <trkpt lat="48.79112" lon="-3.24629">
        <ele>47.7</ele>
        <time>2019-07-11T06:20:08Z</time>
      </trkpt>
      <trkpt lat="48.79112" lon="-3.24632">
        <ele>48</ele>
        <time>2019-07-11T06:20:09Z</time>
      </trkpt>
      <trkpt lat="48.79112" lon="-3.24636">
        <ele>47.9</ele>
        <time>2019-07-11T06:20:10Z</time>
      </trkpt>
      <trkpt lat="48.79113" lon="-3.24639">
        <ele>48.4</ele>
        <time>2019-07-11T06:20:11Z</time>
      </trkpt>
      <trkpt lat="48.79112" lon="-3.24642">
        <ele>49.1</ele>
        <time>2019-07-11T06:20:12Z</time>
      </trkpt>
      <trkpt lat="48.79113" lon="-3.24644">
        <ele>50.2</ele>
        <time>2019-07-11T06:20:13Z</time>
      </trkpt>
      <trkpt lat="48.79113" lon="-3.24646">
        <ele>51</ele>
        <time>2019-07-11T06:20:14Z</time>
      </trkpt>
      <trkpt lat="48.79114" lon="-3.24648">
        <ele>51.6</ele>
        <time>2019-07-11T06:20:15Z</time>
      </trkpt>
      <trkpt lat="48.79115" lon="-3.24651">
        <ele>52.3</ele>
        <time>2019-07-11T06:20:16Z</time>
      </trkpt>
      <trkpt lat="48.79115" lon="-3.24655">
        <ele>52.2</ele>
        <time>2019-07-11T06:20:17Z</time>
      </trkpt>
      <trkpt lat="48.79115" lon="-3.24657">
        <ele>53</ele>
        <time>2019-07-11T06:20:18Z</time>
      </trkpt>
      <trkpt lat="48.79116" lon="-3.24659">
        <ele>53.4</ele>
        <time>2019-07-11T06:20:19Z</time>
      </trkpt>
      <trkpt lat="48.79116" lon="-3.24661">
        <ele>53.8</ele>
        <time>2019-07-11T06:20:20Z</time>
      </trkpt>
      <trkpt lat="48.79116" lon="-3.24664">
        <ele>53.8</ele>
        <time>2019-07-11T06:20:21Z</time>
      </trkpt>
      <trkpt lat="48.79117" lon="-3.24667">
        <ele>54.2</ele>
        <time>2019-07-11T06:20:22Z</time>
      </trkpt>
      <trkpt lat="48.79117" lon="-3.24668">
        <ele>55</ele>
        <time>2019-07-11T06:20:23Z</time>
      </trkpt>
      <trkpt lat="48.79117" lon="-3.2467">
        <ele>55.4</ele>
        <time>2019-07-11T06:20:24Z</time>
      </trkpt>
      <trkpt lat="48.79118" lon="-3.24672">
        <ele>56.1</ele>
        <time>2019-07-11T06:20:25Z</time>
      </trkpt>
      <trkpt lat="48.79118" lon="-3.24674">
        <ele>56.7</ele>
        <time>2019-07-11T06:20:26Z</time>
      </trkpt>
      <trkpt lat="48.79118" lon="-3.24677">
        <ele>57</ele>
        <time>2019-07-11T06:20:27Z</time>
      </trkpt>
      <trkpt lat="48.79118" lon="-3.24679">
        <ele>57.3</ele>
        <time>2019-07-11T06:20:28Z</time>
      </trkpt>
      <trkpt lat="48.79119" lon="-3.24681">
        <ele>57.7</ele>
        <time>2019-07-11T06:20:29Z</time>
      </trkpt>
      <trkpt lat="48.7912" lon="-3.24684">
        <ele>58.2</ele>
        <time>2019-07-11T06:20:30Z</time>
      </trkpt>
      <trkpt lat="48.79121" lon="-3.24687">
        <ele>58.6</ele>
        <time>2019-07-11T06:20:31Z</time>
      </trkpt>
      <trkpt lat="48.79123" lon="-3.2469">
        <ele>59.6</ele>
        <time>2019-07-11T06:20:32Z</time>
      </trkpt>
      <trkpt lat="48.79125" lon="-3.24693">
        <ele>61.3</ele>
        <time>2019-07-11T06:20:33Z</time>
      </trkpt>
      <trkpt lat="48.79126" lon="-3.24695">
        <ele>62.3</ele>
        <time>2019-07-11T06:20:34Z</time>
      </trkpt>
      <trkpt lat="48.79127" lon="-3.24698">
        <ele>63.2</ele>
        <time>2019-07-11T06:20:35Z</time>
      </trkpt>
      <trkpt lat="48.79129" lon="-3.24702">
        <ele>63.9</ele>
        <time>2019-07-11T06:20:36Z</time>
      </trkpt>
      <trkpt lat="48.7913" lon="-3.24706">
        <ele>65</ele>
        <time>2019-07-11T06:20:37Z</time>
      </trkpt>
      <trkpt lat="48.79132" lon="-3.24709">
        <ele>66.3</ele>
        <time>2019-07-11T06:20:38Z</time>
      </trkpt>
      <trkpt lat="48.79133" lon="-3.24712">
        <ele>67.6</ele>
        <time>2019-07-11T06:20:39Z</time>
      </trkpt>
      <trkpt lat="48.79134" lon="-3.24716">
        <ele>68.5</ele>
        <time>2019-07-11T06:20:40Z</time>
      </trkpt>
      <trkpt lat="48.79136" lon="-3.2472">
        <ele>69.1</ele>
        <time>2019-07-11T06:20:41Z</time>
      </trkpt>
      <trkpt lat="48.79137" lon="-3.24724">
        <ele>69.1</ele>
        <time>2019-07-11T06:20:42Z</time>
      </trkpt>
      <trkpt lat="48.79138" lon="-3.24727">
        <ele>69.4</ele>
        <time>2019-07-11T06:20:43Z</time>
      </trkpt>
      <trkpt lat="48.79139" lon="-3.2473">
        <ele>69.8</ele>
        <time>2019-07-11T06:20:44Z</time>
      </trkpt>
      <trkpt lat="48.7914" lon="-3.24733">
        <ele>70</ele>
        <time>2019-07-11T06:20:45Z</time>
      </trkpt>
      <trkpt lat="48.79141" lon="-3.24736">
        <ele>70.1</ele>
        <time>2019-07-11T06:20:46Z</time>
      </trkpt>
      <trkpt lat="48.79143" lon="-3.2474">
        <ele>70</ele>
        <time>2019-07-11T06:20:47Z</time>
      </trkpt>
      <trkpt lat="48.79145" lon="-3.24743">
        <ele>70.1</ele>
        <time>2019-07-11T06:20:48Z</time>
      </trkpt>
      <trkpt lat="48.79147" lon="-3.24746">
        <ele>70.3</ele>
        <time>2019-07-11T06:20:49Z</time>
      </trkpt>
      <trkpt lat="48.79149" lon="-3.2475">
        <ele>69.9</ele>
        <time>2019-07-11T06:20:50Z</time>
      </trkpt>
      <trkpt lat="48.79151" lon="-3.24755">
        <ele>69.5</ele>
        <time>2019-07-11T06:20:51Z</time>
      </trkpt>
      <trkpt lat="48.79153" lon="-3.2476">
        <ele>68</ele>
        <time>2019-07-11T06:20:52Z</time>
      </trkpt>
      <trkpt lat="48.79156" lon="-3.24764">
        <ele>66.5</ele>
        <time>2019-07-11T06:20:53Z</time>
      </trkpt>
      <trkpt lat="48.79158" lon="-3.24768">
        <ele>64.8</ele>
        <time>2019-07-11T06:20:54Z</time>
      </trkpt>
      <trkpt lat="48.7916" lon="-3.24773">
        <ele>62.7</ele>
        <time>2019-07-11T06:20:55Z</time>
      </trkpt>
      <trkpt lat="48.79163" lon="-3.24778">
        <ele>60.5</ele>
        <time>2019-07-11T06:20:56Z</time>
      </trkpt>
      <trkpt lat="48.79165" lon="-3.24783">
        <ele>59.2</ele>
        <time>2019-07-11T06:20:57Z</time>
      </trkpt>
      <trkpt lat="48.79168" lon="-3.24788">
        <ele>58</ele>
        <time>2019-07-11T06:20:58Z</time>
      </trkpt>
      <trkpt lat="48.7917" lon="-3.24792">
        <ele>57.4</ele>
        <time>2019-07-11T06:20:59Z</time>
      </trkpt>
      <trkpt lat="48.79171" lon="-3.24797">
        <ele>57.3</ele>
        <time>2019-07-11T06:21:00Z</time>
      </trkpt>
      <trkpt lat="48.79173" lon="-3.24801">
        <ele>57.6</ele>
        <time>2019-07-11T06:21:01Z</time>
      </trkpt>
      <trkpt lat="48.79174" lon="-3.24805">
        <ele>56.9</ele>
        <time>2019-07-11T06:21:02Z</time>
      </trkpt>
      <trkpt lat="48.79176" lon="-3.2481">
        <ele>57</ele>
        <time>2019-07-11T06:21:03Z</time>
      </trkpt>
      <trkpt lat="48.79177" lon="-3.24813">
        <ele>57.3</ele>
        <time>2019-07-11T06:21:04Z</time>
      </trkpt>
      <trkpt lat="48.79178" lon="-3.24816">
        <ele>57.7</ele>
        <time>2019-07-11T06:21:05Z</time>
      </trkpt>
      <trkpt lat="48.7918" lon="-3.2482">
        <ele>58.1</ele>
        <time>2019-07-11T06:21:06Z</time>
      </trkpt>
      <trkpt lat="48.79181" lon="-3.24823">
        <ele>58.6</ele>
        <time>2019-07-11T06:21:07Z</time>
      </trkpt>
      <trkpt lat="48.79181" lon="-3.24826">
        <ele>58.9</ele>
        <time>2019-07-11T06:21:08Z</time>
      </trkpt>
      <trkpt lat="48.79182" lon="-3.24829">
        <ele>59.1</ele>
        <time>2019-07-11T06:21:09Z</time>
      </trkpt>
      <trkpt lat="48.79183" lon="-3.24832">
        <ele>59.8</ele>
        <time>2019-07-11T06:21:10Z</time>
      </trkpt>
      <trkpt lat="48.79184" lon="-3.24835">
        <ele>60.2</ele>
        <time>2019-07-11T06:21:11Z</time>
      </trkpt>
      <trkpt lat="48.79186" lon="-3.24837">
        <ele>60.3</ele>
        <time>2019-07-11T06:21:12Z</time>
      </trkpt>
      <trkpt lat="48.79188" lon="-3.24839">
        <ele>60.9</ele>
        <time>2019-07-11T06:21:13Z</time>
      </trkpt>
      <trkpt lat="48.79189" lon="-3.24842">
        <ele>60.6</ele>
        <time>2019-07-11T06:21:14Z</time>
      </trkpt>
      <trkpt lat="48.7919" lon="-3.24845">
        <ele>61.4</ele>
        <time>2019-07-11T06:21:15Z</time>
      </trkpt>
      <trkpt lat="48.79192" lon="-3.24848">
        <ele>62.7</ele>
        <time>2019-07-11T06:21:16Z</time>
      </trkpt>
      <trkpt lat="48.79193" lon="-3.24852">
        <ele>62.9</ele>
        <time>2019-07-11T06:21:17Z</time>
      </trkpt>
      <trkpt lat="48.79195" lon="-3.24854">
        <ele>63.2</ele>
        <time>2019-07-11T06:21:18Z</time>
      </trkpt>
      <trkpt lat="48.79197" lon="-3.24858">
        <ele>62.7</ele>
        <time>2019-07-11T06:21:19Z</time>
      </trkpt>
      <trkpt lat="48.792" lon="-3.24863">
        <ele>62.1</ele>
        <time>2019-07-11T06:21:20Z</time>
      </trkpt>
      <trkpt lat="48.79202" lon="-3.24867">
        <ele>62</ele>
        <time>2019-07-11T06:21:21Z</time>
      </trkpt>
      <trkpt lat="48.79203" lon="-3.2487">
        <ele>62.2</ele>
        <time>2019-07-11T06:21:22Z</time>
      </trkpt>
      <trkpt lat="48.79206" lon="-3.24874">
        <ele>61.4</ele>
        <time>2019-07-11T06:21:23Z</time>
      </trkpt>
      <trkpt lat="48.79208" lon="-3.2488">
        <ele>60.6</ele>
        <time>2019-07-11T06:21:24Z</time>
      </trkpt>
      <trkpt lat="48.7921" lon="-3.24885">
        <ele>59.6</ele>
        <time>2019-07-11T06:21:25Z</time>
      </trkpt>
      <trkpt lat="48.79212" lon="-3.24889">
        <ele>59</ele>
        <time>2019-07-11T06:21:26Z</time>
      </trkpt>
      <trkpt lat="48.79213" lon="-3.24892">
        <ele>58.5</ele>
        <time>2019-07-11T06:21:27Z</time>
      </trkpt>
      <trkpt lat="48.79215" lon="-3.24895">
        <ele>57.9</ele>
        <time>2019-07-11T06:21:28Z</time>
      </trkpt>
      <trkpt lat="48.79216" lon="-3.24899">
        <ele>57.5</ele>
        <time>2019-07-11T06:21:29Z</time>
      </trkpt>
      <trkpt lat="48.79218" lon="-3.24902">
        <ele>57.3</ele>
        <time>2019-07-11T06:21:30Z</time>
      </trkpt>
      <trkpt lat="48.79219" lon="-3.24905">
        <ele>57.9</ele>
        <time>2019-07-11T06:21:31Z</time>
      </trkpt>
      <trkpt lat="48.79221" lon="-3.24909">
        <ele>57.6</ele>
        <time>2019-07-11T06:21:32Z</time>
      </trkpt>
      <trkpt lat="48.79223" lon="-3.24912">
        <ele>57.8</ele>
        <time>2019-07-11T06:21:33Z</time>
      </trkpt>
      <trkpt lat="48.79224" lon="-3.24915">
        <ele>57.6</ele>
        <time>2019-07-11T06:21:34Z</time>
      </trkpt>
      <trkpt lat="48.79226" lon="-3.24919">
        <ele>58</ele>
        <time>2019-07-11T06:21:35Z</time>
      </trkpt>
      <trkpt lat="48.79228" lon="-3.24922">
        <ele>58.6</ele>
        <time>2019-07-11T06:21:36Z</time>
      </trkpt>
      <trkpt lat="48.7923" lon="-3.24926">
        <ele>58.5</ele>
        <time>2019-07-11T06:21:37Z</time>
      </trkpt>
      <trkpt lat="48.79231" lon="-3.24929">
        <ele>58.9</ele>
        <time>2019-07-11T06:21:38Z</time>
      </trkpt>
      <trkpt lat="48.79232" lon="-3.24931">
        <ele>59.4</ele>
        <time>2019-07-11T06:21:39Z</time>
      </trkpt>
      <trkpt lat="48.79234" lon="-3.24935">
        <ele>59.6</ele>
        <time>2019-07-11T06:21:40Z</time>
      </trkpt>
      <trkpt lat="48.79235" lon="-3.24937">
        <ele>60</ele>
        <time>2019-07-11T06:21:41Z</time>
      </trkpt>
      <trkpt lat="48.79236" lon="-3.24939">
        <ele>60</ele>
        <time>2019-07-11T06:21:42Z</time>
      </trkpt>
      <trkpt lat="48.79237" lon="-3.24941">
        <ele>61.2</ele>
        <time>2019-07-11T06:21:43Z</time>
      </trkpt>
      <trkpt lat="48.79239" lon="-3.24944">
        <ele>61.7</ele>
        <time>2019-07-11T06:21:44Z</time>
      </trkpt>
      <trkpt lat="48.7924" lon="-3.24946">
        <ele>62.8</ele>
        <time>2019-07-11T06:21:45Z</time>
      </trkpt>
      <trkpt lat="48.79241" lon="-3.24948">
        <ele>64.2</ele>
        <time>2019-07-11T06:21:46Z</time>
      </trkpt>
      <trkpt lat="48.79242" lon="-3.2495">
        <ele>65.4</ele>
        <time>2019-07-11T06:21:47Z</time>
      </trkpt>
      <trkpt lat="48.79244" lon="-3.24954">
        <ele>66.6</ele>
        <time>2019-07-11T06:21:48Z</time>
      </trkpt>
      <trkpt lat="48.79246" lon="-3.24958">
        <ele>68</ele>
        <time>2019-07-11T06:21:49Z</time>
      </trkpt>
      <trkpt lat="48.79249" lon="-3.24963">
        <ele>68.6</ele>
        <time>2019-07-11T06:21:50Z</time>
      </trkpt>
      <trkpt lat="48.79252" lon="-3.24971">
        <ele>67.5</ele>
        <time>2019-07-11T06:21:51Z</time>
      </trkpt>
      <trkpt lat="48.79254" lon="-3.24975">
        <ele>68.2</ele>
        <time>2019-07-11T06:21:52Z</time>
      </trkpt>
      <trkpt lat="48.79255" lon="-3.24979">
        <ele>69.3</ele>
        <time>2019-07-11T06:21:53Z</time>
      </trkpt>
      <trkpt lat="48.79257" lon="-3.24983">
        <ele>69.4</ele>
        <time>2019-07-11T06:21:54Z</time>
      </trkpt>
      <trkpt lat="48.7926" lon="-3.24989">
        <ele>67.9</ele>
        <time>2019-07-11T06:21:55Z</time>
      </trkpt>
      <trkpt lat="48.79261" lon="-3.24994">
        <ele>67.7</ele>
        <time>2019-07-11T06:21:56Z</time>
      </trkpt>
      <trkpt lat="48.79263" lon="-3.24998">
        <ele>67.3</ele>
        <time>2019-07-11T06:21:57Z</time>
      </trkpt>
      <trkpt lat="48.79265" lon="-3.25002">
        <ele>66.9</ele>
        <time>2019-07-11T06:21:58Z</time>
      </trkpt>
      <trkpt lat="48.79266" lon="-3.25006">
        <ele>66.4</ele>
        <time>2019-07-11T06:21:59Z</time>
      </trkpt>
      <trkpt lat="48.79268" lon="-3.2501">
        <ele>66.6</ele>
        <time>2019-07-11T06:22:00Z</time>
      </trkpt>
      <trkpt lat="48.79268" lon="-3.25013">
        <ele>67.3</ele>
        <time>2019-07-11T06:22:01Z</time>
      </trkpt>
      <trkpt lat="48.7927" lon="-3.25017">
        <ele>67.6</ele>
        <time>2019-07-11T06:22:02Z</time>
      </trkpt>
      <trkpt lat="48.79272" lon="-3.25021">
        <ele>68.5</ele>
        <time>2019-07-11T06:22:03Z</time>
      </trkpt>
      <trkpt lat="48.79274" lon="-3.25024">
        <ele>68.7</ele>
        <time>2019-07-11T06:22:04Z</time>
      </trkpt>
      <trkpt lat="48.79275" lon="-3.25027">
        <ele>69.3</ele>
        <time>2019-07-11T06:22:05Z</time>
      </trkpt>
      <trkpt lat="48.79277" lon="-3.2503">
        <ele>69.7</ele>
        <time>2019-07-11T06:22:06Z</time>
      </trkpt>
      <trkpt lat="48.79278" lon="-3.25033">
        <ele>70.7</ele>
        <time>2019-07-11T06:22:07Z</time>
      </trkpt>
      <trkpt lat="48.79279" lon="-3.25035">
        <ele>71.8</ele>
        <time>2019-07-11T06:22:08Z</time>
      </trkpt>
      <trkpt lat="48.79282" lon="-3.25039">
        <ele>71.6</ele>
        <time>2019-07-11T06:22:09Z</time>
      </trkpt>
      <trkpt lat="48.79283" lon="-3.25042">
        <ele>72.3</ele>
        <time>2019-07-11T06:22:10Z</time>
      </trkpt>
      <trkpt lat="48.79285" lon="-3.25044">
        <ele>73</ele>
        <time>2019-07-11T06:22:11Z</time>
      </trkpt>
      <trkpt lat="48.79287" lon="-3.25048">
        <ele>73</ele>
        <time>2019-07-11T06:22:12Z</time>
      </trkpt>
      <trkpt lat="48.79289" lon="-3.25051">
        <ele>73</ele>
        <time>2019-07-11T06:22:13Z</time>
      </trkpt>
      <trkpt lat="48.7929" lon="-3.25055">
        <ele>73.2</ele>
        <time>2019-07-11T06:22:14Z</time>
      </trkpt>
      <trkpt lat="48.79292" lon="-3.25059">
        <ele>72.9</ele>
        <time>2019-07-11T06:22:15Z</time>
      </trkpt>
      <trkpt lat="48.79294" lon="-3.25063">
        <ele>72.5</ele>
        <time>2019-07-11T06:22:16Z</time>
      </trkpt>
      <trkpt lat="48.79296" lon="-3.25067">
        <ele>72.1</ele>
        <time>2019-07-11T06:22:17Z</time>
      </trkpt>
      <trkpt lat="48.79298" lon="-3.25071">
        <ele>71.7</ele>
        <time>2019-07-11T06:22:18Z</time>
      </trkpt>
      <trkpt lat="48.793" lon="-3.25076">
        <ele>70.9</ele>
        <time>2019-07-11T06:22:19Z</time>
      </trkpt>
      <trkpt lat="48.79301" lon="-3.2508">
        <ele>70.8</ele>
        <time>2019-07-11T06:22:20Z</time>
      </trkpt>
      <trkpt lat="48.79303" lon="-3.25084">
        <ele>70.4</ele>
        <time>2019-07-11T06:22:21Z</time>
      </trkpt>
      <trkpt lat="48.79305" lon="-3.25089">
        <ele>69.3</ele>
        <time>2019-07-11T06:22:22Z</time>
      </trkpt>
      <trkpt lat="48.79307" lon="-3.25094">
        <ele>68.1</ele>
        <time>2019-07-11T06:22:23Z</time>
      </trkpt>
      <trkpt lat="48.79309" lon="-3.25098">
        <ele>66.7</ele>
        <time>2019-07-11T06:22:24Z</time>
      </trkpt>
      <trkpt lat="48.79311" lon="-3.25104">
        <ele>64.1</ele>
        <time>2019-07-11T06:22:25Z</time>
      </trkpt>
      <trkpt lat="48.79313" lon="-3.25109">
        <ele>63.1</ele>
        <time>2019-07-11T06:22:26Z</time>
      </trkpt>
      <trkpt lat="48.79315" lon="-3.25114">
        <ele>62.4</ele>
        <time>2019-07-11T06:22:27Z</time>
      </trkpt>
      <trkpt lat="48.79318" lon="-3.25119">
        <ele>62.2</ele>
        <time>2019-07-11T06:22:28Z</time>
      </trkpt>
      <trkpt lat="48.7932" lon="-3.25124">
        <ele>61.4</ele>
        <time>2019-07-11T06:22:29Z</time>
      </trkpt>
      <trkpt lat="48.79322" lon="-3.25129">
        <ele>60.8</ele>
        <time>2019-07-11T06:22:30Z</time>
      </trkpt>
      <trkpt lat="48.79324" lon="-3.25135">
        <ele>60</ele>
        <time>2019-07-11T06:22:31Z</time>
      </trkpt>
      <trkpt lat="48.79326" lon="-3.2514">
        <ele>58.8</ele>
        <time>2019-07-11T06:22:32Z</time>
      </trkpt>
      <trkpt lat="48.79328" lon="-3.25145">
        <ele>58.1</ele>
        <time>2019-07-11T06:22:33Z</time>
      </trkpt>
      <trkpt lat="48.7933" lon="-3.2515">
        <ele>57.5</ele>
        <time>2019-07-11T06:22:34Z</time>
      </trkpt>
      <trkpt lat="48.79332" lon="-3.25155">
        <ele>57.2</ele>
        <time>2019-07-11T06:22:35Z</time>
      </trkpt>
      <trkpt lat="48.79334" lon="-3.2516">
        <ele>56.7</ele>
        <time>2019-07-11T06:22:36Z</time>
      </trkpt>
      <trkpt lat="48.79336" lon="-3.25164">
        <ele>56.2</ele>
        <time>2019-07-11T06:22:37Z</time>
      </trkpt>
      <trkpt lat="48.79338" lon="-3.25169">
        <ele>55.6</ele>
        <time>2019-07-11T06:22:38Z</time>
      </trkpt>
      <trkpt lat="48.7934" lon="-3.25174">
        <ele>55.3</ele>
        <time>2019-07-11T06:22:39Z</time>
      </trkpt>
      <trkpt lat="48.79342" lon="-3.25178">
        <ele>55</ele>
        <time>2019-07-11T06:22:40Z</time>
      </trkpt>
      <trkpt lat="48.79343" lon="-3.25183">
        <ele>55.1</ele>
        <time>2019-07-11T06:22:41Z</time>
      </trkpt>
      <trkpt lat="48.79345" lon="-3.25187">
        <ele>55.2</ele>
        <time>2019-07-11T06:22:42Z</time>
      </trkpt>
      <trkpt lat="48.79347" lon="-3.25191">
        <ele>55.1</ele>
        <time>2019-07-11T06:22:43Z</time>
      </trkpt>
      <trkpt lat="48.79349" lon="-3.25196">
        <ele>54.9</ele>
        <time>2019-07-11T06:22:44Z</time>
      </trkpt>
      <trkpt lat="48.7935" lon="-3.25201">
        <ele>55.6</ele>
        <time>2019-07-11T06:22:45Z</time>
      </trkpt>
      <trkpt lat="48.79352" lon="-3.25206">
        <ele>55.6</ele>
        <time>2019-07-11T06:22:46Z</time>
      </trkpt>
      <trkpt lat="48.79353" lon="-3.2521">
        <ele>56.2</ele>
        <time>2019-07-11T06:22:47Z</time>
      </trkpt>
      <trkpt lat="48.79355" lon="-3.25214">
        <ele>56.6</ele>
        <time>2019-07-11T06:22:48Z</time>
      </trkpt>
      <trkpt lat="48.79357" lon="-3.25218">
        <ele>57.1</ele>
        <time>2019-07-11T06:22:49Z</time>
      </trkpt>
      <trkpt lat="48.79358" lon="-3.25222">
        <ele>57.3</ele>
        <time>2019-07-11T06:22:50Z</time>
      </trkpt>
      <trkpt lat="48.7936" lon="-3.25225">
        <ele>57.2</ele>
        <time>2019-07-11T06:22:51Z</time>
      </trkpt>
      <trkpt lat="48.79361" lon="-3.25228">
        <ele>57.5</ele>
        <time>2019-07-11T06:22:52Z</time>
      </trkpt>
      <trkpt lat="48.79362" lon="-3.25232">
        <ele>57.7</ele>
        <time>2019-07-11T06:22:53Z</time>
      </trkpt>
      <trkpt lat="48.79363" lon="-3.25235">
        <ele>58.7</ele>
        <time>2019-07-11T06:22:54Z</time>
      </trkpt>
      <trkpt lat="48.79363" lon="-3.25238">
        <ele>58.5</ele>
        <time>2019-07-11T06:22:55Z</time>
      </trkpt>
      <trkpt lat="48.79364" lon="-3.25242">
        <ele>58.4</ele>
        <time>2019-07-11T06:22:56Z</time>
      </trkpt>
      <trkpt lat="48.79365" lon="-3.25246">
        <ele>57.5</ele>
        <time>2019-07-11T06:22:57Z</time>
      </trkpt>
      <trkpt lat="48.79366" lon="-3.25249">
        <ele>57.3</ele>
        <time>2019-07-11T06:22:58Z</time>
      </trkpt>
      <trkpt lat="48.79367" lon="-3.25252">
        <ele>57.3</ele>
        <time>2019-07-11T06:22:59Z</time>
      </trkpt>
      <trkpt lat="48.79368" lon="-3.25255">
        <ele>57.4</ele>
        <time>2019-07-11T06:23:00Z</time>
      </trkpt>
      <trkpt lat="48.79369" lon="-3.25257">
        <ele>57.9</ele>
        <time>2019-07-11T06:23:01Z</time>
      </trkpt>
      <trkpt lat="48.79371" lon="-3.25261">
        <ele>58</ele>
        <time>2019-07-11T06:23:02Z</time>
      </trkpt>
      <trkpt lat="48.79372" lon="-3.25264">
        <ele>58.4</ele>
        <time>2019-07-11T06:23:03Z</time>
      </trkpt>
      <trkpt lat="48.79373" lon="-3.25268">
        <ele>58.5</ele>
        <time>2019-07-11T06:23:04Z</time>
      </trkpt>
      <trkpt lat="48.79374" lon="-3.25273">
        <ele>58.2</ele>
        <time>2019-07-11T06:23:05Z</time>
      </trkpt>
      <trkpt lat="48.79376" lon="-3.25277">
        <ele>58.1</ele>
        <time>2019-07-11T06:23:06Z</time>
      </trkpt>
      <trkpt lat="48.79377" lon="-3.25281">
        <ele>57.8</ele>
        <time>2019-07-11T06:23:07Z</time>
      </trkpt>
      <trkpt lat="48.79379" lon="-3.25286">
        <ele>57.6</ele>
        <time>2019-07-11T06:23:08Z</time>
      </trkpt>
      <trkpt lat="48.7938" lon="-3.2529">
        <ele>57.2</ele>
        <time>2019-07-11T06:23:09Z</time>
      </trkpt>
      <trkpt lat="48.79381" lon="-3.25294">
        <ele>56.9</ele>
        <time>2019-07-11T06:23:10Z</time>
      </trkpt>
      <trkpt lat="48.79382" lon="-3.25298">
        <ele>56.7</ele>
        <time>2019-07-11T06:23:11Z</time>
      </trkpt>
      <trkpt lat="48.79383" lon="-3.25302">
        <ele>56.3</ele>
        <time>2019-07-11T06:23:12Z</time>
      </trkpt>
      <trkpt lat="48.79384" lon="-3.25306">
        <ele>56</ele>
        <time>2019-07-11T06:23:13Z</time>
      </trkpt>
      <trkpt lat="48.79385" lon="-3.2531">
        <ele>55.8</ele>
        <time>2019-07-11T06:23:14Z</time>
      </trkpt>
      <trkpt lat="48.79387" lon="-3.25314">
        <ele>56</ele>
        <time>2019-07-11T06:23:15Z</time>
      </trkpt>
      <trkpt lat="48.79388" lon="-3.25317">
        <ele>56</ele>
        <time>2019-07-11T06:23:16Z</time>
      </trkpt>
      <trkpt lat="48.7939" lon="-3.25321">
        <ele>55.8</ele>
        <time>2019-07-11T06:23:17Z</time>
      </trkpt>
      <trkpt lat="48.79391" lon="-3.25325">
        <ele>55.3</ele>
        <time>2019-07-11T06:23:18Z</time>
      </trkpt>
      <trkpt lat="48.79392" lon="-3.25329">
        <ele>55.1</ele>
        <time>2019-07-11T06:23:19Z</time>
      </trkpt>
      <trkpt lat="48.79394" lon="-3.25332">
        <ele>54.9</ele>
        <time>2019-07-11T06:23:20Z</time>
      </trkpt>
      <trkpt lat="48.79395" lon="-3.25336">
        <ele>55</ele>
        <time>2019-07-11T06:23:21Z</time>
      </trkpt>
      <trkpt lat="48.79396" lon="-3.25339">
        <ele>55.2</ele>
        <time>2019-07-11T06:23:22Z</time>
      </trkpt>
      <trkpt lat="48.79397" lon="-3.25343">
        <ele>55.4</ele>
        <time>2019-07-11T06:23:23Z</time>
      </trkpt>
      <trkpt lat="48.79398" lon="-3.25347">
        <ele>55.5</ele>
        <time>2019-07-11T06:23:24Z</time>
      </trkpt>
      <trkpt lat="48.79399" lon="-3.25351">
        <ele>55.7</ele>
        <time>2019-07-11T06:23:25Z</time>
      </trkpt>
      <trkpt lat="48.794" lon="-3.25355">
        <ele>56.1</ele>
        <time>2019-07-11T06:23:26Z</time>
      </trkpt>
      <trkpt lat="48.79401" lon="-3.25358">
        <ele>56.5</ele>
        <time>2019-07-11T06:23:27Z</time>
      </trkpt>
      <trkpt lat="48.79402" lon="-3.25362">
        <ele>57</ele>
        <time>2019-07-11T06:23:28Z</time>
      </trkpt>
      <trkpt lat="48.79403" lon="-3.25365">
        <ele>57.5</ele>
        <time>2019-07-11T06:23:29Z</time>
      </trkpt>
      <trkpt lat="48.79404" lon="-3.25369">
        <ele>57.8</ele>
        <time>2019-07-11T06:23:30Z</time>
      </trkpt>
      <trkpt lat="48.79405" lon="-3.25372">
        <ele>58.5</ele>
        <time>2019-07-11T06:23:31Z</time>
      </trkpt>
      <trkpt lat="48.79406" lon="-3.25375">
        <ele>59.4</ele>
        <time>2019-07-11T06:23:32Z</time>
      </trkpt>
      <trkpt lat="48.79408" lon="-3.25378">
        <ele>59.9</ele>
        <time>2019-07-11T06:23:33Z</time>
      </trkpt>
      <trkpt lat="48.79409" lon="-3.25382">
        <ele>60.3</ele>
        <time>2019-07-11T06:23:34Z</time>
      </trkpt>
      <trkpt lat="48.7941" lon="-3.25386">
        <ele>60.2</ele>
        <time>2019-07-11T06:23:35Z</time>
      </trkpt>
      <trkpt lat="48.79411" lon="-3.25391">
        <ele>60.1</ele>
        <time>2019-07-11T06:23:36Z</time>
      </trkpt>
      <trkpt lat="48.79413" lon="-3.25394">
        <ele>60.3</ele>
        <time>2019-07-11T06:23:37Z</time>
      </trkpt>
      <trkpt lat="48.79413" lon="-3.25398">
        <ele>60.5</ele>
        <time>2019-07-11T06:23:38Z</time>
      </trkpt>
      <trkpt lat="48.79414" lon="-3.25401">
        <ele>61.4</ele>
        <time>2019-07-11T06:23:39Z</time>
      </trkpt>
      <trkpt lat="48.79416" lon="-3.25405">
        <ele>62</ele>
        <time>2019-07-11T06:23:40Z</time>
      </trkpt>
      <trkpt lat="48.79417" lon="-3.25408">
        <ele>62.9</ele>
        <time>2019-07-11T06:23:41Z</time>
      </trkpt>
      <trkpt lat="48.79419" lon="-3.25411">
        <ele>63.5</ele>
        <time>2019-07-11T06:23:42Z</time>
      </trkpt>
      <trkpt lat="48.7942" lon="-3.25415">
        <ele>63.5</ele>
        <time>2019-07-11T06:23:43Z</time>
      </trkpt>
      <trkpt lat="48.79421" lon="-3.25418">
        <ele>63.7</ele>
        <time>2019-07-11T06:23:44Z</time>
      </trkpt>
      <trkpt lat="48.79422" lon="-3.25421">
        <ele>63.5</ele>
        <time>2019-07-11T06:23:45Z</time>
      </trkpt>
      <trkpt lat="48.79423" lon="-3.25424">
        <ele>63.8</ele>
        <time>2019-07-11T06:23:46Z</time>
      </trkpt>
      <trkpt lat="48.79424" lon="-3.25427">
        <ele>63.9</ele>
        <time>2019-07-11T06:23:47Z</time>
      </trkpt>
      <trkpt lat="48.79425" lon="-3.2543">
        <ele>63.8</ele>
        <time>2019-07-11T06:23:48Z</time>
      </trkpt>
      <trkpt lat="48.79427" lon="-3.25434">
        <ele>62.8</ele>
        <time>2019-07-11T06:23:49Z</time>
      </trkpt>
      <trkpt lat="48.79429" lon="-3.25438">
        <ele>62.8</ele>
        <time>2019-07-11T06:23:50Z</time>
      </trkpt>
      <trkpt lat="48.7943" lon="-3.25443">
        <ele>62.7</ele>
        <time>2019-07-11T06:23:51Z</time>
      </trkpt>
      <trkpt lat="48.79432" lon="-3.25447">
        <ele>62.7</ele>
        <time>2019-07-11T06:23:52Z</time>
      </trkpt>
      <trkpt lat="48.79433" lon="-3.25451">
        <ele>62.7</ele>
        <time>2019-07-11T06:23:53Z</time>
      </trkpt>
      <trkpt lat="48.79435" lon="-3.25456">
        <ele>61.9</ele>
        <time>2019-07-11T06:23:54Z</time>
      </trkpt>
      <trkpt lat="48.79436" lon="-3.25461">
        <ele>61.9</ele>
        <time>2019-07-11T06:23:55Z</time>
      </trkpt>
      <trkpt lat="48.79438" lon="-3.25465">
        <ele>62</ele>
        <time>2019-07-11T06:23:56Z</time>
      </trkpt>
      <trkpt lat="48.79439" lon="-3.25469">
        <ele>61.9</ele>
        <time>2019-07-11T06:23:57Z</time>
      </trkpt>
      <trkpt lat="48.79441" lon="-3.25474">
        <ele>61.7</ele>
        <time>2019-07-11T06:23:58Z</time>
      </trkpt>
      <trkpt lat="48.79442" lon="-3.25479">
        <ele>61.8</ele>
        <time>2019-07-11T06:23:59Z</time>
      </trkpt>
      <trkpt lat="48.79444" lon="-3.25484">
        <ele>62</ele>
        <time>2019-07-11T06:24:00Z</time>
      </trkpt>
      <trkpt lat="48.79445" lon="-3.25488">
        <ele>62.1</ele>
        <time>2019-07-11T06:24:01Z</time>
      </trkpt>
      <trkpt lat="48.79447" lon="-3.25492">
        <ele>62.2</ele>
        <time>2019-07-11T06:24:02Z</time>
      </trkpt>
      <trkpt lat="48.79448" lon="-3.25497">
        <ele>62.3</ele>
        <time>2019-07-11T06:24:03Z</time>
      </trkpt>
      <trkpt lat="48.7945" lon="-3.25501">
        <ele>62.4</ele>
        <time>2019-07-11T06:24:04Z</time>
      </trkpt>
      <trkpt lat="48.79452" lon="-3.25505">
        <ele>62.4</ele>
        <time>2019-07-11T06:24:05Z</time>
      </trkpt>
      <trkpt lat="48.79454" lon="-3.25509">
        <ele>62.6</ele>
        <time>2019-07-11T06:24:06Z</time>
      </trkpt>
      <trkpt lat="48.79455" lon="-3.25513">
        <ele>63.2</ele>
        <time>2019-07-11T06:24:07Z</time>
      </trkpt>
      <trkpt lat="48.79456" lon="-3.25517">
        <ele>63.4</ele>
        <time>2019-07-11T06:24:08Z</time>
      </trkpt>
      <trkpt lat="48.79458" lon="-3.25522">
        <ele>63.4</ele>
        <time>2019-07-11T06:24:09Z</time>
      </trkpt>
      <trkpt lat="48.79459" lon="-3.25526">
        <ele>63.9</ele>
        <time>2019-07-11T06:24:10Z</time>
      </trkpt>
      <trkpt lat="48.79461" lon="-3.2553">
        <ele>64.4</ele>
        <time>2019-07-11T06:24:11Z</time>
      </trkpt>
      <trkpt lat="48.79461" lon="-3.25534">
        <ele>65.1</ele>
        <time>2019-07-11T06:24:12Z</time>
      </trkpt>
      <trkpt lat="48.79462" lon="-3.25538">
        <ele>65.5</ele>
        <time>2019-07-11T06:24:13Z</time>
      </trkpt>
      <trkpt lat="48.79464" lon="-3.25542">
        <ele>66</ele>
        <time>2019-07-11T06:24:14Z</time>
      </trkpt>
      <trkpt lat="48.79465" lon="-3.25546">
        <ele>65.7</ele>
        <time>2019-07-11T06:24:15Z</time>
      </trkpt>
      <trkpt lat="48.79466" lon="-3.2555">
        <ele>65.1</ele>
        <time>2019-07-11T06:24:16Z</time>
      </trkpt>
      <trkpt lat="48.79468" lon="-3.25555">
        <ele>65.5</ele>
        <time>2019-07-11T06:24:17Z</time>
      </trkpt>
      <trkpt lat="48.79469" lon="-3.25559">
        <ele>65.6</ele>
        <time>2019-07-11T06:24:18Z</time>
      </trkpt>
      <trkpt lat="48.7947" lon="-3.25563">
        <ele>65.9</ele>
        <time>2019-07-11T06:24:19Z</time>
      </trkpt>
      <trkpt lat="48.79471" lon="-3.25568">
        <ele>66</ele>
        <time>2019-07-11T06:24:20Z</time>
      </trkpt>
      <trkpt lat="48.79472" lon="-3.25572">
        <ele>65.6</ele>
        <time>2019-07-11T06:24:21Z</time>
      </trkpt>
      <trkpt lat="48.79474" lon="-3.25576">
        <ele>65.2</ele>
        <time>2019-07-11T06:24:22Z</time>
      </trkpt>
      <trkpt lat="48.79475" lon="-3.2558">
        <ele>65.3</ele>
        <time>2019-07-11T06:24:23Z</time>
      </trkpt>
      <trkpt lat="48.79475" lon="-3.25584">
        <ele>65.3</ele>
        <time>2019-07-11T06:24:24Z</time>
      </trkpt>
      <trkpt lat="48.79477" lon="-3.25589">
        <ele>65.2</ele>
        <time>2019-07-11T06:24:25Z</time>
      </trkpt>
      <trkpt lat="48.79478" lon="-3.25593">
        <ele>64.8</ele>
        <time>2019-07-11T06:24:26Z</time>
      </trkpt>
      <trkpt lat="48.79479" lon="-3.25597">
        <ele>64.4</ele>
        <time>2019-07-11T06:24:27Z</time>
      </trkpt>
      <trkpt lat="48.7948" lon="-3.25601">
        <ele>64</ele>
        <time>2019-07-11T06:24:28Z</time>
      </trkpt>
      <trkpt lat="48.79482" lon="-3.25606">
        <ele>64</ele>
        <time>2019-07-11T06:24:29Z</time>
      </trkpt>
      <trkpt lat="48.79484" lon="-3.2561">
        <ele>63.5</ele>
        <time>2019-07-11T06:24:30Z</time>
      </trkpt>
      <trkpt lat="48.79485" lon="-3.25614">
        <ele>63.8</ele>
        <time>2019-07-11T06:24:31Z</time>
      </trkpt>
      <trkpt lat="48.79487" lon="-3.25618">
        <ele>63.9</ele>
        <time>2019-07-11T06:24:32Z</time>
      </trkpt>
      <trkpt lat="48.79488" lon="-3.25622">
        <ele>63.5</ele>
        <time>2019-07-11T06:24:33Z</time>
      </trkpt>
      <trkpt lat="48.79489" lon="-3.25626">
        <ele>63.2</ele>
        <time>2019-07-11T06:24:34Z</time>
      </trkpt>
      <trkpt lat="48.79491" lon="-3.2563">
        <ele>63.1</ele>
        <time>2019-07-11T06:24:35Z</time>
      </trkpt>
      <trkpt lat="48.79492" lon="-3.25634">
        <ele>63</ele>
        <time>2019-07-11T06:24:36Z</time>
      </trkpt>
      <trkpt lat="48.79493" lon="-3.25638">
        <ele>62.8</ele>
        <time>2019-07-11T06:24:37Z</time>
      </trkpt>
      <trkpt lat="48.79495" lon="-3.25643">
        <ele>62.7</ele>
        <time>2019-07-11T06:24:38Z</time>
      </trkpt>
      <trkpt lat="48.79496" lon="-3.25647">
        <ele>62.7</ele>
        <time>2019-07-11T06:24:39Z</time>
      </trkpt>
      <trkpt lat="48.79497" lon="-3.2565">
        <ele>62.5</ele>
        <time>2019-07-11T06:24:40Z</time>
      </trkpt>
      <trkpt lat="48.79497" lon="-3.25652">
        <ele>63</ele>
        <time>2019-07-11T06:24:41Z</time>
      </trkpt>
      <trkpt lat="48.79498" lon="-3.25654">
        <ele>62.6</ele>
        <time>2019-07-11T06:24:42Z</time>
      </trkpt>
      <trkpt lat="48.795" lon="-3.25658">
        <ele>62.5</ele>
        <time>2019-07-11T06:24:57Z</time>
      </trkpt>
      <trkpt lat="48.79501" lon="-3.2566">
        <ele>62.7</ele>
        <time>2019-07-11T06:24:58Z</time>
      </trkpt>
      <trkpt lat="48.79502" lon="-3.25662">
        <ele>63.1</ele>
        <time>2019-07-11T06:24:59Z</time>
      </trkpt>
      <trkpt lat="48.79503" lon="-3.25665">
        <ele>63.3</ele>
        <time>2019-07-11T06:25:00Z</time>
      </trkpt>
      <trkpt lat="48.79504" lon="-3.25668">
        <ele>63.5</ele>
        <time>2019-07-11T06:25:01Z</time>
      </trkpt>
      <trkpt lat="48.79504" lon="-3.25671">
        <ele>63.8</ele>
        <time>2019-07-11T06:25:02Z</time>
      </trkpt>
      <trkpt lat="48.79506" lon="-3.25675">
        <ele>63.8</ele>
        <time>2019-07-11T06:25:03Z</time>
      </trkpt>
      <trkpt lat="48.79506" lon="-3.25678">
        <ele>63.9</ele>
        <time>2019-07-11T06:25:04Z</time>
      </trkpt>
      <trkpt lat="48.79507" lon="-3.25682">
        <ele>64.2</ele>
        <time>2019-07-11T06:25:05Z</time>
      </trkpt>
      <trkpt lat="48.79509" lon="-3.25686">
        <ele>64.3</ele>
        <time>2019-07-11T06:25:06Z</time>
      </trkpt>
      <trkpt lat="48.79511" lon="-3.2569">
        <ele>64.4</ele>
        <time>2019-07-11T06:25:07Z</time>
      </trkpt>
      <trkpt lat="48.79512" lon="-3.25694">
        <ele>64.8</ele>
        <time>2019-07-11T06:25:08Z</time>
      </trkpt>
      <trkpt lat="48.79514" lon="-3.25698">
        <ele>65.3</ele>
        <time>2019-07-11T06:25:09Z</time>
      </trkpt>
      <trkpt lat="48.79515" lon="-3.25702">
        <ele>65.4</ele>
        <time>2019-07-11T06:25:10Z</time>
      </trkpt>
      <trkpt lat="48.79517" lon="-3.25706">
        <ele>65.5</ele>
        <time>2019-07-11T06:25:11Z</time>
      </trkpt>
      <trkpt lat="48.79519" lon="-3.25711">
        <ele>65.9</ele>
        <time>2019-07-11T06:25:12Z</time>
      </trkpt>
      <trkpt lat="48.7952" lon="-3.25715">
        <ele>65.8</ele>
        <time>2019-07-11T06:25:13Z</time>
      </trkpt>
      <trkpt lat="48.79522" lon="-3.2572">
        <ele>65.5</ele>
        <time>2019-07-11T06:25:14Z</time>
      </trkpt>
      <trkpt lat="48.79523" lon="-3.25725">
        <ele>65.6</ele>
        <time>2019-07-11T06:25:15Z</time>
      </trkpt>
      <trkpt lat="48.79525" lon="-3.2573">
        <ele>65.3</ele>
        <time>2019-07-11T06:25:16Z</time>
      </trkpt>
      <trkpt lat="48.79527" lon="-3.25735">
        <ele>65.2</ele>
        <time>2019-07-11T06:25:17Z</time>
      </trkpt>
      <trkpt lat="48.79528" lon="-3.2574">
        <ele>65.4</ele>
        <time>2019-07-11T06:25:18Z</time>
      </trkpt>
      <trkpt lat="48.79529" lon="-3.25745">
        <ele>65.8</ele>
        <time>2019-07-11T06:25:19Z</time>
      </trkpt>
      <trkpt lat="48.7953" lon="-3.2575">
        <ele>65.6</ele>
        <time>2019-07-11T06:25:20Z</time>
      </trkpt>
      <trkpt lat="48.79532" lon="-3.25755">
        <ele>65.7</ele>
        <time>2019-07-11T06:25:21Z</time>
      </trkpt>
      <trkpt lat="48.79534" lon="-3.2576">
        <ele>66.2</ele>
        <time>2019-07-11T06:25:22Z</time>
      </trkpt>
      <trkpt lat="48.79535" lon="-3.25765">
        <ele>66.3</ele>
        <time>2019-07-11T06:25:23Z</time>
      </trkpt>
      <trkpt lat="48.79537" lon="-3.25769">
        <ele>66.2</ele>
        <time>2019-07-11T06:25:24Z</time>
      </trkpt>
      <trkpt lat="48.79539" lon="-3.25774">
        <ele>66.4</ele>
        <time>2019-07-11T06:25:25Z</time>
      </trkpt>
      <trkpt lat="48.79541" lon="-3.25779">
        <ele>67.5</ele>
        <time>2019-07-11T06:25:26Z</time>
      </trkpt>
      <trkpt lat="48.79543" lon="-3.25784">
        <ele>66.9</ele>
        <time>2019-07-11T06:25:27Z</time>
      </trkpt>
      <trkpt lat="48.79546" lon="-3.25789">
        <ele>66.5</ele>
        <time>2019-07-11T06:25:28Z</time>
      </trkpt>
      <trkpt lat="48.79548" lon="-3.25794">
        <ele>66.1</ele>
        <time>2019-07-11T06:25:29Z</time>
      </trkpt>
      <trkpt lat="48.79551" lon="-3.25799">
        <ele>65.4</ele>
        <time>2019-07-11T06:25:30Z</time>
      </trkpt>
      <trkpt lat="48.79554" lon="-3.25805">
        <ele>65</ele>
        <time>2019-07-11T06:25:31Z</time>
      </trkpt>
      <trkpt lat="48.79556" lon="-3.25811">
        <ele>64.7</ele>
        <time>2019-07-11T06:25:32Z</time>
      </trkpt>
      <trkpt lat="48.79559" lon="-3.25819">
        <ele>64.4</ele>
        <time>2019-07-11T06:25:33Z</time>
      </trkpt>
      <trkpt lat="48.79561" lon="-3.25825">
        <ele>64.2</ele>
        <time>2019-07-11T06:25:34Z</time>
      </trkpt>
      <trkpt lat="48.79563" lon="-3.25832">
        <ele>63.5</ele>
        <time>2019-07-11T06:25:35Z</time>
      </trkpt>
      <trkpt lat="48.79565" lon="-3.25839">
        <ele>63.4</ele>
        <time>2019-07-11T06:25:36Z</time>
      </trkpt>
      <trkpt lat="48.79568" lon="-3.25845">
        <ele>63.2</ele>
        <time>2019-07-11T06:25:37Z</time>
      </trkpt>
      <trkpt lat="48.7957" lon="-3.25852">
        <ele>62.8</ele>
        <time>2019-07-11T06:25:38Z</time>
      </trkpt>
      <trkpt lat="48.79573" lon="-3.25859">
        <ele>62.5</ele>
        <time>2019-07-11T06:25:39Z</time>
      </trkpt>
      <trkpt lat="48.79575" lon="-3.25866">
        <ele>62.5</ele>
        <time>2019-07-11T06:25:40Z</time>
      </trkpt>
      <trkpt lat="48.79578" lon="-3.25873">
        <ele>62.7</ele>
        <time>2019-07-11T06:25:41Z</time>
      </trkpt>
      <trkpt lat="48.79581" lon="-3.2588">
        <ele>62.3</ele>
        <time>2019-07-11T06:25:42Z</time>
      </trkpt>
      <trkpt lat="48.79584" lon="-3.25888">
        <ele>62</ele>
        <time>2019-07-11T06:25:43Z</time>
      </trkpt>
      <trkpt lat="48.79587" lon="-3.25895">
        <ele>61.9</ele>
        <time>2019-07-11T06:25:44Z</time>
      </trkpt>
      <trkpt lat="48.7959" lon="-3.25902">
        <ele>61.8</ele>
        <time>2019-07-11T06:25:45Z</time>
      </trkpt>
      <trkpt lat="48.79593" lon="-3.25909">
        <ele>61.8</ele>
        <time>2019-07-11T06:25:46Z</time>
      </trkpt>
      <trkpt lat="48.79596" lon="-3.25916">
        <ele>62</ele>
        <time>2019-07-11T06:25:47Z</time>
      </trkpt>
      <trkpt lat="48.79598" lon="-3.25924">
        <ele>62</ele>
        <time>2019-07-11T06:25:48Z</time>
      </trkpt>
      <trkpt lat="48.79601" lon="-3.25931">
        <ele>61.9</ele>
        <time>2019-07-11T06:25:49Z</time>
      </trkpt>
      <trkpt lat="48.79603" lon="-3.25938">
        <ele>61.7</ele>
        <time>2019-07-11T06:25:50Z</time>
      </trkpt>
      <trkpt lat="48.79606" lon="-3.25944">
        <ele>61.3</ele>
        <time>2019-07-11T06:25:51Z</time>
      </trkpt>
      <trkpt lat="48.79608" lon="-3.25951">
        <ele>61</ele>
        <time>2019-07-11T06:25:52Z</time>
      </trkpt>
      <trkpt lat="48.79611" lon="-3.25958">
        <ele>61</ele>
        <time>2019-07-11T06:25:53Z</time>
      </trkpt>
      <trkpt lat="48.79614" lon="-3.25965">
        <ele>60.9</ele>
        <time>2019-07-11T06:25:54Z</time>
      </trkpt>
      <trkpt lat="48.79616" lon="-3.25971">
        <ele>61</ele>
        <time>2019-07-11T06:25:55Z</time>
      </trkpt>
      <trkpt lat="48.79619" lon="-3.25978">
        <ele>61.5</ele>
        <time>2019-07-11T06:25:56Z</time>
      </trkpt>
      <trkpt lat="48.79621" lon="-3.25985">
        <ele>61.6</ele>
        <time>2019-07-11T06:25:57Z</time>
      </trkpt>
      <trkpt lat="48.79623" lon="-3.25991">
        <ele>61.6</ele>
        <time>2019-07-11T06:25:58Z</time>
      </trkpt>
      <trkpt lat="48.79625" lon="-3.25998">
        <ele>61.6</ele>
        <time>2019-07-11T06:25:59Z</time>
      </trkpt>
      <trkpt lat="48.79628" lon="-3.26004">
        <ele>61.5</ele>
        <time>2019-07-11T06:26:00Z</time>
      </trkpt>
      <trkpt lat="48.7963" lon="-3.26011">
        <ele>61.7</ele>
        <time>2019-07-11T06:26:01Z</time>
      </trkpt>
      <trkpt lat="48.79633" lon="-3.26017">
        <ele>61.9</ele>
        <time>2019-07-11T06:26:02Z</time>
      </trkpt>
      <trkpt lat="48.79635" lon="-3.26023">
        <ele>62</ele>
        <time>2019-07-11T06:26:03Z</time>
      </trkpt>
      <trkpt lat="48.79637" lon="-3.2603">
        <ele>62</ele>
        <time>2019-07-11T06:26:04Z</time>
      </trkpt>
      <trkpt lat="48.79639" lon="-3.26036">
        <ele>61.8</ele>
        <time>2019-07-11T06:26:05Z</time>
      </trkpt>
      <trkpt lat="48.79642" lon="-3.26043">
        <ele>61.5</ele>
        <time>2019-07-11T06:26:06Z</time>
      </trkpt>
      <trkpt lat="48.79644" lon="-3.26049">
        <ele>61.5</ele>
        <time>2019-07-11T06:26:07Z</time>
      </trkpt>
      <trkpt lat="48.79646" lon="-3.26056">
        <ele>61.5</ele>
        <time>2019-07-11T06:26:08Z</time>
      </trkpt>
      <trkpt lat="48.79649" lon="-3.26062">
        <ele>61.7</ele>
        <time>2019-07-11T06:26:09Z</time>
      </trkpt>
      <trkpt lat="48.79651" lon="-3.26068">
        <ele>61.5</ele>
        <time>2019-07-11T06:26:10Z</time>
      </trkpt>
      <trkpt lat="48.79653" lon="-3.26075">
        <ele>61.4</ele>
        <time>2019-07-11T06:26:11Z</time>
      </trkpt>
      <trkpt lat="48.79656" lon="-3.26081">
        <ele>61.4</ele>
        <time>2019-07-11T06:26:12Z</time>
      </trkpt>
      <trkpt lat="48.79658" lon="-3.26087">
        <ele>61.2</ele>
        <time>2019-07-11T06:26:13Z</time>
      </trkpt>
      <trkpt lat="48.7966" lon="-3.26093">
        <ele>61.3</ele>
        <time>2019-07-11T06:26:14Z</time>
      </trkpt>
      <trkpt lat="48.79662" lon="-3.26099">
        <ele>60.9</ele>
        <time>2019-07-11T06:26:15Z</time>
      </trkpt>
      <trkpt lat="48.79664" lon="-3.26105">
        <ele>60.8</ele>
        <time>2019-07-11T06:26:16Z</time>
      </trkpt>
      <trkpt lat="48.79665" lon="-3.26111">
        <ele>61</ele>
        <time>2019-07-11T06:26:17Z</time>
      </trkpt>
      <trkpt lat="48.79667" lon="-3.26118">
        <ele>60.9</ele>
        <time>2019-07-11T06:26:18Z</time>
      </trkpt>
      <trkpt lat="48.79669" lon="-3.26124">
        <ele>61.1</ele>
        <time>2019-07-11T06:26:19Z</time>
      </trkpt>
      <trkpt lat="48.79671" lon="-3.26131">
        <ele>61.2</ele>
        <time>2019-07-11T06:26:20Z</time>
      </trkpt>
      <trkpt lat="48.79673" lon="-3.26138">
        <ele>61.5</ele>
        <time>2019-07-11T06:26:21Z</time>
      </trkpt>
      <trkpt lat="48.79675" lon="-3.26144">
        <ele>61.9</ele>
        <time>2019-07-11T06:26:22Z</time>
      </trkpt>
      <trkpt lat="48.79676" lon="-3.2615">
        <ele>62.7</ele>
        <time>2019-07-11T06:26:23Z</time>
      </trkpt>
      <trkpt lat="48.79678" lon="-3.26157">
        <ele>63.6</ele>
        <time>2019-07-11T06:26:24Z</time>
      </trkpt>
      <trkpt lat="48.7968" lon="-3.26164">
        <ele>63.5</ele>
        <time>2019-07-11T06:26:25Z</time>
      </trkpt>
      <trkpt lat="48.79681" lon="-3.2617">
        <ele>64</ele>
        <time>2019-07-11T06:26:26Z</time>
      </trkpt>
      <trkpt lat="48.79682" lon="-3.26177">
        <ele>63.6</ele>
        <time>2019-07-11T06:26:27Z</time>
      </trkpt>
      <trkpt lat="48.79684" lon="-3.26183">
        <ele>62.8</ele>
        <time>2019-07-11T06:26:28Z</time>
      </trkpt>
      <trkpt lat="48.79686" lon="-3.26189">
        <ele>62.2</ele>
        <time>2019-07-11T06:26:29Z</time>
      </trkpt>
      <trkpt lat="48.79687" lon="-3.26196">
        <ele>61.6</ele>
        <time>2019-07-11T06:26:30Z</time>
      </trkpt>
      <trkpt lat="48.79688" lon="-3.26203">
        <ele>60.9</ele>
        <time>2019-07-11T06:26:31Z</time>
      </trkpt>
      <trkpt lat="48.79689" lon="-3.2621">
        <ele>60.2</ele>
        <time>2019-07-11T06:26:32Z</time>
      </trkpt>
      <trkpt lat="48.7969" lon="-3.26218">
        <ele>59.7</ele>
        <time>2019-07-11T06:26:33Z</time>
      </trkpt>
      <trkpt lat="48.79691" lon="-3.26226">
        <ele>59.5</ele>
        <time>2019-07-11T06:26:34Z</time>
      </trkpt>
      <trkpt lat="48.79692" lon="-3.26234">
        <ele>59.4</ele>
        <time>2019-07-11T06:26:35Z</time>
      </trkpt>
      <trkpt lat="48.79693" lon="-3.26242">
        <ele>59.2</ele>
        <time>2019-07-11T06:26:36Z</time>
      </trkpt>
      <trkpt lat="48.79694" lon="-3.2625">
        <ele>59.6</ele>
        <time>2019-07-11T06:26:37Z</time>
      </trkpt>
      <trkpt lat="48.79695" lon="-3.26258">
        <ele>60</ele>
        <time>2019-07-11T06:26:38Z</time>
      </trkpt>
      <trkpt lat="48.79696" lon="-3.26266">
        <ele>60.1</ele>
        <time>2019-07-11T06:26:39Z</time>
      </trkpt>
      <trkpt lat="48.79697" lon="-3.26274">
        <ele>59.9</ele>
        <time>2019-07-11T06:26:40Z</time>
      </trkpt>
      <trkpt lat="48.79698" lon="-3.26282">
        <ele>60</ele>
        <time>2019-07-11T06:26:41Z</time>
      </trkpt>
      <trkpt lat="48.79698" lon="-3.2629">
        <ele>60.1</ele>
        <time>2019-07-11T06:26:42Z</time>
      </trkpt>
      <trkpt lat="48.79699" lon="-3.26298">
        <ele>60.2</ele>
        <time>2019-07-11T06:26:43Z</time>
      </trkpt>
      <trkpt lat="48.797" lon="-3.26306">
        <ele>60.1</ele>
        <time>2019-07-11T06:26:44Z</time>
      </trkpt>
      <trkpt lat="48.79701" lon="-3.26315">
        <ele>60.2</ele>
        <time>2019-07-11T06:26:45Z</time>
      </trkpt>
      <trkpt lat="48.79702" lon="-3.26323">
        <ele>60.6</ele>
        <time>2019-07-11T06:26:46Z</time>
      </trkpt>
      <trkpt lat="48.79702" lon="-3.26332">
        <ele>60.5</ele>
        <time>2019-07-11T06:26:47Z</time>
      </trkpt>
      <trkpt lat="48.79704" lon="-3.2634">
        <ele>60.5</ele>
        <time>2019-07-11T06:26:48Z</time>
      </trkpt>
      <trkpt lat="48.79705" lon="-3.26349">
        <ele>60.7</ele>
        <time>2019-07-11T06:26:49Z</time>
      </trkpt>
      <trkpt lat="48.79706" lon="-3.26357">
        <ele>60.8</ele>
        <time>2019-07-11T06:26:50Z</time>
      </trkpt>
      <trkpt lat="48.79707" lon="-3.26366">
        <ele>60.6</ele>
        <time>2019-07-11T06:26:51Z</time>
      </trkpt>
      <trkpt lat="48.79708" lon="-3.26374">
        <ele>60.3</ele>
        <time>2019-07-11T06:26:52Z</time>
      </trkpt>
      <trkpt lat="48.7971" lon="-3.26382">
        <ele>60.1</ele>
        <time>2019-07-11T06:26:53Z</time>
      </trkpt>
      <trkpt lat="48.79711" lon="-3.26391">
        <ele>60.1</ele>
        <time>2019-07-11T06:26:54Z</time>
      </trkpt>
      <trkpt lat="48.79713" lon="-3.26399">
        <ele>60.2</ele>
        <time>2019-07-11T06:26:55Z</time>
      </trkpt>
      <trkpt lat="48.79715" lon="-3.26408">
        <ele>59.9</ele>
        <time>2019-07-11T06:26:56Z</time>
      </trkpt>
      <trkpt lat="48.79716" lon="-3.26416">
        <ele>60</ele>
        <time>2019-07-11T06:26:57Z</time>
      </trkpt>
      <trkpt lat="48.79718" lon="-3.26425">
        <ele>60.4</ele>
        <time>2019-07-11T06:26:58Z</time>
      </trkpt>
      <trkpt lat="48.7972" lon="-3.26433">
        <ele>60.5</ele>
        <time>2019-07-11T06:26:59Z</time>
      </trkpt>
      <trkpt lat="48.79722" lon="-3.26441">
        <ele>60.8</ele>
        <time>2019-07-11T06:27:00Z</time>
      </trkpt>
      <trkpt lat="48.79724" lon="-3.26449">
        <ele>61.4</ele>
        <time>2019-07-11T06:27:01Z</time>
      </trkpt>
      <trkpt lat="48.79726" lon="-3.26457">
        <ele>61.8</ele>
        <time>2019-07-11T06:27:02Z</time>
      </trkpt>
      <trkpt lat="48.79728" lon="-3.26464">
        <ele>61.7</ele>
        <time>2019-07-11T06:27:03Z</time>
      </trkpt>
      <trkpt lat="48.79731" lon="-3.26472">
        <ele>61.7</ele>
        <time>2019-07-11T06:27:04Z</time>
      </trkpt>
      <trkpt lat="48.79733" lon="-3.2648">
        <ele>61.5</ele>
        <time>2019-07-11T06:27:05Z</time>
      </trkpt>
      <trkpt lat="48.79736" lon="-3.26488">
        <ele>61.3</ele>
        <time>2019-07-11T06:27:06Z</time>
      </trkpt>
      <trkpt lat="48.79738" lon="-3.26496">
        <ele>61.3</ele>
        <time>2019-07-11T06:27:07Z</time>
      </trkpt>
      <trkpt lat="48.79741" lon="-3.26503">
        <ele>61.4</ele>
        <time>2019-07-11T06:27:08Z</time>
      </trkpt>
      <trkpt lat="48.79744" lon="-3.26511">
        <ele>61.2</ele>
        <time>2019-07-11T06:27:09Z</time>
      </trkpt>
      <trkpt lat="48.79748" lon="-3.26518">
        <ele>61.1</ele>
        <time>2019-07-11T06:27:10Z</time>
      </trkpt>
      <trkpt lat="48.79751" lon="-3.26526">
        <ele>61.1</ele>
        <time>2019-07-11T06:27:11Z</time>
      </trkpt>
      <trkpt lat="48.79755" lon="-3.26533">
        <ele>60.9</ele>
        <time>2019-07-11T06:27:12Z</time>
      </trkpt>
      <trkpt lat="48.79758" lon="-3.26541">
        <ele>60.7</ele>
        <time>2019-07-11T06:27:13Z</time>
      </trkpt>
      <trkpt lat="48.79762" lon="-3.26548">
        <ele>60.5</ele>
        <time>2019-07-11T06:27:14Z</time>
      </trkpt>
      <trkpt lat="48.79765" lon="-3.26555">
        <ele>59.9</ele>
        <time>2019-07-11T06:27:15Z</time>
      </trkpt>
      <trkpt lat="48.79769" lon="-3.26561">
        <ele>59.5</ele>
        <time>2019-07-11T06:27:16Z</time>
      </trkpt>
      <trkpt lat="48.79773" lon="-3.26569">
        <ele>58.9</ele>
        <time>2019-07-11T06:27:17Z</time>
      </trkpt>
      <trkpt lat="48.79776" lon="-3.26576">
        <ele>58.5</ele>
        <time>2019-07-11T06:27:18Z</time>
      </trkpt>
      <trkpt lat="48.7978" lon="-3.26583">
        <ele>58.3</ele>
        <time>2019-07-11T06:27:19Z</time>
      </trkpt>
      <trkpt lat="48.79783" lon="-3.26589">
        <ele>58.2</ele>
        <time>2019-07-11T06:27:20Z</time>
      </trkpt>
      <trkpt lat="48.79787" lon="-3.26594">
        <ele>58.2</ele>
        <time>2019-07-11T06:27:21Z</time>
      </trkpt>
      <trkpt lat="48.79791" lon="-3.266">
        <ele>57.9</ele>
        <time>2019-07-11T06:27:22Z</time>
      </trkpt>
      <trkpt lat="48.79794" lon="-3.26606">
        <ele>57.8</ele>
        <time>2019-07-11T06:27:23Z</time>
      </trkpt>
      <trkpt lat="48.79798" lon="-3.26611">
        <ele>58</ele>
        <time>2019-07-11T06:27:24Z</time>
      </trkpt>
      <trkpt lat="48.79802" lon="-3.26616">
        <ele>57.7</ele>
        <time>2019-07-11T06:27:25Z</time>
      </trkpt>
      <trkpt lat="48.79806" lon="-3.26621">
        <ele>57.7</ele>
        <time>2019-07-11T06:27:26Z</time>
      </trkpt>
      <trkpt lat="48.79809" lon="-3.26626">
        <ele>57.9</ele>
        <time>2019-07-11T06:27:27Z</time>
      </trkpt>
      <trkpt lat="48.79813" lon="-3.26631">
        <ele>58.1</ele>
        <time>2019-07-11T06:27:28Z</time>
      </trkpt>
      <trkpt lat="48.79817" lon="-3.26636">
        <ele>57.9</ele>
        <time>2019-07-11T06:27:29Z</time>
      </trkpt>
      <trkpt lat="48.79821" lon="-3.26641">
        <ele>57.8</ele>
        <time>2019-07-11T06:27:30Z</time>
      </trkpt>
      <trkpt lat="48.79825" lon="-3.26646">
        <ele>57.8</ele>
        <time>2019-07-11T06:27:31Z</time>
      </trkpt>
      <trkpt lat="48.79829" lon="-3.26652">
        <ele>57.5</ele>
        <time>2019-07-11T06:27:32Z</time>
      </trkpt>
      <trkpt lat="48.79834" lon="-3.26657">
        <ele>57.3</ele>
        <time>2019-07-11T06:27:33Z</time>
      </trkpt>
      <trkpt lat="48.79837" lon="-3.26663">
        <ele>57.1</ele>
        <time>2019-07-11T06:27:34Z</time>
      </trkpt>
      <trkpt lat="48.79841" lon="-3.26668">
        <ele>57.7</ele>
        <time>2019-07-11T06:27:35Z</time>
      </trkpt>
      <trkpt lat="48.79845" lon="-3.26673">
        <ele>58</ele>
        <time>2019-07-11T06:27:36Z</time>
      </trkpt>
      <trkpt lat="48.79849" lon="-3.26678">
        <ele>58.2</ele>
        <time>2019-07-11T06:27:37Z</time>
      </trkpt>
      <trkpt lat="48.79853" lon="-3.26683">
        <ele>58.1</ele>
        <time>2019-07-11T06:27:38Z</time>
      </trkpt>
      <trkpt lat="48.79857" lon="-3.26688">
        <ele>58.1</ele>
        <time>2019-07-11T06:27:39Z</time>
      </trkpt>
      <trkpt lat="48.79861" lon="-3.26693">
        <ele>57.8</ele>
        <time>2019-07-11T06:27:40Z</time>
      </trkpt>
      <trkpt lat="48.79864" lon="-3.26697">
        <ele>57.3</ele>
        <time>2019-07-11T06:27:41Z</time>
      </trkpt>
      <trkpt lat="48.79867" lon="-3.26701">
        <ele>57.3</ele>
        <time>2019-07-11T06:27:42Z</time>
      </trkpt>
      <trkpt lat="48.7987" lon="-3.26705">
        <ele>58</ele>
        <time>2019-07-11T06:27:43Z</time>
      </trkpt>
      <trkpt lat="48.79872" lon="-3.26708">
        <ele>58.2</ele>
        <time>2019-07-11T06:27:44Z</time>
      </trkpt>
      <trkpt lat="48.79874" lon="-3.2671">
        <ele>58.1</ele>
        <time>2019-07-11T06:27:45Z</time>
      </trkpt>
      <trkpt lat="48.79876" lon="-3.26713">
        <ele>58.6</ele>
        <time>2019-07-11T06:27:46Z</time>
      </trkpt>
      <trkpt lat="48.79879" lon="-3.26717">
        <ele>59.2</ele>
        <time>2019-07-11T06:27:47Z</time>
      </trkpt>
      <trkpt lat="48.79882" lon="-3.2672">
        <ele>59.6</ele>
        <time>2019-07-11T06:27:48Z</time>
      </trkpt>
      <trkpt lat="48.79886" lon="-3.26724">
        <ele>59.7</ele>
        <time>2019-07-11T06:27:49Z</time>
      </trkpt>
      <trkpt lat="48.79888" lon="-3.26728">
        <ele>59.9</ele>
        <time>2019-07-11T06:27:50Z</time>
      </trkpt>
      <trkpt lat="48.79891" lon="-3.26731">
        <ele>60.2</ele>
        <time>2019-07-11T06:27:51Z</time>
      </trkpt>
      <trkpt lat="48.79895" lon="-3.26736">
        <ele>60.5</ele>
        <time>2019-07-11T06:27:52Z</time>
      </trkpt>
      <trkpt lat="48.79898" lon="-3.2674">
        <ele>60.6</ele>
        <time>2019-07-11T06:27:53Z</time>
      </trkpt>
      <trkpt lat="48.79902" lon="-3.26744">
        <ele>60.9</ele>
        <time>2019-07-11T06:27:54Z</time>
      </trkpt>
      <trkpt lat="48.79905" lon="-3.26748">
        <ele>61.1</ele>
        <time>2019-07-11T06:27:55Z</time>
      </trkpt>
      <trkpt lat="48.79909" lon="-3.26753">
        <ele>61.2</ele>
        <time>2019-07-11T06:27:56Z</time>
      </trkpt>
      <trkpt lat="48.79913" lon="-3.26758">
        <ele>60.7</ele>
        <time>2019-07-11T06:27:57Z</time>
      </trkpt>
      <trkpt lat="48.79916" lon="-3.26763">
        <ele>60.4</ele>
        <time>2019-07-11T06:27:58Z</time>
      </trkpt>
      <trkpt lat="48.7992" lon="-3.26768">
        <ele>60</ele>
        <time>2019-07-11T06:27:59Z</time>
      </trkpt>
      <trkpt lat="48.79924" lon="-3.26773">
        <ele>59.9</ele>
        <time>2019-07-11T06:28:00Z</time>
      </trkpt>
      <trkpt lat="48.79928" lon="-3.26779">
        <ele>59.5</ele>
        <time>2019-07-11T06:28:01Z</time>
      </trkpt>
      <trkpt lat="48.79932" lon="-3.26784">
        <ele>59.5</ele>
        <time>2019-07-11T06:28:02Z</time>
      </trkpt>
      <trkpt lat="48.79936" lon="-3.26789">
        <ele>59.5</ele>
        <time>2019-07-11T06:28:03Z</time>
      </trkpt>
      <trkpt lat="48.7994" lon="-3.26793">
        <ele>60.1</ele>
        <time>2019-07-11T06:28:04Z</time>
      </trkpt>
      <trkpt lat="48.79945" lon="-3.26799">
        <ele>60.5</ele>
        <time>2019-07-11T06:28:05Z</time>
      </trkpt>
      <trkpt lat="48.79949" lon="-3.26804">
        <ele>60.7</ele>
        <time>2019-07-11T06:28:06Z</time>
      </trkpt>
      <trkpt lat="48.79953" lon="-3.2681">
        <ele>61.2</ele>
        <time>2019-07-11T06:28:07Z</time>
      </trkpt>
      <trkpt lat="48.79957" lon="-3.26814">
        <ele>62.1</ele>
        <time>2019-07-11T06:28:08Z</time>
      </trkpt>
      <trkpt lat="48.79961" lon="-3.2682">
        <ele>62.1</ele>
        <time>2019-07-11T06:28:09Z</time>
      </trkpt>
      <trkpt lat="48.79965" lon="-3.26823">
        <ele>62.3</ele>
        <time>2019-07-11T06:28:10Z</time>
      </trkpt>
      <trkpt lat="48.79969" lon="-3.26828">
        <ele>62.5</ele>
        <time>2019-07-11T06:28:11Z</time>
      </trkpt>
      <trkpt lat="48.79973" lon="-3.26833">
        <ele>62.3</ele>
        <time>2019-07-11T06:28:12Z</time>
      </trkpt>
      <trkpt lat="48.79977" lon="-3.26839">
        <ele>62</ele>
        <time>2019-07-11T06:28:13Z</time>
      </trkpt>
      <trkpt lat="48.79981" lon="-3.26844">
        <ele>61.6</ele>
        <time>2019-07-11T06:28:14Z</time>
      </trkpt>
      <trkpt lat="48.79986" lon="-3.2685">
        <ele>61.6</ele>
        <time>2019-07-11T06:28:15Z</time>
      </trkpt>
      <trkpt lat="48.7999" lon="-3.26855">
        <ele>61.8</ele>
        <time>2019-07-11T06:28:16Z</time>
      </trkpt>
      <trkpt lat="48.79995" lon="-3.26862">
        <ele>61.8</ele>
        <time>2019-07-11T06:28:17Z</time>
      </trkpt>
      <trkpt lat="48.79999" lon="-3.26868">
        <ele>61.8</ele>
        <time>2019-07-11T06:28:18Z</time>
      </trkpt>
      <trkpt lat="48.80003" lon="-3.26874">
        <ele>61.4</ele>
        <time>2019-07-11T06:28:19Z</time>
      </trkpt>
      <trkpt lat="48.80008" lon="-3.2688">
        <ele>61.1</ele>
        <time>2019-07-11T06:28:20Z</time>
      </trkpt>
      <trkpt lat="48.80012" lon="-3.26886">
        <ele>60.5</ele>
        <time>2019-07-11T06:28:21Z</time>
      </trkpt>
      <trkpt lat="48.80016" lon="-3.26891">
        <ele>60.5</ele>
        <time>2019-07-11T06:28:22Z</time>
      </trkpt>
      <trkpt lat="48.8002" lon="-3.26896">
        <ele>60.2</ele>
        <time>2019-07-11T06:28:23Z</time>
      </trkpt>
      <trkpt lat="48.80024" lon="-3.26902">
        <ele>60.3</ele>
        <time>2019-07-11T06:28:24Z</time>
      </trkpt>
      <trkpt lat="48.80028" lon="-3.26907">
        <ele>60.4</ele>
        <time>2019-07-11T06:28:25Z</time>
      </trkpt>
      <trkpt lat="48.80032" lon="-3.26913">
        <ele>60</ele>
        <time>2019-07-11T06:28:26Z</time>
      </trkpt>
      <trkpt lat="48.80035" lon="-3.26918">
        <ele>60</ele>
        <time>2019-07-11T06:28:27Z</time>
      </trkpt>
      <trkpt lat="48.80039" lon="-3.26923">
        <ele>59</ele>
        <time>2019-07-11T06:28:28Z</time>
      </trkpt>
      <trkpt lat="48.80043" lon="-3.26928">
        <ele>58.6</ele>
        <time>2019-07-11T06:28:29Z</time>
      </trkpt>
      <trkpt lat="48.80047" lon="-3.26933">
        <ele>58.5</ele>
        <time>2019-07-11T06:28:30Z</time>
      </trkpt>
      <trkpt lat="48.8005" lon="-3.26938">
        <ele>58</ele>
        <time>2019-07-11T06:28:31Z</time>
      </trkpt>
      <trkpt lat="48.80053" lon="-3.26943">
        <ele>57.9</ele>
        <time>2019-07-11T06:28:32Z</time>
      </trkpt>
      <trkpt lat="48.80057" lon="-3.26947">
        <ele>57.6</ele>
        <time>2019-07-11T06:28:33Z</time>
      </trkpt>
      <trkpt lat="48.8006" lon="-3.26952">
        <ele>57.5</ele>
        <time>2019-07-11T06:28:34Z</time>
      </trkpt>
      <trkpt lat="48.80064" lon="-3.26957">
        <ele>57.4</ele>
        <time>2019-07-11T06:28:35Z</time>
      </trkpt>
      <trkpt lat="48.80067" lon="-3.26962">
        <ele>57.5</ele>
        <time>2019-07-11T06:28:36Z</time>
      </trkpt>
      <trkpt lat="48.80071" lon="-3.26967">
        <ele>57.8</ele>
        <time>2019-07-11T06:28:37Z</time>
      </trkpt>
      <trkpt lat="48.80074" lon="-3.26972">
        <ele>57.6</ele>
        <time>2019-07-11T06:28:38Z</time>
      </trkpt>
      <trkpt lat="48.80077" lon="-3.26978">
        <ele>57.5</ele>
        <time>2019-07-11T06:28:39Z</time>
      </trkpt>
      <trkpt lat="48.80081" lon="-3.26984">
        <ele>57.3</ele>
        <time>2019-07-11T06:28:40Z</time>
      </trkpt>
      <trkpt lat="48.80084" lon="-3.2699">
        <ele>57.1</ele>
        <time>2019-07-11T06:28:41Z</time>
      </trkpt>
      <trkpt lat="48.80087" lon="-3.26995">
        <ele>57.2</ele>
        <time>2019-07-11T06:28:42Z</time>
      </trkpt>
      <trkpt lat="48.8009" lon="-3.27001">
        <ele>57.4</ele>
        <time>2019-07-11T06:28:43Z</time>
      </trkpt>
      <trkpt lat="48.80094" lon="-3.27008">
        <ele>56.4</ele>
        <time>2019-07-11T06:28:44Z</time>
      </trkpt>
      <trkpt lat="48.80097" lon="-3.27014">
        <ele>56.7</ele>
        <time>2019-07-11T06:28:45Z</time>
      </trkpt>
      <trkpt lat="48.801" lon="-3.27019">
        <ele>56.9</ele>
        <time>2019-07-11T06:28:46Z</time>
      </trkpt>
      <trkpt lat="48.80103" lon="-3.27026">
        <ele>56.9</ele>
        <time>2019-07-11T06:28:47Z</time>
      </trkpt>
      <trkpt lat="48.80106" lon="-3.27033">
        <ele>56.8</ele>
        <time>2019-07-11T06:28:48Z</time>
      </trkpt>
      <trkpt lat="48.80108" lon="-3.2704">
        <ele>57</ele>
        <time>2019-07-11T06:28:49Z</time>
      </trkpt>
      <trkpt lat="48.80111" lon="-3.27047">
        <ele>57</ele>
        <time>2019-07-11T06:28:50Z</time>
      </trkpt>
      <trkpt lat="48.80114" lon="-3.27054">
        <ele>57.1</ele>
        <time>2019-07-11T06:28:51Z</time>
      </trkpt>
      <trkpt lat="48.80116" lon="-3.27061">
        <ele>57.1</ele>
        <time>2019-07-11T06:28:52Z</time>
      </trkpt>
      <trkpt lat="48.80117" lon="-3.27068">
        <ele>57.1</ele>
        <time>2019-07-11T06:28:53Z</time>
      </trkpt>
      <trkpt lat="48.80119" lon="-3.27076">
        <ele>57.4</ele>
        <time>2019-07-11T06:28:54Z</time>
      </trkpt>
      <trkpt lat="48.80121" lon="-3.27083">
        <ele>57.6</ele>
        <time>2019-07-11T06:28:55Z</time>
      </trkpt>
      <trkpt lat="48.80123" lon="-3.2709">
        <ele>57.8</ele>
        <time>2019-07-11T06:28:56Z</time>
      </trkpt>
      <trkpt lat="48.80125" lon="-3.27097">
        <ele>58.1</ele>
        <time>2019-07-11T06:28:57Z</time>
      </trkpt>
      <trkpt lat="48.80127" lon="-3.27105">
        <ele>58.6</ele>
        <time>2019-07-11T06:28:58Z</time>
      </trkpt>
      <trkpt lat="48.80129" lon="-3.27113">
        <ele>58.9</ele>
        <time>2019-07-11T06:28:59Z</time>
      </trkpt>
      <trkpt lat="48.80131" lon="-3.2712">
        <ele>59</ele>
        <time>2019-07-11T06:29:00Z</time>
      </trkpt>
      <trkpt lat="48.80133" lon="-3.27128">
        <ele>59.2</ele>
        <time>2019-07-11T06:29:01Z</time>
      </trkpt>
      <trkpt lat="48.80135" lon="-3.27135">
        <ele>59.6</ele>
        <time>2019-07-11T06:29:02Z</time>
      </trkpt>
      <trkpt lat="48.80137" lon="-3.27142">
        <ele>60</ele>
        <time>2019-07-11T06:29:03Z</time>
      </trkpt>
      <trkpt lat="48.80138" lon="-3.27151">
        <ele>60.3</ele>
        <time>2019-07-11T06:29:04Z</time>
      </trkpt>
      <trkpt lat="48.80141" lon="-3.2716">
        <ele>60.4</ele>
        <time>2019-07-11T06:29:05Z</time>
      </trkpt>
      <trkpt lat="48.80143" lon="-3.27167">
        <ele>59.6</ele>
        <time>2019-07-11T06:29:06Z</time>
      </trkpt>
      <trkpt lat="48.80143" lon="-3.27175">
        <ele>59</ele>
        <time>2019-07-11T06:29:07Z</time>
      </trkpt>
      <trkpt lat="48.80145" lon="-3.27184">
        <ele>58.5</ele>
        <time>2019-07-11T06:29:08Z</time>
      </trkpt>
      <trkpt lat="48.80145" lon="-3.27192">
        <ele>58</ele>
        <time>2019-07-11T06:29:09Z</time>
      </trkpt>
      <trkpt lat="48.80146" lon="-3.27201">
        <ele>57.3</ele>
        <time>2019-07-11T06:29:10Z</time>
      </trkpt>
      <trkpt lat="48.80146" lon="-3.2721">
        <ele>57.1</ele>
        <time>2019-07-11T06:29:11Z</time>
      </trkpt>
      <trkpt lat="48.80146" lon="-3.27219">
        <ele>56.9</ele>
        <time>2019-07-11T06:29:12Z</time>
      </trkpt>
      <trkpt lat="48.80147" lon="-3.27234">
        <ele>56</ele>
        <time>2019-07-11T06:29:14Z</time>
      </trkpt>
      <trkpt lat="48.80148" lon="-3.27241">
        <ele>55.6</ele>
        <time>2019-07-11T06:29:15Z</time>
      </trkpt>
      <trkpt lat="48.80148" lon="-3.27247">
        <ele>55.2</ele>
        <time>2019-07-11T06:29:16Z</time>
      </trkpt>
      <trkpt lat="48.80147" lon="-3.27253">
        <ele>55.3</ele>
        <time>2019-07-11T06:29:17Z</time>
      </trkpt>
      <trkpt lat="48.80147" lon="-3.2726">
        <ele>55.4</ele>
        <time>2019-07-11T06:29:18Z</time>
      </trkpt>
      <trkpt lat="48.80148" lon="-3.27267">
        <ele>55.5</ele>
        <time>2019-07-11T06:29:19Z</time>
      </trkpt>
      <trkpt lat="48.80149" lon="-3.27276">
        <ele>53.7</ele>
        <time>2019-07-11T06:29:20Z</time>
      </trkpt>
      <trkpt lat="48.80149" lon="-3.27284">
        <ele>52.6</ele>
        <time>2019-07-11T06:29:21Z</time>
      </trkpt>
      <trkpt lat="48.80149" lon="-3.27292">
        <ele>51.3</ele>
        <time>2019-07-11T06:29:22Z</time>
      </trkpt>
      <trkpt lat="48.80148" lon="-3.27301">
        <ele>49.9</ele>
        <time>2019-07-11T06:29:23Z</time>
      </trkpt>
      <trkpt lat="48.80148" lon="-3.27308">
        <ele>48.8</ele>
        <time>2019-07-11T06:29:24Z</time>
      </trkpt>
      <trkpt lat="48.80147" lon="-3.27316">
        <ele>47.8</ele>
        <time>2019-07-11T06:29:25Z</time>
      </trkpt>
      <trkpt lat="48.80146" lon="-3.27323">
        <ele>47.1</ele>
        <time>2019-07-11T06:29:26Z</time>
      </trkpt>
      <trkpt lat="48.80145" lon="-3.27331">
        <ele>46.8</ele>
        <time>2019-07-11T06:29:27Z</time>
      </trkpt>
      <trkpt lat="48.80144" lon="-3.27338">
        <ele>46.4</ele>
        <time>2019-07-11T06:29:28Z</time>
      </trkpt>
      <trkpt lat="48.80143" lon="-3.27344">
        <ele>46.5</ele>
        <time>2019-07-11T06:29:29Z</time>
      </trkpt>
      <trkpt lat="48.80141" lon="-3.27351">
        <ele>46.3</ele>
        <time>2019-07-11T06:29:30Z</time>
      </trkpt>
      <trkpt lat="48.8014" lon="-3.27358">
        <ele>45.8</ele>
        <time>2019-07-11T06:29:31Z</time>
      </trkpt>
      <trkpt lat="48.80139" lon="-3.27364">
        <ele>45.5</ele>
        <time>2019-07-11T06:29:32Z</time>
      </trkpt>
      <trkpt lat="48.80138" lon="-3.27371">
        <ele>45</ele>
        <time>2019-07-11T06:29:33Z</time>
      </trkpt>
      <trkpt lat="48.80137" lon="-3.27377">
        <ele>44.7</ele>
        <time>2019-07-11T06:29:34Z</time>
      </trkpt>
      <trkpt lat="48.80137" lon="-3.27384">
        <ele>44.3</ele>
        <time>2019-07-11T06:29:35Z</time>
      </trkpt>
      <trkpt lat="48.80136" lon="-3.2739">
        <ele>44.4</ele>
        <time>2019-07-11T06:29:36Z</time>
      </trkpt>
      <trkpt lat="48.80135" lon="-3.27397">
        <ele>43.9</ele>
        <time>2019-07-11T06:29:37Z</time>
      </trkpt>
      <trkpt lat="48.80134" lon="-3.27403">
        <ele>43.4</ele>
        <time>2019-07-11T06:29:38Z</time>
      </trkpt>
      <trkpt lat="48.80133" lon="-3.27409">
        <ele>43.2</ele>
        <time>2019-07-11T06:29:39Z</time>
      </trkpt>
      <trkpt lat="48.80133" lon="-3.27415">
        <ele>43.8</ele>
        <time>2019-07-11T06:29:40Z</time>
      </trkpt>
      <trkpt lat="48.80132" lon="-3.27422">
        <ele>44.2</ele>
        <time>2019-07-11T06:29:41Z</time>
      </trkpt>
      <trkpt lat="48.8013" lon="-3.27429">
        <ele>44.5</ele>
        <time>2019-07-11T06:29:42Z</time>
      </trkpt>
      <trkpt lat="48.80129" lon="-3.27436">
        <ele>44.6</ele>
        <time>2019-07-11T06:29:43Z</time>
      </trkpt>
      <trkpt lat="48.80127" lon="-3.27443">
        <ele>44.4</ele>
        <time>2019-07-11T06:29:44Z</time>
      </trkpt>
      <trkpt lat="48.80126" lon="-3.27449">
        <ele>44.4</ele>
        <time>2019-07-11T06:29:45Z</time>
      </trkpt>
      <trkpt lat="48.80125" lon="-3.27456">
        <ele>45.2</ele>
        <time>2019-07-11T06:29:46Z</time>
      </trkpt>
      <trkpt lat="48.80124" lon="-3.27462">
        <ele>45.6</ele>
        <time>2019-07-11T06:29:47Z</time>
      </trkpt>
      <trkpt lat="48.80122" lon="-3.27469">
        <ele>46.1</ele>
        <time>2019-07-11T06:29:48Z</time>
      </trkpt>
      <trkpt lat="48.80121" lon="-3.27475">
        <ele>46.3</ele>
        <time>2019-07-11T06:29:49Z</time>
      </trkpt>
      <trkpt lat="48.8012" lon="-3.27481">
        <ele>46.6</ele>
        <time>2019-07-11T06:29:50Z</time>
      </trkpt>
      <trkpt lat="48.80118" lon="-3.27487">
        <ele>47.5</ele>
        <time>2019-07-11T06:29:51Z</time>
      </trkpt>
      <trkpt lat="48.80117" lon="-3.27492">
        <ele>47.6</ele>
        <time>2019-07-11T06:29:52Z</time>
      </trkpt>
      <trkpt lat="48.80117" lon="-3.27496">
        <ele>48.1</ele>
        <time>2019-07-11T06:29:53Z</time>
      </trkpt>
      <trkpt lat="48.80116" lon="-3.275">
        <ele>48.6</ele>
        <time>2019-07-11T06:29:54Z</time>
      </trkpt>
      <trkpt lat="48.80116" lon="-3.27504">
        <ele>48.7</ele>
        <time>2019-07-11T06:29:55Z</time>
      </trkpt>
      <trkpt lat="48.80115" lon="-3.27508">
        <ele>49</ele>
        <time>2019-07-11T06:29:56Z</time>
      </trkpt>
      <trkpt lat="48.80114" lon="-3.27512">
        <ele>49.5</ele>
        <time>2019-07-11T06:29:57Z</time>
      </trkpt>
      <trkpt lat="48.80113" lon="-3.27516">
        <ele>49.7</ele>
        <time>2019-07-11T06:29:58Z</time>
      </trkpt>
      <trkpt lat="48.80112" lon="-3.2752">
        <ele>50</ele>
        <time>2019-07-11T06:29:59Z</time>
      </trkpt>
      <trkpt lat="48.80111" lon="-3.27524">
        <ele>50</ele>
        <time>2019-07-11T06:30:00Z</time>
      </trkpt>
      <trkpt lat="48.8011" lon="-3.27528">
        <ele>50.1</ele>
        <time>2019-07-11T06:30:01Z</time>
      </trkpt>
      <trkpt lat="48.80111" lon="-3.27534">
        <ele>49.6</ele>
        <time>2019-07-11T06:30:02Z</time>
      </trkpt>
      <trkpt lat="48.80111" lon="-3.27539">
        <ele>49.6</ele>
        <time>2019-07-11T06:30:03Z</time>
      </trkpt>
      <trkpt lat="48.80111" lon="-3.27544">
        <ele>49.6</ele>
        <time>2019-07-11T06:30:04Z</time>
      </trkpt>
      <trkpt lat="48.80111" lon="-3.27548">
        <ele>49.5</ele>
        <time>2019-07-11T06:30:05Z</time>
      </trkpt>
      <trkpt lat="48.8011" lon="-3.27553">
        <ele>49.6</ele>
        <time>2019-07-11T06:30:06Z</time>
      </trkpt>
      <trkpt lat="48.80109" lon="-3.2756">
        <ele>49</ele>
        <time>2019-07-11T06:30:07Z</time>
      </trkpt>
      <trkpt lat="48.80108" lon="-3.27564">
        <ele>49.5</ele>
        <time>2019-07-11T06:30:08Z</time>
      </trkpt>
      <trkpt lat="48.80106" lon="-3.2757">
        <ele>49.6</ele>
        <time>2019-07-11T06:30:09Z</time>
      </trkpt>
      <trkpt lat="48.80105" lon="-3.27575">
        <ele>49.8</ele>
        <time>2019-07-11T06:30:10Z</time>
      </trkpt>
      <trkpt lat="48.80104" lon="-3.27579">
        <ele>49.9</ele>
        <time>2019-07-11T06:30:11Z</time>
      </trkpt>
      <trkpt lat="48.80102" lon="-3.27585">
        <ele>50.2</ele>
        <time>2019-07-11T06:30:12Z</time>
      </trkpt>
      <trkpt lat="48.801" lon="-3.27589">
        <ele>50.4</ele>
        <time>2019-07-11T06:30:13Z</time>
      </trkpt>
      <trkpt lat="48.80098" lon="-3.27594">
        <ele>50.7</ele>
        <time>2019-07-11T06:30:14Z</time>
      </trkpt>
      <trkpt lat="48.80097" lon="-3.276">
        <ele>50.7</ele>
        <time>2019-07-11T06:30:15Z</time>
      </trkpt>
      <trkpt lat="48.80096" lon="-3.27605">
        <ele>50.7</ele>
        <time>2019-07-11T06:30:16Z</time>
      </trkpt>
      <trkpt lat="48.80095" lon="-3.2761">
        <ele>50.6</ele>
        <time>2019-07-11T06:30:17Z</time>
      </trkpt>
      <trkpt lat="48.80093" lon="-3.27616">
        <ele>50.7</ele>
        <time>2019-07-11T06:30:18Z</time>
      </trkpt>
      <trkpt lat="48.80093" lon="-3.27623">
        <ele>50.5</ele>
        <time>2019-07-11T06:30:19Z</time>
      </trkpt>
      <trkpt lat="48.80092" lon="-3.2763">
        <ele>50.5</ele>
        <time>2019-07-11T06:30:20Z</time>
      </trkpt>
      <trkpt lat="48.80091" lon="-3.27636">
        <ele>50.8</ele>
        <time>2019-07-11T06:30:21Z</time>
      </trkpt>
      <trkpt lat="48.8009" lon="-3.27642">
        <ele>51.1</ele>
        <time>2019-07-11T06:30:22Z</time>
      </trkpt>
      <trkpt lat="48.80089" lon="-3.27648">
        <ele>52.1</ele>
        <time>2019-07-11T06:30:23Z</time>
      </trkpt>
      <trkpt lat="48.80088" lon="-3.27653">
        <ele>53.4</ele>
        <time>2019-07-11T06:30:24Z</time>
      </trkpt>
      <trkpt lat="48.80087" lon="-3.27659">
        <ele>54.8</ele>
        <time>2019-07-11T06:30:25Z</time>
      </trkpt>
      <trkpt lat="48.80085" lon="-3.27665">
        <ele>55.8</ele>
        <time>2019-07-11T06:30:26Z</time>
      </trkpt>
      <trkpt lat="48.80084" lon="-3.27672">
        <ele>56.2</ele>
        <time>2019-07-11T06:30:27Z</time>
      </trkpt>
      <trkpt lat="48.80082" lon="-3.27678">
        <ele>56.6</ele>
        <time>2019-07-11T06:30:28Z</time>
      </trkpt>
      <trkpt lat="48.80081" lon="-3.27684">
        <ele>56.6</ele>
        <time>2019-07-11T06:30:29Z</time>
      </trkpt>
      <trkpt lat="48.8008" lon="-3.27689">
        <ele>56.3</ele>
        <time>2019-07-11T06:30:30Z</time>
      </trkpt>
      <trkpt lat="48.80079" lon="-3.27694">
        <ele>55.9</ele>
        <time>2019-07-11T06:30:31Z</time>
      </trkpt>
      <trkpt lat="48.80078" lon="-3.277">
        <ele>55.6</ele>
        <time>2019-07-11T06:30:32Z</time>
      </trkpt>
      <trkpt lat="48.80077" lon="-3.27705">
        <ele>55.4</ele>
        <time>2019-07-11T06:30:33Z</time>
      </trkpt>
      <trkpt lat="48.80076" lon="-3.27712">
        <ele>55.1</ele>
        <time>2019-07-11T06:30:34Z</time>
      </trkpt>
      <trkpt lat="48.80076" lon="-3.27717">
        <ele>54.8</ele>
        <time>2019-07-11T06:30:35Z</time>
      </trkpt>
      <trkpt lat="48.80074" lon="-3.27723">
        <ele>54.1</ele>
        <time>2019-07-11T06:30:36Z</time>
      </trkpt>
      <trkpt lat="48.80073" lon="-3.27728">
        <ele>54.1</ele>
        <time>2019-07-11T06:30:37Z</time>
      </trkpt>
      <trkpt lat="48.80072" lon="-3.27735">
        <ele>54.2</ele>
        <time>2019-07-11T06:30:38Z</time>
      </trkpt>
      <trkpt lat="48.80072" lon="-3.27742">
        <ele>54.1</ele>
        <time>2019-07-11T06:30:39Z</time>
      </trkpt>
      <trkpt lat="48.80072" lon="-3.2775">
        <ele>53.2</ele>
        <time>2019-07-11T06:30:40Z</time>
      </trkpt>
      <trkpt lat="48.80072" lon="-3.27756">
        <ele>52.6</ele>
        <time>2019-07-11T06:30:41Z</time>
      </trkpt>
      <trkpt lat="48.80071" lon="-3.27763">
        <ele>52.2</ele>
        <time>2019-07-11T06:30:42Z</time>
      </trkpt>
      <trkpt lat="48.80071" lon="-3.27769">
        <ele>52.3</ele>
        <time>2019-07-11T06:30:43Z</time>
      </trkpt>
      <trkpt lat="48.80071" lon="-3.27775">
        <ele>52</ele>
        <time>2019-07-11T06:30:44Z</time>
      </trkpt>
      <trkpt lat="48.8007" lon="-3.2778">
        <ele>51.1</ele>
        <time>2019-07-11T06:30:45Z</time>
      </trkpt>
      <trkpt lat="48.80069" lon="-3.27784">
        <ele>50.8</ele>
        <time>2019-07-11T06:30:46Z</time>
      </trkpt>
      <trkpt lat="48.80069" lon="-3.27791">
        <ele>52</ele>
        <time>2019-07-11T06:30:47Z</time>
      </trkpt>
      <trkpt lat="48.80068" lon="-3.27797">
        <ele>51.9</ele>
        <time>2019-07-11T06:30:48Z</time>
      </trkpt>
      <trkpt lat="48.80067" lon="-3.27802">
        <ele>51.8</ele>
        <time>2019-07-11T06:30:49Z</time>
      </trkpt>
      <trkpt lat="48.80067" lon="-3.27807">
        <ele>51.9</ele>
        <time>2019-07-11T06:30:50Z</time>
      </trkpt>
      <trkpt lat="48.80067" lon="-3.27813">
        <ele>51.9</ele>
        <time>2019-07-11T06:30:51Z</time>
      </trkpt>
      <trkpt lat="48.80066" lon="-3.27819">
        <ele>51.7</ele>
        <time>2019-07-11T06:30:52Z</time>
      </trkpt>
      <trkpt lat="48.80065" lon="-3.27825">
        <ele>51.5</ele>
        <time>2019-07-11T06:30:53Z</time>
      </trkpt>
      <trkpt lat="48.80064" lon="-3.27833">
        <ele>52.3</ele>
        <time>2019-07-11T06:30:54Z</time>
      </trkpt>
      <trkpt lat="48.80064" lon="-3.27841">
        <ele>52.2</ele>
        <time>2019-07-11T06:30:55Z</time>
      </trkpt>
      <trkpt lat="48.80064" lon="-3.27848">
        <ele>52.1</ele>
        <time>2019-07-11T06:30:56Z</time>
      </trkpt>
      <trkpt lat="48.80064" lon="-3.27856">
        <ele>53.1</ele>
        <time>2019-07-11T06:30:57Z</time>
      </trkpt>
      <trkpt lat="48.80065" lon="-3.27862">
        <ele>54.2</ele>
        <time>2019-07-11T06:30:58Z</time>
      </trkpt>
      <trkpt lat="48.80065" lon="-3.27869">
        <ele>54.7</ele>
        <time>2019-07-11T06:30:59Z</time>
      </trkpt>
      <trkpt lat="48.80067" lon="-3.27877">
        <ele>55.4</ele>
        <time>2019-07-11T06:31:00Z</time>
      </trkpt>
      <trkpt lat="48.80067" lon="-3.27885">
        <ele>56.4</ele>
        <time>2019-07-11T06:31:01Z</time>
      </trkpt>
      <trkpt lat="48.80067" lon="-3.27891">
        <ele>57.2</ele>
        <time>2019-07-11T06:31:02Z</time>
      </trkpt>
      <trkpt lat="48.80067" lon="-3.27897">
        <ele>57.8</ele>
        <time>2019-07-11T06:31:03Z</time>
      </trkpt>
      <trkpt lat="48.80067" lon="-3.27903">
        <ele>58</ele>
        <time>2019-07-11T06:31:04Z</time>
      </trkpt>
      <trkpt lat="48.80068" lon="-3.27909">
        <ele>58.1</ele>
        <time>2019-07-11T06:31:05Z</time>
      </trkpt>
      <trkpt lat="48.80068" lon="-3.27913">
        <ele>57.9</ele>
        <time>2019-07-11T06:31:06Z</time>
      </trkpt>
      <trkpt lat="48.80069" lon="-3.27917">
        <ele>57.5</ele>
        <time>2019-07-11T06:31:07Z</time>
      </trkpt>
      <trkpt lat="48.80069" lon="-3.27922">
        <ele>57.9</ele>
        <time>2019-07-11T06:31:08Z</time>
      </trkpt>
      <trkpt lat="48.80069" lon="-3.27925">
        <ele>58.5</ele>
        <time>2019-07-11T06:31:09Z</time>
      </trkpt>
      <trkpt lat="48.80069" lon="-3.27928">
        <ele>58.5</ele>
        <time>2019-07-11T06:31:10Z</time>
      </trkpt>
      <trkpt lat="48.80069" lon="-3.27932">
        <ele>58.5</ele>
        <time>2019-07-11T06:31:11Z</time>
      </trkpt>
      <trkpt lat="48.80068" lon="-3.27937">
        <ele>58.6</ele>
        <time>2019-07-11T06:31:12Z</time>
      </trkpt>
      <trkpt lat="48.80067" lon="-3.27942">
        <ele>58.2</ele>
        <time>2019-07-11T06:31:13Z</time>
      </trkpt>
      <trkpt lat="48.80066" lon="-3.27946">
        <ele>58.9</ele>
        <time>2019-07-11T06:31:14Z</time>
      </trkpt>
      <trkpt lat="48.80066" lon="-3.27952">
        <ele>58.1</ele>
        <time>2019-07-11T06:31:15Z</time>
      </trkpt>
      <trkpt lat="48.80066" lon="-3.27958">
        <ele>59.4</ele>
        <time>2019-07-11T06:31:16Z</time>
      </trkpt>
      <trkpt lat="48.80065" lon="-3.27963">
        <ele>59.3</ele>
        <time>2019-07-11T06:31:17Z</time>
      </trkpt>
      <trkpt lat="48.80065" lon="-3.2797">
        <ele>58.6</ele>
        <time>2019-07-11T06:31:18Z</time>
      </trkpt>
      <trkpt lat="48.80065" lon="-3.27976">
        <ele>57.8</ele>
        <time>2019-07-11T06:31:19Z</time>
      </trkpt>
      <trkpt lat="48.80066" lon="-3.27983">
        <ele>57.2</ele>
        <time>2019-07-11T06:31:20Z</time>
      </trkpt>
      <trkpt lat="48.80066" lon="-3.27989">
        <ele>56.5</ele>
        <time>2019-07-11T06:31:21Z</time>
      </trkpt>
      <trkpt lat="48.80066" lon="-3.27993">
        <ele>56.2</ele>
        <time>2019-07-11T06:31:22Z</time>
      </trkpt>
      <trkpt lat="48.80066" lon="-3.27997">
        <ele>55.8</ele>
        <time>2019-07-11T06:31:23Z</time>
      </trkpt>
      <trkpt lat="48.80066" lon="-3.28001">
        <ele>54.9</ele>
        <time>2019-07-11T06:31:24Z</time>
      </trkpt>
      <trkpt lat="48.80067" lon="-3.28004">
        <ele>54</ele>
        <time>2019-07-11T06:31:25Z</time>
      </trkpt>
      <trkpt lat="48.80067" lon="-3.28008">
        <ele>53.7</ele>
        <time>2019-07-11T06:31:26Z</time>
      </trkpt>
      <trkpt lat="48.80067" lon="-3.28012">
        <ele>53.4</ele>
        <time>2019-07-11T06:31:27Z</time>
      </trkpt>
      <trkpt lat="48.80068" lon="-3.28016">
        <ele>53.5</ele>
        <time>2019-07-11T06:31:28Z</time>
      </trkpt>
      <trkpt lat="48.80069" lon="-3.28021">
        <ele>53.3</ele>
        <time>2019-07-11T06:31:29Z</time>
      </trkpt>
      <trkpt lat="48.80069" lon="-3.28025">
        <ele>53.5</ele>
        <time>2019-07-11T06:31:30Z</time>
      </trkpt>
      <trkpt lat="48.8007" lon="-3.2803">
        <ele>53.4</ele>
        <time>2019-07-11T06:31:31Z</time>
      </trkpt>
      <trkpt lat="48.80071" lon="-3.28036">
        <ele>52.8</ele>
        <time>2019-07-11T06:31:32Z</time>
      </trkpt>
      <trkpt lat="48.80072" lon="-3.28043">
        <ele>51.7</ele>
        <time>2019-07-11T06:31:33Z</time>
      </trkpt>
      <trkpt lat="48.80073" lon="-3.28049">
        <ele>51.6</ele>
        <time>2019-07-11T06:31:34Z</time>
      </trkpt>
      <trkpt lat="48.80074" lon="-3.28056">
        <ele>49.6</ele>
        <time>2019-07-11T06:31:35Z</time>
      </trkpt>
      <trkpt lat="48.80076" lon="-3.28062">
        <ele>48.5</ele>
        <time>2019-07-11T06:31:36Z</time>
      </trkpt>
      <trkpt lat="48.80077" lon="-3.28067">
        <ele>47.7</ele>
        <time>2019-07-11T06:31:37Z</time>
      </trkpt>
      <trkpt lat="48.80079" lon="-3.28073">
        <ele>47</ele>
        <time>2019-07-11T06:31:38Z</time>
      </trkpt>
      <trkpt lat="48.8008" lon="-3.28079">
        <ele>47.2</ele>
        <time>2019-07-11T06:31:39Z</time>
      </trkpt>
      <trkpt lat="48.80081" lon="-3.28084">
        <ele>46.8</ele>
        <time>2019-07-11T06:31:40Z</time>
      </trkpt>
      <trkpt lat="48.80082" lon="-3.28089">
        <ele>45.5</ele>
        <time>2019-07-11T06:31:41Z</time>
      </trkpt>
      <trkpt lat="48.80083" lon="-3.28094">
        <ele>45.4</ele>
        <time>2019-07-11T06:31:42Z</time>
      </trkpt>
      <trkpt lat="48.80084" lon="-3.28098">
        <ele>46.7</ele>
        <time>2019-07-11T06:31:43Z</time>
      </trkpt>
      <trkpt lat="48.80085" lon="-3.28104">
        <ele>48</ele>
        <time>2019-07-11T06:31:44Z</time>
      </trkpt>
      <trkpt lat="48.80086" lon="-3.28109">
        <ele>49.5</ele>
        <time>2019-07-11T06:31:45Z</time>
      </trkpt>
      <trkpt lat="48.80087" lon="-3.28114">
        <ele>51.8</ele>
        <time>2019-07-11T06:31:46Z</time>
      </trkpt>
      <trkpt lat="48.80088" lon="-3.28118">
        <ele>53.3</ele>
        <time>2019-07-11T06:31:47Z</time>
      </trkpt>
      <trkpt lat="48.80088" lon="-3.28122">
        <ele>53.9</ele>
        <time>2019-07-11T06:31:48Z</time>
      </trkpt>
      <trkpt lat="48.80089" lon="-3.28127">
        <ele>53.8</ele>
        <time>2019-07-11T06:31:49Z</time>
      </trkpt>
      <trkpt lat="48.8009" lon="-3.2813">
        <ele>53.5</ele>
        <time>2019-07-11T06:31:50Z</time>
      </trkpt>
      <trkpt lat="48.80091" lon="-3.28134">
        <ele>53.9</ele>
        <time>2019-07-11T06:31:51Z</time>
      </trkpt>
      <trkpt lat="48.80092" lon="-3.28138">
        <ele>54.6</ele>
        <time>2019-07-11T06:31:52Z</time>
      </trkpt>
      <trkpt lat="48.80093" lon="-3.28142">
        <ele>55.6</ele>
        <time>2019-07-11T06:31:53Z</time>
      </trkpt>
      <trkpt lat="48.80093" lon="-3.28146">
        <ele>56.6</ele>
        <time>2019-07-11T06:31:54Z</time>
      </trkpt>
      <trkpt lat="48.80094" lon="-3.2815">
        <ele>57.4</ele>
        <time>2019-07-11T06:31:55Z</time>
      </trkpt>
      <trkpt lat="48.80095" lon="-3.28154">
        <ele>57.9</ele>
        <time>2019-07-11T06:31:56Z</time>
      </trkpt>
      <trkpt lat="48.80096" lon="-3.28158">
        <ele>58.4</ele>
        <time>2019-07-11T06:31:57Z</time>
      </trkpt>
      <trkpt lat="48.80096" lon="-3.28162">
        <ele>58.3</ele>
        <time>2019-07-11T06:31:58Z</time>
      </trkpt>
      <trkpt lat="48.80096" lon="-3.28166">
        <ele>58.1</ele>
        <time>2019-07-11T06:31:59Z</time>
      </trkpt>
      <trkpt lat="48.80097" lon="-3.28171">
        <ele>57.9</ele>
        <time>2019-07-11T06:32:00Z</time>
      </trkpt>
      <trkpt lat="48.80097" lon="-3.28175">
        <ele>58</ele>
        <time>2019-07-11T06:32:01Z</time>
      </trkpt>
      <trkpt lat="48.80098" lon="-3.28179">
        <ele>58.2</ele>
        <time>2019-07-11T06:32:02Z</time>
      </trkpt>
      <trkpt lat="48.80098" lon="-3.28183">
        <ele>58.1</ele>
        <time>2019-07-11T06:32:03Z</time>
      </trkpt>
      <trkpt lat="48.80099" lon="-3.28187">
        <ele>58</ele>
        <time>2019-07-11T06:32:04Z</time>
      </trkpt>
      <trkpt lat="48.80099" lon="-3.28192">
        <ele>57.6</ele>
        <time>2019-07-11T06:32:05Z</time>
      </trkpt>
      <trkpt lat="48.801" lon="-3.28196">
        <ele>57.3</ele>
        <time>2019-07-11T06:32:06Z</time>
      </trkpt>
      <trkpt lat="48.801" lon="-3.282">
        <ele>56.8</ele>
        <time>2019-07-11T06:32:07Z</time>
      </trkpt>
      <trkpt lat="48.80101" lon="-3.28204">
        <ele>56.5</ele>
        <time>2019-07-11T06:32:08Z</time>
      </trkpt>
      <trkpt lat="48.80101" lon="-3.28208">
        <ele>56.3</ele>
        <time>2019-07-11T06:32:09Z</time>
      </trkpt>
      <trkpt lat="48.80102" lon="-3.28213">
        <ele>56.6</ele>
        <time>2019-07-11T06:32:10Z</time>
      </trkpt>
      <trkpt lat="48.80103" lon="-3.28217">
        <ele>56.9</ele>
        <time>2019-07-11T06:32:11Z</time>
      </trkpt>
      <trkpt lat="48.80104" lon="-3.28221">
        <ele>57.5</ele>
        <time>2019-07-11T06:32:12Z</time>
      </trkpt>
      <trkpt lat="48.80104" lon="-3.28225">
        <ele>58.2</ele>
        <time>2019-07-11T06:32:13Z</time>
      </trkpt>
      <trkpt lat="48.80105" lon="-3.2823">
        <ele>58.3</ele>
        <time>2019-07-11T06:32:14Z</time>
      </trkpt>
      <trkpt lat="48.80106" lon="-3.28234">
        <ele>58.5</ele>
        <time>2019-07-11T06:32:15Z</time>
      </trkpt>
      <trkpt lat="48.80106" lon="-3.28238">
        <ele>58.5</ele>
        <time>2019-07-11T06:32:16Z</time>
      </trkpt>
      <trkpt lat="48.80108" lon="-3.28242">
        <ele>58.3</ele>
        <time>2019-07-11T06:32:17Z</time>
      </trkpt>
      <trkpt lat="48.80108" lon="-3.28246">
        <ele>57.9</ele>
        <time>2019-07-11T06:32:18Z</time>
      </trkpt>
      <trkpt lat="48.80109" lon="-3.2825">
        <ele>57.9</ele>
        <time>2019-07-11T06:32:19Z</time>
      </trkpt>
      <trkpt lat="48.80109" lon="-3.28254">
        <ele>58.1</ele>
        <time>2019-07-11T06:32:20Z</time>
      </trkpt>
      <trkpt lat="48.8011" lon="-3.28259">
        <ele>58.4</ele>
        <time>2019-07-11T06:32:21Z</time>
      </trkpt>
      <trkpt lat="48.80111" lon="-3.28263">
        <ele>59</ele>
        <time>2019-07-11T06:32:22Z</time>
      </trkpt>
      <trkpt lat="48.80111" lon="-3.28268">
        <ele>59.3</ele>
        <time>2019-07-11T06:32:23Z</time>
      </trkpt>
      <trkpt lat="48.80111" lon="-3.28272">
        <ele>59.7</ele>
        <time>2019-07-11T06:32:24Z</time>
      </trkpt>
      <trkpt lat="48.80112" lon="-3.28276">
        <ele>59.8</ele>
        <time>2019-07-11T06:32:25Z</time>
      </trkpt>
      <trkpt lat="48.80113" lon="-3.2828">
        <ele>59.3</ele>
        <time>2019-07-11T06:32:26Z</time>
      </trkpt>
      <trkpt lat="48.80113" lon="-3.28284">
        <ele>59.3</ele>
        <time>2019-07-11T06:32:27Z</time>
      </trkpt>
      <trkpt lat="48.80114" lon="-3.28288">
        <ele>59.5</ele>
        <time>2019-07-11T06:32:28Z</time>
      </trkpt>
      <trkpt lat="48.80115" lon="-3.28293">
        <ele>60.2</ele>
        <time>2019-07-11T06:32:29Z</time>
      </trkpt>
      <trkpt lat="48.80116" lon="-3.28296">
        <ele>61.1</ele>
        <time>2019-07-11T06:32:30Z</time>
      </trkpt>
      <trkpt lat="48.80116" lon="-3.28301">
        <ele>61.8</ele>
        <time>2019-07-11T06:32:31Z</time>
      </trkpt>
      <trkpt lat="48.80117" lon="-3.28305">
        <ele>62.4</ele>
        <time>2019-07-11T06:32:32Z</time>
      </trkpt>
      <trkpt lat="48.80117" lon="-3.28308">
        <ele>62.9</ele>
        <time>2019-07-11T06:32:33Z</time>
      </trkpt>
      <trkpt lat="48.80118" lon="-3.28312">
        <ele>62.9</ele>
        <time>2019-07-11T06:32:34Z</time>
      </trkpt>
      <trkpt lat="48.80118" lon="-3.28317">
        <ele>63.2</ele>
        <time>2019-07-11T06:32:35Z</time>
      </trkpt>
      <trkpt lat="48.80119" lon="-3.28321">
        <ele>63.5</ele>
        <time>2019-07-11T06:32:36Z</time>
      </trkpt>
      <trkpt lat="48.80119" lon="-3.28326">
        <ele>63.9</ele>
        <time>2019-07-11T06:32:37Z</time>
      </trkpt>
      <trkpt lat="48.8012" lon="-3.28331">
        <ele>64</ele>
        <time>2019-07-11T06:32:38Z</time>
      </trkpt>
      <trkpt lat="48.80121" lon="-3.28335">
        <ele>64.3</ele>
        <time>2019-07-11T06:32:39Z</time>
      </trkpt>
      <trkpt lat="48.80121" lon="-3.28339">
        <ele>64.4</ele>
        <time>2019-07-11T06:32:40Z</time>
      </trkpt>
      <trkpt lat="48.80122" lon="-3.28343">
        <ele>64.2</ele>
        <time>2019-07-11T06:32:41Z</time>
      </trkpt>
      <trkpt lat="48.80122" lon="-3.28347">
        <ele>64</ele>
        <time>2019-07-11T06:32:42Z</time>
      </trkpt>
      <trkpt lat="48.80123" lon="-3.2835">
        <ele>64</ele>
        <time>2019-07-11T06:32:43Z</time>
      </trkpt>
      <trkpt lat="48.80123" lon="-3.28354">
        <ele>64</ele>
        <time>2019-07-11T06:32:44Z</time>
      </trkpt>
      <trkpt lat="48.80124" lon="-3.28357">
        <ele>63.5</ele>
        <time>2019-07-11T06:32:45Z</time>
      </trkpt>
      <trkpt lat="48.80124" lon="-3.28362">
        <ele>62.9</ele>
        <time>2019-07-11T06:32:46Z</time>
      </trkpt>
      <trkpt lat="48.80124" lon="-3.28365">
        <ele>62.7</ele>
        <time>2019-07-11T06:32:47Z</time>
      </trkpt>
      <trkpt lat="48.80125" lon="-3.2837">
        <ele>62.1</ele>
        <time>2019-07-11T06:32:48Z</time>
      </trkpt>
      <trkpt lat="48.80125" lon="-3.28374">
        <ele>62.5</ele>
        <time>2019-07-11T06:32:49Z</time>
      </trkpt>
      <trkpt lat="48.80126" lon="-3.2838">
        <ele>62.8</ele>
        <time>2019-07-11T06:32:50Z</time>
      </trkpt>
      <trkpt lat="48.80127" lon="-3.28385">
        <ele>62.7</ele>
        <time>2019-07-11T06:32:51Z</time>
      </trkpt>
      <trkpt lat="48.80128" lon="-3.28391">
        <ele>62.6</ele>
        <time>2019-07-11T06:32:52Z</time>
      </trkpt>
      <trkpt lat="48.80129" lon="-3.28396">
        <ele>62.2</ele>
        <time>2019-07-11T06:32:53Z</time>
      </trkpt>
      <trkpt lat="48.8013" lon="-3.28401">
        <ele>61.8</ele>
        <time>2019-07-11T06:32:54Z</time>
      </trkpt>
      <trkpt lat="48.80131" lon="-3.28406">
        <ele>62</ele>
        <time>2019-07-11T06:32:55Z</time>
      </trkpt>
      <trkpt lat="48.80132" lon="-3.28411">
        <ele>61.6</ele>
        <time>2019-07-11T06:32:56Z</time>
      </trkpt>
      <trkpt lat="48.80132" lon="-3.28417">
        <ele>60.6</ele>
        <time>2019-07-11T06:32:57Z</time>
      </trkpt>
      <trkpt lat="48.80133" lon="-3.28422">
        <ele>60</ele>
        <time>2019-07-11T06:32:58Z</time>
      </trkpt>
      <trkpt lat="48.80133" lon="-3.28427">
        <ele>59.5</ele>
        <time>2019-07-11T06:32:59Z</time>
      </trkpt>
      <trkpt lat="48.80134" lon="-3.28433">
        <ele>59.2</ele>
        <time>2019-07-11T06:33:00Z</time>
      </trkpt>
      <trkpt lat="48.80135" lon="-3.28438">
        <ele>59.7</ele>
        <time>2019-07-11T06:33:01Z</time>
      </trkpt>
      <trkpt lat="48.80135" lon="-3.28443">
        <ele>60</ele>
        <time>2019-07-11T06:33:02Z</time>
      </trkpt>
      <trkpt lat="48.80136" lon="-3.28448">
        <ele>60.4</ele>
        <time>2019-07-11T06:33:03Z</time>
      </trkpt>
      <trkpt lat="48.80136" lon="-3.28454">
        <ele>60.1</ele>
        <time>2019-07-11T06:33:04Z</time>
      </trkpt>
      <trkpt lat="48.80137" lon="-3.28459">
        <ele>60</ele>
        <time>2019-07-11T06:33:05Z</time>
      </trkpt>
      <trkpt lat="48.80137" lon="-3.28464">
        <ele>59.8</ele>
        <time>2019-07-11T06:33:06Z</time>
      </trkpt>
      <trkpt lat="48.80137" lon="-3.28469">
        <ele>59.1</ele>
        <time>2019-07-11T06:33:07Z</time>
      </trkpt>
      <trkpt lat="48.80138" lon="-3.28474">
        <ele>58.7</ele>
        <time>2019-07-11T06:33:08Z</time>
      </trkpt>
      <trkpt lat="48.80138" lon="-3.28479">
        <ele>58.4</ele>
        <time>2019-07-11T06:33:09Z</time>
      </trkpt>
      <trkpt lat="48.80138" lon="-3.28484">
        <ele>58.6</ele>
        <time>2019-07-11T06:33:10Z</time>
      </trkpt>
      <trkpt lat="48.80139" lon="-3.28489">
        <ele>59.8</ele>
        <time>2019-07-11T06:33:11Z</time>
      </trkpt>
      <trkpt lat="48.80139" lon="-3.28494">
        <ele>60.9</ele>
        <time>2019-07-11T06:33:12Z</time>
      </trkpt>
      <trkpt lat="48.8014" lon="-3.28499">
        <ele>61.9</ele>
        <time>2019-07-11T06:33:13Z</time>
      </trkpt>
      <trkpt lat="48.8014" lon="-3.28504">
        <ele>62.7</ele>
        <time>2019-07-11T06:33:14Z</time>
      </trkpt>
      <trkpt lat="48.8014" lon="-3.28509">
        <ele>63.7</ele>
        <time>2019-07-11T06:33:15Z</time>
      </trkpt>
      <trkpt lat="48.8014" lon="-3.28514">
        <ele>64.2</ele>
        <time>2019-07-11T06:33:16Z</time>
      </trkpt>
      <trkpt lat="48.80141" lon="-3.28519">
        <ele>64.4</ele>
        <time>2019-07-11T06:33:17Z</time>
      </trkpt>
      <trkpt lat="48.80141" lon="-3.28524">
        <ele>64.6</ele>
        <time>2019-07-11T06:33:18Z</time>
      </trkpt>
      <trkpt lat="48.80142" lon="-3.2853">
        <ele>65</ele>
        <time>2019-07-11T06:33:19Z</time>
      </trkpt>
      <trkpt lat="48.80143" lon="-3.28535">
        <ele>65.4</ele>
        <time>2019-07-11T06:33:20Z</time>
      </trkpt>
      <trkpt lat="48.80143" lon="-3.2854">
        <ele>65.9</ele>
        <time>2019-07-11T06:33:21Z</time>
      </trkpt>
      <trkpt lat="48.80143" lon="-3.28545">
        <ele>65.7</ele>
        <time>2019-07-11T06:33:22Z</time>
      </trkpt>
      <trkpt lat="48.80145" lon="-3.2855">
        <ele>65.1</ele>
        <time>2019-07-11T06:33:23Z</time>
      </trkpt>
      <trkpt lat="48.80145" lon="-3.28554">
        <ele>64.6</ele>
        <time>2019-07-11T06:33:24Z</time>
      </trkpt>
      <trkpt lat="48.80146" lon="-3.28559">
        <ele>64</ele>
        <time>2019-07-11T06:33:25Z</time>
      </trkpt>
      <trkpt lat="48.80146" lon="-3.28563">
        <ele>63.3</ele>
        <time>2019-07-11T06:33:26Z</time>
      </trkpt>
      <trkpt lat="48.80148" lon="-3.28567">
        <ele>62.7</ele>
        <time>2019-07-11T06:33:27Z</time>
      </trkpt>
      <trkpt lat="48.80148" lon="-3.28571">
        <ele>62</ele>
        <time>2019-07-11T06:33:28Z</time>
      </trkpt>
      <trkpt lat="48.8015" lon="-3.28575">
        <ele>60.9</ele>
        <time>2019-07-11T06:33:29Z</time>
      </trkpt>
      <trkpt lat="48.80151" lon="-3.28578">
        <ele>60.3</ele>
        <time>2019-07-11T06:33:30Z</time>
      </trkpt>
      <trkpt lat="48.80152" lon="-3.28582">
        <ele>59.5</ele>
        <time>2019-07-11T06:33:31Z</time>
      </trkpt>
      <trkpt lat="48.80153" lon="-3.28586">
        <ele>59.3</ele>
        <time>2019-07-11T06:33:32Z</time>
      </trkpt>
      <trkpt lat="48.80153" lon="-3.28591">
        <ele>58.9</ele>
        <time>2019-07-11T06:33:33Z</time>
      </trkpt>
      <trkpt lat="48.80153" lon="-3.28595">
        <ele>58.6</ele>
        <time>2019-07-11T06:33:34Z</time>
      </trkpt>
      <trkpt lat="48.80153" lon="-3.286">
        <ele>58.7</ele>
        <time>2019-07-11T06:33:35Z</time>
      </trkpt>
      <trkpt lat="48.80154" lon="-3.28604">
        <ele>58.9</ele>
        <time>2019-07-11T06:33:36Z</time>
      </trkpt>
      <trkpt lat="48.80154" lon="-3.28609">
        <ele>59</ele>
        <time>2019-07-11T06:33:37Z</time>
      </trkpt>
      <trkpt lat="48.80154" lon="-3.28613">
        <ele>58.6</ele>
        <time>2019-07-11T06:33:38Z</time>
      </trkpt>
      <trkpt lat="48.80154" lon="-3.28618">
        <ele>58.6</ele>
        <time>2019-07-11T06:33:39Z</time>
      </trkpt>
      <trkpt lat="48.80154" lon="-3.28623">
        <ele>58.8</ele>
        <time>2019-07-11T06:33:40Z</time>
      </trkpt>
      <trkpt lat="48.80154" lon="-3.28627">
        <ele>59.7</ele>
        <time>2019-07-11T06:33:41Z</time>
      </trkpt>
      <trkpt lat="48.80154" lon="-3.28632">
        <ele>60.7</ele>
        <time>2019-07-11T06:33:42Z</time>
      </trkpt>
      <trkpt lat="48.80155" lon="-3.28636">
        <ele>62.1</ele>
        <time>2019-07-11T06:33:43Z</time>
      </trkpt>
      <trkpt lat="48.80155" lon="-3.28641">
        <ele>63.3</ele>
        <time>2019-07-11T06:33:44Z</time>
      </trkpt>
      <trkpt lat="48.80156" lon="-3.28645">
        <ele>63.7</ele>
        <time>2019-07-11T06:33:45Z</time>
      </trkpt>
      <trkpt lat="48.80156" lon="-3.2865">
        <ele>64</ele>
        <time>2019-07-11T06:33:46Z</time>
      </trkpt>
      <trkpt lat="48.80157" lon="-3.28654">
        <ele>64</ele>
        <time>2019-07-11T06:33:47Z</time>
      </trkpt>
      <trkpt lat="48.80158" lon="-3.28659">
        <ele>64.2</ele>
        <time>2019-07-11T06:33:48Z</time>
      </trkpt>
      <trkpt lat="48.80158" lon="-3.28663">
        <ele>64.9</ele>
        <time>2019-07-11T06:33:49Z</time>
      </trkpt>
      <trkpt lat="48.80159" lon="-3.28668">
        <ele>65.8</ele>
        <time>2019-07-11T06:33:50Z</time>
      </trkpt>
      <trkpt lat="48.80159" lon="-3.28672">
        <ele>66.6</ele>
        <time>2019-07-11T06:33:51Z</time>
      </trkpt>
      <trkpt lat="48.80159" lon="-3.28676">
        <ele>66.8</ele>
        <time>2019-07-11T06:33:52Z</time>
      </trkpt>
      <trkpt lat="48.8016" lon="-3.28681">
        <ele>66.8</ele>
        <time>2019-07-11T06:33:53Z</time>
      </trkpt>
      <trkpt lat="48.8016" lon="-3.28685">
        <ele>67</ele>
        <time>2019-07-11T06:33:54Z</time>
      </trkpt>
      <trkpt lat="48.80161" lon="-3.28689">
        <ele>67.9</ele>
        <time>2019-07-11T06:33:55Z</time>
      </trkpt>
      <trkpt lat="48.80161" lon="-3.28694">
        <ele>68.3</ele>
        <time>2019-07-11T06:33:56Z</time>
      </trkpt>
      <trkpt lat="48.80161" lon="-3.28698">
        <ele>68.5</ele>
        <time>2019-07-11T06:33:57Z</time>
      </trkpt>
      <trkpt lat="48.80161" lon="-3.28703">
        <ele>69</ele>
        <time>2019-07-11T06:33:58Z</time>
      </trkpt>
      <trkpt lat="48.80162" lon="-3.28707">
        <ele>68.8</ele>
        <time>2019-07-11T06:33:59Z</time>
      </trkpt>
      <trkpt lat="48.80162" lon="-3.28712">
        <ele>68.3</ele>
        <time>2019-07-11T06:34:00Z</time>
      </trkpt>
      <trkpt lat="48.80163" lon="-3.28716">
        <ele>69</ele>
        <time>2019-07-11T06:34:01Z</time>
      </trkpt>
      <trkpt lat="48.80163" lon="-3.28721">
        <ele>69.3</ele>
        <time>2019-07-11T06:34:02Z</time>
      </trkpt>
      <trkpt lat="48.80163" lon="-3.28725">
        <ele>69.7</ele>
        <time>2019-07-11T06:34:03Z</time>
      </trkpt>
      <trkpt lat="48.80164" lon="-3.2873">
        <ele>69.6</ele>
        <time>2019-07-11T06:34:04Z</time>
      </trkpt>
      <trkpt lat="48.80164" lon="-3.28734">
        <ele>70</ele>
        <time>2019-07-11T06:34:05Z</time>
      </trkpt>
      <trkpt lat="48.80165" lon="-3.28739">
        <ele>70.1</ele>
        <time>2019-07-11T06:34:06Z</time>
      </trkpt>
      <trkpt lat="48.80165" lon="-3.28744">
        <ele>71</ele>
        <time>2019-07-11T06:34:07Z</time>
      </trkpt>
      <trkpt lat="48.80166" lon="-3.28748">
        <ele>71.1</ele>
        <time>2019-07-11T06:34:08Z</time>
      </trkpt>
      <trkpt lat="48.80166" lon="-3.28753">
        <ele>71.9</ele>
        <time>2019-07-11T06:34:09Z</time>
      </trkpt>
      <trkpt lat="48.80167" lon="-3.28757">
        <ele>71.9</ele>
        <time>2019-07-11T06:34:10Z</time>
      </trkpt>
      <trkpt lat="48.80167" lon="-3.28762">
        <ele>72.2</ele>
        <time>2019-07-11T06:34:11Z</time>
      </trkpt>
      <trkpt lat="48.80167" lon="-3.28766">
        <ele>72.6</ele>
        <time>2019-07-11T06:34:12Z</time>
      </trkpt>
      <trkpt lat="48.80167" lon="-3.28771">
        <ele>72.9</ele>
        <time>2019-07-11T06:34:13Z</time>
      </trkpt>
      <trkpt lat="48.80168" lon="-3.28775">
        <ele>74.2</ele>
        <time>2019-07-11T06:34:14Z</time>
      </trkpt>
      <trkpt lat="48.80169" lon="-3.28779">
        <ele>73.9</ele>
        <time>2019-07-11T06:34:15Z</time>
      </trkpt>
      <trkpt lat="48.80169" lon="-3.28784">
        <ele>73.8</ele>
        <time>2019-07-11T06:34:16Z</time>
      </trkpt>
      <trkpt lat="48.8017" lon="-3.28789">
        <ele>74.2</ele>
        <time>2019-07-11T06:34:17Z</time>
      </trkpt>
      <trkpt lat="48.8017" lon="-3.28793">
        <ele>74.1</ele>
        <time>2019-07-11T06:34:18Z</time>
      </trkpt>
      <trkpt lat="48.80171" lon="-3.28798">
        <ele>74.3</ele>
        <time>2019-07-11T06:34:19Z</time>
      </trkpt>
      <trkpt lat="48.80172" lon="-3.28802">
        <ele>74.8</ele>
        <time>2019-07-11T06:34:20Z</time>
      </trkpt>
      <trkpt lat="48.80172" lon="-3.28807">
        <ele>74.7</ele>
        <time>2019-07-11T06:34:21Z</time>
      </trkpt>
      <trkpt lat="48.80173" lon="-3.28812">
        <ele>75</ele>
        <time>2019-07-11T06:34:22Z</time>
      </trkpt>
      <trkpt lat="48.80173" lon="-3.28816">
        <ele>75.6</ele>
        <time>2019-07-11T06:34:23Z</time>
      </trkpt>
      <trkpt lat="48.80174" lon="-3.2882">
        <ele>76.4</ele>
        <time>2019-07-11T06:34:24Z</time>
      </trkpt>
      <trkpt lat="48.80174" lon="-3.28825">
        <ele>76.9</ele>
        <time>2019-07-11T06:34:25Z</time>
      </trkpt>
      <trkpt lat="48.80175" lon="-3.2883">
        <ele>76.9</ele>
        <time>2019-07-11T06:34:26Z</time>
      </trkpt>
      <trkpt lat="48.80175" lon="-3.28835">
        <ele>76.8</ele>
        <time>2019-07-11T06:34:27Z</time>
      </trkpt>
      <trkpt lat="48.80175" lon="-3.2884">
        <ele>76.4</ele>
        <time>2019-07-11T06:34:28Z</time>
      </trkpt>
      <trkpt lat="48.80176" lon="-3.28845">
        <ele>76.4</ele>
        <time>2019-07-11T06:34:29Z</time>
      </trkpt>
      <trkpt lat="48.80176" lon="-3.2885">
        <ele>76.1</ele>
        <time>2019-07-11T06:34:30Z</time>
      </trkpt>
      <trkpt lat="48.80176" lon="-3.28855">
        <ele>75.8</ele>
        <time>2019-07-11T06:34:31Z</time>
      </trkpt>
      <trkpt lat="48.80176" lon="-3.28861">
        <ele>75.6</ele>
        <time>2019-07-11T06:34:32Z</time>
      </trkpt>
      <trkpt lat="48.80177" lon="-3.28866">
        <ele>75.6</ele>
        <time>2019-07-11T06:34:33Z</time>
      </trkpt>
      <trkpt lat="48.80177" lon="-3.2887">
        <ele>75.5</ele>
        <time>2019-07-11T06:34:34Z</time>
      </trkpt>
      <trkpt lat="48.80177" lon="-3.28875">
        <ele>75.4</ele>
        <time>2019-07-11T06:34:35Z</time>
      </trkpt>
      <trkpt lat="48.80177" lon="-3.2888">
        <ele>74.4</ele>
        <time>2019-07-11T06:34:36Z</time>
      </trkpt>
      <trkpt lat="48.80178" lon="-3.28884">
        <ele>73.3</ele>
        <time>2019-07-11T06:34:37Z</time>
      </trkpt>
      <trkpt lat="48.80178" lon="-3.28889">
        <ele>72.5</ele>
        <time>2019-07-11T06:34:38Z</time>
      </trkpt>
      <trkpt lat="48.80178" lon="-3.28892">
        <ele>72.2</ele>
        <time>2019-07-11T06:34:39Z</time>
      </trkpt>
      <trkpt lat="48.80178" lon="-3.28894">
        <ele>72</ele>
        <time>2019-07-11T06:34:40Z</time>
      </trkpt>
      <trkpt lat="48.80179" lon="-3.28897">
        <ele>72.2</ele>
        <time>2019-07-11T06:34:41Z</time>
      </trkpt>
      <trkpt lat="48.80179" lon="-3.28901">
        <ele>72</ele>
        <time>2019-07-11T06:34:42Z</time>
      </trkpt>
      <trkpt lat="48.80179" lon="-3.28905">
        <ele>71.5</ele>
        <time>2019-07-11T06:34:43Z</time>
      </trkpt>
      <trkpt lat="48.80179" lon="-3.28909">
        <ele>71.6</ele>
        <time>2019-07-11T06:34:44Z</time>
      </trkpt>
      <trkpt lat="48.80179" lon="-3.28914">
        <ele>71.4</ele>
        <time>2019-07-11T06:34:45Z</time>
      </trkpt>
      <trkpt lat="48.8018" lon="-3.28918">
        <ele>71.6</ele>
        <time>2019-07-11T06:34:46Z</time>
      </trkpt>
      <trkpt lat="48.8018" lon="-3.28922">
        <ele>71.8</ele>
        <time>2019-07-11T06:34:47Z</time>
      </trkpt>
      <trkpt lat="48.80181" lon="-3.28925">
        <ele>72.5</ele>
        <time>2019-07-11T06:34:48Z</time>
      </trkpt>
      <trkpt lat="48.80182" lon="-3.28929">
        <ele>72.6</ele>
        <time>2019-07-11T06:34:49Z</time>
      </trkpt>
      <trkpt lat="48.80182" lon="-3.28934">
        <ele>72.7</ele>
        <time>2019-07-11T06:34:50Z</time>
      </trkpt>
      <trkpt lat="48.80183" lon="-3.28938">
        <ele>72.9</ele>
        <time>2019-07-11T06:34:51Z</time>
      </trkpt>
      <trkpt lat="48.80184" lon="-3.28942">
        <ele>73.1</ele>
        <time>2019-07-11T06:34:52Z</time>
      </trkpt>
      <trkpt lat="48.80184" lon="-3.28947">
        <ele>72.6</ele>
        <time>2019-07-11T06:34:53Z</time>
      </trkpt>
      <trkpt lat="48.80185" lon="-3.28952">
        <ele>71.8</ele>
        <time>2019-07-11T06:34:54Z</time>
      </trkpt>
      <trkpt lat="48.80185" lon="-3.28956">
        <ele>71.3</ele>
        <time>2019-07-11T06:34:55Z</time>
      </trkpt>
      <trkpt lat="48.80186" lon="-3.28961">
        <ele>70.4</ele>
        <time>2019-07-11T06:34:56Z</time>
      </trkpt>
      <trkpt lat="48.80187" lon="-3.28966">
        <ele>69.3</ele>
        <time>2019-07-11T06:34:57Z</time>
      </trkpt>
      <trkpt lat="48.80187" lon="-3.2897">
        <ele>69.3</ele>
        <time>2019-07-11T06:34:58Z</time>
      </trkpt>
      <trkpt lat="48.80188" lon="-3.28974">
        <ele>69.6</ele>
        <time>2019-07-11T06:34:59Z</time>
      </trkpt>
      <trkpt lat="48.8019" lon="-3.28978">
        <ele>70.4</ele>
        <time>2019-07-11T06:35:00Z</time>
      </trkpt>
      <trkpt lat="48.8019" lon="-3.28983">
        <ele>70.7</ele>
        <time>2019-07-11T06:35:01Z</time>
      </trkpt>
      <trkpt lat="48.80191" lon="-3.28988">
        <ele>70.4</ele>
        <time>2019-07-11T06:35:02Z</time>
      </trkpt>
      <trkpt lat="48.80192" lon="-3.28993">
        <ele>69.5</ele>
        <time>2019-07-11T06:35:03Z</time>
      </trkpt>
      <trkpt lat="48.80193" lon="-3.28998">
        <ele>69.4</ele>
        <time>2019-07-11T06:35:04Z</time>
      </trkpt>
      <trkpt lat="48.80194" lon="-3.29002">
        <ele>69.3</ele>
        <time>2019-07-11T06:35:05Z</time>
      </trkpt>
      <trkpt lat="48.80195" lon="-3.29006">
        <ele>69.5</ele>
        <time>2019-07-11T06:35:06Z</time>
      </trkpt>
      <trkpt lat="48.80196" lon="-3.2901">
        <ele>69.6</ele>
        <time>2019-07-11T06:35:07Z</time>
      </trkpt>
      <trkpt lat="48.80197" lon="-3.29014">
        <ele>69.7</ele>
        <time>2019-07-11T06:35:08Z</time>
      </trkpt>
      <trkpt lat="48.80199" lon="-3.29018">
        <ele>69.5</ele>
        <time>2019-07-11T06:35:09Z</time>
      </trkpt>
      <trkpt lat="48.802" lon="-3.29023">
        <ele>69.7</ele>
        <time>2019-07-11T06:35:10Z</time>
      </trkpt>
      <trkpt lat="48.80201" lon="-3.29027">
        <ele>69.6</ele>
        <time>2019-07-11T06:35:11Z</time>
      </trkpt>
      <trkpt lat="48.80202" lon="-3.29031">
        <ele>70</ele>
        <time>2019-07-11T06:35:12Z</time>
      </trkpt>
      <trkpt lat="48.80203" lon="-3.29035">
        <ele>70.5</ele>
        <time>2019-07-11T06:35:13Z</time>
      </trkpt>
      <trkpt lat="48.80204" lon="-3.29039">
        <ele>71.1</ele>
        <time>2019-07-11T06:35:14Z</time>
      </trkpt>
      <trkpt lat="48.80206" lon="-3.29044">
        <ele>71.1</ele>
        <time>2019-07-11T06:35:15Z</time>
      </trkpt>
      <trkpt lat="48.80207" lon="-3.29048">
        <ele>70.9</ele>
        <time>2019-07-11T06:35:16Z</time>
      </trkpt>
      <trkpt lat="48.80209" lon="-3.29052">
        <ele>70.9</ele>
        <time>2019-07-11T06:35:17Z</time>
      </trkpt>
      <trkpt lat="48.80211" lon="-3.29057">
        <ele>70.8</ele>
        <time>2019-07-11T06:35:18Z</time>
      </trkpt>
      <trkpt lat="48.80212" lon="-3.29061">
        <ele>71</ele>
        <time>2019-07-11T06:35:19Z</time>
      </trkpt>
      <trkpt lat="48.80214" lon="-3.29066">
        <ele>71.4</ele>
        <time>2019-07-11T06:35:20Z</time>
      </trkpt>
      <trkpt lat="48.80215" lon="-3.2907">
        <ele>70.9</ele>
        <time>2019-07-11T06:35:21Z</time>
      </trkpt>
      <trkpt lat="48.80217" lon="-3.29074">
        <ele>71.1</ele>
        <time>2019-07-11T06:35:22Z</time>
      </trkpt>
      <trkpt lat="48.80218" lon="-3.29078">
        <ele>71.3</ele>
        <time>2019-07-11T06:35:23Z</time>
      </trkpt>
      <trkpt lat="48.80219" lon="-3.29082">
        <ele>71.1</ele>
        <time>2019-07-11T06:35:24Z</time>
      </trkpt>
      <trkpt lat="48.80221" lon="-3.29087">
        <ele>70.5</ele>
        <time>2019-07-11T06:35:25Z</time>
      </trkpt>
      <trkpt lat="48.80222" lon="-3.29091">
        <ele>69.8</ele>
        <time>2019-07-11T06:35:26Z</time>
      </trkpt>
      <trkpt lat="48.80224" lon="-3.29096">
        <ele>69.9</ele>
        <time>2019-07-11T06:35:27Z</time>
      </trkpt>
      <trkpt lat="48.80225" lon="-3.291">
        <ele>70</ele>
        <time>2019-07-11T06:35:28Z</time>
      </trkpt>
      <trkpt lat="48.80227" lon="-3.29105">
        <ele>69.8</ele>
        <time>2019-07-11T06:35:29Z</time>
      </trkpt>
      <trkpt lat="48.80228" lon="-3.29109">
        <ele>69.8</ele>
        <time>2019-07-11T06:35:30Z</time>
      </trkpt>
      <trkpt lat="48.8023" lon="-3.29113">
        <ele>69.7</ele>
        <time>2019-07-11T06:35:31Z</time>
      </trkpt>
      <trkpt lat="48.80232" lon="-3.29117">
        <ele>70</ele>
        <time>2019-07-11T06:35:32Z</time>
      </trkpt>
      <trkpt lat="48.80233" lon="-3.29121">
        <ele>69.6</ele>
        <time>2019-07-11T06:35:33Z</time>
      </trkpt>
      <trkpt lat="48.80235" lon="-3.29125">
        <ele>69.4</ele>
        <time>2019-07-11T06:35:34Z</time>
      </trkpt>
      <trkpt lat="48.80237" lon="-3.29129">
        <ele>69.3</ele>
        <time>2019-07-11T06:35:35Z</time>
      </trkpt>
      <trkpt lat="48.80238" lon="-3.29134">
        <ele>69.6</ele>
        <time>2019-07-11T06:35:36Z</time>
      </trkpt>
      <trkpt lat="48.8024" lon="-3.29138">
        <ele>69.6</ele>
        <time>2019-07-11T06:35:37Z</time>
      </trkpt>
      <trkpt lat="48.80241" lon="-3.29142">
        <ele>70.3</ele>
        <time>2019-07-11T06:35:38Z</time>
      </trkpt>
      <trkpt lat="48.80243" lon="-3.29146">
        <ele>70.5</ele>
        <time>2019-07-11T06:35:39Z</time>
      </trkpt>
      <trkpt lat="48.80245" lon="-3.2915">
        <ele>70.9</ele>
        <time>2019-07-11T06:35:40Z</time>
      </trkpt>
      <trkpt lat="48.80247" lon="-3.29155">
        <ele>70.7</ele>
        <time>2019-07-11T06:35:41Z</time>
      </trkpt>
      <trkpt lat="48.80249" lon="-3.29158">
        <ele>70.8</ele>
        <time>2019-07-11T06:35:42Z</time>
      </trkpt>
      <trkpt lat="48.8025" lon="-3.29162">
        <ele>70.8</ele>
        <time>2019-07-11T06:35:43Z</time>
      </trkpt>
      <trkpt lat="48.80252" lon="-3.29166">
        <ele>71.1</ele>
        <time>2019-07-11T06:35:44Z</time>
      </trkpt>
      <trkpt lat="48.80254" lon="-3.29171">
        <ele>71.6</ele>
        <time>2019-07-11T06:35:45Z</time>
      </trkpt>
      <trkpt lat="48.80256" lon="-3.29175">
        <ele>72.1</ele>
        <time>2019-07-11T06:35:46Z</time>
      </trkpt>
      <trkpt lat="48.80258" lon="-3.29179">
        <ele>72.8</ele>
        <time>2019-07-11T06:35:47Z</time>
      </trkpt>
      <trkpt lat="48.8026" lon="-3.29183">
        <ele>73.3</ele>
        <time>2019-07-11T06:35:48Z</time>
      </trkpt>
      <trkpt lat="48.80262" lon="-3.29187">
        <ele>74</ele>
        <time>2019-07-11T06:35:49Z</time>
      </trkpt>
      <trkpt lat="48.80264" lon="-3.2919">
        <ele>74.1</ele>
        <time>2019-07-11T06:35:50Z</time>
      </trkpt>
      <trkpt lat="48.80266" lon="-3.29193">
        <ele>74</ele>
        <time>2019-07-11T06:35:51Z</time>
      </trkpt>
      <trkpt lat="48.80268" lon="-3.29196">
        <ele>74.2</ele>
        <time>2019-07-11T06:35:52Z</time>
      </trkpt>
      <trkpt lat="48.8027" lon="-3.29199">
        <ele>74.8</ele>
        <time>2019-07-11T06:35:53Z</time>
      </trkpt>
      <trkpt lat="48.80271" lon="-3.29203">
        <ele>75.5</ele>
        <time>2019-07-11T06:35:54Z</time>
      </trkpt>
      <trkpt lat="48.80273" lon="-3.29206">
        <ele>76.5</ele>
        <time>2019-07-11T06:35:55Z</time>
      </trkpt>
      <trkpt lat="48.80274" lon="-3.29209">
        <ele>77.7</ele>
        <time>2019-07-11T06:35:56Z</time>
      </trkpt>
      <trkpt lat="48.80276" lon="-3.29213">
        <ele>77.3</ele>
        <time>2019-07-11T06:35:57Z</time>
      </trkpt>
      <trkpt lat="48.80278" lon="-3.29217">
        <ele>77.1</ele>
        <time>2019-07-11T06:35:58Z</time>
      </trkpt>
      <trkpt lat="48.8028" lon="-3.29221">
        <ele>77.3</ele>
        <time>2019-07-11T06:35:59Z</time>
      </trkpt>
      <trkpt lat="48.80282" lon="-3.29225">
        <ele>77.5</ele>
        <time>2019-07-11T06:36:00Z</time>
      </trkpt>
      <trkpt lat="48.80284" lon="-3.2923">
        <ele>77.9</ele>
        <time>2019-07-11T06:36:01Z</time>
      </trkpt>
      <trkpt lat="48.80286" lon="-3.29234">
        <ele>77.5</ele>
        <time>2019-07-11T06:36:02Z</time>
      </trkpt>
      <trkpt lat="48.80288" lon="-3.29238">
        <ele>76.9</ele>
        <time>2019-07-11T06:36:03Z</time>
      </trkpt>
      <trkpt lat="48.8029" lon="-3.29241">
        <ele>76.8</ele>
        <time>2019-07-11T06:36:04Z</time>
      </trkpt>
      <trkpt lat="48.80291" lon="-3.29244">
        <ele>76.8</ele>
        <time>2019-07-11T06:36:05Z</time>
      </trkpt>
      <trkpt lat="48.80293" lon="-3.29249">
        <ele>76.7</ele>
        <time>2019-07-11T06:36:06Z</time>
      </trkpt>
      <trkpt lat="48.80294" lon="-3.29252">
        <ele>76.9</ele>
        <time>2019-07-11T06:36:07Z</time>
      </trkpt>
      <trkpt lat="48.80297" lon="-3.29257">
        <ele>76.4</ele>
        <time>2019-07-11T06:36:08Z</time>
      </trkpt>
      <trkpt lat="48.80299" lon="-3.29261">
        <ele>76.6</ele>
        <time>2019-07-11T06:36:09Z</time>
      </trkpt>
      <trkpt lat="48.80301" lon="-3.29266">
        <ele>75.9</ele>
        <time>2019-07-11T06:36:10Z</time>
      </trkpt>
      <trkpt lat="48.80304" lon="-3.29271">
        <ele>75.2</ele>
        <time>2019-07-11T06:36:11Z</time>
      </trkpt>
      <trkpt lat="48.80306" lon="-3.29276">
        <ele>75.1</ele>
        <time>2019-07-11T06:36:12Z</time>
      </trkpt>
      <trkpt lat="48.80308" lon="-3.2928">
        <ele>75.5</ele>
        <time>2019-07-11T06:36:13Z</time>
      </trkpt>
      <trkpt lat="48.8031" lon="-3.29284">
        <ele>75.2</ele>
        <time>2019-07-11T06:36:14Z</time>
      </trkpt>
      <trkpt lat="48.80312" lon="-3.29288">
        <ele>75.7</ele>
        <time>2019-07-11T06:36:15Z</time>
      </trkpt>
      <trkpt lat="48.80314" lon="-3.29291">
        <ele>76</ele>
        <time>2019-07-11T06:36:16Z</time>
      </trkpt>
      <trkpt lat="48.80317" lon="-3.29295">
        <ele>75.9</ele>
        <time>2019-07-11T06:36:17Z</time>
      </trkpt>
      <trkpt lat="48.80319" lon="-3.29299">
        <ele>75.9</ele>
        <time>2019-07-11T06:36:18Z</time>
      </trkpt>
      <trkpt lat="48.80322" lon="-3.29304">
        <ele>75.2</ele>
        <time>2019-07-11T06:36:19Z</time>
      </trkpt>
      <trkpt lat="48.80324" lon="-3.29309">
        <ele>74.8</ele>
        <time>2019-07-11T06:36:20Z</time>
      </trkpt>
      <trkpt lat="48.80325" lon="-3.29313">
        <ele>74.2</ele>
        <time>2019-07-11T06:36:21Z</time>
      </trkpt>
      <trkpt lat="48.80328" lon="-3.29318">
        <ele>73.9</ele>
        <time>2019-07-11T06:36:22Z</time>
      </trkpt>
      <trkpt lat="48.8033" lon="-3.29322">
        <ele>73.8</ele>
        <time>2019-07-11T06:36:23Z</time>
      </trkpt>
      <trkpt lat="48.80331" lon="-3.29326">
        <ele>73.5</ele>
        <time>2019-07-11T06:36:24Z</time>
      </trkpt>
      <trkpt lat="48.80333" lon="-3.29331">
        <ele>73</ele>
        <time>2019-07-11T06:36:25Z</time>
      </trkpt>
      <trkpt lat="48.80336" lon="-3.29336">
        <ele>72.4</ele>
        <time>2019-07-11T06:36:26Z</time>
      </trkpt>
      <trkpt lat="48.80338" lon="-3.2934">
        <ele>72.1</ele>
        <time>2019-07-11T06:36:27Z</time>
      </trkpt>
      <trkpt lat="48.8034" lon="-3.29344">
        <ele>72.1</ele>
        <time>2019-07-11T06:36:28Z</time>
      </trkpt>
      <trkpt lat="48.80342" lon="-3.29348">
        <ele>72.4</ele>
        <time>2019-07-11T06:36:29Z</time>
      </trkpt>
      <trkpt lat="48.80344" lon="-3.29352">
        <ele>72.8</ele>
        <time>2019-07-11T06:36:30Z</time>
      </trkpt>
      <trkpt lat="48.80347" lon="-3.29356">
        <ele>72.9</ele>
        <time>2019-07-11T06:36:31Z</time>
      </trkpt>
      <trkpt lat="48.80349" lon="-3.29361">
        <ele>73.4</ele>
        <time>2019-07-11T06:36:32Z</time>
      </trkpt>
      <trkpt lat="48.80351" lon="-3.29365">
        <ele>73.5</ele>
        <time>2019-07-11T06:36:33Z</time>
      </trkpt>
      <trkpt lat="48.80353" lon="-3.29369">
        <ele>73.7</ele>
        <time>2019-07-11T06:36:34Z</time>
      </trkpt>
      <trkpt lat="48.80355" lon="-3.29372">
        <ele>73.5</ele>
        <time>2019-07-11T06:36:35Z</time>
      </trkpt>
      <trkpt lat="48.80357" lon="-3.29376">
        <ele>73.4</ele>
        <time>2019-07-11T06:36:36Z</time>
      </trkpt>
      <trkpt lat="48.80359" lon="-3.2938">
        <ele>73.3</ele>
        <time>2019-07-11T06:36:37Z</time>
      </trkpt>
      <trkpt lat="48.80362" lon="-3.29384">
        <ele>72.5</ele>
        <time>2019-07-11T06:36:38Z</time>
      </trkpt>
      <trkpt lat="48.80364" lon="-3.29387">
        <ele>71.9</ele>
        <time>2019-07-11T06:36:39Z</time>
      </trkpt>
      <trkpt lat="48.80366" lon="-3.29391">
        <ele>71.9</ele>
        <time>2019-07-11T06:36:40Z</time>
      </trkpt>
      <trkpt lat="48.80368" lon="-3.29395">
        <ele>71.7</ele>
        <time>2019-07-11T06:36:41Z</time>
      </trkpt>
      <trkpt lat="48.80371" lon="-3.29399">
        <ele>71.8</ele>
        <time>2019-07-11T06:36:42Z</time>
      </trkpt>
      <trkpt lat="48.80373" lon="-3.29403">
        <ele>71.7</ele>
        <time>2019-07-11T06:36:43Z</time>
      </trkpt>
      <trkpt lat="48.80375" lon="-3.29407">
        <ele>71.1</ele>
        <time>2019-07-11T06:36:44Z</time>
      </trkpt>
      <trkpt lat="48.80378" lon="-3.29412">
        <ele>70.6</ele>
        <time>2019-07-11T06:36:45Z</time>
      </trkpt>
      <trkpt lat="48.8038" lon="-3.29417">
        <ele>70.5</ele>
        <time>2019-07-11T06:36:46Z</time>
      </trkpt>
      <trkpt lat="48.80382" lon="-3.2942">
        <ele>70.7</ele>
        <time>2019-07-11T06:36:47Z</time>
      </trkpt>
      <trkpt lat="48.80384" lon="-3.29424">
        <ele>70.4</ele>
        <time>2019-07-11T06:36:48Z</time>
      </trkpt>
      <trkpt lat="48.80386" lon="-3.29428">
        <ele>69.6</ele>
        <time>2019-07-11T06:36:49Z</time>
      </trkpt>
      <trkpt lat="48.80388" lon="-3.29433">
        <ele>69.1</ele>
        <time>2019-07-11T06:36:50Z</time>
      </trkpt>
      <trkpt lat="48.80389" lon="-3.29438">
        <ele>69.5</ele>
        <time>2019-07-11T06:36:51Z</time>
      </trkpt>
      <trkpt lat="48.80391" lon="-3.29443">
        <ele>70.6</ele>
        <time>2019-07-11T06:36:52Z</time>
      </trkpt>
      <trkpt lat="48.80394" lon="-3.29448">
        <ele>70.9</ele>
        <time>2019-07-11T06:36:53Z</time>
      </trkpt>
      <trkpt lat="48.80396" lon="-3.29452">
        <ele>71.2</ele>
        <time>2019-07-11T06:36:54Z</time>
      </trkpt>
      <trkpt lat="48.80398" lon="-3.29456">
        <ele>71.2</ele>
        <time>2019-07-11T06:36:55Z</time>
      </trkpt>
      <trkpt lat="48.804" lon="-3.2946">
        <ele>71</ele>
        <time>2019-07-11T06:36:56Z</time>
      </trkpt>
      <trkpt lat="48.80402" lon="-3.29464">
        <ele>70.9</ele>
        <time>2019-07-11T06:36:57Z</time>
      </trkpt>
      <trkpt lat="48.80404" lon="-3.29468">
        <ele>71.4</ele>
        <time>2019-07-11T06:36:58Z</time>
      </trkpt>
      <trkpt lat="48.80406" lon="-3.29472">
        <ele>71.1</ele>
        <time>2019-07-11T06:36:59Z</time>
      </trkpt>
      <trkpt lat="48.80408" lon="-3.29475">
        <ele>71.1</ele>
        <time>2019-07-11T06:37:00Z</time>
      </trkpt>
      <trkpt lat="48.8041" lon="-3.29478">
        <ele>71.1</ele>
        <time>2019-07-11T06:37:01Z</time>
      </trkpt>
      <trkpt lat="48.80413" lon="-3.29482">
        <ele>71.8</ele>
        <time>2019-07-11T06:37:02Z</time>
      </trkpt>
      <trkpt lat="48.80415" lon="-3.29486">
        <ele>72.2</ele>
        <time>2019-07-11T06:37:03Z</time>
      </trkpt>
      <trkpt lat="48.80417" lon="-3.2949">
        <ele>72.6</ele>
        <time>2019-07-11T06:37:04Z</time>
      </trkpt>
      <trkpt lat="48.80419" lon="-3.29494">
        <ele>72.8</ele>
        <time>2019-07-11T06:37:05Z</time>
      </trkpt>
      <trkpt lat="48.80421" lon="-3.29497">
        <ele>73.8</ele>
        <time>2019-07-11T06:37:06Z</time>
      </trkpt>
      <trkpt lat="48.80423" lon="-3.29501">
        <ele>74</ele>
        <time>2019-07-11T06:37:07Z</time>
      </trkpt>
      <trkpt lat="48.80425" lon="-3.29505">
        <ele>74.1</ele>
        <time>2019-07-11T06:37:08Z</time>
      </trkpt>
      <trkpt lat="48.80427" lon="-3.29509">
        <ele>74.4</ele>
        <time>2019-07-11T06:37:09Z</time>
      </trkpt>
      <trkpt lat="48.8043" lon="-3.29513">
        <ele>74.2</ele>
        <time>2019-07-11T06:37:10Z</time>
      </trkpt>
      <trkpt lat="48.80431" lon="-3.29517">
        <ele>74.9</ele>
        <time>2019-07-11T06:37:11Z</time>
      </trkpt>
      <trkpt lat="48.80433" lon="-3.29521">
        <ele>74.7</ele>
        <time>2019-07-11T06:37:12Z</time>
      </trkpt>
      <trkpt lat="48.80435" lon="-3.29525">
        <ele>74.3</ele>
        <time>2019-07-11T06:37:13Z</time>
      </trkpt>
      <trkpt lat="48.80437" lon="-3.29528">
        <ele>74.2</ele>
        <time>2019-07-11T06:37:14Z</time>
      </trkpt>
      <trkpt lat="48.80438" lon="-3.29532">
        <ele>74</ele>
        <time>2019-07-11T06:37:15Z</time>
      </trkpt>
      <trkpt lat="48.8044" lon="-3.29536">
        <ele>73.5</ele>
        <time>2019-07-11T06:37:16Z</time>
      </trkpt>
      <trkpt lat="48.80442" lon="-3.29541">
        <ele>73</ele>
        <time>2019-07-11T06:37:17Z</time>
      </trkpt>
      <trkpt lat="48.80444" lon="-3.29545">
        <ele>73.2</ele>
        <time>2019-07-11T06:37:18Z</time>
      </trkpt>
      <trkpt lat="48.80445" lon="-3.2955">
        <ele>73.5</ele>
        <time>2019-07-11T06:37:19Z</time>
      </trkpt>
      <trkpt lat="48.80446" lon="-3.29554">
        <ele>73.8</ele>
        <time>2019-07-11T06:37:20Z</time>
      </trkpt>
      <trkpt lat="48.80447" lon="-3.29559">
        <ele>74</ele>
        <time>2019-07-11T06:37:21Z</time>
      </trkpt>
      <trkpt lat="48.80449" lon="-3.29564">
        <ele>74.1</ele>
        <time>2019-07-11T06:37:22Z</time>
      </trkpt>
      <trkpt lat="48.8045" lon="-3.29568">
        <ele>74.6</ele>
        <time>2019-07-11T06:37:23Z</time>
      </trkpt>
      <trkpt lat="48.80451" lon="-3.29573">
        <ele>75.2</ele>
        <time>2019-07-11T06:37:24Z</time>
      </trkpt>
      <trkpt lat="48.80453" lon="-3.29577">
        <ele>75.6</ele>
        <time>2019-07-11T06:37:25Z</time>
      </trkpt>
      <trkpt lat="48.80454" lon="-3.29582">
        <ele>76.1</ele>
        <time>2019-07-11T06:37:26Z</time>
      </trkpt>
      <trkpt lat="48.80455" lon="-3.29586">
        <ele>76.7</ele>
        <time>2019-07-11T06:37:27Z</time>
      </trkpt>
      <trkpt lat="48.80456" lon="-3.2959">
        <ele>77.1</ele>
        <time>2019-07-11T06:37:28Z</time>
      </trkpt>
      <trkpt lat="48.80457" lon="-3.29594">
        <ele>77.7</ele>
        <time>2019-07-11T06:37:29Z</time>
      </trkpt>
      <trkpt lat="48.80459" lon="-3.29599">
        <ele>77.4</ele>
        <time>2019-07-11T06:37:30Z</time>
      </trkpt>
      <trkpt lat="48.8046" lon="-3.29603">
        <ele>77.7</ele>
        <time>2019-07-11T06:37:31Z</time>
      </trkpt>
      <trkpt lat="48.80462" lon="-3.29606">
        <ele>78</ele>
        <time>2019-07-11T06:37:32Z</time>
      </trkpt>
      <trkpt lat="48.80463" lon="-3.2961">
        <ele>78.4</ele>
        <time>2019-07-11T06:37:33Z</time>
      </trkpt>
      <trkpt lat="48.80464" lon="-3.29615">
        <ele>78.6</ele>
        <time>2019-07-11T06:37:34Z</time>
      </trkpt>
      <trkpt lat="48.80464" lon="-3.2962">
        <ele>78.7</ele>
        <time>2019-07-11T06:37:35Z</time>
      </trkpt>
      <trkpt lat="48.80465" lon="-3.29625">
        <ele>78.6</ele>
        <time>2019-07-11T06:37:36Z</time>
      </trkpt>
      <trkpt lat="48.80467" lon="-3.29628">
        <ele>78.7</ele>
        <time>2019-07-11T06:37:37Z</time>
      </trkpt>
      <trkpt lat="48.80467" lon="-3.29632">
        <ele>78.6</ele>
        <time>2019-07-11T06:37:38Z</time>
      </trkpt>
      <trkpt lat="48.80468" lon="-3.29636">
        <ele>78.4</ele>
        <time>2019-07-11T06:37:39Z</time>
      </trkpt>
      <trkpt lat="48.80469" lon="-3.2964">
        <ele>77</ele>
        <time>2019-07-11T06:37:40Z</time>
      </trkpt>
      <trkpt lat="48.8047" lon="-3.29644">
        <ele>76.2</ele>
        <time>2019-07-11T06:37:41Z</time>
      </trkpt>
      <trkpt lat="48.80471" lon="-3.29649">
        <ele>75.2</ele>
        <time>2019-07-11T06:37:42Z</time>
      </trkpt>
      <trkpt lat="48.80471" lon="-3.29654">
        <ele>74.7</ele>
        <time>2019-07-11T06:37:43Z</time>
      </trkpt>
      <trkpt lat="48.80471" lon="-3.29658">
        <ele>74.3</ele>
        <time>2019-07-11T06:37:44Z</time>
      </trkpt>
      <trkpt lat="48.8047" lon="-3.29662">
        <ele>74.2</ele>
        <time>2019-07-11T06:37:45Z</time>
      </trkpt>
      <trkpt lat="48.8047" lon="-3.29666">
        <ele>74.2</ele>
        <time>2019-07-11T06:37:46Z</time>
      </trkpt>
      <trkpt lat="48.8047" lon="-3.2967">
        <ele>74.5</ele>
        <time>2019-07-11T06:37:47Z</time>
      </trkpt>
      <trkpt lat="48.80469" lon="-3.29674">
        <ele>74.5</ele>
        <time>2019-07-11T06:37:48Z</time>
      </trkpt>
      <trkpt lat="48.80469" lon="-3.29679">
        <ele>74.1</ele>
        <time>2019-07-11T06:37:49Z</time>
      </trkpt>
      <trkpt lat="48.80468" lon="-3.29684">
        <ele>74</ele>
        <time>2019-07-11T06:37:50Z</time>
      </trkpt>
      <trkpt lat="48.80468" lon="-3.29687">
        <ele>74.5</ele>
        <time>2019-07-11T06:37:51Z</time>
      </trkpt>
      <trkpt lat="48.80467" lon="-3.29691">
        <ele>75.7</ele>
        <time>2019-07-11T06:37:52Z</time>
      </trkpt>
      <trkpt lat="48.80467" lon="-3.29695">
        <ele>75.8</ele>
        <time>2019-07-11T06:37:53Z</time>
      </trkpt>
      <trkpt lat="48.80467" lon="-3.29699">
        <ele>76</ele>
        <time>2019-07-11T06:37:54Z</time>
      </trkpt>
      <trkpt lat="48.80467" lon="-3.29703">
        <ele>75.8</ele>
        <time>2019-07-11T06:37:55Z</time>
      </trkpt>
      <trkpt lat="48.80467" lon="-3.29708">
        <ele>75.3</ele>
        <time>2019-07-11T06:37:56Z</time>
      </trkpt>
      <trkpt lat="48.80467" lon="-3.29712">
        <ele>75.3</ele>
        <time>2019-07-11T06:37:57Z</time>
      </trkpt>
      <trkpt lat="48.80466" lon="-3.29716">
        <ele>74.7</ele>
        <time>2019-07-11T06:37:58Z</time>
      </trkpt>
      <trkpt lat="48.80466" lon="-3.2972">
        <ele>75.1</ele>
        <time>2019-07-11T06:37:59Z</time>
      </trkpt>
      <trkpt lat="48.80465" lon="-3.29725">
        <ele>75</ele>
        <time>2019-07-11T06:38:00Z</time>
      </trkpt>
      <trkpt lat="48.80465" lon="-3.29729">
        <ele>74.3</ele>
        <time>2019-07-11T06:38:01Z</time>
      </trkpt>
      <trkpt lat="48.80464" lon="-3.29734">
        <ele>73.7</ele>
        <time>2019-07-11T06:38:02Z</time>
      </trkpt>
      <trkpt lat="48.80463" lon="-3.29739">
        <ele>73.1</ele>
        <time>2019-07-11T06:38:03Z</time>
      </trkpt>
      <trkpt lat="48.80462" lon="-3.29743">
        <ele>72.9</ele>
        <time>2019-07-11T06:38:04Z</time>
      </trkpt>
      <trkpt lat="48.80462" lon="-3.29748">
        <ele>72.6</ele>
        <time>2019-07-11T06:38:05Z</time>
      </trkpt>
      <trkpt lat="48.8046" lon="-3.29752">
        <ele>72.3</ele>
        <time>2019-07-11T06:38:06Z</time>
      </trkpt>
      <trkpt lat="48.80459" lon="-3.29756">
        <ele>71.4</ele>
        <time>2019-07-11T06:38:07Z</time>
      </trkpt>
      <trkpt lat="48.80458" lon="-3.2976">
        <ele>71</ele>
        <time>2019-07-11T06:38:08Z</time>
      </trkpt>
      <trkpt lat="48.80457" lon="-3.29765">
        <ele>70.5</ele>
        <time>2019-07-11T06:38:09Z</time>
      </trkpt>
      <trkpt lat="48.80457" lon="-3.29769">
        <ele>70.2</ele>
        <time>2019-07-11T06:38:10Z</time>
      </trkpt>
      <trkpt lat="48.80456" lon="-3.29774">
        <ele>69.4</ele>
        <time>2019-07-11T06:38:11Z</time>
      </trkpt>
      <trkpt lat="48.80455" lon="-3.29778">
        <ele>69.7</ele>
        <time>2019-07-11T06:38:12Z</time>
      </trkpt>
      <trkpt lat="48.80454" lon="-3.29783">
        <ele>69.4</ele>
        <time>2019-07-11T06:38:13Z</time>
      </trkpt>
      <trkpt lat="48.80454" lon="-3.29787">
        <ele>68.9</ele>
        <time>2019-07-11T06:38:14Z</time>
      </trkpt>
      <trkpt lat="48.80452" lon="-3.29792">
        <ele>68.1</ele>
        <time>2019-07-11T06:38:15Z</time>
      </trkpt>
      <trkpt lat="48.80452" lon="-3.29796">
        <ele>67.9</ele>
        <time>2019-07-11T06:38:16Z</time>
      </trkpt>
      <trkpt lat="48.80449" lon="-3.29809">
        <ele>69.5</ele>
        <time>2019-07-11T06:38:19Z</time>
      </trkpt>
      <trkpt lat="48.80448" lon="-3.29813">
        <ele>70.5</ele>
        <time>2019-07-11T06:38:20Z</time>
      </trkpt>
      <trkpt lat="48.80447" lon="-3.29817">
        <ele>70.8</ele>
        <time>2019-07-11T06:38:21Z</time>
      </trkpt>
      <trkpt lat="48.80446" lon="-3.29821">
        <ele>71.3</ele>
        <time>2019-07-11T06:38:22Z</time>
      </trkpt>
      <trkpt lat="48.80445" lon="-3.29825">
        <ele>71.6</ele>
        <time>2019-07-11T06:38:23Z</time>
      </trkpt>
      <trkpt lat="48.80445" lon="-3.29828">
        <ele>73.4</ele>
        <time>2019-07-11T06:38:24Z</time>
      </trkpt>
      <trkpt lat="48.80444" lon="-3.29833">
        <ele>72.6</ele>
        <time>2019-07-11T06:38:25Z</time>
      </trkpt>
      <trkpt lat="48.80443" lon="-3.29837">
        <ele>72.1</ele>
        <time>2019-07-11T06:38:26Z</time>
      </trkpt>
      <trkpt lat="48.80443" lon="-3.2984">
        <ele>72.1</ele>
        <time>2019-07-11T06:38:27Z</time>
      </trkpt>
      <trkpt lat="48.80442" lon="-3.29844">
        <ele>70.4</ele>
        <time>2019-07-11T06:38:28Z</time>
      </trkpt>
      <trkpt lat="48.80444" lon="-3.29849">
        <ele>69.2</ele>
        <time>2019-07-11T06:38:29Z</time>
      </trkpt>
      <trkpt lat="48.80446" lon="-3.29853">
        <ele>68.6</ele>
        <time>2019-07-11T06:38:30Z</time>
      </trkpt>
      <trkpt lat="48.8045" lon="-3.29856">
        <ele>68.1</ele>
        <time>2019-07-11T06:38:31Z</time>
      </trkpt>
      <trkpt lat="48.80454" lon="-3.2986">
        <ele>68.1</ele>
        <time>2019-07-11T06:38:32Z</time>
      </trkpt>
      <trkpt lat="48.80459" lon="-3.29863">
        <ele>68</ele>
        <time>2019-07-11T06:38:33Z</time>
      </trkpt>
      <trkpt lat="48.80463" lon="-3.29866">
        <ele>68.1</ele>
        <time>2019-07-11T06:38:34Z</time>
      </trkpt>
      <trkpt lat="48.80465" lon="-3.2987">
        <ele>68.7</ele>
        <time>2019-07-11T06:38:35Z</time>
      </trkpt>
      <trkpt lat="48.80467" lon="-3.29875">
        <ele>69</ele>
        <time>2019-07-11T06:38:36Z</time>
      </trkpt>
      <trkpt lat="48.80468" lon="-3.2988">
        <ele>69.3</ele>
        <time>2019-07-11T06:38:37Z</time>
      </trkpt>
      <trkpt lat="48.8047" lon="-3.29884">
        <ele>70.7</ele>
        <time>2019-07-11T06:38:38Z</time>
      </trkpt>
      <trkpt lat="48.8047" lon="-3.29887">
        <ele>72.7</ele>
        <time>2019-07-11T06:38:39Z</time>
      </trkpt>
      <trkpt lat="48.80472" lon="-3.2989">
        <ele>73.5</ele>
        <time>2019-07-11T06:38:40Z</time>
      </trkpt>
      <trkpt lat="48.80473" lon="-3.29892">
        <ele>74.9</ele>
        <time>2019-07-11T06:38:41Z</time>
      </trkpt>
      <trkpt lat="48.80473" lon="-3.29895">
        <ele>75.4</ele>
        <time>2019-07-11T06:38:42Z</time>
      </trkpt>
      <trkpt lat="48.80474" lon="-3.29897">
        <ele>75.8</ele>
        <time>2019-07-11T06:38:43Z</time>
      </trkpt>
      <trkpt lat="48.80475" lon="-3.29903">
        <ele>77.9</ele>
        <time>2019-07-11T06:38:47Z</time>
      </trkpt>
      <trkpt lat="48.80475" lon="-3.29908">
        <ele>78.3</ele>
        <time>2019-07-11T06:38:48Z</time>
      </trkpt>
      <trkpt lat="48.80475" lon="-3.29912">
        <ele>78.9</ele>
        <time>2019-07-11T06:38:49Z</time>
      </trkpt>
      <trkpt lat="48.80475" lon="-3.29917">
        <ele>79.3</ele>
        <time>2019-07-11T06:38:50Z</time>
      </trkpt>
      <trkpt lat="48.80475" lon="-3.2992">
        <ele>79.3</ele>
        <time>2019-07-11T06:38:51Z</time>
      </trkpt>
      <trkpt lat="48.80475" lon="-3.29924">
        <ele>79</ele>
        <time>2019-07-11T06:38:52Z</time>
      </trkpt>
      <trkpt lat="48.80475" lon="-3.29927">
        <ele>79.1</ele>
        <time>2019-07-11T06:38:53Z</time>
      </trkpt>
      <trkpt lat="48.80475" lon="-3.29931">
        <ele>79.5</ele>
        <time>2019-07-11T06:38:54Z</time>
      </trkpt>
      <trkpt lat="48.80475" lon="-3.29934">
        <ele>80</ele>
        <time>2019-07-11T06:38:55Z</time>
      </trkpt>
      <trkpt lat="48.80475" lon="-3.29937">
        <ele>80.4</ele>
        <time>2019-07-11T06:38:56Z</time>
      </trkpt>
      <trkpt lat="48.80475" lon="-3.29941">
        <ele>80.9</ele>
        <time>2019-07-11T06:38:57Z</time>
      </trkpt>
      <trkpt lat="48.80475" lon="-3.29944">
        <ele>81.5</ele>
        <time>2019-07-11T06:38:58Z</time>
      </trkpt>
      <trkpt lat="48.80475" lon="-3.29947">
        <ele>82</ele>
        <time>2019-07-11T06:38:59Z</time>
      </trkpt>
      <trkpt lat="48.80475" lon="-3.2995">
        <ele>82.7</ele>
        <time>2019-07-11T06:39:00Z</time>
      </trkpt>
      <trkpt lat="48.80475" lon="-3.29952">
        <ele>83.2</ele>
        <time>2019-07-11T06:39:01Z</time>
      </trkpt>
      <trkpt lat="48.80475" lon="-3.29955">
        <ele>83.5</ele>
        <time>2019-07-11T06:39:02Z</time>
      </trkpt>
      <trkpt lat="48.80475" lon="-3.29958">
        <ele>84</ele>
        <time>2019-07-11T06:39:03Z</time>
      </trkpt>
      <trkpt lat="48.80475" lon="-3.29961">
        <ele>84.4</ele>
        <time>2019-07-11T06:39:04Z</time>
      </trkpt>
      <trkpt lat="48.80475" lon="-3.29964">
        <ele>84.8</ele>
        <time>2019-07-11T06:39:05Z</time>
      </trkpt>
      <trkpt lat="48.80475" lon="-3.29966">
        <ele>85.3</ele>
        <time>2019-07-11T06:39:06Z</time>
      </trkpt>
      <trkpt lat="48.80475" lon="-3.29969">
        <ele>85.5</ele>
        <time>2019-07-11T06:39:07Z</time>
      </trkpt>
      <trkpt lat="48.80475" lon="-3.29971">
        <ele>86.1</ele>
        <time>2019-07-11T06:39:08Z</time>
      </trkpt>
      <trkpt lat="48.80475" lon="-3.29974">
        <ele>86.4</ele>
        <time>2019-07-11T06:39:09Z</time>
      </trkpt>
      <trkpt lat="48.80475" lon="-3.29977">
        <ele>86.8</ele>
        <time>2019-07-11T06:39:10Z</time>
      </trkpt>
      <trkpt lat="48.80475" lon="-3.2998">
        <ele>86.9</ele>
        <time>2019-07-11T06:39:11Z</time>
      </trkpt>
      <trkpt lat="48.80475" lon="-3.29983">
        <ele>87</ele>
        <time>2019-07-11T06:39:12Z</time>
      </trkpt>
      <trkpt lat="48.80476" lon="-3.29986">
        <ele>87.2</ele>
        <time>2019-07-11T06:39:13Z</time>
      </trkpt>
      <trkpt lat="48.80477" lon="-3.29988">
        <ele>87.6</ele>
        <time>2019-07-11T06:39:14Z</time>
      </trkpt>
      <trkpt lat="48.80478" lon="-3.29991">
        <ele>87.7</ele>
        <time>2019-07-11T06:39:15Z</time>
      </trkpt>
      <trkpt lat="48.80479" lon="-3.29994">
        <ele>87.9</ele>
        <time>2019-07-11T06:39:16Z</time>
      </trkpt>
      <trkpt lat="48.8048" lon="-3.29996">
        <ele>88.1</ele>
        <time>2019-07-11T06:39:17Z</time>
      </trkpt>
      <trkpt lat="48.8048" lon="-3.29998">
        <ele>88.6</ele>
        <time>2019-07-11T06:39:18Z</time>
      </trkpt>
      <trkpt lat="48.80482" lon="-3.30001">
        <ele>88.8</ele>
        <time>2019-07-11T06:39:19Z</time>
      </trkpt>
      <trkpt lat="48.80483" lon="-3.30004">
        <ele>88.6</ele>
        <time>2019-07-11T06:39:20Z</time>
      </trkpt>
      <trkpt lat="48.80485" lon="-3.30008">
        <ele>88.7</ele>
        <time>2019-07-11T06:39:21Z</time>
      </trkpt>
      <trkpt lat="48.80485" lon="-3.30011">
        <ele>88.4</ele>
        <time>2019-07-11T06:39:22Z</time>
      </trkpt>
      <trkpt lat="48.80486" lon="-3.30014">
        <ele>88.1</ele>
        <time>2019-07-11T06:39:23Z</time>
      </trkpt>
      <trkpt lat="48.80487" lon="-3.30018">
        <ele>87.8</ele>
        <time>2019-07-11T06:39:24Z</time>
      </trkpt>
      <trkpt lat="48.80488" lon="-3.30021">
        <ele>87.8</ele>
        <time>2019-07-11T06:39:25Z</time>
      </trkpt>
      <trkpt lat="48.80489" lon="-3.30023">
        <ele>87.7</ele>
        <time>2019-07-11T06:39:26Z</time>
      </trkpt>
      <trkpt lat="48.8049" lon="-3.30026">
        <ele>87.8</ele>
        <time>2019-07-11T06:39:27Z</time>
      </trkpt>
      <trkpt lat="48.80491" lon="-3.30029">
        <ele>87.8</ele>
        <time>2019-07-11T06:39:28Z</time>
      </trkpt>
      <trkpt lat="48.80492" lon="-3.30031">
        <ele>87.7</ele>
        <time>2019-07-11T06:39:29Z</time>
      </trkpt>
      <trkpt lat="48.80493" lon="-3.30034">
        <ele>86.8</ele>
        <time>2019-07-11T06:39:30Z</time>
      </trkpt>
      <trkpt lat="48.80495" lon="-3.30036">
        <ele>86.2</ele>
        <time>2019-07-11T06:39:31Z</time>
      </trkpt>
      <trkpt lat="48.80496" lon="-3.30038">
        <ele>86.1</ele>
        <time>2019-07-11T06:39:32Z</time>
      </trkpt>
      <trkpt lat="48.80498" lon="-3.30041">
        <ele>85.2</ele>
        <time>2019-07-11T06:39:33Z</time>
      </trkpt>
      <trkpt lat="48.805" lon="-3.30044">
        <ele>84.2</ele>
        <time>2019-07-11T06:39:34Z</time>
      </trkpt>
      <trkpt lat="48.80502" lon="-3.30046">
        <ele>83</ele>
        <time>2019-07-11T06:39:35Z</time>
      </trkpt>
      <trkpt lat="48.80504" lon="-3.30048">
        <ele>82.1</ele>
        <time>2019-07-11T06:39:36Z</time>
      </trkpt>
      <trkpt lat="48.80505" lon="-3.30051">
        <ele>81.6</ele>
        <time>2019-07-11T06:39:37Z</time>
      </trkpt>
      <trkpt lat="48.80508" lon="-3.30053">
        <ele>81.3</ele>
        <time>2019-07-11T06:39:38Z</time>
      </trkpt>
      <trkpt lat="48.8051" lon="-3.30055">
        <ele>81</ele>
        <time>2019-07-11T06:39:39Z</time>
      </trkpt>
      <trkpt lat="48.80512" lon="-3.30058">
        <ele>80.6</ele>
        <time>2019-07-11T06:39:40Z</time>
      </trkpt>
      <trkpt lat="48.80514" lon="-3.3006">
        <ele>80.1</ele>
        <time>2019-07-11T06:39:41Z</time>
      </trkpt>
      <trkpt lat="48.80516" lon="-3.30062">
        <ele>81.2</ele>
        <time>2019-07-11T06:39:42Z</time>
      </trkpt>
      <trkpt lat="48.80518" lon="-3.30063">
        <ele>81.2</ele>
        <time>2019-07-11T06:39:43Z</time>
      </trkpt>
      <trkpt lat="48.8052" lon="-3.30066">
        <ele>81</ele>
        <time>2019-07-11T06:39:44Z</time>
      </trkpt>
      <trkpt lat="48.80523" lon="-3.30069">
        <ele>80.4</ele>
        <time>2019-07-11T06:39:45Z</time>
      </trkpt>
      <trkpt lat="48.80526" lon="-3.30071">
        <ele>79.7</ele>
        <time>2019-07-11T06:39:46Z</time>
      </trkpt>
      <trkpt lat="48.80529" lon="-3.30074">
        <ele>78.6</ele>
        <time>2019-07-11T06:39:47Z</time>
      </trkpt>
      <trkpt lat="48.80532" lon="-3.30077">
        <ele>77.5</ele>
        <time>2019-07-11T06:39:48Z</time>
      </trkpt>
      <trkpt lat="48.80534" lon="-3.30079">
        <ele>76.7</ele>
        <time>2019-07-11T06:39:49Z</time>
      </trkpt>
      <trkpt lat="48.80537" lon="-3.30081">
        <ele>76.3</ele>
        <time>2019-07-11T06:39:50Z</time>
      </trkpt>
      <trkpt lat="48.80539" lon="-3.30083">
        <ele>75.8</ele>
        <time>2019-07-11T06:39:51Z</time>
      </trkpt>
      <trkpt lat="48.80542" lon="-3.30084">
        <ele>75.2</ele>
        <time>2019-07-11T06:39:52Z</time>
      </trkpt>
      <trkpt lat="48.80544" lon="-3.30085">
        <ele>75</ele>
        <time>2019-07-11T06:39:53Z</time>
      </trkpt>
      <trkpt lat="48.80545" lon="-3.30087">
        <ele>76.1</ele>
        <time>2019-07-11T06:39:54Z</time>
      </trkpt>
      <trkpt lat="48.80546" lon="-3.30089">
        <ele>76.9</ele>
        <time>2019-07-11T06:39:55Z</time>
      </trkpt>
      <trkpt lat="48.80546" lon="-3.30091">
        <ele>77.8</ele>
        <time>2019-07-11T06:39:56Z</time>
      </trkpt>
      <trkpt lat="48.80547" lon="-3.30093">
        <ele>78.7</ele>
        <time>2019-07-11T06:39:57Z</time>
      </trkpt>
      <trkpt lat="48.80547" lon="-3.30097">
        <ele>79.2</ele>
        <time>2019-07-11T06:39:58Z</time>
      </trkpt>
      <trkpt lat="48.80547" lon="-3.301">
        <ele>79.9</ele>
        <time>2019-07-11T06:39:59Z</time>
      </trkpt>
      <trkpt lat="48.80547" lon="-3.30104">
        <ele>80.2</ele>
        <time>2019-07-11T06:40:00Z</time>
      </trkpt>
      <trkpt lat="48.80548" lon="-3.30108">
        <ele>80.7</ele>
        <time>2019-07-11T06:40:01Z</time>
      </trkpt>
      <trkpt lat="48.80547" lon="-3.30112">
        <ele>81.1</ele>
        <time>2019-07-11T06:40:02Z</time>
      </trkpt>
      <trkpt lat="48.80547" lon="-3.30117">
        <ele>82</ele>
        <time>2019-07-11T06:40:03Z</time>
      </trkpt>
      <trkpt lat="48.80547" lon="-3.30121">
        <ele>82.4</ele>
        <time>2019-07-11T06:40:04Z</time>
      </trkpt>
      <trkpt lat="48.80547" lon="-3.30126">
        <ele>82.8</ele>
        <time>2019-07-11T06:40:05Z</time>
      </trkpt>
      <trkpt lat="48.80547" lon="-3.30131">
        <ele>82.9</ele>
        <time>2019-07-11T06:40:06Z</time>
      </trkpt>
      <trkpt lat="48.80547" lon="-3.30136">
        <ele>83</ele>
        <time>2019-07-11T06:40:07Z</time>
      </trkpt>
      <trkpt lat="48.80549" lon="-3.3014">
        <ele>83.1</ele>
        <time>2019-07-11T06:40:08Z</time>
      </trkpt>
      <trkpt lat="48.8055" lon="-3.30146">
        <ele>82.3</ele>
        <time>2019-07-11T06:40:09Z</time>
      </trkpt>
      <trkpt lat="48.80551" lon="-3.3015">
        <ele>81.8</ele>
        <time>2019-07-11T06:40:10Z</time>
      </trkpt>
      <trkpt lat="48.80553" lon="-3.30154">
        <ele>81.3</ele>
        <time>2019-07-11T06:40:11Z</time>
      </trkpt>
      <trkpt lat="48.80555" lon="-3.30158">
        <ele>81</ele>
        <time>2019-07-11T06:40:12Z</time>
      </trkpt>
      <trkpt lat="48.80557" lon="-3.30161">
        <ele>80.9</ele>
        <time>2019-07-11T06:40:13Z</time>
      </trkpt>
      <trkpt lat="48.8056" lon="-3.30164">
        <ele>80.7</ele>
        <time>2019-07-11T06:40:14Z</time>
      </trkpt>
      <trkpt lat="48.80562" lon="-3.30167">
        <ele>80.8</ele>
        <time>2019-07-11T06:40:15Z</time>
      </trkpt>
      <trkpt lat="48.80565" lon="-3.3017">
        <ele>80.9</ele>
        <time>2019-07-11T06:40:16Z</time>
      </trkpt>
      <trkpt lat="48.80567" lon="-3.30172">
        <ele>80.6</ele>
        <time>2019-07-11T06:40:17Z</time>
      </trkpt>
      <trkpt lat="48.8057" lon="-3.30175">
        <ele>80.2</ele>
        <time>2019-07-11T06:40:18Z</time>
      </trkpt>
      <trkpt lat="48.80573" lon="-3.30178">
        <ele>79.9</ele>
        <time>2019-07-11T06:40:19Z</time>
      </trkpt>
      <trkpt lat="48.80576" lon="-3.3018">
        <ele>79.7</ele>
        <time>2019-07-11T06:40:20Z</time>
      </trkpt>
      <trkpt lat="48.80578" lon="-3.30183">
        <ele>79.6</ele>
        <time>2019-07-11T06:40:21Z</time>
      </trkpt>
      <trkpt lat="48.80581" lon="-3.30185">
        <ele>79.5</ele>
        <time>2019-07-11T06:40:22Z</time>
      </trkpt>
      <trkpt lat="48.80584" lon="-3.30189">
        <ele>79.3</ele>
        <time>2019-07-11T06:40:23Z</time>
      </trkpt>
      <trkpt lat="48.80587" lon="-3.30192">
        <ele>79</ele>
        <time>2019-07-11T06:40:24Z</time>
      </trkpt>
      <trkpt lat="48.8059" lon="-3.30194">
        <ele>78.5</ele>
        <time>2019-07-11T06:40:25Z</time>
      </trkpt>
      <trkpt lat="48.80592" lon="-3.30196">
        <ele>78.5</ele>
        <time>2019-07-11T06:40:26Z</time>
      </trkpt>
      <trkpt lat="48.80596" lon="-3.30197">
        <ele>78.2</ele>
        <time>2019-07-11T06:40:27Z</time>
      </trkpt>
      <trkpt lat="48.80599" lon="-3.30199">
        <ele>78.1</ele>
        <time>2019-07-11T06:40:28Z</time>
      </trkpt>
      <trkpt lat="48.80602" lon="-3.30199">
        <ele>77.9</ele>
        <time>2019-07-11T06:40:29Z</time>
      </trkpt>
      <trkpt lat="48.80606" lon="-3.302">
        <ele>77</ele>
        <time>2019-07-11T06:40:30Z</time>
      </trkpt>
      <trkpt lat="48.8061" lon="-3.30198">
        <ele>75.9</ele>
        <time>2019-07-11T06:40:31Z</time>
      </trkpt>
      <trkpt lat="48.80613" lon="-3.30197">
        <ele>75.4</ele>
        <time>2019-07-11T06:40:32Z</time>
      </trkpt>
      <trkpt lat="48.80616" lon="-3.30195">
        <ele>74.5</ele>
        <time>2019-07-11T06:40:33Z</time>
      </trkpt>
      <trkpt lat="48.80619" lon="-3.30194">
        <ele>74.1</ele>
        <time>2019-07-11T06:40:34Z</time>
      </trkpt>
      <trkpt lat="48.80623" lon="-3.30194">
        <ele>74.4</ele>
        <time>2019-07-11T06:40:35Z</time>
      </trkpt>
      <trkpt lat="48.80627" lon="-3.30193">
        <ele>74.6</ele>
        <time>2019-07-11T06:40:36Z</time>
      </trkpt>
      <trkpt lat="48.80631" lon="-3.30193">
        <ele>74.1</ele>
        <time>2019-07-11T06:40:37Z</time>
      </trkpt>
      <trkpt lat="48.80634" lon="-3.30195">
        <ele>73.7</ele>
        <time>2019-07-11T06:40:38Z</time>
      </trkpt>
      <trkpt lat="48.80637" lon="-3.30198">
        <ele>73.8</ele>
        <time>2019-07-11T06:40:39Z</time>
      </trkpt>
      <trkpt lat="48.8064" lon="-3.302">
        <ele>73.4</ele>
        <time>2019-07-11T06:40:40Z</time>
      </trkpt>
      <trkpt lat="48.80644" lon="-3.30203">
        <ele>73.6</ele>
        <time>2019-07-11T06:40:41Z</time>
      </trkpt>
      <trkpt lat="48.80647" lon="-3.30205">
        <ele>73.8</ele>
        <time>2019-07-11T06:40:42Z</time>
      </trkpt>
      <trkpt lat="48.8065" lon="-3.30209">
        <ele>73.7</ele>
        <time>2019-07-11T06:40:43Z</time>
      </trkpt>
      <trkpt lat="48.80653" lon="-3.30211">
        <ele>73.8</ele>
        <time>2019-07-11T06:40:44Z</time>
      </trkpt>
      <trkpt lat="48.80656" lon="-3.30214">
        <ele>74</ele>
        <time>2019-07-11T06:40:45Z</time>
      </trkpt>
      <trkpt lat="48.8066" lon="-3.30217">
        <ele>74.2</ele>
        <time>2019-07-11T06:40:46Z</time>
      </trkpt>
      <trkpt lat="48.80663" lon="-3.30221">
        <ele>74.5</ele>
        <time>2019-07-11T06:40:47Z</time>
      </trkpt>
      <trkpt lat="48.80665" lon="-3.30224">
        <ele>74.7</ele>
        <time>2019-07-11T06:40:48Z</time>
      </trkpt>
      <trkpt lat="48.80668" lon="-3.30228">
        <ele>75.1</ele>
        <time>2019-07-11T06:40:49Z</time>
      </trkpt>
      <trkpt lat="48.8067" lon="-3.30231">
        <ele>76</ele>
        <time>2019-07-11T06:40:50Z</time>
      </trkpt>
      <trkpt lat="48.80673" lon="-3.30235">
        <ele>76.7</ele>
        <time>2019-07-11T06:40:51Z</time>
      </trkpt>
      <trkpt lat="48.80676" lon="-3.30238">
        <ele>77</ele>
        <time>2019-07-11T06:40:52Z</time>
      </trkpt>
      <trkpt lat="48.80679" lon="-3.30242">
        <ele>77.5</ele>
        <time>2019-07-11T06:40:53Z</time>
      </trkpt>
      <trkpt lat="48.80681" lon="-3.30246">
        <ele>77.3</ele>
        <time>2019-07-11T06:40:54Z</time>
      </trkpt>
      <trkpt lat="48.80684" lon="-3.3025">
        <ele>77.4</ele>
        <time>2019-07-11T06:40:55Z</time>
      </trkpt>
      <trkpt lat="48.80686" lon="-3.30253">
        <ele>77.8</ele>
        <time>2019-07-11T06:40:56Z</time>
      </trkpt>
      <trkpt lat="48.80688" lon="-3.30257">
        <ele>77.6</ele>
        <time>2019-07-11T06:40:57Z</time>
      </trkpt>
      <trkpt lat="48.8069" lon="-3.30261">
        <ele>77.5</ele>
        <time>2019-07-11T06:40:58Z</time>
      </trkpt>
      <trkpt lat="48.80692" lon="-3.30264">
        <ele>77.5</ele>
        <time>2019-07-11T06:40:59Z</time>
      </trkpt>
      <trkpt lat="48.80693" lon="-3.30267">
        <ele>78.3</ele>
        <time>2019-07-11T06:41:00Z</time>
      </trkpt>
      <trkpt lat="48.80695" lon="-3.3027">
        <ele>78.9</ele>
        <time>2019-07-11T06:41:01Z</time>
      </trkpt>
      <trkpt lat="48.80697" lon="-3.30273">
        <ele>79.3</ele>
        <time>2019-07-11T06:41:02Z</time>
      </trkpt>
      <trkpt lat="48.80699" lon="-3.30276">
        <ele>79.9</ele>
        <time>2019-07-11T06:41:03Z</time>
      </trkpt>
      <trkpt lat="48.80701" lon="-3.30279">
        <ele>80.3</ele>
        <time>2019-07-11T06:41:04Z</time>
      </trkpt>
      <trkpt lat="48.80704" lon="-3.30282">
        <ele>80.5</ele>
        <time>2019-07-11T06:41:05Z</time>
      </trkpt>
      <trkpt lat="48.80707" lon="-3.30285">
        <ele>79.9</ele>
        <time>2019-07-11T06:41:06Z</time>
      </trkpt>
      <trkpt lat="48.8071" lon="-3.30289">
        <ele>78.7</ele>
        <time>2019-07-11T06:41:07Z</time>
      </trkpt>
      <trkpt lat="48.80713" lon="-3.30292">
        <ele>78.1</ele>
        <time>2019-07-11T06:41:08Z</time>
      </trkpt>
      <trkpt lat="48.80716" lon="-3.30296">
        <ele>77.5</ele>
        <time>2019-07-11T06:41:09Z</time>
      </trkpt>
      <trkpt lat="48.80719" lon="-3.30299">
        <ele>77.4</ele>
        <time>2019-07-11T06:41:10Z</time>
      </trkpt>
      <trkpt lat="48.80722" lon="-3.30303">
        <ele>76.6</ele>
        <time>2019-07-11T06:41:11Z</time>
      </trkpt>
      <trkpt lat="48.80726" lon="-3.30306">
        <ele>75.8</ele>
        <time>2019-07-11T06:41:12Z</time>
      </trkpt>
      <trkpt lat="48.80728" lon="-3.30308">
        <ele>75.3</ele>
        <time>2019-07-11T06:41:13Z</time>
      </trkpt>
      <trkpt lat="48.80732" lon="-3.30311">
        <ele>74.6</ele>
        <time>2019-07-11T06:41:14Z</time>
      </trkpt>
      <trkpt lat="48.80735" lon="-3.30313">
        <ele>74.4</ele>
        <time>2019-07-11T06:41:15Z</time>
      </trkpt>
      <trkpt lat="48.80738" lon="-3.30315">
        <ele>74.7</ele>
        <time>2019-07-11T06:41:16Z</time>
      </trkpt>
      <trkpt lat="48.80742" lon="-3.30317">
        <ele>75.1</ele>
        <time>2019-07-11T06:41:17Z</time>
      </trkpt>
      <trkpt lat="48.80744" lon="-3.30319">
        <ele>75.7</ele>
        <time>2019-07-11T06:41:18Z</time>
      </trkpt>
      <trkpt lat="48.80747" lon="-3.3032">
        <ele>75.7</ele>
        <time>2019-07-11T06:41:19Z</time>
      </trkpt>
      <trkpt lat="48.8075" lon="-3.30322">
        <ele>76.1</ele>
        <time>2019-07-11T06:41:20Z</time>
      </trkpt>
      <trkpt lat="48.80752" lon="-3.30325">
        <ele>76.8</ele>
        <time>2019-07-11T06:41:21Z</time>
      </trkpt>
      <trkpt lat="48.80753" lon="-3.30328">
        <ele>77.6</ele>
        <time>2019-07-11T06:41:22Z</time>
      </trkpt>
      <trkpt lat="48.80753" lon="-3.30331">
        <ele>78.3</ele>
        <time>2019-07-11T06:41:23Z</time>
      </trkpt>
      <trkpt lat="48.80753" lon="-3.30335">
        <ele>79.1</ele>
        <time>2019-07-11T06:41:24Z</time>
      </trkpt>
      <trkpt lat="48.80752" lon="-3.30339">
        <ele>79.5</ele>
        <time>2019-07-11T06:41:25Z</time>
      </trkpt>
      <trkpt lat="48.80751" lon="-3.30344">
        <ele>79.9</ele>
        <time>2019-07-11T06:41:26Z</time>
      </trkpt>
      <trkpt lat="48.80749" lon="-3.30348">
        <ele>79.6</ele>
        <time>2019-07-11T06:41:27Z</time>
      </trkpt>
      <trkpt lat="48.80747" lon="-3.30352">
        <ele>80</ele>
        <time>2019-07-11T06:41:28Z</time>
      </trkpt>
      <trkpt lat="48.80746" lon="-3.30357">
        <ele>80.1</ele>
        <time>2019-07-11T06:41:29Z</time>
      </trkpt>
      <trkpt lat="48.80744" lon="-3.30362">
        <ele>79.8</ele>
        <time>2019-07-11T06:41:30Z</time>
      </trkpt>
      <trkpt lat="48.80743" lon="-3.30368">
        <ele>79.5</ele>
        <time>2019-07-11T06:41:31Z</time>
      </trkpt>
      <trkpt lat="48.80742" lon="-3.30373">
        <ele>79</ele>
        <time>2019-07-11T06:41:32Z</time>
      </trkpt>
      <trkpt lat="48.8074" lon="-3.30377">
        <ele>79</ele>
        <time>2019-07-11T06:41:33Z</time>
      </trkpt>
      <trkpt lat="48.80739" lon="-3.30382">
        <ele>79.2</ele>
        <time>2019-07-11T06:41:34Z</time>
      </trkpt>
      <trkpt lat="48.80738" lon="-3.30386">
        <ele>80</ele>
        <time>2019-07-11T06:41:35Z</time>
      </trkpt>
      <trkpt lat="48.80737" lon="-3.30391">
        <ele>79.9</ele>
        <time>2019-07-11T06:41:36Z</time>
      </trkpt>
      <trkpt lat="48.80736" lon="-3.30395">
        <ele>80.1</ele>
        <time>2019-07-11T06:41:37Z</time>
      </trkpt>
      <trkpt lat="48.80735" lon="-3.30401">
        <ele>79.9</ele>
        <time>2019-07-11T06:41:38Z</time>
      </trkpt>
      <trkpt lat="48.80734" lon="-3.30405">
        <ele>80.3</ele>
        <time>2019-07-11T06:41:39Z</time>
      </trkpt>
      <trkpt lat="48.80733" lon="-3.3041">
        <ele>80.6</ele>
        <time>2019-07-11T06:41:40Z</time>
      </trkpt>
      <trkpt lat="48.80732" lon="-3.30415">
        <ele>80.3</ele>
        <time>2019-07-11T06:41:41Z</time>
      </trkpt>
      <trkpt lat="48.8073" lon="-3.30421">
        <ele>80.7</ele>
        <time>2019-07-11T06:41:42Z</time>
      </trkpt>
      <trkpt lat="48.80729" lon="-3.30426">
        <ele>80.6</ele>
        <time>2019-07-11T06:41:43Z</time>
      </trkpt>
      <trkpt lat="48.80727" lon="-3.30431">
        <ele>80.7</ele>
        <time>2019-07-11T06:41:44Z</time>
      </trkpt>
      <trkpt lat="48.80726" lon="-3.30436">
        <ele>81.1</ele>
        <time>2019-07-11T06:41:45Z</time>
      </trkpt>
      <trkpt lat="48.80724" lon="-3.30441">
        <ele>81.3</ele>
        <time>2019-07-11T06:41:46Z</time>
      </trkpt>
      <trkpt lat="48.80723" lon="-3.30446">
        <ele>81.5</ele>
        <time>2019-07-11T06:41:47Z</time>
      </trkpt>
      <trkpt lat="48.80722" lon="-3.30451">
        <ele>81.5</ele>
        <time>2019-07-11T06:41:48Z</time>
      </trkpt>
      <trkpt lat="48.80721" lon="-3.30457">
        <ele>81.4</ele>
        <time>2019-07-11T06:41:49Z</time>
      </trkpt>
      <trkpt lat="48.80719" lon="-3.30462">
        <ele>81.3</ele>
        <time>2019-07-11T06:41:50Z</time>
      </trkpt>
      <trkpt lat="48.80718" lon="-3.30467">
        <ele>81.3</ele>
        <time>2019-07-11T06:41:51Z</time>
      </trkpt>
      <trkpt lat="48.80717" lon="-3.30473">
        <ele>81.2</ele>
        <time>2019-07-11T06:41:52Z</time>
      </trkpt>
      <trkpt lat="48.80716" lon="-3.30478">
        <ele>81.1</ele>
        <time>2019-07-11T06:41:53Z</time>
      </trkpt>
      <trkpt lat="48.80714" lon="-3.30484">
        <ele>80.8</ele>
        <time>2019-07-11T06:41:54Z</time>
      </trkpt>
      <trkpt lat="48.80713" lon="-3.30489">
        <ele>80.6</ele>
        <time>2019-07-11T06:41:55Z</time>
      </trkpt>
      <trkpt lat="48.80711" lon="-3.30494">
        <ele>80.3</ele>
        <time>2019-07-11T06:41:56Z</time>
      </trkpt>
      <trkpt lat="48.8071" lon="-3.30499">
        <ele>80.5</ele>
        <time>2019-07-11T06:41:57Z</time>
      </trkpt>
      <trkpt lat="48.80709" lon="-3.30504">
        <ele>80.5</ele>
        <time>2019-07-11T06:41:58Z</time>
      </trkpt>
      <trkpt lat="48.80708" lon="-3.30509">
        <ele>80.5</ele>
        <time>2019-07-11T06:41:59Z</time>
      </trkpt>
      <trkpt lat="48.80706" lon="-3.30514">
        <ele>80.2</ele>
        <time>2019-07-11T06:42:00Z</time>
      </trkpt>
      <trkpt lat="48.80705" lon="-3.30519">
        <ele>79.9</ele>
        <time>2019-07-11T06:42:01Z</time>
      </trkpt>
      <trkpt lat="48.80703" lon="-3.30524">
        <ele>79.3</ele>
        <time>2019-07-11T06:42:02Z</time>
      </trkpt>
      <trkpt lat="48.80701" lon="-3.30529">
        <ele>78.6</ele>
        <time>2019-07-11T06:42:03Z</time>
      </trkpt>
      <trkpt lat="48.807" lon="-3.30533">
        <ele>78.8</ele>
        <time>2019-07-11T06:42:04Z</time>
      </trkpt>
      <trkpt lat="48.80698" lon="-3.30538">
        <ele>79.2</ele>
        <time>2019-07-11T06:42:05Z</time>
      </trkpt>
      <trkpt lat="48.80696" lon="-3.30542">
        <ele>79.3</ele>
        <time>2019-07-11T06:42:06Z</time>
      </trkpt>
      <trkpt lat="48.80694" lon="-3.30547">
        <ele>78.9</ele>
        <time>2019-07-11T06:42:07Z</time>
      </trkpt>
      <trkpt lat="48.80693" lon="-3.30551">
        <ele>79</ele>
        <time>2019-07-11T06:42:08Z</time>
      </trkpt>
      <trkpt lat="48.80691" lon="-3.30554">
        <ele>78.5</ele>
        <time>2019-07-11T06:42:09Z</time>
      </trkpt>
      <trkpt lat="48.80689" lon="-3.30558">
        <ele>78.6</ele>
        <time>2019-07-11T06:42:10Z</time>
      </trkpt>
      <trkpt lat="48.80688" lon="-3.30561">
        <ele>78.7</ele>
        <time>2019-07-11T06:42:11Z</time>
      </trkpt>
      <trkpt lat="48.80686" lon="-3.30566">
        <ele>79.1</ele>
        <time>2019-07-11T06:42:12Z</time>
      </trkpt>
      <trkpt lat="48.80686" lon="-3.3057">
        <ele>79.4</ele>
        <time>2019-07-11T06:42:13Z</time>
      </trkpt>
      <trkpt lat="48.80686" lon="-3.30577">
        <ele>79.1</ele>
        <time>2019-07-11T06:42:14Z</time>
      </trkpt>
      <trkpt lat="48.80687" lon="-3.30583">
        <ele>79.1</ele>
        <time>2019-07-11T06:42:15Z</time>
      </trkpt>
      <trkpt lat="48.80689" lon="-3.30589">
        <ele>80.1</ele>
        <time>2019-07-11T06:42:16Z</time>
      </trkpt>
      <trkpt lat="48.80689" lon="-3.30595">
        <ele>81.3</ele>
        <time>2019-07-11T06:42:17Z</time>
      </trkpt>
      <trkpt lat="48.80692" lon="-3.30601">
        <ele>81.7</ele>
        <time>2019-07-11T06:42:18Z</time>
      </trkpt>
      <trkpt lat="48.80694" lon="-3.30606">
        <ele>81.9</ele>
        <time>2019-07-11T06:42:19Z</time>
      </trkpt>
      <trkpt lat="48.80697" lon="-3.30611">
        <ele>82</ele>
        <time>2019-07-11T06:42:20Z</time>
      </trkpt>
      <trkpt lat="48.80699" lon="-3.30616">
        <ele>81.5</ele>
        <time>2019-07-11T06:42:21Z</time>
      </trkpt>
      <trkpt lat="48.80701" lon="-3.30621">
        <ele>81.8</ele>
        <time>2019-07-11T06:42:22Z</time>
      </trkpt>
      <trkpt lat="48.80704" lon="-3.30625">
        <ele>81.8</ele>
        <time>2019-07-11T06:42:23Z</time>
      </trkpt>
      <trkpt lat="48.80707" lon="-3.3063">
        <ele>81.4</ele>
        <time>2019-07-11T06:42:24Z</time>
      </trkpt>
      <trkpt lat="48.8071" lon="-3.30634">
        <ele>81.6</ele>
        <time>2019-07-11T06:42:25Z</time>
      </trkpt>
      <trkpt lat="48.80713" lon="-3.30637">
        <ele>82.9</ele>
        <time>2019-07-11T06:42:26Z</time>
      </trkpt>
      <trkpt lat="48.80716" lon="-3.3064">
        <ele>83.4</ele>
        <time>2019-07-11T06:42:27Z</time>
      </trkpt>
      <trkpt lat="48.80719" lon="-3.30643">
        <ele>83.3</ele>
        <time>2019-07-11T06:42:28Z</time>
      </trkpt>
      <trkpt lat="48.80722" lon="-3.30648">
        <ele>82.7</ele>
        <time>2019-07-11T06:42:29Z</time>
      </trkpt>
      <trkpt lat="48.80726" lon="-3.30651">
        <ele>82.5</ele>
        <time>2019-07-11T06:42:30Z</time>
      </trkpt>
      <trkpt lat="48.80729" lon="-3.30655">
        <ele>84</ele>
        <time>2019-07-11T06:42:31Z</time>
      </trkpt>
      <trkpt lat="48.80732" lon="-3.30658">
        <ele>84.4</ele>
        <time>2019-07-11T06:42:32Z</time>
      </trkpt>
      <trkpt lat="48.80736" lon="-3.30661">
        <ele>84.6</ele>
        <time>2019-07-11T06:42:33Z</time>
      </trkpt>
      <trkpt lat="48.8074" lon="-3.30664">
        <ele>83.8</ele>
        <time>2019-07-11T06:42:34Z</time>
      </trkpt>
      <trkpt lat="48.80744" lon="-3.30667">
        <ele>83.2</ele>
        <time>2019-07-11T06:42:35Z</time>
      </trkpt>
      <trkpt lat="48.80748" lon="-3.3067">
        <ele>82.8</ele>
        <time>2019-07-11T06:42:36Z</time>
      </trkpt>
      <trkpt lat="48.80752" lon="-3.30673">
        <ele>82.3</ele>
        <time>2019-07-11T06:42:37Z</time>
      </trkpt>
      <trkpt lat="48.80756" lon="-3.30676">
        <ele>82.1</ele>
        <time>2019-07-11T06:42:38Z</time>
      </trkpt>
      <trkpt lat="48.8076" lon="-3.30679">
        <ele>82</ele>
        <time>2019-07-11T06:42:39Z</time>
      </trkpt>
      <trkpt lat="48.80764" lon="-3.30682">
        <ele>82</ele>
        <time>2019-07-11T06:42:40Z</time>
      </trkpt>
      <trkpt lat="48.80768" lon="-3.30684">
        <ele>82.2</ele>
        <time>2019-07-11T06:42:41Z</time>
      </trkpt>
      <trkpt lat="48.80772" lon="-3.30687">
        <ele>82.4</ele>
        <time>2019-07-11T06:42:42Z</time>
      </trkpt>
      <trkpt lat="48.80776" lon="-3.3069">
        <ele>82.7</ele>
        <time>2019-07-11T06:42:43Z</time>
      </trkpt>
      <trkpt lat="48.80779" lon="-3.30693">
        <ele>82.4</ele>
        <time>2019-07-11T06:42:44Z</time>
      </trkpt>
      <trkpt lat="48.80782" lon="-3.30696">
        <ele>82.1</ele>
        <time>2019-07-11T06:42:45Z</time>
      </trkpt>
      <trkpt lat="48.80786" lon="-3.30699">
        <ele>81.8</ele>
        <time>2019-07-11T06:42:46Z</time>
      </trkpt>
      <trkpt lat="48.80789" lon="-3.30702">
        <ele>81.8</ele>
        <time>2019-07-11T06:42:47Z</time>
      </trkpt>
      <trkpt lat="48.80792" lon="-3.30705">
        <ele>81.5</ele>
        <time>2019-07-11T06:42:48Z</time>
      </trkpt>
      <trkpt lat="48.80795" lon="-3.30708">
        <ele>82</ele>
        <time>2019-07-11T06:42:49Z</time>
      </trkpt>
      <trkpt lat="48.80797" lon="-3.30712">
        <ele>82.4</ele>
        <time>2019-07-11T06:42:50Z</time>
      </trkpt>
      <trkpt lat="48.808" lon="-3.30717">
        <ele>82.5</ele>
        <time>2019-07-11T06:42:51Z</time>
      </trkpt>
      <trkpt lat="48.80801" lon="-3.30721">
        <ele>82.3</ele>
        <time>2019-07-11T06:42:52Z</time>
      </trkpt>
      <trkpt lat="48.80803" lon="-3.30727">
        <ele>81.6</ele>
        <time>2019-07-11T06:42:53Z</time>
      </trkpt>
      <trkpt lat="48.80804" lon="-3.30732">
        <ele>81.5</ele>
        <time>2019-07-11T06:42:54Z</time>
      </trkpt>
      <trkpt lat="48.80805" lon="-3.30738">
        <ele>80.7</ele>
        <time>2019-07-11T06:42:55Z</time>
      </trkpt>
      <trkpt lat="48.80806" lon="-3.30743">
        <ele>80.4</ele>
        <time>2019-07-11T06:42:56Z</time>
      </trkpt>
      <trkpt lat="48.80807" lon="-3.30748">
        <ele>79.7</ele>
        <time>2019-07-11T06:42:57Z</time>
      </trkpt>
      <trkpt lat="48.80808" lon="-3.30755">
        <ele>79.4</ele>
        <time>2019-07-11T06:42:58Z</time>
      </trkpt>
      <trkpt lat="48.80808" lon="-3.30761">
        <ele>79.3</ele>
        <time>2019-07-11T06:42:59Z</time>
      </trkpt>
      <trkpt lat="48.80808" lon="-3.30768">
        <ele>79</ele>
        <time>2019-07-11T06:43:00Z</time>
      </trkpt>
      <trkpt lat="48.80808" lon="-3.30775">
        <ele>79.1</ele>
        <time>2019-07-11T06:43:01Z</time>
      </trkpt>
      <trkpt lat="48.80808" lon="-3.30781">
        <ele>79.2</ele>
        <time>2019-07-11T06:43:02Z</time>
      </trkpt>
      <trkpt lat="48.80808" lon="-3.30788">
        <ele>78.9</ele>
        <time>2019-07-11T06:43:03Z</time>
      </trkpt>
      <trkpt lat="48.80808" lon="-3.30794">
        <ele>78.7</ele>
        <time>2019-07-11T06:43:04Z</time>
      </trkpt>
      <trkpt lat="48.80808" lon="-3.30801">
        <ele>78.4</ele>
        <time>2019-07-11T06:43:05Z</time>
      </trkpt>
      <trkpt lat="48.80808" lon="-3.30808">
        <ele>79.1</ele>
        <time>2019-07-11T06:43:06Z</time>
      </trkpt>
      <trkpt lat="48.80807" lon="-3.30814">
        <ele>79.4</ele>
        <time>2019-07-11T06:43:07Z</time>
      </trkpt>
      <trkpt lat="48.80806" lon="-3.30821">
        <ele>80.1</ele>
        <time>2019-07-11T06:43:08Z</time>
      </trkpt>
      <trkpt lat="48.80806" lon="-3.30827">
        <ele>80.2</ele>
        <time>2019-07-11T06:43:09Z</time>
      </trkpt>
      <trkpt lat="48.80806" lon="-3.30834">
        <ele>80.2</ele>
        <time>2019-07-11T06:43:10Z</time>
      </trkpt>
      <trkpt lat="48.80805" lon="-3.3084">
        <ele>80.2</ele>
        <time>2019-07-11T06:43:11Z</time>
      </trkpt>
      <trkpt lat="48.80805" lon="-3.30846">
        <ele>80.2</ele>
        <time>2019-07-11T06:43:12Z</time>
      </trkpt>
      <trkpt lat="48.80804" lon="-3.30852">
        <ele>80.2</ele>
        <time>2019-07-11T06:43:13Z</time>
      </trkpt>
      <trkpt lat="48.80804" lon="-3.30858">
        <ele>80.5</ele>
        <time>2019-07-11T06:43:14Z</time>
      </trkpt>
      <trkpt lat="48.80803" lon="-3.30863">
        <ele>81</ele>
        <time>2019-07-11T06:43:15Z</time>
      </trkpt>
      <trkpt lat="48.80803" lon="-3.30869">
        <ele>81.2</ele>
        <time>2019-07-11T06:43:16Z</time>
      </trkpt>
      <trkpt lat="48.80802" lon="-3.30875">
        <ele>81.3</ele>
        <time>2019-07-11T06:43:17Z</time>
      </trkpt>
      <trkpt lat="48.80801" lon="-3.30881">
        <ele>81.4</ele>
        <time>2019-07-11T06:43:18Z</time>
      </trkpt>
      <trkpt lat="48.80801" lon="-3.30887">
        <ele>81.4</ele>
        <time>2019-07-11T06:43:19Z</time>
      </trkpt>
      <trkpt lat="48.808" lon="-3.30893">
        <ele>81</ele>
        <time>2019-07-11T06:43:20Z</time>
      </trkpt>
      <trkpt lat="48.808" lon="-3.30899">
        <ele>80.3</ele>
        <time>2019-07-11T06:43:21Z</time>
      </trkpt>
      <trkpt lat="48.80799" lon="-3.30905">
        <ele>80</ele>
        <time>2019-07-11T06:43:22Z</time>
      </trkpt>
      <trkpt lat="48.80798" lon="-3.30912">
        <ele>79.4</ele>
        <time>2019-07-11T06:43:23Z</time>
      </trkpt>
      <trkpt lat="48.80797" lon="-3.30918">
        <ele>79.4</ele>
        <time>2019-07-11T06:43:24Z</time>
      </trkpt>
      <trkpt lat="48.80796" lon="-3.30923">
        <ele>79.5</ele>
        <time>2019-07-11T06:43:25Z</time>
      </trkpt>
      <trkpt lat="48.80795" lon="-3.30929">
        <ele>79.6</ele>
        <time>2019-07-11T06:43:26Z</time>
      </trkpt>
      <trkpt lat="48.80794" lon="-3.30935">
        <ele>79.8</ele>
        <time>2019-07-11T06:43:27Z</time>
      </trkpt>
      <trkpt lat="48.80793" lon="-3.30941">
        <ele>80.3</ele>
        <time>2019-07-11T06:43:28Z</time>
      </trkpt>
      <trkpt lat="48.80792" lon="-3.30947">
        <ele>80.7</ele>
        <time>2019-07-11T06:43:29Z</time>
      </trkpt>
      <trkpt lat="48.80791" lon="-3.30952">
        <ele>80.6</ele>
        <time>2019-07-11T06:43:30Z</time>
      </trkpt>
      <trkpt lat="48.8079" lon="-3.30958">
        <ele>80.3</ele>
        <time>2019-07-11T06:43:31Z</time>
      </trkpt>
      <trkpt lat="48.80788" lon="-3.30964">
        <ele>80.8</ele>
        <time>2019-07-11T06:43:32Z</time>
      </trkpt>
      <trkpt lat="48.80787" lon="-3.3097">
        <ele>80.6</ele>
        <time>2019-07-11T06:43:33Z</time>
      </trkpt>
      <trkpt lat="48.80785" lon="-3.30975">
        <ele>80.3</ele>
        <time>2019-07-11T06:43:34Z</time>
      </trkpt>
      <trkpt lat="48.80784" lon="-3.3098">
        <ele>80.3</ele>
        <time>2019-07-11T06:43:35Z</time>
      </trkpt>
      <trkpt lat="48.80781" lon="-3.30985">
        <ele>80.3</ele>
        <time>2019-07-11T06:43:36Z</time>
      </trkpt>
      <trkpt lat="48.80779" lon="-3.3099">
        <ele>80.5</ele>
        <time>2019-07-11T06:43:37Z</time>
      </trkpt>
      <trkpt lat="48.80776" lon="-3.30994">
        <ele>80.8</ele>
        <time>2019-07-11T06:43:38Z</time>
      </trkpt>
      <trkpt lat="48.80773" lon="-3.30998">
        <ele>81</ele>
        <time>2019-07-11T06:43:39Z</time>
      </trkpt>
      <trkpt lat="48.8077" lon="-3.31002">
        <ele>81.3</ele>
        <time>2019-07-11T06:43:40Z</time>
      </trkpt>
      <trkpt lat="48.80767" lon="-3.31006">
        <ele>80.8</ele>
        <time>2019-07-11T06:43:41Z</time>
      </trkpt>
      <trkpt lat="48.80763" lon="-3.31009">
        <ele>80.9</ele>
        <time>2019-07-11T06:43:42Z</time>
      </trkpt>
      <trkpt lat="48.80759" lon="-3.31012">
        <ele>80.5</ele>
        <time>2019-07-11T06:43:43Z</time>
      </trkpt>
      <trkpt lat="48.80756" lon="-3.31014">
        <ele>80.1</ele>
        <time>2019-07-11T06:43:44Z</time>
      </trkpt>
      <trkpt lat="48.80752" lon="-3.31016">
        <ele>80.1</ele>
        <time>2019-07-11T06:43:45Z</time>
      </trkpt>
      <trkpt lat="48.80748" lon="-3.31017">
        <ele>80.3</ele>
        <time>2019-07-11T06:43:46Z</time>
      </trkpt>
      <trkpt lat="48.80745" lon="-3.31018">
        <ele>80.6</ele>
        <time>2019-07-11T06:43:47Z</time>
      </trkpt>
      <trkpt lat="48.80742" lon="-3.31019">
        <ele>80.2</ele>
        <time>2019-07-11T06:43:48Z</time>
      </trkpt>
      <trkpt lat="48.80738" lon="-3.3102">
        <ele>80.6</ele>
        <time>2019-07-11T06:43:49Z</time>
      </trkpt>
      <trkpt lat="48.80734" lon="-3.31021">
        <ele>81</ele>
        <time>2019-07-11T06:43:50Z</time>
      </trkpt>
      <trkpt lat="48.8073" lon="-3.31023">
        <ele>81.4</ele>
        <time>2019-07-11T06:43:51Z</time>
      </trkpt>
      <trkpt lat="48.80727" lon="-3.31024">
        <ele>81.8</ele>
        <time>2019-07-11T06:43:52Z</time>
      </trkpt>
      <trkpt lat="48.80723" lon="-3.31026">
        <ele>81.7</ele>
        <time>2019-07-11T06:43:53Z</time>
      </trkpt>
      <trkpt lat="48.8072" lon="-3.31029">
        <ele>81.3</ele>
        <time>2019-07-11T06:43:54Z</time>
      </trkpt>
      <trkpt lat="48.80718" lon="-3.31031">
        <ele>81.2</ele>
        <time>2019-07-11T06:43:55Z</time>
      </trkpt>
      <trkpt lat="48.80714" lon="-3.31034">
        <ele>80.5</ele>
        <time>2019-07-11T06:43:56Z</time>
      </trkpt>
      <trkpt lat="48.80712" lon="-3.31038">
        <ele>80.1</ele>
        <time>2019-07-11T06:43:57Z</time>
      </trkpt>
      <trkpt lat="48.8071" lon="-3.31041">
        <ele>80.1</ele>
        <time>2019-07-11T06:43:58Z</time>
      </trkpt>
      <trkpt lat="48.80708" lon="-3.31045">
        <ele>80.5</ele>
        <time>2019-07-11T06:43:59Z</time>
      </trkpt>
      <trkpt lat="48.80706" lon="-3.31048">
        <ele>80</ele>
        <time>2019-07-11T06:44:00Z</time>
      </trkpt>
      <trkpt lat="48.80703" lon="-3.31052">
        <ele>79.8</ele>
        <time>2019-07-11T06:44:01Z</time>
      </trkpt>
      <trkpt lat="48.80702" lon="-3.31056">
        <ele>79.8</ele>
        <time>2019-07-11T06:44:02Z</time>
      </trkpt>
      <trkpt lat="48.807" lon="-3.3106">
        <ele>80.1</ele>
        <time>2019-07-11T06:44:03Z</time>
      </trkpt>
      <trkpt lat="48.80698" lon="-3.31064">
        <ele>80</ele>
        <time>2019-07-11T06:44:04Z</time>
      </trkpt>
      <trkpt lat="48.80697" lon="-3.31068">
        <ele>80.4</ele>
        <time>2019-07-11T06:44:05Z</time>
      </trkpt>
      <trkpt lat="48.80695" lon="-3.31072">
        <ele>80.7</ele>
        <time>2019-07-11T06:44:06Z</time>
      </trkpt>
      <trkpt lat="48.80694" lon="-3.31077">
        <ele>80.8</ele>
        <time>2019-07-11T06:44:07Z</time>
      </trkpt>
      <trkpt lat="48.80693" lon="-3.31081">
        <ele>81.1</ele>
        <time>2019-07-11T06:44:08Z</time>
      </trkpt>
      <trkpt lat="48.80692" lon="-3.31085">
        <ele>81.3</ele>
        <time>2019-07-11T06:44:09Z</time>
      </trkpt>
      <trkpt lat="48.80691" lon="-3.3109">
        <ele>81.3</ele>
        <time>2019-07-11T06:44:10Z</time>
      </trkpt>
      <trkpt lat="48.8069" lon="-3.31094">
        <ele>81.4</ele>
        <time>2019-07-11T06:44:11Z</time>
      </trkpt>
      <trkpt lat="48.80689" lon="-3.31098">
        <ele>81.9</ele>
        <time>2019-07-11T06:44:12Z</time>
      </trkpt>
      <trkpt lat="48.80688" lon="-3.31102">
        <ele>81.3</ele>
        <time>2019-07-11T06:44:13Z</time>
      </trkpt>
      <trkpt lat="48.80687" lon="-3.31106">
        <ele>81.6</ele>
        <time>2019-07-11T06:44:14Z</time>
      </trkpt>
      <trkpt lat="48.80685" lon="-3.31111">
        <ele>82.3</ele>
        <time>2019-07-11T06:44:15Z</time>
      </trkpt>
      <trkpt lat="48.80684" lon="-3.31115">
        <ele>82.6</ele>
        <time>2019-07-11T06:44:16Z</time>
      </trkpt>
      <trkpt lat="48.80683" lon="-3.31119">
        <ele>82.8</ele>
        <time>2019-07-11T06:44:17Z</time>
      </trkpt>
      <trkpt lat="48.80682" lon="-3.31124">
        <ele>83</ele>
        <time>2019-07-11T06:44:18Z</time>
      </trkpt>
      <trkpt lat="48.80681" lon="-3.31128">
        <ele>83.7</ele>
        <time>2019-07-11T06:44:19Z</time>
      </trkpt>
      <trkpt lat="48.80679" lon="-3.31132">
        <ele>82.9</ele>
        <time>2019-07-11T06:44:20Z</time>
      </trkpt>
      <trkpt lat="48.80678" lon="-3.31136">
        <ele>82.4</ele>
        <time>2019-07-11T06:44:21Z</time>
      </trkpt>
      <trkpt lat="48.80677" lon="-3.31141">
        <ele>82.8</ele>
        <time>2019-07-11T06:44:22Z</time>
      </trkpt>
      <trkpt lat="48.80676" lon="-3.31145">
        <ele>83.4</ele>
        <time>2019-07-11T06:44:23Z</time>
      </trkpt>
      <trkpt lat="48.80674" lon="-3.31149">
        <ele>83.4</ele>
        <time>2019-07-11T06:44:24Z</time>
      </trkpt>
      <trkpt lat="48.80673" lon="-3.31153">
        <ele>83.5</ele>
        <time>2019-07-11T06:44:25Z</time>
      </trkpt>
      <trkpt lat="48.80671" lon="-3.31157">
        <ele>84</ele>
        <time>2019-07-11T06:44:26Z</time>
      </trkpt>
      <trkpt lat="48.8067" lon="-3.31161">
        <ele>84</ele>
        <time>2019-07-11T06:44:27Z</time>
      </trkpt>
      <trkpt lat="48.80669" lon="-3.31166">
        <ele>84</ele>
        <time>2019-07-11T06:44:28Z</time>
      </trkpt>
      <trkpt lat="48.80667" lon="-3.3117">
        <ele>84</ele>
        <time>2019-07-11T06:44:29Z</time>
      </trkpt>
      <trkpt lat="48.80666" lon="-3.31174">
        <ele>84.2</ele>
        <time>2019-07-11T06:44:30Z</time>
      </trkpt>
      <trkpt lat="48.80664" lon="-3.31179">
        <ele>84.7</ele>
        <time>2019-07-11T06:44:31Z</time>
      </trkpt>
      <trkpt lat="48.80663" lon="-3.31183">
        <ele>84.7</ele>
        <time>2019-07-11T06:44:32Z</time>
      </trkpt>
      <trkpt lat="48.80662" lon="-3.31188">
        <ele>84.3</ele>
        <time>2019-07-11T06:44:33Z</time>
      </trkpt>
      <trkpt lat="48.80663" lon="-3.31193">
        <ele>84</ele>
        <time>2019-07-11T06:44:34Z</time>
      </trkpt>
      <trkpt lat="48.80664" lon="-3.31197">
        <ele>84</ele>
        <time>2019-07-11T06:44:35Z</time>
      </trkpt>
      <trkpt lat="48.80667" lon="-3.31201">
        <ele>83.2</ele>
        <time>2019-07-11T06:44:36Z</time>
      </trkpt>
      <trkpt lat="48.8067" lon="-3.31203">
        <ele>82.4</ele>
        <time>2019-07-11T06:44:37Z</time>
      </trkpt>
      <trkpt lat="48.80673" lon="-3.31205">
        <ele>81.8</ele>
        <time>2019-07-11T06:44:38Z</time>
      </trkpt>
      <trkpt lat="48.80677" lon="-3.31207">
        <ele>80.9</ele>
        <time>2019-07-11T06:44:39Z</time>
      </trkpt>
      <trkpt lat="48.80681" lon="-3.31209">
        <ele>80.1</ele>
        <time>2019-07-11T06:44:40Z</time>
      </trkpt>
      <trkpt lat="48.80685" lon="-3.31211">
        <ele>79.7</ele>
        <time>2019-07-11T06:44:41Z</time>
      </trkpt>
      <trkpt lat="48.8069" lon="-3.31213">
        <ele>79</ele>
        <time>2019-07-11T06:44:42Z</time>
      </trkpt>
      <trkpt lat="48.80694" lon="-3.31215">
        <ele>78.4</ele>
        <time>2019-07-11T06:44:43Z</time>
      </trkpt>
      <trkpt lat="48.80698" lon="-3.31217">
        <ele>78.1</ele>
        <time>2019-07-11T06:44:44Z</time>
      </trkpt>
      <trkpt lat="48.80703" lon="-3.31218">
        <ele>78.1</ele>
        <time>2019-07-11T06:44:45Z</time>
      </trkpt>
      <trkpt lat="48.80707" lon="-3.3122">
        <ele>77.7</ele>
        <time>2019-07-11T06:44:46Z</time>
      </trkpt>
      <trkpt lat="48.80712" lon="-3.31222">
        <ele>77.1</ele>
        <time>2019-07-11T06:44:47Z</time>
      </trkpt>
      <trkpt lat="48.80717" lon="-3.31225">
        <ele>76.6</ele>
        <time>2019-07-11T06:44:48Z</time>
      </trkpt>
      <trkpt lat="48.80722" lon="-3.31227">
        <ele>75.8</ele>
        <time>2019-07-11T06:44:49Z</time>
      </trkpt>
      <trkpt lat="48.80727" lon="-3.3123">
        <ele>75.5</ele>
        <time>2019-07-11T06:44:50Z</time>
      </trkpt>
      <trkpt lat="48.8074" lon="-3.31242">
        <ele>75.3</ele>
        <time>2019-07-11T06:44:53Z</time>
      </trkpt>
      <trkpt lat="48.80744" lon="-3.31247">
        <ele>75.2</ele>
        <time>2019-07-11T06:44:54Z</time>
      </trkpt>
      <trkpt lat="48.80747" lon="-3.31253">
        <ele>75.3</ele>
        <time>2019-07-11T06:44:55Z</time>
      </trkpt>
      <trkpt lat="48.8075" lon="-3.3126">
        <ele>75.6</ele>
        <time>2019-07-11T06:44:56Z</time>
      </trkpt>
      <trkpt lat="48.80752" lon="-3.31267">
        <ele>76.1</ele>
        <time>2019-07-11T06:44:57Z</time>
      </trkpt>
      <trkpt lat="48.80753" lon="-3.31274">
        <ele>76.5</ele>
        <time>2019-07-11T06:44:58Z</time>
      </trkpt>
      <trkpt lat="48.80755" lon="-3.31281">
        <ele>77</ele>
        <time>2019-07-11T06:44:59Z</time>
      </trkpt>
      <trkpt lat="48.80756" lon="-3.31288">
        <ele>77.3</ele>
        <time>2019-07-11T06:45:00Z</time>
      </trkpt>
      <trkpt lat="48.80758" lon="-3.31295">
        <ele>77.5</ele>
        <time>2019-07-11T06:45:01Z</time>
      </trkpt>
      <trkpt lat="48.80758" lon="-3.31302">
        <ele>77.9</ele>
        <time>2019-07-11T06:45:02Z</time>
      </trkpt>
      <trkpt lat="48.80759" lon="-3.31308">
        <ele>78.6</ele>
        <time>2019-07-11T06:45:03Z</time>
      </trkpt>
      <trkpt lat="48.80759" lon="-3.31313">
        <ele>79</ele>
        <time>2019-07-11T06:45:04Z</time>
      </trkpt>
      <trkpt lat="48.8076" lon="-3.31318">
        <ele>79.5</ele>
        <time>2019-07-11T06:45:05Z</time>
      </trkpt>
      <trkpt lat="48.80761" lon="-3.31324">
        <ele>79.5</ele>
        <time>2019-07-11T06:45:06Z</time>
      </trkpt>
      <trkpt lat="48.80762" lon="-3.31329">
        <ele>79.7</ele>
        <time>2019-07-11T06:45:07Z</time>
      </trkpt>
      <trkpt lat="48.80763" lon="-3.31333">
        <ele>80</ele>
        <time>2019-07-11T06:45:08Z</time>
      </trkpt>
      <trkpt lat="48.80763" lon="-3.31338">
        <ele>80.1</ele>
        <time>2019-07-11T06:45:09Z</time>
      </trkpt>
      <trkpt lat="48.80764" lon="-3.31342">
        <ele>80.5</ele>
        <time>2019-07-11T06:45:10Z</time>
      </trkpt>
      <trkpt lat="48.80765" lon="-3.31347">
        <ele>81</ele>
        <time>2019-07-11T06:45:11Z</time>
      </trkpt>
      <trkpt lat="48.80766" lon="-3.31352">
        <ele>81.4</ele>
        <time>2019-07-11T06:45:12Z</time>
      </trkpt>
      <trkpt lat="48.80767" lon="-3.31358">
        <ele>81.4</ele>
        <time>2019-07-11T06:45:13Z</time>
      </trkpt>
      <trkpt lat="48.80768" lon="-3.31363">
        <ele>81.7</ele>
        <time>2019-07-11T06:45:14Z</time>
      </trkpt>
      <trkpt lat="48.80769" lon="-3.31367">
        <ele>82.5</ele>
        <time>2019-07-11T06:45:15Z</time>
      </trkpt>
      <trkpt lat="48.80771" lon="-3.31372">
        <ele>82.8</ele>
        <time>2019-07-11T06:45:16Z</time>
      </trkpt>
      <trkpt lat="48.80772" lon="-3.31377">
        <ele>82.6</ele>
        <time>2019-07-11T06:45:17Z</time>
      </trkpt>
      <trkpt lat="48.80773" lon="-3.31381">
        <ele>83.3</ele>
        <time>2019-07-11T06:45:18Z</time>
      </trkpt>
      <trkpt lat="48.80774" lon="-3.31386">
        <ele>83.3</ele>
        <time>2019-07-11T06:45:19Z</time>
      </trkpt>
      <trkpt lat="48.80776" lon="-3.31391">
        <ele>83</ele>
        <time>2019-07-11T06:45:20Z</time>
      </trkpt>
      <trkpt lat="48.80776" lon="-3.31396">
        <ele>83</ele>
        <time>2019-07-11T06:45:21Z</time>
      </trkpt>
      <trkpt lat="48.80777" lon="-3.31401">
        <ele>83</ele>
        <time>2019-07-11T06:45:22Z</time>
      </trkpt>
      <trkpt lat="48.80778" lon="-3.31407">
        <ele>82.6</ele>
        <time>2019-07-11T06:45:23Z</time>
      </trkpt>
      <trkpt lat="48.80779" lon="-3.31412">
        <ele>82.7</ele>
        <time>2019-07-11T06:45:24Z</time>
      </trkpt>
      <trkpt lat="48.8078" lon="-3.31418">
        <ele>82.5</ele>
        <time>2019-07-11T06:45:25Z</time>
      </trkpt>
      <trkpt lat="48.80782" lon="-3.31423">
        <ele>82.3</ele>
        <time>2019-07-11T06:45:26Z</time>
      </trkpt>
      <trkpt lat="48.80783" lon="-3.31429">
        <ele>81.7</ele>
        <time>2019-07-11T06:45:27Z</time>
      </trkpt>
      <trkpt lat="48.80784" lon="-3.31434">
        <ele>81.3</ele>
        <time>2019-07-11T06:45:28Z</time>
      </trkpt>
      <trkpt lat="48.80786" lon="-3.31445">
        <ele>81.2</ele>
        <time>2019-07-11T06:45:30Z</time>
      </trkpt>
      <trkpt lat="48.80787" lon="-3.31451">
        <ele>81.5</ele>
        <time>2019-07-11T06:45:31Z</time>
      </trkpt>
      <trkpt lat="48.80788" lon="-3.31457">
        <ele>81.3</ele>
        <time>2019-07-11T06:45:32Z</time>
      </trkpt>
      <trkpt lat="48.80788" lon="-3.31463">
        <ele>81.4</ele>
        <time>2019-07-11T06:45:33Z</time>
      </trkpt>
      <trkpt lat="48.80789" lon="-3.31469">
        <ele>82</ele>
        <time>2019-07-11T06:45:34Z</time>
      </trkpt>
      <trkpt lat="48.8079" lon="-3.31476">
        <ele>82.1</ele>
        <time>2019-07-11T06:45:35Z</time>
      </trkpt>
      <trkpt lat="48.80791" lon="-3.31483">
        <ele>81.8</ele>
        <time>2019-07-11T06:45:36Z</time>
      </trkpt>
      <trkpt lat="48.80792" lon="-3.31489">
        <ele>82</ele>
        <time>2019-07-11T06:45:37Z</time>
      </trkpt>
      <trkpt lat="48.80793" lon="-3.31497">
        <ele>81.5</ele>
        <time>2019-07-11T06:45:38Z</time>
      </trkpt>
      <trkpt lat="48.80793" lon="-3.31504">
        <ele>81.2</ele>
        <time>2019-07-11T06:45:39Z</time>
      </trkpt>
      <trkpt lat="48.80795" lon="-3.31511">
        <ele>80.5</ele>
        <time>2019-07-11T06:45:40Z</time>
      </trkpt>
      <trkpt lat="48.80796" lon="-3.31517">
        <ele>80</ele>
        <time>2019-07-11T06:45:41Z</time>
      </trkpt>
      <trkpt lat="48.80797" lon="-3.31523">
        <ele>79.5</ele>
        <time>2019-07-11T06:45:42Z</time>
      </trkpt>
      <trkpt lat="48.80799" lon="-3.3153">
        <ele>79</ele>
        <time>2019-07-11T06:45:43Z</time>
      </trkpt>
      <trkpt lat="48.808" lon="-3.31536">
        <ele>78.1</ele>
        <time>2019-07-11T06:45:44Z</time>
      </trkpt>
      <trkpt lat="48.80802" lon="-3.31542">
        <ele>78</ele>
        <time>2019-07-11T06:45:45Z</time>
      </trkpt>
      <trkpt lat="48.80804" lon="-3.31547">
        <ele>78.1</ele>
        <time>2019-07-11T06:45:46Z</time>
      </trkpt>
      <trkpt lat="48.80806" lon="-3.31553">
        <ele>78.7</ele>
        <time>2019-07-11T06:45:47Z</time>
      </trkpt>
      <trkpt lat="48.80808" lon="-3.31559">
        <ele>79</ele>
        <time>2019-07-11T06:45:48Z</time>
      </trkpt>
      <trkpt lat="48.80809" lon="-3.31564">
        <ele>79.3</ele>
        <time>2019-07-11T06:45:49Z</time>
      </trkpt>
      <trkpt lat="48.80811" lon="-3.3157">
        <ele>79.7</ele>
        <time>2019-07-11T06:45:50Z</time>
      </trkpt>
      <trkpt lat="48.80814" lon="-3.31575">
        <ele>80.3</ele>
        <time>2019-07-11T06:45:51Z</time>
      </trkpt>
      <trkpt lat="48.80816" lon="-3.3158">
        <ele>80.6</ele>
        <time>2019-07-11T06:45:52Z</time>
      </trkpt>
      <trkpt lat="48.80819" lon="-3.31585">
        <ele>80.9</ele>
        <time>2019-07-11T06:45:53Z</time>
      </trkpt>
      <trkpt lat="48.80821" lon="-3.31591">
        <ele>80.7</ele>
        <time>2019-07-11T06:45:54Z</time>
      </trkpt>
      <trkpt lat="48.80824" lon="-3.31597">
        <ele>80.5</ele>
        <time>2019-07-11T06:45:55Z</time>
      </trkpt>
      <trkpt lat="48.80827" lon="-3.31602">
        <ele>80.8</ele>
        <time>2019-07-11T06:45:56Z</time>
      </trkpt>
      <trkpt lat="48.80831" lon="-3.31607">
        <ele>81.4</ele>
        <time>2019-07-11T06:45:57Z</time>
      </trkpt>
      <trkpt lat="48.80835" lon="-3.31612">
        <ele>80.8</ele>
        <time>2019-07-11T06:45:58Z</time>
      </trkpt>
      <trkpt lat="48.80839" lon="-3.31617">
        <ele>80.5</ele>
        <time>2019-07-11T06:45:59Z</time>
      </trkpt>
      <trkpt lat="48.80843" lon="-3.31622">
        <ele>79.6</ele>
        <time>2019-07-11T06:46:00Z</time>
      </trkpt>
      <trkpt lat="48.80848" lon="-3.31626">
        <ele>79.4</ele>
        <time>2019-07-11T06:46:01Z</time>
      </trkpt>
      <trkpt lat="48.80852" lon="-3.31631">
        <ele>79.1</ele>
        <time>2019-07-11T06:46:02Z</time>
      </trkpt>
      <trkpt lat="48.80857" lon="-3.31635">
        <ele>78.5</ele>
        <time>2019-07-11T06:46:03Z</time>
      </trkpt>
      <trkpt lat="48.80862" lon="-3.3164">
        <ele>77.9</ele>
        <time>2019-07-11T06:46:04Z</time>
      </trkpt>
      <trkpt lat="48.80867" lon="-3.31644">
        <ele>77.7</ele>
        <time>2019-07-11T06:46:05Z</time>
      </trkpt>
      <trkpt lat="48.80872" lon="-3.31648">
        <ele>77.2</ele>
        <time>2019-07-11T06:46:06Z</time>
      </trkpt>
      <trkpt lat="48.80877" lon="-3.31652">
        <ele>77.1</ele>
        <time>2019-07-11T06:46:07Z</time>
      </trkpt>
      <trkpt lat="48.80882" lon="-3.31657">
        <ele>76.5</ele>
        <time>2019-07-11T06:46:08Z</time>
      </trkpt>
      <trkpt lat="48.80887" lon="-3.31661">
        <ele>76.2</ele>
        <time>2019-07-11T06:46:09Z</time>
      </trkpt>
      <trkpt lat="48.80892" lon="-3.31665">
        <ele>76.2</ele>
        <time>2019-07-11T06:46:10Z</time>
      </trkpt>
      <trkpt lat="48.80897" lon="-3.31669">
        <ele>75.9</ele>
        <time>2019-07-11T06:46:11Z</time>
      </trkpt>
      <trkpt lat="48.80902" lon="-3.31673">
        <ele>75.6</ele>
        <time>2019-07-11T06:46:12Z</time>
      </trkpt>
      <trkpt lat="48.80907" lon="-3.31676">
        <ele>75.3</ele>
        <time>2019-07-11T06:46:13Z</time>
      </trkpt>
      <trkpt lat="48.80912" lon="-3.3168">
        <ele>75.1</ele>
        <time>2019-07-11T06:46:14Z</time>
      </trkpt>
      <trkpt lat="48.80917" lon="-3.31683">
        <ele>74.9</ele>
        <time>2019-07-11T06:46:15Z</time>
      </trkpt>
      <trkpt lat="48.80922" lon="-3.31686">
        <ele>74.7</ele>
        <time>2019-07-11T06:46:16Z</time>
      </trkpt>
      <trkpt lat="48.80927" lon="-3.31689">
        <ele>74.2</ele>
        <time>2019-07-11T06:46:17Z</time>
      </trkpt>
      <trkpt lat="48.80932" lon="-3.31691">
        <ele>74</ele>
        <time>2019-07-11T06:46:18Z</time>
      </trkpt>
      <trkpt lat="48.80937" lon="-3.31693">
        <ele>73.6</ele>
        <time>2019-07-11T06:46:19Z</time>
      </trkpt>
      <trkpt lat="48.80941" lon="-3.31695">
        <ele>73.3</ele>
        <time>2019-07-11T06:46:20Z</time>
      </trkpt>
      <trkpt lat="48.80945" lon="-3.31697">
        <ele>73.1</ele>
        <time>2019-07-11T06:46:21Z</time>
      </trkpt>
      <trkpt lat="48.80949" lon="-3.317">
        <ele>72.7</ele>
        <time>2019-07-11T06:46:22Z</time>
      </trkpt>
      <trkpt lat="48.80954" lon="-3.31702">
        <ele>72.8</ele>
        <time>2019-07-11T06:46:23Z</time>
      </trkpt>
      <trkpt lat="48.80958" lon="-3.31704">
        <ele>72.6</ele>
        <time>2019-07-11T06:46:24Z</time>
      </trkpt>
      <trkpt lat="48.80962" lon="-3.31705">
        <ele>72.6</ele>
        <time>2019-07-11T06:46:25Z</time>
      </trkpt>
      <trkpt lat="48.80966" lon="-3.31707">
        <ele>72.7</ele>
        <time>2019-07-11T06:46:26Z</time>
      </trkpt>
      <trkpt lat="48.8097" lon="-3.31708">
        <ele>73.1</ele>
        <time>2019-07-11T06:46:27Z</time>
      </trkpt>
      <trkpt lat="48.80974" lon="-3.3171">
        <ele>73.1</ele>
        <time>2019-07-11T06:46:28Z</time>
      </trkpt>
      <trkpt lat="48.80978" lon="-3.31711">
        <ele>73.1</ele>
        <time>2019-07-11T06:46:29Z</time>
      </trkpt>
      <trkpt lat="48.80982" lon="-3.31713">
        <ele>73.2</ele>
        <time>2019-07-11T06:46:30Z</time>
      </trkpt>
      <trkpt lat="48.80986" lon="-3.31714">
        <ele>73.4</ele>
        <time>2019-07-11T06:46:31Z</time>
      </trkpt>
      <trkpt lat="48.8099" lon="-3.31716">
        <ele>73.4</ele>
        <time>2019-07-11T06:46:32Z</time>
      </trkpt>
      <trkpt lat="48.80993" lon="-3.31717">
        <ele>73.3</ele>
        <time>2019-07-11T06:46:33Z</time>
      </trkpt>
      <trkpt lat="48.80997" lon="-3.31719">
        <ele>73.3</ele>
        <time>2019-07-11T06:46:34Z</time>
      </trkpt>
      <trkpt lat="48.81001" lon="-3.3172">
        <ele>73.2</ele>
        <time>2019-07-11T06:46:35Z</time>
      </trkpt>
      <trkpt lat="48.81004" lon="-3.31722">
        <ele>73.6</ele>
        <time>2019-07-11T06:46:36Z</time>
      </trkpt>
      <trkpt lat="48.81008" lon="-3.31723">
        <ele>73.8</ele>
        <time>2019-07-11T06:46:37Z</time>
      </trkpt>
      <trkpt lat="48.81012" lon="-3.31724">
        <ele>74</ele>
        <time>2019-07-11T06:46:38Z</time>
      </trkpt>
      <trkpt lat="48.81016" lon="-3.31726">
        <ele>74.4</ele>
        <time>2019-07-11T06:46:39Z</time>
      </trkpt>
      <trkpt lat="48.8102" lon="-3.31727">
        <ele>74.7</ele>
        <time>2019-07-11T06:46:40Z</time>
      </trkpt>
      <trkpt lat="48.81023" lon="-3.31729">
        <ele>74.8</ele>
        <time>2019-07-11T06:46:41Z</time>
      </trkpt>
      <trkpt lat="48.81027" lon="-3.31731">
        <ele>75.1</ele>
        <time>2019-07-11T06:46:42Z</time>
      </trkpt>
      <trkpt lat="48.8103" lon="-3.31734">
        <ele>75.5</ele>
        <time>2019-07-11T06:46:43Z</time>
      </trkpt>
      <trkpt lat="48.81032" lon="-3.31738">
        <ele>75.8</ele>
        <time>2019-07-11T06:46:44Z</time>
      </trkpt>
      <trkpt lat="48.81034" lon="-3.31741">
        <ele>76.2</ele>
        <time>2019-07-11T06:46:45Z</time>
      </trkpt>
      <trkpt lat="48.81036" lon="-3.31745">
        <ele>76.8</ele>
        <time>2019-07-11T06:46:46Z</time>
      </trkpt>
      <trkpt lat="48.81038" lon="-3.31749">
        <ele>77.1</ele>
        <time>2019-07-11T06:46:47Z</time>
      </trkpt>
      <trkpt lat="48.81039" lon="-3.31754">
        <ele>77.6</ele>
        <time>2019-07-11T06:46:48Z</time>
      </trkpt>
      <trkpt lat="48.8104" lon="-3.31758">
        <ele>78.1</ele>
        <time>2019-07-11T06:46:49Z</time>
      </trkpt>
      <trkpt lat="48.81041" lon="-3.31763">
        <ele>78.7</ele>
        <time>2019-07-11T06:46:50Z</time>
      </trkpt>
      <trkpt lat="48.81041" lon="-3.31767">
        <ele>79</ele>
        <time>2019-07-11T06:46:51Z</time>
      </trkpt>
      <trkpt lat="48.81041" lon="-3.31771">
        <ele>79.1</ele>
        <time>2019-07-11T06:46:52Z</time>
      </trkpt>
      <trkpt lat="48.81042" lon="-3.31776">
        <ele>79.5</ele>
        <time>2019-07-11T06:46:53Z</time>
      </trkpt>
      <trkpt lat="48.81042" lon="-3.31781">
        <ele>79.6</ele>
        <time>2019-07-11T06:46:54Z</time>
      </trkpt>
      <trkpt lat="48.81043" lon="-3.31786">
        <ele>79.6</ele>
        <time>2019-07-11T06:46:55Z</time>
      </trkpt>
      <trkpt lat="48.81043" lon="-3.31791">
        <ele>79.3</ele>
        <time>2019-07-11T06:46:56Z</time>
      </trkpt>
      <trkpt lat="48.81043" lon="-3.31796">
        <ele>79.1</ele>
        <time>2019-07-11T06:46:57Z</time>
      </trkpt>
      <trkpt lat="48.81044" lon="-3.31801">
        <ele>79.1</ele>
        <time>2019-07-11T06:46:58Z</time>
      </trkpt>
      <trkpt lat="48.81044" lon="-3.31806">
        <ele>79.5</ele>
        <time>2019-07-11T06:46:59Z</time>
      </trkpt>
      <trkpt lat="48.81045" lon="-3.3181">
        <ele>79.9</ele>
        <time>2019-07-11T06:47:00Z</time>
      </trkpt>
      <trkpt lat="48.81046" lon="-3.31815">
        <ele>80.1</ele>
        <time>2019-07-11T06:47:01Z</time>
      </trkpt>
      <trkpt lat="48.81047" lon="-3.3182">
        <ele>80.1</ele>
        <time>2019-07-11T06:47:02Z</time>
      </trkpt>
      <trkpt lat="48.81047" lon="-3.31825">
        <ele>80</ele>
        <time>2019-07-11T06:47:03Z</time>
      </trkpt>
      <trkpt lat="48.81048" lon="-3.3183">
        <ele>80.3</ele>
        <time>2019-07-11T06:47:04Z</time>
      </trkpt>
      <trkpt lat="48.81048" lon="-3.31835">
        <ele>80.8</ele>
        <time>2019-07-11T06:47:05Z</time>
      </trkpt>
      <trkpt lat="48.81049" lon="-3.3184">
        <ele>80.6</ele>
        <time>2019-07-11T06:47:06Z</time>
      </trkpt>
      <trkpt lat="48.81049" lon="-3.31845">
        <ele>80.9</ele>
        <time>2019-07-11T06:47:07Z</time>
      </trkpt>
      <trkpt lat="48.81051" lon="-3.31849">
        <ele>81.1</ele>
        <time>2019-07-11T06:47:08Z</time>
      </trkpt>
      <trkpt lat="48.81051" lon="-3.31855">
        <ele>81.3</ele>
        <time>2019-07-11T06:47:09Z</time>
      </trkpt>
      <trkpt lat="48.81052" lon="-3.31859">
        <ele>81.5</ele>
        <time>2019-07-11T06:47:10Z</time>
      </trkpt>
      <trkpt lat="48.81054" lon="-3.31864">
        <ele>82</ele>
        <time>2019-07-11T06:47:11Z</time>
      </trkpt>
      <trkpt lat="48.81055" lon="-3.31868">
        <ele>81.9</ele>
        <time>2019-07-11T06:47:12Z</time>
      </trkpt>
      <trkpt lat="48.81056" lon="-3.31873">
        <ele>82.4</ele>
        <time>2019-07-11T06:47:13Z</time>
      </trkpt>
      <trkpt lat="48.81057" lon="-3.31877">
        <ele>82.5</ele>
        <time>2019-07-11T06:47:14Z</time>
      </trkpt>
      <trkpt lat="48.81058" lon="-3.31882">
        <ele>82.5</ele>
        <time>2019-07-11T06:47:15Z</time>
      </trkpt>
      <trkpt lat="48.8106" lon="-3.31887">
        <ele>82.6</ele>
        <time>2019-07-11T06:47:16Z</time>
      </trkpt>
      <trkpt lat="48.81061" lon="-3.31892">
        <ele>82.6</ele>
        <time>2019-07-11T06:47:17Z</time>
      </trkpt>
      <trkpt lat="48.81062" lon="-3.31897">
        <ele>82.6</ele>
        <time>2019-07-11T06:47:18Z</time>
      </trkpt>
      <trkpt lat="48.81064" lon="-3.31903">
        <ele>82.6</ele>
        <time>2019-07-11T06:47:19Z</time>
      </trkpt>
      <trkpt lat="48.81065" lon="-3.31908">
        <ele>82.6</ele>
        <time>2019-07-11T06:47:20Z</time>
      </trkpt>
      <trkpt lat="48.81066" lon="-3.31913">
        <ele>82.4</ele>
        <time>2019-07-11T06:47:21Z</time>
      </trkpt>
      <trkpt lat="48.81068" lon="-3.31919">
        <ele>82.4</ele>
        <time>2019-07-11T06:47:22Z</time>
      </trkpt>
      <trkpt lat="48.81069" lon="-3.31925">
        <ele>81.9</ele>
        <time>2019-07-11T06:47:23Z</time>
      </trkpt>
      <trkpt lat="48.81071" lon="-3.31931">
        <ele>81.7</ele>
        <time>2019-07-11T06:47:24Z</time>
      </trkpt>
      <trkpt lat="48.81073" lon="-3.31938">
        <ele>81.8</ele>
        <time>2019-07-11T06:47:25Z</time>
      </trkpt>
      <trkpt lat="48.81075" lon="-3.31945">
        <ele>81.2</ele>
        <time>2019-07-11T06:47:26Z</time>
      </trkpt>
      <trkpt lat="48.81076" lon="-3.31952">
        <ele>81.1</ele>
        <time>2019-07-11T06:47:27Z</time>
      </trkpt>
      <trkpt lat="48.81079" lon="-3.31958">
        <ele>80.7</ele>
        <time>2019-07-11T06:47:28Z</time>
      </trkpt>
      <trkpt lat="48.81081" lon="-3.31965">
        <ele>80.7</ele>
        <time>2019-07-11T06:47:29Z</time>
      </trkpt>
      <trkpt lat="48.81084" lon="-3.31971">
        <ele>81</ele>
        <time>2019-07-11T06:47:30Z</time>
      </trkpt>
      <trkpt lat="48.81087" lon="-3.31976">
        <ele>81.8</ele>
        <time>2019-07-11T06:47:31Z</time>
      </trkpt>
      <trkpt lat="48.8109" lon="-3.31982">
        <ele>82.3</ele>
        <time>2019-07-11T06:47:32Z</time>
      </trkpt>
      <trkpt lat="48.81094" lon="-3.31988">
        <ele>82.2</ele>
        <time>2019-07-11T06:47:33Z</time>
      </trkpt>
      <trkpt lat="48.81097" lon="-3.31994">
        <ele>81.9</ele>
        <time>2019-07-11T06:47:34Z</time>
      </trkpt>
      <trkpt lat="48.81101" lon="-3.31999">
        <ele>81.8</ele>
        <time>2019-07-11T06:47:35Z</time>
      </trkpt>
      <trkpt lat="48.81105" lon="-3.32004">
        <ele>81.8</ele>
        <time>2019-07-11T06:47:36Z</time>
      </trkpt>
      <trkpt lat="48.81109" lon="-3.3201">
        <ele>81.2</ele>
        <time>2019-07-11T06:47:37Z</time>
      </trkpt>
      <trkpt lat="48.81113" lon="-3.32015">
        <ele>80.5</ele>
        <time>2019-07-11T06:47:38Z</time>
      </trkpt>
      <trkpt lat="48.81118" lon="-3.32019">
        <ele>79.4</ele>
        <time>2019-07-11T06:47:39Z</time>
      </trkpt>
      <trkpt lat="48.81122" lon="-3.32023">
        <ele>78.7</ele>
        <time>2019-07-11T06:47:40Z</time>
      </trkpt>
      <trkpt lat="48.81127" lon="-3.32026">
        <ele>77.7</ele>
        <time>2019-07-11T06:47:41Z</time>
      </trkpt>
      <trkpt lat="48.81132" lon="-3.32029">
        <ele>77</ele>
        <time>2019-07-11T06:47:42Z</time>
      </trkpt>
      <trkpt lat="48.81136" lon="-3.32032">
        <ele>76.3</ele>
        <time>2019-07-11T06:47:43Z</time>
      </trkpt>
      <trkpt lat="48.81141" lon="-3.32034">
        <ele>75.7</ele>
        <time>2019-07-11T06:47:44Z</time>
      </trkpt>
      <trkpt lat="48.81146" lon="-3.32035">
        <ele>75.2</ele>
        <time>2019-07-11T06:47:45Z</time>
      </trkpt>
      <trkpt lat="48.8115" lon="-3.32037">
        <ele>74.7</ele>
        <time>2019-07-11T06:47:46Z</time>
      </trkpt>
      <trkpt lat="48.81155" lon="-3.32037">
        <ele>74.3</ele>
        <time>2019-07-11T06:47:47Z</time>
      </trkpt>
      <trkpt lat="48.8116" lon="-3.32039">
        <ele>73.8</ele>
        <time>2019-07-11T06:47:48Z</time>
      </trkpt>
      <trkpt lat="48.81164" lon="-3.3204">
        <ele>73.3</ele>
        <time>2019-07-11T06:47:49Z</time>
      </trkpt>
      <trkpt lat="48.81169" lon="-3.32041">
        <ele>73</ele>
        <time>2019-07-11T06:47:50Z</time>
      </trkpt>
      <trkpt lat="48.81173" lon="-3.32043">
        <ele>72.6</ele>
        <time>2019-07-11T06:47:51Z</time>
      </trkpt>
      <trkpt lat="48.81178" lon="-3.32044">
        <ele>72.4</ele>
        <time>2019-07-11T06:47:52Z</time>
      </trkpt>
      <trkpt lat="48.81183" lon="-3.32046">
        <ele>72.5</ele>
        <time>2019-07-11T06:47:53Z</time>
      </trkpt>
      <trkpt lat="48.81188" lon="-3.32047">
        <ele>72.7</ele>
        <time>2019-07-11T06:47:54Z</time>
      </trkpt>
      <trkpt lat="48.81193" lon="-3.32048">
        <ele>73.1</ele>
        <time>2019-07-11T06:47:55Z</time>
      </trkpt>
      <trkpt lat="48.81199" lon="-3.3205">
        <ele>73.3</ele>
        <time>2019-07-11T06:47:56Z</time>
      </trkpt>
      <trkpt lat="48.81203" lon="-3.32053">
        <ele>73.4</ele>
        <time>2019-07-11T06:47:57Z</time>
      </trkpt>
      <trkpt lat="48.81208" lon="-3.32056">
        <ele>73.5</ele>
        <time>2019-07-11T06:47:58Z</time>
      </trkpt>
      <trkpt lat="48.81212" lon="-3.3206">
        <ele>73.7</ele>
        <time>2019-07-11T06:47:59Z</time>
      </trkpt>
      <trkpt lat="48.81216" lon="-3.32064">
        <ele>73.8</ele>
        <time>2019-07-11T06:48:00Z</time>
      </trkpt>
      <trkpt lat="48.81221" lon="-3.32069">
        <ele>74</ele>
        <time>2019-07-11T06:48:01Z</time>
      </trkpt>
      <trkpt lat="48.81224" lon="-3.32074">
        <ele>74.2</ele>
        <time>2019-07-11T06:48:02Z</time>
      </trkpt>
      <trkpt lat="48.81228" lon="-3.3208">
        <ele>74.5</ele>
        <time>2019-07-11T06:48:03Z</time>
      </trkpt>
      <trkpt lat="48.81231" lon="-3.32086">
        <ele>74.7</ele>
        <time>2019-07-11T06:48:04Z</time>
      </trkpt>
      <trkpt lat="48.81233" lon="-3.32093">
        <ele>74.7</ele>
        <time>2019-07-11T06:48:05Z</time>
      </trkpt>
      <trkpt lat="48.81236" lon="-3.321">
        <ele>74.6</ele>
        <time>2019-07-11T06:48:06Z</time>
      </trkpt>
      <trkpt lat="48.81237" lon="-3.32107">
        <ele>74.5</ele>
        <time>2019-07-11T06:48:07Z</time>
      </trkpt>
      <trkpt lat="48.81238" lon="-3.32113">
        <ele>74.6</ele>
        <time>2019-07-11T06:48:08Z</time>
      </trkpt>
      <trkpt lat="48.81239" lon="-3.3212">
        <ele>74.5</ele>
        <time>2019-07-11T06:48:09Z</time>
      </trkpt>
      <trkpt lat="48.8124" lon="-3.32127">
        <ele>74.3</ele>
        <time>2019-07-11T06:48:10Z</time>
      </trkpt>
      <trkpt lat="48.81241" lon="-3.32133">
        <ele>74.6</ele>
        <time>2019-07-11T06:48:11Z</time>
      </trkpt>
      <trkpt lat="48.81241" lon="-3.32139">
        <ele>74.8</ele>
        <time>2019-07-11T06:48:12Z</time>
      </trkpt>
      <trkpt lat="48.81242" lon="-3.32144">
        <ele>75</ele>
        <time>2019-07-11T06:48:13Z</time>
      </trkpt>
      <trkpt lat="48.81243" lon="-3.3215">
        <ele>75.3</ele>
        <time>2019-07-11T06:48:14Z</time>
      </trkpt>
      <trkpt lat="48.81244" lon="-3.32156">
        <ele>75.7</ele>
        <time>2019-07-11T06:48:15Z</time>
      </trkpt>
      <trkpt lat="48.81244" lon="-3.32162">
        <ele>75.7</ele>
        <time>2019-07-11T06:48:16Z</time>
      </trkpt>
      <trkpt lat="48.81245" lon="-3.32167">
        <ele>76.3</ele>
        <time>2019-07-11T06:48:17Z</time>
      </trkpt>
      <trkpt lat="48.81245" lon="-3.32173">
        <ele>77.2</ele>
        <time>2019-07-11T06:48:18Z</time>
      </trkpt>
      <trkpt lat="48.81246" lon="-3.32178">
        <ele>77.7</ele>
        <time>2019-07-11T06:48:19Z</time>
      </trkpt>
      <trkpt lat="48.81246" lon="-3.32183">
        <ele>78</ele>
        <time>2019-07-11T06:48:20Z</time>
      </trkpt>
      <trkpt lat="48.81247" lon="-3.32187">
        <ele>78.6</ele>
        <time>2019-07-11T06:48:21Z</time>
      </trkpt>
      <trkpt lat="48.81247" lon="-3.32193">
        <ele>79.1</ele>
        <time>2019-07-11T06:48:22Z</time>
      </trkpt>
      <trkpt lat="48.81248" lon="-3.32198">
        <ele>78.8</ele>
        <time>2019-07-11T06:48:23Z</time>
      </trkpt>
      <trkpt lat="48.81249" lon="-3.32203">
        <ele>78.6</ele>
        <time>2019-07-11T06:48:24Z</time>
      </trkpt>
      <trkpt lat="48.81249" lon="-3.32208">
        <ele>78.4</ele>
        <time>2019-07-11T06:48:25Z</time>
      </trkpt>
      <trkpt lat="48.8125" lon="-3.32213">
        <ele>78.3</ele>
        <time>2019-07-11T06:48:26Z</time>
      </trkpt>
      <trkpt lat="48.8125" lon="-3.32218">
        <ele>77.9</ele>
        <time>2019-07-11T06:48:27Z</time>
      </trkpt>
      <trkpt lat="48.81251" lon="-3.32223">
        <ele>77.5</ele>
        <time>2019-07-11T06:48:28Z</time>
      </trkpt>
      <trkpt lat="48.81252" lon="-3.32229">
        <ele>77.3</ele>
        <time>2019-07-11T06:48:29Z</time>
      </trkpt>
      <trkpt lat="48.81252" lon="-3.32234">
        <ele>77.1</ele>
        <time>2019-07-11T06:48:30Z</time>
      </trkpt>
      <trkpt lat="48.81253" lon="-3.32239">
        <ele>76.8</ele>
        <time>2019-07-11T06:48:31Z</time>
      </trkpt>
      <trkpt lat="48.81253" lon="-3.32244">
        <ele>77.1</ele>
        <time>2019-07-11T06:48:32Z</time>
      </trkpt>
      <trkpt lat="48.81254" lon="-3.32249">
        <ele>77.5</ele>
        <time>2019-07-11T06:48:33Z</time>
      </trkpt>
      <trkpt lat="48.81254" lon="-3.32255">
        <ele>77.6</ele>
        <time>2019-07-11T06:48:34Z</time>
      </trkpt>
      <trkpt lat="48.81255" lon="-3.3226">
        <ele>77.9</ele>
        <time>2019-07-11T06:48:35Z</time>
      </trkpt>
      <trkpt lat="48.81255" lon="-3.32266">
        <ele>78.3</ele>
        <time>2019-07-11T06:48:36Z</time>
      </trkpt>
      <trkpt lat="48.81256" lon="-3.32271">
        <ele>78.6</ele>
        <time>2019-07-11T06:48:37Z</time>
      </trkpt>
      <trkpt lat="48.81257" lon="-3.32277">
        <ele>78.7</ele>
        <time>2019-07-11T06:48:38Z</time>
      </trkpt>
      <trkpt lat="48.81257" lon="-3.32282">
        <ele>78.8</ele>
        <time>2019-07-11T06:48:39Z</time>
      </trkpt>
      <trkpt lat="48.81258" lon="-3.32288">
        <ele>78.8</ele>
        <time>2019-07-11T06:48:40Z</time>
      </trkpt>
      <trkpt lat="48.81259" lon="-3.32293">
        <ele>80</ele>
        <time>2019-07-11T06:48:41Z</time>
      </trkpt>
      <trkpt lat="48.81259" lon="-3.32299">
        <ele>80.2</ele>
        <time>2019-07-11T06:48:42Z</time>
      </trkpt>
      <trkpt lat="48.8126" lon="-3.32304">
        <ele>80.7</ele>
        <time>2019-07-11T06:48:43Z</time>
      </trkpt>
      <trkpt lat="48.81261" lon="-3.32309">
        <ele>80.8</ele>
        <time>2019-07-11T06:48:44Z</time>
      </trkpt>
      <trkpt lat="48.81261" lon="-3.32314">
        <ele>80.6</ele>
        <time>2019-07-11T06:48:45Z</time>
      </trkpt>
      <trkpt lat="48.81262" lon="-3.3232">
        <ele>80.1</ele>
        <time>2019-07-11T06:48:46Z</time>
      </trkpt>
      <trkpt lat="48.81263" lon="-3.32326">
        <ele>80.3</ele>
        <time>2019-07-11T06:48:47Z</time>
      </trkpt>
      <trkpt lat="48.81263" lon="-3.32331">
        <ele>80.1</ele>
        <time>2019-07-11T06:48:48Z</time>
      </trkpt>
      <trkpt lat="48.81264" lon="-3.32337">
        <ele>80.3</ele>
        <time>2019-07-11T06:48:49Z</time>
      </trkpt>
      <trkpt lat="48.81265" lon="-3.32342">
        <ele>80.4</ele>
        <time>2019-07-11T06:48:50Z</time>
      </trkpt>
      <trkpt lat="48.81265" lon="-3.32348">
        <ele>79.7</ele>
        <time>2019-07-11T06:48:51Z</time>
      </trkpt>
      <trkpt lat="48.81266" lon="-3.32353">
        <ele>79.5</ele>
        <time>2019-07-11T06:48:52Z</time>
      </trkpt>
      <trkpt lat="48.81266" lon="-3.32359">
        <ele>79.3</ele>
        <time>2019-07-11T06:48:53Z</time>
      </trkpt>
      <trkpt lat="48.81267" lon="-3.32365">
        <ele>79</ele>
        <time>2019-07-11T06:48:54Z</time>
      </trkpt>
      <trkpt lat="48.81268" lon="-3.3237">
        <ele>79</ele>
        <time>2019-07-11T06:48:55Z</time>
      </trkpt>
      <trkpt lat="48.81268" lon="-3.32376">
        <ele>78.1</ele>
        <time>2019-07-11T06:48:56Z</time>
      </trkpt>
      <trkpt lat="48.81269" lon="-3.32382">
        <ele>77.8</ele>
        <time>2019-07-11T06:48:57Z</time>
      </trkpt>
      <trkpt lat="48.8127" lon="-3.32387">
        <ele>77.8</ele>
        <time>2019-07-11T06:48:58Z</time>
      </trkpt>
      <trkpt lat="48.8127" lon="-3.32393">
        <ele>77.2</ele>
        <time>2019-07-11T06:48:59Z</time>
      </trkpt>
      <trkpt lat="48.81271" lon="-3.32399">
        <ele>77.3</ele>
        <time>2019-07-11T06:49:00Z</time>
      </trkpt>
      <trkpt lat="48.81271" lon="-3.32405">
        <ele>77</ele>
        <time>2019-07-11T06:49:01Z</time>
      </trkpt>
      <trkpt lat="48.81272" lon="-3.32411">
        <ele>77.3</ele>
        <time>2019-07-11T06:49:02Z</time>
      </trkpt>
      <trkpt lat="48.81273" lon="-3.32417">
        <ele>77.3</ele>
        <time>2019-07-11T06:49:03Z</time>
      </trkpt>
      <trkpt lat="48.81273" lon="-3.32423">
        <ele>77.3</ele>
        <time>2019-07-11T06:49:04Z</time>
      </trkpt>
      <trkpt lat="48.81274" lon="-3.32429">
        <ele>76.8</ele>
        <time>2019-07-11T06:49:05Z</time>
      </trkpt>
      <trkpt lat="48.81274" lon="-3.32435">
        <ele>76.3</ele>
        <time>2019-07-11T06:49:06Z</time>
      </trkpt>
      <trkpt lat="48.81275" lon="-3.32441">
        <ele>75.5</ele>
        <time>2019-07-11T06:49:07Z</time>
      </trkpt>
      <trkpt lat="48.81276" lon="-3.32447">
        <ele>75.6</ele>
        <time>2019-07-11T06:49:08Z</time>
      </trkpt>
      <trkpt lat="48.81277" lon="-3.32453">
        <ele>75.6</ele>
        <time>2019-07-11T06:49:09Z</time>
      </trkpt>
      <trkpt lat="48.81278" lon="-3.32459">
        <ele>76.1</ele>
        <time>2019-07-11T06:49:10Z</time>
      </trkpt>
      <trkpt lat="48.81279" lon="-3.32464">
        <ele>76.8</ele>
        <time>2019-07-11T06:49:11Z</time>
      </trkpt>
      <trkpt lat="48.81279" lon="-3.3247">
        <ele>77.3</ele>
        <time>2019-07-11T06:49:12Z</time>
      </trkpt>
      <trkpt lat="48.8128" lon="-3.32475">
        <ele>77.6</ele>
        <time>2019-07-11T06:49:13Z</time>
      </trkpt>
      <trkpt lat="48.81281" lon="-3.3248">
        <ele>78</ele>
        <time>2019-07-11T06:49:14Z</time>
      </trkpt>
      <trkpt lat="48.81282" lon="-3.32486">
        <ele>78</ele>
        <time>2019-07-11T06:49:15Z</time>
      </trkpt>
      <trkpt lat="48.81282" lon="-3.32492">
        <ele>78.1</ele>
        <time>2019-07-11T06:49:16Z</time>
      </trkpt>
      <trkpt lat="48.81282" lon="-3.32498">
        <ele>78.2</ele>
        <time>2019-07-11T06:49:17Z</time>
      </trkpt>
      <trkpt lat="48.81283" lon="-3.32504">
        <ele>78.3</ele>
        <time>2019-07-11T06:49:18Z</time>
      </trkpt>
      <trkpt lat="48.81284" lon="-3.32511">
        <ele>78.3</ele>
        <time>2019-07-11T06:49:19Z</time>
      </trkpt>
      <trkpt lat="48.81285" lon="-3.32517">
        <ele>78.5</ele>
        <time>2019-07-11T06:49:20Z</time>
      </trkpt>
      <trkpt lat="48.81286" lon="-3.32522">
        <ele>78.5</ele>
        <time>2019-07-11T06:49:21Z</time>
      </trkpt>
      <trkpt lat="48.81287" lon="-3.32528">
        <ele>78.8</ele>
        <time>2019-07-11T06:49:22Z</time>
      </trkpt>
      <trkpt lat="48.81288" lon="-3.32534">
        <ele>78.6</ele>
        <time>2019-07-11T06:49:23Z</time>
      </trkpt>
      <trkpt lat="48.81289" lon="-3.3254">
        <ele>78.3</ele>
        <time>2019-07-11T06:49:24Z</time>
      </trkpt>
      <trkpt lat="48.81289" lon="-3.32547">
        <ele>78.2</ele>
        <time>2019-07-11T06:49:25Z</time>
      </trkpt>
      <trkpt lat="48.8129" lon="-3.32553">
        <ele>78.1</ele>
        <time>2019-07-11T06:49:26Z</time>
      </trkpt>
      <trkpt lat="48.8129" lon="-3.32559">
        <ele>78.6</ele>
        <time>2019-07-11T06:49:27Z</time>
      </trkpt>
      <trkpt lat="48.81291" lon="-3.32566">
        <ele>78.3</ele>
        <time>2019-07-11T06:49:28Z</time>
      </trkpt>
      <trkpt lat="48.81291" lon="-3.32574">
        <ele>77.5</ele>
        <time>2019-07-11T06:49:29Z</time>
      </trkpt>
      <trkpt lat="48.81292" lon="-3.32581">
        <ele>76.8</ele>
        <time>2019-07-11T06:49:30Z</time>
      </trkpt>
      <trkpt lat="48.81292" lon="-3.32587">
        <ele>76.3</ele>
        <time>2019-07-11T06:49:31Z</time>
      </trkpt>
      <trkpt lat="48.81292" lon="-3.32593">
        <ele>76.1</ele>
        <time>2019-07-11T06:49:32Z</time>
      </trkpt>
      <trkpt lat="48.81292" lon="-3.32599">
        <ele>75.9</ele>
        <time>2019-07-11T06:49:33Z</time>
      </trkpt>
      <trkpt lat="48.81292" lon="-3.32605">
        <ele>75.5</ele>
        <time>2019-07-11T06:49:34Z</time>
      </trkpt>
      <trkpt lat="48.81293" lon="-3.32611">
        <ele>75.6</ele>
        <time>2019-07-11T06:49:35Z</time>
      </trkpt>
      <trkpt lat="48.81293" lon="-3.32617">
        <ele>75.5</ele>
        <time>2019-07-11T06:49:36Z</time>
      </trkpt>
      <trkpt lat="48.81293" lon="-3.32624">
        <ele>75.3</ele>
        <time>2019-07-11T06:49:37Z</time>
      </trkpt>
      <trkpt lat="48.81293" lon="-3.3263">
        <ele>75.4</ele>
        <time>2019-07-11T06:49:38Z</time>
      </trkpt>
      <trkpt lat="48.81293" lon="-3.32636">
        <ele>75.9</ele>
        <time>2019-07-11T06:49:39Z</time>
      </trkpt>
      <trkpt lat="48.81293" lon="-3.32642">
        <ele>75.6</ele>
        <time>2019-07-11T06:49:40Z</time>
      </trkpt>
      <trkpt lat="48.81293" lon="-3.32649">
        <ele>75.4</ele>
        <time>2019-07-11T06:49:41Z</time>
      </trkpt>
      <trkpt lat="48.81293" lon="-3.32655">
        <ele>74.6</ele>
        <time>2019-07-11T06:49:42Z</time>
      </trkpt>
      <trkpt lat="48.81293" lon="-3.32661">
        <ele>74.8</ele>
        <time>2019-07-11T06:49:43Z</time>
      </trkpt>
      <trkpt lat="48.81292" lon="-3.32668">
        <ele>74.7</ele>
        <time>2019-07-11T06:49:44Z</time>
      </trkpt>
      <trkpt lat="48.81292" lon="-3.32674">
        <ele>75.1</ele>
        <time>2019-07-11T06:49:45Z</time>
      </trkpt>
      <trkpt lat="48.81292" lon="-3.3268">
        <ele>75.3</ele>
        <time>2019-07-11T06:49:46Z</time>
      </trkpt>
      <trkpt lat="48.81291" lon="-3.32686">
        <ele>75.4</ele>
        <time>2019-07-11T06:49:47Z</time>
      </trkpt>
      <trkpt lat="48.8129" lon="-3.32692">
        <ele>75.3</ele>
        <time>2019-07-11T06:49:48Z</time>
      </trkpt>
      <trkpt lat="48.81289" lon="-3.32699">
        <ele>75.1</ele>
        <time>2019-07-11T06:49:49Z</time>
      </trkpt>
      <trkpt lat="48.81288" lon="-3.32705">
        <ele>75</ele>
        <time>2019-07-11T06:49:50Z</time>
      </trkpt>
      <trkpt lat="48.81287" lon="-3.32712">
        <ele>74.9</ele>
        <time>2019-07-11T06:49:51Z</time>
      </trkpt>
      <trkpt lat="48.81285" lon="-3.32718">
        <ele>74.8</ele>
        <time>2019-07-11T06:49:52Z</time>
      </trkpt>
      <trkpt lat="48.81283" lon="-3.32724">
        <ele>74.6</ele>
        <time>2019-07-11T06:49:53Z</time>
      </trkpt>
      <trkpt lat="48.81282" lon="-3.3273">
        <ele>74.8</ele>
        <time>2019-07-11T06:49:54Z</time>
      </trkpt>
      <trkpt lat="48.81281" lon="-3.32736">
        <ele>74.8</ele>
        <time>2019-07-11T06:49:55Z</time>
      </trkpt>
      <trkpt lat="48.81279" lon="-3.32742">
        <ele>75.2</ele>
        <time>2019-07-11T06:49:56Z</time>
      </trkpt>
      <trkpt lat="48.81278" lon="-3.32749">
        <ele>75</ele>
        <time>2019-07-11T06:49:57Z</time>
      </trkpt>
      <trkpt lat="48.81277" lon="-3.32755">
        <ele>75</ele>
        <time>2019-07-11T06:49:58Z</time>
      </trkpt>
      <trkpt lat="48.81276" lon="-3.32762">
        <ele>75</ele>
        <time>2019-07-11T06:49:59Z</time>
      </trkpt>
      <trkpt lat="48.81275" lon="-3.32768">
        <ele>75.4</ele>
        <time>2019-07-11T06:50:00Z</time>
      </trkpt>
      <trkpt lat="48.81274" lon="-3.32775">
        <ele>75.4</ele>
        <time>2019-07-11T06:50:01Z</time>
      </trkpt>
      <trkpt lat="48.81274" lon="-3.32782">
        <ele>75.6</ele>
        <time>2019-07-11T06:50:02Z</time>
      </trkpt>
      <trkpt lat="48.81273" lon="-3.32789">
        <ele>75.5</ele>
        <time>2019-07-11T06:50:03Z</time>
      </trkpt>
      <trkpt lat="48.81272" lon="-3.32796">
        <ele>75.3</ele>
        <time>2019-07-11T06:50:04Z</time>
      </trkpt>
      <trkpt lat="48.81271" lon="-3.32803">
        <ele>75.2</ele>
        <time>2019-07-11T06:50:05Z</time>
      </trkpt>
      <trkpt lat="48.81271" lon="-3.3281">
        <ele>75.2</ele>
        <time>2019-07-11T06:50:06Z</time>
      </trkpt>
      <trkpt lat="48.8127" lon="-3.32817">
        <ele>75.6</ele>
        <time>2019-07-11T06:50:07Z</time>
      </trkpt>
      <trkpt lat="48.8127" lon="-3.32824">
        <ele>76.7</ele>
        <time>2019-07-11T06:50:08Z</time>
      </trkpt>
      <trkpt lat="48.81269" lon="-3.32831">
        <ele>76.9</ele>
        <time>2019-07-11T06:50:09Z</time>
      </trkpt>
      <trkpt lat="48.81269" lon="-3.32838">
        <ele>76.5</ele>
        <time>2019-07-11T06:50:10Z</time>
      </trkpt>
      <trkpt lat="48.81269" lon="-3.32845">
        <ele>76</ele>
        <time>2019-07-11T06:50:11Z</time>
      </trkpt>
      <trkpt lat="48.81269" lon="-3.32852">
        <ele>76.2</ele>
        <time>2019-07-11T06:50:12Z</time>
      </trkpt>
      <trkpt lat="48.8127" lon="-3.32859">
        <ele>76.5</ele>
        <time>2019-07-11T06:50:13Z</time>
      </trkpt>
      <trkpt lat="48.81271" lon="-3.32866">
        <ele>77</ele>
        <time>2019-07-11T06:50:14Z</time>
      </trkpt>
      <trkpt lat="48.81272" lon="-3.32873">
        <ele>77.1</ele>
        <time>2019-07-11T06:50:15Z</time>
      </trkpt>
      <trkpt lat="48.81273" lon="-3.3288">
        <ele>77</ele>
        <time>2019-07-11T06:50:16Z</time>
      </trkpt>
      <trkpt lat="48.81274" lon="-3.32886">
        <ele>77.4</ele>
        <time>2019-07-11T06:50:17Z</time>
      </trkpt>
      <trkpt lat="48.81275" lon="-3.32892">
        <ele>77.2</ele>
        <time>2019-07-11T06:50:18Z</time>
      </trkpt>
      <trkpt lat="48.81276" lon="-3.32898">
        <ele>77.3</ele>
        <time>2019-07-11T06:50:19Z</time>
      </trkpt>
      <trkpt lat="48.81278" lon="-3.32904">
        <ele>77.6</ele>
        <time>2019-07-11T06:50:20Z</time>
      </trkpt>
      <trkpt lat="48.81279" lon="-3.3291">
        <ele>77.5</ele>
        <time>2019-07-11T06:50:21Z</time>
      </trkpt>
      <trkpt lat="48.8128" lon="-3.32916">
        <ele>77.3</ele>
        <time>2019-07-11T06:50:22Z</time>
      </trkpt>
      <trkpt lat="48.81281" lon="-3.32923">
        <ele>77.5</ele>
        <time>2019-07-11T06:50:23Z</time>
      </trkpt>
      <trkpt lat="48.81282" lon="-3.3293">
        <ele>78</ele>
        <time>2019-07-11T06:50:24Z</time>
      </trkpt>
      <trkpt lat="48.81282" lon="-3.32936">
        <ele>78.4</ele>
        <time>2019-07-11T06:50:25Z</time>
      </trkpt>
      <trkpt lat="48.81282" lon="-3.32944">
        <ele>78.4</ele>
        <time>2019-07-11T06:50:26Z</time>
      </trkpt>
      <trkpt lat="48.81283" lon="-3.3295">
        <ele>78.3</ele>
        <time>2019-07-11T06:50:27Z</time>
      </trkpt>
      <trkpt lat="48.81283" lon="-3.32956">
        <ele>78.3</ele>
        <time>2019-07-11T06:50:28Z</time>
      </trkpt>
      <trkpt lat="48.81282" lon="-3.32963">
        <ele>78.1</ele>
        <time>2019-07-11T06:50:29Z</time>
      </trkpt>
      <trkpt lat="48.81282" lon="-3.32969">
        <ele>78.2</ele>
        <time>2019-07-11T06:50:30Z</time>
      </trkpt>
      <trkpt lat="48.81281" lon="-3.32975">
        <ele>78</ele>
        <time>2019-07-11T06:50:31Z</time>
      </trkpt>
      <trkpt lat="48.8128" lon="-3.3298">
        <ele>77.3</ele>
        <time>2019-07-11T06:50:32Z</time>
      </trkpt>
      <trkpt lat="48.81279" lon="-3.32987">
        <ele>76.1</ele>
        <time>2019-07-11T06:50:33Z</time>
      </trkpt>
      <trkpt lat="48.81278" lon="-3.32993">
        <ele>75.8</ele>
        <time>2019-07-11T06:50:34Z</time>
      </trkpt>
      <trkpt lat="48.81277" lon="-3.32999">
        <ele>75.4</ele>
        <time>2019-07-11T06:50:35Z</time>
      </trkpt>
      <trkpt lat="48.81276" lon="-3.33005">
        <ele>75.4</ele>
        <time>2019-07-11T06:50:36Z</time>
      </trkpt>
      <trkpt lat="48.81275" lon="-3.33011">
        <ele>74.9</ele>
        <time>2019-07-11T06:50:37Z</time>
      </trkpt>
      <trkpt lat="48.81275" lon="-3.33018">
        <ele>74.7</ele>
        <time>2019-07-11T06:50:38Z</time>
      </trkpt>
      <trkpt lat="48.81274" lon="-3.33024">
        <ele>74.2</ele>
        <time>2019-07-11T06:50:39Z</time>
      </trkpt>
      <trkpt lat="48.81274" lon="-3.3303">
        <ele>74.3</ele>
        <time>2019-07-11T06:50:40Z</time>
      </trkpt>
      <trkpt lat="48.81273" lon="-3.33035">
        <ele>73.6</ele>
        <time>2019-07-11T06:50:41Z</time>
      </trkpt>
      <trkpt lat="48.81272" lon="-3.33041">
        <ele>73.8</ele>
        <time>2019-07-11T06:50:42Z</time>
      </trkpt>
      <trkpt lat="48.81271" lon="-3.33047">
        <ele>73.9</ele>
        <time>2019-07-11T06:50:43Z</time>
      </trkpt>
      <trkpt lat="48.81271" lon="-3.33053">
        <ele>74.2</ele>
        <time>2019-07-11T06:50:44Z</time>
      </trkpt>
      <trkpt lat="48.8127" lon="-3.33059">
        <ele>74.4</ele>
        <time>2019-07-11T06:50:45Z</time>
      </trkpt>
      <trkpt lat="48.8127" lon="-3.33064">
        <ele>75</ele>
        <time>2019-07-11T06:50:46Z</time>
      </trkpt>
      <trkpt lat="48.81269" lon="-3.3307">
        <ele>75.8</ele>
        <time>2019-07-11T06:50:47Z</time>
      </trkpt>
      <trkpt lat="48.81268" lon="-3.33076">
        <ele>76.2</ele>
        <time>2019-07-11T06:50:48Z</time>
      </trkpt>
      <trkpt lat="48.81268" lon="-3.33081">
        <ele>76.5</ele>
        <time>2019-07-11T06:50:49Z</time>
      </trkpt>
      <trkpt lat="48.81267" lon="-3.33087">
        <ele>77</ele>
        <time>2019-07-11T06:50:50Z</time>
      </trkpt>
      <trkpt lat="48.81267" lon="-3.33093">
        <ele>77.7</ele>
        <time>2019-07-11T06:50:51Z</time>
      </trkpt>
      <trkpt lat="48.81266" lon="-3.33099">
        <ele>78.2</ele>
        <time>2019-07-11T06:50:52Z</time>
      </trkpt>
      <trkpt lat="48.81266" lon="-3.33105">
        <ele>78.3</ele>
        <time>2019-07-11T06:50:53Z</time>
      </trkpt>
      <trkpt lat="48.81265" lon="-3.33111">
        <ele>78.3</ele>
        <time>2019-07-11T06:50:54Z</time>
      </trkpt>
      <trkpt lat="48.81265" lon="-3.33117">
        <ele>78.9</ele>
        <time>2019-07-11T06:50:55Z</time>
      </trkpt>
      <trkpt lat="48.81265" lon="-3.33124">
        <ele>79.1</ele>
        <time>2019-07-11T06:50:56Z</time>
      </trkpt>
      <trkpt lat="48.81264" lon="-3.3313">
        <ele>79</ele>
        <time>2019-07-11T06:50:57Z</time>
      </trkpt>
      <trkpt lat="48.81264" lon="-3.33137">
        <ele>78.6</ele>
        <time>2019-07-11T06:50:58Z</time>
      </trkpt>
      <trkpt lat="48.81263" lon="-3.33143">
        <ele>78.5</ele>
        <time>2019-07-11T06:50:59Z</time>
      </trkpt>
      <trkpt lat="48.81263" lon="-3.3315">
        <ele>78.3</ele>
        <time>2019-07-11T06:51:00Z</time>
      </trkpt>
      <trkpt lat="48.81263" lon="-3.33157">
        <ele>77.9</ele>
        <time>2019-07-11T06:51:01Z</time>
      </trkpt>
      <trkpt lat="48.81263" lon="-3.33164">
        <ele>78.1</ele>
        <time>2019-07-11T06:51:02Z</time>
      </trkpt>
      <trkpt lat="48.81263" lon="-3.3317">
        <ele>77.2</ele>
        <time>2019-07-11T06:51:03Z</time>
      </trkpt>
      <trkpt lat="48.81263" lon="-3.33177">
        <ele>77.2</ele>
        <time>2019-07-11T06:51:04Z</time>
      </trkpt>
      <trkpt lat="48.81265" lon="-3.33183">
        <ele>76.8</ele>
        <time>2019-07-11T06:51:05Z</time>
      </trkpt>
      <trkpt lat="48.81265" lon="-3.3319">
        <ele>76.4</ele>
        <time>2019-07-11T06:51:06Z</time>
      </trkpt>
      <trkpt lat="48.81267" lon="-3.33197">
        <ele>75.6</ele>
        <time>2019-07-11T06:51:07Z</time>
      </trkpt>
      <trkpt lat="48.81268" lon="-3.33204">
        <ele>75.2</ele>
        <time>2019-07-11T06:51:08Z</time>
      </trkpt>
      <trkpt lat="48.81268" lon="-3.33211">
        <ele>74.8</ele>
        <time>2019-07-11T06:51:09Z</time>
      </trkpt>
      <trkpt lat="48.81269" lon="-3.33218">
        <ele>75</ele>
        <time>2019-07-11T06:51:10Z</time>
      </trkpt>
      <trkpt lat="48.8127" lon="-3.33225">
        <ele>74.8</ele>
        <time>2019-07-11T06:51:11Z</time>
      </trkpt>
      <trkpt lat="48.81271" lon="-3.33232">
        <ele>75.1</ele>
        <time>2019-07-11T06:51:12Z</time>
      </trkpt>
      <trkpt lat="48.81271" lon="-3.3324">
        <ele>74.7</ele>
        <time>2019-07-11T06:51:13Z</time>
      </trkpt>
      <trkpt lat="48.81271" lon="-3.33248">
        <ele>74.5</ele>
        <time>2019-07-11T06:51:14Z</time>
      </trkpt>
      <trkpt lat="48.81271" lon="-3.33256">
        <ele>74.4</ele>
        <time>2019-07-11T06:51:15Z</time>
      </trkpt>
      <trkpt lat="48.81271" lon="-3.33263">
        <ele>74.3</ele>
        <time>2019-07-11T06:51:16Z</time>
      </trkpt>
      <trkpt lat="48.81271" lon="-3.33271">
        <ele>74.3</ele>
        <time>2019-07-11T06:51:17Z</time>
      </trkpt>
      <trkpt lat="48.8127" lon="-3.33278">
        <ele>74.2</ele>
        <time>2019-07-11T06:51:18Z</time>
      </trkpt>
      <trkpt lat="48.8127" lon="-3.33286">
        <ele>73.5</ele>
        <time>2019-07-11T06:51:19Z</time>
      </trkpt>
      <trkpt lat="48.8127" lon="-3.33293">
        <ele>73.3</ele>
        <time>2019-07-11T06:51:20Z</time>
      </trkpt>
      <trkpt lat="48.81271" lon="-3.333">
        <ele>72.9</ele>
        <time>2019-07-11T06:51:21Z</time>
      </trkpt>
      <trkpt lat="48.81272" lon="-3.33306">
        <ele>72.1</ele>
        <time>2019-07-11T06:51:22Z</time>
      </trkpt>
      <trkpt lat="48.81272" lon="-3.33313">
        <ele>71.2</ele>
        <time>2019-07-11T06:51:23Z</time>
      </trkpt>
      <trkpt lat="48.81273" lon="-3.3332">
        <ele>70.6</ele>
        <time>2019-07-11T06:51:24Z</time>
      </trkpt>
      <trkpt lat="48.81272" lon="-3.33327">
        <ele>70.3</ele>
        <time>2019-07-11T06:51:25Z</time>
      </trkpt>
      <trkpt lat="48.81273" lon="-3.33333">
        <ele>68.9</ele>
        <time>2019-07-11T06:51:26Z</time>
      </trkpt>
      <trkpt lat="48.81274" lon="-3.3334">
        <ele>67.8</ele>
        <time>2019-07-11T06:51:27Z</time>
      </trkpt>
      <trkpt lat="48.81278" lon="-3.33345">
        <ele>66.9</ele>
        <time>2019-07-11T06:51:28Z</time>
      </trkpt>
      <trkpt lat="48.81281" lon="-3.33349">
        <ele>67</ele>
        <time>2019-07-11T06:51:29Z</time>
      </trkpt>
      <trkpt lat="48.81285" lon="-3.33353">
        <ele>66.6</ele>
        <time>2019-07-11T06:51:30Z</time>
      </trkpt>
      <trkpt lat="48.81289" lon="-3.33358">
        <ele>66.7</ele>
        <time>2019-07-11T06:51:31Z</time>
      </trkpt>
      <trkpt lat="48.81292" lon="-3.33363">
        <ele>67.3</ele>
        <time>2019-07-11T06:51:32Z</time>
      </trkpt>
      <trkpt lat="48.81294" lon="-3.3337">
        <ele>68</ele>
        <time>2019-07-11T06:51:33Z</time>
      </trkpt>
      <trkpt lat="48.81295" lon="-3.33378">
        <ele>69.5</ele>
        <time>2019-07-11T06:51:34Z</time>
      </trkpt>
      <trkpt lat="48.81296" lon="-3.33387">
        <ele>70.7</ele>
        <time>2019-07-11T06:51:35Z</time>
      </trkpt>
      <trkpt lat="48.81296" lon="-3.33396">
        <ele>71.1</ele>
        <time>2019-07-11T06:51:36Z</time>
      </trkpt>
      <trkpt lat="48.81296" lon="-3.33404">
        <ele>71.8</ele>
        <time>2019-07-11T06:51:37Z</time>
      </trkpt>
      <trkpt lat="48.81296" lon="-3.33412">
        <ele>72.3</ele>
        <time>2019-07-11T06:51:38Z</time>
      </trkpt>
      <trkpt lat="48.81296" lon="-3.33421">
        <ele>73</ele>
        <time>2019-07-11T06:51:39Z</time>
      </trkpt>
      <trkpt lat="48.81296" lon="-3.33429">
        <ele>73.3</ele>
        <time>2019-07-11T06:51:40Z</time>
      </trkpt>
      <trkpt lat="48.81296" lon="-3.33437">
        <ele>73.3</ele>
        <time>2019-07-11T06:51:41Z</time>
      </trkpt>
      <trkpt lat="48.81297" lon="-3.33445">
        <ele>73.3</ele>
        <time>2019-07-11T06:51:42Z</time>
      </trkpt>
      <trkpt lat="48.81297" lon="-3.33453">
        <ele>72.8</ele>
        <time>2019-07-11T06:51:43Z</time>
      </trkpt>
      <trkpt lat="48.81296" lon="-3.33461">
        <ele>72.4</ele>
        <time>2019-07-11T06:51:44Z</time>
      </trkpt>
      <trkpt lat="48.81295" lon="-3.33468">
        <ele>72</ele>
        <time>2019-07-11T06:51:45Z</time>
      </trkpt>
      <trkpt lat="48.81294" lon="-3.33475">
        <ele>72.2</ele>
        <time>2019-07-11T06:51:46Z</time>
      </trkpt>
      <trkpt lat="48.81294" lon="-3.33481">
        <ele>71.4</ele>
        <time>2019-07-11T06:51:47Z</time>
      </trkpt>
      <trkpt lat="48.81292" lon="-3.33485">
        <ele>70.7</ele>
        <time>2019-07-11T06:51:48Z</time>
      </trkpt>
      <trkpt lat="48.8129" lon="-3.3349">
        <ele>70.2</ele>
        <time>2019-07-11T06:51:49Z</time>
      </trkpt>
      <trkpt lat="48.81289" lon="-3.33494">
        <ele>69.3</ele>
        <time>2019-07-11T06:51:50Z</time>
      </trkpt>
      <trkpt lat="48.81287" lon="-3.33498">
        <ele>69.6</ele>
        <time>2019-07-11T06:51:51Z</time>
      </trkpt>
      <trkpt lat="48.81286" lon="-3.33502">
        <ele>69.4</ele>
        <time>2019-07-11T06:51:52Z</time>
      </trkpt>
      <trkpt lat="48.81284" lon="-3.33506">
        <ele>68.3</ele>
        <time>2019-07-11T06:51:53Z</time>
      </trkpt>
      <trkpt lat="48.81282" lon="-3.33511">
        <ele>68.1</ele>
        <time>2019-07-11T06:51:54Z</time>
      </trkpt>
      <trkpt lat="48.8128" lon="-3.33515">
        <ele>67.3</ele>
        <time>2019-07-11T06:51:55Z</time>
      </trkpt>
      <trkpt lat="48.81279" lon="-3.33519">
        <ele>67.2</ele>
        <time>2019-07-11T06:51:56Z</time>
      </trkpt>
      <trkpt lat="48.81277" lon="-3.33523">
        <ele>66.5</ele>
        <time>2019-07-11T06:51:57Z</time>
      </trkpt>
      <trkpt lat="48.81275" lon="-3.33528">
        <ele>66.3</ele>
        <time>2019-07-11T06:51:58Z</time>
      </trkpt>
      <trkpt lat="48.81272" lon="-3.33533">
        <ele>65.8</ele>
        <time>2019-07-11T06:51:59Z</time>
      </trkpt>
      <trkpt lat="48.81269" lon="-3.33538">
        <ele>64.5</ele>
        <time>2019-07-11T06:52:00Z</time>
      </trkpt>
      <trkpt lat="48.81266" lon="-3.33542">
        <ele>64</ele>
        <time>2019-07-11T06:52:01Z</time>
      </trkpt>
      <trkpt lat="48.81262" lon="-3.33546">
        <ele>65</ele>
        <time>2019-07-11T06:52:02Z</time>
      </trkpt>
      <trkpt lat="48.81258" lon="-3.33549">
        <ele>65.2</ele>
        <time>2019-07-11T06:52:03Z</time>
      </trkpt>
      <trkpt lat="48.81255" lon="-3.33551">
        <ele>66</ele>
        <time>2019-07-11T06:52:04Z</time>
      </trkpt>
      <trkpt lat="48.81251" lon="-3.33552">
        <ele>66.5</ele>
        <time>2019-07-11T06:52:05Z</time>
      </trkpt>
      <trkpt lat="48.81247" lon="-3.33554">
        <ele>67.1</ele>
        <time>2019-07-11T06:52:06Z</time>
      </trkpt>
      <trkpt lat="48.81243" lon="-3.33554">
        <ele>67.1</ele>
        <time>2019-07-11T06:52:07Z</time>
      </trkpt>
      <trkpt lat="48.8124" lon="-3.33555">
        <ele>67.2</ele>
        <time>2019-07-11T06:52:08Z</time>
      </trkpt>
      <trkpt lat="48.81237" lon="-3.33556">
        <ele>67.7</ele>
        <time>2019-07-11T06:52:09Z</time>
      </trkpt>
      <trkpt lat="48.81234" lon="-3.33557">
        <ele>68.1</ele>
        <time>2019-07-11T06:52:10Z</time>
      </trkpt>
      <trkpt lat="48.8123" lon="-3.33557">
        <ele>68.5</ele>
        <time>2019-07-11T06:52:11Z</time>
      </trkpt>
      <trkpt lat="48.81226" lon="-3.33558">
        <ele>69</ele>
        <time>2019-07-11T06:52:12Z</time>
      </trkpt>
      <trkpt lat="48.81224" lon="-3.33558">
        <ele>69.6</ele>
        <time>2019-07-11T06:52:13Z</time>
      </trkpt>
      <trkpt lat="48.8122" lon="-3.33559">
        <ele>70.8</ele>
        <time>2019-07-11T06:52:14Z</time>
      </trkpt>
      <trkpt lat="48.81216" lon="-3.3356">
        <ele>71.4</ele>
        <time>2019-07-11T06:52:15Z</time>
      </trkpt>
      <trkpt lat="48.81212" lon="-3.33561">
        <ele>71.1</ele>
        <time>2019-07-11T06:52:16Z</time>
      </trkpt>
      <trkpt lat="48.81207" lon="-3.33562">
        <ele>71.6</ele>
        <time>2019-07-11T06:52:17Z</time>
      </trkpt>
      <trkpt lat="48.81204" lon="-3.33562">
        <ele>72</ele>
        <time>2019-07-11T06:52:18Z</time>
      </trkpt>
      <trkpt lat="48.812" lon="-3.33563">
        <ele>72.7</ele>
        <time>2019-07-11T06:52:19Z</time>
      </trkpt>
      <trkpt lat="48.81196" lon="-3.33563">
        <ele>72.2</ele>
        <time>2019-07-11T06:52:20Z</time>
      </trkpt>
      <trkpt lat="48.81192" lon="-3.33563">
        <ele>72.3</ele>
        <time>2019-07-11T06:52:21Z</time>
      </trkpt>
      <trkpt lat="48.81188" lon="-3.33564">
        <ele>72.9</ele>
        <time>2019-07-11T06:52:22Z</time>
      </trkpt>
      <trkpt lat="48.81184" lon="-3.33564">
        <ele>73.9</ele>
        <time>2019-07-11T06:52:23Z</time>
      </trkpt>
      <trkpt lat="48.81179" lon="-3.33565">
        <ele>74.7</ele>
        <time>2019-07-11T06:52:24Z</time>
      </trkpt>
      <trkpt lat="48.81176" lon="-3.33566">
        <ele>76.1</ele>
        <time>2019-07-11T06:52:25Z</time>
      </trkpt>
      <trkpt lat="48.81171" lon="-3.33567">
        <ele>76.7</ele>
        <time>2019-07-11T06:52:26Z</time>
      </trkpt>
      <trkpt lat="48.81168" lon="-3.33568">
        <ele>76.7</ele>
        <time>2019-07-11T06:52:27Z</time>
      </trkpt>
      <trkpt lat="48.81163" lon="-3.33569">
        <ele>76.9</ele>
        <time>2019-07-11T06:52:28Z</time>
      </trkpt>
      <trkpt lat="48.81159" lon="-3.33569">
        <ele>77.2</ele>
        <time>2019-07-11T06:52:29Z</time>
      </trkpt>
      <trkpt lat="48.81155" lon="-3.3357">
        <ele>77.3</ele>
        <time>2019-07-11T06:52:30Z</time>
      </trkpt>
      <trkpt lat="48.81151" lon="-3.3357">
        <ele>76.5</ele>
        <time>2019-07-11T06:52:31Z</time>
      </trkpt>
      <trkpt lat="48.81147" lon="-3.33571">
        <ele>76</ele>
        <time>2019-07-11T06:52:32Z</time>
      </trkpt>
      <trkpt lat="48.81144" lon="-3.33573">
        <ele>76.7</ele>
        <time>2019-07-11T06:52:33Z</time>
      </trkpt>
      <trkpt lat="48.8114" lon="-3.33576">
        <ele>76.9</ele>
        <time>2019-07-11T06:52:34Z</time>
      </trkpt>
      <trkpt lat="48.81136" lon="-3.33579">
        <ele>77.1</ele>
        <time>2019-07-11T06:52:35Z</time>
      </trkpt>
      <trkpt lat="48.81131" lon="-3.33581">
        <ele>76.8</ele>
        <time>2019-07-11T06:52:36Z</time>
      </trkpt>
      <trkpt lat="48.81127" lon="-3.33585">
        <ele>76.8</ele>
        <time>2019-07-11T06:52:37Z</time>
      </trkpt>
      <trkpt lat="48.81123" lon="-3.33588">
        <ele>77.1</ele>
        <time>2019-07-11T06:52:38Z</time>
      </trkpt>
      <trkpt lat="48.8112" lon="-3.33592">
        <ele>77.2</ele>
        <time>2019-07-11T06:52:39Z</time>
      </trkpt>
      <trkpt lat="48.81116" lon="-3.33596">
        <ele>77.2</ele>
        <time>2019-07-11T06:52:40Z</time>
      </trkpt>
      <trkpt lat="48.81113" lon="-3.33601">
        <ele>77.2</ele>
        <time>2019-07-11T06:52:41Z</time>
      </trkpt>
      <trkpt lat="48.8111" lon="-3.33605">
        <ele>77.3</ele>
        <time>2019-07-11T06:52:42Z</time>
      </trkpt>
      <trkpt lat="48.81106" lon="-3.33609">
        <ele>77.3</ele>
        <time>2019-07-11T06:52:43Z</time>
      </trkpt>
      <trkpt lat="48.81103" lon="-3.33613">
        <ele>77.4</ele>
        <time>2019-07-11T06:52:44Z</time>
      </trkpt>
      <trkpt lat="48.811" lon="-3.33617">
        <ele>77.6</ele>
        <time>2019-07-11T06:52:45Z</time>
      </trkpt>
      <trkpt lat="48.81096" lon="-3.33621">
        <ele>77.7</ele>
        <time>2019-07-11T06:52:46Z</time>
      </trkpt>
      <trkpt lat="48.81093" lon="-3.33625">
        <ele>78.1</ele>
        <time>2019-07-11T06:52:47Z</time>
      </trkpt>
      <trkpt lat="48.81089" lon="-3.33629">
        <ele>78.4</ele>
        <time>2019-07-11T06:52:48Z</time>
      </trkpt>
      <trkpt lat="48.81086" lon="-3.33631">
        <ele>78.6</ele>
        <time>2019-07-11T06:52:49Z</time>
      </trkpt>
      <trkpt lat="48.81082" lon="-3.33634">
        <ele>78.7</ele>
        <time>2019-07-11T06:52:50Z</time>
      </trkpt>
      <trkpt lat="48.81078" lon="-3.33636">
        <ele>78.8</ele>
        <time>2019-07-11T06:52:51Z</time>
      </trkpt>
      <trkpt lat="48.81075" lon="-3.33638">
        <ele>79</ele>
        <time>2019-07-11T06:52:52Z</time>
      </trkpt>
      <trkpt lat="48.81072" lon="-3.33639">
        <ele>80.5</ele>
        <time>2019-07-11T06:52:53Z</time>
      </trkpt>
      <trkpt lat="48.81067" lon="-3.33639">
        <ele>79.1</ele>
        <time>2019-07-11T06:52:54Z</time>
      </trkpt>
      <trkpt lat="48.81062" lon="-3.3364">
        <ele>78.9</ele>
        <time>2019-07-11T06:52:55Z</time>
      </trkpt>
      <trkpt lat="48.81058" lon="-3.33641">
        <ele>78.1</ele>
        <time>2019-07-11T06:52:56Z</time>
      </trkpt>
      <trkpt lat="48.81053" lon="-3.33642">
        <ele>77.5</ele>
        <time>2019-07-11T06:52:57Z</time>
      </trkpt>
      <trkpt lat="48.81048" lon="-3.33643">
        <ele>77.1</ele>
        <time>2019-07-11T06:52:58Z</time>
      </trkpt>
      <trkpt lat="48.81043" lon="-3.33644">
        <ele>76.8</ele>
        <time>2019-07-11T06:52:59Z</time>
      </trkpt>
      <trkpt lat="48.81038" lon="-3.33646">
        <ele>76.5</ele>
        <time>2019-07-11T06:53:00Z</time>
      </trkpt>
      <trkpt lat="48.81033" lon="-3.33647">
        <ele>76.6</ele>
        <time>2019-07-11T06:53:01Z</time>
      </trkpt>
      <trkpt lat="48.81028" lon="-3.33649">
        <ele>76.2</ele>
        <time>2019-07-11T06:53:02Z</time>
      </trkpt>
      <trkpt lat="48.81023" lon="-3.33651">
        <ele>76.2</ele>
        <time>2019-07-11T06:53:03Z</time>
      </trkpt>
      <trkpt lat="48.81018" lon="-3.33654">
        <ele>76.4</ele>
        <time>2019-07-11T06:53:04Z</time>
      </trkpt>
      <trkpt lat="48.81014" lon="-3.33656">
        <ele>76.2</ele>
        <time>2019-07-11T06:53:05Z</time>
      </trkpt>
      <trkpt lat="48.81009" lon="-3.33658">
        <ele>76.1</ele>
        <time>2019-07-11T06:53:06Z</time>
      </trkpt>
      <trkpt lat="48.81004" lon="-3.3366">
        <ele>76.1</ele>
        <time>2019-07-11T06:53:07Z</time>
      </trkpt>
      <trkpt lat="48.80999" lon="-3.33662">
        <ele>76.1</ele>
        <time>2019-07-11T06:53:08Z</time>
      </trkpt>
      <trkpt lat="48.80994" lon="-3.33664">
        <ele>76.3</ele>
        <time>2019-07-11T06:53:09Z</time>
      </trkpt>
      <trkpt lat="48.8099" lon="-3.33666">
        <ele>76.3</ele>
        <time>2019-07-11T06:53:10Z</time>
      </trkpt>
      <trkpt lat="48.80985" lon="-3.33667">
        <ele>76.2</ele>
        <time>2019-07-11T06:53:11Z</time>
      </trkpt>
      <trkpt lat="48.8098" lon="-3.33669">
        <ele>75.9</ele>
        <time>2019-07-11T06:53:12Z</time>
      </trkpt>
      <trkpt lat="48.80975" lon="-3.33672">
        <ele>75.9</ele>
        <time>2019-07-11T06:53:13Z</time>
      </trkpt>
      <trkpt lat="48.8097" lon="-3.33674">
        <ele>75.7</ele>
        <time>2019-07-11T06:53:14Z</time>
      </trkpt>
      <trkpt lat="48.80966" lon="-3.33676">
        <ele>75.7</ele>
        <time>2019-07-11T06:53:15Z</time>
      </trkpt>
      <trkpt lat="48.80961" lon="-3.33679">
        <ele>75.3</ele>
        <time>2019-07-11T06:53:16Z</time>
      </trkpt>
      <trkpt lat="48.80957" lon="-3.33681">
        <ele>75</ele>
        <time>2019-07-11T06:53:17Z</time>
      </trkpt>
      <trkpt lat="48.80952" lon="-3.33683">
        <ele>74.3</ele>
        <time>2019-07-11T06:53:18Z</time>
      </trkpt>
      <trkpt lat="48.80948" lon="-3.33685">
        <ele>73.8</ele>
        <time>2019-07-11T06:53:19Z</time>
      </trkpt>
      <trkpt lat="48.80943" lon="-3.33688">
        <ele>72.9</ele>
        <time>2019-07-11T06:53:20Z</time>
      </trkpt>
      <trkpt lat="48.80938" lon="-3.3369">
        <ele>72.4</ele>
        <time>2019-07-11T06:53:21Z</time>
      </trkpt>
      <trkpt lat="48.80933" lon="-3.33692">
        <ele>72.1</ele>
        <time>2019-07-11T06:53:22Z</time>
      </trkpt>
      <trkpt lat="48.80929" lon="-3.33694">
        <ele>72.4</ele>
        <time>2019-07-11T06:53:23Z</time>
      </trkpt>
      <trkpt lat="48.80924" lon="-3.33696">
        <ele>72.5</ele>
        <time>2019-07-11T06:53:24Z</time>
      </trkpt>
      <trkpt lat="48.8092" lon="-3.33698">
        <ele>72.5</ele>
        <time>2019-07-11T06:53:25Z</time>
      </trkpt>
      <trkpt lat="48.80916" lon="-3.33699">
        <ele>72.2</ele>
        <time>2019-07-11T06:53:26Z</time>
      </trkpt>
      <trkpt lat="48.80911" lon="-3.33698">
        <ele>72.4</ele>
        <time>2019-07-11T06:53:27Z</time>
      </trkpt>
      <trkpt lat="48.80907" lon="-3.33697">
        <ele>72.5</ele>
        <time>2019-07-11T06:53:28Z</time>
      </trkpt>
      <trkpt lat="48.80902" lon="-3.33696">
        <ele>72.2</ele>
        <time>2019-07-11T06:53:29Z</time>
      </trkpt>
      <trkpt lat="48.80897" lon="-3.33694">
        <ele>71.7</ele>
        <time>2019-07-11T06:53:30Z</time>
      </trkpt>
      <trkpt lat="48.80891" lon="-3.33692">
        <ele>71.6</ele>
        <time>2019-07-11T06:53:31Z</time>
      </trkpt>
      <trkpt lat="48.80886" lon="-3.33691">
        <ele>71.3</ele>
        <time>2019-07-11T06:53:32Z</time>
      </trkpt>
      <trkpt lat="48.80881" lon="-3.33689">
        <ele>70.9</ele>
        <time>2019-07-11T06:53:33Z</time>
      </trkpt>
      <trkpt lat="48.80876" lon="-3.33687">
        <ele>70.5</ele>
        <time>2019-07-11T06:53:34Z</time>
      </trkpt>
      <trkpt lat="48.80871" lon="-3.33685">
        <ele>69.9</ele>
        <time>2019-07-11T06:53:35Z</time>
      </trkpt>
      <trkpt lat="48.80867" lon="-3.33684">
        <ele>69.1</ele>
        <time>2019-07-11T06:53:36Z</time>
      </trkpt>
      <trkpt lat="48.80863" lon="-3.33682">
        <ele>68.5</ele>
        <time>2019-07-11T06:53:37Z</time>
      </trkpt>
      <trkpt lat="48.8086" lon="-3.33681">
        <ele>67.8</ele>
        <time>2019-07-11T06:53:38Z</time>
      </trkpt>
      <trkpt lat="48.80858" lon="-3.3368">
        <ele>67.2</ele>
        <time>2019-07-11T06:53:39Z</time>
      </trkpt>
      <trkpt lat="48.80856" lon="-3.33679">
        <ele>66.6</ele>
        <time>2019-07-11T06:53:40Z</time>
      </trkpt>
      <trkpt lat="48.80854" lon="-3.33677">
        <ele>65.9</ele>
        <time>2019-07-11T06:53:41Z</time>
      </trkpt>
      <trkpt lat="48.80851" lon="-3.33677">
        <ele>65.3</ele>
        <time>2019-07-11T06:53:42Z</time>
      </trkpt>
      <trkpt lat="48.8085" lon="-3.33676">
        <ele>64.8</ele>
        <time>2019-07-11T06:53:43Z</time>
      </trkpt>
      <trkpt lat="48.80847" lon="-3.33676">
        <ele>64.7</ele>
        <time>2019-07-11T06:53:44Z</time>
      </trkpt>
      <trkpt lat="48.80845" lon="-3.33674">
        <ele>64.4</ele>
        <time>2019-07-11T06:53:45Z</time>
      </trkpt>
      <trkpt lat="48.80843" lon="-3.33672">
        <ele>64.1</ele>
        <time>2019-07-11T06:53:46Z</time>
      </trkpt>
      <trkpt lat="48.8084" lon="-3.3367">
        <ele>63.5</ele>
        <time>2019-07-11T06:53:47Z</time>
      </trkpt>
      <trkpt lat="48.80837" lon="-3.33668">
        <ele>63.1</ele>
        <time>2019-07-11T06:53:48Z</time>
      </trkpt>
      <trkpt lat="48.80833" lon="-3.33667">
        <ele>62.4</ele>
        <time>2019-07-11T06:53:49Z</time>
      </trkpt>
      <trkpt lat="48.8083" lon="-3.33665">
        <ele>61.8</ele>
        <time>2019-07-11T06:53:50Z</time>
      </trkpt>
      <trkpt lat="48.80826" lon="-3.33663">
        <ele>61.2</ele>
        <time>2019-07-11T06:53:51Z</time>
      </trkpt>
      <trkpt lat="48.80824" lon="-3.33662">
        <ele>60.4</ele>
        <time>2019-07-11T06:53:52Z</time>
      </trkpt>
      <trkpt lat="48.80822" lon="-3.3366">
        <ele>59.9</ele>
        <time>2019-07-11T06:53:53Z</time>
      </trkpt>
      <trkpt lat="48.8082" lon="-3.33658">
        <ele>59.8</ele>
        <time>2019-07-11T06:53:54Z</time>
      </trkpt>
      <trkpt lat="48.80819" lon="-3.33655">
        <ele>59.6</ele>
        <time>2019-07-11T06:53:55Z</time>
      </trkpt>
      <trkpt lat="48.80817" lon="-3.33653">
        <ele>59.5</ele>
        <time>2019-07-11T06:53:56Z</time>
      </trkpt>
      <trkpt lat="48.80815" lon="-3.33651">
        <ele>59.3</ele>
        <time>2019-07-11T06:53:57Z</time>
      </trkpt>
      <trkpt lat="48.80813" lon="-3.33648">
        <ele>59.2</ele>
        <time>2019-07-11T06:53:58Z</time>
      </trkpt>
      <trkpt lat="48.80813" lon="-3.33644">
        <ele>59.3</ele>
        <time>2019-07-11T06:53:59Z</time>
      </trkpt>
      <trkpt lat="48.80811" lon="-3.3364">
        <ele>59.2</ele>
        <time>2019-07-11T06:54:00Z</time>
      </trkpt>
      <trkpt lat="48.80809" lon="-3.33638">
        <ele>59.2</ele>
        <time>2019-07-11T06:54:01Z</time>
      </trkpt>
      <trkpt lat="48.80809" lon="-3.33636">
        <ele>59.3</ele>
        <time>2019-07-11T06:54:02Z</time>
      </trkpt>
      <trkpt lat="48.80808" lon="-3.33634">
        <ele>59.6</ele>
        <time>2019-07-11T06:54:03Z</time>
      </trkpt>
      <trkpt lat="48.80807" lon="-3.33632">
        <ele>60.1</ele>
        <time>2019-07-11T06:54:04Z</time>
      </trkpt>
      <trkpt lat="48.80806" lon="-3.3363">
        <ele>60.5</ele>
        <time>2019-07-11T06:54:05Z</time>
      </trkpt>
      <trkpt lat="48.80805" lon="-3.33629">
        <ele>60.9</ele>
        <time>2019-07-11T06:54:06Z</time>
      </trkpt>
      <trkpt lat="48.80803" lon="-3.33627">
        <ele>61.5</ele>
        <time>2019-07-11T06:54:07Z</time>
      </trkpt>
      <trkpt lat="48.80801" lon="-3.33628">
        <ele>62</ele>
        <time>2019-07-11T06:54:08Z</time>
      </trkpt>
      <trkpt lat="48.80799" lon="-3.3363">
        <ele>62.3</ele>
        <time>2019-07-11T06:54:09Z</time>
      </trkpt>
      <trkpt lat="48.80797" lon="-3.33632">
        <ele>62.6</ele>
        <time>2019-07-11T06:54:10Z</time>
      </trkpt>
      <trkpt lat="48.80796" lon="-3.33634">
        <ele>62.7</ele>
        <time>2019-07-11T06:54:11Z</time>
      </trkpt>
      <trkpt lat="48.80794" lon="-3.33636">
        <ele>62.8</ele>
        <time>2019-07-11T06:54:12Z</time>
      </trkpt>
      <trkpt lat="48.80794" lon="-3.33638">
        <ele>62.4</ele>
        <time>2019-07-11T06:54:13Z</time>
      </trkpt>
      <trkpt lat="48.80793" lon="-3.33641">
        <ele>62.1</ele>
        <time>2019-07-11T06:54:14Z</time>
      </trkpt>
      <trkpt lat="48.80792" lon="-3.33644">
        <ele>62.2</ele>
        <time>2019-07-11T06:54:15Z</time>
      </trkpt>
      <trkpt lat="48.8079" lon="-3.33648">
        <ele>62.2</ele>
        <time>2019-07-11T06:54:16Z</time>
      </trkpt>
      <trkpt lat="48.80789" lon="-3.33653">
        <ele>62.1</ele>
        <time>2019-07-11T06:54:17Z</time>
      </trkpt>
      <trkpt lat="48.80788" lon="-3.33657">
        <ele>62.1</ele>
        <time>2019-07-11T06:54:18Z</time>
      </trkpt>
      <trkpt lat="48.80787" lon="-3.33661">
        <ele>62.1</ele>
        <time>2019-07-11T06:54:19Z</time>
      </trkpt>
      <trkpt lat="48.80786" lon="-3.33665">
        <ele>62.1</ele>
        <time>2019-07-11T06:54:20Z</time>
      </trkpt>
      <trkpt lat="48.80784" lon="-3.33668">
        <ele>62.2</ele>
        <time>2019-07-11T06:54:21Z</time>
      </trkpt>
      <trkpt lat="48.80782" lon="-3.33671">
        <ele>62.2</ele>
        <time>2019-07-11T06:54:22Z</time>
      </trkpt>
      <trkpt lat="48.80781" lon="-3.33674">
        <ele>62.4</ele>
        <time>2019-07-11T06:54:23Z</time>
      </trkpt>
      <trkpt lat="48.80779" lon="-3.33676">
        <ele>62.7</ele>
        <time>2019-07-11T06:54:24Z</time>
      </trkpt>
      <trkpt lat="48.80778" lon="-3.33679">
        <ele>62.9</ele>
        <time>2019-07-11T06:54:25Z</time>
      </trkpt>
      <trkpt lat="48.80774" lon="-3.33684">
        <ele>63.7</ele>
        <time>2019-07-11T06:54:26Z</time>
      </trkpt>
      <trkpt lat="48.80771" lon="-3.33689">
        <ele>64.6</ele>
        <time>2019-07-11T06:54:27Z</time>
      </trkpt>
      <trkpt lat="48.80769" lon="-3.33695">
        <ele>65.3</ele>
        <time>2019-07-11T06:54:28Z</time>
      </trkpt>
      <trkpt lat="48.80766" lon="-3.337">
        <ele>65.4</ele>
        <time>2019-07-11T06:54:29Z</time>
      </trkpt>
      <trkpt lat="48.80765" lon="-3.33704">
        <ele>65.6</ele>
        <time>2019-07-11T06:54:30Z</time>
      </trkpt>
      <trkpt lat="48.80763" lon="-3.33709">
        <ele>65.4</ele>
        <time>2019-07-11T06:54:31Z</time>
      </trkpt>
      <trkpt lat="48.80761" lon="-3.33712">
        <ele>65.2</ele>
        <time>2019-07-11T06:54:32Z</time>
      </trkpt>
      <trkpt lat="48.80758" lon="-3.33715">
        <ele>65.1</ele>
        <time>2019-07-11T06:54:33Z</time>
      </trkpt>
      <trkpt lat="48.80755" lon="-3.33716">
        <ele>65</ele>
        <time>2019-07-11T06:54:34Z</time>
      </trkpt>
      <trkpt lat="48.80751" lon="-3.33717">
        <ele>64.9</ele>
        <time>2019-07-11T06:54:35Z</time>
      </trkpt>
      <trkpt lat="48.80749" lon="-3.33718">
        <ele>64.9</ele>
        <time>2019-07-11T06:54:36Z</time>
      </trkpt>
      <trkpt lat="48.80745" lon="-3.33721">
        <ele>65.1</ele>
        <time>2019-07-11T06:54:37Z</time>
      </trkpt>
      <trkpt lat="48.80741" lon="-3.33723">
        <ele>65</ele>
        <time>2019-07-11T06:54:38Z</time>
      </trkpt>
      <trkpt lat="48.80738" lon="-3.33725">
        <ele>65</ele>
        <time>2019-07-11T06:54:39Z</time>
      </trkpt>
      <trkpt lat="48.80734" lon="-3.33728">
        <ele>64.6</ele>
        <time>2019-07-11T06:54:40Z</time>
      </trkpt>
      <trkpt lat="48.80731" lon="-3.3373">
        <ele>63.7</ele>
        <time>2019-07-11T06:54:41Z</time>
      </trkpt>
      <trkpt lat="48.80729" lon="-3.33732">
        <ele>62.8</ele>
        <time>2019-07-11T06:54:42Z</time>
      </trkpt>
      <trkpt lat="48.80726" lon="-3.33735">
        <ele>62.1</ele>
        <time>2019-07-11T06:54:43Z</time>
      </trkpt>
      <trkpt lat="48.80723" lon="-3.33738">
        <ele>61.1</ele>
        <time>2019-07-11T06:54:44Z</time>
      </trkpt>
      <trkpt lat="48.80721" lon="-3.3374">
        <ele>59.8</ele>
        <time>2019-07-11T06:54:45Z</time>
      </trkpt>
      <trkpt lat="48.8072" lon="-3.33744">
        <ele>58.5</ele>
        <time>2019-07-11T06:54:46Z</time>
      </trkpt>
      <trkpt lat="48.80719" lon="-3.33747">
        <ele>56.9</ele>
        <time>2019-07-11T06:54:47Z</time>
      </trkpt>
      <trkpt lat="48.80718" lon="-3.3375">
        <ele>55.3</ele>
        <time>2019-07-11T06:54:48Z</time>
      </trkpt>
      <trkpt lat="48.80715" lon="-3.33753">
        <ele>54</ele>
        <time>2019-07-11T06:54:49Z</time>
      </trkpt>
      <trkpt lat="48.80714" lon="-3.33756">
        <ele>53.1</ele>
        <time>2019-07-11T06:54:50Z</time>
      </trkpt>
      <trkpt lat="48.80711" lon="-3.33758">
        <ele>52.1</ele>
        <time>2019-07-11T06:54:51Z</time>
      </trkpt>
      <trkpt lat="48.80709" lon="-3.33759">
        <ele>51.2</ele>
        <time>2019-07-11T06:54:52Z</time>
      </trkpt>
      <trkpt lat="48.80703" lon="-3.33765">
        <ele>47.9</ele>
        <time>2019-07-11T06:54:55Z</time>
      </trkpt>
      <trkpt lat="48.80701" lon="-3.33766">
        <ele>46.7</ele>
        <time>2019-07-11T06:54:56Z</time>
      </trkpt>
      <trkpt lat="48.80699" lon="-3.33768">
        <ele>45.3</ele>
        <time>2019-07-11T06:54:57Z</time>
      </trkpt>
      <trkpt lat="48.80696" lon="-3.33771">
        <ele>44.6</ele>
        <time>2019-07-11T06:54:58Z</time>
      </trkpt>
      <trkpt lat="48.80693" lon="-3.33773">
        <ele>44.2</ele>
        <time>2019-07-11T06:54:59Z</time>
      </trkpt>
      <trkpt lat="48.80692" lon="-3.33776">
        <ele>43.6</ele>
        <time>2019-07-11T06:55:00Z</time>
      </trkpt>
      <trkpt lat="48.8069" lon="-3.33779">
        <ele>43.2</ele>
        <time>2019-07-11T06:55:01Z</time>
      </trkpt>
      <trkpt lat="48.8069" lon="-3.33783">
        <ele>42.3</ele>
        <time>2019-07-11T06:55:02Z</time>
      </trkpt>
      <trkpt lat="48.80689" lon="-3.33786">
        <ele>41.7</ele>
        <time>2019-07-11T06:55:03Z</time>
      </trkpt>
      <trkpt lat="48.80687" lon="-3.3379">
        <ele>41.2</ele>
        <time>2019-07-11T06:55:04Z</time>
      </trkpt>
      <trkpt lat="48.80687" lon="-3.33794">
        <ele>40.6</ele>
        <time>2019-07-11T06:55:05Z</time>
      </trkpt>
      <trkpt lat="48.80686" lon="-3.33798">
        <ele>39.9</ele>
        <time>2019-07-11T06:55:06Z</time>
      </trkpt>
      <trkpt lat="48.80685" lon="-3.33803">
        <ele>39.3</ele>
        <time>2019-07-11T06:55:07Z</time>
      </trkpt>
      <trkpt lat="48.80684" lon="-3.33806">
        <ele>38.3</ele>
        <time>2019-07-11T06:55:08Z</time>
      </trkpt>
      <trkpt lat="48.80682" lon="-3.3381">
        <ele>37.1</ele>
        <time>2019-07-11T06:55:09Z</time>
      </trkpt>
      <trkpt lat="48.80682" lon="-3.33813">
        <ele>36.3</ele>
        <time>2019-07-11T06:55:10Z</time>
      </trkpt>
      <trkpt lat="48.80681" lon="-3.33816">
        <ele>35.6</ele>
        <time>2019-07-11T06:55:11Z</time>
      </trkpt>
      <trkpt lat="48.8068" lon="-3.3382">
        <ele>35.5</ele>
        <time>2019-07-11T06:55:12Z</time>
      </trkpt>
      <trkpt lat="48.80679" lon="-3.33822">
        <ele>34.4</ele>
        <time>2019-07-11T06:55:13Z</time>
      </trkpt>
      <trkpt lat="48.80678" lon="-3.33825">
        <ele>33.8</ele>
        <time>2019-07-11T06:55:14Z</time>
      </trkpt>
      <trkpt lat="48.80677" lon="-3.33827">
        <ele>33</ele>
        <time>2019-07-11T06:55:15Z</time>
      </trkpt>
      <trkpt lat="48.80676" lon="-3.3383">
        <ele>32.1</ele>
        <time>2019-07-11T06:55:16Z</time>
      </trkpt>
      <trkpt lat="48.80675" lon="-3.33833">
        <ele>32</ele>
        <time>2019-07-11T06:55:17Z</time>
      </trkpt>
      <trkpt lat="48.80674" lon="-3.33837">
        <ele>31.6</ele>
        <time>2019-07-11T06:55:18Z</time>
      </trkpt>
      <trkpt lat="48.80674" lon="-3.33841">
        <ele>30.9</ele>
        <time>2019-07-11T06:55:19Z</time>
      </trkpt>
      <trkpt lat="48.80673" lon="-3.33844">
        <ele>30.1</ele>
        <time>2019-07-11T06:55:20Z</time>
      </trkpt>
      <trkpt lat="48.80671" lon="-3.33849">
        <ele>30.3</ele>
        <time>2019-07-11T06:55:21Z</time>
      </trkpt>
      <trkpt lat="48.80671" lon="-3.33854">
        <ele>29.9</ele>
        <time>2019-07-11T06:55:22Z</time>
      </trkpt>
      <trkpt lat="48.80671" lon="-3.33859">
        <ele>29.4</ele>
        <time>2019-07-11T06:55:23Z</time>
      </trkpt>
      <trkpt lat="48.8067" lon="-3.33863">
        <ele>29</ele>
        <time>2019-07-11T06:55:24Z</time>
      </trkpt>
      <trkpt lat="48.8067" lon="-3.33867">
        <ele>28.9</ele>
        <time>2019-07-11T06:55:25Z</time>
      </trkpt>
      <trkpt lat="48.80669" lon="-3.33871">
        <ele>28.4</ele>
        <time>2019-07-11T06:55:26Z</time>
      </trkpt>
      <trkpt lat="48.80668" lon="-3.33875">
        <ele>27.6</ele>
        <time>2019-07-11T06:55:27Z</time>
      </trkpt>
      <trkpt lat="48.80667" lon="-3.33879">
        <ele>27.5</ele>
        <time>2019-07-11T06:55:28Z</time>
      </trkpt>
      <trkpt lat="48.80665" lon="-3.33882">
        <ele>27.1</ele>
        <time>2019-07-11T06:55:29Z</time>
      </trkpt>
      <trkpt lat="48.80662" lon="-3.33886">
        <ele>26.6</ele>
        <time>2019-07-11T06:55:30Z</time>
      </trkpt>
      <trkpt lat="48.80658" lon="-3.33891">
        <ele>26.2</ele>
        <time>2019-07-11T06:55:31Z</time>
      </trkpt>
      <trkpt lat="48.80656" lon="-3.33893">
        <ele>25.9</ele>
        <time>2019-07-11T06:55:32Z</time>
      </trkpt>
      <trkpt lat="48.80654" lon="-3.33896">
        <ele>25.5</ele>
        <time>2019-07-11T06:55:33Z</time>
      </trkpt>
      <trkpt lat="48.80652" lon="-3.33899">
        <ele>25.4</ele>
        <time>2019-07-11T06:55:34Z</time>
      </trkpt>
      <trkpt lat="48.80651" lon="-3.33902">
        <ele>25.4</ele>
        <time>2019-07-11T06:55:35Z</time>
      </trkpt>
      <trkpt lat="48.8065" lon="-3.33905">
        <ele>25.3</ele>
        <time>2019-07-11T06:55:36Z</time>
      </trkpt>
      <trkpt lat="48.80649" lon="-3.33908">
        <ele>25.3</ele>
        <time>2019-07-11T06:55:37Z</time>
      </trkpt>
      <trkpt lat="48.80646" lon="-3.33913">
        <ele>24.1</ele>
        <time>2019-07-11T06:55:38Z</time>
      </trkpt>
      <trkpt lat="48.80644" lon="-3.33917">
        <ele>23.2</ele>
        <time>2019-07-11T06:55:39Z</time>
      </trkpt>
      <trkpt lat="48.80641" lon="-3.3392">
        <ele>22.7</ele>
        <time>2019-07-11T06:55:40Z</time>
      </trkpt>
      <trkpt lat="48.80639" lon="-3.33922">
        <ele>22.4</ele>
        <time>2019-07-11T06:55:41Z</time>
      </trkpt>
      <trkpt lat="48.80636" lon="-3.33923">
        <ele>22.2</ele>
        <time>2019-07-11T06:55:42Z</time>
      </trkpt>
      <trkpt lat="48.80634" lon="-3.33924">
        <ele>21.9</ele>
        <time>2019-07-11T06:55:43Z</time>
      </trkpt>
      <trkpt lat="48.80632" lon="-3.33925">
        <ele>21.7</ele>
        <time>2019-07-11T06:55:44Z</time>
      </trkpt>
      <trkpt lat="48.80629" lon="-3.33925">
        <ele>21.6</ele>
        <time>2019-07-11T06:55:45Z</time>
      </trkpt>
      <trkpt lat="48.80626" lon="-3.33925">
        <ele>21.6</ele>
        <time>2019-07-11T06:55:46Z</time>
      </trkpt>
      <trkpt lat="48.80623" lon="-3.33925">
        <ele>21.6</ele>
        <time>2019-07-11T06:55:47Z</time>
      </trkpt>
      <trkpt lat="48.80619" lon="-3.33924">
        <ele>21.5</ele>
        <time>2019-07-11T06:55:48Z</time>
      </trkpt>
      <trkpt lat="48.80615" lon="-3.33923">
        <ele>21.3</ele>
        <time>2019-07-11T06:55:49Z</time>
      </trkpt>
      <trkpt lat="48.80611" lon="-3.33922">
        <ele>21</ele>
        <time>2019-07-11T06:55:50Z</time>
      </trkpt>
      <trkpt lat="48.80606" lon="-3.3392">
        <ele>20.9</ele>
        <time>2019-07-11T06:55:51Z</time>
      </trkpt>
      <trkpt lat="48.80602" lon="-3.33918">
        <ele>21.1</ele>
        <time>2019-07-11T06:55:52Z</time>
      </trkpt>
      <trkpt lat="48.80599" lon="-3.33916">
        <ele>21.2</ele>
        <time>2019-07-11T06:55:53Z</time>
      </trkpt>
      <trkpt lat="48.80596" lon="-3.33917">
        <ele>21.2</ele>
        <time>2019-07-11T06:55:54Z</time>
      </trkpt>
      <trkpt lat="48.80594" lon="-3.33916">
        <ele>21.4</ele>
        <time>2019-07-11T06:55:55Z</time>
      </trkpt>
      <trkpt lat="48.80591" lon="-3.33915">
        <ele>22</ele>
        <time>2019-07-11T06:55:56Z</time>
      </trkpt>
      <trkpt lat="48.80587" lon="-3.33913">
        <ele>23</ele>
        <time>2019-07-11T06:55:57Z</time>
      </trkpt>
      <trkpt lat="48.80586" lon="-3.33912">
        <ele>24</ele>
        <time>2019-07-11T06:55:58Z</time>
      </trkpt>
      <trkpt lat="48.80584" lon="-3.33909">
        <ele>26.1</ele>
        <time>2019-07-11T06:55:59Z</time>
      </trkpt>
      <trkpt lat="48.80584" lon="-3.33907">
        <ele>27.2</ele>
        <time>2019-07-11T06:56:00Z</time>
      </trkpt>
      <trkpt lat="48.80583" lon="-3.33906">
        <ele>28.2</ele>
        <time>2019-07-11T06:56:01Z</time>
      </trkpt>
      <trkpt lat="48.80582" lon="-3.33906">
        <ele>28.9</ele>
        <time>2019-07-11T06:56:02Z</time>
      </trkpt>
      <trkpt lat="48.8058" lon="-3.33906">
        <ele>29.3</ele>
        <time>2019-07-11T06:56:03Z</time>
      </trkpt>
      <trkpt lat="48.80576" lon="-3.33905">
        <ele>29.7</ele>
        <time>2019-07-11T06:56:04Z</time>
      </trkpt>
      <trkpt lat="48.80573" lon="-3.33903">
        <ele>30</ele>
        <time>2019-07-11T06:56:05Z</time>
      </trkpt>
      <trkpt lat="48.80568" lon="-3.339">
        <ele>30.2</ele>
        <time>2019-07-11T06:56:06Z</time>
      </trkpt>
      <trkpt lat="48.80567" lon="-3.33896">
        <ele>30.5</ele>
        <time>2019-07-11T06:56:07Z</time>
      </trkpt>
      <trkpt lat="48.80566" lon="-3.33893">
        <ele>31.4</ele>
        <time>2019-07-11T06:56:08Z</time>
      </trkpt>
      <trkpt lat="48.80563" lon="-3.33892">
        <ele>32</ele>
        <time>2019-07-11T06:56:09Z</time>
      </trkpt>
      <trkpt lat="48.80559" lon="-3.33891">
        <ele>32.6</ele>
        <time>2019-07-11T06:56:10Z</time>
      </trkpt>
      <trkpt lat="48.80554" lon="-3.33889">
        <ele>33.6</ele>
        <time>2019-07-11T06:56:11Z</time>
      </trkpt>
      <trkpt lat="48.80551" lon="-3.33887">
        <ele>34.1</ele>
        <time>2019-07-11T06:56:12Z</time>
      </trkpt>
      <trkpt lat="48.80548" lon="-3.33885">
        <ele>35.4</ele>
        <time>2019-07-11T06:56:13Z</time>
      </trkpt>
      <trkpt lat="48.80545" lon="-3.33883">
        <ele>36.1</ele>
        <time>2019-07-11T06:56:14Z</time>
      </trkpt>
      <trkpt lat="48.80542" lon="-3.33882">
        <ele>36.5</ele>
        <time>2019-07-11T06:56:15Z</time>
      </trkpt>
      <trkpt lat="48.80541" lon="-3.33882">
        <ele>37.6</ele>
        <time>2019-07-11T06:56:16Z</time>
      </trkpt>
      <trkpt lat="48.80539" lon="-3.3388">
        <ele>38.6</ele>
        <time>2019-07-11T06:56:17Z</time>
      </trkpt>
      <trkpt lat="48.80537" lon="-3.33879">
        <ele>39.7</ele>
        <time>2019-07-11T06:56:18Z</time>
      </trkpt>
      <trkpt lat="48.80535" lon="-3.33877">
        <ele>40.6</ele>
        <time>2019-07-11T06:56:19Z</time>
      </trkpt>
      <trkpt lat="48.80533" lon="-3.33876">
        <ele>41.8</ele>
        <time>2019-07-11T06:56:20Z</time>
      </trkpt>
      <trkpt lat="48.80531" lon="-3.33874">
        <ele>42.9</ele>
        <time>2019-07-11T06:56:21Z</time>
      </trkpt>
      <trkpt lat="48.80529" lon="-3.33873">
        <ele>44.2</ele>
        <time>2019-07-11T06:56:22Z</time>
      </trkpt>
      <trkpt lat="48.80527" lon="-3.33872">
        <ele>46</ele>
        <time>2019-07-11T06:56:23Z</time>
      </trkpt>
      <trkpt lat="48.80525" lon="-3.3387">
        <ele>47.1</ele>
        <time>2019-07-11T06:56:24Z</time>
      </trkpt>
      <trkpt lat="48.80523" lon="-3.33868">
        <ele>48.3</ele>
        <time>2019-07-11T06:56:25Z</time>
      </trkpt>
      <trkpt lat="48.80521" lon="-3.33866">
        <ele>49.3</ele>
        <time>2019-07-11T06:56:26Z</time>
      </trkpt>
      <trkpt lat="48.80518" lon="-3.33864">
        <ele>50.2</ele>
        <time>2019-07-11T06:56:27Z</time>
      </trkpt>
      <trkpt lat="48.80516" lon="-3.33862">
        <ele>51.2</ele>
        <time>2019-07-11T06:56:28Z</time>
      </trkpt>
      <trkpt lat="48.80513" lon="-3.33857">
        <ele>52.7</ele>
        <time>2019-07-11T06:56:29Z</time>
      </trkpt>
      <trkpt lat="48.8051" lon="-3.33855">
        <ele>53.8</ele>
        <time>2019-07-11T06:56:30Z</time>
      </trkpt>
      <trkpt lat="48.80507" lon="-3.33854">
        <ele>54.8</ele>
        <time>2019-07-11T06:56:31Z</time>
      </trkpt>
      <trkpt lat="48.80504" lon="-3.33853">
        <ele>55.8</ele>
        <time>2019-07-11T06:56:32Z</time>
      </trkpt>
      <trkpt lat="48.80502" lon="-3.33853">
        <ele>56.7</ele>
        <time>2019-07-11T06:56:33Z</time>
      </trkpt>
      <trkpt lat="48.80499" lon="-3.33852">
        <ele>57.5</ele>
        <time>2019-07-11T06:56:34Z</time>
      </trkpt>
      <trkpt lat="48.80495" lon="-3.3385">
        <ele>57.9</ele>
        <time>2019-07-11T06:56:35Z</time>
      </trkpt>
      <trkpt lat="48.80493" lon="-3.3385">
        <ele>59</ele>
        <time>2019-07-11T06:56:36Z</time>
      </trkpt>
      <trkpt lat="48.80491" lon="-3.3385">
        <ele>60</ele>
        <time>2019-07-11T06:56:37Z</time>
      </trkpt>
      <trkpt lat="48.80489" lon="-3.33848">
        <ele>60.9</ele>
        <time>2019-07-11T06:56:38Z</time>
      </trkpt>
      <trkpt lat="48.80485" lon="-3.33846">
        <ele>61.6</ele>
        <time>2019-07-11T06:56:39Z</time>
      </trkpt>
      <trkpt lat="48.80484" lon="-3.33845">
        <ele>62.7</ele>
        <time>2019-07-11T06:56:40Z</time>
      </trkpt>
      <trkpt lat="48.80479" lon="-3.33843">
        <ele>62.7</ele>
        <time>2019-07-11T06:56:41Z</time>
      </trkpt>
      <trkpt lat="48.80478" lon="-3.33841">
        <ele>63.8</ele>
        <time>2019-07-11T06:56:42Z</time>
      </trkpt>
      <trkpt lat="48.80477" lon="-3.33839">
        <ele>64.8</ele>
        <time>2019-07-11T06:56:43Z</time>
      </trkpt>
      <trkpt lat="48.80473" lon="-3.33837">
        <ele>65.1</ele>
        <time>2019-07-11T06:56:44Z</time>
      </trkpt>
      <trkpt lat="48.80471" lon="-3.33835">
        <ele>66.1</ele>
        <time>2019-07-11T06:56:45Z</time>
      </trkpt>
      <trkpt lat="48.80468" lon="-3.33832">
        <ele>66</ele>
        <time>2019-07-11T06:56:46Z</time>
      </trkpt>
      <trkpt lat="48.80465" lon="-3.33829">
        <ele>66.4</ele>
        <time>2019-07-11T06:56:47Z</time>
      </trkpt>
      <trkpt lat="48.80462" lon="-3.33826">
        <ele>66.7</ele>
        <time>2019-07-11T06:56:48Z</time>
      </trkpt>
      <trkpt lat="48.80459" lon="-3.33824">
        <ele>66.6</ele>
        <time>2019-07-11T06:56:49Z</time>
      </trkpt>
      <trkpt lat="48.80456" lon="-3.33823">
        <ele>67.6</ele>
        <time>2019-07-11T06:56:50Z</time>
      </trkpt>
      <trkpt lat="48.80453" lon="-3.33822">
        <ele>67.9</ele>
        <time>2019-07-11T06:56:51Z</time>
      </trkpt>
      <trkpt lat="48.80449" lon="-3.33821">
        <ele>67.8</ele>
        <time>2019-07-11T06:56:52Z</time>
      </trkpt>
      <trkpt lat="48.80444" lon="-3.33819">
        <ele>68.1</ele>
        <time>2019-07-11T06:56:53Z</time>
      </trkpt>
      <trkpt lat="48.80441" lon="-3.33818">
        <ele>68.6</ele>
        <time>2019-07-11T06:56:54Z</time>
      </trkpt>
      <trkpt lat="48.80437" lon="-3.33817">
        <ele>68.8</ele>
        <time>2019-07-11T06:56:55Z</time>
      </trkpt>
      <trkpt lat="48.80435" lon="-3.33815">
        <ele>69.1</ele>
        <time>2019-07-11T06:56:56Z</time>
      </trkpt>
      <trkpt lat="48.80433" lon="-3.33814">
        <ele>69.8</ele>
        <time>2019-07-11T06:56:57Z</time>
      </trkpt>
      <trkpt lat="48.80431" lon="-3.33813">
        <ele>70.6</ele>
        <time>2019-07-11T06:56:58Z</time>
      </trkpt>
      <trkpt lat="48.80429" lon="-3.33812">
        <ele>70.8</ele>
        <time>2019-07-11T06:56:59Z</time>
      </trkpt>
      <trkpt lat="48.80425" lon="-3.33809">
        <ele>70.9</ele>
        <time>2019-07-11T06:57:00Z</time>
      </trkpt>
      <trkpt lat="48.80422" lon="-3.33805">
        <ele>71.2</ele>
        <time>2019-07-11T06:57:01Z</time>
      </trkpt>
      <trkpt lat="48.8042" lon="-3.33803">
        <ele>70.9</ele>
        <time>2019-07-11T06:57:02Z</time>
      </trkpt>
      <trkpt lat="48.80417" lon="-3.33802">
        <ele>70.7</ele>
        <time>2019-07-11T06:57:03Z</time>
      </trkpt>
      <trkpt lat="48.80415" lon="-3.338">
        <ele>70.8</ele>
        <time>2019-07-11T06:57:04Z</time>
      </trkpt>
      <trkpt lat="48.80413" lon="-3.33798">
        <ele>71.3</ele>
        <time>2019-07-11T06:57:05Z</time>
      </trkpt>
      <trkpt lat="48.80408" lon="-3.33796">
        <ele>71.3</ele>
        <time>2019-07-11T06:57:06Z</time>
      </trkpt>
      <trkpt lat="48.80406" lon="-3.33795">
        <ele>71.3</ele>
        <time>2019-07-11T06:57:07Z</time>
      </trkpt>
      <trkpt lat="48.80404" lon="-3.33793">
        <ele>70.6</ele>
        <time>2019-07-11T06:57:08Z</time>
      </trkpt>
      <trkpt lat="48.80402" lon="-3.3379">
        <ele>70.7</ele>
        <time>2019-07-11T06:57:09Z</time>
      </trkpt>
      <trkpt lat="48.80397" lon="-3.33787">
        <ele>70.9</ele>
        <time>2019-07-11T06:57:10Z</time>
      </trkpt>
      <trkpt lat="48.80393" lon="-3.33786">
        <ele>69.3</ele>
        <time>2019-07-11T06:57:11Z</time>
      </trkpt>
      <trkpt lat="48.80391" lon="-3.33784">
        <ele>68.6</ele>
        <time>2019-07-11T06:57:12Z</time>
      </trkpt>
      <trkpt lat="48.80388" lon="-3.33781">
        <ele>68</ele>
        <time>2019-07-11T06:57:13Z</time>
      </trkpt>
      <trkpt lat="48.80385" lon="-3.3378">
        <ele>66.8</ele>
        <time>2019-07-11T06:57:14Z</time>
      </trkpt>
      <trkpt lat="48.80382" lon="-3.33779">
        <ele>66.4</ele>
        <time>2019-07-11T06:57:15Z</time>
      </trkpt>
      <trkpt lat="48.80379" lon="-3.33778">
        <ele>65.6</ele>
        <time>2019-07-11T06:57:16Z</time>
      </trkpt>
      <trkpt lat="48.80375" lon="-3.33778">
        <ele>64.2</ele>
        <time>2019-07-11T06:57:17Z</time>
      </trkpt>
      <trkpt lat="48.80372" lon="-3.33778">
        <ele>63.4</ele>
        <time>2019-07-11T06:57:18Z</time>
      </trkpt>
      <trkpt lat="48.80369" lon="-3.33777">
        <ele>62.6</ele>
        <time>2019-07-11T06:57:19Z</time>
      </trkpt>
      <trkpt lat="48.80364" lon="-3.33776">
        <ele>61.3</ele>
        <time>2019-07-11T06:57:20Z</time>
      </trkpt>
      <trkpt lat="48.80359" lon="-3.33773">
        <ele>60.7</ele>
        <time>2019-07-11T06:57:21Z</time>
      </trkpt>
      <trkpt lat="48.80354" lon="-3.3377">
        <ele>60.1</ele>
        <time>2019-07-11T06:57:22Z</time>
      </trkpt>
      <trkpt lat="48.8035" lon="-3.33766">
        <ele>58.6</ele>
        <time>2019-07-11T06:57:23Z</time>
      </trkpt>
      <trkpt lat="48.80348" lon="-3.3376">
        <ele>59.2</ele>
        <time>2019-07-11T06:57:24Z</time>
      </trkpt>
      <trkpt lat="48.80346" lon="-3.33758">
        <ele>58.8</ele>
        <time>2019-07-11T06:57:25Z</time>
      </trkpt>
      <trkpt lat="48.80344" lon="-3.33755">
        <ele>58.2</ele>
        <time>2019-07-11T06:57:26Z</time>
      </trkpt>
      <trkpt lat="48.8034" lon="-3.33753">
        <ele>57.5</ele>
        <time>2019-07-11T06:57:27Z</time>
      </trkpt>
      <trkpt lat="48.80337" lon="-3.33751">
        <ele>57.3</ele>
        <time>2019-07-11T06:57:28Z</time>
      </trkpt>
      <trkpt lat="48.80336" lon="-3.33749">
        <ele>57</ele>
        <time>2019-07-11T06:57:29Z</time>
      </trkpt>
      <trkpt lat="48.80334" lon="-3.33746">
        <ele>56.7</ele>
        <time>2019-07-11T06:57:30Z</time>
      </trkpt>
      <trkpt lat="48.80333" lon="-3.33744">
        <ele>56.4</ele>
        <time>2019-07-11T06:57:31Z</time>
      </trkpt>
      <trkpt lat="48.80331" lon="-3.33742">
        <ele>56.1</ele>
        <time>2019-07-11T06:57:32Z</time>
      </trkpt>
      <trkpt lat="48.80329" lon="-3.3374">
        <ele>55.8</ele>
        <time>2019-07-11T06:57:33Z</time>
      </trkpt>
      <trkpt lat="48.80328" lon="-3.33739">
        <ele>55.6</ele>
        <time>2019-07-11T06:57:34Z</time>
      </trkpt>
      <trkpt lat="48.80327" lon="-3.33737">
        <ele>55.2</ele>
        <time>2019-07-11T06:57:35Z</time>
      </trkpt>
      <trkpt lat="48.80327" lon="-3.33734">
        <ele>54.8</ele>
        <time>2019-07-11T06:57:36Z</time>
      </trkpt>
      <trkpt lat="48.80328" lon="-3.3373">
        <ele>53.8</ele>
        <time>2019-07-11T06:57:39Z</time>
      </trkpt>
      <trkpt lat="48.80329" lon="-3.33731">
        <ele>53.7</ele>
        <time>2019-07-11T06:57:40Z</time>
      </trkpt>
      <trkpt lat="48.8033" lon="-3.33731">
        <ele>53.4</ele>
        <time>2019-07-11T06:57:41Z</time>
      </trkpt>
      <trkpt lat="48.8033" lon="-3.33734">
        <ele>54.3</ele>
        <time>2019-07-11T06:57:44Z</time>
      </trkpt>
      <trkpt lat="48.80326" lon="-3.33738">
        <ele>54.4</ele>
        <time>2019-07-11T06:57:47Z</time>
      </trkpt>
      <trkpt lat="48.80322" lon="-3.33738">
        <ele>52.8</ele>
        <time>2019-07-11T06:57:48Z</time>
      </trkpt>
      <trkpt lat="48.80317" lon="-3.3374">
        <ele>52.7</ele>
        <time>2019-07-11T06:57:49Z</time>
      </trkpt>
      <trkpt lat="48.80315" lon="-3.3374">
        <ele>52.4</ele>
        <time>2019-07-11T06:57:50Z</time>
      </trkpt>
      <trkpt lat="48.80312" lon="-3.33741">
        <ele>52.9</ele>
        <time>2019-07-11T06:57:51Z</time>
      </trkpt>
      <trkpt lat="48.8031" lon="-3.33742">
        <ele>51.7</ele>
        <time>2019-07-11T06:57:52Z</time>
      </trkpt>
      <trkpt lat="48.80308" lon="-3.33742">
        <ele>51</ele>
        <time>2019-07-11T06:57:53Z</time>
      </trkpt>
      <trkpt lat="48.80306" lon="-3.33744">
        <ele>49.8</ele>
        <time>2019-07-11T06:57:54Z</time>
      </trkpt>
      <trkpt lat="48.80305" lon="-3.33747">
        <ele>49.5</ele>
        <time>2019-07-11T06:57:55Z</time>
      </trkpt>
      <trkpt lat="48.80304" lon="-3.33749">
        <ele>49.6</ele>
        <time>2019-07-11T06:57:56Z</time>
      </trkpt>
      <trkpt lat="48.80303" lon="-3.3375">
        <ele>49.5</ele>
        <time>2019-07-11T06:57:57Z</time>
      </trkpt>
      <trkpt lat="48.80303" lon="-3.33752">
        <ele>48.9</ele>
        <time>2019-07-11T06:57:58Z</time>
      </trkpt>
      <trkpt lat="48.80302" lon="-3.33754">
        <ele>48.5</ele>
        <time>2019-07-11T06:57:59Z</time>
      </trkpt>
      <trkpt lat="48.80298" lon="-3.33761">
        <ele>45.6</ele>
        <time>2019-07-11T06:58:05Z</time>
      </trkpt>
      <trkpt lat="48.80296" lon="-3.33766">
        <ele>43.2</ele>
        <time>2019-07-11T06:58:08Z</time>
      </trkpt>
      <trkpt lat="48.80295" lon="-3.33769">
        <ele>42.3</ele>
        <time>2019-07-11T06:58:09Z</time>
      </trkpt>
      <trkpt lat="48.80293" lon="-3.3377">
        <ele>41.6</ele>
        <time>2019-07-11T06:58:10Z</time>
      </trkpt>
      <trkpt lat="48.80292" lon="-3.33772">
        <ele>41.1</ele>
        <time>2019-07-11T06:58:11Z</time>
      </trkpt>
      <trkpt lat="48.80291" lon="-3.33773">
        <ele>40.8</ele>
        <time>2019-07-11T06:58:12Z</time>
      </trkpt>
      <trkpt lat="48.8029" lon="-3.33775">
        <ele>41</ele>
        <time>2019-07-11T06:58:13Z</time>
      </trkpt>
      <trkpt lat="48.80289" lon="-3.33776">
        <ele>41.2</ele>
        <time>2019-07-11T06:58:14Z</time>
      </trkpt>
      <trkpt lat="48.80288" lon="-3.33778">
        <ele>41.1</ele>
        <time>2019-07-11T06:58:15Z</time>
      </trkpt>
      <trkpt lat="48.80288" lon="-3.33785">
        <ele>41</ele>
        <time>2019-07-11T06:58:18Z</time>
      </trkpt>
      <trkpt lat="48.80287" lon="-3.33786">
        <ele>41.3</ele>
        <time>2019-07-11T06:58:19Z</time>
      </trkpt>
      <trkpt lat="48.80287" lon="-3.33789">
        <ele>41.5</ele>
        <time>2019-07-11T06:58:20Z</time>
      </trkpt>
      <trkpt lat="48.80286" lon="-3.33791">
        <ele>41.7</ele>
        <time>2019-07-11T06:58:21Z</time>
      </trkpt>
      <trkpt lat="48.80286" lon="-3.33793">
        <ele>42</ele>
        <time>2019-07-11T06:58:22Z</time>
      </trkpt>
      <trkpt lat="48.80286" lon="-3.33795">
        <ele>42.2</ele>
        <time>2019-07-11T06:58:23Z</time>
      </trkpt>
      <trkpt lat="48.80285" lon="-3.33797">
        <ele>42.3</ele>
        <time>2019-07-11T06:58:24Z</time>
      </trkpt>
      <trkpt lat="48.80285" lon="-3.338">
        <ele>42.1</ele>
        <time>2019-07-11T06:58:25Z</time>
      </trkpt>
      <trkpt lat="48.80285" lon="-3.33801">
        <ele>42.5</ele>
        <time>2019-07-11T06:58:26Z</time>
      </trkpt>
      <trkpt lat="48.80285" lon="-3.33803">
        <ele>42.9</ele>
        <time>2019-07-11T06:58:27Z</time>
      </trkpt>
      <trkpt lat="48.80285" lon="-3.33806">
        <ele>43.1</ele>
        <time>2019-07-11T06:58:28Z</time>
      </trkpt>
      <trkpt lat="48.80284" lon="-3.33808">
        <ele>43.7</ele>
        <time>2019-07-11T06:58:29Z</time>
      </trkpt>
      <trkpt lat="48.80283" lon="-3.3381">
        <ele>44.6</ele>
        <time>2019-07-11T06:58:30Z</time>
      </trkpt>
      <trkpt lat="48.80281" lon="-3.33811">
        <ele>45.7</ele>
        <time>2019-07-11T06:58:31Z</time>
      </trkpt>
      <trkpt lat="48.80276" lon="-3.33824">
        <ele>47.6</ele>
        <time>2019-07-11T06:58:39Z</time>
      </trkpt>
      <trkpt lat="48.80275" lon="-3.33826">
        <ele>48</ele>
        <time>2019-07-11T06:58:40Z</time>
      </trkpt>
      <trkpt lat="48.80271" lon="-3.33833">
        <ele>49.4</ele>
        <time>2019-07-11T06:58:43Z</time>
      </trkpt>
      <trkpt lat="48.8027" lon="-3.33836">
        <ele>49.7</ele>
        <time>2019-07-11T06:58:44Z</time>
      </trkpt>
      <trkpt lat="48.8027" lon="-3.33838">
        <ele>50.2</ele>
        <time>2019-07-11T06:58:45Z</time>
      </trkpt>
      <trkpt lat="48.80269" lon="-3.33841">
        <ele>50.6</ele>
        <time>2019-07-11T06:58:46Z</time>
      </trkpt>
      <trkpt lat="48.80267" lon="-3.33844">
        <ele>51.2</ele>
        <time>2019-07-11T06:58:47Z</time>
      </trkpt>
      <trkpt lat="48.80266" lon="-3.33847">
        <ele>51.8</ele>
        <time>2019-07-11T06:58:48Z</time>
      </trkpt>
      <trkpt lat="48.80265" lon="-3.33849">
        <ele>52.3</ele>
        <time>2019-07-11T06:58:49Z</time>
      </trkpt>
      <trkpt lat="48.80264" lon="-3.33851">
        <ele>52.7</ele>
        <time>2019-07-11T06:58:50Z</time>
      </trkpt>
      <trkpt lat="48.80263" lon="-3.33853">
        <ele>53.4</ele>
        <time>2019-07-11T06:58:51Z</time>
      </trkpt>
      <trkpt lat="48.80262" lon="-3.33854">
        <ele>54.2</ele>
        <time>2019-07-11T06:58:52Z</time>
      </trkpt>
      <trkpt lat="48.80262" lon="-3.33856">
        <ele>54.6</ele>
        <time>2019-07-11T06:58:53Z</time>
      </trkpt>
      <trkpt lat="48.8026" lon="-3.33858">
        <ele>55.2</ele>
        <time>2019-07-11T06:58:54Z</time>
      </trkpt>
      <trkpt lat="48.80259" lon="-3.3386">
        <ele>55.7</ele>
        <time>2019-07-11T06:58:55Z</time>
      </trkpt>
      <trkpt lat="48.80257" lon="-3.33863">
        <ele>56</ele>
        <time>2019-07-11T06:58:56Z</time>
      </trkpt>
      <trkpt lat="48.80256" lon="-3.33867">
        <ele>56.3</ele>
        <time>2019-07-11T06:58:57Z</time>
      </trkpt>
      <trkpt lat="48.80256" lon="-3.33872">
        <ele>56.5</ele>
        <time>2019-07-11T06:58:58Z</time>
      </trkpt>
      <trkpt lat="48.80255" lon="-3.33878">
        <ele>56.6</ele>
        <time>2019-07-11T06:58:59Z</time>
      </trkpt>
      <trkpt lat="48.80256" lon="-3.33882">
        <ele>56.8</ele>
        <time>2019-07-11T06:59:00Z</time>
      </trkpt>
      <trkpt lat="48.80254" lon="-3.33885">
        <ele>57.4</ele>
        <time>2019-07-11T06:59:01Z</time>
      </trkpt>
      <trkpt lat="48.80256" lon="-3.3389">
        <ele>57.7</ele>
        <time>2019-07-11T06:59:02Z</time>
      </trkpt>
      <trkpt lat="48.80255" lon="-3.33892">
        <ele>57.9</ele>
        <time>2019-07-11T06:59:03Z</time>
      </trkpt>
      <trkpt lat="48.80254" lon="-3.33894">
        <ele>58.4</ele>
        <time>2019-07-11T06:59:04Z</time>
      </trkpt>
      <trkpt lat="48.80254" lon="-3.33898">
        <ele>58.9</ele>
        <time>2019-07-11T06:59:05Z</time>
      </trkpt>
      <trkpt lat="48.80255" lon="-3.33901">
        <ele>59.2</ele>
        <time>2019-07-11T06:59:06Z</time>
      </trkpt>
      <trkpt lat="48.80256" lon="-3.33904">
        <ele>59.4</ele>
        <time>2019-07-11T06:59:07Z</time>
      </trkpt>
      <trkpt lat="48.80256" lon="-3.33908">
        <ele>59.5</ele>
        <time>2019-07-11T06:59:08Z</time>
      </trkpt>
      <trkpt lat="48.80256" lon="-3.3391">
        <ele>59.7</ele>
        <time>2019-07-11T06:59:09Z</time>
      </trkpt>
      <trkpt lat="48.80256" lon="-3.33912">
        <ele>59.5</ele>
        <time>2019-07-11T06:59:10Z</time>
      </trkpt>
      <trkpt lat="48.80257" lon="-3.33915">
        <ele>59</ele>
        <time>2019-07-11T06:59:11Z</time>
      </trkpt>
      <trkpt lat="48.80258" lon="-3.33917">
        <ele>58.6</ele>
        <time>2019-07-11T06:59:12Z</time>
      </trkpt>
      <trkpt lat="48.80259" lon="-3.33919">
        <ele>58.6</ele>
        <time>2019-07-11T06:59:13Z</time>
      </trkpt>
      <trkpt lat="48.8026" lon="-3.33922">
        <ele>58.4</ele>
        <time>2019-07-11T06:59:14Z</time>
      </trkpt>
      <trkpt lat="48.8026" lon="-3.33924">
        <ele>58</ele>
        <time>2019-07-11T06:59:15Z</time>
      </trkpt>
      <trkpt lat="48.8026" lon="-3.33927">
        <ele>58.1</ele>
        <time>2019-07-11T06:59:16Z</time>
      </trkpt>
      <trkpt lat="48.80259" lon="-3.3393">
        <ele>58.2</ele>
        <time>2019-07-11T06:59:17Z</time>
      </trkpt>
      <trkpt lat="48.80259" lon="-3.33933">
        <ele>58.3</ele>
        <time>2019-07-11T06:59:18Z</time>
      </trkpt>
      <trkpt lat="48.80259" lon="-3.33935">
        <ele>58.3</ele>
        <time>2019-07-11T06:59:19Z</time>
      </trkpt>
      <trkpt lat="48.80258" lon="-3.33939">
        <ele>58.2</ele>
        <time>2019-07-11T06:59:20Z</time>
      </trkpt>
      <trkpt lat="48.80259" lon="-3.3394">
        <ele>57.7</ele>
        <time>2019-07-11T06:59:21Z</time>
      </trkpt>
      <trkpt lat="48.8026" lon="-3.33942">
        <ele>57.6</ele>
        <time>2019-07-11T06:59:22Z</time>
      </trkpt>
      <trkpt lat="48.80259" lon="-3.33945">
        <ele>57.1</ele>
        <time>2019-07-11T06:59:23Z</time>
      </trkpt>
      <trkpt lat="48.80258" lon="-3.33953">
        <ele>56.6</ele>
        <time>2019-07-11T06:59:28Z</time>
      </trkpt>
      <trkpt lat="48.80257" lon="-3.33955">
        <ele>56.2</ele>
        <time>2019-07-11T06:59:29Z</time>
      </trkpt>
      <trkpt lat="48.80257" lon="-3.33958">
        <ele>55.8</ele>
        <time>2019-07-11T06:59:30Z</time>
      </trkpt>
      <trkpt lat="48.80256" lon="-3.33962">
        <ele>55.6</ele>
        <time>2019-07-11T06:59:31Z</time>
      </trkpt>
      <trkpt lat="48.80256" lon="-3.33964">
        <ele>56.2</ele>
        <time>2019-07-11T06:59:32Z</time>
      </trkpt>
      <trkpt lat="48.80255" lon="-3.33968">
        <ele>56</ele>
        <time>2019-07-11T06:59:33Z</time>
      </trkpt>
      <trkpt lat="48.80254" lon="-3.33972">
        <ele>56.5</ele>
        <time>2019-07-11T06:59:34Z</time>
      </trkpt>
      <trkpt lat="48.80253" lon="-3.33975">
        <ele>56.6</ele>
        <time>2019-07-11T06:59:35Z</time>
      </trkpt>
      <trkpt lat="48.80253" lon="-3.33977">
        <ele>56.7</ele>
        <time>2019-07-11T06:59:36Z</time>
      </trkpt>
      <trkpt lat="48.80253" lon="-3.3398">
        <ele>57.1</ele>
        <time>2019-07-11T06:59:37Z</time>
      </trkpt>
      <trkpt lat="48.80253" lon="-3.33982">
        <ele>57.7</ele>
        <time>2019-07-11T06:59:38Z</time>
      </trkpt>
      <trkpt lat="48.80252" lon="-3.33984">
        <ele>58.2</ele>
        <time>2019-07-11T06:59:39Z</time>
      </trkpt>
      <trkpt lat="48.80251" lon="-3.33986">
        <ele>58.6</ele>
        <time>2019-07-11T06:59:40Z</time>
      </trkpt>
      <trkpt lat="48.8025" lon="-3.33987">
        <ele>58.8</ele>
        <time>2019-07-11T06:59:41Z</time>
      </trkpt>
      <trkpt lat="48.80249" lon="-3.3399">
        <ele>59.3</ele>
        <time>2019-07-11T06:59:42Z</time>
      </trkpt>
      <trkpt lat="48.80248" lon="-3.33992">
        <ele>59.5</ele>
        <time>2019-07-11T06:59:43Z</time>
      </trkpt>
      <trkpt lat="48.80246" lon="-3.33994">
        <ele>59.8</ele>
        <time>2019-07-11T06:59:44Z</time>
      </trkpt>
      <trkpt lat="48.80245" lon="-3.33996">
        <ele>60</ele>
        <time>2019-07-11T06:59:45Z</time>
      </trkpt>
      <trkpt lat="48.80243" lon="-3.33999">
        <ele>60.3</ele>
        <time>2019-07-11T06:59:46Z</time>
      </trkpt>
      <trkpt lat="48.80242" lon="-3.34001">
        <ele>60.6</ele>
        <time>2019-07-11T06:59:47Z</time>
      </trkpt>
      <trkpt lat="48.80241" lon="-3.34003">
        <ele>60.8</ele>
        <time>2019-07-11T06:59:48Z</time>
      </trkpt>
      <trkpt lat="48.80241" lon="-3.34005">
        <ele>61</ele>
        <time>2019-07-11T06:59:49Z</time>
      </trkpt>
      <trkpt lat="48.80241" lon="-3.34007">
        <ele>60.9</ele>
        <time>2019-07-11T06:59:50Z</time>
      </trkpt>
      <trkpt lat="48.80241" lon="-3.34009">
        <ele>60.5</ele>
        <time>2019-07-11T06:59:51Z</time>
      </trkpt>
      <trkpt lat="48.80241" lon="-3.34012">
        <ele>60.3</ele>
        <time>2019-07-11T06:59:52Z</time>
      </trkpt>
      <trkpt lat="48.80241" lon="-3.34014">
        <ele>59.9</ele>
        <time>2019-07-11T06:59:53Z</time>
      </trkpt>
      <trkpt lat="48.8024" lon="-3.34017">
        <ele>59.3</ele>
        <time>2019-07-11T06:59:54Z</time>
      </trkpt>
      <trkpt lat="48.80239" lon="-3.3402">
        <ele>58.9</ele>
        <time>2019-07-11T06:59:55Z</time>
      </trkpt>
      <trkpt lat="48.80238" lon="-3.34023">
        <ele>58.6</ele>
        <time>2019-07-11T06:59:56Z</time>
      </trkpt>
      <trkpt lat="48.80236" lon="-3.34025">
        <ele>58.6</ele>
        <time>2019-07-11T06:59:57Z</time>
      </trkpt>
      <trkpt lat="48.80235" lon="-3.34028">
        <ele>58.7</ele>
        <time>2019-07-11T06:59:58Z</time>
      </trkpt>
      <trkpt lat="48.80233" lon="-3.34031">
        <ele>58.8</ele>
        <time>2019-07-11T06:59:59Z</time>
      </trkpt>
      <trkpt lat="48.80232" lon="-3.34033">
        <ele>58.9</ele>
        <time>2019-07-11T07:00:00Z</time>
      </trkpt>
      <trkpt lat="48.80231" lon="-3.34035">
        <ele>59</ele>
        <time>2019-07-11T07:00:01Z</time>
      </trkpt>
      <trkpt lat="48.8023" lon="-3.34037">
        <ele>58.9</ele>
        <time>2019-07-11T07:00:02Z</time>
      </trkpt>
      <trkpt lat="48.80229" lon="-3.34039">
        <ele>58.9</ele>
        <time>2019-07-11T07:00:03Z</time>
      </trkpt>
      <trkpt lat="48.80228" lon="-3.3404">
        <ele>58.9</ele>
        <time>2019-07-11T07:00:04Z</time>
      </trkpt>
      <trkpt lat="48.80225" lon="-3.34043">
        <ele>59</ele>
        <time>2019-07-11T07:00:05Z</time>
      </trkpt>
      <trkpt lat="48.80224" lon="-3.34045">
        <ele>59.2</ele>
        <time>2019-07-11T07:00:06Z</time>
      </trkpt>
      <trkpt lat="48.80222" lon="-3.34048">
        <ele>59.5</ele>
        <time>2019-07-11T07:00:07Z</time>
      </trkpt>
      <trkpt lat="48.8022" lon="-3.3405">
        <ele>59.7</ele>
        <time>2019-07-11T07:00:08Z</time>
      </trkpt>
      <trkpt lat="48.80218" lon="-3.34052">
        <ele>59.7</ele>
        <time>2019-07-11T07:00:09Z</time>
      </trkpt>
      <trkpt lat="48.80216" lon="-3.34055">
        <ele>59.9</ele>
        <time>2019-07-11T07:00:10Z</time>
      </trkpt>
      <trkpt lat="48.80215" lon="-3.34058">
        <ele>60</ele>
        <time>2019-07-11T07:00:11Z</time>
      </trkpt>
      <trkpt lat="48.80213" lon="-3.3406">
        <ele>59.8</ele>
        <time>2019-07-11T07:00:12Z</time>
      </trkpt>
      <trkpt lat="48.80211" lon="-3.34063">
        <ele>59.9</ele>
        <time>2019-07-11T07:00:13Z</time>
      </trkpt>
      <trkpt lat="48.80209" lon="-3.34066">
        <ele>59.8</ele>
        <time>2019-07-11T07:00:14Z</time>
      </trkpt>
      <trkpt lat="48.80207" lon="-3.34069">
        <ele>59.9</ele>
        <time>2019-07-11T07:00:15Z</time>
      </trkpt>
      <trkpt lat="48.80205" lon="-3.34071">
        <ele>60.1</ele>
        <time>2019-07-11T07:00:16Z</time>
      </trkpt>
      <trkpt lat="48.80203" lon="-3.34073">
        <ele>60.2</ele>
        <time>2019-07-11T07:00:17Z</time>
      </trkpt>
      <trkpt lat="48.80201" lon="-3.34075">
        <ele>60.2</ele>
        <time>2019-07-11T07:00:18Z</time>
      </trkpt>
      <trkpt lat="48.802" lon="-3.34077">
        <ele>60.4</ele>
        <time>2019-07-11T07:00:19Z</time>
      </trkpt>
      <trkpt lat="48.80199" lon="-3.34078">
        <ele>60.1</ele>
        <time>2019-07-11T07:00:20Z</time>
      </trkpt>
      <trkpt lat="48.80198" lon="-3.34079">
        <ele>60.1</ele>
        <time>2019-07-11T07:00:21Z</time>
      </trkpt>
      <trkpt lat="48.80195" lon="-3.34081">
        <ele>60.4</ele>
        <time>2019-07-11T07:00:22Z</time>
      </trkpt>
      <trkpt lat="48.80194" lon="-3.34082">
        <ele>60.8</ele>
        <time>2019-07-11T07:00:23Z</time>
      </trkpt>
      <trkpt lat="48.80192" lon="-3.34084">
        <ele>61.1</ele>
        <time>2019-07-11T07:00:24Z</time>
      </trkpt>
      <trkpt lat="48.8019" lon="-3.34087">
        <ele>61.5</ele>
        <time>2019-07-11T07:00:25Z</time>
      </trkpt>
      <trkpt lat="48.80188" lon="-3.34089">
        <ele>61.9</ele>
        <time>2019-07-11T07:00:26Z</time>
      </trkpt>
      <trkpt lat="48.80187" lon="-3.34091">
        <ele>62.4</ele>
        <time>2019-07-11T07:00:27Z</time>
      </trkpt>
      <trkpt lat="48.80187" lon="-3.34093">
        <ele>62.6</ele>
        <time>2019-07-11T07:00:28Z</time>
      </trkpt>
      <trkpt lat="48.80185" lon="-3.34094">
        <ele>63</ele>
        <time>2019-07-11T07:00:29Z</time>
      </trkpt>
      <trkpt lat="48.80183" lon="-3.34094">
        <ele>63.1</ele>
        <time>2019-07-11T07:00:30Z</time>
      </trkpt>
      <trkpt lat="48.80179" lon="-3.34095">
        <ele>64.2</ele>
        <time>2019-07-11T07:00:31Z</time>
      </trkpt>
      <trkpt lat="48.80178" lon="-3.34096">
        <ele>63.7</ele>
        <time>2019-07-11T07:00:32Z</time>
      </trkpt>
      <trkpt lat="48.80175" lon="-3.34096">
        <ele>64.2</ele>
        <time>2019-07-11T07:00:33Z</time>
      </trkpt>
      <trkpt lat="48.80172" lon="-3.34095">
        <ele>64.4</ele>
        <time>2019-07-11T07:00:34Z</time>
      </trkpt>
      <trkpt lat="48.8017" lon="-3.34094">
        <ele>64.1</ele>
        <time>2019-07-11T07:00:35Z</time>
      </trkpt>
      <trkpt lat="48.80169" lon="-3.34092">
        <ele>64.1</ele>
        <time>2019-07-11T07:00:36Z</time>
      </trkpt>
      <trkpt lat="48.80169" lon="-3.3409">
        <ele>64.7</ele>
        <time>2019-07-11T07:00:37Z</time>
      </trkpt>
      <trkpt lat="48.80169" lon="-3.34088">
        <ele>64.6</ele>
        <time>2019-07-11T07:00:38Z</time>
      </trkpt>
      <trkpt lat="48.80167" lon="-3.34087">
        <ele>64.7</ele>
        <time>2019-07-11T07:00:39Z</time>
      </trkpt>
      <trkpt lat="48.80167" lon="-3.34086">
        <ele>65.1</ele>
        <time>2019-07-11T07:00:40Z</time>
      </trkpt>
      <trkpt lat="48.80166" lon="-3.34085">
        <ele>65.5</ele>
        <time>2019-07-11T07:00:41Z</time>
      </trkpt>
      <trkpt lat="48.80166" lon="-3.34085">
        <ele>66.3</ele>
        <time>2019-07-11T07:00:42Z</time>
      </trkpt>
      <trkpt lat="48.80164" lon="-3.34083">
        <ele>66.9</ele>
        <time>2019-07-11T07:00:43Z</time>
      </trkpt>
      <trkpt lat="48.80162" lon="-3.34081">
        <ele>67.5</ele>
        <time>2019-07-11T07:00:44Z</time>
      </trkpt>
      <trkpt lat="48.80161" lon="-3.34079">
        <ele>68.1</ele>
        <time>2019-07-11T07:00:45Z</time>
      </trkpt>
      <trkpt lat="48.80159" lon="-3.34077">
        <ele>69.1</ele>
        <time>2019-07-11T07:00:46Z</time>
      </trkpt>
      <trkpt lat="48.80158" lon="-3.34075">
        <ele>70</ele>
        <time>2019-07-11T07:00:47Z</time>
      </trkpt>
      <trkpt lat="48.80156" lon="-3.34073">
        <ele>70.4</ele>
        <time>2019-07-11T07:00:48Z</time>
      </trkpt>
      <trkpt lat="48.80155" lon="-3.34071">
        <ele>71.1</ele>
        <time>2019-07-11T07:00:49Z</time>
      </trkpt>
      <trkpt lat="48.80154" lon="-3.34069">
        <ele>71.5</ele>
        <time>2019-07-11T07:00:50Z</time>
      </trkpt>
      <trkpt lat="48.80153" lon="-3.34067">
        <ele>72.3</ele>
        <time>2019-07-11T07:00:51Z</time>
      </trkpt>
      <trkpt lat="48.80152" lon="-3.34064">
        <ele>72.8</ele>
        <time>2019-07-11T07:00:52Z</time>
      </trkpt>
      <trkpt lat="48.80151" lon="-3.34063">
        <ele>73.5</ele>
        <time>2019-07-11T07:00:53Z</time>
      </trkpt>
      <trkpt lat="48.8015" lon="-3.34062">
        <ele>74.6</ele>
        <time>2019-07-11T07:00:54Z</time>
      </trkpt>
      <trkpt lat="48.80149" lon="-3.34061">
        <ele>75.2</ele>
        <time>2019-07-11T07:00:55Z</time>
      </trkpt>
      <trkpt lat="48.80148" lon="-3.3406">
        <ele>75.7</ele>
        <time>2019-07-11T07:00:56Z</time>
      </trkpt>
      <trkpt lat="48.80147" lon="-3.34059">
        <ele>76.6</ele>
        <time>2019-07-11T07:00:57Z</time>
      </trkpt>
      <trkpt lat="48.80146" lon="-3.34058">
        <ele>77.7</ele>
        <time>2019-07-11T07:00:58Z</time>
      </trkpt>
      <trkpt lat="48.80145" lon="-3.34057">
        <ele>78.3</ele>
        <time>2019-07-11T07:00:59Z</time>
      </trkpt>
      <trkpt lat="48.80143" lon="-3.34056">
        <ele>79</ele>
        <time>2019-07-11T07:01:00Z</time>
      </trkpt>
      <trkpt lat="48.80142" lon="-3.34056">
        <ele>79.6</ele>
        <time>2019-07-11T07:01:01Z</time>
      </trkpt>
      <trkpt lat="48.8014" lon="-3.34055">
        <ele>79.7</ele>
        <time>2019-07-11T07:01:02Z</time>
      </trkpt>
      <trkpt lat="48.80137" lon="-3.34053">
        <ele>79.3</ele>
        <time>2019-07-11T07:01:03Z</time>
      </trkpt>
      <trkpt lat="48.80134" lon="-3.34052">
        <ele>78.9</ele>
        <time>2019-07-11T07:01:04Z</time>
      </trkpt>
      <trkpt lat="48.80132" lon="-3.34051">
        <ele>79.1</ele>
        <time>2019-07-11T07:01:05Z</time>
      </trkpt>
      <trkpt lat="48.8013" lon="-3.3405">
        <ele>79</ele>
        <time>2019-07-11T07:01:06Z</time>
      </trkpt>
      <trkpt lat="48.80127" lon="-3.34049">
        <ele>78.6</ele>
        <time>2019-07-11T07:01:07Z</time>
      </trkpt>
      <trkpt lat="48.80124" lon="-3.34047">
        <ele>78.3</ele>
        <time>2019-07-11T07:01:08Z</time>
      </trkpt>
      <trkpt lat="48.80122" lon="-3.34046">
        <ele>78.2</ele>
        <time>2019-07-11T07:01:09Z</time>
      </trkpt>
      <trkpt lat="48.8012" lon="-3.34044">
        <ele>77.8</ele>
        <time>2019-07-11T07:01:10Z</time>
      </trkpt>
      <trkpt lat="48.80118" lon="-3.34042">
        <ele>78</ele>
        <time>2019-07-11T07:01:11Z</time>
      </trkpt>
      <trkpt lat="48.80116" lon="-3.3404">
        <ele>77.9</ele>
        <time>2019-07-11T07:01:12Z</time>
      </trkpt>
      <trkpt lat="48.80114" lon="-3.34038">
        <ele>77.7</ele>
        <time>2019-07-11T07:01:13Z</time>
      </trkpt>
      <trkpt lat="48.80113" lon="-3.34035">
        <ele>77.2</ele>
        <time>2019-07-11T07:01:14Z</time>
      </trkpt>
      <trkpt lat="48.80111" lon="-3.34032">
        <ele>75.5</ele>
        <time>2019-07-11T07:01:15Z</time>
      </trkpt>
      <trkpt lat="48.8011" lon="-3.3403">
        <ele>75.5</ele>
        <time>2019-07-11T07:01:16Z</time>
      </trkpt>
      <trkpt lat="48.80109" lon="-3.34027">
        <ele>75.2</ele>
        <time>2019-07-11T07:01:17Z</time>
      </trkpt>
      <trkpt lat="48.80108" lon="-3.34025">
        <ele>75.7</ele>
        <time>2019-07-11T07:01:18Z</time>
      </trkpt>
      <trkpt lat="48.80106" lon="-3.34023">
        <ele>76.3</ele>
        <time>2019-07-11T07:01:19Z</time>
      </trkpt>
      <trkpt lat="48.80103" lon="-3.34021">
        <ele>76.3</ele>
        <time>2019-07-11T07:01:20Z</time>
      </trkpt>
      <trkpt lat="48.80101" lon="-3.34018">
        <ele>76.6</ele>
        <time>2019-07-11T07:01:21Z</time>
      </trkpt>
      <trkpt lat="48.80099" lon="-3.34016">
        <ele>76.3</ele>
        <time>2019-07-11T07:01:22Z</time>
      </trkpt>
      <trkpt lat="48.80097" lon="-3.34013">
        <ele>76.2</ele>
        <time>2019-07-11T07:01:23Z</time>
      </trkpt>
      <trkpt lat="48.80094" lon="-3.34011">
        <ele>75.5</ele>
        <time>2019-07-11T07:01:24Z</time>
      </trkpt>
      <trkpt lat="48.80091" lon="-3.34008">
        <ele>74.2</ele>
        <time>2019-07-11T07:01:25Z</time>
      </trkpt>
      <trkpt lat="48.80089" lon="-3.34005">
        <ele>74</ele>
        <time>2019-07-11T07:01:26Z</time>
      </trkpt>
      <trkpt lat="48.80088" lon="-3.34003">
        <ele>74.1</ele>
        <time>2019-07-11T07:01:27Z</time>
      </trkpt>
      <trkpt lat="48.80086" lon="-3.34001">
        <ele>73.5</ele>
        <time>2019-07-11T07:01:28Z</time>
      </trkpt>
      <trkpt lat="48.80084" lon="-3.33999">
        <ele>73</ele>
        <time>2019-07-11T07:01:29Z</time>
      </trkpt>
      <trkpt lat="48.80082" lon="-3.33997">
        <ele>72.7</ele>
        <time>2019-07-11T07:01:30Z</time>
      </trkpt>
      <trkpt lat="48.80081" lon="-3.33995">
        <ele>72.6</ele>
        <time>2019-07-11T07:01:31Z</time>
      </trkpt>
      <trkpt lat="48.8008" lon="-3.33993">
        <ele>72.6</ele>
        <time>2019-07-11T07:01:32Z</time>
      </trkpt>
      <trkpt lat="48.80077" lon="-3.33991">
        <ele>72.4</ele>
        <time>2019-07-11T07:01:33Z</time>
      </trkpt>
      <trkpt lat="48.80075" lon="-3.33989">
        <ele>71.8</ele>
        <time>2019-07-11T07:01:34Z</time>
      </trkpt>
      <trkpt lat="48.80073" lon="-3.33987">
        <ele>71</ele>
        <time>2019-07-11T07:01:35Z</time>
      </trkpt>
      <trkpt lat="48.80071" lon="-3.33986">
        <ele>71.3</ele>
        <time>2019-07-11T07:01:36Z</time>
      </trkpt>
      <trkpt lat="48.80069" lon="-3.33984">
        <ele>71.6</ele>
        <time>2019-07-11T07:01:37Z</time>
      </trkpt>
      <trkpt lat="48.80066" lon="-3.33983">
        <ele>72</ele>
        <time>2019-07-11T07:01:38Z</time>
      </trkpt>
      <trkpt lat="48.80064" lon="-3.33982">
        <ele>72</ele>
        <time>2019-07-11T07:01:39Z</time>
      </trkpt>
      <trkpt lat="48.80063" lon="-3.33981">
        <ele>71.8</ele>
        <time>2019-07-11T07:01:40Z</time>
      </trkpt>
      <trkpt lat="48.80061" lon="-3.3398">
        <ele>71.6</ele>
        <time>2019-07-11T07:01:41Z</time>
      </trkpt>
      <trkpt lat="48.80059" lon="-3.33979">
        <ele>70.7</ele>
        <time>2019-07-11T07:01:42Z</time>
      </trkpt>
      <trkpt lat="48.80057" lon="-3.33978">
        <ele>70.7</ele>
        <time>2019-07-11T07:01:43Z</time>
      </trkpt>
      <trkpt lat="48.80056" lon="-3.33978">
        <ele>70.5</ele>
        <time>2019-07-11T07:01:44Z</time>
      </trkpt>
      <trkpt lat="48.80054" lon="-3.33978">
        <ele>70.5</ele>
        <time>2019-07-11T07:01:45Z</time>
      </trkpt>
      <trkpt lat="48.80051" lon="-3.33978">
        <ele>69.9</ele>
        <time>2019-07-11T07:01:46Z</time>
      </trkpt>
      <trkpt lat="48.80049" lon="-3.33977">
        <ele>69.4</ele>
        <time>2019-07-11T07:01:47Z</time>
      </trkpt>
      <trkpt lat="48.80047" lon="-3.33976">
        <ele>68.5</ele>
        <time>2019-07-11T07:01:48Z</time>
      </trkpt>
      <trkpt lat="48.80044" lon="-3.33975">
        <ele>67.7</ele>
        <time>2019-07-11T07:01:49Z</time>
      </trkpt>
      <trkpt lat="48.80041" lon="-3.33975">
        <ele>66.8</ele>
        <time>2019-07-11T07:01:50Z</time>
      </trkpt>
      <trkpt lat="48.80039" lon="-3.33975">
        <ele>66.7</ele>
        <time>2019-07-11T07:01:51Z</time>
      </trkpt>
      <trkpt lat="48.80037" lon="-3.33975">
        <ele>66.7</ele>
        <time>2019-07-11T07:01:52Z</time>
      </trkpt>
      <trkpt lat="48.80035" lon="-3.33975">
        <ele>66.2</ele>
        <time>2019-07-11T07:01:53Z</time>
      </trkpt>
      <trkpt lat="48.80033" lon="-3.33975">
        <ele>66.1</ele>
        <time>2019-07-11T07:01:54Z</time>
      </trkpt>
      <trkpt lat="48.80032" lon="-3.33974">
        <ele>65.9</ele>
        <time>2019-07-11T07:01:55Z</time>
      </trkpt>
      <trkpt lat="48.8003" lon="-3.33974">
        <ele>65.8</ele>
        <time>2019-07-11T07:01:56Z</time>
      </trkpt>
      <trkpt lat="48.80029" lon="-3.33973">
        <ele>65.8</ele>
        <time>2019-07-11T07:01:57Z</time>
      </trkpt>
      <trkpt lat="48.80027" lon="-3.33973">
        <ele>65.9</ele>
        <time>2019-07-11T07:01:58Z</time>
      </trkpt>
      <trkpt lat="48.80024" lon="-3.33972">
        <ele>66.1</ele>
        <time>2019-07-11T07:01:59Z</time>
      </trkpt>
      <trkpt lat="48.80023" lon="-3.33971">
        <ele>66.4</ele>
        <time>2019-07-11T07:02:00Z</time>
      </trkpt>
      <trkpt lat="48.8002" lon="-3.33969">
        <ele>66.6</ele>
        <time>2019-07-11T07:02:01Z</time>
      </trkpt>
      <trkpt lat="48.80018" lon="-3.33968">
        <ele>66.7</ele>
        <time>2019-07-11T07:02:02Z</time>
      </trkpt>
      <trkpt lat="48.80016" lon="-3.33968">
        <ele>66.8</ele>
        <time>2019-07-11T07:02:03Z</time>
      </trkpt>
      <trkpt lat="48.80014" lon="-3.33967">
        <ele>66.7</ele>
        <time>2019-07-11T07:02:04Z</time>
      </trkpt>
      <trkpt lat="48.80011" lon="-3.33966">
        <ele>67.1</ele>
        <time>2019-07-11T07:02:05Z</time>
      </trkpt>
      <trkpt lat="48.80008" lon="-3.33967">
        <ele>67.7</ele>
        <time>2019-07-11T07:02:06Z</time>
      </trkpt>
      <trkpt lat="48.80006" lon="-3.33968">
        <ele>68.3</ele>
        <time>2019-07-11T07:02:07Z</time>
      </trkpt>
      <trkpt lat="48.80004" lon="-3.33969">
        <ele>69.2</ele>
        <time>2019-07-11T07:02:08Z</time>
      </trkpt>
      <trkpt lat="48.80002" lon="-3.3397">
        <ele>69.4</ele>
        <time>2019-07-11T07:02:09Z</time>
      </trkpt>
      <trkpt lat="48.79999" lon="-3.33971">
        <ele>69.4</ele>
        <time>2019-07-11T07:02:10Z</time>
      </trkpt>
      <trkpt lat="48.79997" lon="-3.33972">
        <ele>69.7</ele>
        <time>2019-07-11T07:02:11Z</time>
      </trkpt>
      <trkpt lat="48.79995" lon="-3.33973">
        <ele>69.6</ele>
        <time>2019-07-11T07:02:12Z</time>
      </trkpt>
      <trkpt lat="48.79992" lon="-3.33975">
        <ele>70.1</ele>
        <time>2019-07-11T07:02:13Z</time>
      </trkpt>
      <trkpt lat="48.7999" lon="-3.33976">
        <ele>70.5</ele>
        <time>2019-07-11T07:02:14Z</time>
      </trkpt>
      <trkpt lat="48.79987" lon="-3.33977">
        <ele>71.2</ele>
        <time>2019-07-11T07:02:15Z</time>
      </trkpt>
      <trkpt lat="48.79986" lon="-3.33979">
        <ele>71.8</ele>
        <time>2019-07-11T07:02:16Z</time>
      </trkpt>
      <trkpt lat="48.79984" lon="-3.33982">
        <ele>72.9</ele>
        <time>2019-07-11T07:02:17Z</time>
      </trkpt>
      <trkpt lat="48.79982" lon="-3.33984">
        <ele>74.1</ele>
        <time>2019-07-11T07:02:18Z</time>
      </trkpt>
      <trkpt lat="48.79981" lon="-3.33986">
        <ele>75.2</ele>
        <time>2019-07-11T07:02:19Z</time>
      </trkpt>
      <trkpt lat="48.7998" lon="-3.33987">
        <ele>75.7</ele>
        <time>2019-07-11T07:02:20Z</time>
      </trkpt>
      <trkpt lat="48.79978" lon="-3.33989">
        <ele>76.2</ele>
        <time>2019-07-11T07:02:21Z</time>
      </trkpt>
      <trkpt lat="48.79977" lon="-3.33991">
        <ele>76.6</ele>
        <time>2019-07-11T07:02:22Z</time>
      </trkpt>
      <trkpt lat="48.79974" lon="-3.33993">
        <ele>75.3</ele>
        <time>2019-07-11T07:02:23Z</time>
      </trkpt>
      <trkpt lat="48.79973" lon="-3.33995">
        <ele>75.7</ele>
        <time>2019-07-11T07:02:24Z</time>
      </trkpt>
      <trkpt lat="48.79971" lon="-3.33997">
        <ele>76</ele>
        <time>2019-07-11T07:02:25Z</time>
      </trkpt>
      <trkpt lat="48.79969" lon="-3.33999">
        <ele>76.5</ele>
        <time>2019-07-11T07:02:26Z</time>
      </trkpt>
      <trkpt lat="48.79968" lon="-3.34001">
        <ele>76.7</ele>
        <time>2019-07-11T07:02:27Z</time>
      </trkpt>
      <trkpt lat="48.79966" lon="-3.34002">
        <ele>76.5</ele>
        <time>2019-07-11T07:02:28Z</time>
      </trkpt>
      <trkpt lat="48.79963" lon="-3.34003">
        <ele>76.3</ele>
        <time>2019-07-11T07:02:29Z</time>
      </trkpt>
      <trkpt lat="48.79961" lon="-3.34003">
        <ele>76.1</ele>
        <time>2019-07-11T07:02:30Z</time>
      </trkpt>
      <trkpt lat="48.79959" lon="-3.34003">
        <ele>75.3</ele>
        <time>2019-07-11T07:02:31Z</time>
      </trkpt>
      <trkpt lat="48.79956" lon="-3.34003">
        <ele>75.7</ele>
        <time>2019-07-11T07:02:32Z</time>
      </trkpt>
      <trkpt lat="48.79954" lon="-3.34002">
        <ele>76</ele>
        <time>2019-07-11T07:02:33Z</time>
      </trkpt>
      <trkpt lat="48.79952" lon="-3.34001">
        <ele>76.3</ele>
        <time>2019-07-11T07:02:34Z</time>
      </trkpt>
      <trkpt lat="48.79951" lon="-3.33999">
        <ele>77.1</ele>
        <time>2019-07-11T07:02:35Z</time>
      </trkpt>
      <trkpt lat="48.7995" lon="-3.33997">
        <ele>77.5</ele>
        <time>2019-07-11T07:02:36Z</time>
      </trkpt>
      <trkpt lat="48.79948" lon="-3.33994">
        <ele>77.7</ele>
        <time>2019-07-11T07:02:37Z</time>
      </trkpt>
      <trkpt lat="48.79947" lon="-3.33992">
        <ele>77.9</ele>
        <time>2019-07-11T07:02:38Z</time>
      </trkpt>
      <trkpt lat="48.79944" lon="-3.33989">
        <ele>78.2</ele>
        <time>2019-07-11T07:02:39Z</time>
      </trkpt>
      <trkpt lat="48.79942" lon="-3.33987">
        <ele>78.8</ele>
        <time>2019-07-11T07:02:40Z</time>
      </trkpt>
      <trkpt lat="48.79939" lon="-3.33985">
        <ele>79.5</ele>
        <time>2019-07-11T07:02:41Z</time>
      </trkpt>
      <trkpt lat="48.79936" lon="-3.33983">
        <ele>80.1</ele>
        <time>2019-07-11T07:02:42Z</time>
      </trkpt>
      <trkpt lat="48.79933" lon="-3.33981">
        <ele>80.6</ele>
        <time>2019-07-11T07:02:43Z</time>
      </trkpt>
      <trkpt lat="48.79931" lon="-3.33978">
        <ele>81.5</ele>
        <time>2019-07-11T07:02:44Z</time>
      </trkpt>
      <trkpt lat="48.79927" lon="-3.33977">
        <ele>82.3</ele>
        <time>2019-07-11T07:02:45Z</time>
      </trkpt>
      <trkpt lat="48.79924" lon="-3.33975">
        <ele>83</ele>
        <time>2019-07-11T07:02:46Z</time>
      </trkpt>
      <trkpt lat="48.79922" lon="-3.33973">
        <ele>84</ele>
        <time>2019-07-11T07:02:47Z</time>
      </trkpt>
      <trkpt lat="48.79919" lon="-3.33971">
        <ele>84.7</ele>
        <time>2019-07-11T07:02:48Z</time>
      </trkpt>
      <trkpt lat="48.79916" lon="-3.33969">
        <ele>84.8</ele>
        <time>2019-07-11T07:02:49Z</time>
      </trkpt>
      <trkpt lat="48.79913" lon="-3.33968">
        <ele>85</ele>
        <time>2019-07-11T07:02:50Z</time>
      </trkpt>
      <trkpt lat="48.79911" lon="-3.33966">
        <ele>85.3</ele>
        <time>2019-07-11T07:02:51Z</time>
      </trkpt>
      <trkpt lat="48.79908" lon="-3.33965">
        <ele>85.6</ele>
        <time>2019-07-11T07:02:52Z</time>
      </trkpt>
      <trkpt lat="48.79907" lon="-3.33963">
        <ele>85.8</ele>
        <time>2019-07-11T07:02:53Z</time>
      </trkpt>
      <trkpt lat="48.79905" lon="-3.33962">
        <ele>85.7</ele>
        <time>2019-07-11T07:02:54Z</time>
      </trkpt>
      <trkpt lat="48.79904" lon="-3.33961">
        <ele>85.5</ele>
        <time>2019-07-11T07:02:55Z</time>
      </trkpt>
      <trkpt lat="48.799" lon="-3.3396">
        <ele>85.7</ele>
        <time>2019-07-11T07:02:56Z</time>
      </trkpt>
      <trkpt lat="48.79897" lon="-3.3396">
        <ele>85.4</ele>
        <time>2019-07-11T07:02:57Z</time>
      </trkpt>
      <trkpt lat="48.79894" lon="-3.33959">
        <ele>85</ele>
        <time>2019-07-11T07:02:58Z</time>
      </trkpt>
      <trkpt lat="48.79892" lon="-3.33959">
        <ele>84.8</ele>
        <time>2019-07-11T07:02:59Z</time>
      </trkpt>
      <trkpt lat="48.7989" lon="-3.33959">
        <ele>84.8</ele>
        <time>2019-07-11T07:03:00Z</time>
      </trkpt>
      <trkpt lat="48.79888" lon="-3.33959">
        <ele>84.9</ele>
        <time>2019-07-11T07:03:01Z</time>
      </trkpt>
      <trkpt lat="48.79886" lon="-3.33959">
        <ele>85</ele>
        <time>2019-07-11T07:03:02Z</time>
      </trkpt>
      <trkpt lat="48.79884" lon="-3.33959">
        <ele>85.3</ele>
        <time>2019-07-11T07:03:03Z</time>
      </trkpt>
      <trkpt lat="48.79882" lon="-3.33958">
        <ele>85.3</ele>
        <time>2019-07-11T07:03:04Z</time>
      </trkpt>
      <trkpt lat="48.7988" lon="-3.33958">
        <ele>85.3</ele>
        <time>2019-07-11T07:03:05Z</time>
      </trkpt>
      <trkpt lat="48.79878" lon="-3.33958">
        <ele>85.3</ele>
        <time>2019-07-11T07:03:06Z</time>
      </trkpt>
      <trkpt lat="48.79876" lon="-3.33958">
        <ele>85.6</ele>
        <time>2019-07-11T07:03:07Z</time>
      </trkpt>
      <trkpt lat="48.79873" lon="-3.33958">
        <ele>85.9</ele>
        <time>2019-07-11T07:03:08Z</time>
      </trkpt>
      <trkpt lat="48.79871" lon="-3.33958">
        <ele>86.2</ele>
        <time>2019-07-11T07:03:09Z</time>
      </trkpt>
      <trkpt lat="48.79868" lon="-3.33958">
        <ele>86</ele>
        <time>2019-07-11T07:03:10Z</time>
      </trkpt>
      <trkpt lat="48.79866" lon="-3.33957">
        <ele>85.8</ele>
        <time>2019-07-11T07:03:11Z</time>
      </trkpt>
      <trkpt lat="48.79863" lon="-3.33957">
        <ele>85.9</ele>
        <time>2019-07-11T07:03:12Z</time>
      </trkpt>
      <trkpt lat="48.7986" lon="-3.33957">
        <ele>86.3</ele>
        <time>2019-07-11T07:03:13Z</time>
      </trkpt>
      <trkpt lat="48.79856" lon="-3.33957">
        <ele>86.4</ele>
        <time>2019-07-11T07:03:14Z</time>
      </trkpt>
      <trkpt lat="48.79853" lon="-3.33958">
        <ele>86.1</ele>
        <time>2019-07-11T07:03:15Z</time>
      </trkpt>
      <trkpt lat="48.7985" lon="-3.33958">
        <ele>85.6</ele>
        <time>2019-07-11T07:03:16Z</time>
      </trkpt>
      <trkpt lat="48.79847" lon="-3.33957">
        <ele>85.7</ele>
        <time>2019-07-11T07:03:17Z</time>
      </trkpt>
      <trkpt lat="48.79844" lon="-3.33957">
        <ele>85.8</ele>
        <time>2019-07-11T07:03:18Z</time>
      </trkpt>
      <trkpt lat="48.79842" lon="-3.33958">
        <ele>85.6</ele>
        <time>2019-07-11T07:03:19Z</time>
      </trkpt>
      <trkpt lat="48.79839" lon="-3.33959">
        <ele>85.1</ele>
        <time>2019-07-11T07:03:20Z</time>
      </trkpt>
      <trkpt lat="48.79837" lon="-3.33959">
        <ele>84.9</ele>
        <time>2019-07-11T07:03:21Z</time>
      </trkpt>
      <trkpt lat="48.79834" lon="-3.33959">
        <ele>84.5</ele>
        <time>2019-07-11T07:03:22Z</time>
      </trkpt>
      <trkpt lat="48.79831" lon="-3.33958">
        <ele>85.1</ele>
        <time>2019-07-11T07:03:23Z</time>
      </trkpt>
      <trkpt lat="48.79829" lon="-3.33957">
        <ele>84.7</ele>
        <time>2019-07-11T07:03:24Z</time>
      </trkpt>
      <trkpt lat="48.79826" lon="-3.33958">
        <ele>84.9</ele>
        <time>2019-07-11T07:03:25Z</time>
      </trkpt>
      <trkpt lat="48.79824" lon="-3.33959">
        <ele>85.3</ele>
        <time>2019-07-11T07:03:26Z</time>
      </trkpt>
      <trkpt lat="48.79822" lon="-3.33959">
        <ele>85.2</ele>
        <time>2019-07-11T07:03:27Z</time>
      </trkpt>
      <trkpt lat="48.79819" lon="-3.3396">
        <ele>85.2</ele>
        <time>2019-07-11T07:03:28Z</time>
      </trkpt>
      <trkpt lat="48.79816" lon="-3.3396">
        <ele>85.6</ele>
        <time>2019-07-11T07:03:29Z</time>
      </trkpt>
      <trkpt lat="48.79813" lon="-3.3396">
        <ele>86.1</ele>
        <time>2019-07-11T07:03:30Z</time>
      </trkpt>
      <trkpt lat="48.7981" lon="-3.3396">
        <ele>86.3</ele>
        <time>2019-07-11T07:03:31Z</time>
      </trkpt>
      <trkpt lat="48.79807" lon="-3.3396">
        <ele>86.8</ele>
        <time>2019-07-11T07:03:32Z</time>
      </trkpt>
      <trkpt lat="48.79805" lon="-3.3396">
        <ele>86.2</ele>
        <time>2019-07-11T07:03:33Z</time>
      </trkpt>
      <trkpt lat="48.79802" lon="-3.33959">
        <ele>86.7</ele>
        <time>2019-07-11T07:03:34Z</time>
      </trkpt>
      <trkpt lat="48.798" lon="-3.33959">
        <ele>87.4</ele>
        <time>2019-07-11T07:03:35Z</time>
      </trkpt>
      <trkpt lat="48.79798" lon="-3.33958">
        <ele>88</ele>
        <time>2019-07-11T07:03:36Z</time>
      </trkpt>
      <trkpt lat="48.79796" lon="-3.33957">
        <ele>89.3</ele>
        <time>2019-07-11T07:03:37Z</time>
      </trkpt>
      <trkpt lat="48.79794" lon="-3.33956">
        <ele>90.1</ele>
        <time>2019-07-11T07:03:38Z</time>
      </trkpt>
      <trkpt lat="48.79792" lon="-3.33956">
        <ele>89.7</ele>
        <time>2019-07-11T07:03:39Z</time>
      </trkpt>
      <trkpt lat="48.79789" lon="-3.33955">
        <ele>90</ele>
        <time>2019-07-11T07:03:40Z</time>
      </trkpt>
      <trkpt lat="48.79787" lon="-3.33955">
        <ele>89.2</ele>
        <time>2019-07-11T07:03:41Z</time>
      </trkpt>
      <trkpt lat="48.79784" lon="-3.33954">
        <ele>87.8</ele>
        <time>2019-07-11T07:03:42Z</time>
      </trkpt>
      <trkpt lat="48.79781" lon="-3.33954">
        <ele>86.6</ele>
        <time>2019-07-11T07:03:43Z</time>
      </trkpt>
      <trkpt lat="48.79778" lon="-3.33953">
        <ele>85.4</ele>
        <time>2019-07-11T07:03:44Z</time>
      </trkpt>
      <trkpt lat="48.79775" lon="-3.33953">
        <ele>85.5</ele>
        <time>2019-07-11T07:03:45Z</time>
      </trkpt>
      <trkpt lat="48.79772" lon="-3.33952">
        <ele>85.4</ele>
        <time>2019-07-11T07:03:46Z</time>
      </trkpt>
      <trkpt lat="48.7977" lon="-3.33951">
        <ele>85.2</ele>
        <time>2019-07-11T07:03:47Z</time>
      </trkpt>
      <trkpt lat="48.79767" lon="-3.3395">
        <ele>85</ele>
        <time>2019-07-11T07:03:48Z</time>
      </trkpt>
      <trkpt lat="48.79764" lon="-3.33949">
        <ele>84.7</ele>
        <time>2019-07-11T07:03:49Z</time>
      </trkpt>
      <trkpt lat="48.79761" lon="-3.33949">
        <ele>84.7</ele>
        <time>2019-07-11T07:03:50Z</time>
      </trkpt>
      <trkpt lat="48.79758" lon="-3.33948">
        <ele>85.3</ele>
        <time>2019-07-11T07:03:51Z</time>
      </trkpt>
      <trkpt lat="48.79755" lon="-3.33947">
        <ele>85.8</ele>
        <time>2019-07-11T07:03:52Z</time>
      </trkpt>
      <trkpt lat="48.79752" lon="-3.33946">
        <ele>86</ele>
        <time>2019-07-11T07:03:53Z</time>
      </trkpt>
      <trkpt lat="48.7975" lon="-3.33945">
        <ele>86.8</ele>
        <time>2019-07-11T07:03:54Z</time>
      </trkpt>
      <trkpt lat="48.79747" lon="-3.33945">
        <ele>86.7</ele>
        <time>2019-07-11T07:03:55Z</time>
      </trkpt>
      <trkpt lat="48.79745" lon="-3.33945">
        <ele>86.6</ele>
        <time>2019-07-11T07:03:56Z</time>
      </trkpt>
      <trkpt lat="48.79742" lon="-3.33944">
        <ele>86.2</ele>
        <time>2019-07-11T07:03:57Z</time>
      </trkpt>
      <trkpt lat="48.79739" lon="-3.33944">
        <ele>86.3</ele>
        <time>2019-07-11T07:03:58Z</time>
      </trkpt>
      <trkpt lat="48.79737" lon="-3.33945">
        <ele>86.5</ele>
        <time>2019-07-11T07:03:59Z</time>
      </trkpt>
      <trkpt lat="48.79735" lon="-3.33945">
        <ele>87.4</ele>
        <time>2019-07-11T07:04:00Z</time>
      </trkpt>
      <trkpt lat="48.79733" lon="-3.33946">
        <ele>87.7</ele>
        <time>2019-07-11T07:04:01Z</time>
      </trkpt>
      <trkpt lat="48.79731" lon="-3.33947">
        <ele>88.1</ele>
        <time>2019-07-11T07:04:02Z</time>
      </trkpt>
      <trkpt lat="48.7973" lon="-3.33948">
        <ele>88.7</ele>
        <time>2019-07-11T07:04:03Z</time>
      </trkpt>
      <trkpt lat="48.79727" lon="-3.33949">
        <ele>89.1</ele>
        <time>2019-07-11T07:04:04Z</time>
      </trkpt>
      <trkpt lat="48.79725" lon="-3.33951">
        <ele>89.4</ele>
        <time>2019-07-11T07:04:05Z</time>
      </trkpt>
      <trkpt lat="48.79722" lon="-3.33952">
        <ele>90.1</ele>
        <time>2019-07-11T07:04:06Z</time>
      </trkpt>
      <trkpt lat="48.7972" lon="-3.33954">
        <ele>90.4</ele>
        <time>2019-07-11T07:04:07Z</time>
      </trkpt>
      <trkpt lat="48.79718" lon="-3.33955">
        <ele>90.2</ele>
        <time>2019-07-11T07:04:08Z</time>
      </trkpt>
      <trkpt lat="48.79716" lon="-3.33957">
        <ele>90.3</ele>
        <time>2019-07-11T07:04:09Z</time>
      </trkpt>
      <trkpt lat="48.79714" lon="-3.33959">
        <ele>89.9</ele>
        <time>2019-07-11T07:04:10Z</time>
      </trkpt>
      <trkpt lat="48.79711" lon="-3.33961">
        <ele>90.1</ele>
        <time>2019-07-11T07:04:11Z</time>
      </trkpt>
      <trkpt lat="48.79709" lon="-3.33963">
        <ele>90.4</ele>
        <time>2019-07-11T07:04:12Z</time>
      </trkpt>
      <trkpt lat="48.79707" lon="-3.33964">
        <ele>90.6</ele>
        <time>2019-07-11T07:04:13Z</time>
      </trkpt>
      <trkpt lat="48.79704" lon="-3.33966">
        <ele>90.2</ele>
        <time>2019-07-11T07:04:14Z</time>
      </trkpt>
      <trkpt lat="48.79702" lon="-3.33968">
        <ele>89.8</ele>
        <time>2019-07-11T07:04:15Z</time>
      </trkpt>
      <trkpt lat="48.79699" lon="-3.33969">
        <ele>89.3</ele>
        <time>2019-07-11T07:04:16Z</time>
      </trkpt>
      <trkpt lat="48.79696" lon="-3.33971">
        <ele>88.8</ele>
        <time>2019-07-11T07:04:17Z</time>
      </trkpt>
      <trkpt lat="48.79694" lon="-3.33972">
        <ele>88.3</ele>
        <time>2019-07-11T07:04:18Z</time>
      </trkpt>
      <trkpt lat="48.79691" lon="-3.33972">
        <ele>87.7</ele>
        <time>2019-07-11T07:04:19Z</time>
      </trkpt>
      <trkpt lat="48.79688" lon="-3.33973">
        <ele>87.4</ele>
        <time>2019-07-11T07:04:20Z</time>
      </trkpt>
      <trkpt lat="48.79684" lon="-3.33973">
        <ele>87.2</ele>
        <time>2019-07-11T07:04:21Z</time>
      </trkpt>
      <trkpt lat="48.79681" lon="-3.33974">
        <ele>86.8</ele>
        <time>2019-07-11T07:04:22Z</time>
      </trkpt>
      <trkpt lat="48.79678" lon="-3.33974">
        <ele>86.7</ele>
        <time>2019-07-11T07:04:23Z</time>
      </trkpt>
      <trkpt lat="48.79676" lon="-3.33974">
        <ele>86.8</ele>
        <time>2019-07-11T07:04:24Z</time>
      </trkpt>
      <trkpt lat="48.79673" lon="-3.33974">
        <ele>87.4</ele>
        <time>2019-07-11T07:04:25Z</time>
      </trkpt>
      <trkpt lat="48.7967" lon="-3.33974">
        <ele>88</ele>
        <time>2019-07-11T07:04:26Z</time>
      </trkpt>
      <trkpt lat="48.79667" lon="-3.33973">
        <ele>88.1</ele>
        <time>2019-07-11T07:04:27Z</time>
      </trkpt>
      <trkpt lat="48.79664" lon="-3.33973">
        <ele>87.8</ele>
        <time>2019-07-11T07:04:28Z</time>
      </trkpt>
      <trkpt lat="48.79661" lon="-3.33972">
        <ele>87.5</ele>
        <time>2019-07-11T07:04:29Z</time>
      </trkpt>
      <trkpt lat="48.79658" lon="-3.33971">
        <ele>87.3</ele>
        <time>2019-07-11T07:04:30Z</time>
      </trkpt>
      <trkpt lat="48.79655" lon="-3.33971">
        <ele>87</ele>
        <time>2019-07-11T07:04:31Z</time>
      </trkpt>
      <trkpt lat="48.79652" lon="-3.3397">
        <ele>86.5</ele>
        <time>2019-07-11T07:04:32Z</time>
      </trkpt>
      <trkpt lat="48.79649" lon="-3.33968">
        <ele>86.4</ele>
        <time>2019-07-11T07:04:33Z</time>
      </trkpt>
      <trkpt lat="48.79646" lon="-3.33966">
        <ele>86.5</ele>
        <time>2019-07-11T07:04:34Z</time>
      </trkpt>
      <trkpt lat="48.79643" lon="-3.33965">
        <ele>87</ele>
        <time>2019-07-11T07:04:35Z</time>
      </trkpt>
      <trkpt lat="48.7964" lon="-3.33963">
        <ele>87.6</ele>
        <time>2019-07-11T07:04:36Z</time>
      </trkpt>
      <trkpt lat="48.79636" lon="-3.3396">
        <ele>87.6</ele>
        <time>2019-07-11T07:04:37Z</time>
      </trkpt>
      <trkpt lat="48.79632" lon="-3.33958">
        <ele>88</ele>
        <time>2019-07-11T07:04:38Z</time>
      </trkpt>
      <trkpt lat="48.79629" lon="-3.33955">
        <ele>88.4</ele>
        <time>2019-07-11T07:04:39Z</time>
      </trkpt>
      <trkpt lat="48.79625" lon="-3.33952">
        <ele>88.5</ele>
        <time>2019-07-11T07:04:40Z</time>
      </trkpt>
      <trkpt lat="48.79621" lon="-3.33949">
        <ele>88.7</ele>
        <time>2019-07-11T07:04:41Z</time>
      </trkpt>
      <trkpt lat="48.79617" lon="-3.33946">
        <ele>88.7</ele>
        <time>2019-07-11T07:04:42Z</time>
      </trkpt>
      <trkpt lat="48.79613" lon="-3.33943">
        <ele>89.2</ele>
        <time>2019-07-11T07:04:43Z</time>
      </trkpt>
      <trkpt lat="48.79609" lon="-3.3394">
        <ele>89.6</ele>
        <time>2019-07-11T07:04:44Z</time>
      </trkpt>
      <trkpt lat="48.79604" lon="-3.33937">
        <ele>89.8</ele>
        <time>2019-07-11T07:04:45Z</time>
      </trkpt>
      <trkpt lat="48.796" lon="-3.33935">
        <ele>90.2</ele>
        <time>2019-07-11T07:04:46Z</time>
      </trkpt>
      <trkpt lat="48.79596" lon="-3.33931">
        <ele>90.1</ele>
        <time>2019-07-11T07:04:47Z</time>
      </trkpt>
      <trkpt lat="48.79592" lon="-3.33928">
        <ele>89.9</ele>
        <time>2019-07-11T07:04:48Z</time>
      </trkpt>
      <trkpt lat="48.79588" lon="-3.33926">
        <ele>89.8</ele>
        <time>2019-07-11T07:04:49Z</time>
      </trkpt>
      <trkpt lat="48.79584" lon="-3.33923">
        <ele>89.9</ele>
        <time>2019-07-11T07:04:50Z</time>
      </trkpt>
      <trkpt lat="48.7958" lon="-3.3392">
        <ele>90.3</ele>
        <time>2019-07-11T07:04:51Z</time>
      </trkpt>
      <trkpt lat="48.79577" lon="-3.33917">
        <ele>91.2</ele>
        <time>2019-07-11T07:04:52Z</time>
      </trkpt>
      <trkpt lat="48.79573" lon="-3.33914">
        <ele>91.5</ele>
        <time>2019-07-11T07:04:53Z</time>
      </trkpt>
      <trkpt lat="48.79569" lon="-3.33911">
        <ele>91.1</ele>
        <time>2019-07-11T07:04:54Z</time>
      </trkpt>
      <trkpt lat="48.79565" lon="-3.33909">
        <ele>90.9</ele>
        <time>2019-07-11T07:04:55Z</time>
      </trkpt>
      <trkpt lat="48.79561" lon="-3.33906">
        <ele>91.2</ele>
        <time>2019-07-11T07:04:56Z</time>
      </trkpt>
      <trkpt lat="48.79557" lon="-3.33903">
        <ele>90.7</ele>
        <time>2019-07-11T07:04:57Z</time>
      </trkpt>
      <trkpt lat="48.79553" lon="-3.33899">
        <ele>90.5</ele>
        <time>2019-07-11T07:04:58Z</time>
      </trkpt>
      <trkpt lat="48.79549" lon="-3.33896">
        <ele>90.5</ele>
        <time>2019-07-11T07:04:59Z</time>
      </trkpt>
      <trkpt lat="48.79546" lon="-3.33892">
        <ele>89.9</ele>
        <time>2019-07-11T07:05:00Z</time>
      </trkpt>
      <trkpt lat="48.79542" lon="-3.33889">
        <ele>88.8</ele>
        <time>2019-07-11T07:05:01Z</time>
      </trkpt>
      <trkpt lat="48.79538" lon="-3.33885">
        <ele>88.2</ele>
        <time>2019-07-11T07:05:02Z</time>
      </trkpt>
      <trkpt lat="48.79535" lon="-3.33881">
        <ele>87.7</ele>
        <time>2019-07-11T07:05:03Z</time>
      </trkpt>
      <trkpt lat="48.79531" lon="-3.33877">
        <ele>87.3</ele>
        <time>2019-07-11T07:05:04Z</time>
      </trkpt>
      <trkpt lat="48.79528" lon="-3.33872">
        <ele>87</ele>
        <time>2019-07-11T07:05:05Z</time>
      </trkpt>
      <trkpt lat="48.79524" lon="-3.33868">
        <ele>87.2</ele>
        <time>2019-07-11T07:05:06Z</time>
      </trkpt>
      <trkpt lat="48.7952" lon="-3.33864">
        <ele>86.7</ele>
        <time>2019-07-11T07:05:07Z</time>
      </trkpt>
      <trkpt lat="48.79516" lon="-3.3386">
        <ele>86</ele>
        <time>2019-07-11T07:05:08Z</time>
      </trkpt>
      <trkpt lat="48.79512" lon="-3.33855">
        <ele>85.4</ele>
        <time>2019-07-11T07:05:09Z</time>
      </trkpt>
      <trkpt lat="48.79508" lon="-3.33851">
        <ele>84.8</ele>
        <time>2019-07-11T07:05:10Z</time>
      </trkpt>
      <trkpt lat="48.79504" lon="-3.33846">
        <ele>84.4</ele>
        <time>2019-07-11T07:05:11Z</time>
      </trkpt>
      <trkpt lat="48.795" lon="-3.33841">
        <ele>84.3</ele>
        <time>2019-07-11T07:05:12Z</time>
      </trkpt>
      <trkpt lat="48.79496" lon="-3.33836">
        <ele>84.3</ele>
        <time>2019-07-11T07:05:13Z</time>
      </trkpt>
      <trkpt lat="48.79493" lon="-3.33831">
        <ele>84.2</ele>
        <time>2019-07-11T07:05:14Z</time>
      </trkpt>
      <trkpt lat="48.79488" lon="-3.33826">
        <ele>84.3</ele>
        <time>2019-07-11T07:05:15Z</time>
      </trkpt>
      <trkpt lat="48.79484" lon="-3.33822">
        <ele>84</ele>
        <time>2019-07-11T07:05:16Z</time>
      </trkpt>
      <trkpt lat="48.7948" lon="-3.33817">
        <ele>83.7</ele>
        <time>2019-07-11T07:05:17Z</time>
      </trkpt>
      <trkpt lat="48.79476" lon="-3.33812">
        <ele>83.3</ele>
        <time>2019-07-11T07:05:18Z</time>
      </trkpt>
      <trkpt lat="48.79472" lon="-3.33807">
        <ele>82.9</ele>
        <time>2019-07-11T07:05:19Z</time>
      </trkpt>
      <trkpt lat="48.79467" lon="-3.33802">
        <ele>82</ele>
        <time>2019-07-11T07:05:20Z</time>
      </trkpt>
      <trkpt lat="48.79463" lon="-3.33797">
        <ele>81.7</ele>
        <time>2019-07-11T07:05:21Z</time>
      </trkpt>
      <trkpt lat="48.79459" lon="-3.33793">
        <ele>81.3</ele>
        <time>2019-07-11T07:05:22Z</time>
      </trkpt>
      <trkpt lat="48.79454" lon="-3.33789">
        <ele>81</ele>
        <time>2019-07-11T07:05:23Z</time>
      </trkpt>
      <trkpt lat="48.79451" lon="-3.33784">
        <ele>80.6</ele>
        <time>2019-07-11T07:05:24Z</time>
      </trkpt>
      <trkpt lat="48.79446" lon="-3.33779">
        <ele>80.5</ele>
        <time>2019-07-11T07:05:25Z</time>
      </trkpt>
      <trkpt lat="48.79442" lon="-3.33773">
        <ele>79.7</ele>
        <time>2019-07-11T07:05:26Z</time>
      </trkpt>
      <trkpt lat="48.79437" lon="-3.33767">
        <ele>79.1</ele>
        <time>2019-07-11T07:05:27Z</time>
      </trkpt>
      <trkpt lat="48.79432" lon="-3.3376">
        <ele>78.3</ele>
        <time>2019-07-11T07:05:28Z</time>
      </trkpt>
      <trkpt lat="48.79428" lon="-3.33754">
        <ele>77.6</ele>
        <time>2019-07-11T07:05:29Z</time>
      </trkpt>
      <trkpt lat="48.79424" lon="-3.33747">
        <ele>76.6</ele>
        <time>2019-07-11T07:05:30Z</time>
      </trkpt>
      <trkpt lat="48.79418" lon="-3.3374">
        <ele>75.9</ele>
        <time>2019-07-11T07:05:31Z</time>
      </trkpt>
      <trkpt lat="48.79413" lon="-3.33733">
        <ele>74.6</ele>
        <time>2019-07-11T07:05:32Z</time>
      </trkpt>
      <trkpt lat="48.79407" lon="-3.33727">
        <ele>74.2</ele>
        <time>2019-07-11T07:05:33Z</time>
      </trkpt>
      <trkpt lat="48.79401" lon="-3.33723">
        <ele>74.4</ele>
        <time>2019-07-11T07:05:34Z</time>
      </trkpt>
      <trkpt lat="48.79394" lon="-3.33718">
        <ele>74.3</ele>
        <time>2019-07-11T07:05:35Z</time>
      </trkpt>
      <trkpt lat="48.79388" lon="-3.33712">
        <ele>74.1</ele>
        <time>2019-07-11T07:05:36Z</time>
      </trkpt>
      <trkpt lat="48.79381" lon="-3.33704">
        <ele>73.6</ele>
        <time>2019-07-11T07:05:37Z</time>
      </trkpt>
      <trkpt lat="48.79375" lon="-3.33695">
        <ele>73.6</ele>
        <time>2019-07-11T07:05:38Z</time>
      </trkpt>
      <trkpt lat="48.79368" lon="-3.33687">
        <ele>73.5</ele>
        <time>2019-07-11T07:05:39Z</time>
      </trkpt>
      <trkpt lat="48.79362" lon="-3.33678">
        <ele>73.2</ele>
        <time>2019-07-11T07:05:40Z</time>
      </trkpt>
      <trkpt lat="48.79356" lon="-3.3367">
        <ele>73.3</ele>
        <time>2019-07-11T07:05:41Z</time>
      </trkpt>
      <trkpt lat="48.7935" lon="-3.33662">
        <ele>74.1</ele>
        <time>2019-07-11T07:05:42Z</time>
      </trkpt>
      <trkpt lat="48.79343" lon="-3.33654">
        <ele>74.8</ele>
        <time>2019-07-11T07:05:43Z</time>
      </trkpt>
      <trkpt lat="48.79337" lon="-3.33646">
        <ele>74.8</ele>
        <time>2019-07-11T07:05:44Z</time>
      </trkpt>
      <trkpt lat="48.79331" lon="-3.33639">
        <ele>74.5</ele>
        <time>2019-07-11T07:05:45Z</time>
      </trkpt>
      <trkpt lat="48.79323" lon="-3.33634">
        <ele>74.6</ele>
        <time>2019-07-11T07:05:46Z</time>
      </trkpt>
      <trkpt lat="48.79316" lon="-3.33633">
        <ele>75.1</ele>
        <time>2019-07-11T07:05:47Z</time>
      </trkpt>
      <trkpt lat="48.7931" lon="-3.33633">
        <ele>75.9</ele>
        <time>2019-07-11T07:05:48Z</time>
      </trkpt>
      <trkpt lat="48.79303" lon="-3.33634">
        <ele>76.4</ele>
        <time>2019-07-11T07:05:49Z</time>
      </trkpt>
      <trkpt lat="48.79297" lon="-3.33637">
        <ele>76.4</ele>
        <time>2019-07-11T07:05:50Z</time>
      </trkpt>
      <trkpt lat="48.79293" lon="-3.33642">
        <ele>76.6</ele>
        <time>2019-07-11T07:05:51Z</time>
      </trkpt>
      <trkpt lat="48.79289" lon="-3.33647">
        <ele>76.6</ele>
        <time>2019-07-11T07:05:52Z</time>
      </trkpt>
      <trkpt lat="48.79286" lon="-3.33653">
        <ele>76.8</ele>
        <time>2019-07-11T07:05:53Z</time>
      </trkpt>
      <trkpt lat="48.79282" lon="-3.33658">
        <ele>76.8</ele>
        <time>2019-07-11T07:05:54Z</time>
      </trkpt>
      <trkpt lat="48.79279" lon="-3.33663">
        <ele>76.6</ele>
        <time>2019-07-11T07:05:55Z</time>
      </trkpt>
      <trkpt lat="48.79276" lon="-3.33666">
        <ele>76.8</ele>
        <time>2019-07-11T07:05:56Z</time>
      </trkpt>
      <trkpt lat="48.79274" lon="-3.33668">
        <ele>78.9</ele>
        <time>2019-07-11T07:05:57Z</time>
      </trkpt>
      <trkpt lat="48.79271" lon="-3.33671">
        <ele>80.2</ele>
        <time>2019-07-11T07:05:58Z</time>
      </trkpt>
      <trkpt lat="48.79266" lon="-3.33673">
        <ele>80.7</ele>
        <time>2019-07-11T07:05:59Z</time>
      </trkpt>
      <trkpt lat="48.79262" lon="-3.33675">
        <ele>81</ele>
        <time>2019-07-11T07:06:00Z</time>
      </trkpt>
      <trkpt lat="48.79258" lon="-3.33675">
        <ele>81.7</ele>
        <time>2019-07-11T07:06:01Z</time>
      </trkpt>
      <trkpt lat="48.79253" lon="-3.33675">
        <ele>82</ele>
        <time>2019-07-11T07:06:02Z</time>
      </trkpt>
      <trkpt lat="48.79249" lon="-3.33675">
        <ele>82.3</ele>
        <time>2019-07-11T07:06:03Z</time>
      </trkpt>
      <trkpt lat="48.79245" lon="-3.33674">
        <ele>82.6</ele>
        <time>2019-07-11T07:06:04Z</time>
      </trkpt>
      <trkpt lat="48.79241" lon="-3.33672">
        <ele>82.9</ele>
        <time>2019-07-11T07:06:05Z</time>
      </trkpt>
      <trkpt lat="48.79238" lon="-3.33669">
        <ele>82.9</ele>
        <time>2019-07-11T07:06:06Z</time>
      </trkpt>
      <trkpt lat="48.79234" lon="-3.33667">
        <ele>82.8</ele>
        <time>2019-07-11T07:06:07Z</time>
      </trkpt>
      <trkpt lat="48.79231" lon="-3.33666">
        <ele>82.7</ele>
        <time>2019-07-11T07:06:08Z</time>
      </trkpt>
      <trkpt lat="48.79228" lon="-3.33664">
        <ele>82.5</ele>
        <time>2019-07-11T07:06:09Z</time>
      </trkpt>
      <trkpt lat="48.79225" lon="-3.33662">
        <ele>82.3</ele>
        <time>2019-07-11T07:06:10Z</time>
      </trkpt>
      <trkpt lat="48.79222" lon="-3.33659">
        <ele>82.2</ele>
        <time>2019-07-11T07:06:11Z</time>
      </trkpt>
      <trkpt lat="48.79219" lon="-3.33658">
        <ele>82.2</ele>
        <time>2019-07-11T07:06:12Z</time>
      </trkpt>
      <trkpt lat="48.79216" lon="-3.33655">
        <ele>82</ele>
        <time>2019-07-11T07:06:13Z</time>
      </trkpt>
      <trkpt lat="48.79213" lon="-3.33653">
        <ele>81.6</ele>
        <time>2019-07-11T07:06:14Z</time>
      </trkpt>
      <trkpt lat="48.7921" lon="-3.33651">
        <ele>81.4</ele>
        <time>2019-07-11T07:06:15Z</time>
      </trkpt>
      <trkpt lat="48.79207" lon="-3.33649">
        <ele>81.3</ele>
        <time>2019-07-11T07:06:16Z</time>
      </trkpt>
      <trkpt lat="48.79204" lon="-3.33647">
        <ele>81.4</ele>
        <time>2019-07-11T07:06:17Z</time>
      </trkpt>
      <trkpt lat="48.79201" lon="-3.33645">
        <ele>81.4</ele>
        <time>2019-07-11T07:06:18Z</time>
      </trkpt>
      <trkpt lat="48.79198" lon="-3.33643">
        <ele>81.5</ele>
        <time>2019-07-11T07:06:19Z</time>
      </trkpt>
      <trkpt lat="48.79195" lon="-3.3364">
        <ele>81.6</ele>
        <time>2019-07-11T07:06:20Z</time>
      </trkpt>
      <trkpt lat="48.79192" lon="-3.33638">
        <ele>81.4</ele>
        <time>2019-07-11T07:06:21Z</time>
      </trkpt>
      <trkpt lat="48.7919" lon="-3.33635">
        <ele>81.3</ele>
        <time>2019-07-11T07:06:22Z</time>
      </trkpt>
      <trkpt lat="48.79187" lon="-3.33633">
        <ele>81.3</ele>
        <time>2019-07-11T07:06:23Z</time>
      </trkpt>
      <trkpt lat="48.79185" lon="-3.33631">
        <ele>81.6</ele>
        <time>2019-07-11T07:06:24Z</time>
      </trkpt>
      <trkpt lat="48.79182" lon="-3.33629">
        <ele>81</ele>
        <time>2019-07-11T07:06:25Z</time>
      </trkpt>
      <trkpt lat="48.7918" lon="-3.33627">
        <ele>80.8</ele>
        <time>2019-07-11T07:06:26Z</time>
      </trkpt>
      <trkpt lat="48.79178" lon="-3.33624">
        <ele>81.6</ele>
        <time>2019-07-11T07:06:27Z</time>
      </trkpt>
      <trkpt lat="48.79175" lon="-3.33622">
        <ele>81.3</ele>
        <time>2019-07-11T07:06:28Z</time>
      </trkpt>
      <trkpt lat="48.79172" lon="-3.3362">
        <ele>81.7</ele>
        <time>2019-07-11T07:06:29Z</time>
      </trkpt>
      <trkpt lat="48.7917" lon="-3.33619">
        <ele>82</ele>
        <time>2019-07-11T07:06:30Z</time>
      </trkpt>
      <trkpt lat="48.79167" lon="-3.33617">
        <ele>82.6</ele>
        <time>2019-07-11T07:06:31Z</time>
      </trkpt>
      <trkpt lat="48.79164" lon="-3.33615">
        <ele>82.6</ele>
        <time>2019-07-11T07:06:32Z</time>
      </trkpt>
      <trkpt lat="48.79161" lon="-3.33614">
        <ele>82.5</ele>
        <time>2019-07-11T07:06:33Z</time>
      </trkpt>
      <trkpt lat="48.79158" lon="-3.33612">
        <ele>82.7</ele>
        <time>2019-07-11T07:06:34Z</time>
      </trkpt>
      <trkpt lat="48.79155" lon="-3.3361">
        <ele>82.5</ele>
        <time>2019-07-11T07:06:35Z</time>
      </trkpt>
      <trkpt lat="48.79152" lon="-3.33608">
        <ele>82.5</ele>
        <time>2019-07-11T07:06:36Z</time>
      </trkpt>
      <trkpt lat="48.7915" lon="-3.33606">
        <ele>83</ele>
        <time>2019-07-11T07:06:37Z</time>
      </trkpt>
      <trkpt lat="48.79147" lon="-3.33605">
        <ele>84.9</ele>
        <time>2019-07-11T07:06:38Z</time>
      </trkpt>
      <trkpt lat="48.79145" lon="-3.33603">
        <ele>86.2</ele>
        <time>2019-07-11T07:06:39Z</time>
      </trkpt>
      <trkpt lat="48.79143" lon="-3.33602">
        <ele>87</ele>
        <time>2019-07-11T07:06:40Z</time>
      </trkpt>
      <trkpt lat="48.7914" lon="-3.33601">
        <ele>87.3</ele>
        <time>2019-07-11T07:06:41Z</time>
      </trkpt>
      <trkpt lat="48.79137" lon="-3.336">
        <ele>87.4</ele>
        <time>2019-07-11T07:06:42Z</time>
      </trkpt>
      <trkpt lat="48.79134" lon="-3.33599">
        <ele>87.6</ele>
        <time>2019-07-11T07:06:43Z</time>
      </trkpt>
      <trkpt lat="48.79131" lon="-3.33598">
        <ele>87.9</ele>
        <time>2019-07-11T07:06:44Z</time>
      </trkpt>
      <trkpt lat="48.79128" lon="-3.33597">
        <ele>88.3</ele>
        <time>2019-07-11T07:06:45Z</time>
      </trkpt>
      <trkpt lat="48.79125" lon="-3.33596">
        <ele>87.7</ele>
        <time>2019-07-11T07:06:46Z</time>
      </trkpt>
      <trkpt lat="48.79122" lon="-3.33595">
        <ele>87.5</ele>
        <time>2019-07-11T07:06:47Z</time>
      </trkpt>
      <trkpt lat="48.7912" lon="-3.33594">
        <ele>87.8</ele>
        <time>2019-07-11T07:06:48Z</time>
      </trkpt>
      <trkpt lat="48.79116" lon="-3.33593">
        <ele>87.7</ele>
        <time>2019-07-11T07:06:49Z</time>
      </trkpt>
      <trkpt lat="48.79113" lon="-3.33592">
        <ele>88.2</ele>
        <time>2019-07-11T07:06:50Z</time>
      </trkpt>
      <trkpt lat="48.7911" lon="-3.33592">
        <ele>88.1</ele>
        <time>2019-07-11T07:06:51Z</time>
      </trkpt>
      <trkpt lat="48.79107" lon="-3.33591">
        <ele>87.6</ele>
        <time>2019-07-11T07:06:52Z</time>
      </trkpt>
      <trkpt lat="48.79104" lon="-3.33589">
        <ele>87.5</ele>
        <time>2019-07-11T07:06:53Z</time>
      </trkpt>
      <trkpt lat="48.79101" lon="-3.33588">
        <ele>87.5</ele>
        <time>2019-07-11T07:06:54Z</time>
      </trkpt>
      <trkpt lat="48.79098" lon="-3.33587">
        <ele>87.8</ele>
        <time>2019-07-11T07:06:55Z</time>
      </trkpt>
      <trkpt lat="48.79095" lon="-3.33586">
        <ele>87.5</ele>
        <time>2019-07-11T07:06:56Z</time>
      </trkpt>
      <trkpt lat="48.79092" lon="-3.33585">
        <ele>87.3</ele>
        <time>2019-07-11T07:06:57Z</time>
      </trkpt>
      <trkpt lat="48.79089" lon="-3.33584">
        <ele>87.3</ele>
        <time>2019-07-11T07:06:58Z</time>
      </trkpt>
      <trkpt lat="48.79086" lon="-3.33583">
        <ele>87</ele>
        <time>2019-07-11T07:06:59Z</time>
      </trkpt>
      <trkpt lat="48.79083" lon="-3.33581">
        <ele>87.2</ele>
        <time>2019-07-11T07:07:00Z</time>
      </trkpt>
      <trkpt lat="48.7908" lon="-3.33579">
        <ele>87.7</ele>
        <time>2019-07-11T07:07:01Z</time>
      </trkpt>
      <trkpt lat="48.79077" lon="-3.33578">
        <ele>87.4</ele>
        <time>2019-07-11T07:07:02Z</time>
      </trkpt>
      <trkpt lat="48.79075" lon="-3.33576">
        <ele>87.7</ele>
        <time>2019-07-11T07:07:03Z</time>
      </trkpt>
      <trkpt lat="48.79071" lon="-3.33574">
        <ele>88</ele>
        <time>2019-07-11T07:07:04Z</time>
      </trkpt>
      <trkpt lat="48.79069" lon="-3.33573">
        <ele>88.1</ele>
        <time>2019-07-11T07:07:05Z</time>
      </trkpt>
      <trkpt lat="48.79066" lon="-3.33572">
        <ele>87.8</ele>
        <time>2019-07-11T07:07:06Z</time>
      </trkpt>
      <trkpt lat="48.79063" lon="-3.33572">
        <ele>88.2</ele>
        <time>2019-07-11T07:07:07Z</time>
      </trkpt>
      <trkpt lat="48.79061" lon="-3.33572">
        <ele>88.6</ele>
        <time>2019-07-11T07:07:08Z</time>
      </trkpt>
      <trkpt lat="48.79058" lon="-3.33573">
        <ele>88.8</ele>
        <time>2019-07-11T07:07:09Z</time>
      </trkpt>
      <trkpt lat="48.79056" lon="-3.33575">
        <ele>89</ele>
        <time>2019-07-11T07:07:10Z</time>
      </trkpt>
      <trkpt lat="48.79054" lon="-3.33578">
        <ele>89.6</ele>
        <time>2019-07-11T07:07:11Z</time>
      </trkpt>
      <trkpt lat="48.79053" lon="-3.33582">
        <ele>90.3</ele>
        <time>2019-07-11T07:07:12Z</time>
      </trkpt>
      <trkpt lat="48.79052" lon="-3.33586">
        <ele>90.8</ele>
        <time>2019-07-11T07:07:13Z</time>
      </trkpt>
      <trkpt lat="48.79051" lon="-3.33589">
        <ele>91.2</ele>
        <time>2019-07-11T07:07:14Z</time>
      </trkpt>
      <trkpt lat="48.7905" lon="-3.33593">
        <ele>91.9</ele>
        <time>2019-07-11T07:07:15Z</time>
      </trkpt>
      <trkpt lat="48.79048" lon="-3.33596">
        <ele>92.2</ele>
        <time>2019-07-11T07:07:16Z</time>
      </trkpt>
      <trkpt lat="48.79047" lon="-3.336">
        <ele>92.5</ele>
        <time>2019-07-11T07:07:17Z</time>
      </trkpt>
      <trkpt lat="48.79046" lon="-3.33603">
        <ele>92.8</ele>
        <time>2019-07-11T07:07:18Z</time>
      </trkpt>
      <trkpt lat="48.79044" lon="-3.33607">
        <ele>93.4</ele>
        <time>2019-07-11T07:07:19Z</time>
      </trkpt>
      <trkpt lat="48.79042" lon="-3.3361">
        <ele>93.7</ele>
        <time>2019-07-11T07:07:20Z</time>
      </trkpt>
      <trkpt lat="48.79041" lon="-3.33614">
        <ele>93.9</ele>
        <time>2019-07-11T07:07:21Z</time>
      </trkpt>
      <trkpt lat="48.79039" lon="-3.33617">
        <ele>94</ele>
        <time>2019-07-11T07:07:22Z</time>
      </trkpt>
      <trkpt lat="48.79037" lon="-3.33621">
        <ele>94</ele>
        <time>2019-07-11T07:07:23Z</time>
      </trkpt>
      <trkpt lat="48.79036" lon="-3.33625">
        <ele>94</ele>
        <time>2019-07-11T07:07:24Z</time>
      </trkpt>
      <trkpt lat="48.79034" lon="-3.33628">
        <ele>94</ele>
        <time>2019-07-11T07:07:25Z</time>
      </trkpt>
      <trkpt lat="48.79032" lon="-3.33632">
        <ele>94</ele>
        <time>2019-07-11T07:07:26Z</time>
      </trkpt>
      <trkpt lat="48.79031" lon="-3.33636">
        <ele>94.2</ele>
        <time>2019-07-11T07:07:27Z</time>
      </trkpt>
      <trkpt lat="48.79029" lon="-3.33639">
        <ele>93.9</ele>
        <time>2019-07-11T07:07:28Z</time>
      </trkpt>
      <trkpt lat="48.79027" lon="-3.33643">
        <ele>93.5</ele>
        <time>2019-07-11T07:07:29Z</time>
      </trkpt>
      <trkpt lat="48.79025" lon="-3.33648">
        <ele>93.1</ele>
        <time>2019-07-11T07:07:30Z</time>
      </trkpt>
      <trkpt lat="48.79024" lon="-3.33652">
        <ele>93</ele>
        <time>2019-07-11T07:07:31Z</time>
      </trkpt>
      <trkpt lat="48.79022" lon="-3.33656">
        <ele>92.7</ele>
        <time>2019-07-11T07:07:32Z</time>
      </trkpt>
      <trkpt lat="48.7902" lon="-3.3366">
        <ele>92.4</ele>
        <time>2019-07-11T07:07:33Z</time>
      </trkpt>
      <trkpt lat="48.79018" lon="-3.33665">
        <ele>92.2</ele>
        <time>2019-07-11T07:07:34Z</time>
      </trkpt>
      <trkpt lat="48.79017" lon="-3.33668">
        <ele>91.9</ele>
        <time>2019-07-11T07:07:35Z</time>
      </trkpt>
      <trkpt lat="48.79015" lon="-3.33672">
        <ele>91.9</ele>
        <time>2019-07-11T07:07:36Z</time>
      </trkpt>
      <trkpt lat="48.79014" lon="-3.33677">
        <ele>91.8</ele>
        <time>2019-07-11T07:07:37Z</time>
      </trkpt>
      <trkpt lat="48.79012" lon="-3.33681">
        <ele>91.6</ele>
        <time>2019-07-11T07:07:38Z</time>
      </trkpt>
      <trkpt lat="48.7901" lon="-3.33685">
        <ele>91.5</ele>
        <time>2019-07-11T07:07:39Z</time>
      </trkpt>
      <trkpt lat="48.79008" lon="-3.3369">
        <ele>91.2</ele>
        <time>2019-07-11T07:07:40Z</time>
      </trkpt>
      <trkpt lat="48.79006" lon="-3.33694">
        <ele>90.9</ele>
        <time>2019-07-11T07:07:41Z</time>
      </trkpt>
      <trkpt lat="48.79004" lon="-3.33699">
        <ele>90.4</ele>
        <time>2019-07-11T07:07:42Z</time>
      </trkpt>
      <trkpt lat="48.79001" lon="-3.33704">
        <ele>90.5</ele>
        <time>2019-07-11T07:07:43Z</time>
      </trkpt>
      <trkpt lat="48.78999" lon="-3.33709">
        <ele>90.6</ele>
        <time>2019-07-11T07:07:44Z</time>
      </trkpt>
      <trkpt lat="48.78997" lon="-3.33714">
        <ele>90.6</ele>
        <time>2019-07-11T07:07:45Z</time>
      </trkpt>
      <trkpt lat="48.78994" lon="-3.33719">
        <ele>90.7</ele>
        <time>2019-07-11T07:07:46Z</time>
      </trkpt>
      <trkpt lat="48.78992" lon="-3.33724">
        <ele>90.6</ele>
        <time>2019-07-11T07:07:47Z</time>
      </trkpt>
      <trkpt lat="48.7899" lon="-3.33729">
        <ele>90.3</ele>
        <time>2019-07-11T07:07:48Z</time>
      </trkpt>
      <trkpt lat="48.78989" lon="-3.33733">
        <ele>89.9</ele>
        <time>2019-07-11T07:07:49Z</time>
      </trkpt>
      <trkpt lat="48.78986" lon="-3.33737">
        <ele>90.2</ele>
        <time>2019-07-11T07:07:50Z</time>
      </trkpt>
      <trkpt lat="48.78985" lon="-3.33742">
        <ele>90.3</ele>
        <time>2019-07-11T07:07:51Z</time>
      </trkpt>
      <trkpt lat="48.78983" lon="-3.33746">
        <ele>90.4</ele>
        <time>2019-07-11T07:07:52Z</time>
      </trkpt>
      <trkpt lat="48.7898" lon="-3.3375">
        <ele>90.5</ele>
        <time>2019-07-11T07:07:53Z</time>
      </trkpt>
      <trkpt lat="48.78978" lon="-3.33754">
        <ele>90.6</ele>
        <time>2019-07-11T07:07:54Z</time>
      </trkpt>
      <trkpt lat="48.78976" lon="-3.33759">
        <ele>91.1</ele>
        <time>2019-07-11T07:07:55Z</time>
      </trkpt>
      <trkpt lat="48.78974" lon="-3.33763">
        <ele>91.4</ele>
        <time>2019-07-11T07:07:56Z</time>
      </trkpt>
      <trkpt lat="48.78972" lon="-3.33767">
        <ele>91.6</ele>
        <time>2019-07-11T07:07:57Z</time>
      </trkpt>
      <trkpt lat="48.7897" lon="-3.33772">
        <ele>91.5</ele>
        <time>2019-07-11T07:07:58Z</time>
      </trkpt>
      <trkpt lat="48.78968" lon="-3.33776">
        <ele>91.6</ele>
        <time>2019-07-11T07:07:59Z</time>
      </trkpt>
      <trkpt lat="48.78966" lon="-3.33781">
        <ele>91.9</ele>
        <time>2019-07-11T07:08:00Z</time>
      </trkpt>
      <trkpt lat="48.78964" lon="-3.33786">
        <ele>91.9</ele>
        <time>2019-07-11T07:08:01Z</time>
      </trkpt>
      <trkpt lat="48.78962" lon="-3.3379">
        <ele>91.9</ele>
        <time>2019-07-11T07:08:02Z</time>
      </trkpt>
      <trkpt lat="48.7896" lon="-3.33794">
        <ele>91.8</ele>
        <time>2019-07-11T07:08:03Z</time>
      </trkpt>
      <trkpt lat="48.78958" lon="-3.33798">
        <ele>91.8</ele>
        <time>2019-07-11T07:08:04Z</time>
      </trkpt>
      <trkpt lat="48.78956" lon="-3.33802">
        <ele>91.8</ele>
        <time>2019-07-11T07:08:05Z</time>
      </trkpt>
      <trkpt lat="48.78954" lon="-3.33807">
        <ele>91.8</ele>
        <time>2019-07-11T07:08:06Z</time>
      </trkpt>
      <trkpt lat="48.78952" lon="-3.33811">
        <ele>92</ele>
        <time>2019-07-11T07:08:07Z</time>
      </trkpt>
      <trkpt lat="48.7895" lon="-3.33815">
        <ele>92.4</ele>
        <time>2019-07-11T07:08:08Z</time>
      </trkpt>
      <trkpt lat="48.78948" lon="-3.33818">
        <ele>92.6</ele>
        <time>2019-07-11T07:08:09Z</time>
      </trkpt>
      <trkpt lat="48.78946" lon="-3.33821">
        <ele>93</ele>
        <time>2019-07-11T07:08:10Z</time>
      </trkpt>
      <trkpt lat="48.78944" lon="-3.33824">
        <ele>91.7</ele>
        <time>2019-07-11T07:08:11Z</time>
      </trkpt>
      <trkpt lat="48.78943" lon="-3.33827">
        <ele>90.9</ele>
        <time>2019-07-11T07:08:12Z</time>
      </trkpt>
      <trkpt lat="48.78941" lon="-3.33828">
        <ele>90.3</ele>
        <time>2019-07-11T07:08:13Z</time>
      </trkpt>
      <trkpt lat="48.7894" lon="-3.33829">
        <ele>89.5</ele>
        <time>2019-07-11T07:08:14Z</time>
      </trkpt>
      <trkpt lat="48.78937" lon="-3.33829">
        <ele>89.8</ele>
        <time>2019-07-11T07:08:15Z</time>
      </trkpt>
      <trkpt lat="48.78935" lon="-3.33828">
        <ele>89.3</ele>
        <time>2019-07-11T07:08:16Z</time>
      </trkpt>
      <trkpt lat="48.78934" lon="-3.33825">
        <ele>88.6</ele>
        <time>2019-07-11T07:08:17Z</time>
      </trkpt>
      <trkpt lat="48.78933" lon="-3.3382">
        <ele>88.3</ele>
        <time>2019-07-11T07:08:18Z</time>
      </trkpt>
      <trkpt lat="48.78932" lon="-3.33815">
        <ele>88.8</ele>
        <time>2019-07-11T07:08:19Z</time>
      </trkpt>
      <trkpt lat="48.78932" lon="-3.3381">
        <ele>88.9</ele>
        <time>2019-07-11T07:08:20Z</time>
      </trkpt>
      <trkpt lat="48.78932" lon="-3.33805">
        <ele>88.9</ele>
        <time>2019-07-11T07:08:21Z</time>
      </trkpt>
      <trkpt lat="48.78931" lon="-3.33801">
        <ele>89.2</ele>
        <time>2019-07-11T07:08:22Z</time>
      </trkpt>
      <trkpt lat="48.78931" lon="-3.33797">
        <ele>89.4</ele>
        <time>2019-07-11T07:08:23Z</time>
      </trkpt>
      <trkpt lat="48.78931" lon="-3.33792">
        <ele>89.4</ele>
        <time>2019-07-11T07:08:24Z</time>
      </trkpt>
      <trkpt lat="48.78931" lon="-3.33788">
        <ele>89.2</ele>
        <time>2019-07-11T07:08:25Z</time>
      </trkpt>
      <trkpt lat="48.78931" lon="-3.33784">
        <ele>89.1</ele>
        <time>2019-07-11T07:08:26Z</time>
      </trkpt>
      <trkpt lat="48.7893" lon="-3.33779">
        <ele>89.1</ele>
        <time>2019-07-11T07:08:27Z</time>
      </trkpt>
      <trkpt lat="48.7893" lon="-3.33775">
        <ele>89.2</ele>
        <time>2019-07-11T07:08:28Z</time>
      </trkpt>
      <trkpt lat="48.7893" lon="-3.33771">
        <ele>89.3</ele>
        <time>2019-07-11T07:08:29Z</time>
      </trkpt>
      <trkpt lat="48.7893" lon="-3.33766">
        <ele>89.5</ele>
        <time>2019-07-11T07:08:30Z</time>
      </trkpt>
      <trkpt lat="48.7893" lon="-3.33762">
        <ele>89.4</ele>
        <time>2019-07-11T07:08:31Z</time>
      </trkpt>
      <trkpt lat="48.7893" lon="-3.33758">
        <ele>89.5</ele>
        <time>2019-07-11T07:08:32Z</time>
      </trkpt>
      <trkpt lat="48.78929" lon="-3.33754">
        <ele>89.6</ele>
        <time>2019-07-11T07:08:33Z</time>
      </trkpt>
      <trkpt lat="48.78928" lon="-3.3375">
        <ele>90</ele>
        <time>2019-07-11T07:08:34Z</time>
      </trkpt>
      <trkpt lat="48.78928" lon="-3.33746">
        <ele>90.4</ele>
        <time>2019-07-11T07:08:35Z</time>
      </trkpt>
      <trkpt lat="48.78928" lon="-3.33742">
        <ele>90.4</ele>
        <time>2019-07-11T07:08:36Z</time>
      </trkpt>
      <trkpt lat="48.78927" lon="-3.33737">
        <ele>90.6</ele>
        <time>2019-07-11T07:08:37Z</time>
      </trkpt>
      <trkpt lat="48.78927" lon="-3.33733">
        <ele>91.1</ele>
        <time>2019-07-11T07:08:38Z</time>
      </trkpt>
      <trkpt lat="48.78927" lon="-3.33729">
        <ele>91.3</ele>
        <time>2019-07-11T07:08:39Z</time>
      </trkpt>
      <trkpt lat="48.78926" lon="-3.33724">
        <ele>91.4</ele>
        <time>2019-07-11T07:08:40Z</time>
      </trkpt>
      <trkpt lat="48.78925" lon="-3.3372">
        <ele>91.8</ele>
        <time>2019-07-11T07:08:41Z</time>
      </trkpt>
      <trkpt lat="48.78925" lon="-3.33715">
        <ele>92.2</ele>
        <time>2019-07-11T07:08:42Z</time>
      </trkpt>
      <trkpt lat="48.78924" lon="-3.33711">
        <ele>92.3</ele>
        <time>2019-07-11T07:08:43Z</time>
      </trkpt>
      <trkpt lat="48.78923" lon="-3.33707">
        <ele>92.2</ele>
        <time>2019-07-11T07:08:44Z</time>
      </trkpt>
      <trkpt lat="48.78922" lon="-3.33702">
        <ele>92.5</ele>
        <time>2019-07-11T07:08:45Z</time>
      </trkpt>
      <trkpt lat="48.78922" lon="-3.33698">
        <ele>92.7</ele>
        <time>2019-07-11T07:08:46Z</time>
      </trkpt>
      <trkpt lat="48.7892" lon="-3.33694">
        <ele>92.7</ele>
        <time>2019-07-11T07:08:47Z</time>
      </trkpt>
      <trkpt lat="48.78919" lon="-3.33689">
        <ele>92.9</ele>
        <time>2019-07-11T07:08:48Z</time>
      </trkpt>
      <trkpt lat="48.78918" lon="-3.33685">
        <ele>92.7</ele>
        <time>2019-07-11T07:08:49Z</time>
      </trkpt>
      <trkpt lat="48.78917" lon="-3.33681">
        <ele>92.6</ele>
        <time>2019-07-11T07:08:50Z</time>
      </trkpt>
      <trkpt lat="48.78916" lon="-3.33677">
        <ele>93</ele>
        <time>2019-07-11T07:08:51Z</time>
      </trkpt>
      <trkpt lat="48.78915" lon="-3.33672">
        <ele>93.4</ele>
        <time>2019-07-11T07:08:52Z</time>
      </trkpt>
      <trkpt lat="48.78914" lon="-3.33667">
        <ele>93.5</ele>
        <time>2019-07-11T07:08:53Z</time>
      </trkpt>
      <trkpt lat="48.78913" lon="-3.33663">
        <ele>93.6</ele>
        <time>2019-07-11T07:08:54Z</time>
      </trkpt>
      <trkpt lat="48.78912" lon="-3.33659">
        <ele>93.5</ele>
        <time>2019-07-11T07:08:55Z</time>
      </trkpt>
      <trkpt lat="48.7891" lon="-3.33654">
        <ele>93.4</ele>
        <time>2019-07-11T07:08:56Z</time>
      </trkpt>
      <trkpt lat="48.78909" lon="-3.3365">
        <ele>93.2</ele>
        <time>2019-07-11T07:08:57Z</time>
      </trkpt>
      <trkpt lat="48.78908" lon="-3.33645">
        <ele>93.4</ele>
        <time>2019-07-11T07:08:58Z</time>
      </trkpt>
      <trkpt lat="48.78907" lon="-3.33641">
        <ele>93.4</ele>
        <time>2019-07-11T07:08:59Z</time>
      </trkpt>
      <trkpt lat="48.78906" lon="-3.33636">
        <ele>93.5</ele>
        <time>2019-07-11T07:09:00Z</time>
      </trkpt>
      <trkpt lat="48.78905" lon="-3.33631">
        <ele>93.5</ele>
        <time>2019-07-11T07:09:01Z</time>
      </trkpt>
      <trkpt lat="48.78903" lon="-3.33626">
        <ele>93.8</ele>
        <time>2019-07-11T07:09:02Z</time>
      </trkpt>
      <trkpt lat="48.78902" lon="-3.33622">
        <ele>94.1</ele>
        <time>2019-07-11T07:09:03Z</time>
      </trkpt>
      <trkpt lat="48.78901" lon="-3.33618">
        <ele>94.6</ele>
        <time>2019-07-11T07:09:04Z</time>
      </trkpt>
      <trkpt lat="48.78899" lon="-3.33613">
        <ele>94.7</ele>
        <time>2019-07-11T07:09:05Z</time>
      </trkpt>
      <trkpt lat="48.78898" lon="-3.33609">
        <ele>94.9</ele>
        <time>2019-07-11T07:09:06Z</time>
      </trkpt>
      <trkpt lat="48.78896" lon="-3.33605">
        <ele>95.1</ele>
        <time>2019-07-11T07:09:07Z</time>
      </trkpt>
      <trkpt lat="48.78894" lon="-3.33601">
        <ele>95.5</ele>
        <time>2019-07-11T07:09:08Z</time>
      </trkpt>
      <trkpt lat="48.78893" lon="-3.33596">
        <ele>95.6</ele>
        <time>2019-07-11T07:09:09Z</time>
      </trkpt>
      <trkpt lat="48.78891" lon="-3.33592">
        <ele>95.4</ele>
        <time>2019-07-11T07:09:10Z</time>
      </trkpt>
      <trkpt lat="48.7889" lon="-3.33587">
        <ele>95.5</ele>
        <time>2019-07-11T07:09:11Z</time>
      </trkpt>
      <trkpt lat="48.78888" lon="-3.33583">
        <ele>95.3</ele>
        <time>2019-07-11T07:09:12Z</time>
      </trkpt>
      <trkpt lat="48.78886" lon="-3.33579">
        <ele>95.6</ele>
        <time>2019-07-11T07:09:13Z</time>
      </trkpt>
      <trkpt lat="48.78885" lon="-3.33574">
        <ele>95.6</ele>
        <time>2019-07-11T07:09:14Z</time>
      </trkpt>
      <trkpt lat="48.78883" lon="-3.3357">
        <ele>96</ele>
        <time>2019-07-11T07:09:15Z</time>
      </trkpt>
      <trkpt lat="48.78882" lon="-3.33565">
        <ele>96</ele>
        <time>2019-07-11T07:09:16Z</time>
      </trkpt>
      <trkpt lat="48.7888" lon="-3.33561">
        <ele>96.2</ele>
        <time>2019-07-11T07:09:17Z</time>
      </trkpt>
      <trkpt lat="48.78878" lon="-3.33557">
        <ele>96.5</ele>
        <time>2019-07-11T07:09:18Z</time>
      </trkpt>
      <trkpt lat="48.78877" lon="-3.33553">
        <ele>96.5</ele>
        <time>2019-07-11T07:09:19Z</time>
      </trkpt>
      <trkpt lat="48.78875" lon="-3.33548">
        <ele>96.4</ele>
        <time>2019-07-11T07:09:20Z</time>
      </trkpt>
      <trkpt lat="48.78874" lon="-3.33544">
        <ele>96.4</ele>
        <time>2019-07-11T07:09:21Z</time>
      </trkpt>
      <trkpt lat="48.78872" lon="-3.33539">
        <ele>96.2</ele>
        <time>2019-07-11T07:09:22Z</time>
      </trkpt>
      <trkpt lat="48.78871" lon="-3.33535">
        <ele>96.1</ele>
        <time>2019-07-11T07:09:23Z</time>
      </trkpt>
      <trkpt lat="48.78869" lon="-3.3353">
        <ele>96.1</ele>
        <time>2019-07-11T07:09:24Z</time>
      </trkpt>
      <trkpt lat="48.78869" lon="-3.33526">
        <ele>97.2</ele>
        <time>2019-07-11T07:09:25Z</time>
      </trkpt>
      <trkpt lat="48.78868" lon="-3.33522">
        <ele>98.4</ele>
        <time>2019-07-11T07:09:26Z</time>
      </trkpt>
      <trkpt lat="48.78866" lon="-3.33518">
        <ele>98.9</ele>
        <time>2019-07-11T07:09:27Z</time>
      </trkpt>
      <trkpt lat="48.78864" lon="-3.33513">
        <ele>99.2</ele>
        <time>2019-07-11T07:09:28Z</time>
      </trkpt>
      <trkpt lat="48.78862" lon="-3.33509">
        <ele>99.4</ele>
        <time>2019-07-11T07:09:29Z</time>
      </trkpt>
      <trkpt lat="48.78861" lon="-3.33504">
        <ele>99.6</ele>
        <time>2019-07-11T07:09:30Z</time>
      </trkpt>
      <trkpt lat="48.78859" lon="-3.335">
        <ele>99.6</ele>
        <time>2019-07-11T07:09:31Z</time>
      </trkpt>
      <trkpt lat="48.78857" lon="-3.33495">
        <ele>99.5</ele>
        <time>2019-07-11T07:09:32Z</time>
      </trkpt>
      <trkpt lat="48.78854" lon="-3.3349">
        <ele>99.5</ele>
        <time>2019-07-11T07:09:33Z</time>
      </trkpt>
      <trkpt lat="48.78852" lon="-3.33486">
        <ele>99.2</ele>
        <time>2019-07-11T07:09:34Z</time>
      </trkpt>
      <trkpt lat="48.7885" lon="-3.33481">
        <ele>99.5</ele>
        <time>2019-07-11T07:09:35Z</time>
      </trkpt>
      <trkpt lat="48.78848" lon="-3.33476">
        <ele>99.4</ele>
        <time>2019-07-11T07:09:36Z</time>
      </trkpt>
      <trkpt lat="48.78845" lon="-3.33471">
        <ele>99.5</ele>
        <time>2019-07-11T07:09:37Z</time>
      </trkpt>
      <trkpt lat="48.78843" lon="-3.33466">
        <ele>99.3</ele>
        <time>2019-07-11T07:09:38Z</time>
      </trkpt>
      <trkpt lat="48.7884" lon="-3.33461">
        <ele>99.2</ele>
        <time>2019-07-11T07:09:39Z</time>
      </trkpt>
      <trkpt lat="48.78838" lon="-3.33457">
        <ele>99</ele>
        <time>2019-07-11T07:09:40Z</time>
      </trkpt>
      <trkpt lat="48.78836" lon="-3.33452">
        <ele>99.1</ele>
        <time>2019-07-11T07:09:41Z</time>
      </trkpt>
      <trkpt lat="48.78833" lon="-3.33447">
        <ele>99.1</ele>
        <time>2019-07-11T07:09:42Z</time>
      </trkpt>
      <trkpt lat="48.78831" lon="-3.33443">
        <ele>99.6</ele>
        <time>2019-07-11T07:09:43Z</time>
      </trkpt>
      <trkpt lat="48.78829" lon="-3.33438">
        <ele>100</ele>
        <time>2019-07-11T07:09:44Z</time>
      </trkpt>
      <trkpt lat="48.78826" lon="-3.33433">
        <ele>100.1</ele>
        <time>2019-07-11T07:09:45Z</time>
      </trkpt>
      <trkpt lat="48.78824" lon="-3.33429">
        <ele>99.8</ele>
        <time>2019-07-11T07:09:46Z</time>
      </trkpt>
      <trkpt lat="48.7882" lon="-3.33424">
        <ele>99.4</ele>
        <time>2019-07-11T07:09:47Z</time>
      </trkpt>
      <trkpt lat="48.78818" lon="-3.33419">
        <ele>99.1</ele>
        <time>2019-07-11T07:09:48Z</time>
      </trkpt>
      <trkpt lat="48.78815" lon="-3.33414">
        <ele>99.2</ele>
        <time>2019-07-11T07:09:49Z</time>
      </trkpt>
      <trkpt lat="48.78812" lon="-3.33409">
        <ele>99</ele>
        <time>2019-07-11T07:09:50Z</time>
      </trkpt>
      <trkpt lat="48.78809" lon="-3.33404">
        <ele>99</ele>
        <time>2019-07-11T07:09:51Z</time>
      </trkpt>
      <trkpt lat="48.78807" lon="-3.33398">
        <ele>99.1</ele>
        <time>2019-07-11T07:09:52Z</time>
      </trkpt>
      <trkpt lat="48.78804" lon="-3.33393">
        <ele>99.4</ele>
        <time>2019-07-11T07:09:53Z</time>
      </trkpt>
      <trkpt lat="48.78802" lon="-3.33387">
        <ele>99.8</ele>
        <time>2019-07-11T07:09:54Z</time>
      </trkpt>
      <trkpt lat="48.788" lon="-3.33382">
        <ele>100.2</ele>
        <time>2019-07-11T07:09:55Z</time>
      </trkpt>
      <trkpt lat="48.78797" lon="-3.33378">
        <ele>100.3</ele>
        <time>2019-07-11T07:09:56Z</time>
      </trkpt>
      <trkpt lat="48.78795" lon="-3.33373">
        <ele>100.5</ele>
        <time>2019-07-11T07:09:57Z</time>
      </trkpt>
      <trkpt lat="48.78791" lon="-3.33368">
        <ele>100.1</ele>
        <time>2019-07-11T07:09:58Z</time>
      </trkpt>
      <trkpt lat="48.78788" lon="-3.33363">
        <ele>100.1</ele>
        <time>2019-07-11T07:09:59Z</time>
      </trkpt>
      <trkpt lat="48.78785" lon="-3.33358">
        <ele>99.2</ele>
        <time>2019-07-11T07:10:00Z</time>
      </trkpt>
      <trkpt lat="48.78782" lon="-3.33353">
        <ele>99</ele>
        <time>2019-07-11T07:10:01Z</time>
      </trkpt>
      <trkpt lat="48.78779" lon="-3.33348">
        <ele>98.7</ele>
        <time>2019-07-11T07:10:02Z</time>
      </trkpt>
      <trkpt lat="48.78777" lon="-3.33344">
        <ele>98.2</ele>
        <time>2019-07-11T07:10:03Z</time>
      </trkpt>
      <trkpt lat="48.78773" lon="-3.33339">
        <ele>97.7</ele>
        <time>2019-07-11T07:10:04Z</time>
      </trkpt>
      <trkpt lat="48.78769" lon="-3.33335">
        <ele>96.8</ele>
        <time>2019-07-11T07:10:05Z</time>
      </trkpt>
      <trkpt lat="48.78766" lon="-3.33331">
        <ele>96.1</ele>
        <time>2019-07-11T07:10:06Z</time>
      </trkpt>
      <trkpt lat="48.78763" lon="-3.33328">
        <ele>96</ele>
        <time>2019-07-11T07:10:07Z</time>
      </trkpt>
      <trkpt lat="48.78759" lon="-3.33324">
        <ele>95.6</ele>
        <time>2019-07-11T07:10:08Z</time>
      </trkpt>
      <trkpt lat="48.78757" lon="-3.33321">
        <ele>95.6</ele>
        <time>2019-07-11T07:10:09Z</time>
      </trkpt>
      <trkpt lat="48.78754" lon="-3.33317">
        <ele>95.7</ele>
        <time>2019-07-11T07:10:10Z</time>
      </trkpt>
      <trkpt lat="48.78752" lon="-3.33314">
        <ele>95.9</ele>
        <time>2019-07-11T07:10:11Z</time>
      </trkpt>
      <trkpt lat="48.78749" lon="-3.33311">
        <ele>96.1</ele>
        <time>2019-07-11T07:10:12Z</time>
      </trkpt>
      <trkpt lat="48.78746" lon="-3.33308">
        <ele>96.5</ele>
        <time>2019-07-11T07:10:13Z</time>
      </trkpt>
      <trkpt lat="48.78743" lon="-3.33305">
        <ele>97.4</ele>
        <time>2019-07-11T07:10:14Z</time>
      </trkpt>
      <trkpt lat="48.7874" lon="-3.33302">
        <ele>98.1</ele>
        <time>2019-07-11T07:10:15Z</time>
      </trkpt>
      <trkpt lat="48.78737" lon="-3.33298">
        <ele>99.5</ele>
        <time>2019-07-11T07:10:16Z</time>
      </trkpt>
      <trkpt lat="48.78733" lon="-3.33295">
        <ele>100.7</ele>
        <time>2019-07-11T07:10:17Z</time>
      </trkpt>
      <trkpt lat="48.7873" lon="-3.33292">
        <ele>101.5</ele>
        <time>2019-07-11T07:10:18Z</time>
      </trkpt>
      <trkpt lat="48.78727" lon="-3.33289">
        <ele>102.2</ele>
        <time>2019-07-11T07:10:19Z</time>
      </trkpt>
      <trkpt lat="48.78724" lon="-3.33287">
        <ele>103.3</ele>
        <time>2019-07-11T07:10:20Z</time>
      </trkpt>
      <trkpt lat="48.78722" lon="-3.33284">
        <ele>103.7</ele>
        <time>2019-07-11T07:10:21Z</time>
      </trkpt>
      <trkpt lat="48.78719" lon="-3.33282">
        <ele>103.7</ele>
        <time>2019-07-11T07:10:22Z</time>
      </trkpt>
      <trkpt lat="48.78715" lon="-3.3328">
        <ele>103.8</ele>
        <time>2019-07-11T07:10:23Z</time>
      </trkpt>
      <trkpt lat="48.78711" lon="-3.33277">
        <ele>104</ele>
        <time>2019-07-11T07:10:24Z</time>
      </trkpt>
      <trkpt lat="48.78708" lon="-3.33275">
        <ele>104</ele>
        <time>2019-07-11T07:10:25Z</time>
      </trkpt>
      <trkpt lat="48.78705" lon="-3.33273">
        <ele>104</ele>
        <time>2019-07-11T07:10:26Z</time>
      </trkpt>
      <trkpt lat="48.78701" lon="-3.33272">
        <ele>103.7</ele>
        <time>2019-07-11T07:10:27Z</time>
      </trkpt>
      <trkpt lat="48.78698" lon="-3.3327">
        <ele>103.4</ele>
        <time>2019-07-11T07:10:28Z</time>
      </trkpt>
      <trkpt lat="48.78695" lon="-3.33269">
        <ele>103.2</ele>
        <time>2019-07-11T07:10:29Z</time>
      </trkpt>
      <trkpt lat="48.78693" lon="-3.33268">
        <ele>103</ele>
        <time>2019-07-11T07:10:30Z</time>
      </trkpt>
      <trkpt lat="48.7869" lon="-3.33266">
        <ele>102.4</ele>
        <time>2019-07-11T07:10:31Z</time>
      </trkpt>
      <trkpt lat="48.78687" lon="-3.33264">
        <ele>102.2</ele>
        <time>2019-07-11T07:10:32Z</time>
      </trkpt>
      <trkpt lat="48.78684" lon="-3.33262">
        <ele>102.1</ele>
        <time>2019-07-11T07:10:33Z</time>
      </trkpt>
      <trkpt lat="48.78682" lon="-3.3326">
        <ele>102</ele>
        <time>2019-07-11T07:10:34Z</time>
      </trkpt>
      <trkpt lat="48.78679" lon="-3.33258">
        <ele>102</ele>
        <time>2019-07-11T07:10:35Z</time>
      </trkpt>
      <trkpt lat="48.78676" lon="-3.33256">
        <ele>101.8</ele>
        <time>2019-07-11T07:10:36Z</time>
      </trkpt>
      <trkpt lat="48.78672" lon="-3.33255">
        <ele>101</ele>
        <time>2019-07-11T07:10:37Z</time>
      </trkpt>
      <trkpt lat="48.78669" lon="-3.33256">
        <ele>100.6</ele>
        <time>2019-07-11T07:10:38Z</time>
      </trkpt>
      <trkpt lat="48.78666" lon="-3.33258">
        <ele>100.5</ele>
        <time>2019-07-11T07:10:39Z</time>
      </trkpt>
      <trkpt lat="48.78664" lon="-3.33262">
        <ele>100.8</ele>
        <time>2019-07-11T07:10:40Z</time>
      </trkpt>
      <trkpt lat="48.78663" lon="-3.33267">
        <ele>101.2</ele>
        <time>2019-07-11T07:10:41Z</time>
      </trkpt>
      <trkpt lat="48.78661" lon="-3.33273">
        <ele>101.3</ele>
        <time>2019-07-11T07:10:42Z</time>
      </trkpt>
      <trkpt lat="48.78659" lon="-3.33278">
        <ele>101.4</ele>
        <time>2019-07-11T07:10:43Z</time>
      </trkpt>
      <trkpt lat="48.78658" lon="-3.33283">
        <ele>101.1</ele>
        <time>2019-07-11T07:10:44Z</time>
      </trkpt>
      <trkpt lat="48.78656" lon="-3.33288">
        <ele>101.1</ele>
        <time>2019-07-11T07:10:45Z</time>
      </trkpt>
      <trkpt lat="48.78654" lon="-3.33293">
        <ele>100.4</ele>
        <time>2019-07-11T07:10:46Z</time>
      </trkpt>
      <trkpt lat="48.78652" lon="-3.33298">
        <ele>100.4</ele>
        <time>2019-07-11T07:10:47Z</time>
      </trkpt>
      <trkpt lat="48.7865" lon="-3.33302">
        <ele>100.6</ele>
        <time>2019-07-11T07:10:48Z</time>
      </trkpt>
      <trkpt lat="48.7865" lon="-3.33307">
        <ele>100.7</ele>
        <time>2019-07-11T07:10:49Z</time>
      </trkpt>
      <trkpt lat="48.78649" lon="-3.33312">
        <ele>101.9</ele>
        <time>2019-07-11T07:10:50Z</time>
      </trkpt>
      <trkpt lat="48.78649" lon="-3.33316">
        <ele>103.4</ele>
        <time>2019-07-11T07:10:51Z</time>
      </trkpt>
      <trkpt lat="48.7865" lon="-3.3332">
        <ele>104.4</ele>
        <time>2019-07-11T07:10:52Z</time>
      </trkpt>
      <trkpt lat="48.7865" lon="-3.33324">
        <ele>105.9</ele>
        <time>2019-07-11T07:10:53Z</time>
      </trkpt>
      <trkpt lat="48.7865" lon="-3.33328">
        <ele>106.9</ele>
        <time>2019-07-11T07:10:54Z</time>
      </trkpt>
      <trkpt lat="48.7865" lon="-3.33332">
        <ele>107.7</ele>
        <time>2019-07-11T07:10:55Z</time>
      </trkpt>
      <trkpt lat="48.7865" lon="-3.33337">
        <ele>108.6</ele>
        <time>2019-07-11T07:10:56Z</time>
      </trkpt>
      <trkpt lat="48.78651" lon="-3.33341">
        <ele>109.3</ele>
        <time>2019-07-11T07:10:57Z</time>
      </trkpt>
      <trkpt lat="48.78651" lon="-3.33347">
        <ele>109.8</ele>
        <time>2019-07-11T07:10:58Z</time>
      </trkpt>
      <trkpt lat="48.78652" lon="-3.33351">
        <ele>110</ele>
        <time>2019-07-11T07:10:59Z</time>
      </trkpt>
      <trkpt lat="48.78652" lon="-3.33355">
        <ele>110.5</ele>
        <time>2019-07-11T07:11:00Z</time>
      </trkpt>
      <trkpt lat="48.78652" lon="-3.3336">
        <ele>110.3</ele>
        <time>2019-07-11T07:11:01Z</time>
      </trkpt>
      <trkpt lat="48.78652" lon="-3.33365">
        <ele>109.7</ele>
        <time>2019-07-11T07:11:02Z</time>
      </trkpt>
      <trkpt lat="48.78652" lon="-3.3337">
        <ele>109.5</ele>
        <time>2019-07-11T07:11:03Z</time>
      </trkpt>
      <trkpt lat="48.78652" lon="-3.33375">
        <ele>108.8</ele>
        <time>2019-07-11T07:11:04Z</time>
      </trkpt>
      <trkpt lat="48.78652" lon="-3.3338">
        <ele>109.1</ele>
        <time>2019-07-11T07:11:05Z</time>
      </trkpt>
      <trkpt lat="48.78652" lon="-3.33386">
        <ele>109.7</ele>
        <time>2019-07-11T07:11:06Z</time>
      </trkpt>
      <trkpt lat="48.78652" lon="-3.33392">
        <ele>109.6</ele>
        <time>2019-07-11T07:11:07Z</time>
      </trkpt>
      <trkpt lat="48.78652" lon="-3.33399">
        <ele>109.8</ele>
        <time>2019-07-11T07:11:08Z</time>
      </trkpt>
      <trkpt lat="48.78652" lon="-3.33404">
        <ele>109.8</ele>
        <time>2019-07-11T07:11:09Z</time>
      </trkpt>
      <trkpt lat="48.78653" lon="-3.3341">
        <ele>109.5</ele>
        <time>2019-07-11T07:11:10Z</time>
      </trkpt>
      <trkpt lat="48.78653" lon="-3.33415">
        <ele>109.3</ele>
        <time>2019-07-11T07:11:11Z</time>
      </trkpt>
      <trkpt lat="48.78653" lon="-3.3342">
        <ele>109.2</ele>
        <time>2019-07-11T07:11:12Z</time>
      </trkpt>
      <trkpt lat="48.78653" lon="-3.33426">
        <ele>109</ele>
        <time>2019-07-11T07:11:13Z</time>
      </trkpt>
      <trkpt lat="48.78653" lon="-3.33431">
        <ele>108.6</ele>
        <time>2019-07-11T07:11:14Z</time>
      </trkpt>
      <trkpt lat="48.78653" lon="-3.33438">
        <ele>108.5</ele>
        <time>2019-07-11T07:11:15Z</time>
      </trkpt>
      <trkpt lat="48.78652" lon="-3.33444">
        <ele>108.5</ele>
        <time>2019-07-11T07:11:16Z</time>
      </trkpt>
      <trkpt lat="48.78652" lon="-3.33449">
        <ele>108.3</ele>
        <time>2019-07-11T07:11:17Z</time>
      </trkpt>
      <trkpt lat="48.78651" lon="-3.33455">
        <ele>108.1</ele>
        <time>2019-07-11T07:11:18Z</time>
      </trkpt>
      <trkpt lat="48.78651" lon="-3.3346">
        <ele>108.4</ele>
        <time>2019-07-11T07:11:19Z</time>
      </trkpt>
      <trkpt lat="48.78651" lon="-3.33465">
        <ele>108.2</ele>
        <time>2019-07-11T07:11:20Z</time>
      </trkpt>
      <trkpt lat="48.78651" lon="-3.3347">
        <ele>108.1</ele>
        <time>2019-07-11T07:11:21Z</time>
      </trkpt>
      <trkpt lat="48.7865" lon="-3.33475">
        <ele>108.1</ele>
        <time>2019-07-11T07:11:22Z</time>
      </trkpt>
      <trkpt lat="48.7865" lon="-3.3348">
        <ele>108</ele>
        <time>2019-07-11T07:11:23Z</time>
      </trkpt>
      <trkpt lat="48.7865" lon="-3.33485">
        <ele>108.1</ele>
        <time>2019-07-11T07:11:24Z</time>
      </trkpt>
      <trkpt lat="48.78649" lon="-3.3349">
        <ele>107.6</ele>
        <time>2019-07-11T07:11:25Z</time>
      </trkpt>
      <trkpt lat="48.78649" lon="-3.33495">
        <ele>107.1</ele>
        <time>2019-07-11T07:11:26Z</time>
      </trkpt>
      <trkpt lat="48.78648" lon="-3.335">
        <ele>107.4</ele>
        <time>2019-07-11T07:11:27Z</time>
      </trkpt>
      <trkpt lat="48.78648" lon="-3.33506">
        <ele>107.5</ele>
        <time>2019-07-11T07:11:28Z</time>
      </trkpt>
      <trkpt lat="48.78647" lon="-3.33511">
        <ele>107.1</ele>
        <time>2019-07-11T07:11:29Z</time>
      </trkpt>
      <trkpt lat="48.78647" lon="-3.33517">
        <ele>106.7</ele>
        <time>2019-07-11T07:11:30Z</time>
      </trkpt>
      <trkpt lat="48.78646" lon="-3.33522">
        <ele>106.7</ele>
        <time>2019-07-11T07:11:31Z</time>
      </trkpt>
      <trkpt lat="48.78646" lon="-3.33528">
        <ele>106.9</ele>
        <time>2019-07-11T07:11:32Z</time>
      </trkpt>
      <trkpt lat="48.78646" lon="-3.33533">
        <ele>107.4</ele>
        <time>2019-07-11T07:11:33Z</time>
      </trkpt>
      <trkpt lat="48.78645" lon="-3.33538">
        <ele>107.5</ele>
        <time>2019-07-11T07:11:34Z</time>
      </trkpt>
      <trkpt lat="48.78645" lon="-3.33544">
        <ele>107.9</ele>
        <time>2019-07-11T07:11:35Z</time>
      </trkpt>
      <trkpt lat="48.78645" lon="-3.33549">
        <ele>107.2</ele>
        <time>2019-07-11T07:11:36Z</time>
      </trkpt>
      <trkpt lat="48.78645" lon="-3.33555">
        <ele>107</ele>
        <time>2019-07-11T07:11:37Z</time>
      </trkpt>
      <trkpt lat="48.78645" lon="-3.3356">
        <ele>107.3</ele>
        <time>2019-07-11T07:11:38Z</time>
      </trkpt>
      <trkpt lat="48.78645" lon="-3.33565">
        <ele>107.9</ele>
        <time>2019-07-11T07:11:39Z</time>
      </trkpt>
      <trkpt lat="48.78646" lon="-3.33571">
        <ele>107.8</ele>
        <time>2019-07-11T07:11:40Z</time>
      </trkpt>
      <trkpt lat="48.78647" lon="-3.33576">
        <ele>106.8</ele>
        <time>2019-07-11T07:11:41Z</time>
      </trkpt>
      <trkpt lat="48.78647" lon="-3.33582">
        <ele>107.1</ele>
        <time>2019-07-11T07:11:42Z</time>
      </trkpt>
      <trkpt lat="48.78648" lon="-3.33587">
        <ele>107.3</ele>
        <time>2019-07-11T07:11:43Z</time>
      </trkpt>
      <trkpt lat="48.78649" lon="-3.33592">
        <ele>107.7</ele>
        <time>2019-07-11T07:11:44Z</time>
      </trkpt>
      <trkpt lat="48.78648" lon="-3.33598">
        <ele>108.2</ele>
        <time>2019-07-11T07:11:45Z</time>
      </trkpt>
      <trkpt lat="48.78648" lon="-3.33605">
        <ele>108.5</ele>
        <time>2019-07-11T07:11:46Z</time>
      </trkpt>
      <trkpt lat="48.78649" lon="-3.3361">
        <ele>109</ele>
        <time>2019-07-11T07:11:47Z</time>
      </trkpt>
      <trkpt lat="48.78649" lon="-3.33615">
        <ele>109.1</ele>
        <time>2019-07-11T07:11:48Z</time>
      </trkpt>
      <trkpt lat="48.7865" lon="-3.3362">
        <ele>108.6</ele>
        <time>2019-07-11T07:11:49Z</time>
      </trkpt>
      <trkpt lat="48.7865" lon="-3.33625">
        <ele>108.4</ele>
        <time>2019-07-11T07:11:50Z</time>
      </trkpt>
      <trkpt lat="48.7865" lon="-3.3363">
        <ele>108</ele>
        <time>2019-07-11T07:11:51Z</time>
      </trkpt>
      <trkpt lat="48.7865" lon="-3.33635">
        <ele>108</ele>
        <time>2019-07-11T07:11:52Z</time>
      </trkpt>
      <trkpt lat="48.7865" lon="-3.33641">
        <ele>108.4</ele>
        <time>2019-07-11T07:11:53Z</time>
      </trkpt>
      <trkpt lat="48.78651" lon="-3.33646">
        <ele>109.2</ele>
        <time>2019-07-11T07:11:54Z</time>
      </trkpt>
      <trkpt lat="48.78652" lon="-3.33652">
        <ele>109.7</ele>
        <time>2019-07-11T07:11:55Z</time>
      </trkpt>
      <trkpt lat="48.78653" lon="-3.33658">
        <ele>110</ele>
        <time>2019-07-11T07:11:56Z</time>
      </trkpt>
      <trkpt lat="48.78653" lon="-3.33664">
        <ele>110.2</ele>
        <time>2019-07-11T07:11:57Z</time>
      </trkpt>
      <trkpt lat="48.78653" lon="-3.3367">
        <ele>110.2</ele>
        <time>2019-07-11T07:11:58Z</time>
      </trkpt>
      <trkpt lat="48.78653" lon="-3.33676">
        <ele>110.3</ele>
        <time>2019-07-11T07:11:59Z</time>
      </trkpt>
      <trkpt lat="48.78653" lon="-3.33681">
        <ele>110.4</ele>
        <time>2019-07-11T07:12:00Z</time>
      </trkpt>
      <trkpt lat="48.78654" lon="-3.33686">
        <ele>109.8</ele>
        <time>2019-07-11T07:12:01Z</time>
      </trkpt>
      <trkpt lat="48.78655" lon="-3.33691">
        <ele>109.4</ele>
        <time>2019-07-11T07:12:02Z</time>
      </trkpt>
      <trkpt lat="48.78655" lon="-3.33697">
        <ele>109.1</ele>
        <time>2019-07-11T07:12:03Z</time>
      </trkpt>
      <trkpt lat="48.78655" lon="-3.33704">
        <ele>108.6</ele>
        <time>2019-07-11T07:12:04Z</time>
      </trkpt>
      <trkpt lat="48.78655" lon="-3.33709">
        <ele>108.8</ele>
        <time>2019-07-11T07:12:05Z</time>
      </trkpt>
      <trkpt lat="48.78655" lon="-3.33715">
        <ele>109</ele>
        <time>2019-07-11T07:12:06Z</time>
      </trkpt>
      <trkpt lat="48.78655" lon="-3.33721">
        <ele>109.1</ele>
        <time>2019-07-11T07:12:07Z</time>
      </trkpt>
      <trkpt lat="48.78655" lon="-3.33727">
        <ele>109.1</ele>
        <time>2019-07-11T07:12:08Z</time>
      </trkpt>
      <trkpt lat="48.78655" lon="-3.33733">
        <ele>109.3</ele>
        <time>2019-07-11T07:12:09Z</time>
      </trkpt>
      <trkpt lat="48.78655" lon="-3.33739">
        <ele>109.2</ele>
        <time>2019-07-11T07:12:10Z</time>
      </trkpt>
      <trkpt lat="48.78655" lon="-3.33745">
        <ele>109.5</ele>
        <time>2019-07-11T07:12:11Z</time>
      </trkpt>
      <trkpt lat="48.78655" lon="-3.3375">
        <ele>109.3</ele>
        <time>2019-07-11T07:12:12Z</time>
      </trkpt>
      <trkpt lat="48.78655" lon="-3.33756">
        <ele>109.3</ele>
        <time>2019-07-11T07:12:13Z</time>
      </trkpt>
      <trkpt lat="48.78655" lon="-3.33762">
        <ele>109.7</ele>
        <time>2019-07-11T07:12:14Z</time>
      </trkpt>
      <trkpt lat="48.78655" lon="-3.33768">
        <ele>109.9</ele>
        <time>2019-07-11T07:12:15Z</time>
      </trkpt>
      <trkpt lat="48.78655" lon="-3.33774">
        <ele>110</ele>
        <time>2019-07-11T07:12:16Z</time>
      </trkpt>
      <trkpt lat="48.78655" lon="-3.33779">
        <ele>110.1</ele>
        <time>2019-07-11T07:12:17Z</time>
      </trkpt>
      <trkpt lat="48.78656" lon="-3.33785">
        <ele>109.9</ele>
        <time>2019-07-11T07:12:18Z</time>
      </trkpt>
      <trkpt lat="48.78656" lon="-3.33792">
        <ele>109.8</ele>
        <time>2019-07-11T07:12:19Z</time>
      </trkpt>
      <trkpt lat="48.78656" lon="-3.33798">
        <ele>109.5</ele>
        <time>2019-07-11T07:12:20Z</time>
      </trkpt>
      <trkpt lat="48.78656" lon="-3.33803">
        <ele>109.5</ele>
        <time>2019-07-11T07:12:21Z</time>
      </trkpt>
      <trkpt lat="48.78656" lon="-3.33809">
        <ele>109.7</ele>
        <time>2019-07-11T07:12:22Z</time>
      </trkpt>
      <trkpt lat="48.78656" lon="-3.33815">
        <ele>110</ele>
        <time>2019-07-11T07:12:23Z</time>
      </trkpt>
      <trkpt lat="48.78656" lon="-3.33821">
        <ele>110</ele>
        <time>2019-07-11T07:12:24Z</time>
      </trkpt>
      <trkpt lat="48.78656" lon="-3.33827">
        <ele>109.9</ele>
        <time>2019-07-11T07:12:25Z</time>
      </trkpt>
      <trkpt lat="48.78656" lon="-3.33833">
        <ele>109.5</ele>
        <time>2019-07-11T07:12:26Z</time>
      </trkpt>
      <trkpt lat="48.78656" lon="-3.33839">
        <ele>109.2</ele>
        <time>2019-07-11T07:12:27Z</time>
      </trkpt>
      <trkpt lat="48.78656" lon="-3.33845">
        <ele>109.1</ele>
        <time>2019-07-11T07:12:28Z</time>
      </trkpt>
      <trkpt lat="48.78655" lon="-3.3385">
        <ele>109</ele>
        <time>2019-07-11T07:12:29Z</time>
      </trkpt>
      <trkpt lat="48.78655" lon="-3.33856">
        <ele>109.1</ele>
        <time>2019-07-11T07:12:30Z</time>
      </trkpt>
      <trkpt lat="48.78654" lon="-3.33862">
        <ele>109.2</ele>
        <time>2019-07-11T07:12:31Z</time>
      </trkpt>
      <trkpt lat="48.78653" lon="-3.33868">
        <ele>109.5</ele>
        <time>2019-07-11T07:12:32Z</time>
      </trkpt>
      <trkpt lat="48.78653" lon="-3.33874">
        <ele>109.3</ele>
        <time>2019-07-11T07:12:33Z</time>
      </trkpt>
      <trkpt lat="48.78652" lon="-3.3388">
        <ele>109.1</ele>
        <time>2019-07-11T07:12:34Z</time>
      </trkpt>
      <trkpt lat="48.78651" lon="-3.33886">
        <ele>108.6</ele>
        <time>2019-07-11T07:12:35Z</time>
      </trkpt>
      <trkpt lat="48.7865" lon="-3.33893">
        <ele>108.5</ele>
        <time>2019-07-11T07:12:36Z</time>
      </trkpt>
      <trkpt lat="48.7865" lon="-3.33899">
        <ele>108.5</ele>
        <time>2019-07-11T07:12:37Z</time>
      </trkpt>
      <trkpt lat="48.78649" lon="-3.33905">
        <ele>108.8</ele>
        <time>2019-07-11T07:12:38Z</time>
      </trkpt>
      <trkpt lat="48.78648" lon="-3.33911">
        <ele>108.8</ele>
        <time>2019-07-11T07:12:39Z</time>
      </trkpt>
      <trkpt lat="48.78648" lon="-3.33918">
        <ele>109.1</ele>
        <time>2019-07-11T07:12:40Z</time>
      </trkpt>
      <trkpt lat="48.78647" lon="-3.33924">
        <ele>108.4</ele>
        <time>2019-07-11T07:12:41Z</time>
      </trkpt>
      <trkpt lat="48.78647" lon="-3.3393">
        <ele>108.1</ele>
        <time>2019-07-11T07:12:42Z</time>
      </trkpt>
      <trkpt lat="48.78647" lon="-3.33936">
        <ele>107.8</ele>
        <time>2019-07-11T07:12:43Z</time>
      </trkpt>
      <trkpt lat="48.78647" lon="-3.33943">
        <ele>107.7</ele>
        <time>2019-07-11T07:12:44Z</time>
      </trkpt>
      <trkpt lat="48.78646" lon="-3.33949">
        <ele>107.8</ele>
        <time>2019-07-11T07:12:45Z</time>
      </trkpt>
      <trkpt lat="48.78646" lon="-3.33956">
        <ele>107.8</ele>
        <time>2019-07-11T07:12:46Z</time>
      </trkpt>
      <trkpt lat="48.78647" lon="-3.33962">
        <ele>107.7</ele>
        <time>2019-07-11T07:12:47Z</time>
      </trkpt>
      <trkpt lat="48.78647" lon="-3.33968">
        <ele>107.6</ele>
        <time>2019-07-11T07:12:48Z</time>
      </trkpt>
      <trkpt lat="48.78647" lon="-3.33975">
        <ele>107.6</ele>
        <time>2019-07-11T07:12:49Z</time>
      </trkpt>
      <trkpt lat="48.78648" lon="-3.33981">
        <ele>107.6</ele>
        <time>2019-07-11T07:12:50Z</time>
      </trkpt>
      <trkpt lat="48.78648" lon="-3.33987">
        <ele>107.6</ele>
        <time>2019-07-11T07:12:51Z</time>
      </trkpt>
      <trkpt lat="48.78648" lon="-3.33993">
        <ele>106.9</ele>
        <time>2019-07-11T07:12:52Z</time>
      </trkpt>
      <trkpt lat="48.78648" lon="-3.33999">
        <ele>106.6</ele>
        <time>2019-07-11T07:12:53Z</time>
      </trkpt>
      <trkpt lat="48.78648" lon="-3.34005">
        <ele>105.9</ele>
        <time>2019-07-11T07:12:54Z</time>
      </trkpt>
      <trkpt lat="48.78648" lon="-3.34011">
        <ele>105.2</ele>
        <time>2019-07-11T07:12:55Z</time>
      </trkpt>
      <trkpt lat="48.78649" lon="-3.34017">
        <ele>104.9</ele>
        <time>2019-07-11T07:12:56Z</time>
      </trkpt>
      <trkpt lat="48.78649" lon="-3.34023">
        <ele>104.8</ele>
        <time>2019-07-11T07:12:57Z</time>
      </trkpt>
      <trkpt lat="48.78649" lon="-3.34028">
        <ele>105.1</ele>
        <time>2019-07-11T07:12:58Z</time>
      </trkpt>
      <trkpt lat="48.7865" lon="-3.34034">
        <ele>105.3</ele>
        <time>2019-07-11T07:12:59Z</time>
      </trkpt>
      <trkpt lat="48.7865" lon="-3.3404">
        <ele>105.2</ele>
        <time>2019-07-11T07:13:00Z</time>
      </trkpt>
      <trkpt lat="48.7865" lon="-3.34047">
        <ele>105.2</ele>
        <time>2019-07-11T07:13:01Z</time>
      </trkpt>
      <trkpt lat="48.78651" lon="-3.34053">
        <ele>105.4</ele>
        <time>2019-07-11T07:13:02Z</time>
      </trkpt>
      <trkpt lat="48.78651" lon="-3.34059">
        <ele>105.3</ele>
        <time>2019-07-11T07:13:03Z</time>
      </trkpt>
      <trkpt lat="48.78651" lon="-3.34066">
        <ele>105.5</ele>
        <time>2019-07-11T07:13:04Z</time>
      </trkpt>
      <trkpt lat="48.78652" lon="-3.34073">
        <ele>105.5</ele>
        <time>2019-07-11T07:13:05Z</time>
      </trkpt>
      <trkpt lat="48.78652" lon="-3.34079">
        <ele>105.6</ele>
        <time>2019-07-11T07:13:06Z</time>
      </trkpt>
      <trkpt lat="48.78652" lon="-3.34086">
        <ele>105.7</ele>
        <time>2019-07-11T07:13:07Z</time>
      </trkpt>
      <trkpt lat="48.78652" lon="-3.34093">
        <ele>105.5</ele>
        <time>2019-07-11T07:13:08Z</time>
      </trkpt>
      <trkpt lat="48.78652" lon="-3.34099">
        <ele>105.4</ele>
        <time>2019-07-11T07:13:09Z</time>
      </trkpt>
      <trkpt lat="48.78652" lon="-3.34105">
        <ele>105.7</ele>
        <time>2019-07-11T07:13:10Z</time>
      </trkpt>
      <trkpt lat="48.78652" lon="-3.34111">
        <ele>105.6</ele>
        <time>2019-07-11T07:13:11Z</time>
      </trkpt>
      <trkpt lat="48.78652" lon="-3.34118">
        <ele>105.6</ele>
        <time>2019-07-11T07:13:12Z</time>
      </trkpt>
      <trkpt lat="48.78651" lon="-3.34124">
        <ele>105.5</ele>
        <time>2019-07-11T07:13:13Z</time>
      </trkpt>
      <trkpt lat="48.78651" lon="-3.3413">
        <ele>105.4</ele>
        <time>2019-07-11T07:13:14Z</time>
      </trkpt>
      <trkpt lat="48.7865" lon="-3.34136">
        <ele>105.5</ele>
        <time>2019-07-11T07:13:15Z</time>
      </trkpt>
      <trkpt lat="48.7865" lon="-3.34143">
        <ele>105.7</ele>
        <time>2019-07-11T07:13:16Z</time>
      </trkpt>
      <trkpt lat="48.78649" lon="-3.34149">
        <ele>106</ele>
        <time>2019-07-11T07:13:17Z</time>
      </trkpt>
      <trkpt lat="48.78648" lon="-3.34156">
        <ele>105.8</ele>
        <time>2019-07-11T07:13:18Z</time>
      </trkpt>
      <trkpt lat="48.78648" lon="-3.34162">
        <ele>106.1</ele>
        <time>2019-07-11T07:13:19Z</time>
      </trkpt>
      <trkpt lat="48.78647" lon="-3.34168">
        <ele>106.1</ele>
        <time>2019-07-11T07:13:20Z</time>
      </trkpt>
      <trkpt lat="48.78647" lon="-3.34175">
        <ele>106.4</ele>
        <time>2019-07-11T07:13:21Z</time>
      </trkpt>
      <trkpt lat="48.78646" lon="-3.34181">
        <ele>106.7</ele>
        <time>2019-07-11T07:13:22Z</time>
      </trkpt>
      <trkpt lat="48.78645" lon="-3.34187">
        <ele>107.2</ele>
        <time>2019-07-11T07:13:23Z</time>
      </trkpt>
      <trkpt lat="48.78645" lon="-3.34193">
        <ele>107.3</ele>
        <time>2019-07-11T07:13:24Z</time>
      </trkpt>
      <trkpt lat="48.78644" lon="-3.34199">
        <ele>107.5</ele>
        <time>2019-07-11T07:13:25Z</time>
      </trkpt>
      <trkpt lat="48.78643" lon="-3.34206">
        <ele>107.6</ele>
        <time>2019-07-11T07:13:26Z</time>
      </trkpt>
      <trkpt lat="48.78643" lon="-3.34212">
        <ele>107.9</ele>
        <time>2019-07-11T07:13:27Z</time>
      </trkpt>
      <trkpt lat="48.78642" lon="-3.34218">
        <ele>107.8</ele>
        <time>2019-07-11T07:13:28Z</time>
      </trkpt>
      <trkpt lat="48.78642" lon="-3.34224">
        <ele>107.8</ele>
        <time>2019-07-11T07:13:29Z</time>
      </trkpt>
      <trkpt lat="48.78642" lon="-3.34231">
        <ele>107.9</ele>
        <time>2019-07-11T07:13:30Z</time>
      </trkpt>
      <trkpt lat="48.78642" lon="-3.34238">
        <ele>107.6</ele>
        <time>2019-07-11T07:13:31Z</time>
      </trkpt>
      <trkpt lat="48.78642" lon="-3.34244">
        <ele>107.2</ele>
        <time>2019-07-11T07:13:32Z</time>
      </trkpt>
      <trkpt lat="48.78642" lon="-3.3425">
        <ele>106.9</ele>
        <time>2019-07-11T07:13:33Z</time>
      </trkpt>
      <trkpt lat="48.78642" lon="-3.34257">
        <ele>106.8</ele>
        <time>2019-07-11T07:13:34Z</time>
      </trkpt>
      <trkpt lat="48.78642" lon="-3.34263">
        <ele>106.9</ele>
        <time>2019-07-11T07:13:35Z</time>
      </trkpt>
      <trkpt lat="48.78642" lon="-3.3427">
        <ele>106.5</ele>
        <time>2019-07-11T07:13:36Z</time>
      </trkpt>
      <trkpt lat="48.78641" lon="-3.34277">
        <ele>106.2</ele>
        <time>2019-07-11T07:13:37Z</time>
      </trkpt>
      <trkpt lat="48.78641" lon="-3.34284">
        <ele>105.8</ele>
        <time>2019-07-11T07:13:38Z</time>
      </trkpt>
      <trkpt lat="48.78641" lon="-3.3429">
        <ele>105.5</ele>
        <time>2019-07-11T07:13:39Z</time>
      </trkpt>
      <trkpt lat="48.78641" lon="-3.34297">
        <ele>105.3</ele>
        <time>2019-07-11T07:13:40Z</time>
      </trkpt>
      <trkpt lat="48.7864" lon="-3.34303">
        <ele>105.1</ele>
        <time>2019-07-11T07:13:41Z</time>
      </trkpt>
      <trkpt lat="48.7864" lon="-3.34309">
        <ele>105.1</ele>
        <time>2019-07-11T07:13:42Z</time>
      </trkpt>
      <trkpt lat="48.7864" lon="-3.34316">
        <ele>104.8</ele>
        <time>2019-07-11T07:13:43Z</time>
      </trkpt>
      <trkpt lat="48.78639" lon="-3.34321">
        <ele>104.5</ele>
        <time>2019-07-11T07:13:44Z</time>
      </trkpt>
      <trkpt lat="48.78639" lon="-3.34328">
        <ele>104.3</ele>
        <time>2019-07-11T07:13:45Z</time>
      </trkpt>
      <trkpt lat="48.78638" lon="-3.34333">
        <ele>104.2</ele>
        <time>2019-07-11T07:13:46Z</time>
      </trkpt>
      <trkpt lat="48.78637" lon="-3.34339">
        <ele>103.7</ele>
        <time>2019-07-11T07:13:47Z</time>
      </trkpt>
      <trkpt lat="48.78637" lon="-3.34346">
        <ele>103.9</ele>
        <time>2019-07-11T07:13:48Z</time>
      </trkpt>
      <trkpt lat="48.78636" lon="-3.34352">
        <ele>104.3</ele>
        <time>2019-07-11T07:13:49Z</time>
      </trkpt>
      <trkpt lat="48.78636" lon="-3.34358">
        <ele>104.5</ele>
        <time>2019-07-11T07:13:50Z</time>
      </trkpt>
      <trkpt lat="48.78635" lon="-3.34364">
        <ele>104.4</ele>
        <time>2019-07-11T07:13:51Z</time>
      </trkpt>
      <trkpt lat="48.78635" lon="-3.3437">
        <ele>104.5</ele>
        <time>2019-07-11T07:13:52Z</time>
      </trkpt>
      <trkpt lat="48.78635" lon="-3.34376">
        <ele>104.8</ele>
        <time>2019-07-11T07:13:53Z</time>
      </trkpt>
      <trkpt lat="48.78635" lon="-3.34381">
        <ele>104.9</ele>
        <time>2019-07-11T07:13:54Z</time>
      </trkpt>
      <trkpt lat="48.78636" lon="-3.34386">
        <ele>104.7</ele>
        <time>2019-07-11T07:13:55Z</time>
      </trkpt>
      <trkpt lat="48.78636" lon="-3.34391">
        <ele>104.6</ele>
        <time>2019-07-11T07:13:56Z</time>
      </trkpt>
      <trkpt lat="48.78636" lon="-3.34397">
        <ele>105</ele>
        <time>2019-07-11T07:13:57Z</time>
      </trkpt>
      <trkpt lat="48.78637" lon="-3.34402">
        <ele>105.4</ele>
        <time>2019-07-11T07:13:58Z</time>
      </trkpt>
      <trkpt lat="48.78637" lon="-3.34407">
        <ele>105.6</ele>
        <time>2019-07-11T07:13:59Z</time>
      </trkpt>
      <trkpt lat="48.78637" lon="-3.34412">
        <ele>105.4</ele>
        <time>2019-07-11T07:14:00Z</time>
      </trkpt>
      <trkpt lat="48.78637" lon="-3.34417">
        <ele>105.2</ele>
        <time>2019-07-11T07:14:01Z</time>
      </trkpt>
      <trkpt lat="48.78637" lon="-3.34422">
        <ele>104.8</ele>
        <time>2019-07-11T07:14:02Z</time>
      </trkpt>
      <trkpt lat="48.78638" lon="-3.34426">
        <ele>104.5</ele>
        <time>2019-07-11T07:14:03Z</time>
      </trkpt>
      <trkpt lat="48.78639" lon="-3.34431">
        <ele>104.2</ele>
        <time>2019-07-11T07:14:04Z</time>
      </trkpt>
      <trkpt lat="48.78639" lon="-3.34436">
        <ele>104</ele>
        <time>2019-07-11T07:14:05Z</time>
      </trkpt>
      <trkpt lat="48.78639" lon="-3.34441">
        <ele>104.1</ele>
        <time>2019-07-11T07:14:06Z</time>
      </trkpt>
      <trkpt lat="48.7864" lon="-3.34446">
        <ele>104.1</ele>
        <time>2019-07-11T07:14:07Z</time>
      </trkpt>
      <trkpt lat="48.7864" lon="-3.34451">
        <ele>104.4</ele>
        <time>2019-07-11T07:14:08Z</time>
      </trkpt>
      <trkpt lat="48.7864" lon="-3.34456">
        <ele>105</ele>
        <time>2019-07-11T07:14:09Z</time>
      </trkpt>
      <trkpt lat="48.7864" lon="-3.3446">
        <ele>105.4</ele>
        <time>2019-07-11T07:14:10Z</time>
      </trkpt>
      <trkpt lat="48.7864" lon="-3.34465">
        <ele>106.1</ele>
        <time>2019-07-11T07:14:11Z</time>
      </trkpt>
      <trkpt lat="48.7864" lon="-3.3447">
        <ele>107.1</ele>
        <time>2019-07-11T07:14:12Z</time>
      </trkpt>
      <trkpt lat="48.7864" lon="-3.34475">
        <ele>107.5</ele>
        <time>2019-07-11T07:14:13Z</time>
      </trkpt>
      <trkpt lat="48.7864" lon="-3.34481">
        <ele>107.6</ele>
        <time>2019-07-11T07:14:14Z</time>
      </trkpt>
      <trkpt lat="48.7864" lon="-3.34486">
        <ele>107</ele>
        <time>2019-07-11T07:14:15Z</time>
      </trkpt>
      <trkpt lat="48.78639" lon="-3.34492">
        <ele>106.7</ele>
        <time>2019-07-11T07:14:16Z</time>
      </trkpt>
      <trkpt lat="48.7864" lon="-3.34497">
        <ele>106.6</ele>
        <time>2019-07-11T07:14:17Z</time>
      </trkpt>
      <trkpt lat="48.7864" lon="-3.34503">
        <ele>106.8</ele>
        <time>2019-07-11T07:14:18Z</time>
      </trkpt>
      <trkpt lat="48.7864" lon="-3.34509">
        <ele>107</ele>
        <time>2019-07-11T07:14:19Z</time>
      </trkpt>
      <trkpt lat="48.7864" lon="-3.34515">
        <ele>107</ele>
        <time>2019-07-11T07:14:20Z</time>
      </trkpt>
      <trkpt lat="48.78639" lon="-3.3452">
        <ele>107.1</ele>
        <time>2019-07-11T07:14:21Z</time>
      </trkpt>
      <trkpt lat="48.78639" lon="-3.34526">
        <ele>107.3</ele>
        <time>2019-07-11T07:14:22Z</time>
      </trkpt>
      <trkpt lat="48.78639" lon="-3.34532">
        <ele>107.3</ele>
        <time>2019-07-11T07:14:23Z</time>
      </trkpt>
      <trkpt lat="48.78639" lon="-3.34538">
        <ele>107.2</ele>
        <time>2019-07-11T07:14:24Z</time>
      </trkpt>
      <trkpt lat="48.78639" lon="-3.34544">
        <ele>107.5</ele>
        <time>2019-07-11T07:14:25Z</time>
      </trkpt>
      <trkpt lat="48.78639" lon="-3.34551">
        <ele>107.3</ele>
        <time>2019-07-11T07:14:26Z</time>
      </trkpt>
      <trkpt lat="48.78639" lon="-3.34558">
        <ele>107.4</ele>
        <time>2019-07-11T07:14:27Z</time>
      </trkpt>
      <trkpt lat="48.78639" lon="-3.34564">
        <ele>107.6</ele>
        <time>2019-07-11T07:14:28Z</time>
      </trkpt>
      <trkpt lat="48.78639" lon="-3.34571">
        <ele>107.4</ele>
        <time>2019-07-11T07:14:29Z</time>
      </trkpt>
      <trkpt lat="48.78639" lon="-3.34578">
        <ele>107.4</ele>
        <time>2019-07-11T07:14:30Z</time>
      </trkpt>
      <trkpt lat="48.78639" lon="-3.34585">
        <ele>107.4</ele>
        <time>2019-07-11T07:14:31Z</time>
      </trkpt>
      <trkpt lat="48.78638" lon="-3.34593">
        <ele>107.3</ele>
        <time>2019-07-11T07:14:32Z</time>
      </trkpt>
      <trkpt lat="48.78637" lon="-3.34601">
        <ele>107.5</ele>
        <time>2019-07-11T07:14:33Z</time>
      </trkpt>
      <trkpt lat="48.78636" lon="-3.34609">
        <ele>107.3</ele>
        <time>2019-07-11T07:14:34Z</time>
      </trkpt>
      <trkpt lat="48.78635" lon="-3.34618">
        <ele>106.4</ele>
        <time>2019-07-11T07:14:35Z</time>
      </trkpt>
      <trkpt lat="48.78633" lon="-3.34627">
        <ele>105.6</ele>
        <time>2019-07-11T07:14:36Z</time>
      </trkpt>
      <trkpt lat="48.78631" lon="-3.34636">
        <ele>105</ele>
        <time>2019-07-11T07:14:37Z</time>
      </trkpt>
      <trkpt lat="48.78629" lon="-3.34645">
        <ele>104.4</ele>
        <time>2019-07-11T07:14:38Z</time>
      </trkpt>
      <trkpt lat="48.78627" lon="-3.34654">
        <ele>103.7</ele>
        <time>2019-07-11T07:14:39Z</time>
      </trkpt>
      <trkpt lat="48.78626" lon="-3.34664">
        <ele>103.3</ele>
        <time>2019-07-11T07:14:40Z</time>
      </trkpt>
      <trkpt lat="48.78623" lon="-3.34673">
        <ele>102.6</ele>
        <time>2019-07-11T07:14:41Z</time>
      </trkpt>
      <trkpt lat="48.7862" lon="-3.34682">
        <ele>101.9</ele>
        <time>2019-07-11T07:14:42Z</time>
      </trkpt>
      <trkpt lat="48.78617" lon="-3.34691">
        <ele>101.5</ele>
        <time>2019-07-11T07:14:43Z</time>
      </trkpt>
      <trkpt lat="48.78614" lon="-3.34701">
        <ele>101</ele>
        <time>2019-07-11T07:14:44Z</time>
      </trkpt>
      <trkpt lat="48.78611" lon="-3.3471">
        <ele>100.8</ele>
        <time>2019-07-11T07:14:45Z</time>
      </trkpt>
      <trkpt lat="48.78608" lon="-3.34719">
        <ele>100.9</ele>
        <time>2019-07-11T07:14:46Z</time>
      </trkpt>
      <trkpt lat="48.78606" lon="-3.34729">
        <ele>101.1</ele>
        <time>2019-07-11T07:14:47Z</time>
      </trkpt>
      <trkpt lat="48.78604" lon="-3.34738">
        <ele>101</ele>
        <time>2019-07-11T07:14:48Z</time>
      </trkpt>
      <trkpt lat="48.78602" lon="-3.34748">
        <ele>101</ele>
        <time>2019-07-11T07:14:49Z</time>
      </trkpt>
      <trkpt lat="48.786" lon="-3.34757">
        <ele>100.5</ele>
        <time>2019-07-11T07:14:50Z</time>
      </trkpt>
      <trkpt lat="48.78598" lon="-3.34765">
        <ele>99.7</ele>
        <time>2019-07-11T07:14:51Z</time>
      </trkpt>
      <trkpt lat="48.78597" lon="-3.34774">
        <ele>99.5</ele>
        <time>2019-07-11T07:14:52Z</time>
      </trkpt>
      <trkpt lat="48.78594" lon="-3.34783">
        <ele>99.1</ele>
        <time>2019-07-11T07:14:53Z</time>
      </trkpt>
      <trkpt lat="48.78592" lon="-3.34792">
        <ele>97.9</ele>
        <time>2019-07-11T07:14:54Z</time>
      </trkpt>
      <trkpt lat="48.7859" lon="-3.348">
        <ele>97.6</ele>
        <time>2019-07-11T07:14:55Z</time>
      </trkpt>
      <trkpt lat="48.78588" lon="-3.34809">
        <ele>96.9</ele>
        <time>2019-07-11T07:14:56Z</time>
      </trkpt>
      <trkpt lat="48.78586" lon="-3.34817">
        <ele>96.4</ele>
        <time>2019-07-11T07:14:57Z</time>
      </trkpt>
      <trkpt lat="48.78584" lon="-3.34826">
        <ele>96.5</ele>
        <time>2019-07-11T07:14:58Z</time>
      </trkpt>
      <trkpt lat="48.78582" lon="-3.34834">
        <ele>96.3</ele>
        <time>2019-07-11T07:14:59Z</time>
      </trkpt>
      <trkpt lat="48.78581" lon="-3.34843">
        <ele>96.1</ele>
        <time>2019-07-11T07:15:00Z</time>
      </trkpt>
      <trkpt lat="48.78579" lon="-3.34852">
        <ele>95.7</ele>
        <time>2019-07-11T07:15:01Z</time>
      </trkpt>
      <trkpt lat="48.78577" lon="-3.3486">
        <ele>95.5</ele>
        <time>2019-07-11T07:15:02Z</time>
      </trkpt>
      <trkpt lat="48.78576" lon="-3.34868">
        <ele>95.4</ele>
        <time>2019-07-11T07:15:03Z</time>
      </trkpt>
      <trkpt lat="48.78574" lon="-3.34875">
        <ele>95.3</ele>
        <time>2019-07-11T07:15:04Z</time>
      </trkpt>
      <trkpt lat="48.78573" lon="-3.34883">
        <ele>94.9</ele>
        <time>2019-07-11T07:15:05Z</time>
      </trkpt>
      <trkpt lat="48.78572" lon="-3.3489">
        <ele>94.6</ele>
        <time>2019-07-11T07:15:06Z</time>
      </trkpt>
      <trkpt lat="48.7857" lon="-3.34897">
        <ele>93.9</ele>
        <time>2019-07-11T07:15:07Z</time>
      </trkpt>
      <trkpt lat="48.78569" lon="-3.34905">
        <ele>93.3</ele>
        <time>2019-07-11T07:15:08Z</time>
      </trkpt>
      <trkpt lat="48.78568" lon="-3.34913">
        <ele>93.3</ele>
        <time>2019-07-11T07:15:09Z</time>
      </trkpt>
      <trkpt lat="48.78567" lon="-3.3492">
        <ele>93.4</ele>
        <time>2019-07-11T07:15:10Z</time>
      </trkpt>
      <trkpt lat="48.78566" lon="-3.34928">
        <ele>93.5</ele>
        <time>2019-07-11T07:15:11Z</time>
      </trkpt>
      <trkpt lat="48.78565" lon="-3.34935">
        <ele>93.9</ele>
        <time>2019-07-11T07:15:12Z</time>
      </trkpt>
      <trkpt lat="48.78564" lon="-3.34942">
        <ele>94</ele>
        <time>2019-07-11T07:15:13Z</time>
      </trkpt>
      <trkpt lat="48.78564" lon="-3.34949">
        <ele>95.2</ele>
        <time>2019-07-11T07:15:14Z</time>
      </trkpt>
      <trkpt lat="48.78564" lon="-3.34956">
        <ele>95.9</ele>
        <time>2019-07-11T07:15:15Z</time>
      </trkpt>
      <trkpt lat="48.78564" lon="-3.34962">
        <ele>96.6</ele>
        <time>2019-07-11T07:15:16Z</time>
      </trkpt>
      <trkpt lat="48.78564" lon="-3.34969">
        <ele>96.5</ele>
        <time>2019-07-11T07:15:17Z</time>
      </trkpt>
      <trkpt lat="48.78564" lon="-3.34976">
        <ele>96.3</ele>
        <time>2019-07-11T07:15:18Z</time>
      </trkpt>
      <trkpt lat="48.78564" lon="-3.34983">
        <ele>95.8</ele>
        <time>2019-07-11T07:15:19Z</time>
      </trkpt>
      <trkpt lat="48.78564" lon="-3.34991">
        <ele>94.4</ele>
        <time>2019-07-11T07:15:20Z</time>
      </trkpt>
      <trkpt lat="48.78564" lon="-3.34998">
        <ele>94</ele>
        <time>2019-07-11T07:15:21Z</time>
      </trkpt>
      <trkpt lat="48.78564" lon="-3.35004">
        <ele>93.8</ele>
        <time>2019-07-11T07:15:22Z</time>
      </trkpt>
      <trkpt lat="48.78565" lon="-3.3501">
        <ele>94.2</ele>
        <time>2019-07-11T07:15:23Z</time>
      </trkpt>
      <trkpt lat="48.78566" lon="-3.35016">
        <ele>94.6</ele>
        <time>2019-07-11T07:15:24Z</time>
      </trkpt>
      <trkpt lat="48.78568" lon="-3.35023">
        <ele>94.8</ele>
        <time>2019-07-11T07:15:25Z</time>
      </trkpt>
      <trkpt lat="48.78569" lon="-3.35029">
        <ele>94.8</ele>
        <time>2019-07-11T07:15:26Z</time>
      </trkpt>
      <trkpt lat="48.78571" lon="-3.35036">
        <ele>94.3</ele>
        <time>2019-07-11T07:15:27Z</time>
      </trkpt>
      <trkpt lat="48.78572" lon="-3.35043">
        <ele>94.3</ele>
        <time>2019-07-11T07:15:28Z</time>
      </trkpt>
      <trkpt lat="48.78574" lon="-3.35049">
        <ele>94.2</ele>
        <time>2019-07-11T07:15:29Z</time>
      </trkpt>
      <trkpt lat="48.78575" lon="-3.35056">
        <ele>94.1</ele>
        <time>2019-07-11T07:15:30Z</time>
      </trkpt>
      <trkpt lat="48.78577" lon="-3.35063">
        <ele>94</ele>
        <time>2019-07-11T07:15:31Z</time>
      </trkpt>
      <trkpt lat="48.78578" lon="-3.35069">
        <ele>94</ele>
        <time>2019-07-11T07:15:32Z</time>
      </trkpt>
      <trkpt lat="48.7858" lon="-3.35075">
        <ele>94</ele>
        <time>2019-07-11T07:15:33Z</time>
      </trkpt>
      <trkpt lat="48.78582" lon="-3.35081">
        <ele>94</ele>
        <time>2019-07-11T07:15:34Z</time>
      </trkpt>
      <trkpt lat="48.78583" lon="-3.35087">
        <ele>93.9</ele>
        <time>2019-07-11T07:15:35Z</time>
      </trkpt>
      <trkpt lat="48.78585" lon="-3.35092">
        <ele>93.9</ele>
        <time>2019-07-11T07:15:36Z</time>
      </trkpt>
      <trkpt lat="48.78587" lon="-3.35098">
        <ele>94</ele>
        <time>2019-07-11T07:15:37Z</time>
      </trkpt>
      <trkpt lat="48.78588" lon="-3.35104">
        <ele>94</ele>
        <time>2019-07-11T07:15:38Z</time>
      </trkpt>
      <trkpt lat="48.78589" lon="-3.3511">
        <ele>93.7</ele>
        <time>2019-07-11T07:15:39Z</time>
      </trkpt>
      <trkpt lat="48.78591" lon="-3.35117">
        <ele>93.5</ele>
        <time>2019-07-11T07:15:40Z</time>
      </trkpt>
      <trkpt lat="48.78592" lon="-3.35124">
        <ele>92.6</ele>
        <time>2019-07-11T07:15:41Z</time>
      </trkpt>
      <trkpt lat="48.78594" lon="-3.35131">
        <ele>92.3</ele>
        <time>2019-07-11T07:15:42Z</time>
      </trkpt>
      <trkpt lat="48.78595" lon="-3.35137">
        <ele>92.2</ele>
        <time>2019-07-11T07:15:43Z</time>
      </trkpt>
      <trkpt lat="48.78597" lon="-3.35144">
        <ele>92.5</ele>
        <time>2019-07-11T07:15:44Z</time>
      </trkpt>
      <trkpt lat="48.78599" lon="-3.35151">
        <ele>92.6</ele>
        <time>2019-07-11T07:15:45Z</time>
      </trkpt>
      <trkpt lat="48.78601" lon="-3.35158">
        <ele>92.6</ele>
        <time>2019-07-11T07:15:46Z</time>
      </trkpt>
      <trkpt lat="48.78603" lon="-3.35164">
        <ele>92.4</ele>
        <time>2019-07-11T07:15:47Z</time>
      </trkpt>
      <trkpt lat="48.78605" lon="-3.3517">
        <ele>92.3</ele>
        <time>2019-07-11T07:15:48Z</time>
      </trkpt>
      <trkpt lat="48.78606" lon="-3.35175">
        <ele>92.6</ele>
        <time>2019-07-11T07:15:49Z</time>
      </trkpt>
      <trkpt lat="48.78608" lon="-3.35181">
        <ele>92.1</ele>
        <time>2019-07-11T07:15:50Z</time>
      </trkpt>
      <trkpt lat="48.7861" lon="-3.35186">
        <ele>92.2</ele>
        <time>2019-07-11T07:15:51Z</time>
      </trkpt>
      <trkpt lat="48.78613" lon="-3.35191">
        <ele>92.3</ele>
        <time>2019-07-11T07:15:52Z</time>
      </trkpt>
      <trkpt lat="48.78616" lon="-3.35197">
        <ele>92.3</ele>
        <time>2019-07-11T07:15:53Z</time>
      </trkpt>
      <trkpt lat="48.78619" lon="-3.35203">
        <ele>93</ele>
        <time>2019-07-11T07:15:54Z</time>
      </trkpt>
      <trkpt lat="48.78621" lon="-3.35209">
        <ele>93</ele>
        <time>2019-07-11T07:15:55Z</time>
      </trkpt>
      <trkpt lat="48.78623" lon="-3.35214">
        <ele>93.2</ele>
        <time>2019-07-11T07:15:56Z</time>
      </trkpt>
      <trkpt lat="48.78626" lon="-3.35222">
        <ele>93.8</ele>
        <time>2019-07-11T07:15:57Z</time>
      </trkpt>
      <trkpt lat="48.78628" lon="-3.35228">
        <ele>93.8</ele>
        <time>2019-07-11T07:15:58Z</time>
      </trkpt>
      <trkpt lat="48.7863" lon="-3.35235">
        <ele>94.1</ele>
        <time>2019-07-11T07:15:59Z</time>
      </trkpt>
      <trkpt lat="48.78632" lon="-3.35242">
        <ele>94.7</ele>
        <time>2019-07-11T07:16:00Z</time>
      </trkpt>
      <trkpt lat="48.78634" lon="-3.35248">
        <ele>95.1</ele>
        <time>2019-07-11T07:16:01Z</time>
      </trkpt>
      <trkpt lat="48.78635" lon="-3.35255">
        <ele>95.7</ele>
        <time>2019-07-11T07:16:02Z</time>
      </trkpt>
      <trkpt lat="48.78637" lon="-3.3526">
        <ele>96.1</ele>
        <time>2019-07-11T07:16:03Z</time>
      </trkpt>
      <trkpt lat="48.78639" lon="-3.35264">
        <ele>96.4</ele>
        <time>2019-07-11T07:16:04Z</time>
      </trkpt>
      <trkpt lat="48.7864" lon="-3.35271">
        <ele>96.9</ele>
        <time>2019-07-11T07:16:05Z</time>
      </trkpt>
      <trkpt lat="48.78642" lon="-3.35277">
        <ele>97.2</ele>
        <time>2019-07-11T07:16:06Z</time>
      </trkpt>
      <trkpt lat="48.78643" lon="-3.35283">
        <ele>97.3</ele>
        <time>2019-07-11T07:16:07Z</time>
      </trkpt>
      <trkpt lat="48.78645" lon="-3.35288">
        <ele>97</ele>
        <time>2019-07-11T07:16:08Z</time>
      </trkpt>
      <trkpt lat="48.78646" lon="-3.35292">
        <ele>96.4</ele>
        <time>2019-07-11T07:16:09Z</time>
      </trkpt>
      <trkpt lat="48.78648" lon="-3.35296">
        <ele>95.6</ele>
        <time>2019-07-11T07:16:10Z</time>
      </trkpt>
      <trkpt lat="48.7865" lon="-3.35301">
        <ele>94.8</ele>
        <time>2019-07-11T07:16:11Z</time>
      </trkpt>
      <trkpt lat="48.78651" lon="-3.35306">
        <ele>94.3</ele>
        <time>2019-07-11T07:16:12Z</time>
      </trkpt>
      <trkpt lat="48.78653" lon="-3.35311">
        <ele>93.5</ele>
        <time>2019-07-11T07:16:13Z</time>
      </trkpt>
      <trkpt lat="48.78655" lon="-3.35315">
        <ele>92.9</ele>
        <time>2019-07-11T07:16:14Z</time>
      </trkpt>
      <trkpt lat="48.78655" lon="-3.35319">
        <ele>92.3</ele>
        <time>2019-07-11T07:16:15Z</time>
      </trkpt>
      <trkpt lat="48.78656" lon="-3.35323">
        <ele>91.8</ele>
        <time>2019-07-11T07:16:16Z</time>
      </trkpt>
      <trkpt lat="48.78658" lon="-3.35327">
        <ele>91</ele>
        <time>2019-07-11T07:16:17Z</time>
      </trkpt>
      <trkpt lat="48.78659" lon="-3.35331">
        <ele>90.9</ele>
        <time>2019-07-11T07:16:18Z</time>
      </trkpt>
      <trkpt lat="48.7866" lon="-3.35336">
        <ele>89.9</ele>
        <time>2019-07-11T07:16:19Z</time>
      </trkpt>
      <trkpt lat="48.78661" lon="-3.35341">
        <ele>89.9</ele>
        <time>2019-07-11T07:16:20Z</time>
      </trkpt>
      <trkpt lat="48.78662" lon="-3.35346">
        <ele>88.8</ele>
        <time>2019-07-11T07:16:21Z</time>
      </trkpt>
      <trkpt lat="48.78663" lon="-3.35351">
        <ele>88.2</ele>
        <time>2019-07-11T07:16:22Z</time>
      </trkpt>
      <trkpt lat="48.78665" lon="-3.35356">
        <ele>88.2</ele>
        <time>2019-07-11T07:16:23Z</time>
      </trkpt>
      <trkpt lat="48.78666" lon="-3.35361">
        <ele>88.5</ele>
        <time>2019-07-11T07:16:24Z</time>
      </trkpt>
      <trkpt lat="48.78667" lon="-3.35367">
        <ele>88.5</ele>
        <time>2019-07-11T07:16:25Z</time>
      </trkpt>
      <trkpt lat="48.78669" lon="-3.35372">
        <ele>88.9</ele>
        <time>2019-07-11T07:16:26Z</time>
      </trkpt>
      <trkpt lat="48.7867" lon="-3.35378">
        <ele>89.1</ele>
        <time>2019-07-11T07:16:27Z</time>
      </trkpt>
      <trkpt lat="48.78672" lon="-3.35383">
        <ele>89.5</ele>
        <time>2019-07-11T07:16:28Z</time>
      </trkpt>
      <trkpt lat="48.78674" lon="-3.35388">
        <ele>89.6</ele>
        <time>2019-07-11T07:16:29Z</time>
      </trkpt>
      <trkpt lat="48.78675" lon="-3.35394">
        <ele>89.6</ele>
        <time>2019-07-11T07:16:30Z</time>
      </trkpt>
      <trkpt lat="48.78676" lon="-3.354">
        <ele>89.1</ele>
        <time>2019-07-11T07:16:31Z</time>
      </trkpt>
      <trkpt lat="48.78677" lon="-3.35406">
        <ele>89.9</ele>
        <time>2019-07-11T07:16:32Z</time>
      </trkpt>
      <trkpt lat="48.78679" lon="-3.35412">
        <ele>90</ele>
        <time>2019-07-11T07:16:33Z</time>
      </trkpt>
      <trkpt lat="48.78681" lon="-3.35418">
        <ele>89.3</ele>
        <time>2019-07-11T07:16:34Z</time>
      </trkpt>
      <trkpt lat="48.78682" lon="-3.35424">
        <ele>89.6</ele>
        <time>2019-07-11T07:16:35Z</time>
      </trkpt>
      <trkpt lat="48.78684" lon="-3.3543">
        <ele>89.7</ele>
        <time>2019-07-11T07:16:36Z</time>
      </trkpt>
      <trkpt lat="48.78686" lon="-3.35435">
        <ele>89.9</ele>
        <time>2019-07-11T07:16:37Z</time>
      </trkpt>
      <trkpt lat="48.78688" lon="-3.35441">
        <ele>89.6</ele>
        <time>2019-07-11T07:16:38Z</time>
      </trkpt>
      <trkpt lat="48.7869" lon="-3.35446">
        <ele>89.4</ele>
        <time>2019-07-11T07:16:39Z</time>
      </trkpt>
      <trkpt lat="48.78692" lon="-3.35452">
        <ele>89.6</ele>
        <time>2019-07-11T07:16:40Z</time>
      </trkpt>
      <trkpt lat="48.78693" lon="-3.35459">
        <ele>90.1</ele>
        <time>2019-07-11T07:16:41Z</time>
      </trkpt>
      <trkpt lat="48.78695" lon="-3.35466">
        <ele>90.7</ele>
        <time>2019-07-11T07:16:42Z</time>
      </trkpt>
      <trkpt lat="48.78696" lon="-3.35473">
        <ele>91.3</ele>
        <time>2019-07-11T07:16:43Z</time>
      </trkpt>
      <trkpt lat="48.78698" lon="-3.3548">
        <ele>91.3</ele>
        <time>2019-07-11T07:16:44Z</time>
      </trkpt>
      <trkpt lat="48.78701" lon="-3.35487">
        <ele>90.7</ele>
        <time>2019-07-11T07:16:45Z</time>
      </trkpt>
      <trkpt lat="48.78703" lon="-3.35494">
        <ele>90.6</ele>
        <time>2019-07-11T07:16:46Z</time>
      </trkpt>
      <trkpt lat="48.78706" lon="-3.35501">
        <ele>90.7</ele>
        <time>2019-07-11T07:16:47Z</time>
      </trkpt>
      <trkpt lat="48.78708" lon="-3.35507">
        <ele>91.2</ele>
        <time>2019-07-11T07:16:48Z</time>
      </trkpt>
      <trkpt lat="48.7871" lon="-3.35514">
        <ele>91.8</ele>
        <time>2019-07-11T07:16:49Z</time>
      </trkpt>
      <trkpt lat="48.78712" lon="-3.35521">
        <ele>92.3</ele>
        <time>2019-07-11T07:16:50Z</time>
      </trkpt>
      <trkpt lat="48.78714" lon="-3.35527">
        <ele>92.6</ele>
        <time>2019-07-11T07:16:51Z</time>
      </trkpt>
      <trkpt lat="48.78716" lon="-3.35534">
        <ele>93.4</ele>
        <time>2019-07-11T07:16:52Z</time>
      </trkpt>
      <trkpt lat="48.78718" lon="-3.35542">
        <ele>94.9</ele>
        <time>2019-07-11T07:16:53Z</time>
      </trkpt>
      <trkpt lat="48.78721" lon="-3.3555">
        <ele>96.2</ele>
        <time>2019-07-11T07:16:54Z</time>
      </trkpt>
      <trkpt lat="48.78723" lon="-3.35557">
        <ele>96.7</ele>
        <time>2019-07-11T07:16:55Z</time>
      </trkpt>
      <trkpt lat="48.78725" lon="-3.35564">
        <ele>97</ele>
        <time>2019-07-11T07:16:56Z</time>
      </trkpt>
      <trkpt lat="48.78727" lon="-3.35573">
        <ele>96.6</ele>
        <time>2019-07-11T07:16:57Z</time>
      </trkpt>
      <trkpt lat="48.78729" lon="-3.35581">
        <ele>96.7</ele>
        <time>2019-07-11T07:16:58Z</time>
      </trkpt>
      <trkpt lat="48.7873" lon="-3.35589">
        <ele>97.1</ele>
        <time>2019-07-11T07:16:59Z</time>
      </trkpt>
      <trkpt lat="48.7873" lon="-3.35597">
        <ele>97.5</ele>
        <time>2019-07-11T07:17:00Z</time>
      </trkpt>
      <trkpt lat="48.78732" lon="-3.35605">
        <ele>97.6</ele>
        <time>2019-07-11T07:17:01Z</time>
      </trkpt>
      <trkpt lat="48.78733" lon="-3.35612">
        <ele>97.4</ele>
        <time>2019-07-11T07:17:02Z</time>
      </trkpt>
      <trkpt lat="48.78735" lon="-3.35619">
        <ele>97.1</ele>
        <time>2019-07-11T07:17:03Z</time>
      </trkpt>
      <trkpt lat="48.78737" lon="-3.35626">
        <ele>96.6</ele>
        <time>2019-07-11T07:17:04Z</time>
      </trkpt>
      <trkpt lat="48.78739" lon="-3.35633">
        <ele>96.2</ele>
        <time>2019-07-11T07:17:05Z</time>
      </trkpt>
      <trkpt lat="48.78741" lon="-3.3564">
        <ele>95.8</ele>
        <time>2019-07-11T07:17:06Z</time>
      </trkpt>
      <trkpt lat="48.78744" lon="-3.35648">
        <ele>95.7</ele>
        <time>2019-07-11T07:17:07Z</time>
      </trkpt>
      <trkpt lat="48.78747" lon="-3.35655">
        <ele>96.1</ele>
        <time>2019-07-11T07:17:08Z</time>
      </trkpt>
      <trkpt lat="48.78751" lon="-3.35662">
        <ele>96.4</ele>
        <time>2019-07-11T07:17:09Z</time>
      </trkpt>
      <trkpt lat="48.78754" lon="-3.35668">
        <ele>96.4</ele>
        <time>2019-07-11T07:17:10Z</time>
      </trkpt>
      <trkpt lat="48.78758" lon="-3.35674">
        <ele>96</ele>
        <time>2019-07-11T07:17:11Z</time>
      </trkpt>
      <trkpt lat="48.78763" lon="-3.35678">
        <ele>95.1</ele>
        <time>2019-07-11T07:17:12Z</time>
      </trkpt>
      <trkpt lat="48.78767" lon="-3.35682">
        <ele>93.8</ele>
        <time>2019-07-11T07:17:13Z</time>
      </trkpt>
      <trkpt lat="48.78772" lon="-3.35685">
        <ele>92.8</ele>
        <time>2019-07-11T07:17:14Z</time>
      </trkpt>
      <trkpt lat="48.78775" lon="-3.35687">
        <ele>91.6</ele>
        <time>2019-07-11T07:17:15Z</time>
      </trkpt>
      <trkpt lat="48.7878" lon="-3.3569">
        <ele>91</ele>
        <time>2019-07-11T07:17:16Z</time>
      </trkpt>
      <trkpt lat="48.78783" lon="-3.35693">
        <ele>90.5</ele>
        <time>2019-07-11T07:17:17Z</time>
      </trkpt>
      <trkpt lat="48.78787" lon="-3.35695">
        <ele>90.2</ele>
        <time>2019-07-11T07:17:18Z</time>
      </trkpt>
      <trkpt lat="48.78791" lon="-3.35698">
        <ele>90</ele>
        <time>2019-07-11T07:17:19Z</time>
      </trkpt>
      <trkpt lat="48.78796" lon="-3.357">
        <ele>89.6</ele>
        <time>2019-07-11T07:17:20Z</time>
      </trkpt>
      <trkpt lat="48.78801" lon="-3.35702">
        <ele>89.2</ele>
        <time>2019-07-11T07:17:21Z</time>
      </trkpt>
      <trkpt lat="48.78805" lon="-3.35705">
        <ele>88.9</ele>
        <time>2019-07-11T07:17:22Z</time>
      </trkpt>
      <trkpt lat="48.78809" lon="-3.35708">
        <ele>88.8</ele>
        <time>2019-07-11T07:17:23Z</time>
      </trkpt>
      <trkpt lat="48.78814" lon="-3.35711">
        <ele>88.7</ele>
        <time>2019-07-11T07:17:24Z</time>
      </trkpt>
      <trkpt lat="48.78819" lon="-3.35715">
        <ele>88.1</ele>
        <time>2019-07-11T07:17:25Z</time>
      </trkpt>
      <trkpt lat="48.78823" lon="-3.3572">
        <ele>87.8</ele>
        <time>2019-07-11T07:17:26Z</time>
      </trkpt>
      <trkpt lat="48.78828" lon="-3.35724">
        <ele>87.5</ele>
        <time>2019-07-11T07:17:27Z</time>
      </trkpt>
      <trkpt lat="48.78832" lon="-3.35728">
        <ele>87.7</ele>
        <time>2019-07-11T07:17:28Z</time>
      </trkpt>
      <trkpt lat="48.78837" lon="-3.35732">
        <ele>87.7</ele>
        <time>2019-07-11T07:17:29Z</time>
      </trkpt>
      <trkpt lat="48.78841" lon="-3.35736">
        <ele>87.8</ele>
        <time>2019-07-11T07:17:30Z</time>
      </trkpt>
      <trkpt lat="48.78845" lon="-3.3574">
        <ele>88.1</ele>
        <time>2019-07-11T07:17:31Z</time>
      </trkpt>
      <trkpt lat="48.78849" lon="-3.35743">
        <ele>88.2</ele>
        <time>2019-07-11T07:17:32Z</time>
      </trkpt>
      <trkpt lat="48.78854" lon="-3.35747">
        <ele>88.1</ele>
        <time>2019-07-11T07:17:33Z</time>
      </trkpt>
      <trkpt lat="48.78858" lon="-3.35751">
        <ele>88.1</ele>
        <time>2019-07-11T07:17:34Z</time>
      </trkpt>
      <trkpt lat="48.78861" lon="-3.35754">
        <ele>88.3</ele>
        <time>2019-07-11T07:17:35Z</time>
      </trkpt>
      <trkpt lat="48.78865" lon="-3.35758">
        <ele>88.1</ele>
        <time>2019-07-11T07:17:36Z</time>
      </trkpt>
      <trkpt lat="48.78868" lon="-3.35761">
        <ele>88.1</ele>
        <time>2019-07-11T07:17:37Z</time>
      </trkpt>
      <trkpt lat="48.78871" lon="-3.35765">
        <ele>88.3</ele>
        <time>2019-07-11T07:17:38Z</time>
      </trkpt>
      <trkpt lat="48.78874" lon="-3.35768">
        <ele>88.2</ele>
        <time>2019-07-11T07:17:39Z</time>
      </trkpt>
      <trkpt lat="48.78878" lon="-3.35771">
        <ele>88.4</ele>
        <time>2019-07-11T07:17:40Z</time>
      </trkpt>
      <trkpt lat="48.78881" lon="-3.35774">
        <ele>88.3</ele>
        <time>2019-07-11T07:17:41Z</time>
      </trkpt>
      <trkpt lat="48.78885" lon="-3.35777">
        <ele>88.2</ele>
        <time>2019-07-11T07:17:42Z</time>
      </trkpt>
      <trkpt lat="48.78888" lon="-3.35779">
        <ele>88</ele>
        <time>2019-07-11T07:17:43Z</time>
      </trkpt>
      <trkpt lat="48.78891" lon="-3.35783">
        <ele>88</ele>
        <time>2019-07-11T07:17:44Z</time>
      </trkpt>
      <trkpt lat="48.78895" lon="-3.35787">
        <ele>87.9</ele>
        <time>2019-07-11T07:17:45Z</time>
      </trkpt>
      <trkpt lat="48.78899" lon="-3.3579">
        <ele>88.1</ele>
        <time>2019-07-11T07:17:46Z</time>
      </trkpt>
      <trkpt lat="48.78902" lon="-3.35794">
        <ele>88.6</ele>
        <time>2019-07-11T07:17:47Z</time>
      </trkpt>
      <trkpt lat="48.78906" lon="-3.35797">
        <ele>89</ele>
        <time>2019-07-11T07:17:48Z</time>
      </trkpt>
      <trkpt lat="48.78909" lon="-3.35801">
        <ele>89.7</ele>
        <time>2019-07-11T07:17:49Z</time>
      </trkpt>
      <trkpt lat="48.78913" lon="-3.35805">
        <ele>90.3</ele>
        <time>2019-07-11T07:17:50Z</time>
      </trkpt>
      <trkpt lat="48.78917" lon="-3.35809">
        <ele>90.7</ele>
        <time>2019-07-11T07:17:51Z</time>
      </trkpt>
      <trkpt lat="48.7892" lon="-3.35812">
        <ele>91.3</ele>
        <time>2019-07-11T07:17:52Z</time>
      </trkpt>
      <trkpt lat="48.78923" lon="-3.35815">
        <ele>91.8</ele>
        <time>2019-07-11T07:17:53Z</time>
      </trkpt>
      <trkpt lat="48.78926" lon="-3.35819">
        <ele>92.4</ele>
        <time>2019-07-11T07:17:54Z</time>
      </trkpt>
      <trkpt lat="48.7893" lon="-3.35822">
        <ele>92.5</ele>
        <time>2019-07-11T07:17:55Z</time>
      </trkpt>
      <trkpt lat="48.78933" lon="-3.35825">
        <ele>92.6</ele>
        <time>2019-07-11T07:17:56Z</time>
      </trkpt>
      <trkpt lat="48.78937" lon="-3.35828">
        <ele>92.7</ele>
        <time>2019-07-11T07:17:57Z</time>
      </trkpt>
      <trkpt lat="48.78941" lon="-3.35831">
        <ele>92.7</ele>
        <time>2019-07-11T07:17:58Z</time>
      </trkpt>
      <trkpt lat="48.78944" lon="-3.35835">
        <ele>92.9</ele>
        <time>2019-07-11T07:17:59Z</time>
      </trkpt>
      <trkpt lat="48.78948" lon="-3.35839">
        <ele>93</ele>
        <time>2019-07-11T07:18:00Z</time>
      </trkpt>
      <trkpt lat="48.78951" lon="-3.35842">
        <ele>93.1</ele>
        <time>2019-07-11T07:18:01Z</time>
      </trkpt>
      <trkpt lat="48.78955" lon="-3.35845">
        <ele>92.9</ele>
        <time>2019-07-11T07:18:02Z</time>
      </trkpt>
      <trkpt lat="48.78958" lon="-3.35847">
        <ele>92.9</ele>
        <time>2019-07-11T07:18:03Z</time>
      </trkpt>
      <trkpt lat="48.78962" lon="-3.35849">
        <ele>93.2</ele>
        <time>2019-07-11T07:18:04Z</time>
      </trkpt>
      <trkpt lat="48.78966" lon="-3.35851">
        <ele>93.2</ele>
        <time>2019-07-11T07:18:05Z</time>
      </trkpt>
      <trkpt lat="48.7897" lon="-3.35854">
        <ele>93.4</ele>
        <time>2019-07-11T07:18:06Z</time>
      </trkpt>
      <trkpt lat="48.78974" lon="-3.35856">
        <ele>93.6</ele>
        <time>2019-07-11T07:18:07Z</time>
      </trkpt>
      <trkpt lat="48.78978" lon="-3.35858">
        <ele>93.6</ele>
        <time>2019-07-11T07:18:08Z</time>
      </trkpt>
      <trkpt lat="48.78983" lon="-3.3586">
        <ele>93.5</ele>
        <time>2019-07-11T07:18:09Z</time>
      </trkpt>
      <trkpt lat="48.78988" lon="-3.35862">
        <ele>93.3</ele>
        <time>2019-07-11T07:18:10Z</time>
      </trkpt>
      <trkpt lat="48.78993" lon="-3.35865">
        <ele>93.1</ele>
        <time>2019-07-11T07:18:11Z</time>
      </trkpt>
      <trkpt lat="48.78997" lon="-3.35868">
        <ele>92.7</ele>
        <time>2019-07-11T07:18:12Z</time>
      </trkpt>
      <trkpt lat="48.79002" lon="-3.35871">
        <ele>92.2</ele>
        <time>2019-07-11T07:18:13Z</time>
      </trkpt>
      <trkpt lat="48.79007" lon="-3.35874">
        <ele>91.4</ele>
        <time>2019-07-11T07:18:14Z</time>
      </trkpt>
      <trkpt lat="48.79011" lon="-3.35877">
        <ele>91.3</ele>
        <time>2019-07-11T07:18:15Z</time>
      </trkpt>
      <trkpt lat="48.79015" lon="-3.35881">
        <ele>91</ele>
        <time>2019-07-11T07:18:16Z</time>
      </trkpt>
      <trkpt lat="48.7902" lon="-3.35884">
        <ele>91.4</ele>
        <time>2019-07-11T07:18:17Z</time>
      </trkpt>
      <trkpt lat="48.79023" lon="-3.35887">
        <ele>91.5</ele>
        <time>2019-07-11T07:18:18Z</time>
      </trkpt>
      <trkpt lat="48.79028" lon="-3.35891">
        <ele>91.6</ele>
        <time>2019-07-11T07:18:19Z</time>
      </trkpt>
      <trkpt lat="48.79031" lon="-3.35894">
        <ele>91.5</ele>
        <time>2019-07-11T07:18:20Z</time>
      </trkpt>
      <trkpt lat="48.79035" lon="-3.35897">
        <ele>91.7</ele>
        <time>2019-07-11T07:18:21Z</time>
      </trkpt>
      <trkpt lat="48.79039" lon="-3.359">
        <ele>91.7</ele>
        <time>2019-07-11T07:18:22Z</time>
      </trkpt>
      <trkpt lat="48.79042" lon="-3.35902">
        <ele>91.9</ele>
        <time>2019-07-11T07:18:23Z</time>
      </trkpt>
      <trkpt lat="48.79046" lon="-3.35904">
        <ele>92</ele>
        <time>2019-07-11T07:18:24Z</time>
      </trkpt>
      <trkpt lat="48.7905" lon="-3.35908">
        <ele>91.9</ele>
        <time>2019-07-11T07:18:25Z</time>
      </trkpt>
      <trkpt lat="48.79053" lon="-3.35911">
        <ele>91.8</ele>
        <time>2019-07-11T07:18:26Z</time>
      </trkpt>
      <trkpt lat="48.79057" lon="-3.35913">
        <ele>92</ele>
        <time>2019-07-11T07:18:27Z</time>
      </trkpt>
      <trkpt lat="48.7906" lon="-3.35916">
        <ele>91.8</ele>
        <time>2019-07-11T07:18:28Z</time>
      </trkpt>
      <trkpt lat="48.79064" lon="-3.35919">
        <ele>92.2</ele>
        <time>2019-07-11T07:18:29Z</time>
      </trkpt>
      <trkpt lat="48.79067" lon="-3.35922">
        <ele>92.6</ele>
        <time>2019-07-11T07:18:30Z</time>
      </trkpt>
      <trkpt lat="48.79071" lon="-3.35924">
        <ele>92.8</ele>
        <time>2019-07-11T07:18:31Z</time>
      </trkpt>
      <trkpt lat="48.79074" lon="-3.35927">
        <ele>92.5</ele>
        <time>2019-07-11T07:18:32Z</time>
      </trkpt>
      <trkpt lat="48.79077" lon="-3.3593">
        <ele>92</ele>
        <time>2019-07-11T07:18:33Z</time>
      </trkpt>
      <trkpt lat="48.79081" lon="-3.35933">
        <ele>92.1</ele>
        <time>2019-07-11T07:18:34Z</time>
      </trkpt>
      <trkpt lat="48.79084" lon="-3.35935">
        <ele>91.9</ele>
        <time>2019-07-11T07:18:35Z</time>
      </trkpt>
      <trkpt lat="48.79087" lon="-3.35938">
        <ele>91.7</ele>
        <time>2019-07-11T07:18:36Z</time>
      </trkpt>
      <trkpt lat="48.79091" lon="-3.3594">
        <ele>92</ele>
        <time>2019-07-11T07:18:37Z</time>
      </trkpt>
      <trkpt lat="48.79094" lon="-3.35943">
        <ele>91.7</ele>
        <time>2019-07-11T07:18:38Z</time>
      </trkpt>
      <trkpt lat="48.79097" lon="-3.35945">
        <ele>91.2</ele>
        <time>2019-07-11T07:18:39Z</time>
      </trkpt>
      <trkpt lat="48.791" lon="-3.35948">
        <ele>90.8</ele>
        <time>2019-07-11T07:18:40Z</time>
      </trkpt>
      <trkpt lat="48.79104" lon="-3.35951">
        <ele>90.9</ele>
        <time>2019-07-11T07:18:41Z</time>
      </trkpt>
      <trkpt lat="48.79108" lon="-3.35954">
        <ele>91.3</ele>
        <time>2019-07-11T07:18:42Z</time>
      </trkpt>
      <trkpt lat="48.79111" lon="-3.35957">
        <ele>91.8</ele>
        <time>2019-07-11T07:18:43Z</time>
      </trkpt>
      <trkpt lat="48.79115" lon="-3.35961">
        <ele>92.1</ele>
        <time>2019-07-11T07:18:44Z</time>
      </trkpt>
      <trkpt lat="48.79118" lon="-3.35964">
        <ele>92.5</ele>
        <time>2019-07-11T07:18:45Z</time>
      </trkpt>
      <trkpt lat="48.79122" lon="-3.35967">
        <ele>92.6</ele>
        <time>2019-07-11T07:18:46Z</time>
      </trkpt>
      <trkpt lat="48.79125" lon="-3.35971">
        <ele>92.7</ele>
        <time>2019-07-11T07:18:47Z</time>
      </trkpt>
      <trkpt lat="48.79128" lon="-3.35974">
        <ele>92.4</ele>
        <time>2019-07-11T07:18:48Z</time>
      </trkpt>
      <trkpt lat="48.79132" lon="-3.35977">
        <ele>92.8</ele>
        <time>2019-07-11T07:18:49Z</time>
      </trkpt>
      <trkpt lat="48.79135" lon="-3.35981">
        <ele>92.6</ele>
        <time>2019-07-11T07:18:50Z</time>
      </trkpt>
      <trkpt lat="48.79138" lon="-3.35984">
        <ele>92.5</ele>
        <time>2019-07-11T07:18:51Z</time>
      </trkpt>
      <trkpt lat="48.79141" lon="-3.35987">
        <ele>92.4</ele>
        <time>2019-07-11T07:18:52Z</time>
      </trkpt>
      <trkpt lat="48.79144" lon="-3.35991">
        <ele>91.7</ele>
        <time>2019-07-11T07:18:53Z</time>
      </trkpt>
      <trkpt lat="48.79147" lon="-3.35994">
        <ele>91.3</ele>
        <time>2019-07-11T07:18:54Z</time>
      </trkpt>
      <trkpt lat="48.7915" lon="-3.35998">
        <ele>91.1</ele>
        <time>2019-07-11T07:18:55Z</time>
      </trkpt>
      <trkpt lat="48.79153" lon="-3.36002">
        <ele>90.8</ele>
        <time>2019-07-11T07:18:56Z</time>
      </trkpt>
      <trkpt lat="48.79155" lon="-3.36005">
        <ele>90.7</ele>
        <time>2019-07-11T07:18:57Z</time>
      </trkpt>
      <trkpt lat="48.79158" lon="-3.36009">
        <ele>90.9</ele>
        <time>2019-07-11T07:18:58Z</time>
      </trkpt>
      <trkpt lat="48.79161" lon="-3.36013">
        <ele>91</ele>
        <time>2019-07-11T07:18:59Z</time>
      </trkpt>
      <trkpt lat="48.79164" lon="-3.36016">
        <ele>91.5</ele>
        <time>2019-07-11T07:19:00Z</time>
      </trkpt>
      <trkpt lat="48.79167" lon="-3.3602">
        <ele>91.8</ele>
        <time>2019-07-11T07:19:01Z</time>
      </trkpt>
      <trkpt lat="48.7917" lon="-3.36024">
        <ele>91.8</ele>
        <time>2019-07-11T07:19:02Z</time>
      </trkpt>
      <trkpt lat="48.79173" lon="-3.36028">
        <ele>91.7</ele>
        <time>2019-07-11T07:19:03Z</time>
      </trkpt>
      <trkpt lat="48.79175" lon="-3.36032">
        <ele>92</ele>
        <time>2019-07-11T07:19:04Z</time>
      </trkpt>
      <trkpt lat="48.79178" lon="-3.36035">
        <ele>92.4</ele>
        <time>2019-07-11T07:19:05Z</time>
      </trkpt>
      <trkpt lat="48.79181" lon="-3.36039">
        <ele>92.7</ele>
        <time>2019-07-11T07:19:06Z</time>
      </trkpt>
      <trkpt lat="48.79184" lon="-3.36042">
        <ele>92.8</ele>
        <time>2019-07-11T07:19:07Z</time>
      </trkpt>
      <trkpt lat="48.79187" lon="-3.36045">
        <ele>92.9</ele>
        <time>2019-07-11T07:19:08Z</time>
      </trkpt>
      <trkpt lat="48.7919" lon="-3.36049">
        <ele>92.7</ele>
        <time>2019-07-11T07:19:09Z</time>
      </trkpt>
      <trkpt lat="48.79194" lon="-3.36052">
        <ele>92.4</ele>
        <time>2019-07-11T07:19:10Z</time>
      </trkpt>
      <trkpt lat="48.79197" lon="-3.36056">
        <ele>92.5</ele>
        <time>2019-07-11T07:19:11Z</time>
      </trkpt>
      <trkpt lat="48.792" lon="-3.3606">
        <ele>92.5</ele>
        <time>2019-07-11T07:19:12Z</time>
      </trkpt>
      <trkpt lat="48.79203" lon="-3.36064">
        <ele>92.6</ele>
        <time>2019-07-11T07:19:13Z</time>
      </trkpt>
      <trkpt lat="48.79207" lon="-3.36067">
        <ele>93</ele>
        <time>2019-07-11T07:19:14Z</time>
      </trkpt>
      <trkpt lat="48.7921" lon="-3.36072">
        <ele>93.3</ele>
        <time>2019-07-11T07:19:15Z</time>
      </trkpt>
      <trkpt lat="48.79213" lon="-3.36076">
        <ele>93.6</ele>
        <time>2019-07-11T07:19:16Z</time>
      </trkpt>
      <trkpt lat="48.79217" lon="-3.3608">
        <ele>93.2</ele>
        <time>2019-07-11T07:19:17Z</time>
      </trkpt>
      <trkpt lat="48.7922" lon="-3.36085">
        <ele>93.1</ele>
        <time>2019-07-11T07:19:18Z</time>
      </trkpt>
      <trkpt lat="48.79223" lon="-3.36089">
        <ele>92.6</ele>
        <time>2019-07-11T07:19:19Z</time>
      </trkpt>
      <trkpt lat="48.79226" lon="-3.36094">
        <ele>92.8</ele>
        <time>2019-07-11T07:19:20Z</time>
      </trkpt>
      <trkpt lat="48.79229" lon="-3.36098">
        <ele>93.1</ele>
        <time>2019-07-11T07:19:21Z</time>
      </trkpt>
      <trkpt lat="48.79232" lon="-3.36102">
        <ele>93.4</ele>
        <time>2019-07-11T07:19:22Z</time>
      </trkpt>
      <trkpt lat="48.79235" lon="-3.36106">
        <ele>93.5</ele>
        <time>2019-07-11T07:19:23Z</time>
      </trkpt>
      <trkpt lat="48.79238" lon="-3.3611">
        <ele>93.3</ele>
        <time>2019-07-11T07:19:24Z</time>
      </trkpt>
      <trkpt lat="48.79241" lon="-3.36114">
        <ele>93.3</ele>
        <time>2019-07-11T07:19:25Z</time>
      </trkpt>
      <trkpt lat="48.79244" lon="-3.36119">
        <ele>93.6</ele>
        <time>2019-07-11T07:19:26Z</time>
      </trkpt>
      <trkpt lat="48.79247" lon="-3.36123">
        <ele>93.8</ele>
        <time>2019-07-11T07:19:27Z</time>
      </trkpt>
      <trkpt lat="48.7925" lon="-3.36127">
        <ele>94.3</ele>
        <time>2019-07-11T07:19:28Z</time>
      </trkpt>
      <trkpt lat="48.79254" lon="-3.36131">
        <ele>94.7</ele>
        <time>2019-07-11T07:19:29Z</time>
      </trkpt>
      <trkpt lat="48.79258" lon="-3.36136">
        <ele>95.1</ele>
        <time>2019-07-11T07:19:30Z</time>
      </trkpt>
      <trkpt lat="48.79261" lon="-3.3614">
        <ele>95.3</ele>
        <time>2019-07-11T07:19:31Z</time>
      </trkpt>
      <trkpt lat="48.79265" lon="-3.36144">
        <ele>95.1</ele>
        <time>2019-07-11T07:19:32Z</time>
      </trkpt>
      <trkpt lat="48.79268" lon="-3.36148">
        <ele>95.3</ele>
        <time>2019-07-11T07:19:33Z</time>
      </trkpt>
      <trkpt lat="48.79272" lon="-3.36151">
        <ele>95.4</ele>
        <time>2019-07-11T07:19:34Z</time>
      </trkpt>
      <trkpt lat="48.79277" lon="-3.36155">
        <ele>95.1</ele>
        <time>2019-07-11T07:19:35Z</time>
      </trkpt>
      <trkpt lat="48.79281" lon="-3.36159">
        <ele>95.2</ele>
        <time>2019-07-11T07:19:36Z</time>
      </trkpt>
      <trkpt lat="48.79284" lon="-3.36164">
        <ele>95.4</ele>
        <time>2019-07-11T07:19:37Z</time>
      </trkpt>
      <trkpt lat="48.79287" lon="-3.36169">
        <ele>95.9</ele>
        <time>2019-07-11T07:19:38Z</time>
      </trkpt>
      <trkpt lat="48.79291" lon="-3.36174">
        <ele>96.1</ele>
        <time>2019-07-11T07:19:39Z</time>
      </trkpt>
      <trkpt lat="48.79295" lon="-3.36181">
        <ele>96.5</ele>
        <time>2019-07-11T07:19:40Z</time>
      </trkpt>
      <trkpt lat="48.79298" lon="-3.36187">
        <ele>96.9</ele>
        <time>2019-07-11T07:19:41Z</time>
      </trkpt>
      <trkpt lat="48.793" lon="-3.36193">
        <ele>97.3</ele>
        <time>2019-07-11T07:19:42Z</time>
      </trkpt>
      <trkpt lat="48.79302" lon="-3.36199">
        <ele>97.7</ele>
        <time>2019-07-11T07:19:43Z</time>
      </trkpt>
      <trkpt lat="48.79303" lon="-3.36205">
        <ele>97.8</ele>
        <time>2019-07-11T07:19:44Z</time>
      </trkpt>
      <trkpt lat="48.79304" lon="-3.36212">
        <ele>97.8</ele>
        <time>2019-07-11T07:19:45Z</time>
      </trkpt>
      <trkpt lat="48.79305" lon="-3.36218">
        <ele>97.9</ele>
        <time>2019-07-11T07:19:46Z</time>
      </trkpt>
      <trkpt lat="48.79305" lon="-3.36225">
        <ele>97.9</ele>
        <time>2019-07-11T07:19:47Z</time>
      </trkpt>
      <trkpt lat="48.79307" lon="-3.36233">
        <ele>98.3</ele>
        <time>2019-07-11T07:19:48Z</time>
      </trkpt>
      <trkpt lat="48.79308" lon="-3.36241">
        <ele>98.3</ele>
        <time>2019-07-11T07:19:49Z</time>
      </trkpt>
      <trkpt lat="48.79309" lon="-3.3625">
        <ele>98.4</ele>
        <time>2019-07-11T07:19:50Z</time>
      </trkpt>
      <trkpt lat="48.7931" lon="-3.36258">
        <ele>98.3</ele>
        <time>2019-07-11T07:19:51Z</time>
      </trkpt>
      <trkpt lat="48.79312" lon="-3.36266">
        <ele>98.7</ele>
        <time>2019-07-11T07:19:52Z</time>
      </trkpt>
      <trkpt lat="48.79314" lon="-3.36275">
        <ele>99.2</ele>
        <time>2019-07-11T07:19:53Z</time>
      </trkpt>
      <trkpt lat="48.79317" lon="-3.36283">
        <ele>99.7</ele>
        <time>2019-07-11T07:19:54Z</time>
      </trkpt>
      <trkpt lat="48.79321" lon="-3.36291">
        <ele>98.7</ele>
        <time>2019-07-11T07:19:55Z</time>
      </trkpt>
      <trkpt lat="48.79326" lon="-3.36298">
        <ele>98</ele>
        <time>2019-07-11T07:19:56Z</time>
      </trkpt>
      <trkpt lat="48.79329" lon="-3.36304">
        <ele>97.4</ele>
        <time>2019-07-11T07:19:57Z</time>
      </trkpt>
      <trkpt lat="48.79334" lon="-3.36309">
        <ele>96.4</ele>
        <time>2019-07-11T07:19:58Z</time>
      </trkpt>
      <trkpt lat="48.7934" lon="-3.36311">
        <ele>95.5</ele>
        <time>2019-07-11T07:19:59Z</time>
      </trkpt>
      <trkpt lat="48.79343" lon="-3.36315">
        <ele>94.7</ele>
        <time>2019-07-11T07:20:00Z</time>
      </trkpt>
      <trkpt lat="48.79346" lon="-3.3632">
        <ele>93.7</ele>
        <time>2019-07-11T07:20:01Z</time>
      </trkpt>
      <trkpt lat="48.79348" lon="-3.36325">
        <ele>92.1</ele>
        <time>2019-07-11T07:20:02Z</time>
      </trkpt>
      <trkpt lat="48.79351" lon="-3.36329">
        <ele>91.2</ele>
        <time>2019-07-11T07:20:03Z</time>
      </trkpt>
      <trkpt lat="48.79354" lon="-3.36332">
        <ele>89.9</ele>
        <time>2019-07-11T07:20:04Z</time>
      </trkpt>
      <trkpt lat="48.79358" lon="-3.36335">
        <ele>88.5</ele>
        <time>2019-07-11T07:20:05Z</time>
      </trkpt>
      <trkpt lat="48.79361" lon="-3.36337">
        <ele>87.6</ele>
        <time>2019-07-11T07:20:06Z</time>
      </trkpt>
      <trkpt lat="48.79364" lon="-3.36339">
        <ele>86.8</ele>
        <time>2019-07-11T07:20:07Z</time>
      </trkpt>
      <trkpt lat="48.79368" lon="-3.3634">
        <ele>86.1</ele>
        <time>2019-07-11T07:20:08Z</time>
      </trkpt>
      <trkpt lat="48.79371" lon="-3.3634">
        <ele>85.3</ele>
        <time>2019-07-11T07:20:09Z</time>
      </trkpt>
      <trkpt lat="48.79374" lon="-3.36341">
        <ele>84.6</ele>
        <time>2019-07-11T07:20:10Z</time>
      </trkpt>
      <trkpt lat="48.79378" lon="-3.3634">
        <ele>84</ele>
        <time>2019-07-11T07:20:11Z</time>
      </trkpt>
      <trkpt lat="48.79382" lon="-3.36339">
        <ele>83.5</ele>
        <time>2019-07-11T07:20:12Z</time>
      </trkpt>
      <trkpt lat="48.79385" lon="-3.36337">
        <ele>83.3</ele>
        <time>2019-07-11T07:20:13Z</time>
      </trkpt>
      <trkpt lat="48.79388" lon="-3.36335">
        <ele>83.2</ele>
        <time>2019-07-11T07:20:14Z</time>
      </trkpt>
      <trkpt lat="48.79392" lon="-3.36332">
        <ele>82.9</ele>
        <time>2019-07-11T07:20:15Z</time>
      </trkpt>
      <trkpt lat="48.79396" lon="-3.3633">
        <ele>82.7</ele>
        <time>2019-07-11T07:20:16Z</time>
      </trkpt>
      <trkpt lat="48.79401" lon="-3.36328">
        <ele>83.3</ele>
        <time>2019-07-11T07:20:17Z</time>
      </trkpt>
      <trkpt lat="48.79405" lon="-3.36326">
        <ele>83.6</ele>
        <time>2019-07-11T07:20:18Z</time>
      </trkpt>
      <trkpt lat="48.7941" lon="-3.36325">
        <ele>84.4</ele>
        <time>2019-07-11T07:20:19Z</time>
      </trkpt>
      <trkpt lat="48.79415" lon="-3.36323">
        <ele>85.4</ele>
        <time>2019-07-11T07:20:20Z</time>
      </trkpt>
      <trkpt lat="48.79419" lon="-3.36321">
        <ele>85.4</ele>
        <time>2019-07-11T07:20:21Z</time>
      </trkpt>
      <trkpt lat="48.79423" lon="-3.3632">
        <ele>85.3</ele>
        <time>2019-07-11T07:20:22Z</time>
      </trkpt>
      <trkpt lat="48.79427" lon="-3.36318">
        <ele>85</ele>
        <time>2019-07-11T07:20:23Z</time>
      </trkpt>
      <trkpt lat="48.79431" lon="-3.36318">
        <ele>83.9</ele>
        <time>2019-07-11T07:20:24Z</time>
      </trkpt>
      <trkpt lat="48.79436" lon="-3.36317">
        <ele>83.5</ele>
        <time>2019-07-11T07:20:25Z</time>
      </trkpt>
      <trkpt lat="48.79441" lon="-3.36316">
        <ele>83.2</ele>
        <time>2019-07-11T07:20:26Z</time>
      </trkpt>
      <trkpt lat="48.79446" lon="-3.36316">
        <ele>83.2</ele>
        <time>2019-07-11T07:20:27Z</time>
      </trkpt>
      <trkpt lat="48.7945" lon="-3.36315">
        <ele>83.1</ele>
        <time>2019-07-11T07:20:28Z</time>
      </trkpt>
      <trkpt lat="48.79455" lon="-3.36315">
        <ele>83.3</ele>
        <time>2019-07-11T07:20:29Z</time>
      </trkpt>
      <trkpt lat="48.7946" lon="-3.36315">
        <ele>83</ele>
        <time>2019-07-11T07:20:30Z</time>
      </trkpt>
      <trkpt lat="48.79464" lon="-3.36314">
        <ele>82.6</ele>
        <time>2019-07-11T07:20:31Z</time>
      </trkpt>
      <trkpt lat="48.79468" lon="-3.36314">
        <ele>82.2</ele>
        <time>2019-07-11T07:20:32Z</time>
      </trkpt>
      <trkpt lat="48.79472" lon="-3.36313">
        <ele>82.2</ele>
        <time>2019-07-11T07:20:33Z</time>
      </trkpt>
      <trkpt lat="48.79477" lon="-3.36312">
        <ele>82</ele>
        <time>2019-07-11T07:20:34Z</time>
      </trkpt>
      <trkpt lat="48.7948" lon="-3.36311">
        <ele>82.1</ele>
        <time>2019-07-11T07:20:35Z</time>
      </trkpt>
      <trkpt lat="48.79484" lon="-3.3631">
        <ele>82.2</ele>
        <time>2019-07-11T07:20:36Z</time>
      </trkpt>
      <trkpt lat="48.79488" lon="-3.36309">
        <ele>82.3</ele>
        <time>2019-07-11T07:20:37Z</time>
      </trkpt>
      <trkpt lat="48.79492" lon="-3.36309">
        <ele>82.8</ele>
        <time>2019-07-11T07:20:38Z</time>
      </trkpt>
      <trkpt lat="48.79497" lon="-3.36308">
        <ele>83.1</ele>
        <time>2019-07-11T07:20:39Z</time>
      </trkpt>
      <trkpt lat="48.79501" lon="-3.36308">
        <ele>83.2</ele>
        <time>2019-07-11T07:20:40Z</time>
      </trkpt>
      <trkpt lat="48.79505" lon="-3.36308">
        <ele>83.7</ele>
        <time>2019-07-11T07:20:41Z</time>
      </trkpt>
      <trkpt lat="48.7951" lon="-3.36309">
        <ele>83.8</ele>
        <time>2019-07-11T07:20:42Z</time>
      </trkpt>
      <trkpt lat="48.79514" lon="-3.36309">
        <ele>83.9</ele>
        <time>2019-07-11T07:20:43Z</time>
      </trkpt>
      <trkpt lat="48.79518" lon="-3.3631">
        <ele>84.4</ele>
        <time>2019-07-11T07:20:44Z</time>
      </trkpt>
      <trkpt lat="48.79522" lon="-3.3631">
        <ele>85</ele>
        <time>2019-07-11T07:20:45Z</time>
      </trkpt>
      <trkpt lat="48.79527" lon="-3.3631">
        <ele>85.8</ele>
        <time>2019-07-11T07:20:46Z</time>
      </trkpt>
      <trkpt lat="48.79532" lon="-3.36311">
        <ele>86.6</ele>
        <time>2019-07-11T07:20:47Z</time>
      </trkpt>
      <trkpt lat="48.79537" lon="-3.36312">
        <ele>86.8</ele>
        <time>2019-07-11T07:20:48Z</time>
      </trkpt>
      <trkpt lat="48.79541" lon="-3.36313">
        <ele>86.7</ele>
        <time>2019-07-11T07:20:49Z</time>
      </trkpt>
      <trkpt lat="48.79546" lon="-3.36314">
        <ele>86.9</ele>
        <time>2019-07-11T07:20:50Z</time>
      </trkpt>
      <trkpt lat="48.7955" lon="-3.36315">
        <ele>87.1</ele>
        <time>2019-07-11T07:20:51Z</time>
      </trkpt>
      <trkpt lat="48.79554" lon="-3.36316">
        <ele>87.3</ele>
        <time>2019-07-11T07:20:52Z</time>
      </trkpt>
      <trkpt lat="48.79559" lon="-3.36318">
        <ele>87.4</ele>
        <time>2019-07-11T07:20:53Z</time>
      </trkpt>
      <trkpt lat="48.79562" lon="-3.36321">
        <ele>87.3</ele>
        <time>2019-07-11T07:20:54Z</time>
      </trkpt>
      <trkpt lat="48.79565" lon="-3.36326">
        <ele>87.7</ele>
        <time>2019-07-11T07:20:55Z</time>
      </trkpt>
      <trkpt lat="48.79565" lon="-3.36332">
        <ele>88</ele>
        <time>2019-07-11T07:20:56Z</time>
      </trkpt>
      <trkpt lat="48.79565" lon="-3.36339">
        <ele>88.1</ele>
        <time>2019-07-11T07:20:57Z</time>
      </trkpt>
      <trkpt lat="48.79564" lon="-3.36346">
        <ele>88.3</ele>
        <time>2019-07-11T07:20:58Z</time>
      </trkpt>
      <trkpt lat="48.79563" lon="-3.36352">
        <ele>88.8</ele>
        <time>2019-07-11T07:20:59Z</time>
      </trkpt>
      <trkpt lat="48.79562" lon="-3.36357">
        <ele>89.7</ele>
        <time>2019-07-11T07:21:00Z</time>
      </trkpt>
      <trkpt lat="48.7956" lon="-3.36362">
        <ele>90.7</ele>
        <time>2019-07-11T07:21:01Z</time>
      </trkpt>
      <trkpt lat="48.79558" lon="-3.36368">
        <ele>91.2</ele>
        <time>2019-07-11T07:21:02Z</time>
      </trkpt>
      <trkpt lat="48.79557" lon="-3.36373">
        <ele>91.8</ele>
        <time>2019-07-11T07:21:03Z</time>
      </trkpt>
      <trkpt lat="48.79554" lon="-3.36379">
        <ele>92</ele>
        <time>2019-07-11T07:21:04Z</time>
      </trkpt>
      <trkpt lat="48.79553" lon="-3.36384">
        <ele>91.8</ele>
        <time>2019-07-11T07:21:05Z</time>
      </trkpt>
      <trkpt lat="48.79551" lon="-3.3639">
        <ele>91.8</ele>
        <time>2019-07-11T07:21:06Z</time>
      </trkpt>
      <trkpt lat="48.79549" lon="-3.36395">
        <ele>91.8</ele>
        <time>2019-07-11T07:21:07Z</time>
      </trkpt>
      <trkpt lat="48.79547" lon="-3.36401">
        <ele>91.8</ele>
        <time>2019-07-11T07:21:08Z</time>
      </trkpt>
      <trkpt lat="48.79545" lon="-3.36406">
        <ele>91.3</ele>
        <time>2019-07-11T07:21:09Z</time>
      </trkpt>
      <trkpt lat="48.79543" lon="-3.36412">
        <ele>90.6</ele>
        <time>2019-07-11T07:21:10Z</time>
      </trkpt>
      <trkpt lat="48.79541" lon="-3.36417">
        <ele>90.6</ele>
        <time>2019-07-11T07:21:11Z</time>
      </trkpt>
      <trkpt lat="48.79539" lon="-3.36423">
        <ele>90.2</ele>
        <time>2019-07-11T07:21:12Z</time>
      </trkpt>
      <trkpt lat="48.79537" lon="-3.36428">
        <ele>89.8</ele>
        <time>2019-07-11T07:21:13Z</time>
      </trkpt>
      <trkpt lat="48.79535" lon="-3.36433">
        <ele>89.3</ele>
        <time>2019-07-11T07:21:14Z</time>
      </trkpt>
      <trkpt lat="48.79533" lon="-3.36438">
        <ele>89.2</ele>
        <time>2019-07-11T07:21:15Z</time>
      </trkpt>
      <trkpt lat="48.79531" lon="-3.36444">
        <ele>89.4</ele>
        <time>2019-07-11T07:21:16Z</time>
      </trkpt>
      <trkpt lat="48.79529" lon="-3.3645">
        <ele>90.4</ele>
        <time>2019-07-11T07:21:17Z</time>
      </trkpt>
      <trkpt lat="48.79528" lon="-3.36455">
        <ele>90.7</ele>
        <time>2019-07-11T07:21:18Z</time>
      </trkpt>
      <trkpt lat="48.79526" lon="-3.36461">
        <ele>90.9</ele>
        <time>2019-07-11T07:21:19Z</time>
      </trkpt>
      <trkpt lat="48.79525" lon="-3.36466">
        <ele>91.6</ele>
        <time>2019-07-11T07:21:20Z</time>
      </trkpt>
      <trkpt lat="48.79522" lon="-3.36472">
        <ele>91.9</ele>
        <time>2019-07-11T07:21:21Z</time>
      </trkpt>
      <trkpt lat="48.7952" lon="-3.36478">
        <ele>91.7</ele>
        <time>2019-07-11T07:21:22Z</time>
      </trkpt>
      <trkpt lat="48.79518" lon="-3.36484">
        <ele>91.5</ele>
        <time>2019-07-11T07:21:23Z</time>
      </trkpt>
      <trkpt lat="48.79516" lon="-3.3649">
        <ele>91</ele>
        <time>2019-07-11T07:21:24Z</time>
      </trkpt>
      <trkpt lat="48.79513" lon="-3.36496">
        <ele>90.7</ele>
        <time>2019-07-11T07:21:25Z</time>
      </trkpt>
      <trkpt lat="48.7951" lon="-3.36502">
        <ele>90.2</ele>
        <time>2019-07-11T07:21:26Z</time>
      </trkpt>
      <trkpt lat="48.79508" lon="-3.36508">
        <ele>89.7</ele>
        <time>2019-07-11T07:21:27Z</time>
      </trkpt>
      <trkpt lat="48.79505" lon="-3.36514">
        <ele>89.6</ele>
        <time>2019-07-11T07:21:28Z</time>
      </trkpt>
      <trkpt lat="48.79503" lon="-3.36521">
        <ele>89.6</ele>
        <time>2019-07-11T07:21:29Z</time>
      </trkpt>
      <trkpt lat="48.79501" lon="-3.36527">
        <ele>89.9</ele>
        <time>2019-07-11T07:21:30Z</time>
      </trkpt>
      <trkpt lat="48.79499" lon="-3.36533">
        <ele>90.5</ele>
        <time>2019-07-11T07:21:31Z</time>
      </trkpt>
      <trkpt lat="48.79497" lon="-3.3654">
        <ele>90.8</ele>
        <time>2019-07-11T07:21:32Z</time>
      </trkpt>
      <trkpt lat="48.79495" lon="-3.36546">
        <ele>90.9</ele>
        <time>2019-07-11T07:21:33Z</time>
      </trkpt>
      <trkpt lat="48.79492" lon="-3.36552">
        <ele>91.2</ele>
        <time>2019-07-11T07:21:34Z</time>
      </trkpt>
      <trkpt lat="48.7949" lon="-3.36559">
        <ele>91.4</ele>
        <time>2019-07-11T07:21:35Z</time>
      </trkpt>
      <trkpt lat="48.79488" lon="-3.36565">
        <ele>91.6</ele>
        <time>2019-07-11T07:21:36Z</time>
      </trkpt>
      <trkpt lat="48.79485" lon="-3.36571">
        <ele>91.6</ele>
        <time>2019-07-11T07:21:37Z</time>
      </trkpt>
      <trkpt lat="48.79483" lon="-3.36578">
        <ele>91.6</ele>
        <time>2019-07-11T07:21:38Z</time>
      </trkpt>
      <trkpt lat="48.79481" lon="-3.36585">
        <ele>91.6</ele>
        <time>2019-07-11T07:21:39Z</time>
      </trkpt>
      <trkpt lat="48.79479" lon="-3.36591">
        <ele>91.8</ele>
        <time>2019-07-11T07:21:40Z</time>
      </trkpt>
      <trkpt lat="48.79477" lon="-3.36598">
        <ele>91.7</ele>
        <time>2019-07-11T07:21:41Z</time>
      </trkpt>
      <trkpt lat="48.79474" lon="-3.36605">
        <ele>91.3</ele>
        <time>2019-07-11T07:21:42Z</time>
      </trkpt>
      <trkpt lat="48.79472" lon="-3.36612">
        <ele>91.2</ele>
        <time>2019-07-11T07:21:43Z</time>
      </trkpt>
      <trkpt lat="48.79469" lon="-3.36619">
        <ele>90.8</ele>
        <time>2019-07-11T07:21:44Z</time>
      </trkpt>
      <trkpt lat="48.79467" lon="-3.36626">
        <ele>90.6</ele>
        <time>2019-07-11T07:21:45Z</time>
      </trkpt>
      <trkpt lat="48.79464" lon="-3.36633">
        <ele>90.5</ele>
        <time>2019-07-11T07:21:46Z</time>
      </trkpt>
      <trkpt lat="48.79461" lon="-3.36641">
        <ele>90.3</ele>
        <time>2019-07-11T07:21:47Z</time>
      </trkpt>
      <trkpt lat="48.79459" lon="-3.36648">
        <ele>90.4</ele>
        <time>2019-07-11T07:21:48Z</time>
      </trkpt>
      <trkpt lat="48.79456" lon="-3.36655">
        <ele>90.4</ele>
        <time>2019-07-11T07:21:49Z</time>
      </trkpt>
      <trkpt lat="48.79453" lon="-3.36663">
        <ele>90.6</ele>
        <time>2019-07-11T07:21:50Z</time>
      </trkpt>
      <trkpt lat="48.7945" lon="-3.36669">
        <ele>90.8</ele>
        <time>2019-07-11T07:21:51Z</time>
      </trkpt>
      <trkpt lat="48.79447" lon="-3.36675">
        <ele>91.3</ele>
        <time>2019-07-11T07:21:52Z</time>
      </trkpt>
      <trkpt lat="48.79443" lon="-3.3668">
        <ele>91.1</ele>
        <time>2019-07-11T07:21:53Z</time>
      </trkpt>
      <trkpt lat="48.7944" lon="-3.36687">
        <ele>91.2</ele>
        <time>2019-07-11T07:21:54Z</time>
      </trkpt>
      <trkpt lat="48.79437" lon="-3.36692">
        <ele>91.2</ele>
        <time>2019-07-11T07:21:55Z</time>
      </trkpt>
      <trkpt lat="48.79433" lon="-3.36698">
        <ele>90.9</ele>
        <time>2019-07-11T07:21:56Z</time>
      </trkpt>
      <trkpt lat="48.79429" lon="-3.36704">
        <ele>90.7</ele>
        <time>2019-07-11T07:21:57Z</time>
      </trkpt>
      <trkpt lat="48.79425" lon="-3.36709">
        <ele>90.6</ele>
        <time>2019-07-11T07:21:58Z</time>
      </trkpt>
      <trkpt lat="48.79421" lon="-3.36714">
        <ele>90.2</ele>
        <time>2019-07-11T07:21:59Z</time>
      </trkpt>
      <trkpt lat="48.79417" lon="-3.36719">
        <ele>89.5</ele>
        <time>2019-07-11T07:22:00Z</time>
      </trkpt>
      <trkpt lat="48.79413" lon="-3.36725">
        <ele>89</ele>
        <time>2019-07-11T07:22:01Z</time>
      </trkpt>
      <trkpt lat="48.79409" lon="-3.3673">
        <ele>88.6</ele>
        <time>2019-07-11T07:22:02Z</time>
      </trkpt>
      <trkpt lat="48.79406" lon="-3.36735">
        <ele>88.4</ele>
        <time>2019-07-11T07:22:03Z</time>
      </trkpt>
      <trkpt lat="48.79402" lon="-3.36741">
        <ele>88.2</ele>
        <time>2019-07-11T07:22:04Z</time>
      </trkpt>
      <trkpt lat="48.79399" lon="-3.36747">
        <ele>87.4</ele>
        <time>2019-07-11T07:22:05Z</time>
      </trkpt>
      <trkpt lat="48.79396" lon="-3.36753">
        <ele>86.7</ele>
        <time>2019-07-11T07:22:06Z</time>
      </trkpt>
      <trkpt lat="48.79393" lon="-3.36759">
        <ele>86.1</ele>
        <time>2019-07-11T07:22:07Z</time>
      </trkpt>
      <trkpt lat="48.79391" lon="-3.36766">
        <ele>86.4</ele>
        <time>2019-07-11T07:22:08Z</time>
      </trkpt>
      <trkpt lat="48.79388" lon="-3.36771">
        <ele>85.6</ele>
        <time>2019-07-11T07:22:09Z</time>
      </trkpt>
      <trkpt lat="48.79386" lon="-3.36777">
        <ele>85.3</ele>
        <time>2019-07-11T07:22:10Z</time>
      </trkpt>
      <trkpt lat="48.79384" lon="-3.36783">
        <ele>85.1</ele>
        <time>2019-07-11T07:22:11Z</time>
      </trkpt>
      <trkpt lat="48.79382" lon="-3.36789">
        <ele>85.4</ele>
        <time>2019-07-11T07:22:12Z</time>
      </trkpt>
      <trkpt lat="48.7938" lon="-3.36795">
        <ele>85.2</ele>
        <time>2019-07-11T07:22:13Z</time>
      </trkpt>
      <trkpt lat="48.79378" lon="-3.36802">
        <ele>85</ele>
        <time>2019-07-11T07:22:14Z</time>
      </trkpt>
      <trkpt lat="48.79375" lon="-3.36809">
        <ele>85</ele>
        <time>2019-07-11T07:22:15Z</time>
      </trkpt>
      <trkpt lat="48.79372" lon="-3.36817">
        <ele>84.7</ele>
        <time>2019-07-11T07:22:16Z</time>
      </trkpt>
      <trkpt lat="48.7937" lon="-3.36823">
        <ele>84.3</ele>
        <time>2019-07-11T07:22:17Z</time>
      </trkpt>
      <trkpt lat="48.79367" lon="-3.3683">
        <ele>84.2</ele>
        <time>2019-07-11T07:22:18Z</time>
      </trkpt>
      <trkpt lat="48.79364" lon="-3.36837">
        <ele>83.9</ele>
        <time>2019-07-11T07:22:19Z</time>
      </trkpt>
      <trkpt lat="48.79361" lon="-3.36844">
        <ele>83.9</ele>
        <time>2019-07-11T07:22:20Z</time>
      </trkpt>
      <trkpt lat="48.79357" lon="-3.36851">
        <ele>83.4</ele>
        <time>2019-07-11T07:22:21Z</time>
      </trkpt>
      <trkpt lat="48.79352" lon="-3.36856">
        <ele>83</ele>
        <time>2019-07-11T07:22:22Z</time>
      </trkpt>
      <trkpt lat="48.79347" lon="-3.3686">
        <ele>82.4</ele>
        <time>2019-07-11T07:22:23Z</time>
      </trkpt>
      <trkpt lat="48.79341" lon="-3.36863">
        <ele>82.4</ele>
        <time>2019-07-11T07:22:24Z</time>
      </trkpt>
      <trkpt lat="48.79334" lon="-3.36866">
        <ele>82.1</ele>
        <time>2019-07-11T07:22:25Z</time>
      </trkpt>
      <trkpt lat="48.79327" lon="-3.36868">
        <ele>81.4</ele>
        <time>2019-07-11T07:22:26Z</time>
      </trkpt>
      <trkpt lat="48.79321" lon="-3.3687">
        <ele>80.3</ele>
        <time>2019-07-11T07:22:27Z</time>
      </trkpt>
      <trkpt lat="48.79315" lon="-3.36873">
        <ele>79.8</ele>
        <time>2019-07-11T07:22:28Z</time>
      </trkpt>
      <trkpt lat="48.79309" lon="-3.36876">
        <ele>78.7</ele>
        <time>2019-07-11T07:22:29Z</time>
      </trkpt>
      <trkpt lat="48.79303" lon="-3.36879">
        <ele>78.5</ele>
        <time>2019-07-11T07:22:30Z</time>
      </trkpt>
      <trkpt lat="48.79299" lon="-3.36882">
        <ele>78</ele>
        <time>2019-07-11T07:22:31Z</time>
      </trkpt>
      <trkpt lat="48.79294" lon="-3.36886">
        <ele>77.9</ele>
        <time>2019-07-11T07:22:32Z</time>
      </trkpt>
      <trkpt lat="48.79291" lon="-3.36891">
        <ele>78.8</ele>
        <time>2019-07-11T07:22:33Z</time>
      </trkpt>
      <trkpt lat="48.79286" lon="-3.36896">
        <ele>78.9</ele>
        <time>2019-07-11T07:22:34Z</time>
      </trkpt>
      <trkpt lat="48.79283" lon="-3.36902">
        <ele>79.8</ele>
        <time>2019-07-11T07:22:35Z</time>
      </trkpt>
      <trkpt lat="48.79279" lon="-3.36908">
        <ele>80.5</ele>
        <time>2019-07-11T07:22:36Z</time>
      </trkpt>
      <trkpt lat="48.79276" lon="-3.36913">
        <ele>80.7</ele>
        <time>2019-07-11T07:22:37Z</time>
      </trkpt>
      <trkpt lat="48.79273" lon="-3.36919">
        <ele>81.7</ele>
        <time>2019-07-11T07:22:38Z</time>
      </trkpt>
      <trkpt lat="48.79271" lon="-3.36925">
        <ele>81.6</ele>
        <time>2019-07-11T07:22:39Z</time>
      </trkpt>
      <trkpt lat="48.79268" lon="-3.36932">
        <ele>81.9</ele>
        <time>2019-07-11T07:22:40Z</time>
      </trkpt>
      <trkpt lat="48.79265" lon="-3.36938">
        <ele>82.7</ele>
        <time>2019-07-11T07:22:41Z</time>
      </trkpt>
      <trkpt lat="48.79261" lon="-3.36944">
        <ele>83.1</ele>
        <time>2019-07-11T07:22:42Z</time>
      </trkpt>
      <trkpt lat="48.79258" lon="-3.3695">
        <ele>82.8</ele>
        <time>2019-07-11T07:22:43Z</time>
      </trkpt>
      <trkpt lat="48.79255" lon="-3.36956">
        <ele>82.9</ele>
        <time>2019-07-11T07:22:44Z</time>
      </trkpt>
      <trkpt lat="48.79251" lon="-3.36962">
        <ele>82.8</ele>
        <time>2019-07-11T07:22:45Z</time>
      </trkpt>
      <trkpt lat="48.79248" lon="-3.36967">
        <ele>82.4</ele>
        <time>2019-07-11T07:22:46Z</time>
      </trkpt>
      <trkpt lat="48.79245" lon="-3.36973">
        <ele>82.1</ele>
        <time>2019-07-11T07:22:47Z</time>
      </trkpt>
      <trkpt lat="48.79243" lon="-3.36979">
        <ele>81.7</ele>
        <time>2019-07-11T07:22:48Z</time>
      </trkpt>
      <trkpt lat="48.7924" lon="-3.36984">
        <ele>81.5</ele>
        <time>2019-07-11T07:22:49Z</time>
      </trkpt>
      <trkpt lat="48.79237" lon="-3.36989">
        <ele>81.3</ele>
        <time>2019-07-11T07:22:50Z</time>
      </trkpt>
      <trkpt lat="48.79233" lon="-3.36994">
        <ele>81.2</ele>
        <time>2019-07-11T07:22:51Z</time>
      </trkpt>
      <trkpt lat="48.79229" lon="-3.36999">
        <ele>81.1</ele>
        <time>2019-07-11T07:22:52Z</time>
      </trkpt>
      <trkpt lat="48.79225" lon="-3.37003">
        <ele>80.7</ele>
        <time>2019-07-11T07:22:53Z</time>
      </trkpt>
      <trkpt lat="48.79223" lon="-3.37008">
        <ele>81</ele>
        <time>2019-07-11T07:22:54Z</time>
      </trkpt>
      <trkpt lat="48.79219" lon="-3.37014">
        <ele>81.3</ele>
        <time>2019-07-11T07:22:55Z</time>
      </trkpt>
      <trkpt lat="48.79217" lon="-3.37019">
        <ele>81.6</ele>
        <time>2019-07-11T07:22:56Z</time>
      </trkpt>
      <trkpt lat="48.79215" lon="-3.37025">
        <ele>82.5</ele>
        <time>2019-07-11T07:22:57Z</time>
      </trkpt>
      <trkpt lat="48.79214" lon="-3.37031">
        <ele>83.4</ele>
        <time>2019-07-11T07:22:58Z</time>
      </trkpt>
      <trkpt lat="48.79212" lon="-3.37037">
        <ele>83.9</ele>
        <time>2019-07-11T07:22:59Z</time>
      </trkpt>
      <trkpt lat="48.79209" lon="-3.37042">
        <ele>84.6</ele>
        <time>2019-07-11T07:23:00Z</time>
      </trkpt>
      <trkpt lat="48.79206" lon="-3.37049">
        <ele>85.2</ele>
        <time>2019-07-11T07:23:01Z</time>
      </trkpt>
      <trkpt lat="48.79204" lon="-3.37056">
        <ele>85.6</ele>
        <time>2019-07-11T07:23:02Z</time>
      </trkpt>
      <trkpt lat="48.79202" lon="-3.37062">
        <ele>86.1</ele>
        <time>2019-07-11T07:23:03Z</time>
      </trkpt>
      <trkpt lat="48.79199" lon="-3.37069">
        <ele>85.7</ele>
        <time>2019-07-11T07:23:04Z</time>
      </trkpt>
      <trkpt lat="48.79196" lon="-3.37076">
        <ele>86.4</ele>
        <time>2019-07-11T07:23:05Z</time>
      </trkpt>
      <trkpt lat="48.79194" lon="-3.37083">
        <ele>86.9</ele>
        <time>2019-07-11T07:23:06Z</time>
      </trkpt>
      <trkpt lat="48.79192" lon="-3.3709">
        <ele>87.3</ele>
        <time>2019-07-11T07:23:07Z</time>
      </trkpt>
      <trkpt lat="48.7919" lon="-3.37096">
        <ele>87.6</ele>
        <time>2019-07-11T07:23:08Z</time>
      </trkpt>
      <trkpt lat="48.79188" lon="-3.37102">
        <ele>88</ele>
        <time>2019-07-11T07:23:09Z</time>
      </trkpt>
      <trkpt lat="48.79186" lon="-3.37109">
        <ele>88.3</ele>
        <time>2019-07-11T07:23:10Z</time>
      </trkpt>
      <trkpt lat="48.79184" lon="-3.37115">
        <ele>88.5</ele>
        <time>2019-07-11T07:23:11Z</time>
      </trkpt>
      <trkpt lat="48.79182" lon="-3.37121">
        <ele>88.7</ele>
        <time>2019-07-11T07:23:12Z</time>
      </trkpt>
      <trkpt lat="48.79178" lon="-3.37128">
        <ele>88.8</ele>
        <time>2019-07-11T07:23:13Z</time>
      </trkpt>
      <trkpt lat="48.79175" lon="-3.37135">
        <ele>89</ele>
        <time>2019-07-11T07:23:14Z</time>
      </trkpt>
      <trkpt lat="48.79171" lon="-3.3714">
        <ele>88.8</ele>
        <time>2019-07-11T07:23:15Z</time>
      </trkpt>
      <trkpt lat="48.79168" lon="-3.37146">
        <ele>88.2</ele>
        <time>2019-07-11T07:23:16Z</time>
      </trkpt>
      <trkpt lat="48.79163" lon="-3.3715">
        <ele>87.7</ele>
        <time>2019-07-11T07:23:17Z</time>
      </trkpt>
      <trkpt lat="48.7916" lon="-3.37157">
        <ele>87.5</ele>
        <time>2019-07-11T07:23:18Z</time>
      </trkpt>
      <trkpt lat="48.79157" lon="-3.37164">
        <ele>88</ele>
        <time>2019-07-11T07:23:19Z</time>
      </trkpt>
      <trkpt lat="48.79154" lon="-3.37171">
        <ele>88.9</ele>
        <time>2019-07-11T07:23:20Z</time>
      </trkpt>
      <trkpt lat="48.79152" lon="-3.37179">
        <ele>89.6</ele>
        <time>2019-07-11T07:23:21Z</time>
      </trkpt>
      <trkpt lat="48.79148" lon="-3.37184">
        <ele>89.6</ele>
        <time>2019-07-11T07:23:22Z</time>
      </trkpt>
      <trkpt lat="48.79144" lon="-3.37189">
        <ele>90.2</ele>
        <time>2019-07-11T07:23:23Z</time>
      </trkpt>
      <trkpt lat="48.79141" lon="-3.37194">
        <ele>90.6</ele>
        <time>2019-07-11T07:23:24Z</time>
      </trkpt>
      <trkpt lat="48.79136" lon="-3.37198">
        <ele>91.1</ele>
        <time>2019-07-11T07:23:25Z</time>
      </trkpt>
      <trkpt lat="48.79133" lon="-3.37205">
        <ele>91.1</ele>
        <time>2019-07-11T07:23:26Z</time>
      </trkpt>
      <trkpt lat="48.7913" lon="-3.37211">
        <ele>91.2</ele>
        <time>2019-07-11T07:23:27Z</time>
      </trkpt>
      <trkpt lat="48.79126" lon="-3.37218">
        <ele>91</ele>
        <time>2019-07-11T07:23:28Z</time>
      </trkpt>
      <trkpt lat="48.79123" lon="-3.37225">
        <ele>91</ele>
        <time>2019-07-11T07:23:29Z</time>
      </trkpt>
      <trkpt lat="48.79118" lon="-3.37231">
        <ele>90.7</ele>
        <time>2019-07-11T07:23:30Z</time>
      </trkpt>
      <trkpt lat="48.79114" lon="-3.37237">
        <ele>90.4</ele>
        <time>2019-07-11T07:23:31Z</time>
      </trkpt>
      <trkpt lat="48.7911" lon="-3.37244">
        <ele>89.7</ele>
        <time>2019-07-11T07:23:32Z</time>
      </trkpt>
      <trkpt lat="48.79106" lon="-3.3725">
        <ele>89.2</ele>
        <time>2019-07-11T07:23:33Z</time>
      </trkpt>
      <trkpt lat="48.79102" lon="-3.37256">
        <ele>88.4</ele>
        <time>2019-07-11T07:23:34Z</time>
      </trkpt>
      <trkpt lat="48.79097" lon="-3.37263">
        <ele>87.2</ele>
        <time>2019-07-11T07:23:35Z</time>
      </trkpt>
      <trkpt lat="48.79091" lon="-3.37268">
        <ele>86.3</ele>
        <time>2019-07-11T07:23:36Z</time>
      </trkpt>
      <trkpt lat="48.79085" lon="-3.37276">
        <ele>85.5</ele>
        <time>2019-07-11T07:23:37Z</time>
      </trkpt>
      <trkpt lat="48.79079" lon="-3.37286">
        <ele>84.4</ele>
        <time>2019-07-11T07:23:38Z</time>
      </trkpt>
      <trkpt lat="48.79073" lon="-3.37295">
        <ele>83.6</ele>
        <time>2019-07-11T07:23:39Z</time>
      </trkpt>
      <trkpt lat="48.79067" lon="-3.37304">
        <ele>82.9</ele>
        <time>2019-07-11T07:23:40Z</time>
      </trkpt>
      <trkpt lat="48.79061" lon="-3.37313">
        <ele>82.2</ele>
        <time>2019-07-11T07:23:41Z</time>
      </trkpt>
      <trkpt lat="48.79055" lon="-3.37323">
        <ele>81.7</ele>
        <time>2019-07-11T07:23:42Z</time>
      </trkpt>
      <trkpt lat="48.7905" lon="-3.37333">
        <ele>81</ele>
        <time>2019-07-11T07:23:43Z</time>
      </trkpt>
      <trkpt lat="48.79043" lon="-3.37342">
        <ele>81.1</ele>
        <time>2019-07-11T07:23:44Z</time>
      </trkpt>
      <trkpt lat="48.79036" lon="-3.37349">
        <ele>81.2</ele>
        <time>2019-07-11T07:23:45Z</time>
      </trkpt>
      <trkpt lat="48.7903" lon="-3.37356">
        <ele>81.1</ele>
        <time>2019-07-11T07:23:46Z</time>
      </trkpt>
      <trkpt lat="48.79024" lon="-3.37363">
        <ele>80.9</ele>
        <time>2019-07-11T07:23:47Z</time>
      </trkpt>
      <trkpt lat="48.79018" lon="-3.37369">
        <ele>80.5</ele>
        <time>2019-07-11T07:23:48Z</time>
      </trkpt>
      <trkpt lat="48.79013" lon="-3.37374">
        <ele>80.2</ele>
        <time>2019-07-11T07:23:49Z</time>
      </trkpt>
      <trkpt lat="48.79007" lon="-3.37377">
        <ele>80.4</ele>
        <time>2019-07-11T07:23:50Z</time>
      </trkpt>
      <trkpt lat="48.79003" lon="-3.3738">
        <ele>80.4</ele>
        <time>2019-07-11T07:23:51Z</time>
      </trkpt>
      <trkpt lat="48.78999" lon="-3.37382">
        <ele>80.4</ele>
        <time>2019-07-11T07:23:52Z</time>
      </trkpt>
      <trkpt lat="48.78994" lon="-3.37384">
        <ele>80.6</ele>
        <time>2019-07-11T07:23:53Z</time>
      </trkpt>
      <trkpt lat="48.7899" lon="-3.37386">
        <ele>81.1</ele>
        <time>2019-07-11T07:23:54Z</time>
      </trkpt>
      <trkpt lat="48.78984" lon="-3.37387">
        <ele>81.1</ele>
        <time>2019-07-11T07:23:55Z</time>
      </trkpt>
      <trkpt lat="48.78978" lon="-3.37388">
        <ele>81</ele>
        <time>2019-07-11T07:23:56Z</time>
      </trkpt>
      <trkpt lat="48.78973" lon="-3.37389">
        <ele>80.5</ele>
        <time>2019-07-11T07:23:57Z</time>
      </trkpt>
      <trkpt lat="48.78967" lon="-3.3739">
        <ele>79.8</ele>
        <time>2019-07-11T07:23:58Z</time>
      </trkpt>
      <trkpt lat="48.78962" lon="-3.37391">
        <ele>79.1</ele>
        <time>2019-07-11T07:23:59Z</time>
      </trkpt>
      <trkpt lat="48.78957" lon="-3.37392">
        <ele>78.4</ele>
        <time>2019-07-11T07:24:00Z</time>
      </trkpt>
      <trkpt lat="48.78952" lon="-3.37393">
        <ele>78.1</ele>
        <time>2019-07-11T07:24:01Z</time>
      </trkpt>
      <trkpt lat="48.78947" lon="-3.37393">
        <ele>77.5</ele>
        <time>2019-07-11T07:24:02Z</time>
      </trkpt>
      <trkpt lat="48.78943" lon="-3.37393">
        <ele>77</ele>
        <time>2019-07-11T07:24:03Z</time>
      </trkpt>
      <trkpt lat="48.78938" lon="-3.37393">
        <ele>76.8</ele>
        <time>2019-07-11T07:24:04Z</time>
      </trkpt>
      <trkpt lat="48.78933" lon="-3.37395">
        <ele>77</ele>
        <time>2019-07-11T07:24:05Z</time>
      </trkpt>
      <trkpt lat="48.78928" lon="-3.37395">
        <ele>77.3</ele>
        <time>2019-07-11T07:24:06Z</time>
      </trkpt>
      <trkpt lat="48.78923" lon="-3.37396">
        <ele>77.8</ele>
        <time>2019-07-11T07:24:07Z</time>
      </trkpt>
      <trkpt lat="48.78919" lon="-3.37397">
        <ele>77.7</ele>
        <time>2019-07-11T07:24:08Z</time>
      </trkpt>
      <trkpt lat="48.78913" lon="-3.37398">
        <ele>76.9</ele>
        <time>2019-07-11T07:24:09Z</time>
      </trkpt>
      <trkpt lat="48.78909" lon="-3.37398">
        <ele>76.9</ele>
        <time>2019-07-11T07:24:10Z</time>
      </trkpt>
      <trkpt lat="48.78903" lon="-3.37399">
        <ele>76.2</ele>
        <time>2019-07-11T07:24:11Z</time>
      </trkpt>
      <trkpt lat="48.78898" lon="-3.374">
        <ele>75.7</ele>
        <time>2019-07-11T07:24:12Z</time>
      </trkpt>
      <trkpt lat="48.78894" lon="-3.37401">
        <ele>75.6</ele>
        <time>2019-07-11T07:24:13Z</time>
      </trkpt>
      <trkpt lat="48.78889" lon="-3.37403">
        <ele>75.3</ele>
        <time>2019-07-11T07:24:14Z</time>
      </trkpt>
      <trkpt lat="48.78885" lon="-3.37404">
        <ele>75.1</ele>
        <time>2019-07-11T07:24:15Z</time>
      </trkpt>
      <trkpt lat="48.7888" lon="-3.37406">
        <ele>74.6</ele>
        <time>2019-07-11T07:24:16Z</time>
      </trkpt>
      <trkpt lat="48.78876" lon="-3.37407">
        <ele>74.4</ele>
        <time>2019-07-11T07:24:17Z</time>
      </trkpt>
      <trkpt lat="48.78871" lon="-3.37409">
        <ele>74.1</ele>
        <time>2019-07-11T07:24:18Z</time>
      </trkpt>
      <trkpt lat="48.78867" lon="-3.37411">
        <ele>73.6</ele>
        <time>2019-07-11T07:24:19Z</time>
      </trkpt>
      <trkpt lat="48.78862" lon="-3.37413">
        <ele>73.1</ele>
        <time>2019-07-11T07:24:20Z</time>
      </trkpt>
      <trkpt lat="48.78858" lon="-3.37415">
        <ele>72.4</ele>
        <time>2019-07-11T07:24:21Z</time>
      </trkpt>
      <trkpt lat="48.78854" lon="-3.37417">
        <ele>71.9</ele>
        <time>2019-07-11T07:24:22Z</time>
      </trkpt>
      <trkpt lat="48.7885" lon="-3.37418">
        <ele>71.4</ele>
        <time>2019-07-11T07:24:23Z</time>
      </trkpt>
      <trkpt lat="48.78846" lon="-3.37419">
        <ele>71.3</ele>
        <time>2019-07-11T07:24:24Z</time>
      </trkpt>
      <trkpt lat="48.78841" lon="-3.3742">
        <ele>70.7</ele>
        <time>2019-07-11T07:24:25Z</time>
      </trkpt>
      <trkpt lat="48.78837" lon="-3.37422">
        <ele>70.7</ele>
        <time>2019-07-11T07:24:26Z</time>
      </trkpt>
      <trkpt lat="48.78833" lon="-3.37424">
        <ele>70.3</ele>
        <time>2019-07-11T07:24:27Z</time>
      </trkpt>
      <trkpt lat="48.78829" lon="-3.37425">
        <ele>70</ele>
        <time>2019-07-11T07:24:28Z</time>
      </trkpt>
      <trkpt lat="48.78825" lon="-3.37427">
        <ele>69.6</ele>
        <time>2019-07-11T07:24:29Z</time>
      </trkpt>
      <trkpt lat="48.7882" lon="-3.37428">
        <ele>68.9</ele>
        <time>2019-07-11T07:24:30Z</time>
      </trkpt>
      <trkpt lat="48.78816" lon="-3.3743">
        <ele>68.1</ele>
        <time>2019-07-11T07:24:31Z</time>
      </trkpt>
      <trkpt lat="48.78812" lon="-3.37432">
        <ele>67.7</ele>
        <time>2019-07-11T07:24:32Z</time>
      </trkpt>
      <trkpt lat="48.78807" lon="-3.37433">
        <ele>67.4</ele>
        <time>2019-07-11T07:24:33Z</time>
      </trkpt>
      <trkpt lat="48.78803" lon="-3.37435">
        <ele>67.5</ele>
        <time>2019-07-11T07:24:34Z</time>
      </trkpt>
      <trkpt lat="48.78798" lon="-3.37436">
        <ele>67.7</ele>
        <time>2019-07-11T07:24:35Z</time>
      </trkpt>
      <trkpt lat="48.78794" lon="-3.37438">
        <ele>68</ele>
        <time>2019-07-11T07:24:36Z</time>
      </trkpt>
      <trkpt lat="48.7879" lon="-3.37439">
        <ele>68.2</ele>
        <time>2019-07-11T07:24:37Z</time>
      </trkpt>
      <trkpt lat="48.78785" lon="-3.3744">
        <ele>69</ele>
        <time>2019-07-11T07:24:38Z</time>
      </trkpt>
      <trkpt lat="48.78781" lon="-3.37442">
        <ele>69.4</ele>
        <time>2019-07-11T07:24:39Z</time>
      </trkpt>
      <trkpt lat="48.78777" lon="-3.37443">
        <ele>69.6</ele>
        <time>2019-07-11T07:24:40Z</time>
      </trkpt>
      <trkpt lat="48.78772" lon="-3.37445">
        <ele>69.9</ele>
        <time>2019-07-11T07:24:41Z</time>
      </trkpt>
      <trkpt lat="48.78768" lon="-3.37446">
        <ele>70.3</ele>
        <time>2019-07-11T07:24:42Z</time>
      </trkpt>
      <trkpt lat="48.78764" lon="-3.37447">
        <ele>70.7</ele>
        <time>2019-07-11T07:24:43Z</time>
      </trkpt>
      <trkpt lat="48.78759" lon="-3.37448">
        <ele>70.7</ele>
        <time>2019-07-11T07:24:44Z</time>
      </trkpt>
      <trkpt lat="48.78755" lon="-3.3745">
        <ele>70.4</ele>
        <time>2019-07-11T07:24:45Z</time>
      </trkpt>
      <trkpt lat="48.78751" lon="-3.37452">
        <ele>72.4</ele>
        <time>2019-07-11T07:24:46Z</time>
      </trkpt>
      <trkpt lat="48.78748" lon="-3.37454">
        <ele>74</ele>
        <time>2019-07-11T07:24:47Z</time>
      </trkpt>
      <trkpt lat="48.78743" lon="-3.37456">
        <ele>74.6</ele>
        <time>2019-07-11T07:24:48Z</time>
      </trkpt>
      <trkpt lat="48.78739" lon="-3.37458">
        <ele>75.2</ele>
        <time>2019-07-11T07:24:49Z</time>
      </trkpt>
      <trkpt lat="48.78735" lon="-3.37459">
        <ele>75.4</ele>
        <time>2019-07-11T07:24:50Z</time>
      </trkpt>
      <trkpt lat="48.7873" lon="-3.37462">
        <ele>75.6</ele>
        <time>2019-07-11T07:24:51Z</time>
      </trkpt>
      <trkpt lat="48.78725" lon="-3.37464">
        <ele>74.8</ele>
        <time>2019-07-11T07:24:52Z</time>
      </trkpt>
      <trkpt lat="48.78719" lon="-3.37466">
        <ele>75.1</ele>
        <time>2019-07-11T07:24:53Z</time>
      </trkpt>
      <trkpt lat="48.78714" lon="-3.37467">
        <ele>75.2</ele>
        <time>2019-07-11T07:24:54Z</time>
      </trkpt>
      <trkpt lat="48.78709" lon="-3.37468">
        <ele>75.2</ele>
        <time>2019-07-11T07:24:55Z</time>
      </trkpt>
      <trkpt lat="48.78703" lon="-3.37469">
        <ele>74.9</ele>
        <time>2019-07-11T07:24:56Z</time>
      </trkpt>
      <trkpt lat="48.78696" lon="-3.37469">
        <ele>74.5</ele>
        <time>2019-07-11T07:24:57Z</time>
      </trkpt>
      <trkpt lat="48.7869" lon="-3.37468">
        <ele>74.4</ele>
        <time>2019-07-11T07:24:58Z</time>
      </trkpt>
      <trkpt lat="48.78684" lon="-3.37467">
        <ele>74.6</ele>
        <time>2019-07-11T07:24:59Z</time>
      </trkpt>
      <trkpt lat="48.78678" lon="-3.37466">
        <ele>74.3</ele>
        <time>2019-07-11T07:25:00Z</time>
      </trkpt>
      <trkpt lat="48.78672" lon="-3.37465">
        <ele>74.6</ele>
        <time>2019-07-11T07:25:01Z</time>
      </trkpt>
      <trkpt lat="48.78666" lon="-3.37463">
        <ele>75.1</ele>
        <time>2019-07-11T07:25:02Z</time>
      </trkpt>
      <trkpt lat="48.7866" lon="-3.37462">
        <ele>75.4</ele>
        <time>2019-07-11T07:25:03Z</time>
      </trkpt>
      <trkpt lat="48.78654" lon="-3.37461">
        <ele>75.4</ele>
        <time>2019-07-11T07:25:04Z</time>
      </trkpt>
      <trkpt lat="48.78648" lon="-3.3746">
        <ele>75.4</ele>
        <time>2019-07-11T07:25:05Z</time>
      </trkpt>
      <trkpt lat="48.78642" lon="-3.37459">
        <ele>75.2</ele>
        <time>2019-07-11T07:25:06Z</time>
      </trkpt>
      <trkpt lat="48.78636" lon="-3.37457">
        <ele>75.2</ele>
        <time>2019-07-11T07:25:07Z</time>
      </trkpt>
      <trkpt lat="48.78629" lon="-3.37456">
        <ele>74.6</ele>
        <time>2019-07-11T07:25:08Z</time>
      </trkpt>
      <trkpt lat="48.78623" lon="-3.37455">
        <ele>74.7</ele>
        <time>2019-07-11T07:25:09Z</time>
      </trkpt>
      <trkpt lat="48.78618" lon="-3.37453">
        <ele>74.7</ele>
        <time>2019-07-11T07:25:10Z</time>
      </trkpt>
      <trkpt lat="48.78611" lon="-3.37452">
        <ele>74.4</ele>
        <time>2019-07-11T07:25:11Z</time>
      </trkpt>
      <trkpt lat="48.78604" lon="-3.37451">
        <ele>74</ele>
        <time>2019-07-11T07:25:12Z</time>
      </trkpt>
      <trkpt lat="48.78597" lon="-3.37449">
        <ele>73.4</ele>
        <time>2019-07-11T07:25:13Z</time>
      </trkpt>
      <trkpt lat="48.7859" lon="-3.37448">
        <ele>73</ele>
        <time>2019-07-11T07:25:14Z</time>
      </trkpt>
      <trkpt lat="48.78582" lon="-3.37446">
        <ele>72.2</ele>
        <time>2019-07-11T07:25:15Z</time>
      </trkpt>
      <trkpt lat="48.78574" lon="-3.37445">
        <ele>71.1</ele>
        <time>2019-07-11T07:25:16Z</time>
      </trkpt>
      <trkpt lat="48.78566" lon="-3.37442">
        <ele>70.7</ele>
        <time>2019-07-11T07:25:17Z</time>
      </trkpt>
      <trkpt lat="48.78557" lon="-3.37439">
        <ele>69.6</ele>
        <time>2019-07-11T07:25:18Z</time>
      </trkpt>
      <trkpt lat="48.78549" lon="-3.37437">
        <ele>69.1</ele>
        <time>2019-07-11T07:25:19Z</time>
      </trkpt>
      <trkpt lat="48.78541" lon="-3.37435">
        <ele>68.8</ele>
        <time>2019-07-11T07:25:20Z</time>
      </trkpt>
      <trkpt lat="48.78533" lon="-3.37436">
        <ele>69</ele>
        <time>2019-07-11T07:25:21Z</time>
      </trkpt>
      <trkpt lat="48.78526" lon="-3.37435">
        <ele>68.8</ele>
        <time>2019-07-11T07:25:22Z</time>
      </trkpt>
      <trkpt lat="48.78521" lon="-3.37436">
        <ele>68.8</ele>
        <time>2019-07-11T07:25:23Z</time>
      </trkpt>
      <trkpt lat="48.7852" lon="-3.37439">
        <ele>68.9</ele>
        <time>2019-07-11T07:25:24Z</time>
      </trkpt>
      <trkpt lat="48.78518" lon="-3.37442">
        <ele>68.9</ele>
        <time>2019-07-11T07:25:25Z</time>
      </trkpt>
      <trkpt lat="48.78517" lon="-3.37448">
        <ele>69.2</ele>
        <time>2019-07-11T07:25:26Z</time>
      </trkpt>
      <trkpt lat="48.78516" lon="-3.37455">
        <ele>69.3</ele>
        <time>2019-07-11T07:25:27Z</time>
      </trkpt>
      <trkpt lat="48.78517" lon="-3.37462">
        <ele>69.5</ele>
        <time>2019-07-11T07:25:28Z</time>
      </trkpt>
      <trkpt lat="48.78518" lon="-3.3747">
        <ele>69.9</ele>
        <time>2019-07-11T07:25:29Z</time>
      </trkpt>
      <trkpt lat="48.78518" lon="-3.37477">
        <ele>69.7</ele>
        <time>2019-07-11T07:25:30Z</time>
      </trkpt>
      <trkpt lat="48.78518" lon="-3.37485">
        <ele>69.7</ele>
        <time>2019-07-11T07:25:31Z</time>
      </trkpt>
      <trkpt lat="48.78516" lon="-3.37492">
        <ele>69.6</ele>
        <time>2019-07-11T07:25:32Z</time>
      </trkpt>
      <trkpt lat="48.78515" lon="-3.37501">
        <ele>69.7</ele>
        <time>2019-07-11T07:25:33Z</time>
      </trkpt>
      <trkpt lat="48.78512" lon="-3.37507">
        <ele>69.6</ele>
        <time>2019-07-11T07:25:34Z</time>
      </trkpt>
      <trkpt lat="48.78509" lon="-3.3751">
        <ele>69.1</ele>
        <time>2019-07-11T07:25:35Z</time>
      </trkpt>
      <trkpt lat="48.78505" lon="-3.37513">
        <ele>69</ele>
        <time>2019-07-11T07:25:36Z</time>
      </trkpt>
      <trkpt lat="48.78502" lon="-3.37514">
        <ele>69</ele>
        <time>2019-07-11T07:25:37Z</time>
      </trkpt>
      <trkpt lat="48.78499" lon="-3.37515">
        <ele>69</ele>
        <time>2019-07-11T07:25:38Z</time>
      </trkpt>
      <trkpt lat="48.78496" lon="-3.37516">
        <ele>69.9</ele>
        <time>2019-07-11T07:25:39Z</time>
      </trkpt>
      <trkpt lat="48.78493" lon="-3.37516">
        <ele>70.3</ele>
        <time>2019-07-11T07:25:40Z</time>
      </trkpt>
      <trkpt lat="48.78489" lon="-3.37517">
        <ele>70.8</ele>
        <time>2019-07-11T07:25:41Z</time>
      </trkpt>
      <trkpt lat="48.78485" lon="-3.37518">
        <ele>71</ele>
        <time>2019-07-11T07:25:42Z</time>
      </trkpt>
      <trkpt lat="48.78481" lon="-3.37518">
        <ele>71.4</ele>
        <time>2019-07-11T07:25:43Z</time>
      </trkpt>
      <trkpt lat="48.78478" lon="-3.37518">
        <ele>71.8</ele>
        <time>2019-07-11T07:25:44Z</time>
      </trkpt>
      <trkpt lat="48.78473" lon="-3.37517">
        <ele>72</ele>
        <time>2019-07-11T07:25:45Z</time>
      </trkpt>
      <trkpt lat="48.78468" lon="-3.37517">
        <ele>72.8</ele>
        <time>2019-07-11T07:25:46Z</time>
      </trkpt>
      <trkpt lat="48.78463" lon="-3.37516">
        <ele>72.9</ele>
        <time>2019-07-11T07:25:47Z</time>
      </trkpt>
      <trkpt lat="48.78458" lon="-3.37514">
        <ele>73.5</ele>
        <time>2019-07-11T07:25:48Z</time>
      </trkpt>
      <trkpt lat="48.78453" lon="-3.37512">
        <ele>74.1</ele>
        <time>2019-07-11T07:25:49Z</time>
      </trkpt>
      <trkpt lat="48.78448" lon="-3.37512">
        <ele>74.2</ele>
        <time>2019-07-11T07:25:50Z</time>
      </trkpt>
      <trkpt lat="48.78442" lon="-3.37511">
        <ele>74</ele>
        <time>2019-07-11T07:25:51Z</time>
      </trkpt>
      <trkpt lat="48.78436" lon="-3.37511">
        <ele>73.9</ele>
        <time>2019-07-11T07:25:52Z</time>
      </trkpt>
      <trkpt lat="48.7843" lon="-3.37512">
        <ele>73.5</ele>
        <time>2019-07-11T07:25:53Z</time>
      </trkpt>
      <trkpt lat="48.78425" lon="-3.37513">
        <ele>73.6</ele>
        <time>2019-07-11T07:25:54Z</time>
      </trkpt>
      <trkpt lat="48.7842" lon="-3.37514">
        <ele>73.5</ele>
        <time>2019-07-11T07:25:55Z</time>
      </trkpt>
      <trkpt lat="48.78415" lon="-3.37514">
        <ele>73.2</ele>
        <time>2019-07-11T07:25:56Z</time>
      </trkpt>
      <trkpt lat="48.7841" lon="-3.37515">
        <ele>73.1</ele>
        <time>2019-07-11T07:25:57Z</time>
      </trkpt>
      <trkpt lat="48.78406" lon="-3.37516">
        <ele>72.6</ele>
        <time>2019-07-11T07:25:58Z</time>
      </trkpt>
      <trkpt lat="48.78401" lon="-3.37516">
        <ele>72.6</ele>
        <time>2019-07-11T07:25:59Z</time>
      </trkpt>
      <trkpt lat="48.78397" lon="-3.37517">
        <ele>73.2</ele>
        <time>2019-07-11T07:26:00Z</time>
      </trkpt>
      <trkpt lat="48.78393" lon="-3.37519">
        <ele>73.1</ele>
        <time>2019-07-11T07:26:01Z</time>
      </trkpt>
      <trkpt lat="48.78389" lon="-3.37521">
        <ele>72.7</ele>
        <time>2019-07-11T07:26:02Z</time>
      </trkpt>
      <trkpt lat="48.78385" lon="-3.37523">
        <ele>72.7</ele>
        <time>2019-07-11T07:26:03Z</time>
      </trkpt>
      <trkpt lat="48.78381" lon="-3.37526">
        <ele>72.6</ele>
        <time>2019-07-11T07:26:04Z</time>
      </trkpt>
      <trkpt lat="48.78379" lon="-3.37528">
        <ele>72.9</ele>
        <time>2019-07-11T07:26:05Z</time>
      </trkpt>
      <trkpt lat="48.78376" lon="-3.3753">
        <ele>72.6</ele>
        <time>2019-07-11T07:26:06Z</time>
      </trkpt>
      <trkpt lat="48.78373" lon="-3.37532">
        <ele>72.5</ele>
        <time>2019-07-11T07:26:07Z</time>
      </trkpt>
      <trkpt lat="48.7837" lon="-3.37535">
        <ele>72</ele>
        <time>2019-07-11T07:26:08Z</time>
      </trkpt>
      <trkpt lat="48.78366" lon="-3.37538">
        <ele>71.6</ele>
        <time>2019-07-11T07:26:09Z</time>
      </trkpt>
      <trkpt lat="48.78363" lon="-3.37542">
        <ele>71</ele>
        <time>2019-07-11T07:26:10Z</time>
      </trkpt>
      <trkpt lat="48.7836" lon="-3.37545">
        <ele>70.6</ele>
        <time>2019-07-11T07:26:11Z</time>
      </trkpt>
      <trkpt lat="48.78357" lon="-3.37547">
        <ele>70.1</ele>
        <time>2019-07-11T07:26:12Z</time>
      </trkpt>
      <trkpt lat="48.78354" lon="-3.37549">
        <ele>69.8</ele>
        <time>2019-07-11T07:26:13Z</time>
      </trkpt>
      <trkpt lat="48.78351" lon="-3.37552">
        <ele>69.4</ele>
        <time>2019-07-11T07:26:14Z</time>
      </trkpt>
      <trkpt lat="48.78348" lon="-3.37555">
        <ele>69.4</ele>
        <time>2019-07-11T07:26:15Z</time>
      </trkpt>
      <trkpt lat="48.78344" lon="-3.37559">
        <ele>69.3</ele>
        <time>2019-07-11T07:26:16Z</time>
      </trkpt>
      <trkpt lat="48.78341" lon="-3.37563">
        <ele>69.5</ele>
        <time>2019-07-11T07:26:17Z</time>
      </trkpt>
      <trkpt lat="48.78338" lon="-3.37569">
        <ele>69.4</ele>
        <time>2019-07-11T07:26:18Z</time>
      </trkpt>
      <trkpt lat="48.78334" lon="-3.37575">
        <ele>70.2</ele>
        <time>2019-07-11T07:26:19Z</time>
      </trkpt>
      <trkpt lat="48.78331" lon="-3.37582">
        <ele>70.6</ele>
        <time>2019-07-11T07:26:20Z</time>
      </trkpt>
      <trkpt lat="48.78329" lon="-3.37588">
        <ele>70.7</ele>
        <time>2019-07-11T07:26:21Z</time>
      </trkpt>
      <trkpt lat="48.78327" lon="-3.37594">
        <ele>71</ele>
        <time>2019-07-11T07:26:22Z</time>
      </trkpt>
      <trkpt lat="48.78325" lon="-3.37599">
        <ele>71.9</ele>
        <time>2019-07-11T07:26:23Z</time>
      </trkpt>
      <trkpt lat="48.78325" lon="-3.37604">
        <ele>73.3</ele>
        <time>2019-07-11T07:26:24Z</time>
      </trkpt>
      <trkpt lat="48.78324" lon="-3.37609">
        <ele>74.5</ele>
        <time>2019-07-11T07:26:25Z</time>
      </trkpt>
      <trkpt lat="48.78323" lon="-3.37614">
        <ele>75.2</ele>
        <time>2019-07-11T07:26:26Z</time>
      </trkpt>
      <trkpt lat="48.78322" lon="-3.37618">
        <ele>75.2</ele>
        <time>2019-07-11T07:26:27Z</time>
      </trkpt>
      <trkpt lat="48.7832" lon="-3.37623">
        <ele>76.2</ele>
        <time>2019-07-11T07:26:28Z</time>
      </trkpt>
      <trkpt lat="48.7832" lon="-3.37626">
        <ele>77.1</ele>
        <time>2019-07-11T07:26:29Z</time>
      </trkpt>
      <trkpt lat="48.78318" lon="-3.3763">
        <ele>77.6</ele>
        <time>2019-07-11T07:26:30Z</time>
      </trkpt>
      <trkpt lat="48.78317" lon="-3.37633">
        <ele>78.4</ele>
        <time>2019-07-11T07:26:31Z</time>
      </trkpt>
      <trkpt lat="48.78315" lon="-3.37637">
        <ele>79.4</ele>
        <time>2019-07-11T07:26:32Z</time>
      </trkpt>
      <trkpt lat="48.78315" lon="-3.37641">
        <ele>80.2</ele>
        <time>2019-07-11T07:26:33Z</time>
      </trkpt>
      <trkpt lat="48.78314" lon="-3.37645">
        <ele>80.8</ele>
        <time>2019-07-11T07:26:34Z</time>
      </trkpt>
      <trkpt lat="48.78312" lon="-3.37649">
        <ele>80.6</ele>
        <time>2019-07-11T07:26:35Z</time>
      </trkpt>
      <trkpt lat="48.78312" lon="-3.37653">
        <ele>81.3</ele>
        <time>2019-07-11T07:26:36Z</time>
      </trkpt>
      <trkpt lat="48.78311" lon="-3.37656">
        <ele>81.9</ele>
        <time>2019-07-11T07:26:37Z</time>
      </trkpt>
      <trkpt lat="48.78311" lon="-3.37658">
        <ele>82.2</ele>
        <time>2019-07-11T07:26:38Z</time>
      </trkpt>
      <trkpt lat="48.78311" lon="-3.3766">
        <ele>82.8</ele>
        <time>2019-07-11T07:26:39Z</time>
      </trkpt>
      <trkpt lat="48.78311" lon="-3.37663">
        <ele>83.5</ele>
        <time>2019-07-11T07:26:40Z</time>
      </trkpt>
      <trkpt lat="48.7831" lon="-3.37667">
        <ele>84.4</ele>
        <time>2019-07-11T07:26:41Z</time>
      </trkpt>
      <trkpt lat="48.7831" lon="-3.37671">
        <ele>85</ele>
        <time>2019-07-11T07:26:42Z</time>
      </trkpt>
      <trkpt lat="48.78309" lon="-3.37675">
        <ele>85.3</ele>
        <time>2019-07-11T07:26:43Z</time>
      </trkpt>
      <trkpt lat="48.78309" lon="-3.37679">
        <ele>85.2</ele>
        <time>2019-07-11T07:26:44Z</time>
      </trkpt>
      <trkpt lat="48.78309" lon="-3.37683">
        <ele>85.6</ele>
        <time>2019-07-11T07:26:45Z</time>
      </trkpt>
      <trkpt lat="48.78308" lon="-3.37688">
        <ele>85.4</ele>
        <time>2019-07-11T07:26:46Z</time>
      </trkpt>
      <trkpt lat="48.78309" lon="-3.37692">
        <ele>84.5</ele>
        <time>2019-07-11T07:26:47Z</time>
      </trkpt>
      <trkpt lat="48.78309" lon="-3.37695">
        <ele>84.3</ele>
        <time>2019-07-11T07:26:48Z</time>
      </trkpt>
      <trkpt lat="48.78311" lon="-3.37698">
        <ele>83.8</ele>
        <time>2019-07-11T07:26:49Z</time>
      </trkpt>
      <trkpt lat="48.78312" lon="-3.37701">
        <ele>83.6</ele>
        <time>2019-07-11T07:26:50Z</time>
      </trkpt>
      <trkpt lat="48.78313" lon="-3.37703">
        <ele>82.8</ele>
        <time>2019-07-11T07:26:51Z</time>
      </trkpt>
      <trkpt lat="48.78315" lon="-3.37706">
        <ele>82.6</ele>
        <time>2019-07-11T07:26:52Z</time>
      </trkpt>
      <trkpt lat="48.78317" lon="-3.37709">
        <ele>82.4</ele>
        <time>2019-07-11T07:26:53Z</time>
      </trkpt>
      <trkpt lat="48.78319" lon="-3.37713">
        <ele>81.9</ele>
        <time>2019-07-11T07:26:54Z</time>
      </trkpt>
      <trkpt lat="48.78321" lon="-3.37716">
        <ele>81.6</ele>
        <time>2019-07-11T07:26:55Z</time>
      </trkpt>
      <trkpt lat="48.78323" lon="-3.37719">
        <ele>80.9</ele>
        <time>2019-07-11T07:26:56Z</time>
      </trkpt>
      <trkpt lat="48.78325" lon="-3.37722">
        <ele>79.8</ele>
        <time>2019-07-11T07:26:57Z</time>
      </trkpt>
      <trkpt lat="48.78326" lon="-3.37725">
        <ele>79</ele>
        <time>2019-07-11T07:26:58Z</time>
      </trkpt>
      <trkpt lat="48.78328" lon="-3.37728">
        <ele>78.3</ele>
        <time>2019-07-11T07:26:59Z</time>
      </trkpt>
      <trkpt lat="48.7833" lon="-3.37732">
        <ele>78</ele>
        <time>2019-07-11T07:27:00Z</time>
      </trkpt>
      <trkpt lat="48.78332" lon="-3.37736">
        <ele>77.6</ele>
        <time>2019-07-11T07:27:01Z</time>
      </trkpt>
      <trkpt lat="48.78334" lon="-3.37739">
        <ele>77.4</ele>
        <time>2019-07-11T07:27:02Z</time>
      </trkpt>
      <trkpt lat="48.78336" lon="-3.37741">
        <ele>77.6</ele>
        <time>2019-07-11T07:27:03Z</time>
      </trkpt>
      <trkpt lat="48.78338" lon="-3.37744">
        <ele>77.7</ele>
        <time>2019-07-11T07:27:04Z</time>
      </trkpt>
      <trkpt lat="48.7834" lon="-3.37746">
        <ele>78.3</ele>
        <time>2019-07-11T07:27:05Z</time>
      </trkpt>
      <trkpt lat="48.78342" lon="-3.37747">
        <ele>78.3</ele>
        <time>2019-07-11T07:27:06Z</time>
      </trkpt>
      <trkpt lat="48.78345" lon="-3.37748">
        <ele>78.7</ele>
        <time>2019-07-11T07:27:07Z</time>
      </trkpt>
      <trkpt lat="48.78347" lon="-3.37747">
        <ele>79.1</ele>
        <time>2019-07-11T07:27:08Z</time>
      </trkpt>
      <trkpt lat="48.7835" lon="-3.37745">
        <ele>79.4</ele>
        <time>2019-07-11T07:27:09Z</time>
      </trkpt>
      <trkpt lat="48.78352" lon="-3.37742">
        <ele>79.1</ele>
        <time>2019-07-11T07:27:10Z</time>
      </trkpt>
      <trkpt lat="48.78354" lon="-3.37738">
        <ele>79.5</ele>
        <time>2019-07-11T07:27:11Z</time>
      </trkpt>
      <trkpt lat="48.78356" lon="-3.37735">
        <ele>80</ele>
        <time>2019-07-11T07:27:12Z</time>
      </trkpt>
      <trkpt lat="48.78358" lon="-3.37732">
        <ele>80.3</ele>
        <time>2019-07-11T07:27:13Z</time>
      </trkpt>
      <trkpt lat="48.7836" lon="-3.37728">
        <ele>80.7</ele>
        <time>2019-07-11T07:27:14Z</time>
      </trkpt>
      <trkpt lat="48.78362" lon="-3.37725">
        <ele>80.7</ele>
        <time>2019-07-11T07:27:15Z</time>
      </trkpt>
      <trkpt lat="48.78365" lon="-3.37721">
        <ele>80.6</ele>
        <time>2019-07-11T07:27:16Z</time>
      </trkpt>
      <trkpt lat="48.78367" lon="-3.37718">
        <ele>80.6</ele>
        <time>2019-07-11T07:27:17Z</time>
      </trkpt>
      <trkpt lat="48.7837" lon="-3.37716">
        <ele>81</ele>
        <time>2019-07-11T07:27:18Z</time>
      </trkpt>
      <trkpt lat="48.78373" lon="-3.37715">
        <ele>80.9</ele>
        <time>2019-07-11T07:27:19Z</time>
      </trkpt>
      <trkpt lat="48.78376" lon="-3.37714">
        <ele>81.7</ele>
        <time>2019-07-11T07:27:20Z</time>
      </trkpt>
      <trkpt lat="48.78379" lon="-3.37714">
        <ele>81.5</ele>
        <time>2019-07-11T07:27:21Z</time>
      </trkpt>
      <trkpt lat="48.78381" lon="-3.37715">
        <ele>81.2</ele>
        <time>2019-07-11T07:27:22Z</time>
      </trkpt>
      <trkpt lat="48.78384" lon="-3.37717">
        <ele>81.1</ele>
        <time>2019-07-11T07:27:23Z</time>
      </trkpt>
      <trkpt lat="48.78386" lon="-3.3772">
        <ele>80.8</ele>
        <time>2019-07-11T07:27:24Z</time>
      </trkpt>
      <trkpt lat="48.78388" lon="-3.37722">
        <ele>81.3</ele>
        <time>2019-07-11T07:27:25Z</time>
      </trkpt>
      <trkpt lat="48.78391" lon="-3.37725">
        <ele>81.8</ele>
        <time>2019-07-11T07:27:26Z</time>
      </trkpt>
      <trkpt lat="48.78393" lon="-3.37728">
        <ele>81.8</ele>
        <time>2019-07-11T07:27:27Z</time>
      </trkpt>
      <trkpt lat="48.78396" lon="-3.37731">
        <ele>81.8</ele>
        <time>2019-07-11T07:27:28Z</time>
      </trkpt>
      <trkpt lat="48.78398" lon="-3.37734">
        <ele>82.1</ele>
        <time>2019-07-11T07:27:29Z</time>
      </trkpt>
      <trkpt lat="48.784" lon="-3.37738">
        <ele>82.1</ele>
        <time>2019-07-11T07:27:30Z</time>
      </trkpt>
      <trkpt lat="48.78403" lon="-3.37741">
        <ele>82.3</ele>
        <time>2019-07-11T07:27:31Z</time>
      </trkpt>
      <trkpt lat="48.78406" lon="-3.37744">
        <ele>82.2</ele>
        <time>2019-07-11T07:27:32Z</time>
      </trkpt>
      <trkpt lat="48.78408" lon="-3.37747">
        <ele>82.5</ele>
        <time>2019-07-11T07:27:33Z</time>
      </trkpt>
      <trkpt lat="48.7841" lon="-3.3775">
        <ele>82.6</ele>
        <time>2019-07-11T07:27:34Z</time>
      </trkpt>
      <trkpt lat="48.78413" lon="-3.37753">
        <ele>82.5</ele>
        <time>2019-07-11T07:27:35Z</time>
      </trkpt>
      <trkpt lat="48.78416" lon="-3.37756">
        <ele>82.1</ele>
        <time>2019-07-11T07:27:36Z</time>
      </trkpt>
      <trkpt lat="48.78419" lon="-3.37759">
        <ele>82.2</ele>
        <time>2019-07-11T07:27:37Z</time>
      </trkpt>
      <trkpt lat="48.78422" lon="-3.37762">
        <ele>82.4</ele>
        <time>2019-07-11T07:27:38Z</time>
      </trkpt>
      <trkpt lat="48.78425" lon="-3.37765">
        <ele>82.5</ele>
        <time>2019-07-11T07:27:39Z</time>
      </trkpt>
      <trkpt lat="48.78427" lon="-3.37768">
        <ele>82.3</ele>
        <time>2019-07-11T07:27:40Z</time>
      </trkpt>
      <trkpt lat="48.7843" lon="-3.37772">
        <ele>82.4</ele>
        <time>2019-07-11T07:27:41Z</time>
      </trkpt>
      <trkpt lat="48.78433" lon="-3.37775">
        <ele>82.3</ele>
        <time>2019-07-11T07:27:42Z</time>
      </trkpt>
      <trkpt lat="48.78436" lon="-3.37778">
        <ele>82.3</ele>
        <time>2019-07-11T07:27:43Z</time>
      </trkpt>
      <trkpt lat="48.78439" lon="-3.37781">
        <ele>82.5</ele>
        <time>2019-07-11T07:27:44Z</time>
      </trkpt>
      <trkpt lat="48.78442" lon="-3.37785">
        <ele>82.6</ele>
        <time>2019-07-11T07:27:45Z</time>
      </trkpt>
      <trkpt lat="48.78445" lon="-3.37789">
        <ele>82.7</ele>
        <time>2019-07-11T07:27:46Z</time>
      </trkpt>
      <trkpt lat="48.78449" lon="-3.37793">
        <ele>82.9</ele>
        <time>2019-07-11T07:27:47Z</time>
      </trkpt>
      <trkpt lat="48.78453" lon="-3.37797">
        <ele>82.4</ele>
        <time>2019-07-11T07:27:48Z</time>
      </trkpt>
      <trkpt lat="48.78455" lon="-3.37801">
        <ele>82.2</ele>
        <time>2019-07-11T07:27:49Z</time>
      </trkpt>
      <trkpt lat="48.78458" lon="-3.37804">
        <ele>81.9</ele>
        <time>2019-07-11T07:27:50Z</time>
      </trkpt>
      <trkpt lat="48.78462" lon="-3.37808">
        <ele>81.6</ele>
        <time>2019-07-11T07:27:51Z</time>
      </trkpt>
      <trkpt lat="48.78465" lon="-3.37812">
        <ele>81</ele>
        <time>2019-07-11T07:27:52Z</time>
      </trkpt>
      <trkpt lat="48.78468" lon="-3.37816">
        <ele>80.5</ele>
        <time>2019-07-11T07:27:53Z</time>
      </trkpt>
      <trkpt lat="48.78471" lon="-3.3782">
        <ele>80.2</ele>
        <time>2019-07-11T07:27:54Z</time>
      </trkpt>
      <trkpt lat="48.78475" lon="-3.37823">
        <ele>80.2</ele>
        <time>2019-07-11T07:27:55Z</time>
      </trkpt>
      <trkpt lat="48.78478" lon="-3.37827">
        <ele>80.4</ele>
        <time>2019-07-11T07:27:56Z</time>
      </trkpt>
      <trkpt lat="48.78482" lon="-3.37831">
        <ele>80.2</ele>
        <time>2019-07-11T07:27:57Z</time>
      </trkpt>
      <trkpt lat="48.78486" lon="-3.37835">
        <ele>80.1</ele>
        <time>2019-07-11T07:27:58Z</time>
      </trkpt>
      <trkpt lat="48.7849" lon="-3.3784">
        <ele>80.3</ele>
        <time>2019-07-11T07:27:59Z</time>
      </trkpt>
      <trkpt lat="48.78494" lon="-3.37844">
        <ele>80.3</ele>
        <time>2019-07-11T07:28:00Z</time>
      </trkpt>
      <trkpt lat="48.78497" lon="-3.37849">
        <ele>80.6</ele>
        <time>2019-07-11T07:28:01Z</time>
      </trkpt>
      <trkpt lat="48.78502" lon="-3.37854">
        <ele>80.3</ele>
        <time>2019-07-11T07:28:02Z</time>
      </trkpt>
      <trkpt lat="48.78505" lon="-3.37859">
        <ele>80.1</ele>
        <time>2019-07-11T07:28:03Z</time>
      </trkpt>
      <trkpt lat="48.7851" lon="-3.37865">
        <ele>79.8</ele>
        <time>2019-07-11T07:28:04Z</time>
      </trkpt>
      <trkpt lat="48.78514" lon="-3.3787">
        <ele>79.5</ele>
        <time>2019-07-11T07:28:05Z</time>
      </trkpt>
      <trkpt lat="48.78518" lon="-3.37875">
        <ele>79.3</ele>
        <time>2019-07-11T07:28:06Z</time>
      </trkpt>
      <trkpt lat="48.78522" lon="-3.37879">
        <ele>79.1</ele>
        <time>2019-07-11T07:28:07Z</time>
      </trkpt>
      <trkpt lat="48.78525" lon="-3.37883">
        <ele>78.6</ele>
        <time>2019-07-11T07:28:08Z</time>
      </trkpt>
      <trkpt lat="48.78529" lon="-3.37887">
        <ele>78.4</ele>
        <time>2019-07-11T07:28:09Z</time>
      </trkpt>
      <trkpt lat="48.78532" lon="-3.37891">
        <ele>78.3</ele>
        <time>2019-07-11T07:28:10Z</time>
      </trkpt>
      <trkpt lat="48.78536" lon="-3.37895">
        <ele>78.2</ele>
        <time>2019-07-11T07:28:11Z</time>
      </trkpt>
      <trkpt lat="48.78539" lon="-3.37899">
        <ele>78.2</ele>
        <time>2019-07-11T07:28:12Z</time>
      </trkpt>
      <trkpt lat="48.78541" lon="-3.37902">
        <ele>77.8</ele>
        <time>2019-07-11T07:28:13Z</time>
      </trkpt>
      <trkpt lat="48.78544" lon="-3.37906">
        <ele>77.4</ele>
        <time>2019-07-11T07:28:14Z</time>
      </trkpt>
      <trkpt lat="48.78547" lon="-3.37909">
        <ele>77</ele>
        <time>2019-07-11T07:28:15Z</time>
      </trkpt>
      <trkpt lat="48.7855" lon="-3.37913">
        <ele>76.3</ele>
        <time>2019-07-11T07:28:16Z</time>
      </trkpt>
      <trkpt lat="48.78553" lon="-3.37916">
        <ele>75.5</ele>
        <time>2019-07-11T07:28:17Z</time>
      </trkpt>
      <trkpt lat="48.78555" lon="-3.37919">
        <ele>75.1</ele>
        <time>2019-07-11T07:28:18Z</time>
      </trkpt>
      <trkpt lat="48.78558" lon="-3.37921">
        <ele>74.9</ele>
        <time>2019-07-11T07:28:19Z</time>
      </trkpt>
      <trkpt lat="48.7856" lon="-3.37924">
        <ele>74.6</ele>
        <time>2019-07-11T07:28:20Z</time>
      </trkpt>
      <trkpt lat="48.78563" lon="-3.37925">
        <ele>74.1</ele>
        <time>2019-07-11T07:28:21Z</time>
      </trkpt>
      <trkpt lat="48.78566" lon="-3.37926">
        <ele>73.9</ele>
        <time>2019-07-11T07:28:22Z</time>
      </trkpt>
      <trkpt lat="48.78569" lon="-3.37926">
        <ele>73.7</ele>
        <time>2019-07-11T07:28:23Z</time>
      </trkpt>
      <trkpt lat="48.78572" lon="-3.37926">
        <ele>73.4</ele>
        <time>2019-07-11T07:28:24Z</time>
      </trkpt>
      <trkpt lat="48.78575" lon="-3.37926">
        <ele>73</ele>
        <time>2019-07-11T07:28:25Z</time>
      </trkpt>
      <trkpt lat="48.78578" lon="-3.37927">
        <ele>72.6</ele>
        <time>2019-07-11T07:28:26Z</time>
      </trkpt>
      <trkpt lat="48.78582" lon="-3.37926">
        <ele>72.4</ele>
        <time>2019-07-11T07:28:27Z</time>
      </trkpt>
      <trkpt lat="48.78585" lon="-3.37926">
        <ele>72.7</ele>
        <time>2019-07-11T07:28:28Z</time>
      </trkpt>
      <trkpt lat="48.78588" lon="-3.37926">
        <ele>72.7</ele>
        <time>2019-07-11T07:28:29Z</time>
      </trkpt>
      <trkpt lat="48.78592" lon="-3.37925">
        <ele>72.7</ele>
        <time>2019-07-11T07:28:30Z</time>
      </trkpt>
      <trkpt lat="48.78595" lon="-3.37924">
        <ele>72.4</ele>
        <time>2019-07-11T07:28:31Z</time>
      </trkpt>
      <trkpt lat="48.78599" lon="-3.37925">
        <ele>72.6</ele>
        <time>2019-07-11T07:28:32Z</time>
      </trkpt>
      <trkpt lat="48.78603" lon="-3.37926">
        <ele>72.4</ele>
        <time>2019-07-11T07:28:33Z</time>
      </trkpt>
      <trkpt lat="48.78607" lon="-3.37926">
        <ele>71.9</ele>
        <time>2019-07-11T07:28:34Z</time>
      </trkpt>
      <trkpt lat="48.78611" lon="-3.37927">
        <ele>71.6</ele>
        <time>2019-07-11T07:28:35Z</time>
      </trkpt>
      <trkpt lat="48.78614" lon="-3.37928">
        <ele>71.3</ele>
        <time>2019-07-11T07:28:36Z</time>
      </trkpt>
      <trkpt lat="48.78618" lon="-3.37929">
        <ele>71.1</ele>
        <time>2019-07-11T07:28:37Z</time>
      </trkpt>
      <trkpt lat="48.7862" lon="-3.37931">
        <ele>70.9</ele>
        <time>2019-07-11T07:28:38Z</time>
      </trkpt>
      <trkpt lat="48.78623" lon="-3.37933">
        <ele>71.2</ele>
        <time>2019-07-11T07:28:39Z</time>
      </trkpt>
      <trkpt lat="48.78625" lon="-3.37935">
        <ele>71.7</ele>
        <time>2019-07-11T07:28:40Z</time>
      </trkpt>
      <trkpt lat="48.78628" lon="-3.37937">
        <ele>72.2</ele>
        <time>2019-07-11T07:28:41Z</time>
      </trkpt>
      <trkpt lat="48.78631" lon="-3.37938">
        <ele>72.7</ele>
        <time>2019-07-11T07:28:42Z</time>
      </trkpt>
      <trkpt lat="48.78634" lon="-3.37939">
        <ele>73</ele>
        <time>2019-07-11T07:28:43Z</time>
      </trkpt>
      <trkpt lat="48.78637" lon="-3.3794">
        <ele>73.1</ele>
        <time>2019-07-11T07:28:44Z</time>
      </trkpt>
      <trkpt lat="48.7864" lon="-3.37941">
        <ele>73.1</ele>
        <time>2019-07-11T07:28:45Z</time>
      </trkpt>
      <trkpt lat="48.78643" lon="-3.37942">
        <ele>73.2</ele>
        <time>2019-07-11T07:28:46Z</time>
      </trkpt>
      <trkpt lat="48.78645" lon="-3.37944">
        <ele>73.8</ele>
        <time>2019-07-11T07:28:47Z</time>
      </trkpt>
      <trkpt lat="48.78648" lon="-3.37945">
        <ele>74.3</ele>
        <time>2019-07-11T07:28:48Z</time>
      </trkpt>
      <trkpt lat="48.7865" lon="-3.37946">
        <ele>74.8</ele>
        <time>2019-07-11T07:28:49Z</time>
      </trkpt>
      <trkpt lat="48.78652" lon="-3.37948">
        <ele>75.8</ele>
        <time>2019-07-11T07:28:50Z</time>
      </trkpt>
      <trkpt lat="48.78654" lon="-3.3795">
        <ele>76.8</ele>
        <time>2019-07-11T07:28:51Z</time>
      </trkpt>
      <trkpt lat="48.78656" lon="-3.37951">
        <ele>77.7</ele>
        <time>2019-07-11T07:28:52Z</time>
      </trkpt>
      <trkpt lat="48.78659" lon="-3.37952">
        <ele>77.3</ele>
        <time>2019-07-11T07:28:53Z</time>
      </trkpt>
      <trkpt lat="48.78662" lon="-3.37953">
        <ele>76.8</ele>
        <time>2019-07-11T07:28:54Z</time>
      </trkpt>
      <trkpt lat="48.78665" lon="-3.37955">
        <ele>76.6</ele>
        <time>2019-07-11T07:28:55Z</time>
      </trkpt>
      <trkpt lat="48.78668" lon="-3.37957">
        <ele>76.3</ele>
        <time>2019-07-11T07:28:56Z</time>
      </trkpt>
      <trkpt lat="48.7867" lon="-3.37959">
        <ele>76.4</ele>
        <time>2019-07-11T07:28:57Z</time>
      </trkpt>
      <trkpt lat="48.78673" lon="-3.37961">
        <ele>76.5</ele>
        <time>2019-07-11T07:28:58Z</time>
      </trkpt>
      <trkpt lat="48.78676" lon="-3.37964">
        <ele>76.7</ele>
        <time>2019-07-11T07:28:59Z</time>
      </trkpt>
      <trkpt lat="48.78679" lon="-3.37967">
        <ele>76.9</ele>
        <time>2019-07-11T07:29:00Z</time>
      </trkpt>
      <trkpt lat="48.78683" lon="-3.37971">
        <ele>76.9</ele>
        <time>2019-07-11T07:29:01Z</time>
      </trkpt>
      <trkpt lat="48.78687" lon="-3.37974">
        <ele>77.5</ele>
        <time>2019-07-11T07:29:02Z</time>
      </trkpt>
      <trkpt lat="48.78689" lon="-3.37976">
        <ele>77.7</ele>
        <time>2019-07-11T07:29:03Z</time>
      </trkpt>
      <trkpt lat="48.78692" lon="-3.37979">
        <ele>77.8</ele>
        <time>2019-07-11T07:29:04Z</time>
      </trkpt>
      <trkpt lat="48.78695" lon="-3.37981">
        <ele>78.2</ele>
        <time>2019-07-11T07:29:05Z</time>
      </trkpt>
      <trkpt lat="48.78698" lon="-3.37984">
        <ele>78.4</ele>
        <time>2019-07-11T07:29:06Z</time>
      </trkpt>
      <trkpt lat="48.78701" lon="-3.37987">
        <ele>79.3</ele>
        <time>2019-07-11T07:29:07Z</time>
      </trkpt>
      <trkpt lat="48.78704" lon="-3.37989">
        <ele>79.2</ele>
        <time>2019-07-11T07:29:08Z</time>
      </trkpt>
      <trkpt lat="48.78706" lon="-3.37991">
        <ele>79.9</ele>
        <time>2019-07-11T07:29:09Z</time>
      </trkpt>
      <trkpt lat="48.78709" lon="-3.37993">
        <ele>80.4</ele>
        <time>2019-07-11T07:29:10Z</time>
      </trkpt>
      <trkpt lat="48.78712" lon="-3.37996">
        <ele>80.5</ele>
        <time>2019-07-11T07:29:11Z</time>
      </trkpt>
      <trkpt lat="48.78716" lon="-3.37998">
        <ele>80.8</ele>
        <time>2019-07-11T07:29:12Z</time>
      </trkpt>
      <trkpt lat="48.78719" lon="-3.38">
        <ele>80.9</ele>
        <time>2019-07-11T07:29:13Z</time>
      </trkpt>
      <trkpt lat="48.78721" lon="-3.38002">
        <ele>81</ele>
        <time>2019-07-11T07:29:14Z</time>
      </trkpt>
      <trkpt lat="48.78724" lon="-3.38004">
        <ele>81.4</ele>
        <time>2019-07-11T07:29:15Z</time>
      </trkpt>
      <trkpt lat="48.78727" lon="-3.38005">
        <ele>81.4</ele>
        <time>2019-07-11T07:29:16Z</time>
      </trkpt>
      <trkpt lat="48.78729" lon="-3.38007">
        <ele>81.4</ele>
        <time>2019-07-11T07:29:17Z</time>
      </trkpt>
      <trkpt lat="48.78732" lon="-3.38008">
        <ele>81.4</ele>
        <time>2019-07-11T07:29:18Z</time>
      </trkpt>
      <trkpt lat="48.78735" lon="-3.38009">
        <ele>81.1</ele>
        <time>2019-07-11T07:29:19Z</time>
      </trkpt>
      <trkpt lat="48.78738" lon="-3.3801">
        <ele>81.3</ele>
        <time>2019-07-11T07:29:20Z</time>
      </trkpt>
      <trkpt lat="48.78741" lon="-3.38011">
        <ele>81</ele>
        <time>2019-07-11T07:29:21Z</time>
      </trkpt>
      <trkpt lat="48.78744" lon="-3.38011">
        <ele>80.8</ele>
        <time>2019-07-11T07:29:22Z</time>
      </trkpt>
      <trkpt lat="48.78747" lon="-3.38012">
        <ele>81.1</ele>
        <time>2019-07-11T07:29:23Z</time>
      </trkpt>
      <trkpt lat="48.7875" lon="-3.38012">
        <ele>81.4</ele>
        <time>2019-07-11T07:29:24Z</time>
      </trkpt>
      <trkpt lat="48.78753" lon="-3.38012">
        <ele>81.6</ele>
        <time>2019-07-11T07:29:25Z</time>
      </trkpt>
      <trkpt lat="48.78756" lon="-3.38012">
        <ele>81.5</ele>
        <time>2019-07-11T07:29:26Z</time>
      </trkpt>
      <trkpt lat="48.78759" lon="-3.38012">
        <ele>81.1</ele>
        <time>2019-07-11T07:29:27Z</time>
      </trkpt>
      <trkpt lat="48.78762" lon="-3.38013">
        <ele>80.7</ele>
        <time>2019-07-11T07:29:28Z</time>
      </trkpt>
      <trkpt lat="48.78764" lon="-3.38013">
        <ele>80.5</ele>
        <time>2019-07-11T07:29:29Z</time>
      </trkpt>
      <trkpt lat="48.78767" lon="-3.38013">
        <ele>80.1</ele>
        <time>2019-07-11T07:29:30Z</time>
      </trkpt>
      <trkpt lat="48.7877" lon="-3.38015">
        <ele>79.7</ele>
        <time>2019-07-11T07:29:31Z</time>
      </trkpt>
      <trkpt lat="48.78774" lon="-3.38016">
        <ele>79.8</ele>
        <time>2019-07-11T07:29:32Z</time>
      </trkpt>
      <trkpt lat="48.78777" lon="-3.38018">
        <ele>79.9</ele>
        <time>2019-07-11T07:29:33Z</time>
      </trkpt>
      <trkpt lat="48.78781" lon="-3.38019">
        <ele>79.4</ele>
        <time>2019-07-11T07:29:34Z</time>
      </trkpt>
      <trkpt lat="48.78784" lon="-3.3802">
        <ele>78.6</ele>
        <time>2019-07-11T07:29:35Z</time>
      </trkpt>
      <trkpt lat="48.78787" lon="-3.38021">
        <ele>77.5</ele>
        <time>2019-07-11T07:29:36Z</time>
      </trkpt>
      <trkpt lat="48.7879" lon="-3.38022">
        <ele>77.2</ele>
        <time>2019-07-11T07:29:37Z</time>
      </trkpt>
      <trkpt lat="48.78793" lon="-3.38023">
        <ele>77</ele>
        <time>2019-07-11T07:29:38Z</time>
      </trkpt>
      <trkpt lat="48.78796" lon="-3.38024">
        <ele>76.4</ele>
        <time>2019-07-11T07:29:39Z</time>
      </trkpt>
      <trkpt lat="48.78799" lon="-3.38027">
        <ele>76</ele>
        <time>2019-07-11T07:29:40Z</time>
      </trkpt>
      <trkpt lat="48.78803" lon="-3.38029">
        <ele>75.7</ele>
        <time>2019-07-11T07:29:41Z</time>
      </trkpt>
      <trkpt lat="48.78806" lon="-3.3803">
        <ele>75.2</ele>
        <time>2019-07-11T07:29:42Z</time>
      </trkpt>
      <trkpt lat="48.78809" lon="-3.38032">
        <ele>75</ele>
        <time>2019-07-11T07:29:43Z</time>
      </trkpt>
      <trkpt lat="48.78813" lon="-3.38033">
        <ele>74.8</ele>
        <time>2019-07-11T07:29:44Z</time>
      </trkpt>
      <trkpt lat="48.78817" lon="-3.38035">
        <ele>74.6</ele>
        <time>2019-07-11T07:29:45Z</time>
      </trkpt>
      <trkpt lat="48.78822" lon="-3.38036">
        <ele>74.4</ele>
        <time>2019-07-11T07:29:46Z</time>
      </trkpt>
      <trkpt lat="48.78826" lon="-3.38036">
        <ele>74.3</ele>
        <time>2019-07-11T07:29:47Z</time>
      </trkpt>
      <trkpt lat="48.7883" lon="-3.38037">
        <ele>74.5</ele>
        <time>2019-07-11T07:29:48Z</time>
      </trkpt>
      <trkpt lat="48.78835" lon="-3.38039">
        <ele>74.5</ele>
        <time>2019-07-11T07:29:49Z</time>
      </trkpt>
      <trkpt lat="48.78839" lon="-3.38041">
        <ele>74</ele>
        <time>2019-07-11T07:29:50Z</time>
      </trkpt>
      <trkpt lat="48.78844" lon="-3.38043">
        <ele>73.4</ele>
        <time>2019-07-11T07:29:51Z</time>
      </trkpt>
      <trkpt lat="48.78848" lon="-3.38045">
        <ele>73.3</ele>
        <time>2019-07-11T07:29:52Z</time>
      </trkpt>
      <trkpt lat="48.78853" lon="-3.38047">
        <ele>73.3</ele>
        <time>2019-07-11T07:29:53Z</time>
      </trkpt>
      <trkpt lat="48.78857" lon="-3.38048">
        <ele>73.7</ele>
        <time>2019-07-11T07:29:54Z</time>
      </trkpt>
      <trkpt lat="48.78861" lon="-3.38051">
        <ele>73.5</ele>
        <time>2019-07-11T07:29:55Z</time>
      </trkpt>
      <trkpt lat="48.78866" lon="-3.38052">
        <ele>73.3</ele>
        <time>2019-07-11T07:29:56Z</time>
      </trkpt>
      <trkpt lat="48.7887" lon="-3.38053">
        <ele>73.4</ele>
        <time>2019-07-11T07:29:57Z</time>
      </trkpt>
      <trkpt lat="48.78875" lon="-3.38055">
        <ele>74</ele>
        <time>2019-07-11T07:29:58Z</time>
      </trkpt>
      <trkpt lat="48.78878" lon="-3.38056">
        <ele>74</ele>
        <time>2019-07-11T07:29:59Z</time>
      </trkpt>
      <trkpt lat="48.78882" lon="-3.38057">
        <ele>74.6</ele>
        <time>2019-07-11T07:30:00Z</time>
      </trkpt>
      <trkpt lat="48.78886" lon="-3.38058">
        <ele>74.7</ele>
        <time>2019-07-11T07:30:01Z</time>
      </trkpt>
      <trkpt lat="48.78891" lon="-3.3806">
        <ele>74.8</ele>
        <time>2019-07-11T07:30:02Z</time>
      </trkpt>
      <trkpt lat="48.78895" lon="-3.38061">
        <ele>75.4</ele>
        <time>2019-07-11T07:30:03Z</time>
      </trkpt>
      <trkpt lat="48.78899" lon="-3.38062">
        <ele>75.6</ele>
        <time>2019-07-11T07:30:04Z</time>
      </trkpt>
      <trkpt lat="48.78903" lon="-3.38063">
        <ele>75.8</ele>
        <time>2019-07-11T07:30:05Z</time>
      </trkpt>
      <trkpt lat="48.78907" lon="-3.38063">
        <ele>76.3</ele>
        <time>2019-07-11T07:30:06Z</time>
      </trkpt>
      <trkpt lat="48.78911" lon="-3.38063">
        <ele>75.7</ele>
        <time>2019-07-11T07:30:07Z</time>
      </trkpt>
      <trkpt lat="48.78915" lon="-3.38064">
        <ele>75.6</ele>
        <time>2019-07-11T07:30:08Z</time>
      </trkpt>
      <trkpt lat="48.7892" lon="-3.38065">
        <ele>75.2</ele>
        <time>2019-07-11T07:30:09Z</time>
      </trkpt>
      <trkpt lat="48.78924" lon="-3.38067">
        <ele>74.5</ele>
        <time>2019-07-11T07:30:10Z</time>
      </trkpt>
      <trkpt lat="48.7893" lon="-3.38068">
        <ele>74</ele>
        <time>2019-07-11T07:30:11Z</time>
      </trkpt>
      <trkpt lat="48.78935" lon="-3.3807">
        <ele>73.2</ele>
        <time>2019-07-11T07:30:12Z</time>
      </trkpt>
      <trkpt lat="48.7894" lon="-3.38072">
        <ele>73.1</ele>
        <time>2019-07-11T07:30:13Z</time>
      </trkpt>
      <trkpt lat="48.78946" lon="-3.38075">
        <ele>73.2</ele>
        <time>2019-07-11T07:30:14Z</time>
      </trkpt>
      <trkpt lat="48.78952" lon="-3.38077">
        <ele>73.2</ele>
        <time>2019-07-11T07:30:15Z</time>
      </trkpt>
      <trkpt lat="48.78957" lon="-3.38081">
        <ele>73.1</ele>
        <time>2019-07-11T07:30:16Z</time>
      </trkpt>
      <trkpt lat="48.78962" lon="-3.38085">
        <ele>73.4</ele>
        <time>2019-07-11T07:30:17Z</time>
      </trkpt>
      <trkpt lat="48.78968" lon="-3.38089">
        <ele>73.5</ele>
        <time>2019-07-11T07:30:18Z</time>
      </trkpt>
      <trkpt lat="48.78972" lon="-3.38095">
        <ele>73</ele>
        <time>2019-07-11T07:30:19Z</time>
      </trkpt>
      <trkpt lat="48.78976" lon="-3.38101">
        <ele>72.2</ele>
        <time>2019-07-11T07:30:20Z</time>
      </trkpt>
      <trkpt lat="48.78981" lon="-3.38107">
        <ele>71.7</ele>
        <time>2019-07-11T07:30:21Z</time>
      </trkpt>
      <trkpt lat="48.78985" lon="-3.38115">
        <ele>71.6</ele>
        <time>2019-07-11T07:30:22Z</time>
      </trkpt>
      <trkpt lat="48.78989" lon="-3.38122">
        <ele>71.6</ele>
        <time>2019-07-11T07:30:23Z</time>
      </trkpt>
      <trkpt lat="48.78993" lon="-3.3813">
        <ele>71.3</ele>
        <time>2019-07-11T07:30:24Z</time>
      </trkpt>
      <trkpt lat="48.78996" lon="-3.38137">
        <ele>71.3</ele>
        <time>2019-07-11T07:30:25Z</time>
      </trkpt>
      <trkpt lat="48.79" lon="-3.38145">
        <ele>71.2</ele>
        <time>2019-07-11T07:30:26Z</time>
      </trkpt>
      <trkpt lat="48.79003" lon="-3.38152">
        <ele>71.1</ele>
        <time>2019-07-11T07:30:27Z</time>
      </trkpt>
      <trkpt lat="48.79006" lon="-3.38159">
        <ele>70.6</ele>
        <time>2019-07-11T07:30:28Z</time>
      </trkpt>
      <trkpt lat="48.79009" lon="-3.38166">
        <ele>70.5</ele>
        <time>2019-07-11T07:30:29Z</time>
      </trkpt>
      <trkpt lat="48.7901" lon="-3.38174">
        <ele>70.3</ele>
        <time>2019-07-11T07:30:30Z</time>
      </trkpt>
      <trkpt lat="48.79011" lon="-3.38182">
        <ele>70.3</ele>
        <time>2019-07-11T07:30:31Z</time>
      </trkpt>
      <trkpt lat="48.79012" lon="-3.38189">
        <ele>70.5</ele>
        <time>2019-07-11T07:30:32Z</time>
      </trkpt>
      <trkpt lat="48.79012" lon="-3.38194">
        <ele>70.5</ele>
        <time>2019-07-11T07:30:33Z</time>
      </trkpt>
      <trkpt lat="48.79013" lon="-3.38198">
        <ele>70.3</ele>
        <time>2019-07-11T07:30:34Z</time>
      </trkpt>
      <trkpt lat="48.79013" lon="-3.38201">
        <ele>70.4</ele>
        <time>2019-07-11T07:30:35Z</time>
      </trkpt>
      <trkpt lat="48.79014" lon="-3.38202">
        <ele>70.4</ele>
        <time>2019-07-11T07:30:36Z</time>
      </trkpt>
      <trkpt lat="48.79014" lon="-3.38204">
        <ele>70.1</ele>
        <time>2019-07-11T07:30:37Z</time>
      </trkpt>
      <trkpt lat="48.79015" lon="-3.38206">
        <ele>69.6</ele>
        <time>2019-07-11T07:30:38Z</time>
      </trkpt>
      <trkpt lat="48.79016" lon="-3.38208">
        <ele>69.8</ele>
        <time>2019-07-11T07:30:39Z</time>
      </trkpt>
      <trkpt lat="48.79017" lon="-3.38211">
        <ele>70.2</ele>
        <time>2019-07-11T07:30:40Z</time>
      </trkpt>
      <trkpt lat="48.79017" lon="-3.38215">
        <ele>70.3</ele>
        <time>2019-07-11T07:30:41Z</time>
      </trkpt>
      <trkpt lat="48.79018" lon="-3.38218">
        <ele>70.4</ele>
        <time>2019-07-11T07:30:42Z</time>
      </trkpt>
      <trkpt lat="48.79018" lon="-3.38222">
        <ele>70.8</ele>
        <time>2019-07-11T07:30:43Z</time>
      </trkpt>
      <trkpt lat="48.79019" lon="-3.38227">
        <ele>71</ele>
        <time>2019-07-11T07:30:44Z</time>
      </trkpt>
      <trkpt lat="48.79019" lon="-3.38231">
        <ele>71.2</ele>
        <time>2019-07-11T07:30:45Z</time>
      </trkpt>
      <trkpt lat="48.79019" lon="-3.38236">
        <ele>72</ele>
        <time>2019-07-11T07:30:46Z</time>
      </trkpt>
      <trkpt lat="48.79019" lon="-3.3824">
        <ele>72.5</ele>
        <time>2019-07-11T07:30:47Z</time>
      </trkpt>
      <trkpt lat="48.79019" lon="-3.38245">
        <ele>73</ele>
        <time>2019-07-11T07:30:48Z</time>
      </trkpt>
      <trkpt lat="48.79019" lon="-3.3825">
        <ele>73.7</ele>
        <time>2019-07-11T07:30:49Z</time>
      </trkpt>
      <trkpt lat="48.7902" lon="-3.38254">
        <ele>74.3</ele>
        <time>2019-07-11T07:30:50Z</time>
      </trkpt>
      <trkpt lat="48.79019" lon="-3.38258">
        <ele>75.1</ele>
        <time>2019-07-11T07:30:51Z</time>
      </trkpt>
      <trkpt lat="48.79019" lon="-3.38263">
        <ele>75.6</ele>
        <time>2019-07-11T07:30:52Z</time>
      </trkpt>
      <trkpt lat="48.79019" lon="-3.38267">
        <ele>76.3</ele>
        <time>2019-07-11T07:30:53Z</time>
      </trkpt>
      <trkpt lat="48.79019" lon="-3.38272">
        <ele>76.9</ele>
        <time>2019-07-11T07:30:54Z</time>
      </trkpt>
      <trkpt lat="48.79019" lon="-3.38276">
        <ele>77.7</ele>
        <time>2019-07-11T07:30:55Z</time>
      </trkpt>
      <trkpt lat="48.79019" lon="-3.3828">
        <ele>78.3</ele>
        <time>2019-07-11T07:30:56Z</time>
      </trkpt>
      <trkpt lat="48.79019" lon="-3.38285">
        <ele>78.8</ele>
        <time>2019-07-11T07:30:57Z</time>
      </trkpt>
      <trkpt lat="48.79019" lon="-3.38289">
        <ele>78.9</ele>
        <time>2019-07-11T07:30:58Z</time>
      </trkpt>
      <trkpt lat="48.79018" lon="-3.38293">
        <ele>79.1</ele>
        <time>2019-07-11T07:30:59Z</time>
      </trkpt>
      <trkpt lat="48.79018" lon="-3.38297">
        <ele>79.1</ele>
        <time>2019-07-11T07:31:00Z</time>
      </trkpt>
      <trkpt lat="48.79018" lon="-3.38301">
        <ele>79.4</ele>
        <time>2019-07-11T07:31:01Z</time>
      </trkpt>
      <trkpt lat="48.79018" lon="-3.38306">
        <ele>79.8</ele>
        <time>2019-07-11T07:31:02Z</time>
      </trkpt>
      <trkpt lat="48.79018" lon="-3.3831">
        <ele>80.3</ele>
        <time>2019-07-11T07:31:03Z</time>
      </trkpt>
      <trkpt lat="48.79018" lon="-3.38314">
        <ele>80.5</ele>
        <time>2019-07-11T07:31:04Z</time>
      </trkpt>
      <trkpt lat="48.79018" lon="-3.38318">
        <ele>80.2</ele>
        <time>2019-07-11T07:31:05Z</time>
      </trkpt>
      <trkpt lat="48.79018" lon="-3.38323">
        <ele>79.8</ele>
        <time>2019-07-11T07:31:06Z</time>
      </trkpt>
      <trkpt lat="48.79018" lon="-3.38328">
        <ele>79.8</ele>
        <time>2019-07-11T07:31:07Z</time>
      </trkpt>
      <trkpt lat="48.79018" lon="-3.38333">
        <ele>80</ele>
        <time>2019-07-11T07:31:08Z</time>
      </trkpt>
      <trkpt lat="48.79018" lon="-3.38338">
        <ele>80.3</ele>
        <time>2019-07-11T07:31:09Z</time>
      </trkpt>
      <trkpt lat="48.79018" lon="-3.38343">
        <ele>80.3</ele>
        <time>2019-07-11T07:31:10Z</time>
      </trkpt>
      <trkpt lat="48.79018" lon="-3.38348">
        <ele>80.9</ele>
        <time>2019-07-11T07:31:11Z</time>
      </trkpt>
      <trkpt lat="48.79018" lon="-3.38352">
        <ele>81.2</ele>
        <time>2019-07-11T07:31:12Z</time>
      </trkpt>
      <trkpt lat="48.79018" lon="-3.38357">
        <ele>81.6</ele>
        <time>2019-07-11T07:31:13Z</time>
      </trkpt>
      <trkpt lat="48.79018" lon="-3.38361">
        <ele>81.9</ele>
        <time>2019-07-11T07:31:14Z</time>
      </trkpt>
      <trkpt lat="48.79018" lon="-3.38366">
        <ele>82.1</ele>
        <time>2019-07-11T07:31:15Z</time>
      </trkpt>
      <trkpt lat="48.79018" lon="-3.3837">
        <ele>81.8</ele>
        <time>2019-07-11T07:31:16Z</time>
      </trkpt>
      <trkpt lat="48.79019" lon="-3.38375">
        <ele>81.4</ele>
        <time>2019-07-11T07:31:17Z</time>
      </trkpt>
      <trkpt lat="48.79019" lon="-3.3838">
        <ele>81.1</ele>
        <time>2019-07-11T07:31:18Z</time>
      </trkpt>
      <trkpt lat="48.79019" lon="-3.38384">
        <ele>80.9</ele>
        <time>2019-07-11T07:31:19Z</time>
      </trkpt>
      <trkpt lat="48.79019" lon="-3.38389">
        <ele>80.8</ele>
        <time>2019-07-11T07:31:20Z</time>
      </trkpt>
      <trkpt lat="48.79019" lon="-3.38393">
        <ele>80.5</ele>
        <time>2019-07-11T07:31:21Z</time>
      </trkpt>
      <trkpt lat="48.79019" lon="-3.38398">
        <ele>80.6</ele>
        <time>2019-07-11T07:31:22Z</time>
      </trkpt>
      <trkpt lat="48.79019" lon="-3.38403">
        <ele>80.7</ele>
        <time>2019-07-11T07:31:23Z</time>
      </trkpt>
      <trkpt lat="48.79019" lon="-3.38407">
        <ele>80.3</ele>
        <time>2019-07-11T07:31:24Z</time>
      </trkpt>
      <trkpt lat="48.79019" lon="-3.38412">
        <ele>80.5</ele>
        <time>2019-07-11T07:31:25Z</time>
      </trkpt>
      <trkpt lat="48.79019" lon="-3.38417">
        <ele>80.3</ele>
        <time>2019-07-11T07:31:26Z</time>
      </trkpt>
      <trkpt lat="48.79019" lon="-3.38422">
        <ele>80</ele>
        <time>2019-07-11T07:31:27Z</time>
      </trkpt>
      <trkpt lat="48.79019" lon="-3.38426">
        <ele>79.5</ele>
        <time>2019-07-11T07:31:28Z</time>
      </trkpt>
      <trkpt lat="48.79019" lon="-3.38431">
        <ele>79.4</ele>
        <time>2019-07-11T07:31:29Z</time>
      </trkpt>
      <trkpt lat="48.79019" lon="-3.38436">
        <ele>79.4</ele>
        <time>2019-07-11T07:31:30Z</time>
      </trkpt>
      <trkpt lat="48.7902" lon="-3.38441">
        <ele>79.6</ele>
        <time>2019-07-11T07:31:31Z</time>
      </trkpt>
      <trkpt lat="48.7902" lon="-3.38445">
        <ele>79.9</ele>
        <time>2019-07-11T07:31:32Z</time>
      </trkpt>
      <trkpt lat="48.79019" lon="-3.3845">
        <ele>79.8</ele>
        <time>2019-07-11T07:31:33Z</time>
      </trkpt>
      <trkpt lat="48.79019" lon="-3.38454">
        <ele>80.1</ele>
        <time>2019-07-11T07:31:34Z</time>
      </trkpt>
      <trkpt lat="48.79018" lon="-3.38458">
        <ele>80.5</ele>
        <time>2019-07-11T07:31:35Z</time>
      </trkpt>
      <trkpt lat="48.79018" lon="-3.38462">
        <ele>81</ele>
        <time>2019-07-11T07:31:36Z</time>
      </trkpt>
      <trkpt lat="48.79018" lon="-3.38467">
        <ele>81.4</ele>
        <time>2019-07-11T07:31:37Z</time>
      </trkpt>
      <trkpt lat="48.79017" lon="-3.38471">
        <ele>81.4</ele>
        <time>2019-07-11T07:31:38Z</time>
      </trkpt>
      <trkpt lat="48.79017" lon="-3.38475">
        <ele>81.6</ele>
        <time>2019-07-11T07:31:39Z</time>
      </trkpt>
      <trkpt lat="48.79015" lon="-3.38479">
        <ele>81.8</ele>
        <time>2019-07-11T07:31:40Z</time>
      </trkpt>
      <trkpt lat="48.79015" lon="-3.38483">
        <ele>81.6</ele>
        <time>2019-07-11T07:31:41Z</time>
      </trkpt>
      <trkpt lat="48.79014" lon="-3.38487">
        <ele>80.9</ele>
        <time>2019-07-11T07:31:42Z</time>
      </trkpt>
      <trkpt lat="48.79013" lon="-3.38491">
        <ele>80.5</ele>
        <time>2019-07-11T07:31:43Z</time>
      </trkpt>
      <trkpt lat="48.79013" lon="-3.38495">
        <ele>81.3</ele>
        <time>2019-07-11T07:31:44Z</time>
      </trkpt>
      <trkpt lat="48.79012" lon="-3.385">
        <ele>81.2</ele>
        <time>2019-07-11T07:31:45Z</time>
      </trkpt>
      <trkpt lat="48.79013" lon="-3.38505">
        <ele>81.5</ele>
        <time>2019-07-11T07:31:46Z</time>
      </trkpt>
      <trkpt lat="48.79012" lon="-3.38509">
        <ele>81</ele>
        <time>2019-07-11T07:31:47Z</time>
      </trkpt>
      <trkpt lat="48.79012" lon="-3.38513">
        <ele>79.5</ele>
        <time>2019-07-11T07:31:48Z</time>
      </trkpt>
      <trkpt lat="48.79012" lon="-3.38517">
        <ele>79.4</ele>
        <time>2019-07-11T07:31:49Z</time>
      </trkpt>
      <trkpt lat="48.79012" lon="-3.38522">
        <ele>79.9</ele>
        <time>2019-07-11T07:31:50Z</time>
      </trkpt>
      <trkpt lat="48.79013" lon="-3.38526">
        <ele>80.1</ele>
        <time>2019-07-11T07:31:51Z</time>
      </trkpt>
      <trkpt lat="48.79013" lon="-3.3853">
        <ele>80.3</ele>
        <time>2019-07-11T07:31:52Z</time>
      </trkpt>
      <trkpt lat="48.79013" lon="-3.38535">
        <ele>79.9</ele>
        <time>2019-07-11T07:31:53Z</time>
      </trkpt>
      <trkpt lat="48.79014" lon="-3.38539">
        <ele>79.8</ele>
        <time>2019-07-11T07:31:54Z</time>
      </trkpt>
      <trkpt lat="48.79015" lon="-3.38543">
        <ele>80</ele>
        <time>2019-07-11T07:31:55Z</time>
      </trkpt>
      <trkpt lat="48.79017" lon="-3.38547">
        <ele>80.1</ele>
        <time>2019-07-11T07:31:56Z</time>
      </trkpt>
      <trkpt lat="48.79018" lon="-3.38552">
        <ele>79.8</ele>
        <time>2019-07-11T07:31:57Z</time>
      </trkpt>
      <trkpt lat="48.79019" lon="-3.38556">
        <ele>80.1</ele>
        <time>2019-07-11T07:31:58Z</time>
      </trkpt>
      <trkpt lat="48.7902" lon="-3.38559">
        <ele>79.9</ele>
        <time>2019-07-11T07:31:59Z</time>
      </trkpt>
      <trkpt lat="48.79021" lon="-3.38563">
        <ele>79.7</ele>
        <time>2019-07-11T07:32:00Z</time>
      </trkpt>
      <trkpt lat="48.79022" lon="-3.38567">
        <ele>79.8</ele>
        <time>2019-07-11T07:32:01Z</time>
      </trkpt>
      <trkpt lat="48.79023" lon="-3.3857">
        <ele>79.8</ele>
        <time>2019-07-11T07:32:02Z</time>
      </trkpt>
      <trkpt lat="48.79024" lon="-3.38574">
        <ele>80.1</ele>
        <time>2019-07-11T07:32:03Z</time>
      </trkpt>
      <trkpt lat="48.79025" lon="-3.38578">
        <ele>80.6</ele>
        <time>2019-07-11T07:32:04Z</time>
      </trkpt>
      <trkpt lat="48.79026" lon="-3.38582">
        <ele>80.8</ele>
        <time>2019-07-11T07:32:05Z</time>
      </trkpt>
      <trkpt lat="48.79027" lon="-3.38586">
        <ele>81.3</ele>
        <time>2019-07-11T07:32:06Z</time>
      </trkpt>
      <trkpt lat="48.79028" lon="-3.3859">
        <ele>81.6</ele>
        <time>2019-07-11T07:32:07Z</time>
      </trkpt>
      <trkpt lat="48.79029" lon="-3.38594">
        <ele>81.9</ele>
        <time>2019-07-11T07:32:08Z</time>
      </trkpt>
      <trkpt lat="48.7903" lon="-3.38598">
        <ele>82.3</ele>
        <time>2019-07-11T07:32:09Z</time>
      </trkpt>
      <trkpt lat="48.7903" lon="-3.38602">
        <ele>82.6</ele>
        <time>2019-07-11T07:32:10Z</time>
      </trkpt>
      <trkpt lat="48.7903" lon="-3.38606">
        <ele>82.7</ele>
        <time>2019-07-11T07:32:11Z</time>
      </trkpt>
      <trkpt lat="48.79031" lon="-3.38611">
        <ele>83.3</ele>
        <time>2019-07-11T07:32:12Z</time>
      </trkpt>
      <trkpt lat="48.79032" lon="-3.38616">
        <ele>83.6</ele>
        <time>2019-07-11T07:32:13Z</time>
      </trkpt>
      <trkpt lat="48.79033" lon="-3.38621">
        <ele>83.4</ele>
        <time>2019-07-11T07:32:14Z</time>
      </trkpt>
      <trkpt lat="48.79033" lon="-3.38625">
        <ele>83.2</ele>
        <time>2019-07-11T07:32:15Z</time>
      </trkpt>
      <trkpt lat="48.79034" lon="-3.3863">
        <ele>83</ele>
        <time>2019-07-11T07:32:16Z</time>
      </trkpt>
      <trkpt lat="48.79035" lon="-3.38635">
        <ele>82.9</ele>
        <time>2019-07-11T07:32:17Z</time>
      </trkpt>
      <trkpt lat="48.79036" lon="-3.3864">
        <ele>83.2</ele>
        <time>2019-07-11T07:32:18Z</time>
      </trkpt>
      <trkpt lat="48.79037" lon="-3.38644">
        <ele>82.8</ele>
        <time>2019-07-11T07:32:19Z</time>
      </trkpt>
      <trkpt lat="48.79037" lon="-3.38649">
        <ele>82.3</ele>
        <time>2019-07-11T07:32:20Z</time>
      </trkpt>
      <trkpt lat="48.79037" lon="-3.38653">
        <ele>82.3</ele>
        <time>2019-07-11T07:32:21Z</time>
      </trkpt>
      <trkpt lat="48.79037" lon="-3.38658">
        <ele>82.2</ele>
        <time>2019-07-11T07:32:22Z</time>
      </trkpt>
      <trkpt lat="48.79038" lon="-3.38662">
        <ele>82.1</ele>
        <time>2019-07-11T07:32:23Z</time>
      </trkpt>
      <trkpt lat="48.79038" lon="-3.38666">
        <ele>82.3</ele>
        <time>2019-07-11T07:32:24Z</time>
      </trkpt>
      <trkpt lat="48.79038" lon="-3.38671">
        <ele>82.4</ele>
        <time>2019-07-11T07:32:25Z</time>
      </trkpt>
      <trkpt lat="48.79038" lon="-3.38675">
        <ele>82.5</ele>
        <time>2019-07-11T07:32:26Z</time>
      </trkpt>
      <trkpt lat="48.79038" lon="-3.38679">
        <ele>82.4</ele>
        <time>2019-07-11T07:32:27Z</time>
      </trkpt>
      <trkpt lat="48.79038" lon="-3.38683">
        <ele>82.5</ele>
        <time>2019-07-11T07:32:28Z</time>
      </trkpt>
      <trkpt lat="48.79039" lon="-3.38687">
        <ele>82.8</ele>
        <time>2019-07-11T07:32:29Z</time>
      </trkpt>
      <trkpt lat="48.79039" lon="-3.38691">
        <ele>82.6</ele>
        <time>2019-07-11T07:32:30Z</time>
      </trkpt>
      <trkpt lat="48.79039" lon="-3.38695">
        <ele>82.5</ele>
        <time>2019-07-11T07:32:31Z</time>
      </trkpt>
      <trkpt lat="48.79039" lon="-3.38699">
        <ele>82.4</ele>
        <time>2019-07-11T07:32:32Z</time>
      </trkpt>
      <trkpt lat="48.79039" lon="-3.38704">
        <ele>82.4</ele>
        <time>2019-07-11T07:32:33Z</time>
      </trkpt>
      <trkpt lat="48.7904" lon="-3.38709">
        <ele>82.7</ele>
        <time>2019-07-11T07:32:34Z</time>
      </trkpt>
      <trkpt lat="48.7904" lon="-3.38713">
        <ele>82.5</ele>
        <time>2019-07-11T07:32:35Z</time>
      </trkpt>
      <trkpt lat="48.79041" lon="-3.38718">
        <ele>82.5</ele>
        <time>2019-07-11T07:32:36Z</time>
      </trkpt>
      <trkpt lat="48.79041" lon="-3.38723">
        <ele>82.8</ele>
        <time>2019-07-11T07:32:37Z</time>
      </trkpt>
      <trkpt lat="48.79042" lon="-3.38727">
        <ele>83</ele>
        <time>2019-07-11T07:32:38Z</time>
      </trkpt>
      <trkpt lat="48.79042" lon="-3.38732">
        <ele>83.4</ele>
        <time>2019-07-11T07:32:39Z</time>
      </trkpt>
      <trkpt lat="48.79042" lon="-3.38736">
        <ele>83.1</ele>
        <time>2019-07-11T07:32:40Z</time>
      </trkpt>
      <trkpt lat="48.79042" lon="-3.3874">
        <ele>82.7</ele>
        <time>2019-07-11T07:32:41Z</time>
      </trkpt>
      <trkpt lat="48.79043" lon="-3.38745">
        <ele>82.3</ele>
        <time>2019-07-11T07:32:42Z</time>
      </trkpt>
      <trkpt lat="48.79043" lon="-3.3875">
        <ele>82.9</ele>
        <time>2019-07-11T07:32:43Z</time>
      </trkpt>
      <trkpt lat="48.79043" lon="-3.38754">
        <ele>83.3</ele>
        <time>2019-07-11T07:32:44Z</time>
      </trkpt>
      <trkpt lat="48.79043" lon="-3.38758">
        <ele>83.1</ele>
        <time>2019-07-11T07:32:45Z</time>
      </trkpt>
      <trkpt lat="48.79044" lon="-3.38762">
        <ele>83.4</ele>
        <time>2019-07-11T07:32:46Z</time>
      </trkpt>
      <trkpt lat="48.79044" lon="-3.38767">
        <ele>83.2</ele>
        <time>2019-07-11T07:32:47Z</time>
      </trkpt>
      <trkpt lat="48.79044" lon="-3.38771">
        <ele>83.5</ele>
        <time>2019-07-11T07:32:48Z</time>
      </trkpt>
      <trkpt lat="48.79044" lon="-3.38776">
        <ele>83.8</ele>
        <time>2019-07-11T07:32:49Z</time>
      </trkpt>
      <trkpt lat="48.79045" lon="-3.38781">
        <ele>84.1</ele>
        <time>2019-07-11T07:32:50Z</time>
      </trkpt>
      <trkpt lat="48.79046" lon="-3.38785">
        <ele>84.3</ele>
        <time>2019-07-11T07:32:51Z</time>
      </trkpt>
      <trkpt lat="48.79046" lon="-3.3879">
        <ele>85</ele>
        <time>2019-07-11T07:32:52Z</time>
      </trkpt>
      <trkpt lat="48.79046" lon="-3.38795">
        <ele>85.5</ele>
        <time>2019-07-11T07:32:53Z</time>
      </trkpt>
      <trkpt lat="48.79046" lon="-3.38799">
        <ele>85.6</ele>
        <time>2019-07-11T07:32:54Z</time>
      </trkpt>
      <trkpt lat="48.79047" lon="-3.38804">
        <ele>85.7</ele>
        <time>2019-07-11T07:32:55Z</time>
      </trkpt>
      <trkpt lat="48.79047" lon="-3.38809">
        <ele>85.6</ele>
        <time>2019-07-11T07:32:56Z</time>
      </trkpt>
      <trkpt lat="48.79048" lon="-3.38813">
        <ele>86</ele>
        <time>2019-07-11T07:32:57Z</time>
      </trkpt>
      <trkpt lat="48.79048" lon="-3.38818">
        <ele>86.1</ele>
        <time>2019-07-11T07:32:58Z</time>
      </trkpt>
      <trkpt lat="48.79049" lon="-3.38823">
        <ele>86.1</ele>
        <time>2019-07-11T07:32:59Z</time>
      </trkpt>
      <trkpt lat="48.7905" lon="-3.38827">
        <ele>86.6</ele>
        <time>2019-07-11T07:33:00Z</time>
      </trkpt>
      <trkpt lat="48.7905" lon="-3.38832">
        <ele>86.8</ele>
        <time>2019-07-11T07:33:01Z</time>
      </trkpt>
      <trkpt lat="48.79051" lon="-3.38836">
        <ele>86.8</ele>
        <time>2019-07-11T07:33:02Z</time>
      </trkpt>
      <trkpt lat="48.79052" lon="-3.38841">
        <ele>87.2</ele>
        <time>2019-07-11T07:33:03Z</time>
      </trkpt>
      <trkpt lat="48.79053" lon="-3.38846">
        <ele>87.3</ele>
        <time>2019-07-11T07:33:04Z</time>
      </trkpt>
      <trkpt lat="48.79054" lon="-3.3885">
        <ele>87.1</ele>
        <time>2019-07-11T07:33:05Z</time>
      </trkpt>
      <trkpt lat="48.79055" lon="-3.38855">
        <ele>87</ele>
        <time>2019-07-11T07:33:06Z</time>
      </trkpt>
      <trkpt lat="48.79056" lon="-3.3886">
        <ele>86.6</ele>
        <time>2019-07-11T07:33:07Z</time>
      </trkpt>
      <trkpt lat="48.79057" lon="-3.38864">
        <ele>86.5</ele>
        <time>2019-07-11T07:33:08Z</time>
      </trkpt>
      <trkpt lat="48.79058" lon="-3.38868">
        <ele>86.1</ele>
        <time>2019-07-11T07:33:09Z</time>
      </trkpt>
      <trkpt lat="48.79059" lon="-3.38872">
        <ele>86.4</ele>
        <time>2019-07-11T07:33:10Z</time>
      </trkpt>
      <trkpt lat="48.7906" lon="-3.38877">
        <ele>86.7</ele>
        <time>2019-07-11T07:33:11Z</time>
      </trkpt>
      <trkpt lat="48.79061" lon="-3.38881">
        <ele>87.1</ele>
        <time>2019-07-11T07:33:12Z</time>
      </trkpt>
      <trkpt lat="48.79062" lon="-3.38885">
        <ele>87.3</ele>
        <time>2019-07-11T07:33:13Z</time>
      </trkpt>
      <trkpt lat="48.79062" lon="-3.38888">
        <ele>87.7</ele>
        <time>2019-07-11T07:33:14Z</time>
      </trkpt>
      <trkpt lat="48.79063" lon="-3.38891">
        <ele>88.4</ele>
        <time>2019-07-11T07:33:15Z</time>
      </trkpt>
      <trkpt lat="48.79063" lon="-3.38894">
        <ele>89.4</ele>
        <time>2019-07-11T07:33:16Z</time>
      </trkpt>
      <trkpt lat="48.79063" lon="-3.38897">
        <ele>89.5</ele>
        <time>2019-07-11T07:33:17Z</time>
      </trkpt>
      <trkpt lat="48.79064" lon="-3.389">
        <ele>90</ele>
        <time>2019-07-11T07:33:18Z</time>
      </trkpt>
      <trkpt lat="48.79066" lon="-3.38903">
        <ele>90</ele>
        <time>2019-07-11T07:33:19Z</time>
      </trkpt>
      <trkpt lat="48.79068" lon="-3.38908">
        <ele>90</ele>
        <time>2019-07-11T07:33:20Z</time>
      </trkpt>
      <trkpt lat="48.79068" lon="-3.38912">
        <ele>90.2</ele>
        <time>2019-07-11T07:33:21Z</time>
      </trkpt>
      <trkpt lat="48.79069" lon="-3.38917">
        <ele>90.4</ele>
        <time>2019-07-11T07:33:22Z</time>
      </trkpt>
      <trkpt lat="48.7907" lon="-3.38922">
        <ele>91</ele>
        <time>2019-07-11T07:33:23Z</time>
      </trkpt>
      <trkpt lat="48.7907" lon="-3.38928">
        <ele>91.4</ele>
        <time>2019-07-11T07:33:24Z</time>
      </trkpt>
      <trkpt lat="48.79071" lon="-3.38933">
        <ele>91.9</ele>
        <time>2019-07-11T07:33:25Z</time>
      </trkpt>
      <trkpt lat="48.79073" lon="-3.38938">
        <ele>92</ele>
        <time>2019-07-11T07:33:26Z</time>
      </trkpt>
      <trkpt lat="48.79074" lon="-3.38944">
        <ele>92.1</ele>
        <time>2019-07-11T07:33:27Z</time>
      </trkpt>
      <trkpt lat="48.79076" lon="-3.38949">
        <ele>92.3</ele>
        <time>2019-07-11T07:33:28Z</time>
      </trkpt>
      <trkpt lat="48.79079" lon="-3.38953">
        <ele>92.4</ele>
        <time>2019-07-11T07:33:29Z</time>
      </trkpt>
      <trkpt lat="48.79082" lon="-3.38956">
        <ele>92.9</ele>
        <time>2019-07-11T07:33:30Z</time>
      </trkpt>
      <trkpt lat="48.79085" lon="-3.3896">
        <ele>92.5</ele>
        <time>2019-07-11T07:33:31Z</time>
      </trkpt>
      <trkpt lat="48.79089" lon="-3.38964">
        <ele>90.9</ele>
        <time>2019-07-11T07:33:32Z</time>
      </trkpt>
      <trkpt lat="48.79093" lon="-3.38967">
        <ele>90.3</ele>
        <time>2019-07-11T07:33:33Z</time>
      </trkpt>
      <trkpt lat="48.79096" lon="-3.38971">
        <ele>89.5</ele>
        <time>2019-07-11T07:33:34Z</time>
      </trkpt>
      <trkpt lat="48.791" lon="-3.38974">
        <ele>89.2</ele>
        <time>2019-07-11T07:33:35Z</time>
      </trkpt>
      <trkpt lat="48.79103" lon="-3.38977">
        <ele>89.3</ele>
        <time>2019-07-11T07:33:36Z</time>
      </trkpt>
      <trkpt lat="48.79105" lon="-3.38981">
        <ele>89.3</ele>
        <time>2019-07-11T07:33:37Z</time>
      </trkpt>
      <trkpt lat="48.79108" lon="-3.38985">
        <ele>89.4</ele>
        <time>2019-07-11T07:33:38Z</time>
      </trkpt>
      <trkpt lat="48.7911" lon="-3.38988">
        <ele>89.4</ele>
        <time>2019-07-11T07:33:39Z</time>
      </trkpt>
      <trkpt lat="48.79112" lon="-3.38992">
        <ele>89.5</ele>
        <time>2019-07-11T07:33:40Z</time>
      </trkpt>
      <trkpt lat="48.79114" lon="-3.38996">
        <ele>89.8</ele>
        <time>2019-07-11T07:33:41Z</time>
      </trkpt>
      <trkpt lat="48.79116" lon="-3.39">
        <ele>89.6</ele>
        <time>2019-07-11T07:33:42Z</time>
      </trkpt>
      <trkpt lat="48.79119" lon="-3.39005">
        <ele>89.4</ele>
        <time>2019-07-11T07:33:43Z</time>
      </trkpt>
      <trkpt lat="48.79122" lon="-3.39009">
        <ele>89.2</ele>
        <time>2019-07-11T07:33:44Z</time>
      </trkpt>
      <trkpt lat="48.79125" lon="-3.39013">
        <ele>89.1</ele>
        <time>2019-07-11T07:33:45Z</time>
      </trkpt>
      <trkpt lat="48.79128" lon="-3.39018">
        <ele>88.9</ele>
        <time>2019-07-11T07:33:46Z</time>
      </trkpt>
      <trkpt lat="48.79131" lon="-3.39022">
        <ele>88.7</ele>
        <time>2019-07-11T07:33:47Z</time>
      </trkpt>
      <trkpt lat="48.79134" lon="-3.39026">
        <ele>88.3</ele>
        <time>2019-07-11T07:33:48Z</time>
      </trkpt>
      <trkpt lat="48.79136" lon="-3.39029">
        <ele>87.6</ele>
        <time>2019-07-11T07:33:49Z</time>
      </trkpt>
      <trkpt lat="48.79138" lon="-3.39032">
        <ele>87</ele>
        <time>2019-07-11T07:33:50Z</time>
      </trkpt>
      <trkpt lat="48.79141" lon="-3.39035">
        <ele>86.8</ele>
        <time>2019-07-11T07:33:51Z</time>
      </trkpt>
      <trkpt lat="48.79144" lon="-3.3904">
        <ele>86.5</ele>
        <time>2019-07-11T07:33:52Z</time>
      </trkpt>
      <trkpt lat="48.79146" lon="-3.39043">
        <ele>86.3</ele>
        <time>2019-07-11T07:33:53Z</time>
      </trkpt>
      <trkpt lat="48.79149" lon="-3.39047">
        <ele>86</ele>
        <time>2019-07-11T07:33:54Z</time>
      </trkpt>
      <trkpt lat="48.7915" lon="-3.39051">
        <ele>85.7</ele>
        <time>2019-07-11T07:33:55Z</time>
      </trkpt>
      <trkpt lat="48.79153" lon="-3.39056">
        <ele>85.8</ele>
        <time>2019-07-11T07:33:56Z</time>
      </trkpt>
      <trkpt lat="48.79155" lon="-3.39061">
        <ele>85.9</ele>
        <time>2019-07-11T07:33:57Z</time>
      </trkpt>
      <trkpt lat="48.79157" lon="-3.39065">
        <ele>86.1</ele>
        <time>2019-07-11T07:33:58Z</time>
      </trkpt>
      <trkpt lat="48.79158" lon="-3.3907">
        <ele>86.5</ele>
        <time>2019-07-11T07:33:59Z</time>
      </trkpt>
      <trkpt lat="48.79161" lon="-3.39074">
        <ele>86.6</ele>
        <time>2019-07-11T07:34:00Z</time>
      </trkpt>
      <trkpt lat="48.79164" lon="-3.3908">
        <ele>86.9</ele>
        <time>2019-07-11T07:34:01Z</time>
      </trkpt>
      <trkpt lat="48.79167" lon="-3.39085">
        <ele>87</ele>
        <time>2019-07-11T07:34:02Z</time>
      </trkpt>
      <trkpt lat="48.7917" lon="-3.39092">
        <ele>86.9</ele>
        <time>2019-07-11T07:34:03Z</time>
      </trkpt>
      <trkpt lat="48.79173" lon="-3.39097">
        <ele>86.8</ele>
        <time>2019-07-11T07:34:04Z</time>
      </trkpt>
      <trkpt lat="48.79176" lon="-3.39103">
        <ele>86.6</ele>
        <time>2019-07-11T07:34:05Z</time>
      </trkpt>
      <trkpt lat="48.79179" lon="-3.39108">
        <ele>86.7</ele>
        <time>2019-07-11T07:34:06Z</time>
      </trkpt>
      <trkpt lat="48.79182" lon="-3.39114">
        <ele>86.6</ele>
        <time>2019-07-11T07:34:07Z</time>
      </trkpt>
      <trkpt lat="48.79185" lon="-3.39119">
        <ele>86.7</ele>
        <time>2019-07-11T07:34:08Z</time>
      </trkpt>
      <trkpt lat="48.79187" lon="-3.39124">
        <ele>86.8</ele>
        <time>2019-07-11T07:34:09Z</time>
      </trkpt>
      <trkpt lat="48.7919" lon="-3.39128">
        <ele>86.7</ele>
        <time>2019-07-11T07:34:10Z</time>
      </trkpt>
      <trkpt lat="48.79192" lon="-3.39133">
        <ele>86.7</ele>
        <time>2019-07-11T07:34:11Z</time>
      </trkpt>
      <trkpt lat="48.79195" lon="-3.39137">
        <ele>86.3</ele>
        <time>2019-07-11T07:34:12Z</time>
      </trkpt>
      <trkpt lat="48.79197" lon="-3.39142">
        <ele>85.7</ele>
        <time>2019-07-11T07:34:13Z</time>
      </trkpt>
      <trkpt lat="48.79199" lon="-3.39147">
        <ele>85</ele>
        <time>2019-07-11T07:34:14Z</time>
      </trkpt>
      <trkpt lat="48.792" lon="-3.39153">
        <ele>84.2</ele>
        <time>2019-07-11T07:34:15Z</time>
      </trkpt>
      <trkpt lat="48.79201" lon="-3.39158">
        <ele>84</ele>
        <time>2019-07-11T07:34:16Z</time>
      </trkpt>
      <trkpt lat="48.79202" lon="-3.39164">
        <ele>83.4</ele>
        <time>2019-07-11T07:34:17Z</time>
      </trkpt>
      <trkpt lat="48.79204" lon="-3.3917">
        <ele>82.9</ele>
        <time>2019-07-11T07:34:18Z</time>
      </trkpt>
      <trkpt lat="48.79205" lon="-3.39176">
        <ele>82.7</ele>
        <time>2019-07-11T07:34:19Z</time>
      </trkpt>
      <trkpt lat="48.79206" lon="-3.39182">
        <ele>83.1</ele>
        <time>2019-07-11T07:34:20Z</time>
      </trkpt>
      <trkpt lat="48.79207" lon="-3.39189">
        <ele>83.4</ele>
        <time>2019-07-11T07:34:21Z</time>
      </trkpt>
      <trkpt lat="48.79207" lon="-3.39195">
        <ele>83.2</ele>
        <time>2019-07-11T07:34:22Z</time>
      </trkpt>
      <trkpt lat="48.79208" lon="-3.39202">
        <ele>83.8</ele>
        <time>2019-07-11T07:34:23Z</time>
      </trkpt>
      <trkpt lat="48.79208" lon="-3.39208">
        <ele>83.6</ele>
        <time>2019-07-11T07:34:24Z</time>
      </trkpt>
      <trkpt lat="48.79209" lon="-3.39216">
        <ele>83.5</ele>
        <time>2019-07-11T07:34:25Z</time>
      </trkpt>
      <trkpt lat="48.79209" lon="-3.39223">
        <ele>83.6</ele>
        <time>2019-07-11T07:34:26Z</time>
      </trkpt>
      <trkpt lat="48.7921" lon="-3.3923">
        <ele>83.9</ele>
        <time>2019-07-11T07:34:27Z</time>
      </trkpt>
      <trkpt lat="48.79211" lon="-3.39238">
        <ele>83.9</ele>
        <time>2019-07-11T07:34:28Z</time>
      </trkpt>
      <trkpt lat="48.79211" lon="-3.39246">
        <ele>83.5</ele>
        <time>2019-07-11T07:34:29Z</time>
      </trkpt>
      <trkpt lat="48.79211" lon="-3.39253">
        <ele>83.3</ele>
        <time>2019-07-11T07:34:30Z</time>
      </trkpt>
      <trkpt lat="48.79212" lon="-3.39259">
        <ele>83</ele>
        <time>2019-07-11T07:34:31Z</time>
      </trkpt>
      <trkpt lat="48.79213" lon="-3.39266">
        <ele>83</ele>
        <time>2019-07-11T07:34:32Z</time>
      </trkpt>
      <trkpt lat="48.79213" lon="-3.39272">
        <ele>82.9</ele>
        <time>2019-07-11T07:34:33Z</time>
      </trkpt>
      <trkpt lat="48.79213" lon="-3.39277">
        <ele>83.5</ele>
        <time>2019-07-11T07:34:34Z</time>
      </trkpt>
      <trkpt lat="48.79214" lon="-3.39284">
        <ele>83.8</ele>
        <time>2019-07-11T07:34:35Z</time>
      </trkpt>
      <trkpt lat="48.79215" lon="-3.3929">
        <ele>83.8</ele>
        <time>2019-07-11T07:34:36Z</time>
      </trkpt>
      <trkpt lat="48.79215" lon="-3.39296">
        <ele>83.6</ele>
        <time>2019-07-11T07:34:37Z</time>
      </trkpt>
      <trkpt lat="48.79215" lon="-3.39304">
        <ele>83.4</ele>
        <time>2019-07-11T07:34:38Z</time>
      </trkpt>
      <trkpt lat="48.79216" lon="-3.39311">
        <ele>83.6</ele>
        <time>2019-07-11T07:34:39Z</time>
      </trkpt>
      <trkpt lat="48.79217" lon="-3.39317">
        <ele>83.8</ele>
        <time>2019-07-11T07:34:40Z</time>
      </trkpt>
      <trkpt lat="48.79218" lon="-3.39323">
        <ele>83.9</ele>
        <time>2019-07-11T07:34:41Z</time>
      </trkpt>
      <trkpt lat="48.79219" lon="-3.39329">
        <ele>84.1</ele>
        <time>2019-07-11T07:34:42Z</time>
      </trkpt>
      <trkpt lat="48.79221" lon="-3.39335">
        <ele>84.2</ele>
        <time>2019-07-11T07:34:43Z</time>
      </trkpt>
      <trkpt lat="48.79223" lon="-3.39343">
        <ele>83.9</ele>
        <time>2019-07-11T07:34:44Z</time>
      </trkpt>
      <trkpt lat="48.79224" lon="-3.3935">
        <ele>83.9</ele>
        <time>2019-07-11T07:34:45Z</time>
      </trkpt>
      <trkpt lat="48.79225" lon="-3.39358">
        <ele>83.6</ele>
        <time>2019-07-11T07:34:46Z</time>
      </trkpt>
      <trkpt lat="48.79226" lon="-3.39365">
        <ele>83.5</ele>
        <time>2019-07-11T07:34:47Z</time>
      </trkpt>
      <trkpt lat="48.79226" lon="-3.39372">
        <ele>83.2</ele>
        <time>2019-07-11T07:34:48Z</time>
      </trkpt>
      <trkpt lat="48.79228" lon="-3.39378">
        <ele>83.2</ele>
        <time>2019-07-11T07:34:49Z</time>
      </trkpt>
      <trkpt lat="48.79231" lon="-3.39385">
        <ele>83</ele>
        <time>2019-07-11T07:34:50Z</time>
      </trkpt>
      <trkpt lat="48.79233" lon="-3.39393">
        <ele>82.6</ele>
        <time>2019-07-11T07:34:51Z</time>
      </trkpt>
      <trkpt lat="48.79235" lon="-3.39399">
        <ele>82.7</ele>
        <time>2019-07-11T07:34:52Z</time>
      </trkpt>
      <trkpt lat="48.79237" lon="-3.39406">
        <ele>82.6</ele>
        <time>2019-07-11T07:34:53Z</time>
      </trkpt>
      <trkpt lat="48.79239" lon="-3.39413">
        <ele>82.1</ele>
        <time>2019-07-11T07:34:54Z</time>
      </trkpt>
      <trkpt lat="48.79241" lon="-3.3942">
        <ele>82.2</ele>
        <time>2019-07-11T07:34:55Z</time>
      </trkpt>
      <trkpt lat="48.79242" lon="-3.39427">
        <ele>82.2</ele>
        <time>2019-07-11T07:34:56Z</time>
      </trkpt>
      <trkpt lat="48.79243" lon="-3.39434">
        <ele>81.9</ele>
        <time>2019-07-11T07:34:57Z</time>
      </trkpt>
      <trkpt lat="48.79244" lon="-3.39442">
        <ele>82</ele>
        <time>2019-07-11T07:34:58Z</time>
      </trkpt>
      <trkpt lat="48.79245" lon="-3.39449">
        <ele>82.4</ele>
        <time>2019-07-11T07:34:59Z</time>
      </trkpt>
      <trkpt lat="48.79246" lon="-3.39456">
        <ele>82.3</ele>
        <time>2019-07-11T07:35:00Z</time>
      </trkpt>
      <trkpt lat="48.79247" lon="-3.39463">
        <ele>82.4</ele>
        <time>2019-07-11T07:35:01Z</time>
      </trkpt>
      <trkpt lat="48.79247" lon="-3.3947">
        <ele>82.4</ele>
        <time>2019-07-11T07:35:02Z</time>
      </trkpt>
      <trkpt lat="48.79248" lon="-3.39477">
        <ele>82.2</ele>
        <time>2019-07-11T07:35:03Z</time>
      </trkpt>
      <trkpt lat="48.79248" lon="-3.39484">
        <ele>81.7</ele>
        <time>2019-07-11T07:35:04Z</time>
      </trkpt>
      <trkpt lat="48.79247" lon="-3.3949">
        <ele>81.7</ele>
        <time>2019-07-11T07:35:05Z</time>
      </trkpt>
      <trkpt lat="48.79247" lon="-3.39497">
        <ele>81.8</ele>
        <time>2019-07-11T07:35:06Z</time>
      </trkpt>
      <trkpt lat="48.79248" lon="-3.39503">
        <ele>82.5</ele>
        <time>2019-07-11T07:35:07Z</time>
      </trkpt>
      <trkpt lat="48.79247" lon="-3.3951">
        <ele>82.6</ele>
        <time>2019-07-11T07:35:08Z</time>
      </trkpt>
      <trkpt lat="48.79247" lon="-3.39516">
        <ele>82.9</ele>
        <time>2019-07-11T07:35:09Z</time>
      </trkpt>
      <trkpt lat="48.79248" lon="-3.39522">
        <ele>83.8</ele>
        <time>2019-07-11T07:35:10Z</time>
      </trkpt>
      <trkpt lat="48.7925" lon="-3.39528">
        <ele>84.6</ele>
        <time>2019-07-11T07:35:11Z</time>
      </trkpt>
      <trkpt lat="48.7925" lon="-3.39534">
        <ele>83.9</ele>
        <time>2019-07-11T07:35:12Z</time>
      </trkpt>
      <trkpt lat="48.7925" lon="-3.3954">
        <ele>83.8</ele>
        <time>2019-07-11T07:35:13Z</time>
      </trkpt>
      <trkpt lat="48.79252" lon="-3.39546">
        <ele>83.5</ele>
        <time>2019-07-11T07:35:14Z</time>
      </trkpt>
      <trkpt lat="48.79253" lon="-3.39552">
        <ele>82.8</ele>
        <time>2019-07-11T07:35:15Z</time>
      </trkpt>
      <trkpt lat="48.79254" lon="-3.39558">
        <ele>82.8</ele>
        <time>2019-07-11T07:35:16Z</time>
      </trkpt>
      <trkpt lat="48.79256" lon="-3.39564">
        <ele>82.2</ele>
        <time>2019-07-11T07:35:17Z</time>
      </trkpt>
      <trkpt lat="48.79257" lon="-3.3957">
        <ele>81.8</ele>
        <time>2019-07-11T07:35:18Z</time>
      </trkpt>
      <trkpt lat="48.79259" lon="-3.39576">
        <ele>81.6</ele>
        <time>2019-07-11T07:35:19Z</time>
      </trkpt>
      <trkpt lat="48.79261" lon="-3.39582">
        <ele>81.5</ele>
        <time>2019-07-11T07:35:20Z</time>
      </trkpt>
      <trkpt lat="48.79263" lon="-3.39587">
        <ele>81.1</ele>
        <time>2019-07-11T07:35:21Z</time>
      </trkpt>
      <trkpt lat="48.79265" lon="-3.39593">
        <ele>81.3</ele>
        <time>2019-07-11T07:35:22Z</time>
      </trkpt>
      <trkpt lat="48.79266" lon="-3.39598">
        <ele>80.7</ele>
        <time>2019-07-11T07:35:23Z</time>
      </trkpt>
      <trkpt lat="48.79268" lon="-3.39603">
        <ele>80.6</ele>
        <time>2019-07-11T07:35:24Z</time>
      </trkpt>
      <trkpt lat="48.7927" lon="-3.39608">
        <ele>80.7</ele>
        <time>2019-07-11T07:35:25Z</time>
      </trkpt>
      <trkpt lat="48.79271" lon="-3.39613">
        <ele>80.9</ele>
        <time>2019-07-11T07:35:26Z</time>
      </trkpt>
      <trkpt lat="48.79273" lon="-3.39619">
        <ele>81.3</ele>
        <time>2019-07-11T07:35:27Z</time>
      </trkpt>
      <trkpt lat="48.79274" lon="-3.39624">
        <ele>81.4</ele>
        <time>2019-07-11T07:35:28Z</time>
      </trkpt>
      <trkpt lat="48.79276" lon="-3.39629">
        <ele>81.2</ele>
        <time>2019-07-11T07:35:29Z</time>
      </trkpt>
      <trkpt lat="48.79276" lon="-3.39634">
        <ele>80.9</ele>
        <time>2019-07-11T07:35:30Z</time>
      </trkpt>
      <trkpt lat="48.79277" lon="-3.3964">
        <ele>80.3</ele>
        <time>2019-07-11T07:35:31Z</time>
      </trkpt>
      <trkpt lat="48.79278" lon="-3.39645">
        <ele>80.6</ele>
        <time>2019-07-11T07:35:32Z</time>
      </trkpt>
      <trkpt lat="48.79279" lon="-3.39649">
        <ele>80.4</ele>
        <time>2019-07-11T07:35:33Z</time>
      </trkpt>
      <trkpt lat="48.7928" lon="-3.39654">
        <ele>79.4</ele>
        <time>2019-07-11T07:35:34Z</time>
      </trkpt>
      <trkpt lat="48.79281" lon="-3.39659">
        <ele>78.9</ele>
        <time>2019-07-11T07:35:35Z</time>
      </trkpt>
      <trkpt lat="48.79282" lon="-3.39663">
        <ele>77.7</ele>
        <time>2019-07-11T07:35:36Z</time>
      </trkpt>
      <trkpt lat="48.79283" lon="-3.39668">
        <ele>77.4</ele>
        <time>2019-07-11T07:35:37Z</time>
      </trkpt>
      <trkpt lat="48.79284" lon="-3.39673">
        <ele>76.8</ele>
        <time>2019-07-11T07:35:38Z</time>
      </trkpt>
      <trkpt lat="48.79285" lon="-3.39679">
        <ele>76.8</ele>
        <time>2019-07-11T07:35:39Z</time>
      </trkpt>
      <trkpt lat="48.79287" lon="-3.39685">
        <ele>76.7</ele>
        <time>2019-07-11T07:35:40Z</time>
      </trkpt>
      <trkpt lat="48.79289" lon="-3.3969">
        <ele>76.4</ele>
        <time>2019-07-11T07:35:41Z</time>
      </trkpt>
      <trkpt lat="48.7929" lon="-3.39696">
        <ele>76.3</ele>
        <time>2019-07-11T07:35:42Z</time>
      </trkpt>
      <trkpt lat="48.79292" lon="-3.39701">
        <ele>76.6</ele>
        <time>2019-07-11T07:35:43Z</time>
      </trkpt>
      <trkpt lat="48.79293" lon="-3.39706">
        <ele>77</ele>
        <time>2019-07-11T07:35:44Z</time>
      </trkpt>
      <trkpt lat="48.79295" lon="-3.39711">
        <ele>77.1</ele>
        <time>2019-07-11T07:35:45Z</time>
      </trkpt>
      <trkpt lat="48.79297" lon="-3.39716">
        <ele>77.2</ele>
        <time>2019-07-11T07:35:46Z</time>
      </trkpt>
      <trkpt lat="48.79299" lon="-3.39722">
        <ele>77.6</ele>
        <time>2019-07-11T07:35:47Z</time>
      </trkpt>
      <trkpt lat="48.79301" lon="-3.39727">
        <ele>78.1</ele>
        <time>2019-07-11T07:35:48Z</time>
      </trkpt>
      <trkpt lat="48.79302" lon="-3.39732">
        <ele>77.7</ele>
        <time>2019-07-11T07:35:49Z</time>
      </trkpt>
      <trkpt lat="48.79304" lon="-3.39738">
        <ele>77.1</ele>
        <time>2019-07-11T07:35:50Z</time>
      </trkpt>
      <trkpt lat="48.79305" lon="-3.39744">
        <ele>76.7</ele>
        <time>2019-07-11T07:35:51Z</time>
      </trkpt>
      <trkpt lat="48.79306" lon="-3.39749">
        <ele>76.8</ele>
        <time>2019-07-11T07:35:52Z</time>
      </trkpt>
      <trkpt lat="48.79308" lon="-3.39755">
        <ele>77.1</ele>
        <time>2019-07-11T07:35:53Z</time>
      </trkpt>
      <trkpt lat="48.79309" lon="-3.39761">
        <ele>77.1</ele>
        <time>2019-07-11T07:35:54Z</time>
      </trkpt>
      <trkpt lat="48.7931" lon="-3.39767">
        <ele>77.1</ele>
        <time>2019-07-11T07:35:55Z</time>
      </trkpt>
      <trkpt lat="48.79311" lon="-3.39773">
        <ele>77</ele>
        <time>2019-07-11T07:35:56Z</time>
      </trkpt>
      <trkpt lat="48.79312" lon="-3.39779">
        <ele>76.9</ele>
        <time>2019-07-11T07:35:57Z</time>
      </trkpt>
      <trkpt lat="48.79313" lon="-3.39786">
        <ele>76.9</ele>
        <time>2019-07-11T07:35:58Z</time>
      </trkpt>
      <trkpt lat="48.79314" lon="-3.39792">
        <ele>76.8</ele>
        <time>2019-07-11T07:35:59Z</time>
      </trkpt>
      <trkpt lat="48.79316" lon="-3.39799">
        <ele>76.6</ele>
        <time>2019-07-11T07:36:00Z</time>
      </trkpt>
      <trkpt lat="48.79316" lon="-3.39806">
        <ele>76.6</ele>
        <time>2019-07-11T07:36:01Z</time>
      </trkpt>
      <trkpt lat="48.79317" lon="-3.39813">
        <ele>76.2</ele>
        <time>2019-07-11T07:36:02Z</time>
      </trkpt>
      <trkpt lat="48.79318" lon="-3.39821">
        <ele>75.8</ele>
        <time>2019-07-11T07:36:03Z</time>
      </trkpt>
      <trkpt lat="48.79319" lon="-3.39828">
        <ele>75.2</ele>
        <time>2019-07-11T07:36:04Z</time>
      </trkpt>
      <trkpt lat="48.79319" lon="-3.39835">
        <ele>75</ele>
        <time>2019-07-11T07:36:05Z</time>
      </trkpt>
      <trkpt lat="48.7932" lon="-3.39843">
        <ele>74.8</ele>
        <time>2019-07-11T07:36:06Z</time>
      </trkpt>
      <trkpt lat="48.79321" lon="-3.39852">
        <ele>74.6</ele>
        <time>2019-07-11T07:36:07Z</time>
      </trkpt>
      <trkpt lat="48.79322" lon="-3.3986">
        <ele>74.7</ele>
        <time>2019-07-11T07:36:08Z</time>
      </trkpt>
      <trkpt lat="48.79323" lon="-3.39868">
        <ele>74.5</ele>
        <time>2019-07-11T07:36:09Z</time>
      </trkpt>
      <trkpt lat="48.79324" lon="-3.39877">
        <ele>74.1</ele>
        <time>2019-07-11T07:36:10Z</time>
      </trkpt>
      <trkpt lat="48.79325" lon="-3.39885">
        <ele>73.8</ele>
        <time>2019-07-11T07:36:11Z</time>
      </trkpt>
      <trkpt lat="48.79326" lon="-3.39894">
        <ele>73.4</ele>
        <time>2019-07-11T07:36:12Z</time>
      </trkpt>
      <trkpt lat="48.79326" lon="-3.39904">
        <ele>73.1</ele>
        <time>2019-07-11T07:36:13Z</time>
      </trkpt>
      <trkpt lat="48.79327" lon="-3.39913">
        <ele>72.4</ele>
        <time>2019-07-11T07:36:14Z</time>
      </trkpt>
      <trkpt lat="48.79328" lon="-3.39922">
        <ele>71.6</ele>
        <time>2019-07-11T07:36:15Z</time>
      </trkpt>
      <trkpt lat="48.7933" lon="-3.39931">
        <ele>71.4</ele>
        <time>2019-07-11T07:36:16Z</time>
      </trkpt>
      <trkpt lat="48.79331" lon="-3.39941">
        <ele>71.1</ele>
        <time>2019-07-11T07:36:17Z</time>
      </trkpt>
      <trkpt lat="48.79332" lon="-3.3995">
        <ele>70.5</ele>
        <time>2019-07-11T07:36:18Z</time>
      </trkpt>
      <trkpt lat="48.79333" lon="-3.3996">
        <ele>70.2</ele>
        <time>2019-07-11T07:36:19Z</time>
      </trkpt>
      <trkpt lat="48.79334" lon="-3.3997">
        <ele>70.5</ele>
        <time>2019-07-11T07:36:20Z</time>
      </trkpt>
      <trkpt lat="48.79336" lon="-3.3998">
        <ele>70.7</ele>
        <time>2019-07-11T07:36:21Z</time>
      </trkpt>
      <trkpt lat="48.79337" lon="-3.39991">
        <ele>70.5</ele>
        <time>2019-07-11T07:36:22Z</time>
      </trkpt>
      <trkpt lat="48.79338" lon="-3.40001">
        <ele>69.8</ele>
        <time>2019-07-11T07:36:23Z</time>
      </trkpt>
      <trkpt lat="48.79339" lon="-3.40011">
        <ele>69.6</ele>
        <time>2019-07-11T07:36:24Z</time>
      </trkpt>
      <trkpt lat="48.7934" lon="-3.40021">
        <ele>69.5</ele>
        <time>2019-07-11T07:36:25Z</time>
      </trkpt>
      <trkpt lat="48.79341" lon="-3.40031">
        <ele>69.8</ele>
        <time>2019-07-11T07:36:26Z</time>
      </trkpt>
      <trkpt lat="48.79342" lon="-3.40041">
        <ele>70.2</ele>
        <time>2019-07-11T07:36:27Z</time>
      </trkpt>
      <trkpt lat="48.79342" lon="-3.40052">
        <ele>70.2</ele>
        <time>2019-07-11T07:36:28Z</time>
      </trkpt>
      <trkpt lat="48.79342" lon="-3.40062">
        <ele>70.3</ele>
        <time>2019-07-11T07:36:29Z</time>
      </trkpt>
      <trkpt lat="48.79342" lon="-3.40071">
        <ele>70.3</ele>
        <time>2019-07-11T07:36:30Z</time>
      </trkpt>
      <trkpt lat="48.79343" lon="-3.40081">
        <ele>69.9</ele>
        <time>2019-07-11T07:36:31Z</time>
      </trkpt>
      <trkpt lat="48.79343" lon="-3.40091">
        <ele>69.7</ele>
        <time>2019-07-11T07:36:32Z</time>
      </trkpt>
      <trkpt lat="48.79343" lon="-3.401">
        <ele>70.2</ele>
        <time>2019-07-11T07:36:33Z</time>
      </trkpt>
      <trkpt lat="48.79344" lon="-3.40109">
        <ele>70.7</ele>
        <time>2019-07-11T07:36:34Z</time>
      </trkpt>
      <trkpt lat="48.79344" lon="-3.40117">
        <ele>70.5</ele>
        <time>2019-07-11T07:36:35Z</time>
      </trkpt>
      <trkpt lat="48.79345" lon="-3.40126">
        <ele>70</ele>
        <time>2019-07-11T07:36:36Z</time>
      </trkpt>
      <trkpt lat="48.79345" lon="-3.40134">
        <ele>69.7</ele>
        <time>2019-07-11T07:36:37Z</time>
      </trkpt>
      <trkpt lat="48.79345" lon="-3.40142">
        <ele>69.3</ele>
        <time>2019-07-11T07:36:38Z</time>
      </trkpt>
      <trkpt lat="48.79345" lon="-3.40149">
        <ele>69.1</ele>
        <time>2019-07-11T07:36:39Z</time>
      </trkpt>
      <trkpt lat="48.79345" lon="-3.40157">
        <ele>68.5</ele>
        <time>2019-07-11T07:36:40Z</time>
      </trkpt>
      <trkpt lat="48.79345" lon="-3.40164">
        <ele>69.2</ele>
        <time>2019-07-11T07:36:41Z</time>
      </trkpt>
      <trkpt lat="48.79345" lon="-3.40171">
        <ele>69.4</ele>
        <time>2019-07-11T07:36:42Z</time>
      </trkpt>
      <trkpt lat="48.79345" lon="-3.40177">
        <ele>69.7</ele>
        <time>2019-07-11T07:36:43Z</time>
      </trkpt>
      <trkpt lat="48.79346" lon="-3.40184">
        <ele>70.3</ele>
        <time>2019-07-11T07:36:44Z</time>
      </trkpt>
      <trkpt lat="48.79347" lon="-3.4019">
        <ele>71.1</ele>
        <time>2019-07-11T07:36:45Z</time>
      </trkpt>
      <trkpt lat="48.79347" lon="-3.40197">
        <ele>71.9</ele>
        <time>2019-07-11T07:36:46Z</time>
      </trkpt>
      <trkpt lat="48.79347" lon="-3.40204">
        <ele>72.2</ele>
        <time>2019-07-11T07:36:47Z</time>
      </trkpt>
      <trkpt lat="48.79348" lon="-3.4021">
        <ele>73.1</ele>
        <time>2019-07-11T07:36:48Z</time>
      </trkpt>
      <trkpt lat="48.79348" lon="-3.40216">
        <ele>73.7</ele>
        <time>2019-07-11T07:36:49Z</time>
      </trkpt>
      <trkpt lat="48.79349" lon="-3.40223">
        <ele>74.1</ele>
        <time>2019-07-11T07:36:50Z</time>
      </trkpt>
      <trkpt lat="48.7935" lon="-3.40229">
        <ele>74.2</ele>
        <time>2019-07-11T07:36:51Z</time>
      </trkpt>
      <trkpt lat="48.79351" lon="-3.40235">
        <ele>74.4</ele>
        <time>2019-07-11T07:36:52Z</time>
      </trkpt>
      <trkpt lat="48.79351" lon="-3.40241">
        <ele>74.2</ele>
        <time>2019-07-11T07:36:53Z</time>
      </trkpt>
      <trkpt lat="48.79351" lon="-3.40247">
        <ele>74.1</ele>
        <time>2019-07-11T07:36:54Z</time>
      </trkpt>
      <trkpt lat="48.79352" lon="-3.40254">
        <ele>74.4</ele>
        <time>2019-07-11T07:36:55Z</time>
      </trkpt>
      <trkpt lat="48.79352" lon="-3.4026">
        <ele>74.9</ele>
        <time>2019-07-11T07:36:56Z</time>
      </trkpt>
      <trkpt lat="48.79352" lon="-3.40267">
        <ele>74.4</ele>
        <time>2019-07-11T07:36:57Z</time>
      </trkpt>
      <trkpt lat="48.79352" lon="-3.40273">
        <ele>73.9</ele>
        <time>2019-07-11T07:36:58Z</time>
      </trkpt>
      <trkpt lat="48.79352" lon="-3.4028">
        <ele>74.3</ele>
        <time>2019-07-11T07:36:59Z</time>
      </trkpt>
      <trkpt lat="48.79352" lon="-3.40286">
        <ele>74.4</ele>
        <time>2019-07-11T07:37:00Z</time>
      </trkpt>
      <trkpt lat="48.79353" lon="-3.40292">
        <ele>73.8</ele>
        <time>2019-07-11T07:37:01Z</time>
      </trkpt>
      <trkpt lat="48.79355" lon="-3.40297">
        <ele>74.4</ele>
        <time>2019-07-11T07:37:02Z</time>
      </trkpt>
      <trkpt lat="48.79356" lon="-3.40302">
        <ele>74.5</ele>
        <time>2019-07-11T07:37:03Z</time>
      </trkpt>
      <trkpt lat="48.79357" lon="-3.40309">
        <ele>73.8</ele>
        <time>2019-07-11T07:37:04Z</time>
      </trkpt>
      <trkpt lat="48.79359" lon="-3.40314">
        <ele>73.9</ele>
        <time>2019-07-11T07:37:05Z</time>
      </trkpt>
      <trkpt lat="48.7936" lon="-3.40321">
        <ele>73.7</ele>
        <time>2019-07-11T07:37:06Z</time>
      </trkpt>
      <trkpt lat="48.79361" lon="-3.40327">
        <ele>73.9</ele>
        <time>2019-07-11T07:37:07Z</time>
      </trkpt>
      <trkpt lat="48.79361" lon="-3.40332">
        <ele>74</ele>
        <time>2019-07-11T07:37:08Z</time>
      </trkpt>
      <trkpt lat="48.79361" lon="-3.40338">
        <ele>74</ele>
        <time>2019-07-11T07:37:09Z</time>
      </trkpt>
      <trkpt lat="48.79362" lon="-3.40345">
        <ele>74</ele>
        <time>2019-07-11T07:37:10Z</time>
      </trkpt>
      <trkpt lat="48.79363" lon="-3.40352">
        <ele>74</ele>
        <time>2019-07-11T07:37:11Z</time>
      </trkpt>
      <trkpt lat="48.79363" lon="-3.40358">
        <ele>74.3</ele>
        <time>2019-07-11T07:37:12Z</time>
      </trkpt>
      <trkpt lat="48.79363" lon="-3.40364">
        <ele>74.3</ele>
        <time>2019-07-11T07:37:13Z</time>
      </trkpt>
      <trkpt lat="48.79364" lon="-3.4037">
        <ele>74.3</ele>
        <time>2019-07-11T07:37:14Z</time>
      </trkpt>
      <trkpt lat="48.79365" lon="-3.40375">
        <ele>74.1</ele>
        <time>2019-07-11T07:37:15Z</time>
      </trkpt>
      <trkpt lat="48.79366" lon="-3.40382">
        <ele>74.3</ele>
        <time>2019-07-11T07:37:16Z</time>
      </trkpt>
      <trkpt lat="48.79367" lon="-3.40388">
        <ele>74.3</ele>
        <time>2019-07-11T07:37:17Z</time>
      </trkpt>
      <trkpt lat="48.79368" lon="-3.40394">
        <ele>74.7</ele>
        <time>2019-07-11T07:37:18Z</time>
      </trkpt>
      <trkpt lat="48.79369" lon="-3.40399">
        <ele>74</ele>
        <time>2019-07-11T07:37:19Z</time>
      </trkpt>
      <trkpt lat="48.79369" lon="-3.40405">
        <ele>73.8</ele>
        <time>2019-07-11T07:37:20Z</time>
      </trkpt>
      <trkpt lat="48.7937" lon="-3.40411">
        <ele>73.6</ele>
        <time>2019-07-11T07:37:21Z</time>
      </trkpt>
      <trkpt lat="48.7937" lon="-3.40416">
        <ele>73.5</ele>
        <time>2019-07-11T07:37:22Z</time>
      </trkpt>
      <trkpt lat="48.79371" lon="-3.40422">
        <ele>73.1</ele>
        <time>2019-07-11T07:37:23Z</time>
      </trkpt>
      <trkpt lat="48.79372" lon="-3.40428">
        <ele>72.7</ele>
        <time>2019-07-11T07:37:24Z</time>
      </trkpt>
      <trkpt lat="48.79372" lon="-3.40433">
        <ele>73</ele>
        <time>2019-07-11T07:37:25Z</time>
      </trkpt>
      <trkpt lat="48.79372" lon="-3.40439">
        <ele>72.9</ele>
        <time>2019-07-11T07:37:26Z</time>
      </trkpt>
      <trkpt lat="48.79372" lon="-3.40444">
        <ele>72.8</ele>
        <time>2019-07-11T07:37:27Z</time>
      </trkpt>
      <trkpt lat="48.79373" lon="-3.40449">
        <ele>72.6</ele>
        <time>2019-07-11T07:37:28Z</time>
      </trkpt>
      <trkpt lat="48.79374" lon="-3.40454">
        <ele>73</ele>
        <time>2019-07-11T07:37:29Z</time>
      </trkpt>
      <trkpt lat="48.79375" lon="-3.40459">
        <ele>73</ele>
        <time>2019-07-11T07:37:30Z</time>
      </trkpt>
      <trkpt lat="48.79376" lon="-3.40464">
        <ele>72.8</ele>
        <time>2019-07-11T07:37:31Z</time>
      </trkpt>
      <trkpt lat="48.79377" lon="-3.40469">
        <ele>73.3</ele>
        <time>2019-07-11T07:37:32Z</time>
      </trkpt>
      <trkpt lat="48.79377" lon="-3.40475">
        <ele>73.4</ele>
        <time>2019-07-11T07:37:33Z</time>
      </trkpt>
      <trkpt lat="48.79378" lon="-3.40481">
        <ele>73.2</ele>
        <time>2019-07-11T07:37:34Z</time>
      </trkpt>
      <trkpt lat="48.79379" lon="-3.40485">
        <ele>72.5</ele>
        <time>2019-07-11T07:37:35Z</time>
      </trkpt>
      <trkpt lat="48.7938" lon="-3.4049">
        <ele>72.6</ele>
        <time>2019-07-11T07:37:36Z</time>
      </trkpt>
      <trkpt lat="48.79381" lon="-3.40496">
        <ele>72.7</ele>
        <time>2019-07-11T07:37:37Z</time>
      </trkpt>
      <trkpt lat="48.79382" lon="-3.40501">
        <ele>72.9</ele>
        <time>2019-07-11T07:37:38Z</time>
      </trkpt>
      <trkpt lat="48.79383" lon="-3.40506">
        <ele>72.7</ele>
        <time>2019-07-11T07:37:39Z</time>
      </trkpt>
      <trkpt lat="48.79384" lon="-3.40511">
        <ele>72.7</ele>
        <time>2019-07-11T07:37:40Z</time>
      </trkpt>
      <trkpt lat="48.79384" lon="-3.40517">
        <ele>73.3</ele>
        <time>2019-07-11T07:37:41Z</time>
      </trkpt>
      <trkpt lat="48.79385" lon="-3.40522">
        <ele>73.4</ele>
        <time>2019-07-11T07:37:42Z</time>
      </trkpt>
      <trkpt lat="48.79385" lon="-3.40527">
        <ele>73.2</ele>
        <time>2019-07-11T07:37:43Z</time>
      </trkpt>
      <trkpt lat="48.79385" lon="-3.40533">
        <ele>73.6</ele>
        <time>2019-07-11T07:37:44Z</time>
      </trkpt>
      <trkpt lat="48.79386" lon="-3.40538">
        <ele>73.9</ele>
        <time>2019-07-11T07:37:45Z</time>
      </trkpt>
      <trkpt lat="48.79387" lon="-3.40543">
        <ele>74.7</ele>
        <time>2019-07-11T07:37:46Z</time>
      </trkpt>
      <trkpt lat="48.79387" lon="-3.40549">
        <ele>74.6</ele>
        <time>2019-07-11T07:37:47Z</time>
      </trkpt>
      <trkpt lat="48.79388" lon="-3.40554">
        <ele>75.1</ele>
        <time>2019-07-11T07:37:48Z</time>
      </trkpt>
      <trkpt lat="48.79388" lon="-3.4056">
        <ele>75.9</ele>
        <time>2019-07-11T07:37:49Z</time>
      </trkpt>
      <trkpt lat="48.79387" lon="-3.40566">
        <ele>75.7</ele>
        <time>2019-07-11T07:37:50Z</time>
      </trkpt>
      <trkpt lat="48.79387" lon="-3.40571">
        <ele>76</ele>
        <time>2019-07-11T07:37:51Z</time>
      </trkpt>
      <trkpt lat="48.79387" lon="-3.40577">
        <ele>76.3</ele>
        <time>2019-07-11T07:37:52Z</time>
      </trkpt>
      <trkpt lat="48.79386" lon="-3.40583">
        <ele>76.3</ele>
        <time>2019-07-11T07:37:53Z</time>
      </trkpt>
      <trkpt lat="48.79386" lon="-3.40589">
        <ele>76.8</ele>
        <time>2019-07-11T07:37:54Z</time>
      </trkpt>
      <trkpt lat="48.79385" lon="-3.40594">
        <ele>77.6</ele>
        <time>2019-07-11T07:37:55Z</time>
      </trkpt>
      <trkpt lat="48.79384" lon="-3.406">
        <ele>78.6</ele>
        <time>2019-07-11T07:37:56Z</time>
      </trkpt>
      <trkpt lat="48.79384" lon="-3.40606">
        <ele>79.1</ele>
        <time>2019-07-11T07:37:57Z</time>
      </trkpt>
      <trkpt lat="48.79384" lon="-3.40612">
        <ele>79.5</ele>
        <time>2019-07-11T07:37:58Z</time>
      </trkpt>
      <trkpt lat="48.79383" lon="-3.40618">
        <ele>78.6</ele>
        <time>2019-07-11T07:37:59Z</time>
      </trkpt>
      <trkpt lat="48.79382" lon="-3.40624">
        <ele>77.8</ele>
        <time>2019-07-11T07:38:00Z</time>
      </trkpt>
      <trkpt lat="48.79382" lon="-3.40632">
        <ele>76.8</ele>
        <time>2019-07-11T07:38:01Z</time>
      </trkpt>
      <trkpt lat="48.79381" lon="-3.40641">
        <ele>76</ele>
        <time>2019-07-11T07:38:02Z</time>
      </trkpt>
      <trkpt lat="48.7938" lon="-3.40649">
        <ele>75</ele>
        <time>2019-07-11T07:38:03Z</time>
      </trkpt>
      <trkpt lat="48.7938" lon="-3.40658">
        <ele>74.8</ele>
        <time>2019-07-11T07:38:04Z</time>
      </trkpt>
      <trkpt lat="48.7938" lon="-3.40667">
        <ele>74.1</ele>
        <time>2019-07-11T07:38:05Z</time>
      </trkpt>
      <trkpt lat="48.79379" lon="-3.40675">
        <ele>73.7</ele>
        <time>2019-07-11T07:38:06Z</time>
      </trkpt>
      <trkpt lat="48.79379" lon="-3.40685">
        <ele>73.5</ele>
        <time>2019-07-11T07:38:07Z</time>
      </trkpt>
      <trkpt lat="48.7938" lon="-3.40695">
        <ele>72.4</ele>
        <time>2019-07-11T07:38:08Z</time>
      </trkpt>
      <trkpt lat="48.79381" lon="-3.40705">
        <ele>71.2</ele>
        <time>2019-07-11T07:38:09Z</time>
      </trkpt>
      <trkpt lat="48.79381" lon="-3.40714">
        <ele>70.6</ele>
        <time>2019-07-11T07:38:10Z</time>
      </trkpt>
      <trkpt lat="48.7938" lon="-3.40725">
        <ele>70</ele>
        <time>2019-07-11T07:38:11Z</time>
      </trkpt>
      <trkpt lat="48.7938" lon="-3.40734">
        <ele>69.5</ele>
        <time>2019-07-11T07:38:12Z</time>
      </trkpt>
      <trkpt lat="48.79379" lon="-3.40742">
        <ele>68.8</ele>
        <time>2019-07-11T07:38:13Z</time>
      </trkpt>
      <trkpt lat="48.79379" lon="-3.40748">
        <ele>68.1</ele>
        <time>2019-07-11T07:38:14Z</time>
      </trkpt>
      <trkpt lat="48.79379" lon="-3.40752">
        <ele>67.5</ele>
        <time>2019-07-11T07:38:15Z</time>
      </trkpt>
      <trkpt lat="48.79379" lon="-3.40757">
        <ele>66.9</ele>
        <time>2019-07-11T07:38:16Z</time>
      </trkpt>
      <trkpt lat="48.79379" lon="-3.40761">
        <ele>67</ele>
        <time>2019-07-11T07:38:17Z</time>
      </trkpt>
      <trkpt lat="48.79378" lon="-3.40766">
        <ele>66.8</ele>
        <time>2019-07-11T07:38:18Z</time>
      </trkpt>
      <trkpt lat="48.79377" lon="-3.40771">
        <ele>66.1</ele>
        <time>2019-07-11T07:38:19Z</time>
      </trkpt>
      <trkpt lat="48.79376" lon="-3.40777">
        <ele>65.6</ele>
        <time>2019-07-11T07:38:20Z</time>
      </trkpt>
      <trkpt lat="48.79376" lon="-3.40784">
        <ele>65.4</ele>
        <time>2019-07-11T07:38:21Z</time>
      </trkpt>
      <trkpt lat="48.79375" lon="-3.4079">
        <ele>65.4</ele>
        <time>2019-07-11T07:38:22Z</time>
      </trkpt>
      <trkpt lat="48.79374" lon="-3.40797">
        <ele>64.6</ele>
        <time>2019-07-11T07:38:23Z</time>
      </trkpt>
      <trkpt lat="48.79373" lon="-3.40805">
        <ele>64.1</ele>
        <time>2019-07-11T07:38:24Z</time>
      </trkpt>
      <trkpt lat="48.79373" lon="-3.40812">
        <ele>64</ele>
        <time>2019-07-11T07:38:25Z</time>
      </trkpt>
      <trkpt lat="48.79372" lon="-3.40819">
        <ele>64</ele>
        <time>2019-07-11T07:38:26Z</time>
      </trkpt>
      <trkpt lat="48.79371" lon="-3.40826">
        <ele>63.9</ele>
        <time>2019-07-11T07:38:27Z</time>
      </trkpt>
      <trkpt lat="48.79371" lon="-3.40833">
        <ele>63.9</ele>
        <time>2019-07-11T07:38:28Z</time>
      </trkpt>
      <trkpt lat="48.79369" lon="-3.40839">
        <ele>64.1</ele>
        <time>2019-07-11T07:38:29Z</time>
      </trkpt>
      <trkpt lat="48.79369" lon="-3.40843">
        <ele>64.9</ele>
        <time>2019-07-11T07:38:30Z</time>
      </trkpt>
      <trkpt lat="48.79369" lon="-3.40846">
        <ele>65.7</ele>
        <time>2019-07-11T07:38:31Z</time>
      </trkpt>
      <trkpt lat="48.79369" lon="-3.40849">
        <ele>66.5</ele>
        <time>2019-07-11T07:38:32Z</time>
      </trkpt>
      <trkpt lat="48.79368" lon="-3.40852">
        <ele>66.6</ele>
        <time>2019-07-11T07:38:33Z</time>
      </trkpt>
      <trkpt lat="48.79367" lon="-3.40854">
        <ele>66</ele>
        <time>2019-07-11T07:38:34Z</time>
      </trkpt>
      <trkpt lat="48.79366" lon="-3.40857">
        <ele>66.1</ele>
        <time>2019-07-11T07:38:35Z</time>
      </trkpt>
      <trkpt lat="48.79365" lon="-3.40861">
        <ele>66.5</ele>
        <time>2019-07-11T07:38:36Z</time>
      </trkpt>
      <trkpt lat="48.79365" lon="-3.40866">
        <ele>66.1</ele>
        <time>2019-07-11T07:38:37Z</time>
      </trkpt>
      <trkpt lat="48.79365" lon="-3.40871">
        <ele>65.9</ele>
        <time>2019-07-11T07:38:38Z</time>
      </trkpt>
      <trkpt lat="48.79366" lon="-3.40876">
        <ele>65.4</ele>
        <time>2019-07-11T07:38:39Z</time>
      </trkpt>
      <trkpt lat="48.79367" lon="-3.40881">
        <ele>65.2</ele>
        <time>2019-07-11T07:38:40Z</time>
      </trkpt>
      <trkpt lat="48.79368" lon="-3.40887">
        <ele>65</ele>
        <time>2019-07-11T07:38:41Z</time>
      </trkpt>
      <trkpt lat="48.79369" lon="-3.40893">
        <ele>65.3</ele>
        <time>2019-07-11T07:38:42Z</time>
      </trkpt>
      <trkpt lat="48.79371" lon="-3.40899">
        <ele>65.6</ele>
        <time>2019-07-11T07:38:43Z</time>
      </trkpt>
      <trkpt lat="48.79372" lon="-3.40905">
        <ele>65.5</ele>
        <time>2019-07-11T07:38:44Z</time>
      </trkpt>
      <trkpt lat="48.79373" lon="-3.40911">
        <ele>65.5</ele>
        <time>2019-07-11T07:38:45Z</time>
      </trkpt>
      <trkpt lat="48.79374" lon="-3.40918">
        <ele>65.8</ele>
        <time>2019-07-11T07:38:46Z</time>
      </trkpt>
      <trkpt lat="48.79376" lon="-3.40925">
        <ele>66.2</ele>
        <time>2019-07-11T07:38:47Z</time>
      </trkpt>
      <trkpt lat="48.79377" lon="-3.40931">
        <ele>65.5</ele>
        <time>2019-07-11T07:38:48Z</time>
      </trkpt>
      <trkpt lat="48.79378" lon="-3.40938">
        <ele>66</ele>
        <time>2019-07-11T07:38:49Z</time>
      </trkpt>
      <trkpt lat="48.79379" lon="-3.40944">
        <ele>66.9</ele>
        <time>2019-07-11T07:38:50Z</time>
      </trkpt>
      <trkpt lat="48.7938" lon="-3.40951">
        <ele>66.7</ele>
        <time>2019-07-11T07:38:51Z</time>
      </trkpt>
      <trkpt lat="48.79382" lon="-3.40957">
        <ele>66.4</ele>
        <time>2019-07-11T07:38:52Z</time>
      </trkpt>
      <trkpt lat="48.79384" lon="-3.40963">
        <ele>66.5</ele>
        <time>2019-07-11T07:38:53Z</time>
      </trkpt>
      <trkpt lat="48.79385" lon="-3.40969">
        <ele>66.2</ele>
        <time>2019-07-11T07:38:54Z</time>
      </trkpt>
      <trkpt lat="48.79386" lon="-3.40975">
        <ele>66.1</ele>
        <time>2019-07-11T07:38:55Z</time>
      </trkpt>
      <trkpt lat="48.79387" lon="-3.40982">
        <ele>65.6</ele>
        <time>2019-07-11T07:38:56Z</time>
      </trkpt>
      <trkpt lat="48.79388" lon="-3.40988">
        <ele>65.2</ele>
        <time>2019-07-11T07:38:57Z</time>
      </trkpt>
      <trkpt lat="48.79388" lon="-3.40993">
        <ele>64.7</ele>
        <time>2019-07-11T07:38:58Z</time>
      </trkpt>
      <trkpt lat="48.7939" lon="-3.40998">
        <ele>64.6</ele>
        <time>2019-07-11T07:38:59Z</time>
      </trkpt>
      <trkpt lat="48.79391" lon="-3.41004">
        <ele>64.5</ele>
        <time>2019-07-11T07:39:00Z</time>
      </trkpt>
      <trkpt lat="48.79392" lon="-3.41009">
        <ele>64.3</ele>
        <time>2019-07-11T07:39:01Z</time>
      </trkpt>
      <trkpt lat="48.79393" lon="-3.41014">
        <ele>64.3</ele>
        <time>2019-07-11T07:39:02Z</time>
      </trkpt>
      <trkpt lat="48.79393" lon="-3.41019">
        <ele>64.1</ele>
        <time>2019-07-11T07:39:03Z</time>
      </trkpt>
      <trkpt lat="48.79394" lon="-3.41023">
        <ele>63.8</ele>
        <time>2019-07-11T07:39:04Z</time>
      </trkpt>
      <trkpt lat="48.79396" lon="-3.41029">
        <ele>63.6</ele>
        <time>2019-07-11T07:39:05Z</time>
      </trkpt>
      <trkpt lat="48.79397" lon="-3.41034">
        <ele>63.5</ele>
        <time>2019-07-11T07:39:06Z</time>
      </trkpt>
      <trkpt lat="48.79398" lon="-3.41039">
        <ele>63.8</ele>
        <time>2019-07-11T07:39:07Z</time>
      </trkpt>
      <trkpt lat="48.79398" lon="-3.41043">
        <ele>64.1</ele>
        <time>2019-07-11T07:39:08Z</time>
      </trkpt>
      <trkpt lat="48.794" lon="-3.41047">
        <ele>64.2</ele>
        <time>2019-07-11T07:39:09Z</time>
      </trkpt>
      <trkpt lat="48.794" lon="-3.41051">
        <ele>64.4</ele>
        <time>2019-07-11T07:39:10Z</time>
      </trkpt>
      <trkpt lat="48.794" lon="-3.41054">
        <ele>64.1</ele>
        <time>2019-07-11T07:39:11Z</time>
      </trkpt>
      <trkpt lat="48.794" lon="-3.41057">
        <ele>64.4</ele>
        <time>2019-07-11T07:39:12Z</time>
      </trkpt>
      <trkpt lat="48.794" lon="-3.4106">
        <ele>64.6</ele>
        <time>2019-07-11T07:39:13Z</time>
      </trkpt>
      <trkpt lat="48.794" lon="-3.41062">
        <ele>64.4</ele>
        <time>2019-07-11T07:39:14Z</time>
      </trkpt>
      <trkpt lat="48.79399" lon="-3.41063">
        <ele>64.3</ele>
        <time>2019-07-11T07:39:15Z</time>
      </trkpt>
      <trkpt lat="48.79398" lon="-3.41064">
        <ele>64</ele>
        <time>2019-07-11T07:39:16Z</time>
      </trkpt>
      <trkpt lat="48.79397" lon="-3.41065">
        <ele>64.2</ele>
        <time>2019-07-11T07:39:17Z</time>
      </trkpt>
      <trkpt lat="48.79396" lon="-3.41065">
        <ele>64.4</ele>
        <time>2019-07-11T07:39:18Z</time>
      </trkpt>
      <trkpt lat="48.79397" lon="-3.41062">
        <ele>65</ele>
        <time>2019-07-11T07:40:40Z</time>
      </trkpt>
      <trkpt lat="48.79397" lon="-3.41064">
        <ele>64.9</ele>
        <time>2019-07-11T07:40:41Z</time>
      </trkpt>
      <trkpt lat="48.79398" lon="-3.41065">
        <ele>64.9</ele>
        <time>2019-07-11T07:40:42Z</time>
      </trkpt>
      <trkpt lat="48.79398" lon="-3.41066">
        <ele>64.8</ele>
        <time>2019-07-11T07:40:43Z</time>
      </trkpt>
      <trkpt lat="48.79398" lon="-3.41067">
        <ele>64.7</ele>
        <time>2019-07-11T07:40:44Z</time>
      </trkpt>
      <trkpt lat="48.79399" lon="-3.41076">
        <ele>64.7</ele>
        <time>2019-07-11T07:40:52Z</time>
      </trkpt>
      <trkpt lat="48.794" lon="-3.41079">
        <ele>64.9</ele>
        <time>2019-07-11T07:40:53Z</time>
      </trkpt>
      <trkpt lat="48.79401" lon="-3.41082">
        <ele>64.9</ele>
        <time>2019-07-11T07:40:54Z</time>
      </trkpt>
      <trkpt lat="48.79402" lon="-3.41084">
        <ele>65.2</ele>
        <time>2019-07-11T07:40:55Z</time>
      </trkpt>
      <trkpt lat="48.79403" lon="-3.41086">
        <ele>65.6</ele>
        <time>2019-07-11T07:40:56Z</time>
      </trkpt>
      <trkpt lat="48.79403" lon="-3.41088">
        <ele>66</ele>
        <time>2019-07-11T07:40:57Z</time>
      </trkpt>
      <trkpt lat="48.79404" lon="-3.41091">
        <ele>66.3</ele>
        <time>2019-07-11T07:40:58Z</time>
      </trkpt>
      <trkpt lat="48.79404" lon="-3.41092">
        <ele>66.4</ele>
        <time>2019-07-11T07:40:59Z</time>
      </trkpt>
      <trkpt lat="48.79406" lon="-3.41093">
        <ele>66.4</ele>
        <time>2019-07-11T07:41:00Z</time>
      </trkpt>
      <trkpt lat="48.79411" lon="-3.41096">
        <ele>66</ele>
        <time>2019-07-11T07:41:27Z</time>
      </trkpt>
      <trkpt lat="48.79413" lon="-3.41099">
        <ele>66.2</ele>
        <time>2019-07-11T07:41:28Z</time>
      </trkpt>
      <trkpt lat="48.79414" lon="-3.41101">
        <ele>66.5</ele>
        <time>2019-07-11T07:41:29Z</time>
      </trkpt>
      <trkpt lat="48.79414" lon="-3.41104">
        <ele>67.1</ele>
        <time>2019-07-11T07:41:30Z</time>
      </trkpt>
      <trkpt lat="48.79416" lon="-3.41108">
        <ele>67.1</ele>
        <time>2019-07-11T07:41:31Z</time>
      </trkpt>
      <trkpt lat="48.79417" lon="-3.41111">
        <ele>66.9</ele>
        <time>2019-07-11T07:41:32Z</time>
      </trkpt>
      <trkpt lat="48.79419" lon="-3.41114">
        <ele>66.6</ele>
        <time>2019-07-11T07:41:33Z</time>
      </trkpt>
      <trkpt lat="48.79422" lon="-3.41117">
        <ele>66.5</ele>
        <time>2019-07-11T07:41:34Z</time>
      </trkpt>
      <trkpt lat="48.79424" lon="-3.4112">
        <ele>66.7</ele>
        <time>2019-07-11T07:41:35Z</time>
      </trkpt>
      <trkpt lat="48.79426" lon="-3.41124">
        <ele>67.1</ele>
        <time>2019-07-11T07:41:36Z</time>
      </trkpt>
      <trkpt lat="48.79427" lon="-3.41126">
        <ele>67.6</ele>
        <time>2019-07-11T07:41:37Z</time>
      </trkpt>
      <trkpt lat="48.79429" lon="-3.41128">
        <ele>67.9</ele>
        <time>2019-07-11T07:41:38Z</time>
      </trkpt>
      <trkpt lat="48.7943" lon="-3.41129">
        <ele>68.7</ele>
        <time>2019-07-11T07:41:39Z</time>
      </trkpt>
      <trkpt lat="48.79431" lon="-3.41131">
        <ele>69.1</ele>
        <time>2019-07-11T07:41:40Z</time>
      </trkpt>
      <trkpt lat="48.79433" lon="-3.41134">
        <ele>69.3</ele>
        <time>2019-07-11T07:41:41Z</time>
      </trkpt>
      <trkpt lat="48.79436" lon="-3.41137">
        <ele>69.5</ele>
        <time>2019-07-11T07:41:42Z</time>
      </trkpt>
      <trkpt lat="48.79438" lon="-3.41142">
        <ele>69.6</ele>
        <time>2019-07-11T07:41:43Z</time>
      </trkpt>
      <trkpt lat="48.79441" lon="-3.41149">
        <ele>69.4</ele>
        <time>2019-07-11T07:41:44Z</time>
      </trkpt>
      <trkpt lat="48.79444" lon="-3.41156">
        <ele>69.6</ele>
        <time>2019-07-11T07:41:45Z</time>
      </trkpt>
      <trkpt lat="48.79446" lon="-3.41163">
        <ele>69.8</ele>
        <time>2019-07-11T07:41:46Z</time>
      </trkpt>
      <trkpt lat="48.79448" lon="-3.41171">
        <ele>70.2</ele>
        <time>2019-07-11T07:41:47Z</time>
      </trkpt>
      <trkpt lat="48.7945" lon="-3.41179">
        <ele>70.5</ele>
        <time>2019-07-11T07:41:48Z</time>
      </trkpt>
      <trkpt lat="48.79453" lon="-3.41186">
        <ele>71.1</ele>
        <time>2019-07-11T07:41:49Z</time>
      </trkpt>
      <trkpt lat="48.79456" lon="-3.41195">
        <ele>71.4</ele>
        <time>2019-07-11T07:41:50Z</time>
      </trkpt>
      <trkpt lat="48.79458" lon="-3.41205">
        <ele>71.6</ele>
        <time>2019-07-11T07:41:51Z</time>
      </trkpt>
      <trkpt lat="48.79459" lon="-3.41215">
        <ele>70.8</ele>
        <time>2019-07-11T07:41:52Z</time>
      </trkpt>
      <trkpt lat="48.79462" lon="-3.41226">
        <ele>69.5</ele>
        <time>2019-07-11T07:41:53Z</time>
      </trkpt>
      <trkpt lat="48.79464" lon="-3.41237">
        <ele>67.9</ele>
        <time>2019-07-11T07:41:54Z</time>
      </trkpt>
      <trkpt lat="48.79466" lon="-3.41248">
        <ele>66.6</ele>
        <time>2019-07-11T07:41:55Z</time>
      </trkpt>
      <trkpt lat="48.79468" lon="-3.4126">
        <ele>64</ele>
        <time>2019-07-11T07:41:56Z</time>
      </trkpt>
      <trkpt lat="48.7947" lon="-3.41272">
        <ele>61.5</ele>
        <time>2019-07-11T07:41:57Z</time>
      </trkpt>
      <trkpt lat="48.79471" lon="-3.41283">
        <ele>59.9</ele>
        <time>2019-07-11T07:41:58Z</time>
      </trkpt>
      <trkpt lat="48.79473" lon="-3.41291">
        <ele>58.5</ele>
        <time>2019-07-11T07:41:59Z</time>
      </trkpt>
      <trkpt lat="48.79474" lon="-3.41297">
        <ele>57.2</ele>
        <time>2019-07-11T07:42:00Z</time>
      </trkpt>
      <trkpt lat="48.79476" lon="-3.41303">
        <ele>56.2</ele>
        <time>2019-07-11T07:42:01Z</time>
      </trkpt>
      <trkpt lat="48.79477" lon="-3.41307">
        <ele>55.4</ele>
        <time>2019-07-11T07:42:02Z</time>
      </trkpt>
      <trkpt lat="48.79478" lon="-3.41311">
        <ele>54.7</ele>
        <time>2019-07-11T07:42:03Z</time>
      </trkpt>
      <trkpt lat="48.79479" lon="-3.41315">
        <ele>53.8</ele>
        <time>2019-07-11T07:42:04Z</time>
      </trkpt>
      <trkpt lat="48.7948" lon="-3.41319">
        <ele>53.7</ele>
        <time>2019-07-11T07:42:05Z</time>
      </trkpt>
      <trkpt lat="48.79481" lon="-3.41323">
        <ele>53.1</ele>
        <time>2019-07-11T07:42:06Z</time>
      </trkpt>
      <trkpt lat="48.79482" lon="-3.41327">
        <ele>52.4</ele>
        <time>2019-07-11T07:42:07Z</time>
      </trkpt>
      <trkpt lat="48.79484" lon="-3.41332">
        <ele>52</ele>
        <time>2019-07-11T07:42:08Z</time>
      </trkpt>
      <trkpt lat="48.79485" lon="-3.41337">
        <ele>51.5</ele>
        <time>2019-07-11T07:42:09Z</time>
      </trkpt>
      <trkpt lat="48.79486" lon="-3.41343">
        <ele>51.4</ele>
        <time>2019-07-11T07:42:10Z</time>
      </trkpt>
      <trkpt lat="48.79488" lon="-3.41349">
        <ele>50.9</ele>
        <time>2019-07-11T07:42:11Z</time>
      </trkpt>
      <trkpt lat="48.79489" lon="-3.41355">
        <ele>49.8</ele>
        <time>2019-07-11T07:42:12Z</time>
      </trkpt>
      <trkpt lat="48.7949" lon="-3.41361">
        <ele>49.7</ele>
        <time>2019-07-11T07:42:13Z</time>
      </trkpt>
      <trkpt lat="48.79491" lon="-3.41367">
        <ele>49.3</ele>
        <time>2019-07-11T07:42:14Z</time>
      </trkpt>
      <trkpt lat="48.79493" lon="-3.41372">
        <ele>49.5</ele>
        <time>2019-07-11T07:42:15Z</time>
      </trkpt>
      <trkpt lat="48.79495" lon="-3.41377">
        <ele>49.6</ele>
        <time>2019-07-11T07:42:16Z</time>
      </trkpt>
      <trkpt lat="48.79496" lon="-3.41381">
        <ele>50</ele>
        <time>2019-07-11T07:42:17Z</time>
      </trkpt>
      <trkpt lat="48.79498" lon="-3.41385">
        <ele>50.1</ele>
        <time>2019-07-11T07:42:18Z</time>
      </trkpt>
      <trkpt lat="48.795" lon="-3.41389">
        <ele>50.1</ele>
        <time>2019-07-11T07:42:19Z</time>
      </trkpt>
      <trkpt lat="48.79501" lon="-3.41394">
        <ele>50.2</ele>
        <time>2019-07-11T07:42:20Z</time>
      </trkpt>
      <trkpt lat="48.79502" lon="-3.41398">
        <ele>49.9</ele>
        <time>2019-07-11T07:42:21Z</time>
      </trkpt>
      <trkpt lat="48.79502" lon="-3.41404">
        <ele>50.6</ele>
        <time>2019-07-11T07:42:22Z</time>
      </trkpt>
      <trkpt lat="48.79501" lon="-3.41409">
        <ele>51</ele>
        <time>2019-07-11T07:42:23Z</time>
      </trkpt>
      <trkpt lat="48.79499" lon="-3.41413">
        <ele>51.1</ele>
        <time>2019-07-11T07:42:24Z</time>
      </trkpt>
      <trkpt lat="48.79498" lon="-3.41417">
        <ele>51.9</ele>
        <time>2019-07-11T07:42:25Z</time>
      </trkpt>
      <trkpt lat="48.79498" lon="-3.41421">
        <ele>52.2</ele>
        <time>2019-07-11T07:42:26Z</time>
      </trkpt>
      <trkpt lat="48.79498" lon="-3.41424">
        <ele>52.4</ele>
        <time>2019-07-11T07:42:27Z</time>
      </trkpt>
      <trkpt lat="48.79498" lon="-3.41429">
        <ele>52.4</ele>
        <time>2019-07-11T07:42:47Z</time>
      </trkpt>
      <trkpt lat="48.79497" lon="-3.41431">
        <ele>52.5</ele>
        <time>2019-07-11T07:42:48Z</time>
      </trkpt>
      <trkpt lat="48.79496" lon="-3.41434">
        <ele>52.6</ele>
        <time>2019-07-11T07:42:49Z</time>
      </trkpt>
      <trkpt lat="48.79496" lon="-3.41437">
        <ele>52.7</ele>
        <time>2019-07-11T07:42:50Z</time>
      </trkpt>
      <trkpt lat="48.79499" lon="-3.41451">
        <ele>50.3</ele>
        <time>2019-07-11T07:46:50Z</time>
      </trkpt>
      <trkpt lat="48.79498" lon="-3.41452">
        <ele>50.2</ele>
        <time>2019-07-11T07:46:51Z</time>
      </trkpt>
      <trkpt lat="48.79498" lon="-3.41454">
        <ele>50.1</ele>
        <time>2019-07-11T07:46:52Z</time>
      </trkpt>
      <trkpt lat="48.79497" lon="-3.41456">
        <ele>50</ele>
        <time>2019-07-11T07:46:53Z</time>
      </trkpt>
      <trkpt lat="48.79497" lon="-3.41458">
        <ele>49.8</ele>
        <time>2019-07-11T07:46:54Z</time>
      </trkpt>
      <trkpt lat="48.79497" lon="-3.4146">
        <ele>49.8</ele>
        <time>2019-07-11T07:46:55Z</time>
      </trkpt>
      <trkpt lat="48.79497" lon="-3.41462">
        <ele>49.8</ele>
        <time>2019-07-11T07:46:56Z</time>
      </trkpt>
      <trkpt lat="48.79496" lon="-3.41463">
        <ele>49.6</ele>
        <time>2019-07-11T07:46:57Z</time>
      </trkpt>
      <trkpt lat="48.79496" lon="-3.41465">
        <ele>49.5</ele>
        <time>2019-07-11T07:46:58Z</time>
      </trkpt>
      <trkpt lat="48.79496" lon="-3.41467">
        <ele>48.9</ele>
        <time>2019-07-11T07:46:59Z</time>
      </trkpt>
      <trkpt lat="48.79497" lon="-3.41472">
        <ele>48.3</ele>
        <time>2019-07-11T07:47:10Z</time>
      </trkpt>
      <trkpt lat="48.79497" lon="-3.41475">
        <ele>48.3</ele>
        <time>2019-07-11T07:47:11Z</time>
      </trkpt>
      <trkpt lat="48.79497" lon="-3.41478">
        <ele>48.4</ele>
        <time>2019-07-11T07:47:12Z</time>
      </trkpt>
      <trkpt lat="48.79497" lon="-3.41483">
        <ele>48.4</ele>
        <time>2019-07-11T07:47:13Z</time>
      </trkpt>
      <trkpt lat="48.79496" lon="-3.41487">
        <ele>48.3</ele>
        <time>2019-07-11T07:47:14Z</time>
      </trkpt>
      <trkpt lat="48.79496" lon="-3.41492">
        <ele>48.5</ele>
        <time>2019-07-11T07:47:15Z</time>
      </trkpt>
      <trkpt lat="48.79495" lon="-3.41497">
        <ele>48.5</ele>
        <time>2019-07-11T07:47:16Z</time>
      </trkpt>
      <trkpt lat="48.79495" lon="-3.41502">
        <ele>48.9</ele>
        <time>2019-07-11T07:47:17Z</time>
      </trkpt>
      <trkpt lat="48.79493" lon="-3.41507">
        <ele>49.1</ele>
        <time>2019-07-11T07:47:18Z</time>
      </trkpt>
      <trkpt lat="48.79492" lon="-3.41512">
        <ele>49.4</ele>
        <time>2019-07-11T07:47:19Z</time>
      </trkpt>
      <trkpt lat="48.79491" lon="-3.41517">
        <ele>49.4</ele>
        <time>2019-07-11T07:47:20Z</time>
      </trkpt>
      <trkpt lat="48.7949" lon="-3.41523">
        <ele>49.5</ele>
        <time>2019-07-11T07:47:21Z</time>
      </trkpt>
      <trkpt lat="48.79489" lon="-3.41529">
        <ele>49.6</ele>
        <time>2019-07-11T07:47:22Z</time>
      </trkpt>
      <trkpt lat="48.79488" lon="-3.41535">
        <ele>48.9</ele>
        <time>2019-07-11T07:47:23Z</time>
      </trkpt>
      <trkpt lat="48.79487" lon="-3.41542">
        <ele>48.3</ele>
        <time>2019-07-11T07:47:24Z</time>
      </trkpt>
      <trkpt lat="48.79485" lon="-3.41549">
        <ele>48.1</ele>
        <time>2019-07-11T07:47:25Z</time>
      </trkpt>
      <trkpt lat="48.79484" lon="-3.41556">
        <ele>47.9</ele>
        <time>2019-07-11T07:47:26Z</time>
      </trkpt>
      <trkpt lat="48.79483" lon="-3.41564">
        <ele>48.1</ele>
        <time>2019-07-11T07:47:27Z</time>
      </trkpt>
      <trkpt lat="48.79482" lon="-3.41572">
        <ele>47.6</ele>
        <time>2019-07-11T07:47:28Z</time>
      </trkpt>
      <trkpt lat="48.79481" lon="-3.4158">
        <ele>47.6</ele>
        <time>2019-07-11T07:47:29Z</time>
      </trkpt>
      <trkpt lat="48.7948" lon="-3.41587">
        <ele>47.5</ele>
        <time>2019-07-11T07:47:30Z</time>
      </trkpt>
      <trkpt lat="48.79479" lon="-3.41595">
        <ele>47.5</ele>
        <time>2019-07-11T07:47:31Z</time>
      </trkpt>
      <trkpt lat="48.79478" lon="-3.41604">
        <ele>47</ele>
        <time>2019-07-11T07:47:32Z</time>
      </trkpt>
      <trkpt lat="48.79477" lon="-3.41613">
        <ele>46.3</ele>
        <time>2019-07-11T07:47:33Z</time>
      </trkpt>
      <trkpt lat="48.79477" lon="-3.41622">
        <ele>45.9</ele>
        <time>2019-07-11T07:47:34Z</time>
      </trkpt>
      <trkpt lat="48.79477" lon="-3.41631">
        <ele>45.3</ele>
        <time>2019-07-11T07:47:35Z</time>
      </trkpt>
      <trkpt lat="48.79476" lon="-3.41641">
        <ele>44.3</ele>
        <time>2019-07-11T07:47:36Z</time>
      </trkpt>
      <trkpt lat="48.79476" lon="-3.41652">
        <ele>43.5</ele>
        <time>2019-07-11T07:47:37Z</time>
      </trkpt>
      <trkpt lat="48.79476" lon="-3.41662">
        <ele>42.8</ele>
        <time>2019-07-11T07:47:38Z</time>
      </trkpt>
      <trkpt lat="48.79475" lon="-3.41673">
        <ele>42.4</ele>
        <time>2019-07-11T07:47:39Z</time>
      </trkpt>
      <trkpt lat="48.79476" lon="-3.41684">
        <ele>41.7</ele>
        <time>2019-07-11T07:47:40Z</time>
      </trkpt>
      <trkpt lat="48.79477" lon="-3.41695">
        <ele>41.2</ele>
        <time>2019-07-11T07:47:41Z</time>
      </trkpt>
      <trkpt lat="48.79478" lon="-3.41706">
        <ele>40.9</ele>
        <time>2019-07-11T07:47:42Z</time>
      </trkpt>
      <trkpt lat="48.7948" lon="-3.41717">
        <ele>40.6</ele>
        <time>2019-07-11T07:47:43Z</time>
      </trkpt>
      <trkpt lat="48.79482" lon="-3.41729">
        <ele>39.8</ele>
        <time>2019-07-11T07:47:44Z</time>
      </trkpt>
      <trkpt lat="48.79483" lon="-3.41741">
        <ele>39.2</ele>
        <time>2019-07-11T07:47:45Z</time>
      </trkpt>
      <trkpt lat="48.79486" lon="-3.41753">
        <ele>38.7</ele>
        <time>2019-07-11T07:47:46Z</time>
      </trkpt>
      <trkpt lat="48.79489" lon="-3.41765">
        <ele>38.3</ele>
        <time>2019-07-11T07:47:47Z</time>
      </trkpt>
      <trkpt lat="48.79491" lon="-3.41776">
        <ele>37.4</ele>
        <time>2019-07-11T07:47:48Z</time>
      </trkpt>
      <trkpt lat="48.79495" lon="-3.41787">
        <ele>36.8</ele>
        <time>2019-07-11T07:47:49Z</time>
      </trkpt>
      <trkpt lat="48.79497" lon="-3.41798">
        <ele>36.7</ele>
        <time>2019-07-11T07:47:50Z</time>
      </trkpt>
      <trkpt lat="48.79501" lon="-3.41809">
        <ele>36.4</ele>
        <time>2019-07-11T07:47:51Z</time>
      </trkpt>
      <trkpt lat="48.79504" lon="-3.41819">
        <ele>35.9</ele>
        <time>2019-07-11T07:47:52Z</time>
      </trkpt>
      <trkpt lat="48.79508" lon="-3.4183">
        <ele>35.1</ele>
        <time>2019-07-11T07:47:53Z</time>
      </trkpt>
      <trkpt lat="48.79512" lon="-3.41841">
        <ele>34.4</ele>
        <time>2019-07-11T07:47:54Z</time>
      </trkpt>
      <trkpt lat="48.79516" lon="-3.41851">
        <ele>33.7</ele>
        <time>2019-07-11T07:47:55Z</time>
      </trkpt>
      <trkpt lat="48.79519" lon="-3.41862">
        <ele>33.2</ele>
        <time>2019-07-11T07:47:56Z</time>
      </trkpt>
      <trkpt lat="48.79523" lon="-3.41873">
        <ele>32.6</ele>
        <time>2019-07-11T07:47:57Z</time>
      </trkpt>
      <trkpt lat="48.79527" lon="-3.41884">
        <ele>31.9</ele>
        <time>2019-07-11T07:47:58Z</time>
      </trkpt>
      <trkpt lat="48.79531" lon="-3.41896">
        <ele>31.2</ele>
        <time>2019-07-11T07:47:59Z</time>
      </trkpt>
      <trkpt lat="48.79535" lon="-3.41907">
        <ele>30.3</ele>
        <time>2019-07-11T07:48:00Z</time>
      </trkpt>
      <trkpt lat="48.79539" lon="-3.41918">
        <ele>29.6</ele>
        <time>2019-07-11T07:48:01Z</time>
      </trkpt>
      <trkpt lat="48.79543" lon="-3.4193">
        <ele>29</ele>
        <time>2019-07-11T07:48:02Z</time>
      </trkpt>
      <trkpt lat="48.79546" lon="-3.41942">
        <ele>28.5</ele>
        <time>2019-07-11T07:48:03Z</time>
      </trkpt>
      <trkpt lat="48.7955" lon="-3.41954">
        <ele>28</ele>
        <time>2019-07-11T07:48:04Z</time>
      </trkpt>
      <trkpt lat="48.79554" lon="-3.41965">
        <ele>27.2</ele>
        <time>2019-07-11T07:48:05Z</time>
      </trkpt>
      <trkpt lat="48.79557" lon="-3.41977">
        <ele>26.9</ele>
        <time>2019-07-11T07:48:06Z</time>
      </trkpt>
      <trkpt lat="48.79561" lon="-3.41989">
        <ele>26.5</ele>
        <time>2019-07-11T07:48:07Z</time>
      </trkpt>
      <trkpt lat="48.79563" lon="-3.42">
        <ele>26.3</ele>
        <time>2019-07-11T07:48:08Z</time>
      </trkpt>
      <trkpt lat="48.79566" lon="-3.42012">
        <ele>25.9</ele>
        <time>2019-07-11T07:48:09Z</time>
      </trkpt>
      <trkpt lat="48.79569" lon="-3.42023">
        <ele>25.2</ele>
        <time>2019-07-11T07:48:10Z</time>
      </trkpt>
      <trkpt lat="48.79572" lon="-3.42035">
        <ele>24.9</ele>
        <time>2019-07-11T07:48:11Z</time>
      </trkpt>
      <trkpt lat="48.79575" lon="-3.42046">
        <ele>24.4</ele>
        <time>2019-07-11T07:48:12Z</time>
      </trkpt>
      <trkpt lat="48.79577" lon="-3.42059">
        <ele>23.8</ele>
        <time>2019-07-11T07:48:13Z</time>
      </trkpt>
      <trkpt lat="48.79579" lon="-3.42071">
        <ele>23.4</ele>
        <time>2019-07-11T07:48:14Z</time>
      </trkpt>
      <trkpt lat="48.79581" lon="-3.42084">
        <ele>23.4</ele>
        <time>2019-07-11T07:48:15Z</time>
      </trkpt>
      <trkpt lat="48.79583" lon="-3.42096">
        <ele>23.5</ele>
        <time>2019-07-11T07:48:16Z</time>
      </trkpt>
      <trkpt lat="48.79585" lon="-3.42109">
        <ele>23.6</ele>
        <time>2019-07-11T07:48:17Z</time>
      </trkpt>
      <trkpt lat="48.79587" lon="-3.42122">
        <ele>23.3</ele>
        <time>2019-07-11T07:48:18Z</time>
      </trkpt>
      <trkpt lat="48.79589" lon="-3.42135">
        <ele>22.9</ele>
        <time>2019-07-11T07:48:19Z</time>
      </trkpt>
      <trkpt lat="48.7959" lon="-3.42148">
        <ele>22.5</ele>
        <time>2019-07-11T07:48:20Z</time>
      </trkpt>
      <trkpt lat="48.79591" lon="-3.42161">
        <ele>22.1</ele>
        <time>2019-07-11T07:48:21Z</time>
      </trkpt>
      <trkpt lat="48.79591" lon="-3.42174">
        <ele>21.7</ele>
        <time>2019-07-11T07:48:22Z</time>
      </trkpt>
      <trkpt lat="48.79593" lon="-3.42187">
        <ele>21.5</ele>
        <time>2019-07-11T07:48:23Z</time>
      </trkpt>
      <trkpt lat="48.79594" lon="-3.422">
        <ele>21</ele>
        <time>2019-07-11T07:48:24Z</time>
      </trkpt>
      <trkpt lat="48.79594" lon="-3.42214">
        <ele>20.4</ele>
        <time>2019-07-11T07:48:25Z</time>
      </trkpt>
      <trkpt lat="48.79595" lon="-3.42227">
        <ele>19.4</ele>
        <time>2019-07-11T07:48:26Z</time>
      </trkpt>
      <trkpt lat="48.79595" lon="-3.4224">
        <ele>19</ele>
        <time>2019-07-11T07:48:27Z</time>
      </trkpt>
      <trkpt lat="48.79595" lon="-3.42254">
        <ele>18.1</ele>
        <time>2019-07-11T07:48:28Z</time>
      </trkpt>
      <trkpt lat="48.79595" lon="-3.42267">
        <ele>17.6</ele>
        <time>2019-07-11T07:48:29Z</time>
      </trkpt>
      <trkpt lat="48.79596" lon="-3.4228">
        <ele>17.2</ele>
        <time>2019-07-11T07:48:30Z</time>
      </trkpt>
      <trkpt lat="48.79597" lon="-3.42293">
        <ele>16.7</ele>
        <time>2019-07-11T07:48:31Z</time>
      </trkpt>
      <trkpt lat="48.79597" lon="-3.42305">
        <ele>16.3</ele>
        <time>2019-07-11T07:48:32Z</time>
      </trkpt>
      <trkpt lat="48.79598" lon="-3.42318">
        <ele>15.9</ele>
        <time>2019-07-11T07:48:33Z</time>
      </trkpt>
      <trkpt lat="48.79598" lon="-3.42331">
        <ele>15.5</ele>
        <time>2019-07-11T07:48:34Z</time>
      </trkpt>
      <trkpt lat="48.79598" lon="-3.42344">
        <ele>14.7</ele>
        <time>2019-07-11T07:48:35Z</time>
      </trkpt>
      <trkpt lat="48.79599" lon="-3.42357">
        <ele>14.2</ele>
        <time>2019-07-11T07:48:36Z</time>
      </trkpt>
      <trkpt lat="48.79601" lon="-3.4237">
        <ele>13.8</ele>
        <time>2019-07-11T07:48:37Z</time>
      </trkpt>
      <trkpt lat="48.79601" lon="-3.42383">
        <ele>13.3</ele>
        <time>2019-07-11T07:48:38Z</time>
      </trkpt>
      <trkpt lat="48.79602" lon="-3.42396">
        <ele>12.9</ele>
        <time>2019-07-11T07:48:39Z</time>
      </trkpt>
      <trkpt lat="48.79607" lon="-3.4241">
        <ele>11.6</ele>
        <time>2019-07-11T07:48:40Z</time>
      </trkpt>
      <trkpt lat="48.79609" lon="-3.42422">
        <ele>10.7</ele>
        <time>2019-07-11T07:48:41Z</time>
      </trkpt>
      <trkpt lat="48.7961" lon="-3.42434">
        <ele>10.3</ele>
        <time>2019-07-11T07:48:42Z</time>
      </trkpt>
      <trkpt lat="48.79611" lon="-3.42446">
        <ele>9.5</ele>
        <time>2019-07-11T07:48:43Z</time>
      </trkpt>
      <trkpt lat="48.79612" lon="-3.42457">
        <ele>9</ele>
        <time>2019-07-11T07:48:44Z</time>
      </trkpt>
      <trkpt lat="48.79612" lon="-3.42468">
        <ele>9</ele>
        <time>2019-07-11T07:48:45Z</time>
      </trkpt>
      <trkpt lat="48.79613" lon="-3.42478">
        <ele>8.9</ele>
        <time>2019-07-11T07:48:46Z</time>
      </trkpt>
      <trkpt lat="48.79614" lon="-3.42488">
        <ele>8.7</ele>
        <time>2019-07-11T07:48:47Z</time>
      </trkpt>
      <trkpt lat="48.79614" lon="-3.42498">
        <ele>9</ele>
        <time>2019-07-11T07:48:48Z</time>
      </trkpt>
      <trkpt lat="48.79615" lon="-3.42507">
        <ele>9.1</ele>
        <time>2019-07-11T07:48:49Z</time>
      </trkpt>
      <trkpt lat="48.79616" lon="-3.42516">
        <ele>9.5</ele>
        <time>2019-07-11T07:48:50Z</time>
      </trkpt>
      <trkpt lat="48.79617" lon="-3.42525">
        <ele>10.1</ele>
        <time>2019-07-11T07:48:51Z</time>
      </trkpt>
      <trkpt lat="48.79619" lon="-3.42533">
        <ele>10.5</ele>
        <time>2019-07-11T07:48:52Z</time>
      </trkpt>
      <trkpt lat="48.7962" lon="-3.42541">
        <ele>10.9</ele>
        <time>2019-07-11T07:48:53Z</time>
      </trkpt>
      <trkpt lat="48.7962" lon="-3.42549">
        <ele>11.5</ele>
        <time>2019-07-11T07:48:54Z</time>
      </trkpt>
      <trkpt lat="48.7962" lon="-3.42557">
        <ele>12</ele>
        <time>2019-07-11T07:48:55Z</time>
      </trkpt>
      <trkpt lat="48.79622" lon="-3.42565">
        <ele>11.8</ele>
        <time>2019-07-11T07:48:56Z</time>
      </trkpt>
      <trkpt lat="48.79623" lon="-3.42573">
        <ele>12.2</ele>
        <time>2019-07-11T07:48:57Z</time>
      </trkpt>
      <trkpt lat="48.79624" lon="-3.42581">
        <ele>12.5</ele>
        <time>2019-07-11T07:48:58Z</time>
      </trkpt>
      <trkpt lat="48.79625" lon="-3.42589">
        <ele>12.5</ele>
        <time>2019-07-11T07:48:59Z</time>
      </trkpt>
      <trkpt lat="48.79626" lon="-3.42596">
        <ele>12.9</ele>
        <time>2019-07-11T07:49:00Z</time>
      </trkpt>
      <trkpt lat="48.79628" lon="-3.42603">
        <ele>12.7</ele>
        <time>2019-07-11T07:49:01Z</time>
      </trkpt>
      <trkpt lat="48.79629" lon="-3.4261">
        <ele>12.6</ele>
        <time>2019-07-11T07:49:02Z</time>
      </trkpt>
      <trkpt lat="48.79631" lon="-3.42618">
        <ele>12.6</ele>
        <time>2019-07-11T07:49:03Z</time>
      </trkpt>
      <trkpt lat="48.79633" lon="-3.42626">
        <ele>12.8</ele>
        <time>2019-07-11T07:49:04Z</time>
      </trkpt>
      <trkpt lat="48.79635" lon="-3.42633">
        <ele>13.1</ele>
        <time>2019-07-11T07:49:05Z</time>
      </trkpt>
      <trkpt lat="48.79637" lon="-3.42641">
        <ele>13.3</ele>
        <time>2019-07-11T07:49:06Z</time>
      </trkpt>
      <trkpt lat="48.79639" lon="-3.42648">
        <ele>13.3</ele>
        <time>2019-07-11T07:49:07Z</time>
      </trkpt>
      <trkpt lat="48.7964" lon="-3.42655">
        <ele>13.3</ele>
        <time>2019-07-11T07:49:08Z</time>
      </trkpt>
      <trkpt lat="48.79641" lon="-3.42662">
        <ele>13.8</ele>
        <time>2019-07-11T07:49:09Z</time>
      </trkpt>
      <trkpt lat="48.79642" lon="-3.42669">
        <ele>13.6</ele>
        <time>2019-07-11T07:49:10Z</time>
      </trkpt>
      <trkpt lat="48.79644" lon="-3.42676">
        <ele>13.6</ele>
        <time>2019-07-11T07:49:11Z</time>
      </trkpt>
      <trkpt lat="48.79646" lon="-3.42682">
        <ele>14.2</ele>
        <time>2019-07-11T07:49:12Z</time>
      </trkpt>
      <trkpt lat="48.79648" lon="-3.42689">
        <ele>14.1</ele>
        <time>2019-07-11T07:49:13Z</time>
      </trkpt>
      <trkpt lat="48.79649" lon="-3.42696">
        <ele>14</ele>
        <time>2019-07-11T07:49:14Z</time>
      </trkpt>
      <trkpt lat="48.79651" lon="-3.42703">
        <ele>14.4</ele>
        <time>2019-07-11T07:49:15Z</time>
      </trkpt>
      <trkpt lat="48.79652" lon="-3.42709">
        <ele>14.8</ele>
        <time>2019-07-11T07:49:16Z</time>
      </trkpt>
      <trkpt lat="48.79655" lon="-3.42715">
        <ele>15.1</ele>
        <time>2019-07-11T07:49:17Z</time>
      </trkpt>
      <trkpt lat="48.79657" lon="-3.42721">
        <ele>15</ele>
        <time>2019-07-11T07:49:18Z</time>
      </trkpt>
      <trkpt lat="48.79659" lon="-3.42728">
        <ele>15.5</ele>
        <time>2019-07-11T07:49:19Z</time>
      </trkpt>
      <trkpt lat="48.79659" lon="-3.42733">
        <ele>15.9</ele>
        <time>2019-07-11T07:49:20Z</time>
      </trkpt>
      <trkpt lat="48.7966" lon="-3.4274">
        <ele>16.3</ele>
        <time>2019-07-11T07:49:21Z</time>
      </trkpt>
      <trkpt lat="48.79661" lon="-3.42748">
        <ele>15.5</ele>
        <time>2019-07-11T07:49:22Z</time>
      </trkpt>
      <trkpt lat="48.79662" lon="-3.42755">
        <ele>14</ele>
        <time>2019-07-11T07:49:23Z</time>
      </trkpt>
      <trkpt lat="48.79664" lon="-3.42762">
        <ele>13.4</ele>
        <time>2019-07-11T07:49:24Z</time>
      </trkpt>
      <trkpt lat="48.79665" lon="-3.42769">
        <ele>12.8</ele>
        <time>2019-07-11T07:49:25Z</time>
      </trkpt>
      <trkpt lat="48.79666" lon="-3.42775">
        <ele>12.8</ele>
        <time>2019-07-11T07:49:26Z</time>
      </trkpt>
      <trkpt lat="48.79668" lon="-3.42782">
        <ele>12.5</ele>
        <time>2019-07-11T07:49:27Z</time>
      </trkpt>
      <trkpt lat="48.79668" lon="-3.42789">
        <ele>12.3</ele>
        <time>2019-07-11T07:49:28Z</time>
      </trkpt>
      <trkpt lat="48.79669" lon="-3.42795">
        <ele>11.5</ele>
        <time>2019-07-11T07:49:29Z</time>
      </trkpt>
      <trkpt lat="48.7967" lon="-3.42802">
        <ele>11</ele>
        <time>2019-07-11T07:49:30Z</time>
      </trkpt>
      <trkpt lat="48.7967" lon="-3.42809">
        <ele>10.2</ele>
        <time>2019-07-11T07:49:31Z</time>
      </trkpt>
      <trkpt lat="48.79672" lon="-3.42817">
        <ele>10.3</ele>
        <time>2019-07-11T07:49:32Z</time>
      </trkpt>
      <trkpt lat="48.79673" lon="-3.42824">
        <ele>10.4</ele>
        <time>2019-07-11T07:49:33Z</time>
      </trkpt>
      <trkpt lat="48.79674" lon="-3.42831">
        <ele>9.8</ele>
        <time>2019-07-11T07:49:34Z</time>
      </trkpt>
      <trkpt lat="48.79675" lon="-3.42837">
        <ele>10</ele>
        <time>2019-07-11T07:49:35Z</time>
      </trkpt>
      <trkpt lat="48.79676" lon="-3.42844">
        <ele>10</ele>
        <time>2019-07-11T07:49:36Z</time>
      </trkpt>
      <trkpt lat="48.79678" lon="-3.4285">
        <ele>10</ele>
        <time>2019-07-11T07:49:37Z</time>
      </trkpt>
      <trkpt lat="48.79679" lon="-3.42857">
        <ele>10</ele>
        <time>2019-07-11T07:49:38Z</time>
      </trkpt>
      <trkpt lat="48.7968" lon="-3.42864">
        <ele>10.3</ele>
        <time>2019-07-11T07:49:39Z</time>
      </trkpt>
      <trkpt lat="48.79682" lon="-3.4287">
        <ele>10.2</ele>
        <time>2019-07-11T07:49:40Z</time>
      </trkpt>
      <trkpt lat="48.79682" lon="-3.42876">
        <ele>10.8</ele>
        <time>2019-07-11T07:49:41Z</time>
      </trkpt>
      <trkpt lat="48.79683" lon="-3.42882">
        <ele>10.7</ele>
        <time>2019-07-11T07:49:42Z</time>
      </trkpt>
      <trkpt lat="48.79684" lon="-3.42889">
        <ele>10.9</ele>
        <time>2019-07-11T07:49:43Z</time>
      </trkpt>
      <trkpt lat="48.79685" lon="-3.42895">
        <ele>10.9</ele>
        <time>2019-07-11T07:49:44Z</time>
      </trkpt>
      <trkpt lat="48.79684" lon="-3.42901">
        <ele>11.3</ele>
        <time>2019-07-11T07:49:45Z</time>
      </trkpt>
      <trkpt lat="48.79685" lon="-3.42908">
        <ele>11.1</ele>
        <time>2019-07-11T07:49:46Z</time>
      </trkpt>
      <trkpt lat="48.79686" lon="-3.42914">
        <ele>11.3</ele>
        <time>2019-07-11T07:49:47Z</time>
      </trkpt>
      <trkpt lat="48.79686" lon="-3.42921">
        <ele>11.2</ele>
        <time>2019-07-11T07:49:48Z</time>
      </trkpt>
      <trkpt lat="48.79688" lon="-3.42927">
        <ele>11.4</ele>
        <time>2019-07-11T07:49:49Z</time>
      </trkpt>
      <trkpt lat="48.79689" lon="-3.42932">
        <ele>11.9</ele>
        <time>2019-07-11T07:49:50Z</time>
      </trkpt>
      <trkpt lat="48.79691" lon="-3.42938">
        <ele>12.8</ele>
        <time>2019-07-11T07:49:51Z</time>
      </trkpt>
      <trkpt lat="48.79692" lon="-3.42942">
        <ele>12.4</ele>
        <time>2019-07-11T07:49:52Z</time>
      </trkpt>
      <trkpt lat="48.79693" lon="-3.42947">
        <ele>12.5</ele>
        <time>2019-07-11T07:49:53Z</time>
      </trkpt>
      <trkpt lat="48.79694" lon="-3.42953">
        <ele>12.7</ele>
        <time>2019-07-11T07:49:54Z</time>
      </trkpt>
      <trkpt lat="48.79696" lon="-3.42959">
        <ele>12.7</ele>
        <time>2019-07-11T07:49:55Z</time>
      </trkpt>
      <trkpt lat="48.79697" lon="-3.42965">
        <ele>12.8</ele>
        <time>2019-07-11T07:49:56Z</time>
      </trkpt>
      <trkpt lat="48.79698" lon="-3.42971">
        <ele>12.8</ele>
        <time>2019-07-11T07:49:57Z</time>
      </trkpt>
      <trkpt lat="48.79699" lon="-3.42977">
        <ele>12.8</ele>
        <time>2019-07-11T07:49:58Z</time>
      </trkpt>
      <trkpt lat="48.79701" lon="-3.42982">
        <ele>13</ele>
        <time>2019-07-11T07:49:59Z</time>
      </trkpt>
      <trkpt lat="48.79701" lon="-3.42987">
        <ele>13.1</ele>
        <time>2019-07-11T07:50:00Z</time>
      </trkpt>
      <trkpt lat="48.79702" lon="-3.42992">
        <ele>13.1</ele>
        <time>2019-07-11T07:50:01Z</time>
      </trkpt>
      <trkpt lat="48.79703" lon="-3.42997">
        <ele>13.2</ele>
        <time>2019-07-11T07:50:02Z</time>
      </trkpt>
      <trkpt lat="48.79704" lon="-3.43002">
        <ele>13.3</ele>
        <time>2019-07-11T07:50:03Z</time>
      </trkpt>
      <trkpt lat="48.79704" lon="-3.43005">
        <ele>13.1</ele>
        <time>2019-07-11T07:50:04Z</time>
      </trkpt>
      <trkpt lat="48.79705" lon="-3.43009">
        <ele>13.6</ele>
        <time>2019-07-11T07:50:05Z</time>
      </trkpt>
      <trkpt lat="48.79705" lon="-3.43011">
        <ele>13.6</ele>
        <time>2019-07-11T07:50:06Z</time>
      </trkpt>
      <trkpt lat="48.79705" lon="-3.43013">
        <ele>13.8</ele>
        <time>2019-07-11T07:50:07Z</time>
      </trkpt>
      <trkpt lat="48.79705" lon="-3.43015">
        <ele>13.8</ele>
        <time>2019-07-11T07:50:08Z</time>
      </trkpt>
      <trkpt lat="48.79705" lon="-3.43019">
        <ele>13.8</ele>
        <time>2019-07-11T07:50:11Z</time>
      </trkpt>
      <trkpt lat="48.79704" lon="-3.43021">
        <ele>13.8</ele>
        <time>2019-07-11T07:50:12Z</time>
      </trkpt>
      <trkpt lat="48.79704" lon="-3.43024">
        <ele>14.2</ele>
        <time>2019-07-11T07:50:13Z</time>
      </trkpt>
      <trkpt lat="48.79704" lon="-3.43026">
        <ele>14.4</ele>
        <time>2019-07-11T07:50:14Z</time>
      </trkpt>
      <trkpt lat="48.79705" lon="-3.43032">
        <ele>15.5</ele>
        <time>2019-07-11T07:50:17Z</time>
      </trkpt>
      <trkpt lat="48.79705" lon="-3.43037">
        <ele>16</ele>
        <time>2019-07-11T07:50:18Z</time>
      </trkpt>
      <trkpt lat="48.79706" lon="-3.43042">
        <ele>16.5</ele>
        <time>2019-07-11T07:50:19Z</time>
      </trkpt>
      <trkpt lat="48.79707" lon="-3.43047">
        <ele>16.9</ele>
        <time>2019-07-11T07:50:20Z</time>
      </trkpt>
      <trkpt lat="48.79709" lon="-3.43051">
        <ele>17.1</ele>
        <time>2019-07-11T07:50:21Z</time>
      </trkpt>
      <trkpt lat="48.7971" lon="-3.43056">
        <ele>17.1</ele>
        <time>2019-07-11T07:50:22Z</time>
      </trkpt>
      <trkpt lat="48.79714" lon="-3.43059">
        <ele>16.7</ele>
        <time>2019-07-11T07:50:23Z</time>
      </trkpt>
      <trkpt lat="48.79717" lon="-3.43063">
        <ele>16</ele>
        <time>2019-07-11T07:50:24Z</time>
      </trkpt>
      <trkpt lat="48.79718" lon="-3.43067">
        <ele>14.7</ele>
        <time>2019-07-11T07:50:25Z</time>
      </trkpt>
      <trkpt lat="48.7972" lon="-3.43073">
        <ele>13.4</ele>
        <time>2019-07-11T07:50:26Z</time>
      </trkpt>
      <trkpt lat="48.79721" lon="-3.43079">
        <ele>12.5</ele>
        <time>2019-07-11T07:50:27Z</time>
      </trkpt>
      <trkpt lat="48.79722" lon="-3.43085">
        <ele>11.9</ele>
        <time>2019-07-11T07:50:28Z</time>
      </trkpt>
      <trkpt lat="48.79723" lon="-3.43091">
        <ele>11.2</ele>
        <time>2019-07-11T07:50:29Z</time>
      </trkpt>
      <trkpt lat="48.79725" lon="-3.43096">
        <ele>11.2</ele>
        <time>2019-07-11T07:50:30Z</time>
      </trkpt>
      <trkpt lat="48.79726" lon="-3.43102">
        <ele>11.2</ele>
        <time>2019-07-11T07:50:31Z</time>
      </trkpt>
      <trkpt lat="48.79726" lon="-3.43107">
        <ele>12.1</ele>
        <time>2019-07-11T07:50:32Z</time>
      </trkpt>
      <trkpt lat="48.79726" lon="-3.43114">
        <ele>12.4</ele>
        <time>2019-07-11T07:50:33Z</time>
      </trkpt>
      <trkpt lat="48.79727" lon="-3.4312">
        <ele>12.8</ele>
        <time>2019-07-11T07:50:34Z</time>
      </trkpt>
      <trkpt lat="48.79728" lon="-3.43126">
        <ele>12.6</ele>
        <time>2019-07-11T07:50:35Z</time>
      </trkpt>
      <trkpt lat="48.79728" lon="-3.43132">
        <ele>12.9</ele>
        <time>2019-07-11T07:50:36Z</time>
      </trkpt>
      <trkpt lat="48.79728" lon="-3.43138">
        <ele>13.3</ele>
        <time>2019-07-11T07:50:37Z</time>
      </trkpt>
      <trkpt lat="48.79729" lon="-3.43144">
        <ele>12.7</ele>
        <time>2019-07-11T07:50:38Z</time>
      </trkpt>
      <trkpt lat="48.7973" lon="-3.43151">
        <ele>12.1</ele>
        <time>2019-07-11T07:50:39Z</time>
      </trkpt>
      <trkpt lat="48.7973" lon="-3.43157">
        <ele>11.5</ele>
        <time>2019-07-11T07:50:40Z</time>
      </trkpt>
      <trkpt lat="48.7973" lon="-3.43163">
        <ele>10.8</ele>
        <time>2019-07-11T07:50:41Z</time>
      </trkpt>
      <trkpt lat="48.79731" lon="-3.43169">
        <ele>10.7</ele>
        <time>2019-07-11T07:50:42Z</time>
      </trkpt>
      <trkpt lat="48.79731" lon="-3.43175">
        <ele>10.3</ele>
        <time>2019-07-11T07:50:43Z</time>
      </trkpt>
      <trkpt lat="48.79731" lon="-3.43181">
        <ele>9.5</ele>
        <time>2019-07-11T07:50:44Z</time>
      </trkpt>
      <trkpt lat="48.79731" lon="-3.43187">
        <ele>9</ele>
        <time>2019-07-11T07:50:45Z</time>
      </trkpt>
      <trkpt lat="48.79732" lon="-3.43194">
        <ele>8.5</ele>
        <time>2019-07-11T07:50:46Z</time>
      </trkpt>
      <trkpt lat="48.79733" lon="-3.432">
        <ele>8.1</ele>
        <time>2019-07-11T07:50:47Z</time>
      </trkpt>
      <trkpt lat="48.79734" lon="-3.43206">
        <ele>7.9</ele>
        <time>2019-07-11T07:50:48Z</time>
      </trkpt>
      <trkpt lat="48.79734" lon="-3.43212">
        <ele>8.3</ele>
        <time>2019-07-11T07:50:49Z</time>
      </trkpt>
      <trkpt lat="48.79734" lon="-3.43218">
        <ele>8.7</ele>
        <time>2019-07-11T07:50:50Z</time>
      </trkpt>
      <trkpt lat="48.79735" lon="-3.43224">
        <ele>9.2</ele>
        <time>2019-07-11T07:50:51Z</time>
      </trkpt>
      <trkpt lat="48.79735" lon="-3.4323">
        <ele>9.7</ele>
        <time>2019-07-11T07:50:52Z</time>
      </trkpt>
      <trkpt lat="48.79735" lon="-3.43235">
        <ele>10.1</ele>
        <time>2019-07-11T07:50:53Z</time>
      </trkpt>
      <trkpt lat="48.79735" lon="-3.43241">
        <ele>10.4</ele>
        <time>2019-07-11T07:50:54Z</time>
      </trkpt>
      <trkpt lat="48.79735" lon="-3.43247">
        <ele>10.7</ele>
        <time>2019-07-11T07:50:55Z</time>
      </trkpt>
      <trkpt lat="48.79735" lon="-3.43253">
        <ele>11.2</ele>
        <time>2019-07-11T07:50:56Z</time>
      </trkpt>
      <trkpt lat="48.79735" lon="-3.43258">
        <ele>11</ele>
        <time>2019-07-11T07:50:57Z</time>
      </trkpt>
      <trkpt lat="48.79735" lon="-3.43264">
        <ele>10.9</ele>
        <time>2019-07-11T07:50:58Z</time>
      </trkpt>
      <trkpt lat="48.79735" lon="-3.4327">
        <ele>10.4</ele>
        <time>2019-07-11T07:50:59Z</time>
      </trkpt>
      <trkpt lat="48.79735" lon="-3.43276">
        <ele>10.1</ele>
        <time>2019-07-11T07:51:00Z</time>
      </trkpt>
      <trkpt lat="48.79736" lon="-3.43282">
        <ele>9.7</ele>
        <time>2019-07-11T07:51:01Z</time>
      </trkpt>
      <trkpt lat="48.79736" lon="-3.43288">
        <ele>10.1</ele>
        <time>2019-07-11T07:51:02Z</time>
      </trkpt>
      <trkpt lat="48.79736" lon="-3.43294">
        <ele>10.3</ele>
        <time>2019-07-11T07:51:03Z</time>
      </trkpt>
      <trkpt lat="48.79735" lon="-3.433">
        <ele>9.7</ele>
        <time>2019-07-11T07:51:04Z</time>
      </trkpt>
      <trkpt lat="48.79734" lon="-3.43306">
        <ele>9.5</ele>
        <time>2019-07-11T07:51:05Z</time>
      </trkpt>
      <trkpt lat="48.79734" lon="-3.43312">
        <ele>9.6</ele>
        <time>2019-07-11T07:51:06Z</time>
      </trkpt>
      <trkpt lat="48.79734" lon="-3.43318">
        <ele>9.4</ele>
        <time>2019-07-11T07:51:07Z</time>
      </trkpt>
      <trkpt lat="48.79734" lon="-3.43324">
        <ele>9.3</ele>
        <time>2019-07-11T07:51:08Z</time>
      </trkpt>
      <trkpt lat="48.79733" lon="-3.43329">
        <ele>9.5</ele>
        <time>2019-07-11T07:51:09Z</time>
      </trkpt>
      <trkpt lat="48.79733" lon="-3.43335">
        <ele>9.5</ele>
        <time>2019-07-11T07:51:10Z</time>
      </trkpt>
      <trkpt lat="48.79733" lon="-3.43341">
        <ele>9</ele>
        <time>2019-07-11T07:51:11Z</time>
      </trkpt>
      <trkpt lat="48.79732" lon="-3.43347">
        <ele>9.1</ele>
        <time>2019-07-11T07:51:12Z</time>
      </trkpt>
      <trkpt lat="48.79731" lon="-3.43352">
        <ele>9.2</ele>
        <time>2019-07-11T07:51:13Z</time>
      </trkpt>
      <trkpt lat="48.79731" lon="-3.43357">
        <ele>9.2</ele>
        <time>2019-07-11T07:51:14Z</time>
      </trkpt>
      <trkpt lat="48.79731" lon="-3.43363">
        <ele>9.4</ele>
        <time>2019-07-11T07:51:15Z</time>
      </trkpt>
      <trkpt lat="48.79731" lon="-3.43368">
        <ele>9.3</ele>
        <time>2019-07-11T07:51:16Z</time>
      </trkpt>
      <trkpt lat="48.79731" lon="-3.43373">
        <ele>9.5</ele>
        <time>2019-07-11T07:51:17Z</time>
      </trkpt>
      <trkpt lat="48.79731" lon="-3.43379">
        <ele>9.4</ele>
        <time>2019-07-11T07:51:18Z</time>
      </trkpt>
      <trkpt lat="48.79731" lon="-3.43385">
        <ele>9.3</ele>
        <time>2019-07-11T07:51:19Z</time>
      </trkpt>
      <trkpt lat="48.79731" lon="-3.4339">
        <ele>9</ele>
        <time>2019-07-11T07:51:20Z</time>
      </trkpt>
      <trkpt lat="48.79731" lon="-3.43396">
        <ele>8.7</ele>
        <time>2019-07-11T07:51:21Z</time>
      </trkpt>
      <trkpt lat="48.79731" lon="-3.43401">
        <ele>8.3</ele>
        <time>2019-07-11T07:51:22Z</time>
      </trkpt>
      <trkpt lat="48.79731" lon="-3.43407">
        <ele>8.2</ele>
        <time>2019-07-11T07:51:23Z</time>
      </trkpt>
      <trkpt lat="48.79731" lon="-3.43412">
        <ele>8</ele>
        <time>2019-07-11T07:51:24Z</time>
      </trkpt>
      <trkpt lat="48.79731" lon="-3.43418">
        <ele>8.1</ele>
        <time>2019-07-11T07:51:25Z</time>
      </trkpt>
      <trkpt lat="48.79732" lon="-3.43423">
        <ele>8.4</ele>
        <time>2019-07-11T07:51:26Z</time>
      </trkpt>
      <trkpt lat="48.79732" lon="-3.43429">
        <ele>8.8</ele>
        <time>2019-07-11T07:51:27Z</time>
      </trkpt>
      <trkpt lat="48.79733" lon="-3.43434">
        <ele>8.7</ele>
        <time>2019-07-11T07:51:28Z</time>
      </trkpt>
      <trkpt lat="48.79733" lon="-3.4344">
        <ele>8.6</ele>
        <time>2019-07-11T07:51:29Z</time>
      </trkpt>
      <trkpt lat="48.79734" lon="-3.43445">
        <ele>8.6</ele>
        <time>2019-07-11T07:51:30Z</time>
      </trkpt>
      <trkpt lat="48.79734" lon="-3.4345">
        <ele>8.6</ele>
        <time>2019-07-11T07:51:31Z</time>
      </trkpt>
      <trkpt lat="48.79735" lon="-3.43456">
        <ele>8.8</ele>
        <time>2019-07-11T07:51:32Z</time>
      </trkpt>
      <trkpt lat="48.79735" lon="-3.43461">
        <ele>8.9</ele>
        <time>2019-07-11T07:51:33Z</time>
      </trkpt>
      <trkpt lat="48.79736" lon="-3.43466">
        <ele>8.8</ele>
        <time>2019-07-11T07:51:34Z</time>
      </trkpt>
      <trkpt lat="48.79736" lon="-3.43472">
        <ele>9.1</ele>
        <time>2019-07-11T07:51:35Z</time>
      </trkpt>
      <trkpt lat="48.79737" lon="-3.43477">
        <ele>9.7</ele>
        <time>2019-07-11T07:51:36Z</time>
      </trkpt>
      <trkpt lat="48.79738" lon="-3.43483">
        <ele>10.1</ele>
        <time>2019-07-11T07:51:37Z</time>
      </trkpt>
      <trkpt lat="48.79739" lon="-3.43488">
        <ele>10.1</ele>
        <time>2019-07-11T07:51:38Z</time>
      </trkpt>
      <trkpt lat="48.7974" lon="-3.43493">
        <ele>10.1</ele>
        <time>2019-07-11T07:51:39Z</time>
      </trkpt>
      <trkpt lat="48.79741" lon="-3.43499">
        <ele>10.2</ele>
        <time>2019-07-11T07:51:40Z</time>
      </trkpt>
      <trkpt lat="48.79742" lon="-3.43504">
        <ele>10.3</ele>
        <time>2019-07-11T07:51:41Z</time>
      </trkpt>
      <trkpt lat="48.79743" lon="-3.4351">
        <ele>9.9</ele>
        <time>2019-07-11T07:51:42Z</time>
      </trkpt>
      <trkpt lat="48.79744" lon="-3.43515">
        <ele>9.8</ele>
        <time>2019-07-11T07:51:43Z</time>
      </trkpt>
      <trkpt lat="48.79745" lon="-3.43521">
        <ele>9.7</ele>
        <time>2019-07-11T07:51:44Z</time>
      </trkpt>
      <trkpt lat="48.79746" lon="-3.43526">
        <ele>9.7</ele>
        <time>2019-07-11T07:51:45Z</time>
      </trkpt>
      <trkpt lat="48.79747" lon="-3.43532">
        <ele>9.7</ele>
        <time>2019-07-11T07:51:46Z</time>
      </trkpt>
      <trkpt lat="48.79748" lon="-3.43538">
        <ele>10.3</ele>
        <time>2019-07-11T07:51:47Z</time>
      </trkpt>
      <trkpt lat="48.7975" lon="-3.43543">
        <ele>10.3</ele>
        <time>2019-07-11T07:51:48Z</time>
      </trkpt>
      <trkpt lat="48.79751" lon="-3.43549">
        <ele>10.5</ele>
        <time>2019-07-11T07:51:49Z</time>
      </trkpt>
      <trkpt lat="48.79752" lon="-3.43554">
        <ele>10.3</ele>
        <time>2019-07-11T07:51:50Z</time>
      </trkpt>
      <trkpt lat="48.79754" lon="-3.43559">
        <ele>10.9</ele>
        <time>2019-07-11T07:51:51Z</time>
      </trkpt>
      <trkpt lat="48.79755" lon="-3.43565">
        <ele>11.3</ele>
        <time>2019-07-11T07:51:52Z</time>
      </trkpt>
      <trkpt lat="48.79757" lon="-3.4357">
        <ele>11.3</ele>
        <time>2019-07-11T07:51:53Z</time>
      </trkpt>
      <trkpt lat="48.79758" lon="-3.43575">
        <ele>11.9</ele>
        <time>2019-07-11T07:51:54Z</time>
      </trkpt>
      <trkpt lat="48.7976" lon="-3.4358">
        <ele>11.5</ele>
        <time>2019-07-11T07:51:55Z</time>
      </trkpt>
      <trkpt lat="48.79762" lon="-3.43585">
        <ele>11.1</ele>
        <time>2019-07-11T07:51:56Z</time>
      </trkpt>
      <trkpt lat="48.79763" lon="-3.4359">
        <ele>10.5</ele>
        <time>2019-07-11T07:51:57Z</time>
      </trkpt>
      <trkpt lat="48.79765" lon="-3.43595">
        <ele>10</ele>
        <time>2019-07-11T07:51:58Z</time>
      </trkpt>
      <trkpt lat="48.79767" lon="-3.43601">
        <ele>9.7</ele>
        <time>2019-07-11T07:51:59Z</time>
      </trkpt>
      <trkpt lat="48.79768" lon="-3.43606">
        <ele>9.5</ele>
        <time>2019-07-11T07:52:00Z</time>
      </trkpt>
      <trkpt lat="48.7977" lon="-3.43611">
        <ele>9.3</ele>
        <time>2019-07-11T07:52:01Z</time>
      </trkpt>
      <trkpt lat="48.79771" lon="-3.43616">
        <ele>9.2</ele>
        <time>2019-07-11T07:52:02Z</time>
      </trkpt>
      <trkpt lat="48.79773" lon="-3.43621">
        <ele>8.7</ele>
        <time>2019-07-11T07:52:03Z</time>
      </trkpt>
      <trkpt lat="48.79775" lon="-3.43626">
        <ele>8.6</ele>
        <time>2019-07-11T07:52:04Z</time>
      </trkpt>
      <trkpt lat="48.79776" lon="-3.43631">
        <ele>8.4</ele>
        <time>2019-07-11T07:52:05Z</time>
      </trkpt>
      <trkpt lat="48.79778" lon="-3.43636">
        <ele>8.9</ele>
        <time>2019-07-11T07:52:06Z</time>
      </trkpt>
      <trkpt lat="48.79779" lon="-3.43641">
        <ele>8.4</ele>
        <time>2019-07-11T07:52:07Z</time>
      </trkpt>
      <trkpt lat="48.79781" lon="-3.43645">
        <ele>8.1</ele>
        <time>2019-07-11T07:52:08Z</time>
      </trkpt>
      <trkpt lat="48.79782" lon="-3.43651">
        <ele>7.7</ele>
        <time>2019-07-11T07:52:09Z</time>
      </trkpt>
      <trkpt lat="48.79783" lon="-3.43655">
        <ele>7.1</ele>
        <time>2019-07-11T07:52:10Z</time>
      </trkpt>
      <trkpt lat="48.79784" lon="-3.43661">
        <ele>7.1</ele>
        <time>2019-07-11T07:52:11Z</time>
      </trkpt>
      <trkpt lat="48.79785" lon="-3.43666">
        <ele>6.5</ele>
        <time>2019-07-11T07:52:12Z</time>
      </trkpt>
      <trkpt lat="48.79786" lon="-3.43671">
        <ele>6.6</ele>
        <time>2019-07-11T07:52:13Z</time>
      </trkpt>
      <trkpt lat="48.79787" lon="-3.43676">
        <ele>6.3</ele>
        <time>2019-07-11T07:52:14Z</time>
      </trkpt>
      <trkpt lat="48.79788" lon="-3.43681">
        <ele>6.1</ele>
        <time>2019-07-11T07:52:15Z</time>
      </trkpt>
      <trkpt lat="48.79789" lon="-3.43686">
        <ele>5.9</ele>
        <time>2019-07-11T07:52:16Z</time>
      </trkpt>
      <trkpt lat="48.7979" lon="-3.43691">
        <ele>5.8</ele>
        <time>2019-07-11T07:52:17Z</time>
      </trkpt>
      <trkpt lat="48.79791" lon="-3.43695">
        <ele>5.8</ele>
        <time>2019-07-11T07:52:18Z</time>
      </trkpt>
      <trkpt lat="48.79792" lon="-3.437">
        <ele>5.7</ele>
        <time>2019-07-11T07:52:19Z</time>
      </trkpt>
      <trkpt lat="48.79794" lon="-3.43705">
        <ele>5.3</ele>
        <time>2019-07-11T07:52:20Z</time>
      </trkpt>
      <trkpt lat="48.79795" lon="-3.43709">
        <ele>5.2</ele>
        <time>2019-07-11T07:52:21Z</time>
      </trkpt>
      <trkpt lat="48.79796" lon="-3.43715">
        <ele>5.9</ele>
        <time>2019-07-11T07:52:22Z</time>
      </trkpt>
      <trkpt lat="48.79796" lon="-3.43719">
        <ele>6</ele>
        <time>2019-07-11T07:52:23Z</time>
      </trkpt>
      <trkpt lat="48.79797" lon="-3.43725">
        <ele>6.4</ele>
        <time>2019-07-11T07:52:24Z</time>
      </trkpt>
      <trkpt lat="48.79797" lon="-3.4373">
        <ele>7.1</ele>
        <time>2019-07-11T07:52:25Z</time>
      </trkpt>
      <trkpt lat="48.79797" lon="-3.43736">
        <ele>7.6</ele>
        <time>2019-07-11T07:52:26Z</time>
      </trkpt>
      <trkpt lat="48.79797" lon="-3.43741">
        <ele>8.7</ele>
        <time>2019-07-11T07:52:27Z</time>
      </trkpt>
      <trkpt lat="48.79798" lon="-3.43747">
        <ele>10.1</ele>
        <time>2019-07-11T07:52:28Z</time>
      </trkpt>
      <trkpt lat="48.79798" lon="-3.43752">
        <ele>10.8</ele>
        <time>2019-07-11T07:52:29Z</time>
      </trkpt>
      <trkpt lat="48.79798" lon="-3.43758">
        <ele>11.5</ele>
        <time>2019-07-11T07:52:30Z</time>
      </trkpt>
      <trkpt lat="48.79798" lon="-3.43764">
        <ele>11.7</ele>
        <time>2019-07-11T07:52:31Z</time>
      </trkpt>
      <trkpt lat="48.79798" lon="-3.4377">
        <ele>11.8</ele>
        <time>2019-07-11T07:52:32Z</time>
      </trkpt>
      <trkpt lat="48.79798" lon="-3.43775">
        <ele>11.5</ele>
        <time>2019-07-11T07:52:33Z</time>
      </trkpt>
      <trkpt lat="48.79798" lon="-3.43781">
        <ele>11.8</ele>
        <time>2019-07-11T07:52:34Z</time>
      </trkpt>
      <trkpt lat="48.79798" lon="-3.43787">
        <ele>12.4</ele>
        <time>2019-07-11T07:52:35Z</time>
      </trkpt>
      <trkpt lat="48.79798" lon="-3.43793">
        <ele>12.7</ele>
        <time>2019-07-11T07:52:36Z</time>
      </trkpt>
      <trkpt lat="48.79798" lon="-3.43799">
        <ele>13</ele>
        <time>2019-07-11T07:52:37Z</time>
      </trkpt>
      <trkpt lat="48.79798" lon="-3.43805">
        <ele>12.9</ele>
        <time>2019-07-11T07:52:38Z</time>
      </trkpt>
      <trkpt lat="48.79798" lon="-3.43811">
        <ele>12.5</ele>
        <time>2019-07-11T07:52:39Z</time>
      </trkpt>
      <trkpt lat="48.79798" lon="-3.43816">
        <ele>12.2</ele>
        <time>2019-07-11T07:52:40Z</time>
      </trkpt>
      <trkpt lat="48.79799" lon="-3.43822">
        <ele>11.9</ele>
        <time>2019-07-11T07:52:41Z</time>
      </trkpt>
      <trkpt lat="48.79799" lon="-3.43828">
        <ele>12.2</ele>
        <time>2019-07-11T07:52:42Z</time>
      </trkpt>
      <trkpt lat="48.79799" lon="-3.43833">
        <ele>12.2</ele>
        <time>2019-07-11T07:52:43Z</time>
      </trkpt>
      <trkpt lat="48.79799" lon="-3.43838">
        <ele>11.8</ele>
        <time>2019-07-11T07:52:44Z</time>
      </trkpt>
      <trkpt lat="48.79799" lon="-3.43844">
        <ele>11.3</ele>
        <time>2019-07-11T07:52:45Z</time>
      </trkpt>
      <trkpt lat="48.79799" lon="-3.4385">
        <ele>11.3</ele>
        <time>2019-07-11T07:52:46Z</time>
      </trkpt>
      <trkpt lat="48.79799" lon="-3.43856">
        <ele>11.2</ele>
        <time>2019-07-11T07:52:47Z</time>
      </trkpt>
      <trkpt lat="48.79798" lon="-3.43862">
        <ele>11.2</ele>
        <time>2019-07-11T07:52:48Z</time>
      </trkpt>
      <trkpt lat="48.79798" lon="-3.43868">
        <ele>10.7</ele>
        <time>2019-07-11T07:52:49Z</time>
      </trkpt>
      <trkpt lat="48.79797" lon="-3.43874">
        <ele>10.6</ele>
        <time>2019-07-11T07:52:50Z</time>
      </trkpt>
      <trkpt lat="48.79798" lon="-3.4388">
        <ele>10.9</ele>
        <time>2019-07-11T07:52:51Z</time>
      </trkpt>
      <trkpt lat="48.79798" lon="-3.43887">
        <ele>11.3</ele>
        <time>2019-07-11T07:52:52Z</time>
      </trkpt>
      <trkpt lat="48.79798" lon="-3.43892">
        <ele>11.2</ele>
        <time>2019-07-11T07:52:53Z</time>
      </trkpt>
      <trkpt lat="48.79798" lon="-3.43898">
        <ele>11</ele>
        <time>2019-07-11T07:52:54Z</time>
      </trkpt>
      <trkpt lat="48.79797" lon="-3.43903">
        <ele>10.8</ele>
        <time>2019-07-11T07:52:55Z</time>
      </trkpt>
      <trkpt lat="48.79798" lon="-3.43909">
        <ele>11.2</ele>
        <time>2019-07-11T07:52:56Z</time>
      </trkpt>
      <trkpt lat="48.79797" lon="-3.43915">
        <ele>12.1</ele>
        <time>2019-07-11T07:52:57Z</time>
      </trkpt>
      <trkpt lat="48.79797" lon="-3.43921">
        <ele>12.5</ele>
        <time>2019-07-11T07:52:58Z</time>
      </trkpt>
      <trkpt lat="48.79797" lon="-3.43926">
        <ele>12.4</ele>
        <time>2019-07-11T07:52:59Z</time>
      </trkpt>
      <trkpt lat="48.79797" lon="-3.43932">
        <ele>12.1</ele>
        <time>2019-07-11T07:53:00Z</time>
      </trkpt>
      <trkpt lat="48.79797" lon="-3.43937">
        <ele>12.2</ele>
        <time>2019-07-11T07:53:01Z</time>
      </trkpt>
      <trkpt lat="48.79797" lon="-3.43943">
        <ele>12.2</ele>
        <time>2019-07-11T07:53:02Z</time>
      </trkpt>
      <trkpt lat="48.79797" lon="-3.43948">
        <ele>11.5</ele>
        <time>2019-07-11T07:53:03Z</time>
      </trkpt>
      <trkpt lat="48.79798" lon="-3.43954">
        <ele>11.7</ele>
        <time>2019-07-11T07:53:04Z</time>
      </trkpt>
      <trkpt lat="48.79798" lon="-3.43959">
        <ele>11.5</ele>
        <time>2019-07-11T07:53:05Z</time>
      </trkpt>
      <trkpt lat="48.79799" lon="-3.43965">
        <ele>11</ele>
        <time>2019-07-11T07:53:06Z</time>
      </trkpt>
      <trkpt lat="48.79799" lon="-3.4397">
        <ele>10.7</ele>
        <time>2019-07-11T07:53:07Z</time>
      </trkpt>
      <trkpt lat="48.798" lon="-3.43975">
        <ele>10.6</ele>
        <time>2019-07-11T07:53:08Z</time>
      </trkpt>
      <trkpt lat="48.79802" lon="-3.4398">
        <ele>9.9</ele>
        <time>2019-07-11T07:53:09Z</time>
      </trkpt>
      <trkpt lat="48.79804" lon="-3.43985">
        <ele>9.4</ele>
        <time>2019-07-11T07:53:10Z</time>
      </trkpt>
      <trkpt lat="48.79804" lon="-3.43991">
        <ele>8.9</ele>
        <time>2019-07-11T07:53:11Z</time>
      </trkpt>
      <trkpt lat="48.79805" lon="-3.43996">
        <ele>8.5</ele>
        <time>2019-07-11T07:53:12Z</time>
      </trkpt>
      <trkpt lat="48.79805" lon="-3.44002">
        <ele>8.8</ele>
        <time>2019-07-11T07:53:13Z</time>
      </trkpt>
      <trkpt lat="48.79805" lon="-3.44007">
        <ele>8.5</ele>
        <time>2019-07-11T07:53:14Z</time>
      </trkpt>
      <trkpt lat="48.79806" lon="-3.44013">
        <ele>8.1</ele>
        <time>2019-07-11T07:53:15Z</time>
      </trkpt>
      <trkpt lat="48.79807" lon="-3.44018">
        <ele>8</ele>
        <time>2019-07-11T07:53:16Z</time>
      </trkpt>
      <trkpt lat="48.79808" lon="-3.44024">
        <ele>8.4</ele>
        <time>2019-07-11T07:53:17Z</time>
      </trkpt>
      <trkpt lat="48.7981" lon="-3.44029">
        <ele>8.5</ele>
        <time>2019-07-11T07:53:18Z</time>
      </trkpt>
      <trkpt lat="48.7981" lon="-3.44034">
        <ele>8.4</ele>
        <time>2019-07-11T07:53:19Z</time>
      </trkpt>
      <trkpt lat="48.79812" lon="-3.4404">
        <ele>8.8</ele>
        <time>2019-07-11T07:53:20Z</time>
      </trkpt>
      <trkpt lat="48.79813" lon="-3.44046">
        <ele>8.7</ele>
        <time>2019-07-11T07:53:21Z</time>
      </trkpt>
      <trkpt lat="48.79815" lon="-3.44051">
        <ele>9.1</ele>
        <time>2019-07-11T07:53:22Z</time>
      </trkpt>
      <trkpt lat="48.79816" lon="-3.44056">
        <ele>9.1</ele>
        <time>2019-07-11T07:53:23Z</time>
      </trkpt>
      <trkpt lat="48.79819" lon="-3.4406">
        <ele>8.5</ele>
        <time>2019-07-11T07:53:24Z</time>
      </trkpt>
      <trkpt lat="48.79823" lon="-3.44063">
        <ele>8</ele>
        <time>2019-07-11T07:53:25Z</time>
      </trkpt>
      <trkpt lat="48.79828" lon="-3.44064">
        <ele>7.4</ele>
        <time>2019-07-11T07:53:26Z</time>
      </trkpt>
      <trkpt lat="48.79832" lon="-3.44065">
        <ele>6.6</ele>
        <time>2019-07-11T07:53:27Z</time>
      </trkpt>
      <trkpt lat="48.79837" lon="-3.44065">
        <ele>6</ele>
        <time>2019-07-11T07:53:28Z</time>
      </trkpt>
      <trkpt lat="48.79841" lon="-3.44065">
        <ele>5.4</ele>
        <time>2019-07-11T07:53:29Z</time>
      </trkpt>
      <trkpt lat="48.79845" lon="-3.44065">
        <ele>4.7</ele>
        <time>2019-07-11T07:53:30Z</time>
      </trkpt>
      <trkpt lat="48.79849" lon="-3.44065">
        <ele>3.8</ele>
        <time>2019-07-11T07:53:31Z</time>
      </trkpt>
      <trkpt lat="48.79853" lon="-3.44065">
        <ele>3.5</ele>
        <time>2019-07-11T07:53:32Z</time>
      </trkpt>
      <trkpt lat="48.79857" lon="-3.44065">
        <ele>3.8</ele>
        <time>2019-07-11T07:53:33Z</time>
      </trkpt>
      <trkpt lat="48.79861" lon="-3.44066">
        <ele>3.4</ele>
        <time>2019-07-11T07:53:34Z</time>
      </trkpt>
      <trkpt lat="48.79865" lon="-3.44067">
        <ele>3.5</ele>
        <time>2019-07-11T07:53:35Z</time>
      </trkpt>
      <trkpt lat="48.79868" lon="-3.44067">
        <ele>2.8</ele>
        <time>2019-07-11T07:53:36Z</time>
      </trkpt>
      <trkpt lat="48.79871" lon="-3.44068">
        <ele>2.6</ele>
        <time>2019-07-11T07:53:37Z</time>
      </trkpt>
      <trkpt lat="48.79874" lon="-3.44069">
        <ele>2</ele>
        <time>2019-07-11T07:53:38Z</time>
      </trkpt>
      <trkpt lat="48.79878" lon="-3.4407">
        <ele>0.5</ele>
        <time>2019-07-11T07:53:39Z</time>
      </trkpt>
      <trkpt lat="48.79881" lon="-3.44072">
        <ele>-0.8</ele>
        <time>2019-07-11T07:53:40Z</time>
      </trkpt>
      <trkpt lat="48.79885" lon="-3.44074">
        <ele>-1.3</ele>
        <time>2019-07-11T07:53:41Z</time>
      </trkpt>
      <trkpt lat="48.79889" lon="-3.44076">
        <ele>-2.1</ele>
        <time>2019-07-11T07:53:42Z</time>
      </trkpt>
      <trkpt lat="48.79892" lon="-3.44079">
        <ele>-2.5</ele>
        <time>2019-07-11T07:53:43Z</time>
      </trkpt>
      <trkpt lat="48.79896" lon="-3.44081">
        <ele>-3.2</ele>
        <time>2019-07-11T07:53:44Z</time>
      </trkpt>
      <trkpt lat="48.799" lon="-3.44083">
        <ele>-4.1</ele>
        <time>2019-07-11T07:53:45Z</time>
      </trkpt>
      <trkpt lat="48.79903" lon="-3.44084">
        <ele>-4.5</ele>
        <time>2019-07-11T07:53:46Z</time>
      </trkpt>
      <trkpt lat="48.79907" lon="-3.44086">
        <ele>-5.1</ele>
        <time>2019-07-11T07:53:47Z</time>
      </trkpt>
      <trkpt lat="48.79911" lon="-3.44088">
        <ele>-5.5</ele>
        <time>2019-07-11T07:53:48Z</time>
      </trkpt>
      <trkpt lat="48.79915" lon="-3.4409">
        <ele>-5.4</ele>
        <time>2019-07-11T07:53:49Z</time>
      </trkpt>
      <trkpt lat="48.79919" lon="-3.44093">
        <ele>-5.6</ele>
        <time>2019-07-11T07:53:50Z</time>
      </trkpt>
      <trkpt lat="48.79923" lon="-3.44095">
        <ele>-5.4</ele>
        <time>2019-07-11T07:53:51Z</time>
      </trkpt>
      <trkpt lat="48.79927" lon="-3.44097">
        <ele>-5</ele>
        <time>2019-07-11T07:53:52Z</time>
      </trkpt>
      <trkpt lat="48.79931" lon="-3.44099">
        <ele>-4.6</ele>
        <time>2019-07-11T07:53:53Z</time>
      </trkpt>
      <trkpt lat="48.79935" lon="-3.44101">
        <ele>-5.4</ele>
        <time>2019-07-11T07:53:54Z</time>
      </trkpt>
      <trkpt lat="48.79939" lon="-3.44104">
        <ele>-5.3</ele>
        <time>2019-07-11T07:53:55Z</time>
      </trkpt>
      <trkpt lat="48.79943" lon="-3.44105">
        <ele>-5.4</ele>
        <time>2019-07-11T07:53:56Z</time>
      </trkpt>
      <trkpt lat="48.79947" lon="-3.44107">
        <ele>-5.5</ele>
        <time>2019-07-11T07:53:57Z</time>
      </trkpt>
      <trkpt lat="48.7995" lon="-3.44109">
        <ele>-5.7</ele>
        <time>2019-07-11T07:53:58Z</time>
      </trkpt>
      <trkpt lat="48.79954" lon="-3.44111">
        <ele>-6</ele>
        <time>2019-07-11T07:53:59Z</time>
      </trkpt>
      <trkpt lat="48.79958" lon="-3.44114">
        <ele>-6.3</ele>
        <time>2019-07-11T07:54:00Z</time>
      </trkpt>
      <trkpt lat="48.79961" lon="-3.44116">
        <ele>-6.4</ele>
        <time>2019-07-11T07:54:01Z</time>
      </trkpt>
      <trkpt lat="48.79965" lon="-3.44118">
        <ele>-6.8</ele>
        <time>2019-07-11T07:54:02Z</time>
      </trkpt>
      <trkpt lat="48.79969" lon="-3.4412">
        <ele>-7</ele>
        <time>2019-07-11T07:54:03Z</time>
      </trkpt>
      <trkpt lat="48.79973" lon="-3.44123">
        <ele>-7.1</ele>
        <time>2019-07-11T07:54:04Z</time>
      </trkpt>
      <trkpt lat="48.79976" lon="-3.44125">
        <ele>-7.4</ele>
        <time>2019-07-11T07:54:05Z</time>
      </trkpt>
      <trkpt lat="48.79979" lon="-3.44127">
        <ele>-8.2</ele>
        <time>2019-07-11T07:54:06Z</time>
      </trkpt>
      <trkpt lat="48.79983" lon="-3.44129">
        <ele>-8.4</ele>
        <time>2019-07-11T07:54:07Z</time>
      </trkpt>
      <trkpt lat="48.79987" lon="-3.44131">
        <ele>-8.9</ele>
        <time>2019-07-11T07:54:08Z</time>
      </trkpt>
      <trkpt lat="48.7999" lon="-3.44133">
        <ele>-9.2</ele>
        <time>2019-07-11T07:54:09Z</time>
      </trkpt>
      <trkpt lat="48.79994" lon="-3.44135">
        <ele>-9.3</ele>
        <time>2019-07-11T07:54:10Z</time>
      </trkpt>
      <trkpt lat="48.79997" lon="-3.44136">
        <ele>-9</ele>
        <time>2019-07-11T07:54:11Z</time>
      </trkpt>
      <trkpt lat="48.8" lon="-3.44138">
        <ele>-8.2</ele>
        <time>2019-07-11T07:54:12Z</time>
      </trkpt>
      <trkpt lat="48.80003" lon="-3.44139">
        <ele>-8.1</ele>
        <time>2019-07-11T07:54:13Z</time>
      </trkpt>
      <trkpt lat="48.80006" lon="-3.4414">
        <ele>-7.2</ele>
        <time>2019-07-11T07:54:14Z</time>
      </trkpt>
      <trkpt lat="48.8001" lon="-3.44142">
        <ele>-6.6</ele>
        <time>2019-07-11T07:54:15Z</time>
      </trkpt>
      <trkpt lat="48.80013" lon="-3.44143">
        <ele>-6.6</ele>
        <time>2019-07-11T07:54:16Z</time>
      </trkpt>
      <trkpt lat="48.80016" lon="-3.44145">
        <ele>-6.6</ele>
        <time>2019-07-11T07:54:17Z</time>
      </trkpt>
      <trkpt lat="48.80019" lon="-3.44147">
        <ele>-6.4</ele>
        <time>2019-07-11T07:54:18Z</time>
      </trkpt>
      <trkpt lat="48.80021" lon="-3.44149">
        <ele>-6.1</ele>
        <time>2019-07-11T07:54:19Z</time>
      </trkpt>
      <trkpt lat="48.80024" lon="-3.44151">
        <ele>-5.9</ele>
        <time>2019-07-11T07:54:20Z</time>
      </trkpt>
      <trkpt lat="48.80027" lon="-3.44153">
        <ele>-5.4</ele>
        <time>2019-07-11T07:54:21Z</time>
      </trkpt>
      <trkpt lat="48.8003" lon="-3.44155">
        <ele>-4.4</ele>
        <time>2019-07-11T07:54:22Z</time>
      </trkpt>
      <trkpt lat="48.80033" lon="-3.44156">
        <ele>-3.8</ele>
        <time>2019-07-11T07:54:23Z</time>
      </trkpt>
      <trkpt lat="48.80035" lon="-3.44158">
        <ele>-3.5</ele>
        <time>2019-07-11T07:54:24Z</time>
      </trkpt>
      <trkpt lat="48.80039" lon="-3.4416">
        <ele>-2.7</ele>
        <time>2019-07-11T07:54:25Z</time>
      </trkpt>
      <trkpt lat="48.80042" lon="-3.44162">
        <ele>-2.4</ele>
        <time>2019-07-11T07:54:26Z</time>
      </trkpt>
      <trkpt lat="48.80045" lon="-3.44163">
        <ele>-2.5</ele>
        <time>2019-07-11T07:54:27Z</time>
      </trkpt>
      <trkpt lat="48.80048" lon="-3.44165">
        <ele>-2.4</ele>
        <time>2019-07-11T07:54:28Z</time>
      </trkpt>
      <trkpt lat="48.80051" lon="-3.44167">
        <ele>-2.5</ele>
        <time>2019-07-11T07:54:29Z</time>
      </trkpt>
      <trkpt lat="48.80054" lon="-3.44168">
        <ele>-2.2</ele>
        <time>2019-07-11T07:54:30Z</time>
      </trkpt>
      <trkpt lat="48.80057" lon="-3.4417">
        <ele>-1.7</ele>
        <time>2019-07-11T07:54:31Z</time>
      </trkpt>
      <trkpt lat="48.8006" lon="-3.44172">
        <ele>-1.1</ele>
        <time>2019-07-11T07:54:32Z</time>
      </trkpt>
      <trkpt lat="48.80063" lon="-3.44174">
        <ele>-1.3</ele>
        <time>2019-07-11T07:54:33Z</time>
      </trkpt>
      <trkpt lat="48.80066" lon="-3.44176">
        <ele>-1.2</ele>
        <time>2019-07-11T07:54:34Z</time>
      </trkpt>
      <trkpt lat="48.80069" lon="-3.44178">
        <ele>-1.4</ele>
        <time>2019-07-11T07:54:35Z</time>
      </trkpt>
      <trkpt lat="48.80072" lon="-3.44179">
        <ele>-1.6</ele>
        <time>2019-07-11T07:54:36Z</time>
      </trkpt>
      <trkpt lat="48.80075" lon="-3.44181">
        <ele>-2.8</ele>
        <time>2019-07-11T07:54:37Z</time>
      </trkpt>
      <trkpt lat="48.80078" lon="-3.44183">
        <ele>-2.4</ele>
        <time>2019-07-11T07:54:38Z</time>
      </trkpt>
      <trkpt lat="48.80081" lon="-3.44184">
        <ele>-2.1</ele>
        <time>2019-07-11T07:54:39Z</time>
      </trkpt>
      <trkpt lat="48.80085" lon="-3.44186">
        <ele>-2.1</ele>
        <time>2019-07-11T07:54:40Z</time>
      </trkpt>
      <trkpt lat="48.80087" lon="-3.44188">
        <ele>-1.9</ele>
        <time>2019-07-11T07:54:41Z</time>
      </trkpt>
      <trkpt lat="48.8009" lon="-3.4419">
        <ele>-1.4</ele>
        <time>2019-07-11T07:54:42Z</time>
      </trkpt>
      <trkpt lat="48.80093" lon="-3.44192">
        <ele>-0.6</ele>
        <time>2019-07-11T07:54:43Z</time>
      </trkpt>
      <trkpt lat="48.80096" lon="-3.44194">
        <ele>5.4</ele>
        <time>2019-07-11T07:54:44Z</time>
      </trkpt>
      <trkpt lat="48.80099" lon="-3.44195">
        <ele>0.1</ele>
        <time>2019-07-11T07:54:45Z</time>
      </trkpt>
      <trkpt lat="48.80102" lon="-3.44197">
        <ele>0.7</ele>
        <time>2019-07-11T07:54:46Z</time>
      </trkpt>
      <trkpt lat="48.80105" lon="-3.44199">
        <ele>1.2</ele>
        <time>2019-07-11T07:54:47Z</time>
      </trkpt>
      <trkpt lat="48.80108" lon="-3.44201">
        <ele>0.9</ele>
        <time>2019-07-11T07:54:48Z</time>
      </trkpt>
      <trkpt lat="48.80111" lon="-3.44203">
        <ele>0.9</ele>
        <time>2019-07-11T07:54:49Z</time>
      </trkpt>
      <trkpt lat="48.80113" lon="-3.44205">
        <ele>1</ele>
        <time>2019-07-11T07:54:50Z</time>
      </trkpt>
      <trkpt lat="48.80116" lon="-3.44206">
        <ele>0.8</ele>
        <time>2019-07-11T07:54:51Z</time>
      </trkpt>
      <trkpt lat="48.80119" lon="-3.44207">
        <ele>0.8</ele>
        <time>2019-07-11T07:54:52Z</time>
      </trkpt>
      <trkpt lat="48.80121" lon="-3.44209">
        <ele>0.6</ele>
        <time>2019-07-11T07:54:53Z</time>
      </trkpt>
      <trkpt lat="48.80124" lon="-3.4421">
        <ele>0.8</ele>
        <time>2019-07-11T07:54:54Z</time>
      </trkpt>
      <trkpt lat="48.80126" lon="-3.44211">
        <ele>0.8</ele>
        <time>2019-07-11T07:54:55Z</time>
      </trkpt>
      <trkpt lat="48.80128" lon="-3.44212">
        <ele>0.7</ele>
        <time>2019-07-11T07:54:56Z</time>
      </trkpt>
      <trkpt lat="48.8013" lon="-3.44214">
        <ele>0.4</ele>
        <time>2019-07-11T07:54:57Z</time>
      </trkpt>
      <trkpt lat="48.80133" lon="-3.44216">
        <ele>0.5</ele>
        <time>2019-07-11T07:54:58Z</time>
      </trkpt>
      <trkpt lat="48.80135" lon="-3.44217">
        <ele>0.7</ele>
        <time>2019-07-11T07:54:59Z</time>
      </trkpt>
      <trkpt lat="48.80136" lon="-3.44218">
        <ele>0.5</ele>
        <time>2019-07-11T07:55:00Z</time>
      </trkpt>
      <trkpt lat="48.80138" lon="-3.44218">
        <ele>0.4</ele>
        <time>2019-07-11T07:55:01Z</time>
      </trkpt>
      <trkpt lat="48.80139" lon="-3.44218">
        <ele>0.6</ele>
        <time>2019-07-11T07:55:02Z</time>
      </trkpt>
      <trkpt lat="48.8014" lon="-3.4422">
        <ele>0.9</ele>
        <time>2019-07-11T07:55:03Z</time>
      </trkpt>
      <trkpt lat="48.80141" lon="-3.4422">
        <ele>0.7</ele>
        <time>2019-07-11T07:55:04Z</time>
      </trkpt>
      <trkpt lat="48.80143" lon="-3.44222">
        <ele>0.6</ele>
        <time>2019-07-11T07:55:05Z</time>
      </trkpt>
      <trkpt lat="48.80146" lon="-3.44224">
        <ele>0.9</ele>
        <time>2019-07-11T07:55:06Z</time>
      </trkpt>
      <trkpt lat="48.80149" lon="-3.44226">
        <ele>1</ele>
        <time>2019-07-11T07:55:07Z</time>
      </trkpt>
      <trkpt lat="48.80152" lon="-3.44227">
        <ele>1.1</ele>
        <time>2019-07-11T07:55:08Z</time>
      </trkpt>
      <trkpt lat="48.80155" lon="-3.44229">
        <ele>1.1</ele>
        <time>2019-07-11T07:55:09Z</time>
      </trkpt>
      <trkpt lat="48.80158" lon="-3.44231">
        <ele>0.8</ele>
        <time>2019-07-11T07:55:10Z</time>
      </trkpt>
      <trkpt lat="48.80161" lon="-3.44232">
        <ele>0.6</ele>
        <time>2019-07-11T07:55:11Z</time>
      </trkpt>
      <trkpt lat="48.80165" lon="-3.44234">
        <ele>0.7</ele>
        <time>2019-07-11T07:55:12Z</time>
      </trkpt>
      <trkpt lat="48.80168" lon="-3.44235">
        <ele>0.3</ele>
        <time>2019-07-11T07:55:13Z</time>
      </trkpt>
      <trkpt lat="48.80172" lon="-3.44237">
        <ele>-0.1</ele>
        <time>2019-07-11T07:55:14Z</time>
      </trkpt>
      <trkpt lat="48.80175" lon="-3.44239">
        <ele>-0.2</ele>
        <time>2019-07-11T07:55:15Z</time>
      </trkpt>
      <trkpt lat="48.80177" lon="-3.44241">
        <ele>-0.5</ele>
        <time>2019-07-11T07:55:16Z</time>
      </trkpt>
      <trkpt lat="48.8018" lon="-3.44243">
        <ele>-0.7</ele>
        <time>2019-07-11T07:55:17Z</time>
      </trkpt>
      <trkpt lat="48.80183" lon="-3.44244">
        <ele>-0.8</ele>
        <time>2019-07-11T07:55:18Z</time>
      </trkpt>
      <trkpt lat="48.80185" lon="-3.44246">
        <ele>-0.9</ele>
        <time>2019-07-11T07:55:19Z</time>
      </trkpt>
      <trkpt lat="48.80189" lon="-3.44247">
        <ele>-0.7</ele>
        <time>2019-07-11T07:55:20Z</time>
      </trkpt>
      <trkpt lat="48.80191" lon="-3.44249">
        <ele>-0.6</ele>
        <time>2019-07-11T07:55:21Z</time>
      </trkpt>
      <trkpt lat="48.80194" lon="-3.4425">
        <ele>-0.4</ele>
        <time>2019-07-11T07:55:22Z</time>
      </trkpt>
      <trkpt lat="48.80196" lon="-3.44252">
        <ele>-0.7</ele>
        <time>2019-07-11T07:55:23Z</time>
      </trkpt>
      <trkpt lat="48.80199" lon="-3.44253">
        <ele>-0.7</ele>
        <time>2019-07-11T07:55:24Z</time>
      </trkpt>
      <trkpt lat="48.80201" lon="-3.44255">
        <ele>-1.1</ele>
        <time>2019-07-11T07:55:25Z</time>
      </trkpt>
      <trkpt lat="48.80203" lon="-3.44256">
        <ele>-1.5</ele>
        <time>2019-07-11T07:55:26Z</time>
      </trkpt>
      <trkpt lat="48.80204" lon="-3.44257">
        <ele>-1.4</ele>
        <time>2019-07-11T07:55:27Z</time>
      </trkpt>
      <trkpt lat="48.80206" lon="-3.44258">
        <ele>-2</ele>
        <time>2019-07-11T07:55:28Z</time>
      </trkpt>
      <trkpt lat="48.80208" lon="-3.44259">
        <ele>-1.8</ele>
        <time>2019-07-11T07:55:29Z</time>
      </trkpt>
      <trkpt lat="48.80209" lon="-3.44259">
        <ele>-1.6</ele>
        <time>2019-07-11T07:55:30Z</time>
      </trkpt>
      <trkpt lat="48.80211" lon="-3.4426">
        <ele>-1.2</ele>
        <time>2019-07-11T07:55:31Z</time>
      </trkpt>
      <trkpt lat="48.80212" lon="-3.44261">
        <ele>-0.8</ele>
        <time>2019-07-11T07:55:32Z</time>
      </trkpt>
      <trkpt lat="48.80213" lon="-3.44261">
        <ele>-0.3</ele>
        <time>2019-07-11T07:55:33Z</time>
      </trkpt>
      <trkpt lat="48.80214" lon="-3.44262">
        <ele>0.1</ele>
        <time>2019-07-11T07:55:34Z</time>
      </trkpt>
      <trkpt lat="48.80216" lon="-3.44264">
        <ele>0.5</ele>
        <time>2019-07-11T07:55:35Z</time>
      </trkpt>
      <trkpt lat="48.80218" lon="-3.44269">
        <ele>1.9</ele>
        <time>2019-07-11T07:55:38Z</time>
      </trkpt>
      <trkpt lat="48.80219" lon="-3.4427">
        <ele>2.5</ele>
        <time>2019-07-11T07:55:39Z</time>
      </trkpt>
      <trkpt lat="48.80221" lon="-3.44271">
        <ele>3.2</ele>
        <time>2019-07-11T07:55:40Z</time>
      </trkpt>
      <trkpt lat="48.80224" lon="-3.44273">
        <ele>3.8</ele>
        <time>2019-07-11T07:55:41Z</time>
      </trkpt>
      <trkpt lat="48.80227" lon="-3.44274">
        <ele>4.2</ele>
        <time>2019-07-11T07:55:42Z</time>
      </trkpt>
      <trkpt lat="48.8023" lon="-3.44275">
        <ele>4.5</ele>
        <time>2019-07-11T07:55:43Z</time>
      </trkpt>
      <trkpt lat="48.80233" lon="-3.44275">
        <ele>4.6</ele>
        <time>2019-07-11T07:55:44Z</time>
      </trkpt>
      <trkpt lat="48.80236" lon="-3.44275">
        <ele>4.4</ele>
        <time>2019-07-11T07:55:45Z</time>
      </trkpt>
      <trkpt lat="48.8024" lon="-3.44276">
        <ele>3.9</ele>
        <time>2019-07-11T07:55:46Z</time>
      </trkpt>
      <trkpt lat="48.80242" lon="-3.44277">
        <ele>3</ele>
        <time>2019-07-11T07:55:47Z</time>
      </trkpt>
      <trkpt lat="48.80245" lon="-3.44278">
        <ele>2.2</ele>
        <time>2019-07-11T07:55:48Z</time>
      </trkpt>
      <trkpt lat="48.80247" lon="-3.44279">
        <ele>2.1</ele>
        <time>2019-07-11T07:55:49Z</time>
      </trkpt>
      <trkpt lat="48.80248" lon="-3.4428">
        <ele>1.7</ele>
        <time>2019-07-11T07:55:50Z</time>
      </trkpt>
      <trkpt lat="48.80249" lon="-3.44281">
        <ele>1.5</ele>
        <time>2019-07-11T07:55:51Z</time>
      </trkpt>
      <trkpt lat="48.8025" lon="-3.44282">
        <ele>1.9</ele>
        <time>2019-07-11T07:55:52Z</time>
      </trkpt>
      <trkpt lat="48.80252" lon="-3.44282">
        <ele>1.3</ele>
        <time>2019-07-11T07:55:53Z</time>
      </trkpt>
      <trkpt lat="48.80254" lon="-3.44282">
        <ele>0.8</ele>
        <time>2019-07-11T07:55:54Z</time>
      </trkpt>
      <trkpt lat="48.80256" lon="-3.44282">
        <ele>0.6</ele>
        <time>2019-07-11T07:55:55Z</time>
      </trkpt>
      <trkpt lat="48.80257" lon="-3.44282">
        <ele>-0.2</ele>
        <time>2019-07-11T07:55:56Z</time>
      </trkpt>
      <trkpt lat="48.80259" lon="-3.44283">
        <ele>5</ele>
        <time>2019-07-11T07:55:57Z</time>
      </trkpt>
      <trkpt lat="48.8026" lon="-3.44284">
        <ele>0.2</ele>
        <time>2019-07-11T07:55:58Z</time>
      </trkpt>
      <trkpt lat="48.80262" lon="-3.44285">
        <ele>5</ele>
        <time>2019-07-11T07:55:59Z</time>
      </trkpt>
      <trkpt lat="48.80264" lon="-3.44287">
        <ele>-0.1</ele>
        <time>2019-07-11T07:56:00Z</time>
      </trkpt>
      <trkpt lat="48.80266" lon="-3.44288">
        <ele>5</ele>
        <time>2019-07-11T07:56:01Z</time>
      </trkpt>
      <trkpt lat="48.80269" lon="-3.44289">
        <ele>0.1</ele>
        <time>2019-07-11T07:56:02Z</time>
      </trkpt>
      <trkpt lat="48.8027" lon="-3.44291">
        <ele>0.2</ele>
        <time>2019-07-11T07:56:03Z</time>
      </trkpt>
      <trkpt lat="48.80273" lon="-3.44292">
        <ele>5.1</ele>
        <time>2019-07-11T07:56:04Z</time>
      </trkpt>
      <trkpt lat="48.80275" lon="-3.44293">
        <ele>0.3</ele>
        <time>2019-07-11T07:56:05Z</time>
      </trkpt>
      <trkpt lat="48.80278" lon="-3.44294">
        <ele>0.2</ele>
        <time>2019-07-11T07:56:06Z</time>
      </trkpt>
      <trkpt lat="48.8028" lon="-3.44296">
        <ele>0.2</ele>
        <time>2019-07-11T07:56:07Z</time>
      </trkpt>
      <trkpt lat="48.80281" lon="-3.44297">
        <ele>0.3</ele>
        <time>2019-07-11T07:56:08Z</time>
      </trkpt>
      <trkpt lat="48.80283" lon="-3.44299">
        <ele>0.6</ele>
        <time>2019-07-11T07:56:09Z</time>
      </trkpt>
      <trkpt lat="48.80284" lon="-3.443">
        <ele>0.9</ele>
        <time>2019-07-11T07:56:10Z</time>
      </trkpt>
      <trkpt lat="48.80286" lon="-3.44299">
        <ele>2.8</ele>
        <time>2019-07-11T07:56:38Z</time>
      </trkpt>
      <trkpt lat="48.80285" lon="-3.44298">
        <ele>3.5</ele>
        <time>2019-07-11T07:56:39Z</time>
      </trkpt>
      <trkpt lat="48.80287" lon="-3.44314">
        <ele>6.9</ele>
        <time>2019-07-11T07:56:58Z</time>
      </trkpt>
      <trkpt lat="48.80288" lon="-3.44315">
        <ele>6.9</ele>
        <time>2019-07-11T07:56:59Z</time>
      </trkpt>
      <trkpt lat="48.80291" lon="-3.44316">
        <ele>7</ele>
        <time>2019-07-11T07:57:00Z</time>
      </trkpt>
      <trkpt lat="48.80293" lon="-3.44316">
        <ele>7.1</ele>
        <time>2019-07-11T07:57:01Z</time>
      </trkpt>
      <trkpt lat="48.80295" lon="-3.44315">
        <ele>7.1</ele>
        <time>2019-07-11T07:57:02Z</time>
      </trkpt>
      <trkpt lat="48.80297" lon="-3.44314">
        <ele>6.8</ele>
        <time>2019-07-11T07:57:03Z</time>
      </trkpt>
      <trkpt lat="48.80299" lon="-3.44313">
        <ele>6.5</ele>
        <time>2019-07-11T07:57:04Z</time>
      </trkpt>
      <trkpt lat="48.80302" lon="-3.44312">
        <ele>6.7</ele>
        <time>2019-07-11T07:57:05Z</time>
      </trkpt>
      <trkpt lat="48.80304" lon="-3.44311">
        <ele>6.4</ele>
        <time>2019-07-11T07:57:06Z</time>
      </trkpt>
      <trkpt lat="48.80307" lon="-3.44311">
        <ele>6.1</ele>
        <time>2019-07-11T07:57:07Z</time>
      </trkpt>
      <trkpt lat="48.80311" lon="-3.44312">
        <ele>5.7</ele>
        <time>2019-07-11T07:57:08Z</time>
      </trkpt>
      <trkpt lat="48.80314" lon="-3.44313">
        <ele>5.5</ele>
        <time>2019-07-11T07:57:09Z</time>
      </trkpt>
      <trkpt lat="48.80317" lon="-3.44313">
        <ele>5.5</ele>
        <time>2019-07-11T07:57:10Z</time>
      </trkpt>
      <trkpt lat="48.80321" lon="-3.44313">
        <ele>4.9</ele>
        <time>2019-07-11T07:57:11Z</time>
      </trkpt>
      <trkpt lat="48.80325" lon="-3.44314">
        <ele>4.4</ele>
        <time>2019-07-11T07:57:12Z</time>
      </trkpt>
      <trkpt lat="48.80328" lon="-3.44315">
        <ele>3.6</ele>
        <time>2019-07-11T07:57:13Z</time>
      </trkpt>
      <trkpt lat="48.8033" lon="-3.44316">
        <ele>3.6</ele>
        <time>2019-07-11T07:57:14Z</time>
      </trkpt>
      <trkpt lat="48.80333" lon="-3.44317">
        <ele>3.6</ele>
        <time>2019-07-11T07:57:15Z</time>
      </trkpt>
      <trkpt lat="48.80336" lon="-3.44317">
        <ele>3.4</ele>
        <time>2019-07-11T07:57:16Z</time>
      </trkpt>
      <trkpt lat="48.80339" lon="-3.44318">
        <ele>3.4</ele>
        <time>2019-07-11T07:57:17Z</time>
      </trkpt>
      <trkpt lat="48.80342" lon="-3.44319">
        <ele>3.2</ele>
        <time>2019-07-11T07:57:18Z</time>
      </trkpt>
      <trkpt lat="48.80345" lon="-3.44321">
        <ele>2.2</ele>
        <time>2019-07-11T07:57:19Z</time>
      </trkpt>
      <trkpt lat="48.80349" lon="-3.44323">
        <ele>1.6</ele>
        <time>2019-07-11T07:57:20Z</time>
      </trkpt>
      <trkpt lat="48.80352" lon="-3.44326">
        <ele>1.2</ele>
        <time>2019-07-11T07:57:21Z</time>
      </trkpt>
      <trkpt lat="48.80353" lon="-3.44325">
        <ele>1.5</ele>
        <time>2019-07-11T07:57:22Z</time>
      </trkpt>
      <trkpt lat="48.80355" lon="-3.44323">
        <ele>2</ele>
        <time>2019-07-11T07:57:23Z</time>
      </trkpt>
      <trkpt lat="48.80355" lon="-3.44325">
        <ele>2.2</ele>
        <time>2019-07-11T07:57:24Z</time>
      </trkpt>
      <trkpt lat="48.80357" lon="-3.44324">
        <ele>2.8</ele>
        <time>2019-07-11T07:57:25Z</time>
      </trkpt>
      <trkpt lat="48.80359" lon="-3.44323">
        <ele>2.6</ele>
        <time>2019-07-11T07:57:26Z</time>
      </trkpt>
      <trkpt lat="48.80362" lon="-3.44321">
        <ele>2.3</ele>
        <time>2019-07-11T07:57:27Z</time>
      </trkpt>
      <trkpt lat="48.80365" lon="-3.4432">
        <ele>1.7</ele>
        <time>2019-07-11T07:57:28Z</time>
      </trkpt>
      <trkpt lat="48.80368" lon="-3.4432">
        <ele>1.1</ele>
        <time>2019-07-11T07:57:29Z</time>
      </trkpt>
      <trkpt lat="48.80371" lon="-3.44319">
        <ele>1.2</ele>
        <time>2019-07-11T07:57:30Z</time>
      </trkpt>
      <trkpt lat="48.80375" lon="-3.44319">
        <ele>1.2</ele>
        <time>2019-07-11T07:57:31Z</time>
      </trkpt>
      <trkpt lat="48.80378" lon="-3.44319">
        <ele>1.5</ele>
        <time>2019-07-11T07:57:32Z</time>
      </trkpt>
      <trkpt lat="48.8038" lon="-3.44318">
        <ele>2.2</ele>
        <time>2019-07-11T07:57:33Z</time>
      </trkpt>
      <trkpt lat="48.80372" lon="-3.4431">
        <ele>3.7</ele>
        <time>2019-07-11T08:07:52Z</time>
      </trkpt>
      <trkpt lat="48.80371" lon="-3.44311">
        <ele>3.9</ele>
        <time>2019-07-11T08:07:53Z</time>
      </trkpt>
      <trkpt lat="48.80369" lon="-3.44323">
        <ele>4.9</ele>
        <time>2019-07-11T08:08:12Z</time>
      </trkpt>
      <trkpt lat="48.80368" lon="-3.44324">
        <ele>5</ele>
        <time>2019-07-11T08:08:13Z</time>
      </trkpt>
      <trkpt lat="48.80367" lon="-3.44325">
        <ele>5.4</ele>
        <time>2019-07-11T08:08:14Z</time>
      </trkpt>
      <trkpt lat="48.80365" lon="-3.44326">
        <ele>5.5</ele>
        <time>2019-07-11T08:08:15Z</time>
      </trkpt>
      <trkpt lat="48.80364" lon="-3.44326">
        <ele>5.7</ele>
        <time>2019-07-11T08:08:16Z</time>
      </trkpt>
      <trkpt lat="48.80362" lon="-3.44326">
        <ele>5.9</ele>
        <time>2019-07-11T08:08:17Z</time>
      </trkpt>
      <trkpt lat="48.8036" lon="-3.44326">
        <ele>6.5</ele>
        <time>2019-07-11T08:08:18Z</time>
      </trkpt>
      <trkpt lat="48.80359" lon="-3.44326">
        <ele>6.9</ele>
        <time>2019-07-11T08:08:19Z</time>
      </trkpt>
      <trkpt lat="48.80357" lon="-3.44326">
        <ele>7.3</ele>
        <time>2019-07-11T08:08:20Z</time>
      </trkpt>
      <trkpt lat="48.80355" lon="-3.44325">
        <ele>7.7</ele>
        <time>2019-07-11T08:08:21Z</time>
      </trkpt>
      <trkpt lat="48.80353" lon="-3.44324">
        <ele>8.7</ele>
        <time>2019-07-11T08:08:22Z</time>
      </trkpt>
      <trkpt lat="48.80351" lon="-3.44323">
        <ele>9.7</ele>
        <time>2019-07-11T08:08:23Z</time>
      </trkpt>
      <trkpt lat="48.80348" lon="-3.44323">
        <ele>9.7</ele>
        <time>2019-07-11T08:08:24Z</time>
      </trkpt>
      <trkpt lat="48.80345" lon="-3.44321">
        <ele>9.8</ele>
        <time>2019-07-11T08:08:25Z</time>
      </trkpt>
      <trkpt lat="48.80342" lon="-3.4432">
        <ele>10.1</ele>
        <time>2019-07-11T08:08:26Z</time>
      </trkpt>
      <trkpt lat="48.80339" lon="-3.4432">
        <ele>10.7</ele>
        <time>2019-07-11T08:08:27Z</time>
      </trkpt>
      <trkpt lat="48.80335" lon="-3.4432">
        <ele>11.2</ele>
        <time>2019-07-11T08:08:28Z</time>
      </trkpt>
      <trkpt lat="48.80331" lon="-3.44319">
        <ele>11.3</ele>
        <time>2019-07-11T08:08:29Z</time>
      </trkpt>
      <trkpt lat="48.80328" lon="-3.44318">
        <ele>11.4</ele>
        <time>2019-07-11T08:08:30Z</time>
      </trkpt>
      <trkpt lat="48.80325" lon="-3.44317">
        <ele>11.7</ele>
        <time>2019-07-11T08:08:31Z</time>
      </trkpt>
      <trkpt lat="48.80322" lon="-3.44316">
        <ele>12</ele>
        <time>2019-07-11T08:08:32Z</time>
      </trkpt>
      <trkpt lat="48.8032" lon="-3.44316">
        <ele>12.2</ele>
        <time>2019-07-11T08:08:33Z</time>
      </trkpt>
      <trkpt lat="48.80317" lon="-3.44316">
        <ele>12.4</ele>
        <time>2019-07-11T08:08:34Z</time>
      </trkpt>
      <trkpt lat="48.80314" lon="-3.44317">
        <ele>13.1</ele>
        <time>2019-07-11T08:08:35Z</time>
      </trkpt>
      <trkpt lat="48.8031" lon="-3.44318">
        <ele>12.8</ele>
        <time>2019-07-11T08:08:36Z</time>
      </trkpt>
      <trkpt lat="48.80307" lon="-3.44319">
        <ele>13</ele>
        <time>2019-07-11T08:08:37Z</time>
      </trkpt>
      <trkpt lat="48.80304" lon="-3.44321">
        <ele>10.7</ele>
        <time>2019-07-11T08:08:38Z</time>
      </trkpt>
      <trkpt lat="48.80301" lon="-3.44322">
        <ele>10.2</ele>
        <time>2019-07-11T08:08:39Z</time>
      </trkpt>
      <trkpt lat="48.80298" lon="-3.44322">
        <ele>10.3</ele>
        <time>2019-07-11T08:08:40Z</time>
      </trkpt>
      <trkpt lat="48.80296" lon="-3.44323">
        <ele>10.3</ele>
        <time>2019-07-11T08:08:41Z</time>
      </trkpt>
      <trkpt lat="48.80293" lon="-3.44325">
        <ele>9.1</ele>
        <time>2019-07-11T08:08:42Z</time>
      </trkpt>
      <trkpt lat="48.80291" lon="-3.44328">
        <ele>8.8</ele>
        <time>2019-07-11T08:08:43Z</time>
      </trkpt>
      <trkpt lat="48.8029" lon="-3.4433">
        <ele>8.7</ele>
        <time>2019-07-11T08:08:44Z</time>
      </trkpt>
      <trkpt lat="48.80289" lon="-3.44332">
        <ele>8.9</ele>
        <time>2019-07-11T08:08:45Z</time>
      </trkpt>
      <trkpt lat="48.80289" lon="-3.44336">
        <ele>9.2</ele>
        <time>2019-07-11T08:08:46Z</time>
      </trkpt>
      <trkpt lat="48.8029" lon="-3.4434">
        <ele>9.6</ele>
        <time>2019-07-11T08:08:47Z</time>
      </trkpt>
      <trkpt lat="48.8029" lon="-3.44343">
        <ele>12.1</ele>
        <time>2019-07-11T08:08:48Z</time>
      </trkpt>
      <trkpt lat="48.80291" lon="-3.44347">
        <ele>12.6</ele>
        <time>2019-07-11T08:08:49Z</time>
      </trkpt>
      <trkpt lat="48.80291" lon="-3.44351">
        <ele>12.5</ele>
        <time>2019-07-11T08:08:50Z</time>
      </trkpt>
      <trkpt lat="48.80293" lon="-3.44356">
        <ele>12.8</ele>
        <time>2019-07-11T08:08:51Z</time>
      </trkpt>
      <trkpt lat="48.80293" lon="-3.4436">
        <ele>13.1</ele>
        <time>2019-07-11T08:08:52Z</time>
      </trkpt>
      <trkpt lat="48.80293" lon="-3.44365">
        <ele>12.8</ele>
        <time>2019-07-11T08:08:53Z</time>
      </trkpt>
      <trkpt lat="48.80293" lon="-3.44369">
        <ele>12.7</ele>
        <time>2019-07-11T08:08:54Z</time>
      </trkpt>
      <trkpt lat="48.80293" lon="-3.44373">
        <ele>12.5</ele>
        <time>2019-07-11T08:08:55Z</time>
      </trkpt>
      <trkpt lat="48.80294" lon="-3.44377">
        <ele>12.3</ele>
        <time>2019-07-11T08:08:56Z</time>
      </trkpt>
      <trkpt lat="48.80294" lon="-3.44381">
        <ele>12.1</ele>
        <time>2019-07-11T08:08:57Z</time>
      </trkpt>
      <trkpt lat="48.80295" lon="-3.44385">
        <ele>11.8</ele>
        <time>2019-07-11T08:08:58Z</time>
      </trkpt>
      <trkpt lat="48.80295" lon="-3.44389">
        <ele>11.8</ele>
        <time>2019-07-11T08:08:59Z</time>
      </trkpt>
      <trkpt lat="48.80296" lon="-3.44393">
        <ele>11.8</ele>
        <time>2019-07-11T08:09:00Z</time>
      </trkpt>
      <trkpt lat="48.80297" lon="-3.44397">
        <ele>11.5</ele>
        <time>2019-07-11T08:09:01Z</time>
      </trkpt>
      <trkpt lat="48.80298" lon="-3.44401">
        <ele>11.6</ele>
        <time>2019-07-11T08:09:02Z</time>
      </trkpt>
      <trkpt lat="48.80298" lon="-3.44405">
        <ele>11.7</ele>
        <time>2019-07-11T08:09:03Z</time>
      </trkpt>
      <trkpt lat="48.80298" lon="-3.44408">
        <ele>12.3</ele>
        <time>2019-07-11T08:09:04Z</time>
      </trkpt>
      <trkpt lat="48.80298" lon="-3.44412">
        <ele>13.3</ele>
        <time>2019-07-11T08:09:05Z</time>
      </trkpt>
      <trkpt lat="48.80299" lon="-3.44415">
        <ele>14.4</ele>
        <time>2019-07-11T08:09:06Z</time>
      </trkpt>
      <trkpt lat="48.803" lon="-3.44419">
        <ele>15</ele>
        <time>2019-07-11T08:09:07Z</time>
      </trkpt>
      <trkpt lat="48.803" lon="-3.44422">
        <ele>14.9</ele>
        <time>2019-07-11T08:09:08Z</time>
      </trkpt>
      <trkpt lat="48.80301" lon="-3.44426">
        <ele>14.4</ele>
        <time>2019-07-11T08:09:09Z</time>
      </trkpt>
      <trkpt lat="48.80302" lon="-3.44429">
        <ele>13.4</ele>
        <time>2019-07-11T08:09:10Z</time>
      </trkpt>
      <trkpt lat="48.80303" lon="-3.44432">
        <ele>13.2</ele>
        <time>2019-07-11T08:09:11Z</time>
      </trkpt>
      <trkpt lat="48.80304" lon="-3.44436">
        <ele>13.1</ele>
        <time>2019-07-11T08:09:12Z</time>
      </trkpt>
      <trkpt lat="48.80304" lon="-3.44439">
        <ele>13.3</ele>
        <time>2019-07-11T08:09:13Z</time>
      </trkpt>
      <trkpt lat="48.80305" lon="-3.44442">
        <ele>13.5</ele>
        <time>2019-07-11T08:09:14Z</time>
      </trkpt>
      <trkpt lat="48.80306" lon="-3.44445">
        <ele>13.8</ele>
        <time>2019-07-11T08:09:15Z</time>
      </trkpt>
      <trkpt lat="48.80306" lon="-3.44449">
        <ele>14.1</ele>
        <time>2019-07-11T08:09:16Z</time>
      </trkpt>
      <trkpt lat="48.80306" lon="-3.44453">
        <ele>13.3</ele>
        <time>2019-07-11T08:09:17Z</time>
      </trkpt>
      <trkpt lat="48.80307" lon="-3.44457">
        <ele>12.8</ele>
        <time>2019-07-11T08:09:18Z</time>
      </trkpt>
      <trkpt lat="48.80308" lon="-3.44461">
        <ele>12.8</ele>
        <time>2019-07-11T08:09:19Z</time>
      </trkpt>
      <trkpt lat="48.80308" lon="-3.44463">
        <ele>12.6</ele>
        <time>2019-07-11T08:09:20Z</time>
      </trkpt>
      <trkpt lat="48.80309" lon="-3.44466">
        <ele>12.6</ele>
        <time>2019-07-11T08:09:21Z</time>
      </trkpt>
      <trkpt lat="48.80309" lon="-3.4447">
        <ele>12.7</ele>
        <time>2019-07-11T08:09:22Z</time>
      </trkpt>
      <trkpt lat="48.8031" lon="-3.44473">
        <ele>12.8</ele>
        <time>2019-07-11T08:09:23Z</time>
      </trkpt>
      <trkpt lat="48.8031" lon="-3.44477">
        <ele>12.8</ele>
        <time>2019-07-11T08:09:24Z</time>
      </trkpt>
      <trkpt lat="48.80311" lon="-3.4448">
        <ele>12.7</ele>
        <time>2019-07-11T08:09:25Z</time>
      </trkpt>
      <trkpt lat="48.80312" lon="-3.44484">
        <ele>12.7</ele>
        <time>2019-07-11T08:09:26Z</time>
      </trkpt>
      <trkpt lat="48.80312" lon="-3.44487">
        <ele>12.8</ele>
        <time>2019-07-11T08:09:27Z</time>
      </trkpt>
      <trkpt lat="48.80314" lon="-3.4449">
        <ele>11.5</ele>
        <time>2019-07-11T08:09:28Z</time>
      </trkpt>
      <trkpt lat="48.80314" lon="-3.44493">
        <ele>11.8</ele>
        <time>2019-07-11T08:09:29Z</time>
      </trkpt>
      <trkpt lat="48.80315" lon="-3.44497">
        <ele>11.1</ele>
        <time>2019-07-11T08:09:30Z</time>
      </trkpt>
      <trkpt lat="48.80316" lon="-3.445">
        <ele>10.5</ele>
        <time>2019-07-11T08:09:31Z</time>
      </trkpt>
      <trkpt lat="48.80317" lon="-3.44504">
        <ele>10.9</ele>
        <time>2019-07-11T08:09:32Z</time>
      </trkpt>
      <trkpt lat="48.80317" lon="-3.44508">
        <ele>10.3</ele>
        <time>2019-07-11T08:09:33Z</time>
      </trkpt>
      <trkpt lat="48.80316" lon="-3.44511">
        <ele>10</ele>
        <time>2019-07-11T08:09:34Z</time>
      </trkpt>
      <trkpt lat="48.80316" lon="-3.44514">
        <ele>10.1</ele>
        <time>2019-07-11T08:09:35Z</time>
      </trkpt>
      <trkpt lat="48.80315" lon="-3.44518">
        <ele>10</ele>
        <time>2019-07-11T08:09:36Z</time>
      </trkpt>
      <trkpt lat="48.80314" lon="-3.4452">
        <ele>10.1</ele>
        <time>2019-07-11T08:09:37Z</time>
      </trkpt>
      <trkpt lat="48.80312" lon="-3.44522">
        <ele>10.3</ele>
        <time>2019-07-11T08:09:38Z</time>
      </trkpt>
      <trkpt lat="48.8031" lon="-3.44524">
        <ele>10.6</ele>
        <time>2019-07-11T08:09:39Z</time>
      </trkpt>
      <trkpt lat="48.80309" lon="-3.44525">
        <ele>10.9</ele>
        <time>2019-07-11T08:09:40Z</time>
      </trkpt>
      <trkpt lat="48.80307" lon="-3.44527">
        <ele>11.1</ele>
        <time>2019-07-11T08:09:41Z</time>
      </trkpt>
      <trkpt lat="48.80304" lon="-3.4453">
        <ele>12.1</ele>
        <time>2019-07-11T08:09:42Z</time>
      </trkpt>
      <trkpt lat="48.80301" lon="-3.44533">
        <ele>12.8</ele>
        <time>2019-07-11T08:09:43Z</time>
      </trkpt>
      <trkpt lat="48.80299" lon="-3.44535">
        <ele>13</ele>
        <time>2019-07-11T08:09:44Z</time>
      </trkpt>
      <trkpt lat="48.80296" lon="-3.44537">
        <ele>13.3</ele>
        <time>2019-07-11T08:09:45Z</time>
      </trkpt>
      <trkpt lat="48.80294" lon="-3.44538">
        <ele>13.6</ele>
        <time>2019-07-11T08:09:46Z</time>
      </trkpt>
      <trkpt lat="48.80292" lon="-3.4454">
        <ele>13.9</ele>
        <time>2019-07-11T08:09:47Z</time>
      </trkpt>
      <trkpt lat="48.8029" lon="-3.44542">
        <ele>14.4</ele>
        <time>2019-07-11T08:09:48Z</time>
      </trkpt>
      <trkpt lat="48.80288" lon="-3.44543">
        <ele>14.9</ele>
        <time>2019-07-11T08:09:49Z</time>
      </trkpt>
      <trkpt lat="48.80285" lon="-3.44544">
        <ele>15.7</ele>
        <time>2019-07-11T08:09:50Z</time>
      </trkpt>
      <trkpt lat="48.80282" lon="-3.44546">
        <ele>16.1</ele>
        <time>2019-07-11T08:09:51Z</time>
      </trkpt>
      <trkpt lat="48.8028" lon="-3.44548">
        <ele>16.5</ele>
        <time>2019-07-11T08:09:52Z</time>
      </trkpt>
      <trkpt lat="48.80277" lon="-3.44549">
        <ele>17</ele>
        <time>2019-07-11T08:09:53Z</time>
      </trkpt>
      <trkpt lat="48.80275" lon="-3.44551">
        <ele>17.8</ele>
        <time>2019-07-11T08:09:54Z</time>
      </trkpt>
      <trkpt lat="48.80271" lon="-3.44553">
        <ele>17.9</ele>
        <time>2019-07-11T08:09:55Z</time>
      </trkpt>
      <trkpt lat="48.80268" lon="-3.44556">
        <ele>18.2</ele>
        <time>2019-07-11T08:09:56Z</time>
      </trkpt>
      <trkpt lat="48.80265" lon="-3.44559">
        <ele>18.3</ele>
        <time>2019-07-11T08:09:57Z</time>
      </trkpt>
      <trkpt lat="48.80263" lon="-3.44561">
        <ele>18.6</ele>
        <time>2019-07-11T08:09:58Z</time>
      </trkpt>
      <trkpt lat="48.8026" lon="-3.44563">
        <ele>18.8</ele>
        <time>2019-07-11T08:09:59Z</time>
      </trkpt>
      <trkpt lat="48.80257" lon="-3.44564">
        <ele>18.9</ele>
        <time>2019-07-11T08:10:00Z</time>
      </trkpt>
      <trkpt lat="48.80254" lon="-3.44565">
        <ele>19.1</ele>
        <time>2019-07-11T08:10:01Z</time>
      </trkpt>
      <trkpt lat="48.8025" lon="-3.44567">
        <ele>18.7</ele>
        <time>2019-07-11T08:10:02Z</time>
      </trkpt>
      <trkpt lat="48.80248" lon="-3.44569">
        <ele>18.3</ele>
        <time>2019-07-11T08:10:03Z</time>
      </trkpt>
      <trkpt lat="48.80244" lon="-3.44571">
        <ele>17.6</ele>
        <time>2019-07-11T08:10:04Z</time>
      </trkpt>
      <trkpt lat="48.80241" lon="-3.44573">
        <ele>17.2</ele>
        <time>2019-07-11T08:10:05Z</time>
      </trkpt>
      <trkpt lat="48.80238" lon="-3.44575">
        <ele>17.1</ele>
        <time>2019-07-11T08:10:06Z</time>
      </trkpt>
      <trkpt lat="48.80235" lon="-3.44576">
        <ele>16.7</ele>
        <time>2019-07-11T08:10:07Z</time>
      </trkpt>
      <trkpt lat="48.80232" lon="-3.44578">
        <ele>16.7</ele>
        <time>2019-07-11T08:10:08Z</time>
      </trkpt>
      <trkpt lat="48.80228" lon="-3.44579">
        <ele>16.5</ele>
        <time>2019-07-11T08:10:09Z</time>
      </trkpt>
      <trkpt lat="48.80225" lon="-3.4458">
        <ele>16.5</ele>
        <time>2019-07-11T08:10:10Z</time>
      </trkpt>
      <trkpt lat="48.80222" lon="-3.44582">
        <ele>17.1</ele>
        <time>2019-07-11T08:10:11Z</time>
      </trkpt>
      <trkpt lat="48.8022" lon="-3.44583">
        <ele>18.1</ele>
        <time>2019-07-11T08:10:12Z</time>
      </trkpt>
      <trkpt lat="48.80216" lon="-3.44584">
        <ele>19.1</ele>
        <time>2019-07-11T08:10:13Z</time>
      </trkpt>
      <trkpt lat="48.80213" lon="-3.44585">
        <ele>19.5</ele>
        <time>2019-07-11T08:10:14Z</time>
      </trkpt>
      <trkpt lat="48.8021" lon="-3.44586">
        <ele>19.6</ele>
        <time>2019-07-11T08:10:15Z</time>
      </trkpt>
      <trkpt lat="48.80206" lon="-3.44588">
        <ele>19.5</ele>
        <time>2019-07-11T08:10:16Z</time>
      </trkpt>
      <trkpt lat="48.80203" lon="-3.4459">
        <ele>19.3</ele>
        <time>2019-07-11T08:10:17Z</time>
      </trkpt>
      <trkpt lat="48.80199" lon="-3.44593">
        <ele>18.5</ele>
        <time>2019-07-11T08:10:18Z</time>
      </trkpt>
      <trkpt lat="48.80196" lon="-3.44594">
        <ele>18.4</ele>
        <time>2019-07-11T08:10:19Z</time>
      </trkpt>
      <trkpt lat="48.80193" lon="-3.44596">
        <ele>18.1</ele>
        <time>2019-07-11T08:10:20Z</time>
      </trkpt>
      <trkpt lat="48.8019" lon="-3.44598">
        <ele>18.1</ele>
        <time>2019-07-11T08:10:21Z</time>
      </trkpt>
      <trkpt lat="48.80186" lon="-3.44599">
        <ele>18.1</ele>
        <time>2019-07-11T08:10:22Z</time>
      </trkpt>
      <trkpt lat="48.80182" lon="-3.44601">
        <ele>18.3</ele>
        <time>2019-07-11T08:10:23Z</time>
      </trkpt>
      <trkpt lat="48.80179" lon="-3.44603">
        <ele>18.3</ele>
        <time>2019-07-11T08:10:24Z</time>
      </trkpt>
      <trkpt lat="48.80175" lon="-3.44604">
        <ele>17.9</ele>
        <time>2019-07-11T08:10:25Z</time>
      </trkpt>
      <trkpt lat="48.80171" lon="-3.44605">
        <ele>18</ele>
        <time>2019-07-11T08:10:26Z</time>
      </trkpt>
      <trkpt lat="48.80166" lon="-3.44605">
        <ele>17.9</ele>
        <time>2019-07-11T08:10:27Z</time>
      </trkpt>
      <trkpt lat="48.80162" lon="-3.44605">
        <ele>18</ele>
        <time>2019-07-11T08:10:28Z</time>
      </trkpt>
      <trkpt lat="48.80158" lon="-3.44606">
        <ele>18.2</ele>
        <time>2019-07-11T08:10:29Z</time>
      </trkpt>
      <trkpt lat="48.80156" lon="-3.44605">
        <ele>19.4</ele>
        <time>2019-07-11T08:10:30Z</time>
      </trkpt>
      <trkpt lat="48.80152" lon="-3.44604">
        <ele>19.4</ele>
        <time>2019-07-11T08:10:31Z</time>
      </trkpt>
      <trkpt lat="48.80148" lon="-3.44603">
        <ele>20.1</ele>
        <time>2019-07-11T08:10:32Z</time>
      </trkpt>
      <trkpt lat="48.80145" lon="-3.44603">
        <ele>20</ele>
        <time>2019-07-11T08:10:33Z</time>
      </trkpt>
      <trkpt lat="48.80141" lon="-3.44601">
        <ele>20.5</ele>
        <time>2019-07-11T08:10:34Z</time>
      </trkpt>
      <trkpt lat="48.80138" lon="-3.446">
        <ele>20.7</ele>
        <time>2019-07-11T08:10:35Z</time>
      </trkpt>
      <trkpt lat="48.80134" lon="-3.44599">
        <ele>21</ele>
        <time>2019-07-11T08:10:36Z</time>
      </trkpt>
      <trkpt lat="48.8013" lon="-3.44598">
        <ele>21.2</ele>
        <time>2019-07-11T08:10:37Z</time>
      </trkpt>
      <trkpt lat="48.80126" lon="-3.44599">
        <ele>21</ele>
        <time>2019-07-11T08:10:38Z</time>
      </trkpt>
      <trkpt lat="48.80124" lon="-3.446">
        <ele>21.5</ele>
        <time>2019-07-11T08:10:39Z</time>
      </trkpt>
      <trkpt lat="48.80121" lon="-3.44603">
        <ele>21.2</ele>
        <time>2019-07-11T08:10:40Z</time>
      </trkpt>
      <trkpt lat="48.80118" lon="-3.44606">
        <ele>21.1</ele>
        <time>2019-07-11T08:10:41Z</time>
      </trkpt>
      <trkpt lat="48.80116" lon="-3.44608">
        <ele>21.2</ele>
        <time>2019-07-11T08:10:42Z</time>
      </trkpt>
      <trkpt lat="48.80113" lon="-3.44611">
        <ele>21.2</ele>
        <time>2019-07-11T08:10:43Z</time>
      </trkpt>
      <trkpt lat="48.80111" lon="-3.44613">
        <ele>20.8</ele>
        <time>2019-07-11T08:10:44Z</time>
      </trkpt>
      <trkpt lat="48.80109" lon="-3.44616">
        <ele>19.2</ele>
        <time>2019-07-11T08:10:45Z</time>
      </trkpt>
      <trkpt lat="48.80108" lon="-3.44619">
        <ele>17.6</ele>
        <time>2019-07-11T08:10:46Z</time>
      </trkpt>
      <trkpt lat="48.80105" lon="-3.44623">
        <ele>17.3</ele>
        <time>2019-07-11T08:10:47Z</time>
      </trkpt>
      <trkpt lat="48.80103" lon="-3.44626">
        <ele>17.1</ele>
        <time>2019-07-11T08:10:48Z</time>
      </trkpt>
      <trkpt lat="48.80101" lon="-3.44629">
        <ele>16.9</ele>
        <time>2019-07-11T08:10:49Z</time>
      </trkpt>
      <trkpt lat="48.80099" lon="-3.44632">
        <ele>16.5</ele>
        <time>2019-07-11T08:10:50Z</time>
      </trkpt>
      <trkpt lat="48.80098" lon="-3.44635">
        <ele>16</ele>
        <time>2019-07-11T08:10:51Z</time>
      </trkpt>
      <trkpt lat="48.80096" lon="-3.44637">
        <ele>16.8</ele>
        <time>2019-07-11T08:10:52Z</time>
      </trkpt>
      <trkpt lat="48.80093" lon="-3.4464">
        <ele>16.2</ele>
        <time>2019-07-11T08:10:53Z</time>
      </trkpt>
      <trkpt lat="48.80092" lon="-3.44643">
        <ele>16.2</ele>
        <time>2019-07-11T08:10:54Z</time>
      </trkpt>
      <trkpt lat="48.8009" lon="-3.44645">
        <ele>16.7</ele>
        <time>2019-07-11T08:10:55Z</time>
      </trkpt>
      <trkpt lat="48.80088" lon="-3.44648">
        <ele>17.2</ele>
        <time>2019-07-11T08:10:56Z</time>
      </trkpt>
      <trkpt lat="48.80085" lon="-3.4465">
        <ele>17.4</ele>
        <time>2019-07-11T08:10:57Z</time>
      </trkpt>
      <trkpt lat="48.80083" lon="-3.44653">
        <ele>18.3</ele>
        <time>2019-07-11T08:10:58Z</time>
      </trkpt>
      <trkpt lat="48.80081" lon="-3.44657">
        <ele>18.6</ele>
        <time>2019-07-11T08:10:59Z</time>
      </trkpt>
      <trkpt lat="48.80079" lon="-3.4466">
        <ele>19.1</ele>
        <time>2019-07-11T08:11:00Z</time>
      </trkpt>
      <trkpt lat="48.80076" lon="-3.44665">
        <ele>19.8</ele>
        <time>2019-07-11T08:11:02Z</time>
      </trkpt>
      <trkpt lat="48.80074" lon="-3.44667">
        <ele>20.3</ele>
        <time>2019-07-11T08:11:03Z</time>
      </trkpt>
      <trkpt lat="48.80072" lon="-3.44669">
        <ele>21</ele>
        <time>2019-07-11T08:11:04Z</time>
      </trkpt>
      <trkpt lat="48.8007" lon="-3.44671">
        <ele>21.6</ele>
        <time>2019-07-11T08:11:05Z</time>
      </trkpt>
      <trkpt lat="48.80068" lon="-3.44674">
        <ele>22.1</ele>
        <time>2019-07-11T08:11:06Z</time>
      </trkpt>
      <trkpt lat="48.80067" lon="-3.44676">
        <ele>22.9</ele>
        <time>2019-07-11T08:11:07Z</time>
      </trkpt>
      <trkpt lat="48.80065" lon="-3.44679">
        <ele>23.3</ele>
        <time>2019-07-11T08:11:08Z</time>
      </trkpt>
      <trkpt lat="48.80063" lon="-3.44681">
        <ele>23.6</ele>
        <time>2019-07-11T08:11:09Z</time>
      </trkpt>
      <trkpt lat="48.80061" lon="-3.44684">
        <ele>24.1</ele>
        <time>2019-07-11T08:11:10Z</time>
      </trkpt>
      <trkpt lat="48.80059" lon="-3.44687">
        <ele>24</ele>
        <time>2019-07-11T08:11:11Z</time>
      </trkpt>
      <trkpt lat="48.80058" lon="-3.44689">
        <ele>24.3</ele>
        <time>2019-07-11T08:11:12Z</time>
      </trkpt>
      <trkpt lat="48.80056" lon="-3.44692">
        <ele>25</ele>
        <time>2019-07-11T08:11:13Z</time>
      </trkpt>
      <trkpt lat="48.80055" lon="-3.44695">
        <ele>25.5</ele>
        <time>2019-07-11T08:11:14Z</time>
      </trkpt>
      <trkpt lat="48.80053" lon="-3.44698">
        <ele>25.3</ele>
        <time>2019-07-11T08:11:15Z</time>
      </trkpt>
      <trkpt lat="48.80052" lon="-3.44701">
        <ele>25.1</ele>
        <time>2019-07-11T08:11:16Z</time>
      </trkpt>
      <trkpt lat="48.8005" lon="-3.44703">
        <ele>25.3</ele>
        <time>2019-07-11T08:11:17Z</time>
      </trkpt>
      <trkpt lat="48.80048" lon="-3.44706">
        <ele>24.8</ele>
        <time>2019-07-11T08:11:18Z</time>
      </trkpt>
      <trkpt lat="48.80047" lon="-3.44709">
        <ele>24.8</ele>
        <time>2019-07-11T08:11:19Z</time>
      </trkpt>
      <trkpt lat="48.80045" lon="-3.44711">
        <ele>25.1</ele>
        <time>2019-07-11T08:11:20Z</time>
      </trkpt>
      <trkpt lat="48.80044" lon="-3.44714">
        <ele>25.2</ele>
        <time>2019-07-11T08:11:21Z</time>
      </trkpt>
      <trkpt lat="48.80042" lon="-3.44716">
        <ele>25.5</ele>
        <time>2019-07-11T08:11:22Z</time>
      </trkpt>
      <trkpt lat="48.8004" lon="-3.44719">
        <ele>25.7</ele>
        <time>2019-07-11T08:11:23Z</time>
      </trkpt>
      <trkpt lat="48.80039" lon="-3.4472">
        <ele>26.5</ele>
        <time>2019-07-11T08:11:24Z</time>
      </trkpt>
      <trkpt lat="48.80037" lon="-3.44722">
        <ele>26.7</ele>
        <time>2019-07-11T08:11:25Z</time>
      </trkpt>
      <trkpt lat="48.80036" lon="-3.44725">
        <ele>27.3</ele>
        <time>2019-07-11T08:11:26Z</time>
      </trkpt>
      <trkpt lat="48.80034" lon="-3.44727">
        <ele>27.8</ele>
        <time>2019-07-11T08:11:27Z</time>
      </trkpt>
      <trkpt lat="48.80033" lon="-3.4473">
        <ele>28.5</ele>
        <time>2019-07-11T08:11:28Z</time>
      </trkpt>
      <trkpt lat="48.80032" lon="-3.44733">
        <ele>29.4</ele>
        <time>2019-07-11T08:11:29Z</time>
      </trkpt>
      <trkpt lat="48.80032" lon="-3.44736">
        <ele>30.2</ele>
        <time>2019-07-11T08:11:30Z</time>
      </trkpt>
      <trkpt lat="48.80031" lon="-3.4474">
        <ele>30</ele>
        <time>2019-07-11T08:11:31Z</time>
      </trkpt>
      <trkpt lat="48.8003" lon="-3.44743">
        <ele>30.1</ele>
        <time>2019-07-11T08:11:32Z</time>
      </trkpt>
      <trkpt lat="48.80028" lon="-3.44745">
        <ele>30.3</ele>
        <time>2019-07-11T08:11:33Z</time>
      </trkpt>
      <trkpt lat="48.80026" lon="-3.44747">
        <ele>30</ele>
        <time>2019-07-11T08:11:34Z</time>
      </trkpt>
      <trkpt lat="48.80023" lon="-3.44748">
        <ele>29.4</ele>
        <time>2019-07-11T08:11:35Z</time>
      </trkpt>
      <trkpt lat="48.80021" lon="-3.44749">
        <ele>29.2</ele>
        <time>2019-07-11T08:11:36Z</time>
      </trkpt>
      <trkpt lat="48.80019" lon="-3.44748">
        <ele>28.7</ele>
        <time>2019-07-11T08:11:37Z</time>
      </trkpt>
      <trkpt lat="48.80016" lon="-3.44748">
        <ele>28.3</ele>
        <time>2019-07-11T08:11:38Z</time>
      </trkpt>
      <trkpt lat="48.80014" lon="-3.44746">
        <ele>28.5</ele>
        <time>2019-07-11T08:11:39Z</time>
      </trkpt>
      <trkpt lat="48.80013" lon="-3.44742">
        <ele>28.4</ele>
        <time>2019-07-11T08:11:40Z</time>
      </trkpt>
      <trkpt lat="48.80012" lon="-3.44739">
        <ele>28.7</ele>
        <time>2019-07-11T08:11:41Z</time>
      </trkpt>
      <trkpt lat="48.80011" lon="-3.44734">
        <ele>28.4</ele>
        <time>2019-07-11T08:11:42Z</time>
      </trkpt>
      <trkpt lat="48.8001" lon="-3.44728">
        <ele>28.2</ele>
        <time>2019-07-11T08:11:43Z</time>
      </trkpt>
      <trkpt lat="48.80009" lon="-3.44723">
        <ele>27.4</ele>
        <time>2019-07-11T08:11:44Z</time>
      </trkpt>
      <trkpt lat="48.80008" lon="-3.44717">
        <ele>26.6</ele>
        <time>2019-07-11T08:11:45Z</time>
      </trkpt>
      <trkpt lat="48.80007" lon="-3.44712">
        <ele>26</ele>
        <time>2019-07-11T08:11:46Z</time>
      </trkpt>
      <trkpt lat="48.80006" lon="-3.44705">
        <ele>25.6</ele>
        <time>2019-07-11T08:11:47Z</time>
      </trkpt>
      <trkpt lat="48.80005" lon="-3.447">
        <ele>24.9</ele>
        <time>2019-07-11T08:11:48Z</time>
      </trkpt>
      <trkpt lat="48.80003" lon="-3.44697">
        <ele>24.8</ele>
        <time>2019-07-11T08:11:49Z</time>
      </trkpt>
      <trkpt lat="48.8" lon="-3.44695">
        <ele>24.5</ele>
        <time>2019-07-11T08:11:50Z</time>
      </trkpt>
      <trkpt lat="48.79997" lon="-3.44696">
        <ele>24.7</ele>
        <time>2019-07-11T08:11:51Z</time>
      </trkpt>
      <trkpt lat="48.79995" lon="-3.44697">
        <ele>25.5</ele>
        <time>2019-07-11T08:11:52Z</time>
      </trkpt>
      <trkpt lat="48.79994" lon="-3.44698">
        <ele>26</ele>
        <time>2019-07-11T08:11:53Z</time>
      </trkpt>
      <trkpt lat="48.79993" lon="-3.44698">
        <ele>26.7</ele>
        <time>2019-07-11T08:11:54Z</time>
      </trkpt>
      <trkpt lat="48.79991" lon="-3.44699">
        <ele>27.1</ele>
        <time>2019-07-11T08:11:55Z</time>
      </trkpt>
      <trkpt lat="48.7999" lon="-3.447">
        <ele>27.4</ele>
        <time>2019-07-11T08:11:56Z</time>
      </trkpt>
      <trkpt lat="48.7999" lon="-3.44701">
        <ele>27.9</ele>
        <time>2019-07-11T08:11:57Z</time>
      </trkpt>
      <trkpt lat="48.79989" lon="-3.44701">
        <ele>28.4</ele>
        <time>2019-07-11T08:11:58Z</time>
      </trkpt>
      <trkpt lat="48.79987" lon="-3.44702">
        <ele>29.2</ele>
        <time>2019-07-11T08:11:59Z</time>
      </trkpt>
      <trkpt lat="48.79986" lon="-3.44702">
        <ele>29.7</ele>
        <time>2019-07-11T08:12:00Z</time>
      </trkpt>
      <trkpt lat="48.79985" lon="-3.44703">
        <ele>30.2</ele>
        <time>2019-07-11T08:12:01Z</time>
      </trkpt>
      <trkpt lat="48.79984" lon="-3.44703">
        <ele>30.9</ele>
        <time>2019-07-11T08:12:02Z</time>
      </trkpt>
      <trkpt lat="48.79982" lon="-3.44704">
        <ele>31.6</ele>
        <time>2019-07-11T08:12:03Z</time>
      </trkpt>
      <trkpt lat="48.79981" lon="-3.44705">
        <ele>32.2</ele>
        <time>2019-07-11T08:12:04Z</time>
      </trkpt>
      <trkpt lat="48.7998" lon="-3.44706">
        <ele>32.8</ele>
        <time>2019-07-11T08:12:05Z</time>
      </trkpt>
      <trkpt lat="48.79979" lon="-3.44706">
        <ele>33.4</ele>
        <time>2019-07-11T08:12:06Z</time>
      </trkpt>
      <trkpt lat="48.79977" lon="-3.44707">
        <ele>33.6</ele>
        <time>2019-07-11T08:12:07Z</time>
      </trkpt>
      <trkpt lat="48.79975" lon="-3.44708">
        <ele>33.6</ele>
        <time>2019-07-11T08:12:08Z</time>
      </trkpt>
      <trkpt lat="48.79974" lon="-3.44709">
        <ele>33.9</ele>
        <time>2019-07-11T08:12:09Z</time>
      </trkpt>
      <trkpt lat="48.79973" lon="-3.44709">
        <ele>34.3</ele>
        <time>2019-07-11T08:12:10Z</time>
      </trkpt>
      <trkpt lat="48.79971" lon="-3.4471">
        <ele>34.6</ele>
        <time>2019-07-11T08:12:11Z</time>
      </trkpt>
      <trkpt lat="48.79969" lon="-3.44711">
        <ele>34.5</ele>
        <time>2019-07-11T08:12:12Z</time>
      </trkpt>
      <trkpt lat="48.79966" lon="-3.44712">
        <ele>34.3</ele>
        <time>2019-07-11T08:12:13Z</time>
      </trkpt>
      <trkpt lat="48.79965" lon="-3.44713">
        <ele>34.6</ele>
        <time>2019-07-11T08:12:14Z</time>
      </trkpt>
      <trkpt lat="48.79964" lon="-3.44714">
        <ele>34.9</ele>
        <time>2019-07-11T08:12:15Z</time>
      </trkpt>
      <trkpt lat="48.79962" lon="-3.44715">
        <ele>35.3</ele>
        <time>2019-07-11T08:12:16Z</time>
      </trkpt>
      <trkpt lat="48.79961" lon="-3.44717">
        <ele>35.1</ele>
        <time>2019-07-11T08:12:17Z</time>
      </trkpt>
      <trkpt lat="48.79959" lon="-3.44719">
        <ele>34.8</ele>
        <time>2019-07-11T08:12:18Z</time>
      </trkpt>
      <trkpt lat="48.79957" lon="-3.4472">
        <ele>34.6</ele>
        <time>2019-07-11T08:12:19Z</time>
      </trkpt>
      <trkpt lat="48.79956" lon="-3.44722">
        <ele>34.5</ele>
        <time>2019-07-11T08:12:20Z</time>
      </trkpt>
      <trkpt lat="48.79956" lon="-3.44723">
        <ele>34.7</ele>
        <time>2019-07-11T08:12:21Z</time>
      </trkpt>
      <trkpt lat="48.79955" lon="-3.44725">
        <ele>35</ele>
        <time>2019-07-11T08:12:22Z</time>
      </trkpt>
      <trkpt lat="48.79954" lon="-3.44727">
        <ele>35.4</ele>
        <time>2019-07-11T08:12:23Z</time>
      </trkpt>
      <trkpt lat="48.79953" lon="-3.44729">
        <ele>35.9</ele>
        <time>2019-07-11T08:12:24Z</time>
      </trkpt>
      <trkpt lat="48.79953" lon="-3.44731">
        <ele>36.3</ele>
        <time>2019-07-11T08:12:25Z</time>
      </trkpt>
      <trkpt lat="48.79952" lon="-3.44733">
        <ele>36.5</ele>
        <time>2019-07-11T08:12:26Z</time>
      </trkpt>
      <trkpt lat="48.7995" lon="-3.44735">
        <ele>36.9</ele>
        <time>2019-07-11T08:12:27Z</time>
      </trkpt>
      <trkpt lat="48.79949" lon="-3.44737">
        <ele>37</ele>
        <time>2019-07-11T08:12:28Z</time>
      </trkpt>
      <trkpt lat="48.79948" lon="-3.44739">
        <ele>37.1</ele>
        <time>2019-07-11T08:12:29Z</time>
      </trkpt>
      <trkpt lat="48.79947" lon="-3.44742">
        <ele>37.4</ele>
        <time>2019-07-11T08:12:30Z</time>
      </trkpt>
      <trkpt lat="48.79946" lon="-3.44743">
        <ele>38</ele>
        <time>2019-07-11T08:12:31Z</time>
      </trkpt>
      <trkpt lat="48.79945" lon="-3.44745">
        <ele>38.3</ele>
        <time>2019-07-11T08:12:32Z</time>
      </trkpt>
      <trkpt lat="48.79944" lon="-3.44746">
        <ele>38.8</ele>
        <time>2019-07-11T08:12:33Z</time>
      </trkpt>
      <trkpt lat="48.79944" lon="-3.44748">
        <ele>39.2</ele>
        <time>2019-07-11T08:12:34Z</time>
      </trkpt>
      <trkpt lat="48.79943" lon="-3.4475">
        <ele>39.7</ele>
        <time>2019-07-11T08:12:35Z</time>
      </trkpt>
      <trkpt lat="48.79942" lon="-3.44752">
        <ele>40.3</ele>
        <time>2019-07-11T08:12:36Z</time>
      </trkpt>
      <trkpt lat="48.79942" lon="-3.44754">
        <ele>41.1</ele>
        <time>2019-07-11T08:12:37Z</time>
      </trkpt>
      <trkpt lat="48.7994" lon="-3.44756">
        <ele>41.3</ele>
        <time>2019-07-11T08:12:38Z</time>
      </trkpt>
      <trkpt lat="48.79939" lon="-3.44758">
        <ele>41</ele>
        <time>2019-07-11T08:12:39Z</time>
      </trkpt>
      <trkpt lat="48.79939" lon="-3.4476">
        <ele>40.8</ele>
        <time>2019-07-11T08:12:40Z</time>
      </trkpt>
      <trkpt lat="48.79938" lon="-3.44762">
        <ele>41</ele>
        <time>2019-07-11T08:12:41Z</time>
      </trkpt>
      <trkpt lat="48.79937" lon="-3.44765">
        <ele>40.7</ele>
        <time>2019-07-11T08:12:42Z</time>
      </trkpt>
      <trkpt lat="48.79936" lon="-3.44767">
        <ele>40.7</ele>
        <time>2019-07-11T08:12:43Z</time>
      </trkpt>
      <trkpt lat="48.79935" lon="-3.44769">
        <ele>40.7</ele>
        <time>2019-07-11T08:12:44Z</time>
      </trkpt>
      <trkpt lat="48.79935" lon="-3.44772">
        <ele>40.4</ele>
        <time>2019-07-11T08:12:45Z</time>
      </trkpt>
      <trkpt lat="48.79934" lon="-3.44774">
        <ele>40.3</ele>
        <time>2019-07-11T08:12:46Z</time>
      </trkpt>
      <trkpt lat="48.79934" lon="-3.44777">
        <ele>40.2</ele>
        <time>2019-07-11T08:12:47Z</time>
      </trkpt>
      <trkpt lat="48.79933" lon="-3.44779">
        <ele>39.8</ele>
        <time>2019-07-11T08:12:48Z</time>
      </trkpt>
      <trkpt lat="48.79933" lon="-3.44782">
        <ele>39.6</ele>
        <time>2019-07-11T08:12:49Z</time>
      </trkpt>
      <trkpt lat="48.79932" lon="-3.44784">
        <ele>39.6</ele>
        <time>2019-07-11T08:12:50Z</time>
      </trkpt>
      <trkpt lat="48.79932" lon="-3.44787">
        <ele>39.3</ele>
        <time>2019-07-11T08:12:51Z</time>
      </trkpt>
      <trkpt lat="48.79932" lon="-3.4479">
        <ele>39.3</ele>
        <time>2019-07-11T08:12:52Z</time>
      </trkpt>
      <trkpt lat="48.79932" lon="-3.44792">
        <ele>39.1</ele>
        <time>2019-07-11T08:12:53Z</time>
      </trkpt>
      <trkpt lat="48.79932" lon="-3.44796">
        <ele>39</ele>
        <time>2019-07-11T08:12:54Z</time>
      </trkpt>
      <trkpt lat="48.79932" lon="-3.44798">
        <ele>39.3</ele>
        <time>2019-07-11T08:12:55Z</time>
      </trkpt>
      <trkpt lat="48.79931" lon="-3.44801">
        <ele>39.4</ele>
        <time>2019-07-11T08:12:56Z</time>
      </trkpt>
      <trkpt lat="48.79931" lon="-3.44803">
        <ele>39.5</ele>
        <time>2019-07-11T08:12:57Z</time>
      </trkpt>
      <trkpt lat="48.79931" lon="-3.44805">
        <ele>39.9</ele>
        <time>2019-07-11T08:12:58Z</time>
      </trkpt>
      <trkpt lat="48.7993" lon="-3.44807">
        <ele>40.3</ele>
        <time>2019-07-11T08:12:59Z</time>
      </trkpt>
      <trkpt lat="48.79929" lon="-3.44809">
        <ele>40.5</ele>
        <time>2019-07-11T08:13:00Z</time>
      </trkpt>
      <trkpt lat="48.79929" lon="-3.44812">
        <ele>40.7</ele>
        <time>2019-07-11T08:13:01Z</time>
      </trkpt>
      <trkpt lat="48.79928" lon="-3.44814">
        <ele>40.9</ele>
        <time>2019-07-11T08:13:02Z</time>
      </trkpt>
      <trkpt lat="48.79928" lon="-3.44817">
        <ele>41</ele>
        <time>2019-07-11T08:13:03Z</time>
      </trkpt>
      <trkpt lat="48.79926" lon="-3.4482">
        <ele>40.8</ele>
        <time>2019-07-11T08:13:04Z</time>
      </trkpt>
      <trkpt lat="48.79926" lon="-3.44822">
        <ele>41.1</ele>
        <time>2019-07-11T08:13:05Z</time>
      </trkpt>
      <trkpt lat="48.79925" lon="-3.44825">
        <ele>41.8</ele>
        <time>2019-07-11T08:13:06Z</time>
      </trkpt>
      <trkpt lat="48.79925" lon="-3.44827">
        <ele>42.2</ele>
        <time>2019-07-11T08:13:07Z</time>
      </trkpt>
      <trkpt lat="48.79924" lon="-3.4483">
        <ele>42.3</ele>
        <time>2019-07-11T08:13:08Z</time>
      </trkpt>
      <trkpt lat="48.79923" lon="-3.44833">
        <ele>41.9</ele>
        <time>2019-07-11T08:13:09Z</time>
      </trkpt>
      <trkpt lat="48.79923" lon="-3.44835">
        <ele>42.2</ele>
        <time>2019-07-11T08:13:10Z</time>
      </trkpt>
      <trkpt lat="48.79922" lon="-3.44838">
        <ele>42.6</ele>
        <time>2019-07-11T08:13:11Z</time>
      </trkpt>
      <trkpt lat="48.79921" lon="-3.4484">
        <ele>42.5</ele>
        <time>2019-07-11T08:13:12Z</time>
      </trkpt>
      <trkpt lat="48.7992" lon="-3.44843">
        <ele>42.8</ele>
        <time>2019-07-11T08:13:13Z</time>
      </trkpt>
      <trkpt lat="48.79919" lon="-3.44845">
        <ele>42.6</ele>
        <time>2019-07-11T08:13:14Z</time>
      </trkpt>
      <trkpt lat="48.79918" lon="-3.44848">
        <ele>42.3</ele>
        <time>2019-07-11T08:13:15Z</time>
      </trkpt>
      <trkpt lat="48.79917" lon="-3.44851">
        <ele>42.3</ele>
        <time>2019-07-11T08:13:16Z</time>
      </trkpt>
      <trkpt lat="48.79916" lon="-3.44853">
        <ele>42.7</ele>
        <time>2019-07-11T08:13:17Z</time>
      </trkpt>
      <trkpt lat="48.79916" lon="-3.44855">
        <ele>42.7</ele>
        <time>2019-07-11T08:13:18Z</time>
      </trkpt>
      <trkpt lat="48.79915" lon="-3.44858">
        <ele>42.6</ele>
        <time>2019-07-11T08:13:19Z</time>
      </trkpt>
      <trkpt lat="48.79915" lon="-3.44862">
        <ele>41.9</ele>
        <time>2019-07-11T08:13:20Z</time>
      </trkpt>
      <trkpt lat="48.79913" lon="-3.44865">
        <ele>41.2</ele>
        <time>2019-07-11T08:13:21Z</time>
      </trkpt>
      <trkpt lat="48.79912" lon="-3.44868">
        <ele>41</ele>
        <time>2019-07-11T08:13:22Z</time>
      </trkpt>
      <trkpt lat="48.79911" lon="-3.44871">
        <ele>40.7</ele>
        <time>2019-07-11T08:13:23Z</time>
      </trkpt>
      <trkpt lat="48.7991" lon="-3.44873">
        <ele>41</ele>
        <time>2019-07-11T08:13:24Z</time>
      </trkpt>
      <trkpt lat="48.79909" lon="-3.44876">
        <ele>41.3</ele>
        <time>2019-07-11T08:13:25Z</time>
      </trkpt>
      <trkpt lat="48.79908" lon="-3.44878">
        <ele>41.4</ele>
        <time>2019-07-11T08:13:26Z</time>
      </trkpt>
      <trkpt lat="48.79907" lon="-3.4488">
        <ele>41.6</ele>
        <time>2019-07-11T08:13:27Z</time>
      </trkpt>
      <trkpt lat="48.79906" lon="-3.44883">
        <ele>42</ele>
        <time>2019-07-11T08:13:28Z</time>
      </trkpt>
      <trkpt lat="48.79905" lon="-3.44885">
        <ele>42.5</ele>
        <time>2019-07-11T08:13:29Z</time>
      </trkpt>
      <trkpt lat="48.79904" lon="-3.44888">
        <ele>42.6</ele>
        <time>2019-07-11T08:13:30Z</time>
      </trkpt>
      <trkpt lat="48.79903" lon="-3.4489">
        <ele>42.8</ele>
        <time>2019-07-11T08:13:31Z</time>
      </trkpt>
      <trkpt lat="48.79902" lon="-3.44892">
        <ele>43</ele>
        <time>2019-07-11T08:13:32Z</time>
      </trkpt>
      <trkpt lat="48.79901" lon="-3.44895">
        <ele>43.5</ele>
        <time>2019-07-11T08:13:33Z</time>
      </trkpt>
      <trkpt lat="48.799" lon="-3.44897">
        <ele>43.7</ele>
        <time>2019-07-11T08:13:34Z</time>
      </trkpt>
      <trkpt lat="48.799" lon="-3.449">
        <ele>44</ele>
        <time>2019-07-11T08:13:35Z</time>
      </trkpt>
      <trkpt lat="48.79899" lon="-3.44902">
        <ele>44.5</ele>
        <time>2019-07-11T08:13:36Z</time>
      </trkpt>
      <trkpt lat="48.79899" lon="-3.44905">
        <ele>44.6</ele>
        <time>2019-07-11T08:13:37Z</time>
      </trkpt>
      <trkpt lat="48.79899" lon="-3.44908">
        <ele>45</ele>
        <time>2019-07-11T08:13:38Z</time>
      </trkpt>
      <trkpt lat="48.79898" lon="-3.4491">
        <ele>45.4</ele>
        <time>2019-07-11T08:13:39Z</time>
      </trkpt>
      <trkpt lat="48.79898" lon="-3.44913">
        <ele>45.4</ele>
        <time>2019-07-11T08:13:40Z</time>
      </trkpt>
      <trkpt lat="48.79897" lon="-3.44916">
        <ele>45.7</ele>
        <time>2019-07-11T08:13:41Z</time>
      </trkpt>
      <trkpt lat="48.79897" lon="-3.44919">
        <ele>46</ele>
        <time>2019-07-11T08:13:42Z</time>
      </trkpt>
      <trkpt lat="48.79896" lon="-3.44921">
        <ele>46</ele>
        <time>2019-07-11T08:13:43Z</time>
      </trkpt>
      <trkpt lat="48.79896" lon="-3.44924">
        <ele>46.4</ele>
        <time>2019-07-11T08:13:44Z</time>
      </trkpt>
      <trkpt lat="48.79895" lon="-3.44926">
        <ele>46.4</ele>
        <time>2019-07-11T08:13:45Z</time>
      </trkpt>
      <trkpt lat="48.79895" lon="-3.44929">
        <ele>46.5</ele>
        <time>2019-07-11T08:13:46Z</time>
      </trkpt>
      <trkpt lat="48.79894" lon="-3.44931">
        <ele>47.1</ele>
        <time>2019-07-11T08:13:47Z</time>
      </trkpt>
      <trkpt lat="48.79894" lon="-3.44933">
        <ele>47.7</ele>
        <time>2019-07-11T08:13:48Z</time>
      </trkpt>
      <trkpt lat="48.79893" lon="-3.44936">
        <ele>47.5</ele>
        <time>2019-07-11T08:13:49Z</time>
      </trkpt>
      <trkpt lat="48.79892" lon="-3.44938">
        <ele>47.5</ele>
        <time>2019-07-11T08:13:50Z</time>
      </trkpt>
      <trkpt lat="48.79891" lon="-3.4494">
        <ele>47.9</ele>
        <time>2019-07-11T08:13:51Z</time>
      </trkpt>
      <trkpt lat="48.7989" lon="-3.44943">
        <ele>48</ele>
        <time>2019-07-11T08:13:52Z</time>
      </trkpt>
      <trkpt lat="48.79889" lon="-3.44945">
        <ele>48</ele>
        <time>2019-07-11T08:13:53Z</time>
      </trkpt>
      <trkpt lat="48.79889" lon="-3.44947">
        <ele>48.3</ele>
        <time>2019-07-11T08:13:54Z</time>
      </trkpt>
      <trkpt lat="48.79887" lon="-3.44949">
        <ele>48.5</ele>
        <time>2019-07-11T08:13:55Z</time>
      </trkpt>
      <trkpt lat="48.79886" lon="-3.44952">
        <ele>48.4</ele>
        <time>2019-07-11T08:13:56Z</time>
      </trkpt>
      <trkpt lat="48.79886" lon="-3.44954">
        <ele>48.7</ele>
        <time>2019-07-11T08:13:57Z</time>
      </trkpt>
      <trkpt lat="48.79885" lon="-3.44956">
        <ele>49.1</ele>
        <time>2019-07-11T08:13:58Z</time>
      </trkpt>
      <trkpt lat="48.79884" lon="-3.4496">
        <ele>48.7</ele>
        <time>2019-07-11T08:13:59Z</time>
      </trkpt>
      <trkpt lat="48.79884" lon="-3.44962">
        <ele>48.6</ele>
        <time>2019-07-11T08:14:00Z</time>
      </trkpt>
      <trkpt lat="48.79883" lon="-3.44965">
        <ele>48.7</ele>
        <time>2019-07-11T08:14:01Z</time>
      </trkpt>
      <trkpt lat="48.79882" lon="-3.44967">
        <ele>48.6</ele>
        <time>2019-07-11T08:14:02Z</time>
      </trkpt>
      <trkpt lat="48.79881" lon="-3.44968">
        <ele>49</ele>
        <time>2019-07-11T08:14:03Z</time>
      </trkpt>
      <trkpt lat="48.7988" lon="-3.4497">
        <ele>49.2</ele>
        <time>2019-07-11T08:14:04Z</time>
      </trkpt>
      <trkpt lat="48.79878" lon="-3.44972">
        <ele>49</ele>
        <time>2019-07-11T08:14:05Z</time>
      </trkpt>
      <trkpt lat="48.79878" lon="-3.44974">
        <ele>48.9</ele>
        <time>2019-07-11T08:14:06Z</time>
      </trkpt>
      <trkpt lat="48.79877" lon="-3.44977">
        <ele>48.4</ele>
        <time>2019-07-11T08:14:07Z</time>
      </trkpt>
      <trkpt lat="48.79876" lon="-3.44979">
        <ele>48.4</ele>
        <time>2019-07-11T08:14:08Z</time>
      </trkpt>
      <trkpt lat="48.79876" lon="-3.44981">
        <ele>48.4</ele>
        <time>2019-07-11T08:14:09Z</time>
      </trkpt>
      <trkpt lat="48.79876" lon="-3.44984">
        <ele>48.4</ele>
        <time>2019-07-11T08:14:10Z</time>
      </trkpt>
      <trkpt lat="48.79876" lon="-3.44986">
        <ele>48.5</ele>
        <time>2019-07-11T08:14:11Z</time>
      </trkpt>
      <trkpt lat="48.79875" lon="-3.44989">
        <ele>48.3</ele>
        <time>2019-07-11T08:14:12Z</time>
      </trkpt>
      <trkpt lat="48.79874" lon="-3.44991">
        <ele>48.3</ele>
        <time>2019-07-11T08:14:13Z</time>
      </trkpt>
      <trkpt lat="48.79874" lon="-3.44994">
        <ele>48.5</ele>
        <time>2019-07-11T08:14:14Z</time>
      </trkpt>
      <trkpt lat="48.79873" lon="-3.44996">
        <ele>48.8</ele>
        <time>2019-07-11T08:14:15Z</time>
      </trkpt>
      <trkpt lat="48.79872" lon="-3.44999">
        <ele>49.1</ele>
        <time>2019-07-11T08:14:16Z</time>
      </trkpt>
      <trkpt lat="48.79871" lon="-3.45001">
        <ele>49.5</ele>
        <time>2019-07-11T08:14:17Z</time>
      </trkpt>
      <trkpt lat="48.7987" lon="-3.45004">
        <ele>50.3</ele>
        <time>2019-07-11T08:14:18Z</time>
      </trkpt>
      <trkpt lat="48.7987" lon="-3.45007">
        <ele>51.1</ele>
        <time>2019-07-11T08:14:19Z</time>
      </trkpt>
      <trkpt lat="48.7987" lon="-3.4501">
        <ele>51.7</ele>
        <time>2019-07-11T08:14:20Z</time>
      </trkpt>
      <trkpt lat="48.7987" lon="-3.45013">
        <ele>52.1</ele>
        <time>2019-07-11T08:14:21Z</time>
      </trkpt>
      <trkpt lat="48.79871" lon="-3.45017">
        <ele>52.9</ele>
        <time>2019-07-11T08:14:22Z</time>
      </trkpt>
      <trkpt lat="48.79871" lon="-3.45021">
        <ele>53.7</ele>
        <time>2019-07-11T08:14:23Z</time>
      </trkpt>
      <trkpt lat="48.7987" lon="-3.45023">
        <ele>54.3</ele>
        <time>2019-07-11T08:14:24Z</time>
      </trkpt>
      <trkpt lat="48.79869" lon="-3.45026">
        <ele>54.9</ele>
        <time>2019-07-11T08:14:25Z</time>
      </trkpt>
      <trkpt lat="48.79867" lon="-3.4503">
        <ele>55</ele>
        <time>2019-07-11T08:14:26Z</time>
      </trkpt>
      <trkpt lat="48.79866" lon="-3.45034">
        <ele>55.2</ele>
        <time>2019-07-11T08:14:27Z</time>
      </trkpt>
      <trkpt lat="48.79866" lon="-3.45037">
        <ele>55.5</ele>
        <time>2019-07-11T08:14:28Z</time>
      </trkpt>
      <trkpt lat="48.79865" lon="-3.4504">
        <ele>56.1</ele>
        <time>2019-07-11T08:14:29Z</time>
      </trkpt>
      <trkpt lat="48.79865" lon="-3.45043">
        <ele>56.5</ele>
        <time>2019-07-11T08:14:30Z</time>
      </trkpt>
      <trkpt lat="48.79865" lon="-3.45045">
        <ele>56.8</ele>
        <time>2019-07-11T08:14:31Z</time>
      </trkpt>
      <trkpt lat="48.79865" lon="-3.45048">
        <ele>56.9</ele>
        <time>2019-07-11T08:14:32Z</time>
      </trkpt>
      <trkpt lat="48.79864" lon="-3.45051">
        <ele>57</ele>
        <time>2019-07-11T08:14:33Z</time>
      </trkpt>
      <trkpt lat="48.79863" lon="-3.45053">
        <ele>57.2</ele>
        <time>2019-07-11T08:14:34Z</time>
      </trkpt>
      <trkpt lat="48.79862" lon="-3.45056">
        <ele>56.8</ele>
        <time>2019-07-11T08:14:35Z</time>
      </trkpt>
      <trkpt lat="48.79861" lon="-3.45058">
        <ele>56.3</ele>
        <time>2019-07-11T08:14:36Z</time>
      </trkpt>
      <trkpt lat="48.79859" lon="-3.45061">
        <ele>55.9</ele>
        <time>2019-07-11T08:14:37Z</time>
      </trkpt>
      <trkpt lat="48.79858" lon="-3.45064">
        <ele>55.1</ele>
        <time>2019-07-11T08:14:38Z</time>
      </trkpt>
      <trkpt lat="48.79858" lon="-3.45067">
        <ele>54.7</ele>
        <time>2019-07-11T08:14:39Z</time>
      </trkpt>
      <trkpt lat="48.79857" lon="-3.45071">
        <ele>54.3</ele>
        <time>2019-07-11T08:14:40Z</time>
      </trkpt>
      <trkpt lat="48.79856" lon="-3.45074">
        <ele>53.7</ele>
        <time>2019-07-11T08:14:41Z</time>
      </trkpt>
      <trkpt lat="48.79855" lon="-3.45076">
        <ele>53.5</ele>
        <time>2019-07-11T08:14:42Z</time>
      </trkpt>
      <trkpt lat="48.79854" lon="-3.45079">
        <ele>53.4</ele>
        <time>2019-07-11T08:14:43Z</time>
      </trkpt>
      <trkpt lat="48.79853" lon="-3.45081">
        <ele>54.1</ele>
        <time>2019-07-11T08:14:44Z</time>
      </trkpt>
      <trkpt lat="48.79852" lon="-3.45084">
        <ele>54.4</ele>
        <time>2019-07-11T08:14:45Z</time>
      </trkpt>
      <trkpt lat="48.7985" lon="-3.45085">
        <ele>54.8</ele>
        <time>2019-07-11T08:14:46Z</time>
      </trkpt>
      <trkpt lat="48.7985" lon="-3.45087">
        <ele>55.7</ele>
        <time>2019-07-11T08:14:47Z</time>
      </trkpt>
      <trkpt lat="48.79849" lon="-3.4509">
        <ele>56.5</ele>
        <time>2019-07-11T08:14:48Z</time>
      </trkpt>
      <trkpt lat="48.79849" lon="-3.45092">
        <ele>57.4</ele>
        <time>2019-07-11T08:14:49Z</time>
      </trkpt>
      <trkpt lat="48.79849" lon="-3.45095">
        <ele>58.2</ele>
        <time>2019-07-11T08:14:50Z</time>
      </trkpt>
      <trkpt lat="48.79848" lon="-3.45096">
        <ele>59.3</ele>
        <time>2019-07-11T08:14:51Z</time>
      </trkpt>
      <trkpt lat="48.79847" lon="-3.45099">
        <ele>60.2</ele>
        <time>2019-07-11T08:14:52Z</time>
      </trkpt>
      <trkpt lat="48.79846" lon="-3.45102">
        <ele>59.6</ele>
        <time>2019-07-11T08:14:53Z</time>
      </trkpt>
      <trkpt lat="48.79845" lon="-3.45104">
        <ele>59.6</ele>
        <time>2019-07-11T08:14:54Z</time>
      </trkpt>
      <trkpt lat="48.79844" lon="-3.45107">
        <ele>59.5</ele>
        <time>2019-07-11T08:14:55Z</time>
      </trkpt>
      <trkpt lat="48.79842" lon="-3.4511">
        <ele>59.2</ele>
        <time>2019-07-11T08:14:56Z</time>
      </trkpt>
      <trkpt lat="48.79841" lon="-3.45113">
        <ele>58.8</ele>
        <time>2019-07-11T08:14:57Z</time>
      </trkpt>
      <trkpt lat="48.7984" lon="-3.45115">
        <ele>58.9</ele>
        <time>2019-07-11T08:14:58Z</time>
      </trkpt>
      <trkpt lat="48.79839" lon="-3.45118">
        <ele>59.3</ele>
        <time>2019-07-11T08:14:59Z</time>
      </trkpt>
      <trkpt lat="48.79838" lon="-3.4512">
        <ele>59.8</ele>
        <time>2019-07-11T08:15:00Z</time>
      </trkpt>
      <trkpt lat="48.79837" lon="-3.45123">
        <ele>60.2</ele>
        <time>2019-07-11T08:15:01Z</time>
      </trkpt>
      <trkpt lat="48.79836" lon="-3.45125">
        <ele>60.6</ele>
        <time>2019-07-11T08:15:02Z</time>
      </trkpt>
      <trkpt lat="48.79835" lon="-3.45127">
        <ele>61.1</ele>
        <time>2019-07-11T08:15:03Z</time>
      </trkpt>
      <trkpt lat="48.79834" lon="-3.45129">
        <ele>61.6</ele>
        <time>2019-07-11T08:15:04Z</time>
      </trkpt>
      <trkpt lat="48.79834" lon="-3.4513">
        <ele>62</ele>
        <time>2019-07-11T08:15:05Z</time>
      </trkpt>
      <trkpt lat="48.79833" lon="-3.45132">
        <ele>62.2</ele>
        <time>2019-07-11T08:15:06Z</time>
      </trkpt>
      <trkpt lat="48.79832" lon="-3.45133">
        <ele>62.8</ele>
        <time>2019-07-11T08:15:07Z</time>
      </trkpt>
      <trkpt lat="48.79831" lon="-3.45135">
        <ele>63.1</ele>
        <time>2019-07-11T08:15:08Z</time>
      </trkpt>
      <trkpt lat="48.79831" lon="-3.45138">
        <ele>63.7</ele>
        <time>2019-07-11T08:15:09Z</time>
      </trkpt>
      <trkpt lat="48.7983" lon="-3.45141">
        <ele>63.8</ele>
        <time>2019-07-11T08:15:10Z</time>
      </trkpt>
      <trkpt lat="48.79829" lon="-3.45145">
        <ele>63.8</ele>
        <time>2019-07-11T08:15:11Z</time>
      </trkpt>
      <trkpt lat="48.79828" lon="-3.45149">
        <ele>63.4</ele>
        <time>2019-07-11T08:15:12Z</time>
      </trkpt>
      <trkpt lat="48.79827" lon="-3.45154">
        <ele>63.3</ele>
        <time>2019-07-11T08:15:13Z</time>
      </trkpt>
      <trkpt lat="48.79827" lon="-3.45158">
        <ele>62.9</ele>
        <time>2019-07-11T08:15:14Z</time>
      </trkpt>
      <trkpt lat="48.79826" lon="-3.45161">
        <ele>62.9</ele>
        <time>2019-07-11T08:15:15Z</time>
      </trkpt>
      <trkpt lat="48.79825" lon="-3.45164">
        <ele>63.1</ele>
        <time>2019-07-11T08:15:16Z</time>
      </trkpt>
      <trkpt lat="48.79824" lon="-3.45168">
        <ele>63.4</ele>
        <time>2019-07-11T08:15:17Z</time>
      </trkpt>
      <trkpt lat="48.79823" lon="-3.45171">
        <ele>63.4</ele>
        <time>2019-07-11T08:15:18Z</time>
      </trkpt>
      <trkpt lat="48.79821" lon="-3.45175">
        <ele>63.5</ele>
        <time>2019-07-11T08:15:19Z</time>
      </trkpt>
      <trkpt lat="48.7982" lon="-3.45179">
        <ele>63.4</ele>
        <time>2019-07-11T08:15:20Z</time>
      </trkpt>
      <trkpt lat="48.79818" lon="-3.45182">
        <ele>63.3</ele>
        <time>2019-07-11T08:15:21Z</time>
      </trkpt>
      <trkpt lat="48.79817" lon="-3.45186">
        <ele>64</ele>
        <time>2019-07-11T08:15:22Z</time>
      </trkpt>
      <trkpt lat="48.79816" lon="-3.4519">
        <ele>64</ele>
        <time>2019-07-11T08:15:23Z</time>
      </trkpt>
      <trkpt lat="48.79815" lon="-3.45194">
        <ele>63.9</ele>
        <time>2019-07-11T08:15:24Z</time>
      </trkpt>
      <trkpt lat="48.79814" lon="-3.45197">
        <ele>63.6</ele>
        <time>2019-07-11T08:15:25Z</time>
      </trkpt>
      <trkpt lat="48.79812" lon="-3.45201">
        <ele>63.1</ele>
        <time>2019-07-11T08:15:26Z</time>
      </trkpt>
      <trkpt lat="48.79811" lon="-3.45203">
        <ele>62.8</ele>
        <time>2019-07-11T08:15:27Z</time>
      </trkpt>
      <trkpt lat="48.7981" lon="-3.45206">
        <ele>63.3</ele>
        <time>2019-07-11T08:15:28Z</time>
      </trkpt>
      <trkpt lat="48.79809" lon="-3.45208">
        <ele>63.4</ele>
        <time>2019-07-11T08:15:29Z</time>
      </trkpt>
      <trkpt lat="48.79808" lon="-3.45212">
        <ele>63.7</ele>
        <time>2019-07-11T08:15:30Z</time>
      </trkpt>
      <trkpt lat="48.79807" lon="-3.45217">
        <ele>63.5</ele>
        <time>2019-07-11T08:15:31Z</time>
      </trkpt>
      <trkpt lat="48.79805" lon="-3.45219">
        <ele>64.1</ele>
        <time>2019-07-11T08:15:32Z</time>
      </trkpt>
      <trkpt lat="48.79805" lon="-3.45222">
        <ele>65.1</ele>
        <time>2019-07-11T08:15:33Z</time>
      </trkpt>
      <trkpt lat="48.79803" lon="-3.45226">
        <ele>64.8</ele>
        <time>2019-07-11T08:15:34Z</time>
      </trkpt>
      <trkpt lat="48.79801" lon="-3.4523">
        <ele>64.5</ele>
        <time>2019-07-11T08:15:35Z</time>
      </trkpt>
      <trkpt lat="48.798" lon="-3.45234">
        <ele>63.9</ele>
        <time>2019-07-11T08:15:36Z</time>
      </trkpt>
      <trkpt lat="48.79798" lon="-3.45237">
        <ele>63.3</ele>
        <time>2019-07-11T08:15:37Z</time>
      </trkpt>
      <trkpt lat="48.79796" lon="-3.45239">
        <ele>63.1</ele>
        <time>2019-07-11T08:15:38Z</time>
      </trkpt>
      <trkpt lat="48.79794" lon="-3.45242">
        <ele>62.3</ele>
        <time>2019-07-11T08:15:39Z</time>
      </trkpt>
      <trkpt lat="48.79793" lon="-3.45246">
        <ele>62.1</ele>
        <time>2019-07-11T08:15:40Z</time>
      </trkpt>
      <trkpt lat="48.79792" lon="-3.45249">
        <ele>61.9</ele>
        <time>2019-07-11T08:15:41Z</time>
      </trkpt>
      <trkpt lat="48.79789" lon="-3.45252">
        <ele>60.8</ele>
        <time>2019-07-11T08:15:42Z</time>
      </trkpt>
      <trkpt lat="48.79786" lon="-3.45255">
        <ele>60.2</ele>
        <time>2019-07-11T08:15:43Z</time>
      </trkpt>
      <trkpt lat="48.79785" lon="-3.45257">
        <ele>59.9</ele>
        <time>2019-07-11T08:15:44Z</time>
      </trkpt>
      <trkpt lat="48.79783" lon="-3.4526">
        <ele>59.8</ele>
        <time>2019-07-11T08:15:45Z</time>
      </trkpt>
      <trkpt lat="48.79781" lon="-3.45262">
        <ele>59.9</ele>
        <time>2019-07-11T08:15:46Z</time>
      </trkpt>
      <trkpt lat="48.7978" lon="-3.45266">
        <ele>59.9</ele>
        <time>2019-07-11T08:15:47Z</time>
      </trkpt>
      <trkpt lat="48.79778" lon="-3.45269">
        <ele>60</ele>
        <time>2019-07-11T08:15:48Z</time>
      </trkpt>
      <trkpt lat="48.79776" lon="-3.45273">
        <ele>60.6</ele>
        <time>2019-07-11T08:15:49Z</time>
      </trkpt>
      <trkpt lat="48.79775" lon="-3.45278">
        <ele>61.1</ele>
        <time>2019-07-11T08:15:50Z</time>
      </trkpt>
      <trkpt lat="48.79773" lon="-3.45282">
        <ele>61.2</ele>
        <time>2019-07-11T08:15:51Z</time>
      </trkpt>
      <trkpt lat="48.79772" lon="-3.45286">
        <ele>61.2</ele>
        <time>2019-07-11T08:15:52Z</time>
      </trkpt>
      <trkpt lat="48.79771" lon="-3.45291">
        <ele>61.7</ele>
        <time>2019-07-11T08:15:53Z</time>
      </trkpt>
      <trkpt lat="48.79771" lon="-3.45293">
        <ele>62.9</ele>
        <time>2019-07-11T08:15:54Z</time>
      </trkpt>
      <trkpt lat="48.7977" lon="-3.45296">
        <ele>63.1</ele>
        <time>2019-07-11T08:15:55Z</time>
      </trkpt>
      <trkpt lat="48.79768" lon="-3.453">
        <ele>63.2</ele>
        <time>2019-07-11T08:15:56Z</time>
      </trkpt>
      <trkpt lat="48.79766" lon="-3.45303">
        <ele>63.2</ele>
        <time>2019-07-11T08:15:57Z</time>
      </trkpt>
      <trkpt lat="48.79765" lon="-3.45306">
        <ele>63.2</ele>
        <time>2019-07-11T08:15:58Z</time>
      </trkpt>
      <trkpt lat="48.79762" lon="-3.45309">
        <ele>63.1</ele>
        <time>2019-07-11T08:15:59Z</time>
      </trkpt>
      <trkpt lat="48.79759" lon="-3.45313">
        <ele>62.8</ele>
        <time>2019-07-11T08:16:00Z</time>
      </trkpt>
      <trkpt lat="48.79757" lon="-3.45317">
        <ele>62.4</ele>
        <time>2019-07-11T08:16:01Z</time>
      </trkpt>
      <trkpt lat="48.79755" lon="-3.45321">
        <ele>62</ele>
        <time>2019-07-11T08:16:02Z</time>
      </trkpt>
      <trkpt lat="48.79753" lon="-3.45325">
        <ele>61.2</ele>
        <time>2019-07-11T08:16:03Z</time>
      </trkpt>
      <trkpt lat="48.79752" lon="-3.45329">
        <ele>60.8</ele>
        <time>2019-07-11T08:16:04Z</time>
      </trkpt>
      <trkpt lat="48.7975" lon="-3.45333">
        <ele>60.4</ele>
        <time>2019-07-11T08:16:05Z</time>
      </trkpt>
      <trkpt lat="48.79748" lon="-3.45336">
        <ele>59.8</ele>
        <time>2019-07-11T08:16:06Z</time>
      </trkpt>
      <trkpt lat="48.79746" lon="-3.45339">
        <ele>58.9</ele>
        <time>2019-07-11T08:16:07Z</time>
      </trkpt>
      <trkpt lat="48.79744" lon="-3.45343">
        <ele>58</ele>
        <time>2019-07-11T08:16:08Z</time>
      </trkpt>
      <trkpt lat="48.79741" lon="-3.45346">
        <ele>57.6</ele>
        <time>2019-07-11T08:16:09Z</time>
      </trkpt>
      <trkpt lat="48.79739" lon="-3.4535">
        <ele>58.2</ele>
        <time>2019-07-11T08:16:10Z</time>
      </trkpt>
      <trkpt lat="48.79738" lon="-3.45353">
        <ele>58.2</ele>
        <time>2019-07-11T08:16:11Z</time>
      </trkpt>
      <trkpt lat="48.79736" lon="-3.45357">
        <ele>57.9</ele>
        <time>2019-07-11T08:16:12Z</time>
      </trkpt>
      <trkpt lat="48.79734" lon="-3.4536">
        <ele>58.4</ele>
        <time>2019-07-11T08:16:13Z</time>
      </trkpt>
      <trkpt lat="48.79732" lon="-3.45364">
        <ele>58.7</ele>
        <time>2019-07-11T08:16:14Z</time>
      </trkpt>
      <trkpt lat="48.7973" lon="-3.45367">
        <ele>58.8</ele>
        <time>2019-07-11T08:16:15Z</time>
      </trkpt>
      <trkpt lat="48.79728" lon="-3.45371">
        <ele>58.7</ele>
        <time>2019-07-11T08:16:16Z</time>
      </trkpt>
      <trkpt lat="48.79726" lon="-3.45374">
        <ele>58.6</ele>
        <time>2019-07-11T08:16:17Z</time>
      </trkpt>
      <trkpt lat="48.79724" lon="-3.45378">
        <ele>58.5</ele>
        <time>2019-07-11T08:16:18Z</time>
      </trkpt>
      <trkpt lat="48.79722" lon="-3.45381">
        <ele>58.3</ele>
        <time>2019-07-11T08:16:19Z</time>
      </trkpt>
      <trkpt lat="48.7972" lon="-3.45385">
        <ele>58.2</ele>
        <time>2019-07-11T08:16:20Z</time>
      </trkpt>
      <trkpt lat="48.79718" lon="-3.45388">
        <ele>57.9</ele>
        <time>2019-07-11T08:16:21Z</time>
      </trkpt>
      <trkpt lat="48.79717" lon="-3.45391">
        <ele>57.6</ele>
        <time>2019-07-11T08:16:22Z</time>
      </trkpt>
      <trkpt lat="48.79716" lon="-3.45395">
        <ele>57.6</ele>
        <time>2019-07-11T08:16:23Z</time>
      </trkpt>
      <trkpt lat="48.79714" lon="-3.45398">
        <ele>57.8</ele>
        <time>2019-07-11T08:16:24Z</time>
      </trkpt>
      <trkpt lat="48.79712" lon="-3.45402">
        <ele>57.6</ele>
        <time>2019-07-11T08:16:25Z</time>
      </trkpt>
      <trkpt lat="48.7971" lon="-3.45405">
        <ele>57.7</ele>
        <time>2019-07-11T08:16:26Z</time>
      </trkpt>
      <trkpt lat="48.79709" lon="-3.45408">
        <ele>57.6</ele>
        <time>2019-07-11T08:16:27Z</time>
      </trkpt>
      <trkpt lat="48.79707" lon="-3.45412">
        <ele>57.6</ele>
        <time>2019-07-11T08:16:28Z</time>
      </trkpt>
      <trkpt lat="48.79705" lon="-3.45416">
        <ele>57.4</ele>
        <time>2019-07-11T08:16:29Z</time>
      </trkpt>
      <trkpt lat="48.79704" lon="-3.4542">
        <ele>57.1</ele>
        <time>2019-07-11T08:16:30Z</time>
      </trkpt>
      <trkpt lat="48.79702" lon="-3.45423">
        <ele>56.7</ele>
        <time>2019-07-11T08:16:31Z</time>
      </trkpt>
      <trkpt lat="48.79702" lon="-3.45426">
        <ele>56.9</ele>
        <time>2019-07-11T08:16:32Z</time>
      </trkpt>
      <trkpt lat="48.79701" lon="-3.4543">
        <ele>57.2</ele>
        <time>2019-07-11T08:16:33Z</time>
      </trkpt>
      <trkpt lat="48.79702" lon="-3.45434">
        <ele>57.8</ele>
        <time>2019-07-11T08:16:34Z</time>
      </trkpt>
      <trkpt lat="48.79702" lon="-3.45437">
        <ele>58.2</ele>
        <time>2019-07-11T08:16:35Z</time>
      </trkpt>
      <trkpt lat="48.79702" lon="-3.45441">
        <ele>58.3</ele>
        <time>2019-07-11T08:16:36Z</time>
      </trkpt>
      <trkpt lat="48.79704" lon="-3.45445">
        <ele>58</ele>
        <time>2019-07-11T08:16:37Z</time>
      </trkpt>
      <trkpt lat="48.79705" lon="-3.45447">
        <ele>58.2</ele>
        <time>2019-07-11T08:16:38Z</time>
      </trkpt>
      <trkpt lat="48.79706" lon="-3.45451">
        <ele>58.7</ele>
        <time>2019-07-11T08:16:39Z</time>
      </trkpt>
      <trkpt lat="48.79707" lon="-3.45455">
        <ele>59.2</ele>
        <time>2019-07-11T08:16:40Z</time>
      </trkpt>
      <trkpt lat="48.79708" lon="-3.45459">
        <ele>59.7</ele>
        <time>2019-07-11T08:16:41Z</time>
      </trkpt>
      <trkpt lat="48.79709" lon="-3.45463">
        <ele>60.2</ele>
        <time>2019-07-11T08:16:42Z</time>
      </trkpt>
      <trkpt lat="48.7971" lon="-3.45467">
        <ele>60.6</ele>
        <time>2019-07-11T08:16:43Z</time>
      </trkpt>
      <trkpt lat="48.79712" lon="-3.45472">
        <ele>60.8</ele>
        <time>2019-07-11T08:16:44Z</time>
      </trkpt>
      <trkpt lat="48.79713" lon="-3.45476">
        <ele>61.1</ele>
        <time>2019-07-11T08:16:45Z</time>
      </trkpt>
      <trkpt lat="48.79714" lon="-3.45479">
        <ele>61.8</ele>
        <time>2019-07-11T08:16:46Z</time>
      </trkpt>
      <trkpt lat="48.79714" lon="-3.45484">
        <ele>61.7</ele>
        <time>2019-07-11T08:16:47Z</time>
      </trkpt>
      <trkpt lat="48.79716" lon="-3.45487">
        <ele>62.5</ele>
        <time>2019-07-11T08:16:48Z</time>
      </trkpt>
      <trkpt lat="48.79718" lon="-3.45491">
        <ele>63.5</ele>
        <time>2019-07-11T08:16:49Z</time>
      </trkpt>
      <trkpt lat="48.79721" lon="-3.45495">
        <ele>63.7</ele>
        <time>2019-07-11T08:16:50Z</time>
      </trkpt>
      <trkpt lat="48.79722" lon="-3.45498">
        <ele>64</ele>
        <time>2019-07-11T08:16:51Z</time>
      </trkpt>
      <trkpt lat="48.79723" lon="-3.45502">
        <ele>64.4</ele>
        <time>2019-07-11T08:16:52Z</time>
      </trkpt>
      <trkpt lat="48.79724" lon="-3.45506">
        <ele>64.8</ele>
        <time>2019-07-11T08:16:53Z</time>
      </trkpt>
      <trkpt lat="48.79725" lon="-3.4551">
        <ele>65.4</ele>
        <time>2019-07-11T08:16:54Z</time>
      </trkpt>
      <trkpt lat="48.79726" lon="-3.45514">
        <ele>66</ele>
        <time>2019-07-11T08:16:55Z</time>
      </trkpt>
      <trkpt lat="48.79727" lon="-3.45518">
        <ele>66.4</ele>
        <time>2019-07-11T08:16:56Z</time>
      </trkpt>
      <trkpt lat="48.79729" lon="-3.45522">
        <ele>66.6</ele>
        <time>2019-07-11T08:16:57Z</time>
      </trkpt>
      <trkpt lat="48.7973" lon="-3.45527">
        <ele>66.4</ele>
        <time>2019-07-11T08:16:58Z</time>
      </trkpt>
      <trkpt lat="48.79731" lon="-3.45531">
        <ele>66.3</ele>
        <time>2019-07-11T08:16:59Z</time>
      </trkpt>
      <trkpt lat="48.79733" lon="-3.45536">
        <ele>66.4</ele>
        <time>2019-07-11T08:17:00Z</time>
      </trkpt>
      <trkpt lat="48.79736" lon="-3.45551">
        <ele>66.2</ele>
        <time>2019-07-11T08:17:03Z</time>
      </trkpt>
      <trkpt lat="48.79736" lon="-3.45556">
        <ele>65.9</ele>
        <time>2019-07-11T08:17:04Z</time>
      </trkpt>
      <trkpt lat="48.79737" lon="-3.4556">
        <ele>66</ele>
        <time>2019-07-11T08:17:05Z</time>
      </trkpt>
      <trkpt lat="48.79738" lon="-3.45564">
        <ele>66.3</ele>
        <time>2019-07-11T08:17:06Z</time>
      </trkpt>
      <trkpt lat="48.79739" lon="-3.45568">
        <ele>65.9</ele>
        <time>2019-07-11T08:17:07Z</time>
      </trkpt>
      <trkpt lat="48.7974" lon="-3.45573">
        <ele>65.6</ele>
        <time>2019-07-11T08:17:08Z</time>
      </trkpt>
      <trkpt lat="48.79741" lon="-3.45577">
        <ele>65.7</ele>
        <time>2019-07-11T08:17:09Z</time>
      </trkpt>
      <trkpt lat="48.79742" lon="-3.45583">
        <ele>65.2</ele>
        <time>2019-07-11T08:17:10Z</time>
      </trkpt>
      <trkpt lat="48.79742" lon="-3.45588">
        <ele>64.6</ele>
        <time>2019-07-11T08:17:11Z</time>
      </trkpt>
      <trkpt lat="48.79742" lon="-3.45594">
        <ele>63.9</ele>
        <time>2019-07-11T08:17:12Z</time>
      </trkpt>
      <trkpt lat="48.79743" lon="-3.45599">
        <ele>63.6</ele>
        <time>2019-07-11T08:17:13Z</time>
      </trkpt>
      <trkpt lat="48.79743" lon="-3.45604">
        <ele>63.3</ele>
        <time>2019-07-11T08:17:14Z</time>
      </trkpt>
      <trkpt lat="48.79743" lon="-3.45609">
        <ele>63.8</ele>
        <time>2019-07-11T08:17:15Z</time>
      </trkpt>
      <trkpt lat="48.79744" lon="-3.45614">
        <ele>64.6</ele>
        <time>2019-07-11T08:17:16Z</time>
      </trkpt>
      <trkpt lat="48.79745" lon="-3.45619">
        <ele>65.3</ele>
        <time>2019-07-11T08:17:17Z</time>
      </trkpt>
      <trkpt lat="48.79746" lon="-3.45625">
        <ele>66.1</ele>
        <time>2019-07-11T08:17:18Z</time>
      </trkpt>
      <trkpt lat="48.79747" lon="-3.4563">
        <ele>66.3</ele>
        <time>2019-07-11T08:17:19Z</time>
      </trkpt>
      <trkpt lat="48.79748" lon="-3.45635">
        <ele>66.3</ele>
        <time>2019-07-11T08:17:20Z</time>
      </trkpt>
      <trkpt lat="48.79749" lon="-3.4564">
        <ele>65.2</ele>
        <time>2019-07-11T08:17:21Z</time>
      </trkpt>
      <trkpt lat="48.7975" lon="-3.45645">
        <ele>64.8</ele>
        <time>2019-07-11T08:17:22Z</time>
      </trkpt>
      <trkpt lat="48.79751" lon="-3.45651">
        <ele>64.4</ele>
        <time>2019-07-11T08:17:23Z</time>
      </trkpt>
      <trkpt lat="48.79752" lon="-3.45656">
        <ele>64.4</ele>
        <time>2019-07-11T08:17:24Z</time>
      </trkpt>
      <trkpt lat="48.79754" lon="-3.4566">
        <ele>64.4</ele>
        <time>2019-07-11T08:17:25Z</time>
      </trkpt>
      <trkpt lat="48.79754" lon="-3.45665">
        <ele>64.2</ele>
        <time>2019-07-11T08:17:26Z</time>
      </trkpt>
      <trkpt lat="48.79755" lon="-3.45669">
        <ele>63.9</ele>
        <time>2019-07-11T08:17:27Z</time>
      </trkpt>
      <trkpt lat="48.79755" lon="-3.45673">
        <ele>63.9</ele>
        <time>2019-07-11T08:17:28Z</time>
      </trkpt>
      <trkpt lat="48.79755" lon="-3.45676">
        <ele>63.8</ele>
        <time>2019-07-11T08:17:29Z</time>
      </trkpt>
      <trkpt lat="48.79755" lon="-3.45678">
        <ele>63.7</ele>
        <time>2019-07-11T08:17:30Z</time>
      </trkpt>
      <trkpt lat="48.79755" lon="-3.4568">
        <ele>63.5</ele>
        <time>2019-07-11T08:17:31Z</time>
      </trkpt>
      <trkpt lat="48.79756" lon="-3.45682">
        <ele>63.4</ele>
        <time>2019-07-11T08:17:32Z</time>
      </trkpt>
      <trkpt lat="48.79757" lon="-3.45684">
        <ele>63.1</ele>
        <time>2019-07-11T08:17:33Z</time>
      </trkpt>
      <trkpt lat="48.79758" lon="-3.45685">
        <ele>62.5</ele>
        <time>2019-07-11T08:17:34Z</time>
      </trkpt>
      <trkpt lat="48.7976" lon="-3.45686">
        <ele>62.4</ele>
        <time>2019-07-11T08:17:35Z</time>
      </trkpt>
      <trkpt lat="48.79763" lon="-3.45685">
        <ele>62.3</ele>
        <time>2019-07-11T08:17:36Z</time>
      </trkpt>
      <trkpt lat="48.79766" lon="-3.45684">
        <ele>62</ele>
        <time>2019-07-11T08:17:37Z</time>
      </trkpt>
      <trkpt lat="48.79768" lon="-3.45683">
        <ele>62</ele>
        <time>2019-07-11T08:17:38Z</time>
      </trkpt>
      <trkpt lat="48.79771" lon="-3.45682">
        <ele>61.7</ele>
        <time>2019-07-11T08:17:39Z</time>
      </trkpt>
      <trkpt lat="48.79773" lon="-3.4568">
        <ele>61.5</ele>
        <time>2019-07-11T08:17:40Z</time>
      </trkpt>
      <trkpt lat="48.79775" lon="-3.45678">
        <ele>61.2</ele>
        <time>2019-07-11T08:17:41Z</time>
      </trkpt>
      <trkpt lat="48.79778" lon="-3.45677">
        <ele>60.7</ele>
        <time>2019-07-11T08:17:42Z</time>
      </trkpt>
      <trkpt lat="48.79781" lon="-3.45677">
        <ele>60.1</ele>
        <time>2019-07-11T08:17:43Z</time>
      </trkpt>
      <trkpt lat="48.79785" lon="-3.45679">
        <ele>60.2</ele>
        <time>2019-07-11T08:17:44Z</time>
      </trkpt>
      <trkpt lat="48.79788" lon="-3.45683">
        <ele>59.9</ele>
        <time>2019-07-11T08:17:45Z</time>
      </trkpt>
      <trkpt lat="48.79789" lon="-3.45688">
        <ele>60</ele>
        <time>2019-07-11T08:17:46Z</time>
      </trkpt>
      <trkpt lat="48.79791" lon="-3.45694">
        <ele>59.7</ele>
        <time>2019-07-11T08:17:47Z</time>
      </trkpt>
      <trkpt lat="48.79792" lon="-3.457">
        <ele>59.3</ele>
        <time>2019-07-11T08:17:48Z</time>
      </trkpt>
      <trkpt lat="48.79793" lon="-3.45705">
        <ele>59.2</ele>
        <time>2019-07-11T08:17:49Z</time>
      </trkpt>
      <trkpt lat="48.79794" lon="-3.45711">
        <ele>59.2</ele>
        <time>2019-07-11T08:17:50Z</time>
      </trkpt>
      <trkpt lat="48.79796" lon="-3.45716">
        <ele>59.1</ele>
        <time>2019-07-11T08:17:51Z</time>
      </trkpt>
      <trkpt lat="48.79797" lon="-3.45721">
        <ele>58.9</ele>
        <time>2019-07-11T08:17:52Z</time>
      </trkpt>
      <trkpt lat="48.79799" lon="-3.45725">
        <ele>58.7</ele>
        <time>2019-07-11T08:17:53Z</time>
      </trkpt>
      <trkpt lat="48.79801" lon="-3.45729">
        <ele>58.6</ele>
        <time>2019-07-11T08:17:54Z</time>
      </trkpt>
      <trkpt lat="48.79804" lon="-3.45732">
        <ele>58.7</ele>
        <time>2019-07-11T08:17:55Z</time>
      </trkpt>
      <trkpt lat="48.79806" lon="-3.45735">
        <ele>58.7</ele>
        <time>2019-07-11T08:17:56Z</time>
      </trkpt>
      <trkpt lat="48.79808" lon="-3.45739">
        <ele>58.4</ele>
        <time>2019-07-11T08:17:57Z</time>
      </trkpt>
      <trkpt lat="48.7981" lon="-3.45744">
        <ele>58.3</ele>
        <time>2019-07-11T08:17:58Z</time>
      </trkpt>
      <trkpt lat="48.79811" lon="-3.45749">
        <ele>58.1</ele>
        <time>2019-07-11T08:17:59Z</time>
      </trkpt>
      <trkpt lat="48.79813" lon="-3.45754">
        <ele>58.2</ele>
        <time>2019-07-11T08:18:00Z</time>
      </trkpt>
      <trkpt lat="48.79815" lon="-3.45758">
        <ele>59</ele>
        <time>2019-07-11T08:18:01Z</time>
      </trkpt>
      <trkpt lat="48.79816" lon="-3.45763">
        <ele>59.4</ele>
        <time>2019-07-11T08:18:02Z</time>
      </trkpt>
      <trkpt lat="48.79817" lon="-3.45768">
        <ele>59.6</ele>
        <time>2019-07-11T08:18:03Z</time>
      </trkpt>
      <trkpt lat="48.79818" lon="-3.45773">
        <ele>59.8</ele>
        <time>2019-07-11T08:18:04Z</time>
      </trkpt>
      <trkpt lat="48.7982" lon="-3.45777">
        <ele>59.5</ele>
        <time>2019-07-11T08:18:05Z</time>
      </trkpt>
      <trkpt lat="48.79821" lon="-3.45781">
        <ele>59.5</ele>
        <time>2019-07-11T08:18:06Z</time>
      </trkpt>
      <trkpt lat="48.79821" lon="-3.45785">
        <ele>59.4</ele>
        <time>2019-07-11T08:18:07Z</time>
      </trkpt>
      <trkpt lat="48.79822" lon="-3.45789">
        <ele>59.2</ele>
        <time>2019-07-11T08:18:08Z</time>
      </trkpt>
      <trkpt lat="48.79824" lon="-3.45793">
        <ele>59.1</ele>
        <time>2019-07-11T08:18:09Z</time>
      </trkpt>
      <trkpt lat="48.79826" lon="-3.45796">
        <ele>59.3</ele>
        <time>2019-07-11T08:18:10Z</time>
      </trkpt>
      <trkpt lat="48.79827" lon="-3.45799">
        <ele>59.4</ele>
        <time>2019-07-11T08:18:11Z</time>
      </trkpt>
      <trkpt lat="48.79829" lon="-3.45802">
        <ele>59.2</ele>
        <time>2019-07-11T08:18:12Z</time>
      </trkpt>
      <trkpt lat="48.7983" lon="-3.45804">
        <ele>59.3</ele>
        <time>2019-07-11T08:18:13Z</time>
      </trkpt>
      <trkpt lat="48.79831" lon="-3.45807">
        <ele>58.9</ele>
        <time>2019-07-11T08:18:14Z</time>
      </trkpt>
      <trkpt lat="48.79833" lon="-3.45809">
        <ele>59</ele>
        <time>2019-07-11T08:18:15Z</time>
      </trkpt>
      <trkpt lat="48.79834" lon="-3.4581">
        <ele>59</ele>
        <time>2019-07-11T08:18:16Z</time>
      </trkpt>
      <trkpt lat="48.79835" lon="-3.45812">
        <ele>59</ele>
        <time>2019-07-11T08:18:17Z</time>
      </trkpt>
      <trkpt lat="48.79836" lon="-3.45815">
        <ele>58.9</ele>
        <time>2019-07-11T08:18:18Z</time>
      </trkpt>
      <trkpt lat="48.79837" lon="-3.45818">
        <ele>59</ele>
        <time>2019-07-11T08:18:19Z</time>
      </trkpt>
      <trkpt lat="48.79838" lon="-3.45821">
        <ele>58.7</ele>
        <time>2019-07-11T08:18:20Z</time>
      </trkpt>
      <trkpt lat="48.7984" lon="-3.45824">
        <ele>58.6</ele>
        <time>2019-07-11T08:18:21Z</time>
      </trkpt>
      <trkpt lat="48.79842" lon="-3.45826">
        <ele>58.7</ele>
        <time>2019-07-11T08:18:22Z</time>
      </trkpt>
      <trkpt lat="48.79844" lon="-3.45829">
        <ele>58.5</ele>
        <time>2019-07-11T08:18:23Z</time>
      </trkpt>
      <trkpt lat="48.79846" lon="-3.45831">
        <ele>58.1</ele>
        <time>2019-07-11T08:18:24Z</time>
      </trkpt>
      <trkpt lat="48.79848" lon="-3.45834">
        <ele>58.2</ele>
        <time>2019-07-11T08:18:25Z</time>
      </trkpt>
      <trkpt lat="48.7985" lon="-3.45836">
        <ele>58.7</ele>
        <time>2019-07-11T08:18:26Z</time>
      </trkpt>
      <trkpt lat="48.79851" lon="-3.45838">
        <ele>59.1</ele>
        <time>2019-07-11T08:18:27Z</time>
      </trkpt>
      <trkpt lat="48.79853" lon="-3.4584">
        <ele>59.6</ele>
        <time>2019-07-11T08:18:28Z</time>
      </trkpt>
      <trkpt lat="48.79855" lon="-3.45842">
        <ele>59.9</ele>
        <time>2019-07-11T08:18:29Z</time>
      </trkpt>
      <trkpt lat="48.79857" lon="-3.45844">
        <ele>60.7</ele>
        <time>2019-07-11T08:18:30Z</time>
      </trkpt>
      <trkpt lat="48.79858" lon="-3.45845">
        <ele>61.4</ele>
        <time>2019-07-11T08:18:31Z</time>
      </trkpt>
      <trkpt lat="48.7986" lon="-3.45847">
        <ele>61.4</ele>
        <time>2019-07-11T08:18:32Z</time>
      </trkpt>
      <trkpt lat="48.79862" lon="-3.45849">
        <ele>61.9</ele>
        <time>2019-07-11T08:18:33Z</time>
      </trkpt>
      <trkpt lat="48.79863" lon="-3.45851">
        <ele>62.8</ele>
        <time>2019-07-11T08:18:34Z</time>
      </trkpt>
      <trkpt lat="48.79865" lon="-3.45853">
        <ele>62.3</ele>
        <time>2019-07-11T08:18:35Z</time>
      </trkpt>
      <trkpt lat="48.79866" lon="-3.45855">
        <ele>62.3</ele>
        <time>2019-07-11T08:18:36Z</time>
      </trkpt>
      <trkpt lat="48.79868" lon="-3.45857">
        <ele>62.8</ele>
        <time>2019-07-11T08:18:37Z</time>
      </trkpt>
      <trkpt lat="48.79869" lon="-3.45858">
        <ele>63.2</ele>
        <time>2019-07-11T08:18:38Z</time>
      </trkpt>
      <trkpt lat="48.79871" lon="-3.4586">
        <ele>63.2</ele>
        <time>2019-07-11T08:18:39Z</time>
      </trkpt>
      <trkpt lat="48.79873" lon="-3.45862">
        <ele>63.6</ele>
        <time>2019-07-11T08:18:40Z</time>
      </trkpt>
      <trkpt lat="48.79874" lon="-3.45864">
        <ele>63.7</ele>
        <time>2019-07-11T08:18:41Z</time>
      </trkpt>
      <trkpt lat="48.79876" lon="-3.45867">
        <ele>63.8</ele>
        <time>2019-07-11T08:18:42Z</time>
      </trkpt>
      <trkpt lat="48.79878" lon="-3.45869">
        <ele>63.8</ele>
        <time>2019-07-11T08:18:43Z</time>
      </trkpt>
      <trkpt lat="48.79879" lon="-3.45871">
        <ele>64.2</ele>
        <time>2019-07-11T08:18:44Z</time>
      </trkpt>
      <trkpt lat="48.79881" lon="-3.45872">
        <ele>64.5</ele>
        <time>2019-07-11T08:18:45Z</time>
      </trkpt>
      <trkpt lat="48.79882" lon="-3.45874">
        <ele>65</ele>
        <time>2019-07-11T08:18:46Z</time>
      </trkpt>
      <trkpt lat="48.79883" lon="-3.45876">
        <ele>65.8</ele>
        <time>2019-07-11T08:18:47Z</time>
      </trkpt>
      <trkpt lat="48.79885" lon="-3.45878">
        <ele>66.3</ele>
        <time>2019-07-11T08:18:48Z</time>
      </trkpt>
      <trkpt lat="48.79886" lon="-3.45879">
        <ele>66.7</ele>
        <time>2019-07-11T08:18:49Z</time>
      </trkpt>
      <trkpt lat="48.79888" lon="-3.45881">
        <ele>66.9</ele>
        <time>2019-07-11T08:18:50Z</time>
      </trkpt>
      <trkpt lat="48.7989" lon="-3.45883">
        <ele>67.5</ele>
        <time>2019-07-11T08:18:51Z</time>
      </trkpt>
      <trkpt lat="48.79891" lon="-3.45885">
        <ele>67.9</ele>
        <time>2019-07-11T08:18:52Z</time>
      </trkpt>
      <trkpt lat="48.79892" lon="-3.45887">
        <ele>68.2</ele>
        <time>2019-07-11T08:18:53Z</time>
      </trkpt>
      <trkpt lat="48.79894" lon="-3.45889">
        <ele>68.7</ele>
        <time>2019-07-11T08:18:54Z</time>
      </trkpt>
      <trkpt lat="48.79895" lon="-3.45891">
        <ele>69</ele>
        <time>2019-07-11T08:18:55Z</time>
      </trkpt>
      <trkpt lat="48.79896" lon="-3.45892">
        <ele>69.1</ele>
        <time>2019-07-11T08:18:56Z</time>
      </trkpt>
      <trkpt lat="48.79898" lon="-3.45894">
        <ele>69.1</ele>
        <time>2019-07-11T08:18:57Z</time>
      </trkpt>
      <trkpt lat="48.79899" lon="-3.45896">
        <ele>69.2</ele>
        <time>2019-07-11T08:18:58Z</time>
      </trkpt>
      <trkpt lat="48.799" lon="-3.45897">
        <ele>69.5</ele>
        <time>2019-07-11T08:18:59Z</time>
      </trkpt>
      <trkpt lat="48.79901" lon="-3.45899">
        <ele>69.9</ele>
        <time>2019-07-11T08:19:00Z</time>
      </trkpt>
      <trkpt lat="48.79902" lon="-3.45901">
        <ele>70</ele>
        <time>2019-07-11T08:19:01Z</time>
      </trkpt>
      <trkpt lat="48.79904" lon="-3.45903">
        <ele>69.6</ele>
        <time>2019-07-11T08:19:02Z</time>
      </trkpt>
      <trkpt lat="48.79905" lon="-3.45904">
        <ele>69.8</ele>
        <time>2019-07-11T08:19:03Z</time>
      </trkpt>
      <trkpt lat="48.79905" lon="-3.45906">
        <ele>70.3</ele>
        <time>2019-07-11T08:19:04Z</time>
      </trkpt>
      <trkpt lat="48.79907" lon="-3.45908">
        <ele>70.4</ele>
        <time>2019-07-11T08:19:05Z</time>
      </trkpt>
      <trkpt lat="48.79908" lon="-3.45909">
        <ele>70.7</ele>
        <time>2019-07-11T08:19:06Z</time>
      </trkpt>
      <trkpt lat="48.7991" lon="-3.45912">
        <ele>71</ele>
        <time>2019-07-11T08:19:07Z</time>
      </trkpt>
      <trkpt lat="48.79911" lon="-3.45914">
        <ele>71.2</ele>
        <time>2019-07-11T08:19:08Z</time>
      </trkpt>
      <trkpt lat="48.79913" lon="-3.45916">
        <ele>71.4</ele>
        <time>2019-07-11T08:19:09Z</time>
      </trkpt>
      <trkpt lat="48.79914" lon="-3.45919">
        <ele>71.6</ele>
        <time>2019-07-11T08:19:10Z</time>
      </trkpt>
      <trkpt lat="48.79915" lon="-3.45922">
        <ele>72</ele>
        <time>2019-07-11T08:19:11Z</time>
      </trkpt>
      <trkpt lat="48.79916" lon="-3.45925">
        <ele>72.1</ele>
        <time>2019-07-11T08:19:12Z</time>
      </trkpt>
      <trkpt lat="48.79917" lon="-3.45928">
        <ele>72.8</ele>
        <time>2019-07-11T08:19:13Z</time>
      </trkpt>
      <trkpt lat="48.79917" lon="-3.45931">
        <ele>72.8</ele>
        <time>2019-07-11T08:19:14Z</time>
      </trkpt>
      <trkpt lat="48.79917" lon="-3.45935">
        <ele>73</ele>
        <time>2019-07-11T08:19:15Z</time>
      </trkpt>
      <trkpt lat="48.79918" lon="-3.45938">
        <ele>73.5</ele>
        <time>2019-07-11T08:19:16Z</time>
      </trkpt>
      <trkpt lat="48.79918" lon="-3.45941">
        <ele>74</ele>
        <time>2019-07-11T08:19:17Z</time>
      </trkpt>
      <trkpt lat="48.79918" lon="-3.45944">
        <ele>74.4</ele>
        <time>2019-07-11T08:19:18Z</time>
      </trkpt>
      <trkpt lat="48.79918" lon="-3.45947">
        <ele>74.8</ele>
        <time>2019-07-11T08:19:19Z</time>
      </trkpt>
      <trkpt lat="48.79918" lon="-3.4595">
        <ele>74.8</ele>
        <time>2019-07-11T08:19:20Z</time>
      </trkpt>
      <trkpt lat="48.79918" lon="-3.45953">
        <ele>74.8</ele>
        <time>2019-07-11T08:19:21Z</time>
      </trkpt>
      <trkpt lat="48.79918" lon="-3.45956">
        <ele>75.1</ele>
        <time>2019-07-11T08:19:22Z</time>
      </trkpt>
      <trkpt lat="48.79918" lon="-3.4596">
        <ele>75.4</ele>
        <time>2019-07-11T08:19:23Z</time>
      </trkpt>
      <trkpt lat="48.79919" lon="-3.45963">
        <ele>75</ele>
        <time>2019-07-11T08:19:24Z</time>
      </trkpt>
      <trkpt lat="48.79919" lon="-3.45966">
        <ele>74.3</ele>
        <time>2019-07-11T08:19:25Z</time>
      </trkpt>
      <trkpt lat="48.7992" lon="-3.45969">
        <ele>74.2</ele>
        <time>2019-07-11T08:19:26Z</time>
      </trkpt>
      <trkpt lat="48.7992" lon="-3.45972">
        <ele>74.3</ele>
        <time>2019-07-11T08:19:27Z</time>
      </trkpt>
      <trkpt lat="48.79921" lon="-3.45975">
        <ele>74.3</ele>
        <time>2019-07-11T08:19:28Z</time>
      </trkpt>
      <trkpt lat="48.79921" lon="-3.45979">
        <ele>74.4</ele>
        <time>2019-07-11T08:19:29Z</time>
      </trkpt>
      <trkpt lat="48.79921" lon="-3.45982">
        <ele>74.5</ele>
        <time>2019-07-11T08:19:30Z</time>
      </trkpt>
      <trkpt lat="48.79922" lon="-3.45984">
        <ele>74.7</ele>
        <time>2019-07-11T08:19:31Z</time>
      </trkpt>
      <trkpt lat="48.79923" lon="-3.45987">
        <ele>74.9</ele>
        <time>2019-07-11T08:19:32Z</time>
      </trkpt>
      <trkpt lat="48.79923" lon="-3.45991">
        <ele>75.1</ele>
        <time>2019-07-11T08:19:33Z</time>
      </trkpt>
      <trkpt lat="48.79924" lon="-3.45994">
        <ele>75.1</ele>
        <time>2019-07-11T08:19:34Z</time>
      </trkpt>
      <trkpt lat="48.79924" lon="-3.45997">
        <ele>75.4</ele>
        <time>2019-07-11T08:19:35Z</time>
      </trkpt>
      <trkpt lat="48.79923" lon="-3.46">
        <ele>75.3</ele>
        <time>2019-07-11T08:19:36Z</time>
      </trkpt>
      <trkpt lat="48.79924" lon="-3.46003">
        <ele>75.2</ele>
        <time>2019-07-11T08:19:37Z</time>
      </trkpt>
      <trkpt lat="48.79924" lon="-3.46006">
        <ele>74.6</ele>
        <time>2019-07-11T08:19:38Z</time>
      </trkpt>
      <trkpt lat="48.79924" lon="-3.46009">
        <ele>74.7</ele>
        <time>2019-07-11T08:19:39Z</time>
      </trkpt>
      <trkpt lat="48.79923" lon="-3.46012">
        <ele>74.3</ele>
        <time>2019-07-11T08:19:40Z</time>
      </trkpt>
      <trkpt lat="48.79923" lon="-3.46015">
        <ele>74.1</ele>
        <time>2019-07-11T08:19:41Z</time>
      </trkpt>
      <trkpt lat="48.79923" lon="-3.46018">
        <ele>74.7</ele>
        <time>2019-07-11T08:19:42Z</time>
      </trkpt>
      <trkpt lat="48.79922" lon="-3.46021">
        <ele>75</ele>
        <time>2019-07-11T08:19:43Z</time>
      </trkpt>
      <trkpt lat="48.79921" lon="-3.46024">
        <ele>75.1</ele>
        <time>2019-07-11T08:19:44Z</time>
      </trkpt>
      <trkpt lat="48.7992" lon="-3.46027">
        <ele>74.8</ele>
        <time>2019-07-11T08:19:45Z</time>
      </trkpt>
      <trkpt lat="48.7992" lon="-3.4603">
        <ele>75.2</ele>
        <time>2019-07-11T08:19:46Z</time>
      </trkpt>
      <trkpt lat="48.79919" lon="-3.46034">
        <ele>75.3</ele>
        <time>2019-07-11T08:19:47Z</time>
      </trkpt>
      <trkpt lat="48.79919" lon="-3.46037">
        <ele>75</ele>
        <time>2019-07-11T08:19:48Z</time>
      </trkpt>
      <trkpt lat="48.79919" lon="-3.46041">
        <ele>74.7</ele>
        <time>2019-07-11T08:19:49Z</time>
      </trkpt>
      <trkpt lat="48.79918" lon="-3.46044">
        <ele>74.7</ele>
        <time>2019-07-11T08:19:50Z</time>
      </trkpt>
      <trkpt lat="48.79918" lon="-3.46047">
        <ele>74.8</ele>
        <time>2019-07-11T08:19:51Z</time>
      </trkpt>
      <trkpt lat="48.79917" lon="-3.46049">
        <ele>74.9</ele>
        <time>2019-07-11T08:19:52Z</time>
      </trkpt>
      <trkpt lat="48.79916" lon="-3.46052">
        <ele>75.4</ele>
        <time>2019-07-11T08:19:53Z</time>
      </trkpt>
      <trkpt lat="48.79915" lon="-3.46055">
        <ele>76.1</ele>
        <time>2019-07-11T08:19:54Z</time>
      </trkpt>
      <trkpt lat="48.79914" lon="-3.46058">
        <ele>76.8</ele>
        <time>2019-07-11T08:19:55Z</time>
      </trkpt>
      <trkpt lat="48.79913" lon="-3.46062">
        <ele>77.4</ele>
        <time>2019-07-11T08:19:56Z</time>
      </trkpt>
      <trkpt lat="48.79912" lon="-3.46065">
        <ele>78.3</ele>
        <time>2019-07-11T08:19:57Z</time>
      </trkpt>
      <trkpt lat="48.79912" lon="-3.46068">
        <ele>78.7</ele>
        <time>2019-07-11T08:19:58Z</time>
      </trkpt>
      <trkpt lat="48.79911" lon="-3.46072">
        <ele>78.5</ele>
        <time>2019-07-11T08:19:59Z</time>
      </trkpt>
      <trkpt lat="48.7991" lon="-3.46075">
        <ele>78.2</ele>
        <time>2019-07-11T08:20:00Z</time>
      </trkpt>
      <trkpt lat="48.79908" lon="-3.46079">
        <ele>77.7</ele>
        <time>2019-07-11T08:20:01Z</time>
      </trkpt>
      <trkpt lat="48.79907" lon="-3.46083">
        <ele>77</ele>
        <time>2019-07-11T08:20:02Z</time>
      </trkpt>
      <trkpt lat="48.79906" lon="-3.46085">
        <ele>76.6</ele>
        <time>2019-07-11T08:20:03Z</time>
      </trkpt>
      <trkpt lat="48.79905" lon="-3.46088">
        <ele>75.9</ele>
        <time>2019-07-11T08:20:04Z</time>
      </trkpt>
      <trkpt lat="48.79903" lon="-3.46091">
        <ele>75.5</ele>
        <time>2019-07-11T08:20:05Z</time>
      </trkpt>
      <trkpt lat="48.79903" lon="-3.46095">
        <ele>74.9</ele>
        <time>2019-07-11T08:20:06Z</time>
      </trkpt>
      <trkpt lat="48.79902" lon="-3.46098">
        <ele>74.3</ele>
        <time>2019-07-11T08:20:07Z</time>
      </trkpt>
      <trkpt lat="48.79901" lon="-3.46102">
        <ele>73.8</ele>
        <time>2019-07-11T08:20:08Z</time>
      </trkpt>
      <trkpt lat="48.799" lon="-3.46106">
        <ele>73.5</ele>
        <time>2019-07-11T08:20:09Z</time>
      </trkpt>
      <trkpt lat="48.79899" lon="-3.46111">
        <ele>74.1</ele>
        <time>2019-07-11T08:20:10Z</time>
      </trkpt>
      <trkpt lat="48.79898" lon="-3.46116">
        <ele>74.6</ele>
        <time>2019-07-11T08:20:11Z</time>
      </trkpt>
      <trkpt lat="48.79898" lon="-3.4612">
        <ele>74.9</ele>
        <time>2019-07-11T08:20:12Z</time>
      </trkpt>
      <trkpt lat="48.79899" lon="-3.46123">
        <ele>75.4</ele>
        <time>2019-07-11T08:20:13Z</time>
      </trkpt>
      <trkpt lat="48.799" lon="-3.46127">
        <ele>75.5</ele>
        <time>2019-07-11T08:20:14Z</time>
      </trkpt>
      <trkpt lat="48.79901" lon="-3.4613">
        <ele>75.5</ele>
        <time>2019-07-11T08:20:15Z</time>
      </trkpt>
      <trkpt lat="48.79903" lon="-3.46133">
        <ele>75.9</ele>
        <time>2019-07-11T08:20:16Z</time>
      </trkpt>
      <trkpt lat="48.79904" lon="-3.46136">
        <ele>76.8</ele>
        <time>2019-07-11T08:20:17Z</time>
      </trkpt>
      <trkpt lat="48.79907" lon="-3.46137">
        <ele>77.3</ele>
        <time>2019-07-11T08:20:18Z</time>
      </trkpt>
      <trkpt lat="48.79909" lon="-3.46139">
        <ele>77.4</ele>
        <time>2019-07-11T08:20:19Z</time>
      </trkpt>
      <trkpt lat="48.79911" lon="-3.46139">
        <ele>77.3</ele>
        <time>2019-07-11T08:20:20Z</time>
      </trkpt>
      <trkpt lat="48.79915" lon="-3.4614">
        <ele>76.7</ele>
        <time>2019-07-11T08:20:21Z</time>
      </trkpt>
      <trkpt lat="48.79917" lon="-3.4614">
        <ele>76.6</ele>
        <time>2019-07-11T08:20:22Z</time>
      </trkpt>
      <trkpt lat="48.7992" lon="-3.46141">
        <ele>76</ele>
        <time>2019-07-11T08:20:23Z</time>
      </trkpt>
      <trkpt lat="48.79923" lon="-3.46142">
        <ele>75.9</ele>
        <time>2019-07-11T08:20:24Z</time>
      </trkpt>
      <trkpt lat="48.79925" lon="-3.46143">
        <ele>75.7</ele>
        <time>2019-07-11T08:20:25Z</time>
      </trkpt>
      <trkpt lat="48.79927" lon="-3.46143">
        <ele>75.4</ele>
        <time>2019-07-11T08:20:26Z</time>
      </trkpt>
      <trkpt lat="48.7993" lon="-3.46144">
        <ele>75.1</ele>
        <time>2019-07-11T08:20:27Z</time>
      </trkpt>
      <trkpt lat="48.79932" lon="-3.46144">
        <ele>75.1</ele>
        <time>2019-07-11T08:20:28Z</time>
      </trkpt>
      <trkpt lat="48.79935" lon="-3.46145">
        <ele>75.1</ele>
        <time>2019-07-11T08:20:29Z</time>
      </trkpt>
      <trkpt lat="48.79937" lon="-3.46145">
        <ele>75.6</ele>
        <time>2019-07-11T08:20:30Z</time>
      </trkpt>
      <trkpt lat="48.7994" lon="-3.46145">
        <ele>75.7</ele>
        <time>2019-07-11T08:20:31Z</time>
      </trkpt>
      <trkpt lat="48.79943" lon="-3.46145">
        <ele>75.5</ele>
        <time>2019-07-11T08:20:32Z</time>
      </trkpt>
      <trkpt lat="48.79946" lon="-3.46147">
        <ele>75.1</ele>
        <time>2019-07-11T08:20:33Z</time>
      </trkpt>
      <trkpt lat="48.79948" lon="-3.46149">
        <ele>75</ele>
        <time>2019-07-11T08:20:34Z</time>
      </trkpt>
      <trkpt lat="48.7995" lon="-3.46152">
        <ele>74.1</ele>
        <time>2019-07-11T08:20:35Z</time>
      </trkpt>
      <trkpt lat="48.79952" lon="-3.46154">
        <ele>74</ele>
        <time>2019-07-11T08:20:36Z</time>
      </trkpt>
      <trkpt lat="48.79954" lon="-3.46157">
        <ele>73.5</ele>
        <time>2019-07-11T08:20:37Z</time>
      </trkpt>
      <trkpt lat="48.79955" lon="-3.4616">
        <ele>73.2</ele>
        <time>2019-07-11T08:20:38Z</time>
      </trkpt>
      <trkpt lat="48.79956" lon="-3.46162">
        <ele>73.3</ele>
        <time>2019-07-11T08:20:39Z</time>
      </trkpt>
      <trkpt lat="48.79957" lon="-3.46165">
        <ele>73.7</ele>
        <time>2019-07-11T08:20:40Z</time>
      </trkpt>
      <trkpt lat="48.79958" lon="-3.46169">
        <ele>73.8</ele>
        <time>2019-07-11T08:20:41Z</time>
      </trkpt>
      <trkpt lat="48.79959" lon="-3.46173">
        <ele>73.4</ele>
        <time>2019-07-11T08:20:42Z</time>
      </trkpt>
      <trkpt lat="48.79959" lon="-3.46177">
        <ele>73.4</ele>
        <time>2019-07-11T08:20:43Z</time>
      </trkpt>
      <trkpt lat="48.7996" lon="-3.46181">
        <ele>73.1</ele>
        <time>2019-07-11T08:20:44Z</time>
      </trkpt>
      <trkpt lat="48.7996" lon="-3.46185">
        <ele>73.7</ele>
        <time>2019-07-11T08:20:45Z</time>
      </trkpt>
      <trkpt lat="48.7996" lon="-3.46189">
        <ele>73.8</ele>
        <time>2019-07-11T08:20:46Z</time>
      </trkpt>
      <trkpt lat="48.79961" lon="-3.46194">
        <ele>73.8</ele>
        <time>2019-07-11T08:20:47Z</time>
      </trkpt>
      <trkpt lat="48.79961" lon="-3.46199">
        <ele>73.8</ele>
        <time>2019-07-11T08:20:48Z</time>
      </trkpt>
      <trkpt lat="48.79961" lon="-3.46204">
        <ele>73.6</ele>
        <time>2019-07-11T08:20:49Z</time>
      </trkpt>
      <trkpt lat="48.79961" lon="-3.46209">
        <ele>73.4</ele>
        <time>2019-07-11T08:20:50Z</time>
      </trkpt>
      <trkpt lat="48.79962" lon="-3.46213">
        <ele>72.9</ele>
        <time>2019-07-11T08:20:51Z</time>
      </trkpt>
      <trkpt lat="48.79963" lon="-3.46218">
        <ele>72.5</ele>
        <time>2019-07-11T08:20:52Z</time>
      </trkpt>
      <trkpt lat="48.79964" lon="-3.46223">
        <ele>72.4</ele>
        <time>2019-07-11T08:20:53Z</time>
      </trkpt>
      <trkpt lat="48.79965" lon="-3.46228">
        <ele>72.6</ele>
        <time>2019-07-11T08:20:54Z</time>
      </trkpt>
      <trkpt lat="48.79966" lon="-3.46232">
        <ele>72.8</ele>
        <time>2019-07-11T08:20:55Z</time>
      </trkpt>
      <trkpt lat="48.79967" lon="-3.46235">
        <ele>73.3</ele>
        <time>2019-07-11T08:20:56Z</time>
      </trkpt>
      <trkpt lat="48.79968" lon="-3.46239">
        <ele>73.6</ele>
        <time>2019-07-11T08:20:57Z</time>
      </trkpt>
      <trkpt lat="48.79968" lon="-3.46243">
        <ele>74.3</ele>
        <time>2019-07-11T08:20:58Z</time>
      </trkpt>
      <trkpt lat="48.79968" lon="-3.46246">
        <ele>75.9</ele>
        <time>2019-07-11T08:20:59Z</time>
      </trkpt>
      <trkpt lat="48.79968" lon="-3.46251">
        <ele>76.8</ele>
        <time>2019-07-11T08:21:00Z</time>
      </trkpt>
      <trkpt lat="48.79969" lon="-3.46256">
        <ele>77.5</ele>
        <time>2019-07-11T08:21:01Z</time>
      </trkpt>
      <trkpt lat="48.7997" lon="-3.46262">
        <ele>77.9</ele>
        <time>2019-07-11T08:21:02Z</time>
      </trkpt>
      <trkpt lat="48.7997" lon="-3.46267">
        <ele>78.6</ele>
        <time>2019-07-11T08:21:03Z</time>
      </trkpt>
      <trkpt lat="48.7997" lon="-3.46271">
        <ele>79.1</ele>
        <time>2019-07-11T08:21:04Z</time>
      </trkpt>
      <trkpt lat="48.7997" lon="-3.46275">
        <ele>79.8</ele>
        <time>2019-07-11T08:21:05Z</time>
      </trkpt>
      <trkpt lat="48.79971" lon="-3.46281">
        <ele>80.5</ele>
        <time>2019-07-11T08:21:06Z</time>
      </trkpt>
      <trkpt lat="48.79971" lon="-3.46285">
        <ele>81.2</ele>
        <time>2019-07-11T08:21:07Z</time>
      </trkpt>
      <trkpt lat="48.79972" lon="-3.46291">
        <ele>81.9</ele>
        <time>2019-07-11T08:21:08Z</time>
      </trkpt>
      <trkpt lat="48.79973" lon="-3.46298">
        <ele>82.1</ele>
        <time>2019-07-11T08:21:09Z</time>
      </trkpt>
      <trkpt lat="48.79973" lon="-3.46303">
        <ele>82.8</ele>
        <time>2019-07-11T08:21:10Z</time>
      </trkpt>
      <trkpt lat="48.79974" lon="-3.46308">
        <ele>83.4</ele>
        <time>2019-07-11T08:21:11Z</time>
      </trkpt>
      <trkpt lat="48.79975" lon="-3.46312">
        <ele>83.9</ele>
        <time>2019-07-11T08:21:12Z</time>
      </trkpt>
      <trkpt lat="48.79977" lon="-3.46316">
        <ele>84.3</ele>
        <time>2019-07-11T08:21:13Z</time>
      </trkpt>
      <trkpt lat="48.79981" lon="-3.46318">
        <ele>83.9</ele>
        <time>2019-07-11T08:21:14Z</time>
      </trkpt>
      <trkpt lat="48.79986" lon="-3.46319">
        <ele>83.7</ele>
        <time>2019-07-11T08:21:15Z</time>
      </trkpt>
      <trkpt lat="48.7999" lon="-3.46319">
        <ele>83.2</ele>
        <time>2019-07-11T08:21:16Z</time>
      </trkpt>
      <trkpt lat="48.79994" lon="-3.46319">
        <ele>82.6</ele>
        <time>2019-07-11T08:21:17Z</time>
      </trkpt>
      <trkpt lat="48.79998" lon="-3.46319">
        <ele>82.3</ele>
        <time>2019-07-11T08:21:18Z</time>
      </trkpt>
      <trkpt lat="48.8" lon="-3.46321">
        <ele>82.2</ele>
        <time>2019-07-11T08:21:19Z</time>
      </trkpt>
      <trkpt lat="48.80002" lon="-3.46321">
        <ele>82.7</ele>
        <time>2019-07-11T08:21:20Z</time>
      </trkpt>
      <trkpt lat="48.80005" lon="-3.46322">
        <ele>83</ele>
        <time>2019-07-11T08:21:21Z</time>
      </trkpt>
      <trkpt lat="48.80006" lon="-3.46322">
        <ele>83.2</ele>
        <time>2019-07-11T08:21:22Z</time>
      </trkpt>
      <trkpt lat="48.80008" lon="-3.46322">
        <ele>83.4</ele>
        <time>2019-07-11T08:21:23Z</time>
      </trkpt>
      <trkpt lat="48.8001" lon="-3.46323">
        <ele>83.7</ele>
        <time>2019-07-11T08:21:24Z</time>
      </trkpt>
      <trkpt lat="48.80012" lon="-3.46324">
        <ele>84</ele>
        <time>2019-07-11T08:21:25Z</time>
      </trkpt>
      <trkpt lat="48.80013" lon="-3.46326">
        <ele>84.1</ele>
        <time>2019-07-11T08:21:26Z</time>
      </trkpt>
      <trkpt lat="48.80014" lon="-3.46328">
        <ele>84.7</ele>
        <time>2019-07-11T08:21:27Z</time>
      </trkpt>
      <trkpt lat="48.80016" lon="-3.46329">
        <ele>85</ele>
        <time>2019-07-11T08:21:28Z</time>
      </trkpt>
      <trkpt lat="48.80017" lon="-3.46332">
        <ele>85.9</ele>
        <time>2019-07-11T08:21:29Z</time>
      </trkpt>
      <trkpt lat="48.80019" lon="-3.46335">
        <ele>85.9</ele>
        <time>2019-07-11T08:21:30Z</time>
      </trkpt>
      <trkpt lat="48.80019" lon="-3.4634">
        <ele>85.7</ele>
        <time>2019-07-11T08:21:31Z</time>
      </trkpt>
      <trkpt lat="48.80019" lon="-3.46345">
        <ele>86.1</ele>
        <time>2019-07-11T08:21:32Z</time>
      </trkpt>
      <trkpt lat="48.80021" lon="-3.46351">
        <ele>86.2</ele>
        <time>2019-07-11T08:21:33Z</time>
      </trkpt>
      <trkpt lat="48.80024" lon="-3.46359">
        <ele>85.8</ele>
        <time>2019-07-11T08:21:34Z</time>
      </trkpt>
      <trkpt lat="48.80027" lon="-3.46365">
        <ele>86</ele>
        <time>2019-07-11T08:21:35Z</time>
      </trkpt>
      <trkpt lat="48.8003" lon="-3.46372">
        <ele>85.8</ele>
        <time>2019-07-11T08:21:36Z</time>
      </trkpt>
      <trkpt lat="48.80031" lon="-3.46379">
        <ele>86.1</ele>
        <time>2019-07-11T08:21:37Z</time>
      </trkpt>
      <trkpt lat="48.80031" lon="-3.46384">
        <ele>86.7</ele>
        <time>2019-07-11T08:21:38Z</time>
      </trkpt>
      <trkpt lat="48.80032" lon="-3.4639">
        <ele>86.7</ele>
        <time>2019-07-11T08:21:39Z</time>
      </trkpt>
      <trkpt lat="48.80034" lon="-3.46397">
        <ele>87.1</ele>
        <time>2019-07-11T08:21:40Z</time>
      </trkpt>
      <trkpt lat="48.80036" lon="-3.46402">
        <ele>86.9</ele>
        <time>2019-07-11T08:21:41Z</time>
      </trkpt>
      <trkpt lat="48.80038" lon="-3.46407">
        <ele>87.2</ele>
        <time>2019-07-11T08:21:42Z</time>
      </trkpt>
      <trkpt lat="48.8004" lon="-3.46411">
        <ele>87.1</ele>
        <time>2019-07-11T08:21:43Z</time>
      </trkpt>
      <trkpt lat="48.80043" lon="-3.46414">
        <ele>87</ele>
        <time>2019-07-11T08:21:44Z</time>
      </trkpt>
      <trkpt lat="48.80045" lon="-3.46417">
        <ele>86.8</ele>
        <time>2019-07-11T08:21:45Z</time>
      </trkpt>
      <trkpt lat="48.80047" lon="-3.46421">
        <ele>86.6</ele>
        <time>2019-07-11T08:21:46Z</time>
      </trkpt>
      <trkpt lat="48.80049" lon="-3.46425">
        <ele>86.2</ele>
        <time>2019-07-11T08:21:47Z</time>
      </trkpt>
      <trkpt lat="48.80051" lon="-3.46428">
        <ele>86.2</ele>
        <time>2019-07-11T08:21:48Z</time>
      </trkpt>
      <trkpt lat="48.80052" lon="-3.46431">
        <ele>86.5</ele>
        <time>2019-07-11T08:21:49Z</time>
      </trkpt>
      <trkpt lat="48.80053" lon="-3.46434">
        <ele>86.5</ele>
        <time>2019-07-11T08:21:50Z</time>
      </trkpt>
      <trkpt lat="48.80055" lon="-3.46437">
        <ele>86.4</ele>
        <time>2019-07-11T08:21:51Z</time>
      </trkpt>
      <trkpt lat="48.80057" lon="-3.4644">
        <ele>86.4</ele>
        <time>2019-07-11T08:21:52Z</time>
      </trkpt>
      <trkpt lat="48.80059" lon="-3.46444">
        <ele>87.3</ele>
        <time>2019-07-11T08:21:53Z</time>
      </trkpt>
      <trkpt lat="48.80061" lon="-3.46448">
        <ele>87.7</ele>
        <time>2019-07-11T08:21:54Z</time>
      </trkpt>
      <trkpt lat="48.80064" lon="-3.4645">
        <ele>87.1</ele>
        <time>2019-07-11T08:21:55Z</time>
      </trkpt>
      <trkpt lat="48.80066" lon="-3.46453">
        <ele>86.7</ele>
        <time>2019-07-11T08:21:56Z</time>
      </trkpt>
      <trkpt lat="48.80067" lon="-3.46456">
        <ele>86.4</ele>
        <time>2019-07-11T08:21:57Z</time>
      </trkpt>
      <trkpt lat="48.80068" lon="-3.46459">
        <ele>86.1</ele>
        <time>2019-07-11T08:21:58Z</time>
      </trkpt>
      <trkpt lat="48.80069" lon="-3.46461">
        <ele>85.8</ele>
        <time>2019-07-11T08:21:59Z</time>
      </trkpt>
      <trkpt lat="48.80071" lon="-3.46464">
        <ele>86.1</ele>
        <time>2019-07-11T08:22:00Z</time>
      </trkpt>
      <trkpt lat="48.80071" lon="-3.46467">
        <ele>85.7</ele>
        <time>2019-07-11T08:22:01Z</time>
      </trkpt>
      <trkpt lat="48.80072" lon="-3.46471">
        <ele>85.6</ele>
        <time>2019-07-11T08:22:02Z</time>
      </trkpt>
      <trkpt lat="48.80072" lon="-3.46476">
        <ele>85.4</ele>
        <time>2019-07-11T08:22:03Z</time>
      </trkpt>
      <trkpt lat="48.80074" lon="-3.4648">
        <ele>85.8</ele>
        <time>2019-07-11T08:22:04Z</time>
      </trkpt>
      <trkpt lat="48.80075" lon="-3.46482">
        <ele>86.3</ele>
        <time>2019-07-11T08:22:05Z</time>
      </trkpt>
      <trkpt lat="48.80076" lon="-3.46486">
        <ele>86.9</ele>
        <time>2019-07-11T08:22:06Z</time>
      </trkpt>
      <trkpt lat="48.80078" lon="-3.46491">
        <ele>87.9</ele>
        <time>2019-07-11T08:22:07Z</time>
      </trkpt>
      <trkpt lat="48.80079" lon="-3.46496">
        <ele>88.9</ele>
        <time>2019-07-11T08:22:08Z</time>
      </trkpt>
      <trkpt lat="48.80081" lon="-3.46502">
        <ele>89.7</ele>
        <time>2019-07-11T08:22:09Z</time>
      </trkpt>
      <trkpt lat="48.80083" lon="-3.46507">
        <ele>90.7</ele>
        <time>2019-07-11T08:22:10Z</time>
      </trkpt>
      <trkpt lat="48.80084" lon="-3.46511">
        <ele>91.5</ele>
        <time>2019-07-11T08:22:11Z</time>
      </trkpt>
      <trkpt lat="48.80085" lon="-3.46516">
        <ele>92.3</ele>
        <time>2019-07-11T08:22:12Z</time>
      </trkpt>
      <trkpt lat="48.80086" lon="-3.4652">
        <ele>92.9</ele>
        <time>2019-07-11T08:22:13Z</time>
      </trkpt>
      <trkpt lat="48.80102" lon="-3.46557">
        <ele>94.6</ele>
        <time>2019-07-11T08:24:12Z</time>
      </trkpt>
      <trkpt lat="48.80102" lon="-3.46559">
        <ele>93.6</ele>
        <time>2019-07-11T08:24:13Z</time>
      </trkpt>
      <trkpt lat="48.80104" lon="-3.4656">
        <ele>93</ele>
        <time>2019-07-11T08:24:14Z</time>
      </trkpt>
      <trkpt lat="48.80106" lon="-3.46567">
        <ele>92.2</ele>
        <time>2019-07-11T08:24:18Z</time>
      </trkpt>
      <trkpt lat="48.80106" lon="-3.4657">
        <ele>92.1</ele>
        <time>2019-07-11T08:24:19Z</time>
      </trkpt>
      <trkpt lat="48.80106" lon="-3.46572">
        <ele>92.1</ele>
        <time>2019-07-11T08:24:20Z</time>
      </trkpt>
      <trkpt lat="48.80108" lon="-3.46574">
        <ele>92.3</ele>
        <time>2019-07-11T08:24:21Z</time>
      </trkpt>
      <trkpt lat="48.80108" lon="-3.46577">
        <ele>92.3</ele>
        <time>2019-07-11T08:24:22Z</time>
      </trkpt>
      <trkpt lat="48.80109" lon="-3.46579">
        <ele>92.2</ele>
        <time>2019-07-11T08:24:23Z</time>
      </trkpt>
      <trkpt lat="48.80111" lon="-3.46581">
        <ele>92.2</ele>
        <time>2019-07-11T08:24:24Z</time>
      </trkpt>
      <trkpt lat="48.80112" lon="-3.46583">
        <ele>92.2</ele>
        <time>2019-07-11T08:24:25Z</time>
      </trkpt>
      <trkpt lat="48.80114" lon="-3.46586">
        <ele>92.5</ele>
        <time>2019-07-11T08:24:26Z</time>
      </trkpt>
      <trkpt lat="48.80116" lon="-3.46589">
        <ele>92.7</ele>
        <time>2019-07-11T08:24:27Z</time>
      </trkpt>
      <trkpt lat="48.80117" lon="-3.46592">
        <ele>93</ele>
        <time>2019-07-11T08:24:28Z</time>
      </trkpt>
      <trkpt lat="48.80118" lon="-3.46595">
        <ele>93.4</ele>
        <time>2019-07-11T08:24:29Z</time>
      </trkpt>
      <trkpt lat="48.8012" lon="-3.46599">
        <ele>94.1</ele>
        <time>2019-07-11T08:24:30Z</time>
      </trkpt>
      <trkpt lat="48.80121" lon="-3.46601">
        <ele>94.6</ele>
        <time>2019-07-11T08:24:31Z</time>
      </trkpt>
      <trkpt lat="48.80124" lon="-3.46605">
        <ele>94.8</ele>
        <time>2019-07-11T08:24:32Z</time>
      </trkpt>
      <trkpt lat="48.80127" lon="-3.4661">
        <ele>94.7</ele>
        <time>2019-07-11T08:24:33Z</time>
      </trkpt>
      <trkpt lat="48.80129" lon="-3.46615">
        <ele>94.8</ele>
        <time>2019-07-11T08:24:34Z</time>
      </trkpt>
      <trkpt lat="48.80132" lon="-3.46618">
        <ele>94.5</ele>
        <time>2019-07-11T08:24:35Z</time>
      </trkpt>
      <trkpt lat="48.80134" lon="-3.46622">
        <ele>94.5</ele>
        <time>2019-07-11T08:24:36Z</time>
      </trkpt>
      <trkpt lat="48.80134" lon="-3.46625">
        <ele>93.4</ele>
        <time>2019-07-11T08:24:37Z</time>
      </trkpt>
      <trkpt lat="48.80135" lon="-3.46629">
        <ele>92.3</ele>
        <time>2019-07-11T08:24:38Z</time>
      </trkpt>
      <trkpt lat="48.80136" lon="-3.46634">
        <ele>91.6</ele>
        <time>2019-07-11T08:24:39Z</time>
      </trkpt>
      <trkpt lat="48.80137" lon="-3.46639">
        <ele>90.8</ele>
        <time>2019-07-11T08:24:40Z</time>
      </trkpt>
      <trkpt lat="48.80137" lon="-3.46643">
        <ele>90.5</ele>
        <time>2019-07-11T08:24:41Z</time>
      </trkpt>
      <trkpt lat="48.80138" lon="-3.46648">
        <ele>90.5</ele>
        <time>2019-07-11T08:24:42Z</time>
      </trkpt>
      <trkpt lat="48.80139" lon="-3.46653">
        <ele>90.7</ele>
        <time>2019-07-11T08:24:43Z</time>
      </trkpt>
      <trkpt lat="48.80139" lon="-3.46656">
        <ele>91.4</ele>
        <time>2019-07-11T08:24:44Z</time>
      </trkpt>
      <trkpt lat="48.8014" lon="-3.4666">
        <ele>91.7</ele>
        <time>2019-07-11T08:24:45Z</time>
      </trkpt>
      <trkpt lat="48.8014" lon="-3.46665">
        <ele>92</ele>
        <time>2019-07-11T08:24:46Z</time>
      </trkpt>
      <trkpt lat="48.8014" lon="-3.46669">
        <ele>92.3</ele>
        <time>2019-07-11T08:24:47Z</time>
      </trkpt>
      <trkpt lat="48.80141" lon="-3.46674">
        <ele>91.9</ele>
        <time>2019-07-11T08:24:48Z</time>
      </trkpt>
      <trkpt lat="48.80144" lon="-3.46679">
        <ele>91.9</ele>
        <time>2019-07-11T08:24:49Z</time>
      </trkpt>
      <trkpt lat="48.80145" lon="-3.46683">
        <ele>91.8</ele>
        <time>2019-07-11T08:24:50Z</time>
      </trkpt>
      <trkpt lat="48.80148" lon="-3.46688">
        <ele>90.5</ele>
        <time>2019-07-11T08:24:51Z</time>
      </trkpt>
      <trkpt lat="48.8015" lon="-3.46692">
        <ele>89.5</ele>
        <time>2019-07-11T08:24:52Z</time>
      </trkpt>
      <trkpt lat="48.80151" lon="-3.46695">
        <ele>89</ele>
        <time>2019-07-11T08:24:53Z</time>
      </trkpt>
      <trkpt lat="48.80153" lon="-3.46699">
        <ele>86.8</ele>
        <time>2019-07-11T08:24:54Z</time>
      </trkpt>
      <trkpt lat="48.80155" lon="-3.46705">
        <ele>85.1</ele>
        <time>2019-07-11T08:24:55Z</time>
      </trkpt>
      <trkpt lat="48.80156" lon="-3.46709">
        <ele>84.8</ele>
        <time>2019-07-11T08:24:56Z</time>
      </trkpt>
      <trkpt lat="48.80156" lon="-3.46715">
        <ele>83.9</ele>
        <time>2019-07-11T08:24:57Z</time>
      </trkpt>
      <trkpt lat="48.80158" lon="-3.46722">
        <ele>82.4</ele>
        <time>2019-07-11T08:24:58Z</time>
      </trkpt>
      <trkpt lat="48.8016" lon="-3.46727">
        <ele>81.5</ele>
        <time>2019-07-11T08:24:59Z</time>
      </trkpt>
      <trkpt lat="48.80162" lon="-3.46734">
        <ele>80.1</ele>
        <time>2019-07-11T08:25:00Z</time>
      </trkpt>
      <trkpt lat="48.80163" lon="-3.4674">
        <ele>79.6</ele>
        <time>2019-07-11T08:25:01Z</time>
      </trkpt>
      <trkpt lat="48.80164" lon="-3.46745">
        <ele>78.9</ele>
        <time>2019-07-11T08:25:02Z</time>
      </trkpt>
      <trkpt lat="48.80165" lon="-3.4675">
        <ele>78.3</ele>
        <time>2019-07-11T08:25:03Z</time>
      </trkpt>
      <trkpt lat="48.80166" lon="-3.46755">
        <ele>77.8</ele>
        <time>2019-07-11T08:25:04Z</time>
      </trkpt>
      <trkpt lat="48.80166" lon="-3.46759">
        <ele>77</ele>
        <time>2019-07-11T08:25:05Z</time>
      </trkpt>
      <trkpt lat="48.80166" lon="-3.46763">
        <ele>76.6</ele>
        <time>2019-07-11T08:25:06Z</time>
      </trkpt>
      <trkpt lat="48.80167" lon="-3.46767">
        <ele>76.1</ele>
        <time>2019-07-11T08:25:07Z</time>
      </trkpt>
      <trkpt lat="48.80167" lon="-3.4677">
        <ele>75.9</ele>
        <time>2019-07-11T08:25:08Z</time>
      </trkpt>
      <trkpt lat="48.80168" lon="-3.46773">
        <ele>75.5</ele>
        <time>2019-07-11T08:25:09Z</time>
      </trkpt>
      <trkpt lat="48.80168" lon="-3.46778">
        <ele>75.3</ele>
        <time>2019-07-11T08:25:10Z</time>
      </trkpt>
      <trkpt lat="48.80168" lon="-3.46782">
        <ele>75.2</ele>
        <time>2019-07-11T08:25:11Z</time>
      </trkpt>
      <trkpt lat="48.80169" lon="-3.46787">
        <ele>75.8</ele>
        <time>2019-07-11T08:25:12Z</time>
      </trkpt>
      <trkpt lat="48.8017" lon="-3.46792">
        <ele>76.5</ele>
        <time>2019-07-11T08:25:13Z</time>
      </trkpt>
      <trkpt lat="48.80172" lon="-3.46797">
        <ele>76.3</ele>
        <time>2019-07-11T08:25:14Z</time>
      </trkpt>
      <trkpt lat="48.80173" lon="-3.46803">
        <ele>76.2</ele>
        <time>2019-07-11T08:25:15Z</time>
      </trkpt>
      <trkpt lat="48.80174" lon="-3.46807">
        <ele>76.2</ele>
        <time>2019-07-11T08:25:16Z</time>
      </trkpt>
      <trkpt lat="48.80175" lon="-3.46811">
        <ele>76.4</ele>
        <time>2019-07-11T08:25:17Z</time>
      </trkpt>
      <trkpt lat="48.80176" lon="-3.46815">
        <ele>76.6</ele>
        <time>2019-07-11T08:25:18Z</time>
      </trkpt>
      <trkpt lat="48.80177" lon="-3.46819">
        <ele>76.8</ele>
        <time>2019-07-11T08:25:19Z</time>
      </trkpt>
      <trkpt lat="48.80178" lon="-3.46822">
        <ele>77.1</ele>
        <time>2019-07-11T08:25:20Z</time>
      </trkpt>
      <trkpt lat="48.80179" lon="-3.46828">
        <ele>77</ele>
        <time>2019-07-11T08:25:21Z</time>
      </trkpt>
      <trkpt lat="48.80181" lon="-3.46834">
        <ele>77.5</ele>
        <time>2019-07-11T08:25:22Z</time>
      </trkpt>
      <trkpt lat="48.80183" lon="-3.46838">
        <ele>77</ele>
        <time>2019-07-11T08:25:23Z</time>
      </trkpt>
      <trkpt lat="48.80183" lon="-3.46842">
        <ele>77.4</ele>
        <time>2019-07-11T08:25:24Z</time>
      </trkpt>
      <trkpt lat="48.80185" lon="-3.46846">
        <ele>77.4</ele>
        <time>2019-07-11T08:25:25Z</time>
      </trkpt>
      <trkpt lat="48.80187" lon="-3.46852">
        <ele>76.7</ele>
        <time>2019-07-11T08:25:26Z</time>
      </trkpt>
      <trkpt lat="48.80188" lon="-3.46856">
        <ele>76.2</ele>
        <time>2019-07-11T08:25:27Z</time>
      </trkpt>
      <trkpt lat="48.8019" lon="-3.46861">
        <ele>75.9</ele>
        <time>2019-07-11T08:25:28Z</time>
      </trkpt>
      <trkpt lat="48.80192" lon="-3.46865">
        <ele>75.6</ele>
        <time>2019-07-11T08:25:29Z</time>
      </trkpt>
      <trkpt lat="48.80193" lon="-3.46869">
        <ele>75.3</ele>
        <time>2019-07-11T08:25:30Z</time>
      </trkpt>
      <trkpt lat="48.80195" lon="-3.46874">
        <ele>75.3</ele>
        <time>2019-07-11T08:25:31Z</time>
      </trkpt>
      <trkpt lat="48.80197" lon="-3.4688">
        <ele>74.8</ele>
        <time>2019-07-11T08:25:32Z</time>
      </trkpt>
      <trkpt lat="48.80198" lon="-3.46885">
        <ele>74.1</ele>
        <time>2019-07-11T08:25:33Z</time>
      </trkpt>
      <trkpt lat="48.80199" lon="-3.4689">
        <ele>73.3</ele>
        <time>2019-07-11T08:25:34Z</time>
      </trkpt>
      <trkpt lat="48.802" lon="-3.46894">
        <ele>73.1</ele>
        <time>2019-07-11T08:25:35Z</time>
      </trkpt>
      <trkpt lat="48.80201" lon="-3.46898">
        <ele>72.5</ele>
        <time>2019-07-11T08:25:36Z</time>
      </trkpt>
      <trkpt lat="48.80204" lon="-3.46902">
        <ele>72.4</ele>
        <time>2019-07-11T08:25:37Z</time>
      </trkpt>
      <trkpt lat="48.80206" lon="-3.46905">
        <ele>72.7</ele>
        <time>2019-07-11T08:25:38Z</time>
      </trkpt>
      <trkpt lat="48.80208" lon="-3.4691">
        <ele>72.2</ele>
        <time>2019-07-11T08:25:39Z</time>
      </trkpt>
      <trkpt lat="48.80211" lon="-3.46912">
        <ele>72</ele>
        <time>2019-07-11T08:25:40Z</time>
      </trkpt>
      <trkpt lat="48.80212" lon="-3.46915">
        <ele>71.6</ele>
        <time>2019-07-11T08:25:41Z</time>
      </trkpt>
      <trkpt lat="48.80214" lon="-3.46916">
        <ele>71.7</ele>
        <time>2019-07-11T08:25:42Z</time>
      </trkpt>
      <trkpt lat="48.80216" lon="-3.46917">
        <ele>72.1</ele>
        <time>2019-07-11T08:25:43Z</time>
      </trkpt>
      <trkpt lat="48.80217" lon="-3.46919">
        <ele>72.1</ele>
        <time>2019-07-11T08:25:44Z</time>
      </trkpt>
      <trkpt lat="48.80219" lon="-3.4692">
        <ele>72.3</ele>
        <time>2019-07-11T08:25:45Z</time>
      </trkpt>
      <trkpt lat="48.8022" lon="-3.46922">
        <ele>72.5</ele>
        <time>2019-07-11T08:25:46Z</time>
      </trkpt>
      <trkpt lat="48.80222" lon="-3.46924">
        <ele>72.3</ele>
        <time>2019-07-11T08:25:47Z</time>
      </trkpt>
      <trkpt lat="48.80224" lon="-3.46926">
        <ele>72.2</ele>
        <time>2019-07-11T08:25:48Z</time>
      </trkpt>
      <trkpt lat="48.80226" lon="-3.46927">
        <ele>72.3</ele>
        <time>2019-07-11T08:25:49Z</time>
      </trkpt>
      <trkpt lat="48.80228" lon="-3.4693">
        <ele>72.4</ele>
        <time>2019-07-11T08:25:50Z</time>
      </trkpt>
      <trkpt lat="48.80229" lon="-3.46932">
        <ele>72.6</ele>
        <time>2019-07-11T08:25:51Z</time>
      </trkpt>
      <trkpt lat="48.8023" lon="-3.46936">
        <ele>72.9</ele>
        <time>2019-07-11T08:25:52Z</time>
      </trkpt>
      <trkpt lat="48.80231" lon="-3.4694">
        <ele>73.3</ele>
        <time>2019-07-11T08:25:53Z</time>
      </trkpt>
      <trkpt lat="48.80232" lon="-3.46944">
        <ele>73.8</ele>
        <time>2019-07-11T08:25:54Z</time>
      </trkpt>
      <trkpt lat="48.80233" lon="-3.46948">
        <ele>74.3</ele>
        <time>2019-07-11T08:25:55Z</time>
      </trkpt>
      <trkpt lat="48.80233" lon="-3.46952">
        <ele>75.1</ele>
        <time>2019-07-11T08:25:56Z</time>
      </trkpt>
      <trkpt lat="48.80234" lon="-3.46956">
        <ele>75.9</ele>
        <time>2019-07-11T08:25:57Z</time>
      </trkpt>
      <trkpt lat="48.80235" lon="-3.46961">
        <ele>75.9</ele>
        <time>2019-07-11T08:25:58Z</time>
      </trkpt>
      <trkpt lat="48.80235" lon="-3.46965">
        <ele>76.2</ele>
        <time>2019-07-11T08:25:59Z</time>
      </trkpt>
      <trkpt lat="48.80237" lon="-3.46969">
        <ele>76.6</ele>
        <time>2019-07-11T08:26:00Z</time>
      </trkpt>
      <trkpt lat="48.80239" lon="-3.46973">
        <ele>77.1</ele>
        <time>2019-07-11T08:26:01Z</time>
      </trkpt>
      <trkpt lat="48.8024" lon="-3.46977">
        <ele>77.6</ele>
        <time>2019-07-11T08:26:02Z</time>
      </trkpt>
      <trkpt lat="48.80242" lon="-3.4698">
        <ele>77.9</ele>
        <time>2019-07-11T08:26:03Z</time>
      </trkpt>
      <trkpt lat="48.80243" lon="-3.46982">
        <ele>78.5</ele>
        <time>2019-07-11T08:26:04Z</time>
      </trkpt>
      <trkpt lat="48.80246" lon="-3.46987">
        <ele>79.2</ele>
        <time>2019-07-11T08:26:23Z</time>
      </trkpt>
      <trkpt lat="48.80248" lon="-3.46989">
        <ele>79.4</ele>
        <time>2019-07-11T08:26:24Z</time>
      </trkpt>
      <trkpt lat="48.80248" lon="-3.46992">
        <ele>79.6</ele>
        <time>2019-07-11T08:26:25Z</time>
      </trkpt>
      <trkpt lat="48.80249" lon="-3.46996">
        <ele>79.6</ele>
        <time>2019-07-11T08:26:26Z</time>
      </trkpt>
      <trkpt lat="48.80248" lon="-3.47">
        <ele>80.3</ele>
        <time>2019-07-11T08:26:27Z</time>
      </trkpt>
      <trkpt lat="48.80248" lon="-3.47003">
        <ele>80.8</ele>
        <time>2019-07-11T08:26:28Z</time>
      </trkpt>
      <trkpt lat="48.80248" lon="-3.47007">
        <ele>81.1</ele>
        <time>2019-07-11T08:26:29Z</time>
      </trkpt>
      <trkpt lat="48.80249" lon="-3.4701">
        <ele>81.4</ele>
        <time>2019-07-11T08:26:30Z</time>
      </trkpt>
      <trkpt lat="48.8025" lon="-3.47014">
        <ele>81.6</ele>
        <time>2019-07-11T08:26:31Z</time>
      </trkpt>
      <trkpt lat="48.8025" lon="-3.47018">
        <ele>81.8</ele>
        <time>2019-07-11T08:26:32Z</time>
      </trkpt>
      <trkpt lat="48.80251" lon="-3.47021">
        <ele>81.8</ele>
        <time>2019-07-11T08:26:33Z</time>
      </trkpt>
      <trkpt lat="48.80251" lon="-3.47024">
        <ele>81.9</ele>
        <time>2019-07-11T08:26:34Z</time>
      </trkpt>
      <trkpt lat="48.80252" lon="-3.47027">
        <ele>82.2</ele>
        <time>2019-07-11T08:26:35Z</time>
      </trkpt>
      <trkpt lat="48.80253" lon="-3.4703">
        <ele>82.3</ele>
        <time>2019-07-11T08:26:36Z</time>
      </trkpt>
      <trkpt lat="48.80253" lon="-3.47034">
        <ele>82.3</ele>
        <time>2019-07-11T08:26:37Z</time>
      </trkpt>
      <trkpt lat="48.80254" lon="-3.47038">
        <ele>82.7</ele>
        <time>2019-07-11T08:26:38Z</time>
      </trkpt>
      <trkpt lat="48.80255" lon="-3.47041">
        <ele>83.1</ele>
        <time>2019-07-11T08:26:39Z</time>
      </trkpt>
      <trkpt lat="48.80256" lon="-3.47045">
        <ele>83.2</ele>
        <time>2019-07-11T08:26:40Z</time>
      </trkpt>
      <trkpt lat="48.80257" lon="-3.47049">
        <ele>83.3</ele>
        <time>2019-07-11T08:26:41Z</time>
      </trkpt>
      <trkpt lat="48.80257" lon="-3.47053">
        <ele>83.8</ele>
        <time>2019-07-11T08:26:42Z</time>
      </trkpt>
      <trkpt lat="48.80258" lon="-3.47056">
        <ele>84.1</ele>
        <time>2019-07-11T08:26:43Z</time>
      </trkpt>
      <trkpt lat="48.80259" lon="-3.4706">
        <ele>84.8</ele>
        <time>2019-07-11T08:26:44Z</time>
      </trkpt>
      <trkpt lat="48.80259" lon="-3.47064">
        <ele>84.8</ele>
        <time>2019-07-11T08:26:45Z</time>
      </trkpt>
      <trkpt lat="48.80259" lon="-3.47068">
        <ele>85</ele>
        <time>2019-07-11T08:26:46Z</time>
      </trkpt>
      <trkpt lat="48.80261" lon="-3.47073">
        <ele>84.8</ele>
        <time>2019-07-11T08:26:47Z</time>
      </trkpt>
      <trkpt lat="48.80262" lon="-3.47077">
        <ele>84.9</ele>
        <time>2019-07-11T08:26:48Z</time>
      </trkpt>
      <trkpt lat="48.80263" lon="-3.47082">
        <ele>84.8</ele>
        <time>2019-07-11T08:26:49Z</time>
      </trkpt>
      <trkpt lat="48.80264" lon="-3.47086">
        <ele>84.9</ele>
        <time>2019-07-11T08:26:50Z</time>
      </trkpt>
      <trkpt lat="48.80265" lon="-3.47089">
        <ele>85</ele>
        <time>2019-07-11T08:26:51Z</time>
      </trkpt>
      <trkpt lat="48.80266" lon="-3.47092">
        <ele>84.8</ele>
        <time>2019-07-11T08:26:52Z</time>
      </trkpt>
      <trkpt lat="48.80267" lon="-3.47096">
        <ele>84.7</ele>
        <time>2019-07-11T08:26:53Z</time>
      </trkpt>
      <trkpt lat="48.80269" lon="-3.47098">
        <ele>84.5</ele>
        <time>2019-07-11T08:26:54Z</time>
      </trkpt>
      <trkpt lat="48.8027" lon="-3.47101">
        <ele>84.4</ele>
        <time>2019-07-11T08:26:55Z</time>
      </trkpt>
      <trkpt lat="48.80272" lon="-3.47103">
        <ele>84.3</ele>
        <time>2019-07-11T08:26:56Z</time>
      </trkpt>
      <trkpt lat="48.80274" lon="-3.47106">
        <ele>84.4</ele>
        <time>2019-07-11T08:26:57Z</time>
      </trkpt>
      <trkpt lat="48.80276" lon="-3.4711">
        <ele>84.2</ele>
        <time>2019-07-11T08:26:58Z</time>
      </trkpt>
      <trkpt lat="48.80278" lon="-3.47113">
        <ele>84</ele>
        <time>2019-07-11T08:26:59Z</time>
      </trkpt>
      <trkpt lat="48.80281" lon="-3.47116">
        <ele>83.8</ele>
        <time>2019-07-11T08:27:00Z</time>
      </trkpt>
      <trkpt lat="48.80283" lon="-3.4712">
        <ele>83.5</ele>
        <time>2019-07-11T08:27:01Z</time>
      </trkpt>
      <trkpt lat="48.80285" lon="-3.47123">
        <ele>83.2</ele>
        <time>2019-07-11T08:27:02Z</time>
      </trkpt>
      <trkpt lat="48.80287" lon="-3.47125">
        <ele>83.6</ele>
        <time>2019-07-11T08:27:03Z</time>
      </trkpt>
      <trkpt lat="48.8029" lon="-3.47127">
        <ele>84.2</ele>
        <time>2019-07-11T08:27:04Z</time>
      </trkpt>
      <trkpt lat="48.80292" lon="-3.47129">
        <ele>84.1</ele>
        <time>2019-07-11T08:27:05Z</time>
      </trkpt>
      <trkpt lat="48.80294" lon="-3.47131">
        <ele>83.5</ele>
        <time>2019-07-11T08:27:06Z</time>
      </trkpt>
      <trkpt lat="48.80297" lon="-3.47133">
        <ele>83.7</ele>
        <time>2019-07-11T08:27:07Z</time>
      </trkpt>
      <trkpt lat="48.803" lon="-3.47135">
        <ele>83.9</ele>
        <time>2019-07-11T08:27:08Z</time>
      </trkpt>
      <trkpt lat="48.80302" lon="-3.47136">
        <ele>84.3</ele>
        <time>2019-07-11T08:27:09Z</time>
      </trkpt>
      <trkpt lat="48.80305" lon="-3.47138">
        <ele>84</ele>
        <time>2019-07-11T08:27:10Z</time>
      </trkpt>
      <trkpt lat="48.80308" lon="-3.4714">
        <ele>84.1</ele>
        <time>2019-07-11T08:27:11Z</time>
      </trkpt>
      <trkpt lat="48.80311" lon="-3.47142">
        <ele>83.6</ele>
        <time>2019-07-11T08:27:12Z</time>
      </trkpt>
      <trkpt lat="48.80314" lon="-3.47144">
        <ele>82.8</ele>
        <time>2019-07-11T08:27:13Z</time>
      </trkpt>
      <trkpt lat="48.80316" lon="-3.47146">
        <ele>82.3</ele>
        <time>2019-07-11T08:27:14Z</time>
      </trkpt>
      <trkpt lat="48.80319" lon="-3.47149">
        <ele>82.2</ele>
        <time>2019-07-11T08:27:15Z</time>
      </trkpt>
      <trkpt lat="48.80322" lon="-3.47151">
        <ele>82.1</ele>
        <time>2019-07-11T08:27:16Z</time>
      </trkpt>
      <trkpt lat="48.80325" lon="-3.47153">
        <ele>82</ele>
        <time>2019-07-11T08:27:17Z</time>
      </trkpt>
      <trkpt lat="48.80327" lon="-3.47156">
        <ele>81.8</ele>
        <time>2019-07-11T08:27:18Z</time>
      </trkpt>
      <trkpt lat="48.8033" lon="-3.47158">
        <ele>81.2</ele>
        <time>2019-07-11T08:27:19Z</time>
      </trkpt>
      <trkpt lat="48.80333" lon="-3.4716">
        <ele>81.3</ele>
        <time>2019-07-11T08:27:20Z</time>
      </trkpt>
      <trkpt lat="48.80335" lon="-3.47162">
        <ele>81.5</ele>
        <time>2019-07-11T08:27:21Z</time>
      </trkpt>
      <trkpt lat="48.80337" lon="-3.47165">
        <ele>81.7</ele>
        <time>2019-07-11T08:27:22Z</time>
      </trkpt>
      <trkpt lat="48.80339" lon="-3.47167">
        <ele>82.3</ele>
        <time>2019-07-11T08:27:23Z</time>
      </trkpt>
      <trkpt lat="48.80342" lon="-3.47169">
        <ele>83</ele>
        <time>2019-07-11T08:27:24Z</time>
      </trkpt>
      <trkpt lat="48.80344" lon="-3.47171">
        <ele>83.6</ele>
        <time>2019-07-11T08:27:25Z</time>
      </trkpt>
      <trkpt lat="48.80346" lon="-3.47175">
        <ele>84.2</ele>
        <time>2019-07-11T08:27:26Z</time>
      </trkpt>
      <trkpt lat="48.80348" lon="-3.47178">
        <ele>84.9</ele>
        <time>2019-07-11T08:27:27Z</time>
      </trkpt>
      <trkpt lat="48.80351" lon="-3.47182">
        <ele>85.6</ele>
        <time>2019-07-11T08:27:28Z</time>
      </trkpt>
      <trkpt lat="48.80354" lon="-3.47186">
        <ele>86.1</ele>
        <time>2019-07-11T08:27:29Z</time>
      </trkpt>
      <trkpt lat="48.80357" lon="-3.4719">
        <ele>86.4</ele>
        <time>2019-07-11T08:27:30Z</time>
      </trkpt>
      <trkpt lat="48.8036" lon="-3.47193">
        <ele>86.5</ele>
        <time>2019-07-11T08:27:31Z</time>
      </trkpt>
      <trkpt lat="48.80363" lon="-3.47196">
        <ele>86.9</ele>
        <time>2019-07-11T08:27:32Z</time>
      </trkpt>
      <trkpt lat="48.80367" lon="-3.47199">
        <ele>88</ele>
        <time>2019-07-11T08:27:33Z</time>
      </trkpt>
      <trkpt lat="48.8037" lon="-3.472">
        <ele>89.8</ele>
        <time>2019-07-11T08:27:34Z</time>
      </trkpt>
      <trkpt lat="48.80373" lon="-3.47201">
        <ele>91.7</ele>
        <time>2019-07-11T08:27:35Z</time>
      </trkpt>
      <trkpt lat="48.80376" lon="-3.47202">
        <ele>92.1</ele>
        <time>2019-07-11T08:27:36Z</time>
      </trkpt>
      <trkpt lat="48.8038" lon="-3.47205">
        <ele>92.9</ele>
        <time>2019-07-11T08:27:37Z</time>
      </trkpt>
      <trkpt lat="48.80384" lon="-3.47208">
        <ele>93.2</ele>
        <time>2019-07-11T08:27:38Z</time>
      </trkpt>
      <trkpt lat="48.80388" lon="-3.4721">
        <ele>94.1</ele>
        <time>2019-07-11T08:27:39Z</time>
      </trkpt>
      <trkpt lat="48.80391" lon="-3.47213">
        <ele>95.1</ele>
        <time>2019-07-11T08:27:40Z</time>
      </trkpt>
      <trkpt lat="48.80394" lon="-3.47217">
        <ele>95.4</ele>
        <time>2019-07-11T08:27:41Z</time>
      </trkpt>
      <trkpt lat="48.80396" lon="-3.47221">
        <ele>95.8</ele>
        <time>2019-07-11T08:27:42Z</time>
      </trkpt>
      <trkpt lat="48.80399" lon="-3.47226">
        <ele>95.3</ele>
        <time>2019-07-11T08:27:43Z</time>
      </trkpt>
      <trkpt lat="48.80402" lon="-3.4723">
        <ele>94</ele>
        <time>2019-07-11T08:27:44Z</time>
      </trkpt>
      <trkpt lat="48.80405" lon="-3.47234">
        <ele>93.6</ele>
        <time>2019-07-11T08:27:45Z</time>
      </trkpt>
      <trkpt lat="48.80407" lon="-3.47238">
        <ele>93.3</ele>
        <time>2019-07-11T08:27:46Z</time>
      </trkpt>
      <trkpt lat="48.8041" lon="-3.47242">
        <ele>92.9</ele>
        <time>2019-07-11T08:27:47Z</time>
      </trkpt>
      <trkpt lat="48.80413" lon="-3.47247">
        <ele>92.9</ele>
        <time>2019-07-11T08:27:48Z</time>
      </trkpt>
      <trkpt lat="48.80416" lon="-3.47252">
        <ele>92.3</ele>
        <time>2019-07-11T08:27:49Z</time>
      </trkpt>
      <trkpt lat="48.80419" lon="-3.47257">
        <ele>91.5</ele>
        <time>2019-07-11T08:27:50Z</time>
      </trkpt>
      <trkpt lat="48.80422" lon="-3.47261">
        <ele>90.8</ele>
        <time>2019-07-11T08:27:51Z</time>
      </trkpt>
      <trkpt lat="48.80425" lon="-3.47266">
        <ele>88.5</ele>
        <time>2019-07-11T08:27:52Z</time>
      </trkpt>
      <trkpt lat="48.80429" lon="-3.4727">
        <ele>87.4</ele>
        <time>2019-07-11T08:27:53Z</time>
      </trkpt>
      <trkpt lat="48.80432" lon="-3.47275">
        <ele>87</ele>
        <time>2019-07-11T08:27:54Z</time>
      </trkpt>
      <trkpt lat="48.80436" lon="-3.47279">
        <ele>86.2</ele>
        <time>2019-07-11T08:27:55Z</time>
      </trkpt>
      <trkpt lat="48.8044" lon="-3.47283">
        <ele>85.7</ele>
        <time>2019-07-11T08:27:56Z</time>
      </trkpt>
      <trkpt lat="48.80444" lon="-3.47286">
        <ele>85.7</ele>
        <time>2019-07-11T08:27:57Z</time>
      </trkpt>
      <trkpt lat="48.80447" lon="-3.47289">
        <ele>86</ele>
        <time>2019-07-11T08:27:58Z</time>
      </trkpt>
      <trkpt lat="48.80451" lon="-3.47293">
        <ele>86</ele>
        <time>2019-07-11T08:27:59Z</time>
      </trkpt>
      <trkpt lat="48.80455" lon="-3.47297">
        <ele>85.5</ele>
        <time>2019-07-11T08:28:00Z</time>
      </trkpt>
      <trkpt lat="48.80459" lon="-3.473">
        <ele>85.6</ele>
        <time>2019-07-11T08:28:01Z</time>
      </trkpt>
      <trkpt lat="48.80463" lon="-3.47304">
        <ele>85.3</ele>
        <time>2019-07-11T08:28:02Z</time>
      </trkpt>
      <trkpt lat="48.80466" lon="-3.47308">
        <ele>84.8</ele>
        <time>2019-07-11T08:28:03Z</time>
      </trkpt>
      <trkpt lat="48.8047" lon="-3.47311">
        <ele>84.7</ele>
        <time>2019-07-11T08:28:04Z</time>
      </trkpt>
      <trkpt lat="48.80473" lon="-3.47315">
        <ele>84.6</ele>
        <time>2019-07-11T08:28:05Z</time>
      </trkpt>
      <trkpt lat="48.80476" lon="-3.47318">
        <ele>85</ele>
        <time>2019-07-11T08:28:06Z</time>
      </trkpt>
      <trkpt lat="48.80481" lon="-3.47321">
        <ele>85.5</ele>
        <time>2019-07-11T08:28:07Z</time>
      </trkpt>
      <trkpt lat="48.80484" lon="-3.47324">
        <ele>85.9</ele>
        <time>2019-07-11T08:28:08Z</time>
      </trkpt>
      <trkpt lat="48.80489" lon="-3.47327">
        <ele>86.4</ele>
        <time>2019-07-11T08:28:09Z</time>
      </trkpt>
      <trkpt lat="48.80494" lon="-3.47329">
        <ele>87.8</ele>
        <time>2019-07-11T08:28:10Z</time>
      </trkpt>
      <trkpt lat="48.80499" lon="-3.47332">
        <ele>89</ele>
        <time>2019-07-11T08:28:11Z</time>
      </trkpt>
      <trkpt lat="48.80503" lon="-3.47335">
        <ele>90.2</ele>
        <time>2019-07-11T08:28:12Z</time>
      </trkpt>
      <trkpt lat="48.80507" lon="-3.47338">
        <ele>91</ele>
        <time>2019-07-11T08:28:13Z</time>
      </trkpt>
      <trkpt lat="48.80512" lon="-3.47341">
        <ele>91.6</ele>
        <time>2019-07-11T08:28:14Z</time>
      </trkpt>
      <trkpt lat="48.80517" lon="-3.47344">
        <ele>92.8</ele>
        <time>2019-07-11T08:28:15Z</time>
      </trkpt>
      <trkpt lat="48.80521" lon="-3.47347">
        <ele>93.6</ele>
        <time>2019-07-11T08:28:16Z</time>
      </trkpt>
      <trkpt lat="48.80526" lon="-3.4735">
        <ele>93.9</ele>
        <time>2019-07-11T08:28:17Z</time>
      </trkpt>
      <trkpt lat="48.80531" lon="-3.47353">
        <ele>93.7</ele>
        <time>2019-07-11T08:28:18Z</time>
      </trkpt>
      <trkpt lat="48.80536" lon="-3.47356">
        <ele>93.4</ele>
        <time>2019-07-11T08:28:19Z</time>
      </trkpt>
      <trkpt lat="48.8054" lon="-3.47359">
        <ele>93</ele>
        <time>2019-07-11T08:28:20Z</time>
      </trkpt>
      <trkpt lat="48.80545" lon="-3.47362">
        <ele>92.4</ele>
        <time>2019-07-11T08:28:21Z</time>
      </trkpt>
      <trkpt lat="48.80549" lon="-3.47365">
        <ele>92</ele>
        <time>2019-07-11T08:28:22Z</time>
      </trkpt>
      <trkpt lat="48.80553" lon="-3.47368">
        <ele>91.8</ele>
        <time>2019-07-11T08:28:23Z</time>
      </trkpt>
      <trkpt lat="48.80555" lon="-3.47372">
        <ele>92.1</ele>
        <time>2019-07-11T08:28:24Z</time>
      </trkpt>
      <trkpt lat="48.80558" lon="-3.47376">
        <ele>92.6</ele>
        <time>2019-07-11T08:28:25Z</time>
      </trkpt>
      <trkpt lat="48.8056" lon="-3.4738">
        <ele>93.1</ele>
        <time>2019-07-11T08:28:26Z</time>
      </trkpt>
      <trkpt lat="48.80564" lon="-3.47384">
        <ele>93.3</ele>
        <time>2019-07-11T08:28:27Z</time>
      </trkpt>
      <trkpt lat="48.80569" lon="-3.47388">
        <ele>92.8</ele>
        <time>2019-07-11T08:28:28Z</time>
      </trkpt>
      <trkpt lat="48.80574" lon="-3.47391">
        <ele>92</ele>
        <time>2019-07-11T08:28:29Z</time>
      </trkpt>
      <trkpt lat="48.80578" lon="-3.47395">
        <ele>91.4</ele>
        <time>2019-07-11T08:28:30Z</time>
      </trkpt>
      <trkpt lat="48.80582" lon="-3.47399">
        <ele>90.4</ele>
        <time>2019-07-11T08:28:31Z</time>
      </trkpt>
      <trkpt lat="48.80586" lon="-3.47403">
        <ele>89.4</ele>
        <time>2019-07-11T08:28:32Z</time>
      </trkpt>
      <trkpt lat="48.8059" lon="-3.47407">
        <ele>89.4</ele>
        <time>2019-07-11T08:28:33Z</time>
      </trkpt>
      <trkpt lat="48.80594" lon="-3.47411">
        <ele>88.6</ele>
        <time>2019-07-11T08:28:34Z</time>
      </trkpt>
      <trkpt lat="48.80598" lon="-3.47415">
        <ele>87.9</ele>
        <time>2019-07-11T08:28:35Z</time>
      </trkpt>
      <trkpt lat="48.80602" lon="-3.4742">
        <ele>87.1</ele>
        <time>2019-07-11T08:28:36Z</time>
      </trkpt>
      <trkpt lat="48.80606" lon="-3.47423">
        <ele>86.5</ele>
        <time>2019-07-11T08:28:37Z</time>
      </trkpt>
      <trkpt lat="48.8061" lon="-3.47426">
        <ele>86.3</ele>
        <time>2019-07-11T08:28:38Z</time>
      </trkpt>
      <trkpt lat="48.80614" lon="-3.47428">
        <ele>87</ele>
        <time>2019-07-11T08:28:39Z</time>
      </trkpt>
      <trkpt lat="48.80619" lon="-3.47431">
        <ele>87.6</ele>
        <time>2019-07-11T08:28:40Z</time>
      </trkpt>
      <trkpt lat="48.80624" lon="-3.47434">
        <ele>87.1</ele>
        <time>2019-07-11T08:28:41Z</time>
      </trkpt>
      <trkpt lat="48.80629" lon="-3.47436">
        <ele>86.6</ele>
        <time>2019-07-11T08:28:42Z</time>
      </trkpt>
      <trkpt lat="48.80634" lon="-3.47438">
        <ele>85.7</ele>
        <time>2019-07-11T08:28:43Z</time>
      </trkpt>
      <trkpt lat="48.80639" lon="-3.47438">
        <ele>85.7</ele>
        <time>2019-07-11T08:28:44Z</time>
      </trkpt>
      <trkpt lat="48.80643" lon="-3.47437">
        <ele>86.2</ele>
        <time>2019-07-11T08:28:45Z</time>
      </trkpt>
      <trkpt lat="48.80647" lon="-3.47432">
        <ele>86.2</ele>
        <time>2019-07-11T08:28:46Z</time>
      </trkpt>
      <trkpt lat="48.80648" lon="-3.47426">
        <ele>86.8</ele>
        <time>2019-07-11T08:28:47Z</time>
      </trkpt>
      <trkpt lat="48.80648" lon="-3.47419">
        <ele>87.1</ele>
        <time>2019-07-11T08:28:48Z</time>
      </trkpt>
      <trkpt lat="48.80648" lon="-3.47411">
        <ele>87.2</ele>
        <time>2019-07-11T08:28:49Z</time>
      </trkpt>
      <trkpt lat="48.80648" lon="-3.47405">
        <ele>87.7</ele>
        <time>2019-07-11T08:28:50Z</time>
      </trkpt>
      <trkpt lat="48.80649" lon="-3.47399">
        <ele>88.1</ele>
        <time>2019-07-11T08:28:51Z</time>
      </trkpt>
      <trkpt lat="48.8065" lon="-3.47394">
        <ele>88.6</ele>
        <time>2019-07-11T08:28:52Z</time>
      </trkpt>
      <trkpt lat="48.8065" lon="-3.47388">
        <ele>89.1</ele>
        <time>2019-07-11T08:28:53Z</time>
      </trkpt>
      <trkpt lat="48.80651" lon="-3.47382">
        <ele>89.6</ele>
        <time>2019-07-11T08:28:54Z</time>
      </trkpt>
      <trkpt lat="48.80652" lon="-3.47377">
        <ele>90</ele>
        <time>2019-07-11T08:28:55Z</time>
      </trkpt>
      <trkpt lat="48.80652" lon="-3.47372">
        <ele>90.5</ele>
        <time>2019-07-11T08:28:56Z</time>
      </trkpt>
      <trkpt lat="48.80652" lon="-3.47367">
        <ele>91.2</ele>
        <time>2019-07-11T08:28:57Z</time>
      </trkpt>
      <trkpt lat="48.80653" lon="-3.47362">
        <ele>91.7</ele>
        <time>2019-07-11T08:28:58Z</time>
      </trkpt>
      <trkpt lat="48.80654" lon="-3.47358">
        <ele>92.5</ele>
        <time>2019-07-11T08:28:59Z</time>
      </trkpt>
      <trkpt lat="48.80656" lon="-3.47354">
        <ele>93.2</ele>
        <time>2019-07-11T08:29:00Z</time>
      </trkpt>
      <trkpt lat="48.80656" lon="-3.47349">
        <ele>94.3</ele>
        <time>2019-07-11T08:29:01Z</time>
      </trkpt>
      <trkpt lat="48.80658" lon="-3.47344">
        <ele>95.4</ele>
        <time>2019-07-11T08:29:02Z</time>
      </trkpt>
      <trkpt lat="48.80659" lon="-3.47339">
        <ele>96.1</ele>
        <time>2019-07-11T08:29:03Z</time>
      </trkpt>
      <trkpt lat="48.8066" lon="-3.47333">
        <ele>96.2</ele>
        <time>2019-07-11T08:29:04Z</time>
      </trkpt>
      <trkpt lat="48.8066" lon="-3.47328">
        <ele>96.2</ele>
        <time>2019-07-11T08:29:05Z</time>
      </trkpt>
      <trkpt lat="48.8066" lon="-3.47322">
        <ele>96.2</ele>
        <time>2019-07-11T08:29:06Z</time>
      </trkpt>
      <trkpt lat="48.80661" lon="-3.47317">
        <ele>96.6</ele>
        <time>2019-07-11T08:29:07Z</time>
      </trkpt>
      <trkpt lat="48.80661" lon="-3.47312">
        <ele>96.9</ele>
        <time>2019-07-11T08:29:08Z</time>
      </trkpt>
      <trkpt lat="48.80662" lon="-3.47306">
        <ele>97.5</ele>
        <time>2019-07-11T08:29:09Z</time>
      </trkpt>
      <trkpt lat="48.80663" lon="-3.47301">
        <ele>98.1</ele>
        <time>2019-07-11T08:29:10Z</time>
      </trkpt>
      <trkpt lat="48.80663" lon="-3.47295">
        <ele>98.5</ele>
        <time>2019-07-11T08:29:11Z</time>
      </trkpt>
      <trkpt lat="48.80664" lon="-3.4729">
        <ele>98.9</ele>
        <time>2019-07-11T08:29:12Z</time>
      </trkpt>
      <trkpt lat="48.80665" lon="-3.47284">
        <ele>98.6</ele>
        <time>2019-07-11T08:29:13Z</time>
      </trkpt>
      <trkpt lat="48.80665" lon="-3.47279">
        <ele>99</ele>
        <time>2019-07-11T08:29:14Z</time>
      </trkpt>
      <trkpt lat="48.80666" lon="-3.47273">
        <ele>98.5</ele>
        <time>2019-07-11T08:29:15Z</time>
      </trkpt>
      <trkpt lat="48.80668" lon="-3.47266">
        <ele>95.9</ele>
        <time>2019-07-11T08:29:16Z</time>
      </trkpt>
      <trkpt lat="48.80669" lon="-3.47261">
        <ele>95.2</ele>
        <time>2019-07-11T08:29:17Z</time>
      </trkpt>
      <trkpt lat="48.80672" lon="-3.47256">
        <ele>93</ele>
        <time>2019-07-11T08:29:18Z</time>
      </trkpt>
      <trkpt lat="48.80674" lon="-3.47253">
        <ele>92.4</ele>
        <time>2019-07-11T08:29:19Z</time>
      </trkpt>
      <trkpt lat="48.80677" lon="-3.47251">
        <ele>91.9</ele>
        <time>2019-07-11T08:29:20Z</time>
      </trkpt>
      <trkpt lat="48.80681" lon="-3.4725">
        <ele>91.6</ele>
        <time>2019-07-11T08:29:21Z</time>
      </trkpt>
      <trkpt lat="48.80683" lon="-3.47249">
        <ele>91.3</ele>
        <time>2019-07-11T08:29:22Z</time>
      </trkpt>
      <trkpt lat="48.80685" lon="-3.47248">
        <ele>91.3</ele>
        <time>2019-07-11T08:29:23Z</time>
      </trkpt>
      <trkpt lat="48.80689" lon="-3.47247">
        <ele>91</ele>
        <time>2019-07-11T08:29:24Z</time>
      </trkpt>
      <trkpt lat="48.80693" lon="-3.47246">
        <ele>90.6</ele>
        <time>2019-07-11T08:29:25Z</time>
      </trkpt>
      <trkpt lat="48.80696" lon="-3.47245">
        <ele>90.6</ele>
        <time>2019-07-11T08:29:26Z</time>
      </trkpt>
      <trkpt lat="48.80699" lon="-3.47246">
        <ele>91.2</ele>
        <time>2019-07-11T08:29:27Z</time>
      </trkpt>
      <trkpt lat="48.80702" lon="-3.47246">
        <ele>91.6</ele>
        <time>2019-07-11T08:29:28Z</time>
      </trkpt>
      <trkpt lat="48.80705" lon="-3.47247">
        <ele>92</ele>
        <time>2019-07-11T08:29:29Z</time>
      </trkpt>
      <trkpt lat="48.80708" lon="-3.47246">
        <ele>92.3</ele>
        <time>2019-07-11T08:29:30Z</time>
      </trkpt>
      <trkpt lat="48.80711" lon="-3.47243">
        <ele>92.7</ele>
        <time>2019-07-11T08:29:31Z</time>
      </trkpt>
      <trkpt lat="48.80713" lon="-3.4724">
        <ele>93.2</ele>
        <time>2019-07-11T08:29:32Z</time>
      </trkpt>
      <trkpt lat="48.80715" lon="-3.47237">
        <ele>93.9</ele>
        <time>2019-07-11T08:29:33Z</time>
      </trkpt>
      <trkpt lat="48.80716" lon="-3.47232">
        <ele>94.1</ele>
        <time>2019-07-11T08:29:34Z</time>
      </trkpt>
      <trkpt lat="48.80718" lon="-3.47228">
        <ele>94.5</ele>
        <time>2019-07-11T08:29:35Z</time>
      </trkpt>
      <trkpt lat="48.80721" lon="-3.47225">
        <ele>94.7</ele>
        <time>2019-07-11T08:29:36Z</time>
      </trkpt>
      <trkpt lat="48.80723" lon="-3.47222">
        <ele>94.8</ele>
        <time>2019-07-11T08:29:37Z</time>
      </trkpt>
      <trkpt lat="48.80726" lon="-3.4722">
        <ele>94.5</ele>
        <time>2019-07-11T08:29:38Z</time>
      </trkpt>
      <trkpt lat="48.80729" lon="-3.47218">
        <ele>94.3</ele>
        <time>2019-07-11T08:29:39Z</time>
      </trkpt>
      <trkpt lat="48.80733" lon="-3.47217">
        <ele>94.5</ele>
        <time>2019-07-11T08:29:40Z</time>
      </trkpt>
      <trkpt lat="48.80736" lon="-3.47216">
        <ele>94.8</ele>
        <time>2019-07-11T08:29:41Z</time>
      </trkpt>
      <trkpt lat="48.80738" lon="-3.47214">
        <ele>94.9</ele>
        <time>2019-07-11T08:29:42Z</time>
      </trkpt>
      <trkpt lat="48.80741" lon="-3.47212">
        <ele>95.1</ele>
        <time>2019-07-11T08:29:43Z</time>
      </trkpt>
      <trkpt lat="48.80745" lon="-3.47209">
        <ele>94.4</ele>
        <time>2019-07-11T08:29:44Z</time>
      </trkpt>
      <trkpt lat="48.80748" lon="-3.47207">
        <ele>93.7</ele>
        <time>2019-07-11T08:29:45Z</time>
      </trkpt>
      <trkpt lat="48.80751" lon="-3.47206">
        <ele>92.9</ele>
        <time>2019-07-11T08:29:46Z</time>
      </trkpt>
      <trkpt lat="48.80753" lon="-3.47203">
        <ele>92.5</ele>
        <time>2019-07-11T08:29:47Z</time>
      </trkpt>
      <trkpt lat="48.80755" lon="-3.47199">
        <ele>92.3</ele>
        <time>2019-07-11T08:29:48Z</time>
      </trkpt>
      <trkpt lat="48.80756" lon="-3.47194">
        <ele>92.4</ele>
        <time>2019-07-11T08:29:49Z</time>
      </trkpt>
      <trkpt lat="48.80758" lon="-3.4719">
        <ele>92.2</ele>
        <time>2019-07-11T08:29:50Z</time>
      </trkpt>
      <trkpt lat="48.8076" lon="-3.47185">
        <ele>92</ele>
        <time>2019-07-11T08:29:51Z</time>
      </trkpt>
      <trkpt lat="48.80762" lon="-3.4718">
        <ele>91.7</ele>
        <time>2019-07-11T08:29:52Z</time>
      </trkpt>
      <trkpt lat="48.80763" lon="-3.47176">
        <ele>91.7</ele>
        <time>2019-07-11T08:29:53Z</time>
      </trkpt>
      <trkpt lat="48.80765" lon="-3.47171">
        <ele>91.2</ele>
        <time>2019-07-11T08:29:54Z</time>
      </trkpt>
      <trkpt lat="48.80766" lon="-3.47166">
        <ele>90.8</ele>
        <time>2019-07-11T08:29:55Z</time>
      </trkpt>
      <trkpt lat="48.80767" lon="-3.4716">
        <ele>90.5</ele>
        <time>2019-07-11T08:29:56Z</time>
      </trkpt>
      <trkpt lat="48.80769" lon="-3.47154">
        <ele>90.4</ele>
        <time>2019-07-11T08:29:57Z</time>
      </trkpt>
      <trkpt lat="48.8077" lon="-3.47149">
        <ele>90.4</ele>
        <time>2019-07-11T08:29:58Z</time>
      </trkpt>
      <trkpt lat="48.80771" lon="-3.47145">
        <ele>90.5</ele>
        <time>2019-07-11T08:29:59Z</time>
      </trkpt>
      <trkpt lat="48.80771" lon="-3.47141">
        <ele>90.4</ele>
        <time>2019-07-11T08:30:00Z</time>
      </trkpt>
      <trkpt lat="48.80771" lon="-3.47138">
        <ele>90</ele>
        <time>2019-07-11T08:30:01Z</time>
      </trkpt>
      <trkpt lat="48.80773" lon="-3.47136">
        <ele>90</ele>
        <time>2019-07-11T08:30:02Z</time>
      </trkpt>
      <trkpt lat="48.80774" lon="-3.47134">
        <ele>90</ele>
        <time>2019-07-11T08:30:03Z</time>
      </trkpt>
      <trkpt lat="48.80777" lon="-3.47134">
        <ele>90.4</ele>
        <time>2019-07-11T08:30:04Z</time>
      </trkpt>
      <trkpt lat="48.80779" lon="-3.47134">
        <ele>90.9</ele>
        <time>2019-07-11T08:30:05Z</time>
      </trkpt>
      <trkpt lat="48.80782" lon="-3.47135">
        <ele>91.2</ele>
        <time>2019-07-11T08:30:06Z</time>
      </trkpt>
      <trkpt lat="48.80785" lon="-3.47137">
        <ele>91.8</ele>
        <time>2019-07-11T08:30:07Z</time>
      </trkpt>
      <trkpt lat="48.80788" lon="-3.47136">
        <ele>91.8</ele>
        <time>2019-07-11T08:30:08Z</time>
      </trkpt>
      <trkpt lat="48.80792" lon="-3.47136">
        <ele>91.8</ele>
        <time>2019-07-11T08:30:09Z</time>
      </trkpt>
      <trkpt lat="48.80795" lon="-3.47136">
        <ele>91.8</ele>
        <time>2019-07-11T08:30:10Z</time>
      </trkpt>
      <trkpt lat="48.80799" lon="-3.47136">
        <ele>91.6</ele>
        <time>2019-07-11T08:30:11Z</time>
      </trkpt>
      <trkpt lat="48.80805" lon="-3.47137">
        <ele>91.5</ele>
        <time>2019-07-11T08:30:12Z</time>
      </trkpt>
      <trkpt lat="48.80813" lon="-3.47138">
        <ele>91.4</ele>
        <time>2019-07-11T08:30:13Z</time>
      </trkpt>
      <trkpt lat="48.80819" lon="-3.4714">
        <ele>91.2</ele>
        <time>2019-07-11T08:30:14Z</time>
      </trkpt>
      <trkpt lat="48.80824" lon="-3.47141">
        <ele>90.6</ele>
        <time>2019-07-11T08:30:15Z</time>
      </trkpt>
      <trkpt lat="48.8083" lon="-3.47142">
        <ele>90.3</ele>
        <time>2019-07-11T08:30:16Z</time>
      </trkpt>
      <trkpt lat="48.80835" lon="-3.47144">
        <ele>89.8</ele>
        <time>2019-07-11T08:30:17Z</time>
      </trkpt>
      <trkpt lat="48.80841" lon="-3.47146">
        <ele>89.8</ele>
        <time>2019-07-11T08:30:18Z</time>
      </trkpt>
      <trkpt lat="48.80846" lon="-3.47149">
        <ele>89.7</ele>
        <time>2019-07-11T08:30:19Z</time>
      </trkpt>
      <trkpt lat="48.80851" lon="-3.4715">
        <ele>89.8</ele>
        <time>2019-07-11T08:30:20Z</time>
      </trkpt>
      <trkpt lat="48.80854" lon="-3.4715">
        <ele>90</ele>
        <time>2019-07-11T08:30:21Z</time>
      </trkpt>
      <trkpt lat="48.80858" lon="-3.4715">
        <ele>90</ele>
        <time>2019-07-11T08:30:22Z</time>
      </trkpt>
      <trkpt lat="48.80862" lon="-3.47148">
        <ele>89.3</ele>
        <time>2019-07-11T08:30:23Z</time>
      </trkpt>
      <trkpt lat="48.80866" lon="-3.47146">
        <ele>88.9</ele>
        <time>2019-07-11T08:30:24Z</time>
      </trkpt>
      <trkpt lat="48.80869" lon="-3.47144">
        <ele>88.8</ele>
        <time>2019-07-11T08:30:25Z</time>
      </trkpt>
      <trkpt lat="48.80873" lon="-3.4714">
        <ele>88.5</ele>
        <time>2019-07-11T08:30:26Z</time>
      </trkpt>
      <trkpt lat="48.80876" lon="-3.47135">
        <ele>88.3</ele>
        <time>2019-07-11T08:30:27Z</time>
      </trkpt>
      <trkpt lat="48.80878" lon="-3.47127">
        <ele>88.3</ele>
        <time>2019-07-11T08:30:28Z</time>
      </trkpt>
      <trkpt lat="48.80879" lon="-3.4712">
        <ele>88.1</ele>
        <time>2019-07-11T08:30:29Z</time>
      </trkpt>
      <trkpt lat="48.80878" lon="-3.47113">
        <ele>87.8</ele>
        <time>2019-07-11T08:30:30Z</time>
      </trkpt>
      <trkpt lat="48.80879" lon="-3.47106">
        <ele>87.3</ele>
        <time>2019-07-11T08:30:31Z</time>
      </trkpt>
      <trkpt lat="48.80878" lon="-3.471">
        <ele>86.9</ele>
        <time>2019-07-11T08:30:32Z</time>
      </trkpt>
      <trkpt lat="48.80878" lon="-3.47093">
        <ele>86.4</ele>
        <time>2019-07-11T08:30:33Z</time>
      </trkpt>
      <trkpt lat="48.80878" lon="-3.47087">
        <ele>86.3</ele>
        <time>2019-07-11T08:30:34Z</time>
      </trkpt>
      <trkpt lat="48.80879" lon="-3.47082">
        <ele>86.6</ele>
        <time>2019-07-11T08:30:35Z</time>
      </trkpt>
      <trkpt lat="48.80882" lon="-3.47078">
        <ele>87</ele>
        <time>2019-07-11T08:30:36Z</time>
      </trkpt>
      <trkpt lat="48.80884" lon="-3.47075">
        <ele>87.9</ele>
        <time>2019-07-11T08:30:37Z</time>
      </trkpt>
      <trkpt lat="48.80887" lon="-3.47074">
        <ele>87.9</ele>
        <time>2019-07-11T08:30:38Z</time>
      </trkpt>
      <trkpt lat="48.80891" lon="-3.47074">
        <ele>88.2</ele>
        <time>2019-07-11T08:30:39Z</time>
      </trkpt>
      <trkpt lat="48.80894" lon="-3.47076">
        <ele>88.4</ele>
        <time>2019-07-11T08:30:40Z</time>
      </trkpt>
      <trkpt lat="48.80898" lon="-3.47079">
        <ele>88.6</ele>
        <time>2019-07-11T08:30:41Z</time>
      </trkpt>
      <trkpt lat="48.809" lon="-3.47082">
        <ele>89</ele>
        <time>2019-07-11T08:30:42Z</time>
      </trkpt>
      <trkpt lat="48.80903" lon="-3.47084">
        <ele>88.9</ele>
        <time>2019-07-11T08:30:43Z</time>
      </trkpt>
      <trkpt lat="48.80905" lon="-3.47086">
        <ele>89.1</ele>
        <time>2019-07-11T08:30:44Z</time>
      </trkpt>
      <trkpt lat="48.80907" lon="-3.47087">
        <ele>89</ele>
        <time>2019-07-11T08:30:45Z</time>
      </trkpt>
      <trkpt lat="48.80909" lon="-3.47087">
        <ele>89</ele>
        <time>2019-07-11T08:30:46Z</time>
      </trkpt>
      <trkpt lat="48.80912" lon="-3.47088">
        <ele>89.6</ele>
        <time>2019-07-11T08:30:47Z</time>
      </trkpt>
      <trkpt lat="48.80914" lon="-3.4709">
        <ele>90.2</ele>
        <time>2019-07-11T08:30:48Z</time>
      </trkpt>
      <trkpt lat="48.80917" lon="-3.47091">
        <ele>89.7</ele>
        <time>2019-07-11T08:30:49Z</time>
      </trkpt>
      <trkpt lat="48.8092" lon="-3.47091">
        <ele>89.6</ele>
        <time>2019-07-11T08:30:50Z</time>
      </trkpt>
      <trkpt lat="48.80924" lon="-3.47091">
        <ele>89.5</ele>
        <time>2019-07-11T08:30:51Z</time>
      </trkpt>
      <trkpt lat="48.80929" lon="-3.4709">
        <ele>88.8</ele>
        <time>2019-07-11T08:30:52Z</time>
      </trkpt>
      <trkpt lat="48.80933" lon="-3.4709">
        <ele>88.6</ele>
        <time>2019-07-11T08:30:53Z</time>
      </trkpt>
      <trkpt lat="48.80937" lon="-3.4709">
        <ele>88.5</ele>
        <time>2019-07-11T08:30:54Z</time>
      </trkpt>
      <trkpt lat="48.80941" lon="-3.4709">
        <ele>88.8</ele>
        <time>2019-07-11T08:30:55Z</time>
      </trkpt>
      <trkpt lat="48.80945" lon="-3.47091">
        <ele>89.2</ele>
        <time>2019-07-11T08:30:56Z</time>
      </trkpt>
      <trkpt lat="48.80948" lon="-3.47093">
        <ele>89.4</ele>
        <time>2019-07-11T08:30:57Z</time>
      </trkpt>
      <trkpt lat="48.80952" lon="-3.47095">
        <ele>89.7</ele>
        <time>2019-07-11T08:30:58Z</time>
      </trkpt>
      <trkpt lat="48.80956" lon="-3.47096">
        <ele>90.1</ele>
        <time>2019-07-11T08:30:59Z</time>
      </trkpt>
      <trkpt lat="48.8096" lon="-3.47097">
        <ele>90.7</ele>
        <time>2019-07-11T08:31:00Z</time>
      </trkpt>
      <trkpt lat="48.80964" lon="-3.47097">
        <ele>91.6</ele>
        <time>2019-07-11T08:31:01Z</time>
      </trkpt>
      <trkpt lat="48.80967" lon="-3.47098">
        <ele>92.4</ele>
        <time>2019-07-11T08:31:02Z</time>
      </trkpt>
      <trkpt lat="48.80971" lon="-3.47097">
        <ele>93.2</ele>
        <time>2019-07-11T08:31:03Z</time>
      </trkpt>
      <trkpt lat="48.80975" lon="-3.47096">
        <ele>93.5</ele>
        <time>2019-07-11T08:31:04Z</time>
      </trkpt>
      <trkpt lat="48.8098" lon="-3.47095">
        <ele>93.7</ele>
        <time>2019-07-11T08:31:05Z</time>
      </trkpt>
      <trkpt lat="48.80986" lon="-3.47094">
        <ele>92.3</ele>
        <time>2019-07-11T08:31:06Z</time>
      </trkpt>
      <trkpt lat="48.80992" lon="-3.47093">
        <ele>91.6</ele>
        <time>2019-07-11T08:31:07Z</time>
      </trkpt>
      <trkpt lat="48.80998" lon="-3.47094">
        <ele>90.6</ele>
        <time>2019-07-11T08:31:08Z</time>
      </trkpt>
      <trkpt lat="48.81002" lon="-3.47095">
        <ele>90.2</ele>
        <time>2019-07-11T08:31:09Z</time>
      </trkpt>
      <trkpt lat="48.81006" lon="-3.47095">
        <ele>90</ele>
        <time>2019-07-11T08:31:10Z</time>
      </trkpt>
      <trkpt lat="48.81009" lon="-3.47096">
        <ele>90.1</ele>
        <time>2019-07-11T08:31:11Z</time>
      </trkpt>
      <trkpt lat="48.81012" lon="-3.47096">
        <ele>90.2</ele>
        <time>2019-07-11T08:31:12Z</time>
      </trkpt>
      <trkpt lat="48.81015" lon="-3.47095">
        <ele>90.3</ele>
        <time>2019-07-11T08:31:13Z</time>
      </trkpt>
      <trkpt lat="48.81018" lon="-3.47095">
        <ele>90</ele>
        <time>2019-07-11T08:31:14Z</time>
      </trkpt>
      <trkpt lat="48.81021" lon="-3.47094">
        <ele>90.1</ele>
        <time>2019-07-11T08:31:15Z</time>
      </trkpt>
      <trkpt lat="48.81024" lon="-3.47093">
        <ele>90.6</ele>
        <time>2019-07-11T08:31:16Z</time>
      </trkpt>
      <trkpt lat="48.81028" lon="-3.47091">
        <ele>90</ele>
        <time>2019-07-11T08:31:17Z</time>
      </trkpt>
      <trkpt lat="48.8103" lon="-3.47088">
        <ele>90.3</ele>
        <time>2019-07-11T08:31:18Z</time>
      </trkpt>
      <trkpt lat="48.81031" lon="-3.47084">
        <ele>90</ele>
        <time>2019-07-11T08:31:19Z</time>
      </trkpt>
      <trkpt lat="48.81033" lon="-3.47081">
        <ele>89.2</ele>
        <time>2019-07-11T08:31:20Z</time>
      </trkpt>
      <trkpt lat="48.81035" lon="-3.47079">
        <ele>89</ele>
        <time>2019-07-11T08:31:21Z</time>
      </trkpt>
      <trkpt lat="48.81036" lon="-3.47076">
        <ele>88.9</ele>
        <time>2019-07-11T08:31:22Z</time>
      </trkpt>
      <trkpt lat="48.81038" lon="-3.47073">
        <ele>88.6</ele>
        <time>2019-07-11T08:31:23Z</time>
      </trkpt>
      <trkpt lat="48.81038" lon="-3.47071">
        <ele>88.5</ele>
        <time>2019-07-11T08:31:24Z</time>
      </trkpt>
      <trkpt lat="48.81039" lon="-3.47069">
        <ele>88.5</ele>
        <time>2019-07-11T08:31:25Z</time>
      </trkpt>
      <trkpt lat="48.8104" lon="-3.47067">
        <ele>88.7</ele>
        <time>2019-07-11T08:31:26Z</time>
      </trkpt>
      <trkpt lat="48.81041" lon="-3.47064">
        <ele>89.4</ele>
        <time>2019-07-11T08:31:27Z</time>
      </trkpt>
      <trkpt lat="48.81042" lon="-3.4706">
        <ele>90</ele>
        <time>2019-07-11T08:31:28Z</time>
      </trkpt>
      <trkpt lat="48.81043" lon="-3.47057">
        <ele>90.5</ele>
        <time>2019-07-11T08:31:29Z</time>
      </trkpt>
      <trkpt lat="48.81046" lon="-3.47054">
        <ele>91.3</ele>
        <time>2019-07-11T08:31:30Z</time>
      </trkpt>
      <trkpt lat="48.81048" lon="-3.4705">
        <ele>91.3</ele>
        <time>2019-07-11T08:31:31Z</time>
      </trkpt>
      <trkpt lat="48.81049" lon="-3.47047">
        <ele>91.6</ele>
        <time>2019-07-11T08:31:32Z</time>
      </trkpt>
      <trkpt lat="48.81051" lon="-3.47046">
        <ele>92.2</ele>
        <time>2019-07-11T08:31:33Z</time>
      </trkpt>
      <trkpt lat="48.81052" lon="-3.47045">
        <ele>92.9</ele>
        <time>2019-07-11T08:31:34Z</time>
      </trkpt>
      <trkpt lat="48.81054" lon="-3.47045">
        <ele>93.6</ele>
        <time>2019-07-11T08:31:35Z</time>
      </trkpt>
      <trkpt lat="48.81057" lon="-3.47045">
        <ele>93.8</ele>
        <time>2019-07-11T08:31:36Z</time>
      </trkpt>
      <trkpt lat="48.81059" lon="-3.47045">
        <ele>94.4</ele>
        <time>2019-07-11T08:31:37Z</time>
      </trkpt>
      <trkpt lat="48.81062" lon="-3.47045">
        <ele>94.8</ele>
        <time>2019-07-11T08:31:38Z</time>
      </trkpt>
      <trkpt lat="48.81065" lon="-3.47045">
        <ele>94.2</ele>
        <time>2019-07-11T08:31:39Z</time>
      </trkpt>
      <trkpt lat="48.8107" lon="-3.47044">
        <ele>92.9</ele>
        <time>2019-07-11T08:31:40Z</time>
      </trkpt>
      <trkpt lat="48.81072" lon="-3.47044">
        <ele>93.1</ele>
        <time>2019-07-11T08:31:41Z</time>
      </trkpt>
      <trkpt lat="48.81075" lon="-3.47043">
        <ele>92.6</ele>
        <time>2019-07-11T08:31:42Z</time>
      </trkpt>
      <trkpt lat="48.81077" lon="-3.47044">
        <ele>91.6</ele>
        <time>2019-07-11T08:31:43Z</time>
      </trkpt>
      <trkpt lat="48.81079" lon="-3.47046">
        <ele>90.8</ele>
        <time>2019-07-11T08:31:44Z</time>
      </trkpt>
      <trkpt lat="48.81081" lon="-3.47048">
        <ele>90.6</ele>
        <time>2019-07-11T08:31:45Z</time>
      </trkpt>
      <trkpt lat="48.81084" lon="-3.4705">
        <ele>90.8</ele>
        <time>2019-07-11T08:31:46Z</time>
      </trkpt>
      <trkpt lat="48.81086" lon="-3.47051">
        <ele>90.8</ele>
        <time>2019-07-11T08:31:47Z</time>
      </trkpt>
      <trkpt lat="48.81088" lon="-3.47051">
        <ele>91.1</ele>
        <time>2019-07-11T08:31:48Z</time>
      </trkpt>
      <trkpt lat="48.81091" lon="-3.47052">
        <ele>90.9</ele>
        <time>2019-07-11T08:31:49Z</time>
      </trkpt>
      <trkpt lat="48.81095" lon="-3.47051">
        <ele>90.1</ele>
        <time>2019-07-11T08:31:50Z</time>
      </trkpt>
      <trkpt lat="48.81099" lon="-3.4705">
        <ele>88.3</ele>
        <time>2019-07-11T08:31:51Z</time>
      </trkpt>
      <trkpt lat="48.81102" lon="-3.47049">
        <ele>88.4</ele>
        <time>2019-07-11T08:31:52Z</time>
      </trkpt>
      <trkpt lat="48.81105" lon="-3.47046">
        <ele>87.6</ele>
        <time>2019-07-11T08:31:53Z</time>
      </trkpt>
      <trkpt lat="48.81108" lon="-3.47044">
        <ele>87.8</ele>
        <time>2019-07-11T08:31:54Z</time>
      </trkpt>
      <trkpt lat="48.8111" lon="-3.47042">
        <ele>88.1</ele>
        <time>2019-07-11T08:31:55Z</time>
      </trkpt>
      <trkpt lat="48.81112" lon="-3.4704">
        <ele>88.3</ele>
        <time>2019-07-11T08:31:56Z</time>
      </trkpt>
      <trkpt lat="48.81113" lon="-3.47038">
        <ele>88.2</ele>
        <time>2019-07-11T08:31:57Z</time>
      </trkpt>
      <trkpt lat="48.81115" lon="-3.47036">
        <ele>88.3</ele>
        <time>2019-07-11T08:31:58Z</time>
      </trkpt>
      <trkpt lat="48.81117" lon="-3.47033">
        <ele>87.9</ele>
        <time>2019-07-11T08:31:59Z</time>
      </trkpt>
      <trkpt lat="48.81118" lon="-3.47031">
        <ele>87.8</ele>
        <time>2019-07-11T08:32:00Z</time>
      </trkpt>
      <trkpt lat="48.81121" lon="-3.47027">
        <ele>86.7</ele>
        <time>2019-07-11T08:32:01Z</time>
      </trkpt>
      <trkpt lat="48.81124" lon="-3.47024">
        <ele>85.9</ele>
        <time>2019-07-11T08:32:02Z</time>
      </trkpt>
      <trkpt lat="48.81126" lon="-3.4702">
        <ele>85.6</ele>
        <time>2019-07-11T08:32:03Z</time>
      </trkpt>
      <trkpt lat="48.81128" lon="-3.47016">
        <ele>85</ele>
        <time>2019-07-11T08:32:04Z</time>
      </trkpt>
      <trkpt lat="48.81131" lon="-3.47013">
        <ele>84.8</ele>
        <time>2019-07-11T08:32:05Z</time>
      </trkpt>
      <trkpt lat="48.81134" lon="-3.47009">
        <ele>83.4</ele>
        <time>2019-07-11T08:32:06Z</time>
      </trkpt>
      <trkpt lat="48.81137" lon="-3.47005">
        <ele>82.5</ele>
        <time>2019-07-11T08:32:07Z</time>
      </trkpt>
      <trkpt lat="48.8114" lon="-3.47001">
        <ele>81.6</ele>
        <time>2019-07-11T08:32:08Z</time>
      </trkpt>
      <trkpt lat="48.81143" lon="-3.46998">
        <ele>80.4</ele>
        <time>2019-07-11T08:32:09Z</time>
      </trkpt>
      <trkpt lat="48.81146" lon="-3.46995">
        <ele>79.6</ele>
        <time>2019-07-11T08:32:10Z</time>
      </trkpt>
      <trkpt lat="48.8115" lon="-3.46992">
        <ele>78.8</ele>
        <time>2019-07-11T08:32:11Z</time>
      </trkpt>
      <trkpt lat="48.81153" lon="-3.46991">
        <ele>78.2</ele>
        <time>2019-07-11T08:32:12Z</time>
      </trkpt>
      <trkpt lat="48.81156" lon="-3.46992">
        <ele>77.5</ele>
        <time>2019-07-11T08:32:13Z</time>
      </trkpt>
      <trkpt lat="48.81159" lon="-3.46993">
        <ele>77.3</ele>
        <time>2019-07-11T08:32:14Z</time>
      </trkpt>
      <trkpt lat="48.81162" lon="-3.46995">
        <ele>77.4</ele>
        <time>2019-07-11T08:32:15Z</time>
      </trkpt>
      <trkpt lat="48.81166" lon="-3.46998">
        <ele>77.6</ele>
        <time>2019-07-11T08:32:16Z</time>
      </trkpt>
      <trkpt lat="48.81169" lon="-3.47001">
        <ele>77.4</ele>
        <time>2019-07-11T08:32:17Z</time>
      </trkpt>
      <trkpt lat="48.81172" lon="-3.47006">
        <ele>77.3</ele>
        <time>2019-07-11T08:32:18Z</time>
      </trkpt>
      <trkpt lat="48.81176" lon="-3.47011">
        <ele>77.7</ele>
        <time>2019-07-11T08:32:19Z</time>
      </trkpt>
      <trkpt lat="48.8118" lon="-3.47015">
        <ele>78.2</ele>
        <time>2019-07-11T08:32:20Z</time>
      </trkpt>
      <trkpt lat="48.81184" lon="-3.47019">
        <ele>78.1</ele>
        <time>2019-07-11T08:32:21Z</time>
      </trkpt>
      <trkpt lat="48.81188" lon="-3.47023">
        <ele>78</ele>
        <time>2019-07-11T08:32:22Z</time>
      </trkpt>
      <trkpt lat="48.81192" lon="-3.47026">
        <ele>77.2</ele>
        <time>2019-07-11T08:32:23Z</time>
      </trkpt>
      <trkpt lat="48.81197" lon="-3.47028">
        <ele>75.9</ele>
        <time>2019-07-11T08:32:24Z</time>
      </trkpt>
      <trkpt lat="48.81202" lon="-3.4703">
        <ele>74.6</ele>
        <time>2019-07-11T08:32:25Z</time>
      </trkpt>
      <trkpt lat="48.81207" lon="-3.47031">
        <ele>73.7</ele>
        <time>2019-07-11T08:32:26Z</time>
      </trkpt>
      <trkpt lat="48.81212" lon="-3.47031">
        <ele>73.4</ele>
        <time>2019-07-11T08:32:27Z</time>
      </trkpt>
      <trkpt lat="48.81216" lon="-3.4703">
        <ele>73.6</ele>
        <time>2019-07-11T08:32:28Z</time>
      </trkpt>
      <trkpt lat="48.8122" lon="-3.47028">
        <ele>73.6</ele>
        <time>2019-07-11T08:32:29Z</time>
      </trkpt>
      <trkpt lat="48.81224" lon="-3.47025">
        <ele>73.7</ele>
        <time>2019-07-11T08:32:30Z</time>
      </trkpt>
      <trkpt lat="48.81228" lon="-3.4702">
        <ele>73.5</ele>
        <time>2019-07-11T08:32:31Z</time>
      </trkpt>
      <trkpt lat="48.81233" lon="-3.47015">
        <ele>73</ele>
        <time>2019-07-11T08:32:32Z</time>
      </trkpt>
      <trkpt lat="48.81237" lon="-3.47011">
        <ele>73.2</ele>
        <time>2019-07-11T08:32:33Z</time>
      </trkpt>
      <trkpt lat="48.81242" lon="-3.47006">
        <ele>73.3</ele>
        <time>2019-07-11T08:32:34Z</time>
      </trkpt>
      <trkpt lat="48.81247" lon="-3.47001">
        <ele>72.8</ele>
        <time>2019-07-11T08:32:35Z</time>
      </trkpt>
      <trkpt lat="48.81252" lon="-3.46995">
        <ele>72.2</ele>
        <time>2019-07-11T08:32:36Z</time>
      </trkpt>
      <trkpt lat="48.81257" lon="-3.4699">
        <ele>71.7</ele>
        <time>2019-07-11T08:32:37Z</time>
      </trkpt>
      <trkpt lat="48.81261" lon="-3.46985">
        <ele>71.1</ele>
        <time>2019-07-11T08:32:38Z</time>
      </trkpt>
      <trkpt lat="48.81266" lon="-3.46979">
        <ele>70.4</ele>
        <time>2019-07-11T08:32:39Z</time>
      </trkpt>
      <trkpt lat="48.8127" lon="-3.46975">
        <ele>69.9</ele>
        <time>2019-07-11T08:32:40Z</time>
      </trkpt>
      <trkpt lat="48.81275" lon="-3.4697">
        <ele>69.5</ele>
        <time>2019-07-11T08:32:41Z</time>
      </trkpt>
      <trkpt lat="48.8128" lon="-3.46964">
        <ele>69.5</ele>
        <time>2019-07-11T08:32:42Z</time>
      </trkpt>
      <trkpt lat="48.81284" lon="-3.46959">
        <ele>69.7</ele>
        <time>2019-07-11T08:32:43Z</time>
      </trkpt>
      <trkpt lat="48.81288" lon="-3.46954">
        <ele>69.5</ele>
        <time>2019-07-11T08:32:44Z</time>
      </trkpt>
      <trkpt lat="48.81292" lon="-3.46948">
        <ele>69.3</ele>
        <time>2019-07-11T08:32:45Z</time>
      </trkpt>
      <trkpt lat="48.81295" lon="-3.46944">
        <ele>68.9</ele>
        <time>2019-07-11T08:32:46Z</time>
      </trkpt>
      <trkpt lat="48.81299" lon="-3.46939">
        <ele>68.6</ele>
        <time>2019-07-11T08:32:47Z</time>
      </trkpt>
      <trkpt lat="48.81303" lon="-3.46934">
        <ele>68.6</ele>
        <time>2019-07-11T08:32:48Z</time>
      </trkpt>
      <trkpt lat="48.81307" lon="-3.46928">
        <ele>67.9</ele>
        <time>2019-07-11T08:32:49Z</time>
      </trkpt>
      <trkpt lat="48.8131" lon="-3.46922">
        <ele>67</ele>
        <time>2019-07-11T08:32:50Z</time>
      </trkpt>
      <trkpt lat="48.81313" lon="-3.46917">
        <ele>66.4</ele>
        <time>2019-07-11T08:32:51Z</time>
      </trkpt>
      <trkpt lat="48.81316" lon="-3.46913">
        <ele>65.9</ele>
        <time>2019-07-11T08:32:52Z</time>
      </trkpt>
      <trkpt lat="48.81319" lon="-3.46909">
        <ele>65.8</ele>
        <time>2019-07-11T08:32:53Z</time>
      </trkpt>
      <trkpt lat="48.81322" lon="-3.46906">
        <ele>65.6</ele>
        <time>2019-07-11T08:32:54Z</time>
      </trkpt>
      <trkpt lat="48.81326" lon="-3.46901">
        <ele>65.6</ele>
        <time>2019-07-11T08:32:55Z</time>
      </trkpt>
      <trkpt lat="48.81329" lon="-3.46896">
        <ele>65.7</ele>
        <time>2019-07-11T08:32:56Z</time>
      </trkpt>
      <trkpt lat="48.81333" lon="-3.46889">
        <ele>65.6</ele>
        <time>2019-07-11T08:32:57Z</time>
      </trkpt>
      <trkpt lat="48.81336" lon="-3.46882">
        <ele>65.6</ele>
        <time>2019-07-11T08:32:58Z</time>
      </trkpt>
      <trkpt lat="48.81339" lon="-3.46877">
        <ele>65.4</ele>
        <time>2019-07-11T08:32:59Z</time>
      </trkpt>
      <trkpt lat="48.81342" lon="-3.46873">
        <ele>65.3</ele>
        <time>2019-07-11T08:33:00Z</time>
      </trkpt>
      <trkpt lat="48.81345" lon="-3.46871">
        <ele>65.1</ele>
        <time>2019-07-11T08:33:01Z</time>
      </trkpt>
      <trkpt lat="48.81348" lon="-3.46869">
        <ele>65.3</ele>
        <time>2019-07-11T08:33:02Z</time>
      </trkpt>
      <trkpt lat="48.81351" lon="-3.46868">
        <ele>65.7</ele>
        <time>2019-07-11T08:33:03Z</time>
      </trkpt>
      <trkpt lat="48.81354" lon="-3.46868">
        <ele>66.3</ele>
        <time>2019-07-11T08:33:04Z</time>
      </trkpt>
      <trkpt lat="48.81357" lon="-3.4687">
        <ele>67</ele>
        <time>2019-07-11T08:33:05Z</time>
      </trkpt>
      <trkpt lat="48.81361" lon="-3.4687">
        <ele>67.3</ele>
        <time>2019-07-11T08:33:06Z</time>
      </trkpt>
      <trkpt lat="48.81366" lon="-3.46871">
        <ele>67.1</ele>
        <time>2019-07-11T08:33:07Z</time>
      </trkpt>
      <trkpt lat="48.8137" lon="-3.4687">
        <ele>67.2</ele>
        <time>2019-07-11T08:33:08Z</time>
      </trkpt>
      <trkpt lat="48.81373" lon="-3.46871">
        <ele>68.1</ele>
        <time>2019-07-11T08:33:09Z</time>
      </trkpt>
      <trkpt lat="48.81377" lon="-3.46871">
        <ele>68.4</ele>
        <time>2019-07-11T08:33:10Z</time>
      </trkpt>
      <trkpt lat="48.81381" lon="-3.46871">
        <ele>68.3</ele>
        <time>2019-07-11T08:33:11Z</time>
      </trkpt>
      <trkpt lat="48.81384" lon="-3.4687">
        <ele>68.1</ele>
        <time>2019-07-11T08:33:12Z</time>
      </trkpt>
      <trkpt lat="48.81387" lon="-3.46869">
        <ele>68</ele>
        <time>2019-07-11T08:33:13Z</time>
      </trkpt>
      <trkpt lat="48.81391" lon="-3.46869">
        <ele>68</ele>
        <time>2019-07-11T08:33:14Z</time>
      </trkpt>
      <trkpt lat="48.81394" lon="-3.4687">
        <ele>68.2</ele>
        <time>2019-07-11T08:33:15Z</time>
      </trkpt>
      <trkpt lat="48.81397" lon="-3.4687">
        <ele>68.3</ele>
        <time>2019-07-11T08:33:16Z</time>
      </trkpt>
      <trkpt lat="48.814" lon="-3.4687">
        <ele>68.4</ele>
        <time>2019-07-11T08:33:17Z</time>
      </trkpt>
      <trkpt lat="48.81404" lon="-3.4687">
        <ele>68.5</ele>
        <time>2019-07-11T08:33:18Z</time>
      </trkpt>
      <trkpt lat="48.81406" lon="-3.4687">
        <ele>68.6</ele>
        <time>2019-07-11T08:33:19Z</time>
      </trkpt>
      <trkpt lat="48.81409" lon="-3.4687">
        <ele>68.6</ele>
        <time>2019-07-11T08:33:20Z</time>
      </trkpt>
      <trkpt lat="48.81412" lon="-3.4687">
        <ele>68.4</ele>
        <time>2019-07-11T08:33:21Z</time>
      </trkpt>
      <trkpt lat="48.81415" lon="-3.46869">
        <ele>68.2</ele>
        <time>2019-07-11T08:33:22Z</time>
      </trkpt>
      <trkpt lat="48.81419" lon="-3.46869">
        <ele>67.8</ele>
        <time>2019-07-11T08:33:23Z</time>
      </trkpt>
      <trkpt lat="48.81422" lon="-3.46869">
        <ele>67.9</ele>
        <time>2019-07-11T08:33:24Z</time>
      </trkpt>
      <trkpt lat="48.81426" lon="-3.4687">
        <ele>67.8</ele>
        <time>2019-07-11T08:33:25Z</time>
      </trkpt>
      <trkpt lat="48.81429" lon="-3.46871">
        <ele>68.1</ele>
        <time>2019-07-11T08:33:26Z</time>
      </trkpt>
      <trkpt lat="48.81433" lon="-3.46872">
        <ele>68.4</ele>
        <time>2019-07-11T08:33:27Z</time>
      </trkpt>
      <trkpt lat="48.81436" lon="-3.46873">
        <ele>68.8</ele>
        <time>2019-07-11T08:33:28Z</time>
      </trkpt>
      <trkpt lat="48.81439" lon="-3.46875">
        <ele>69.1</ele>
        <time>2019-07-11T08:33:29Z</time>
      </trkpt>
      <trkpt lat="48.81442" lon="-3.46876">
        <ele>69.9</ele>
        <time>2019-07-11T08:33:30Z</time>
      </trkpt>
      <trkpt lat="48.81445" lon="-3.46879">
        <ele>70.4</ele>
        <time>2019-07-11T08:33:31Z</time>
      </trkpt>
      <trkpt lat="48.81448" lon="-3.46881">
        <ele>70.8</ele>
        <time>2019-07-11T08:33:32Z</time>
      </trkpt>
      <trkpt lat="48.81451" lon="-3.46883">
        <ele>71.1</ele>
        <time>2019-07-11T08:33:33Z</time>
      </trkpt>
      <trkpt lat="48.81453" lon="-3.46885">
        <ele>70.8</ele>
        <time>2019-07-11T08:33:34Z</time>
      </trkpt>
      <trkpt lat="48.81456" lon="-3.46887">
        <ele>70.6</ele>
        <time>2019-07-11T08:33:35Z</time>
      </trkpt>
      <trkpt lat="48.81458" lon="-3.4689">
        <ele>70.4</ele>
        <time>2019-07-11T08:33:36Z</time>
      </trkpt>
      <trkpt lat="48.8146" lon="-3.46893">
        <ele>70.3</ele>
        <time>2019-07-11T08:33:37Z</time>
      </trkpt>
      <trkpt lat="48.81462" lon="-3.46897">
        <ele>70.1</ele>
        <time>2019-07-11T08:33:38Z</time>
      </trkpt>
      <trkpt lat="48.81464" lon="-3.46902">
        <ele>69.7</ele>
        <time>2019-07-11T08:33:39Z</time>
      </trkpt>
      <trkpt lat="48.81466" lon="-3.46907">
        <ele>69.7</ele>
        <time>2019-07-11T08:33:40Z</time>
      </trkpt>
      <trkpt lat="48.81467" lon="-3.46911">
        <ele>69.5</ele>
        <time>2019-07-11T08:33:41Z</time>
      </trkpt>
      <trkpt lat="48.8147" lon="-3.46916">
        <ele>69.4</ele>
        <time>2019-07-11T08:33:42Z</time>
      </trkpt>
      <trkpt lat="48.81472" lon="-3.4692">
        <ele>69.1</ele>
        <time>2019-07-11T08:33:43Z</time>
      </trkpt>
      <trkpt lat="48.81473" lon="-3.46926">
        <ele>68.6</ele>
        <time>2019-07-11T08:33:44Z</time>
      </trkpt>
      <trkpt lat="48.81475" lon="-3.4693">
        <ele>68.3</ele>
        <time>2019-07-11T08:33:45Z</time>
      </trkpt>
      <trkpt lat="48.81477" lon="-3.46934">
        <ele>68.2</ele>
        <time>2019-07-11T08:33:46Z</time>
      </trkpt>
      <trkpt lat="48.81479" lon="-3.46938">
        <ele>68.2</ele>
        <time>2019-07-11T08:33:47Z</time>
      </trkpt>
      <trkpt lat="48.81481" lon="-3.46942">
        <ele>68.2</ele>
        <time>2019-07-11T08:33:48Z</time>
      </trkpt>
      <trkpt lat="48.81483" lon="-3.46946">
        <ele>67.8</ele>
        <time>2019-07-11T08:33:49Z</time>
      </trkpt>
      <trkpt lat="48.81485" lon="-3.46951">
        <ele>66.9</ele>
        <time>2019-07-11T08:33:50Z</time>
      </trkpt>
      <trkpt lat="48.81487" lon="-3.46956">
        <ele>66.4</ele>
        <time>2019-07-11T08:33:51Z</time>
      </trkpt>
      <trkpt lat="48.81488" lon="-3.4696">
        <ele>65.8</ele>
        <time>2019-07-11T08:33:52Z</time>
      </trkpt>
      <trkpt lat="48.8149" lon="-3.46965">
        <ele>65.5</ele>
        <time>2019-07-11T08:33:53Z</time>
      </trkpt>
      <trkpt lat="48.81492" lon="-3.46969">
        <ele>65.6</ele>
        <time>2019-07-11T08:33:54Z</time>
      </trkpt>
      <trkpt lat="48.81493" lon="-3.46973">
        <ele>65.9</ele>
        <time>2019-07-11T08:33:55Z</time>
      </trkpt>
      <trkpt lat="48.81495" lon="-3.46978">
        <ele>65.9</ele>
        <time>2019-07-11T08:33:56Z</time>
      </trkpt>
      <trkpt lat="48.81496" lon="-3.46982">
        <ele>65.9</ele>
        <time>2019-07-11T08:33:57Z</time>
      </trkpt>
      <trkpt lat="48.81498" lon="-3.46986">
        <ele>65.6</ele>
        <time>2019-07-11T08:33:58Z</time>
      </trkpt>
      <trkpt lat="48.815" lon="-3.46991">
        <ele>65.6</ele>
        <time>2019-07-11T08:33:59Z</time>
      </trkpt>
      <trkpt lat="48.81501" lon="-3.46995">
        <ele>65.6</ele>
        <time>2019-07-11T08:34:00Z</time>
      </trkpt>
      <trkpt lat="48.81503" lon="-3.46999">
        <ele>65.7</ele>
        <time>2019-07-11T08:34:01Z</time>
      </trkpt>
      <trkpt lat="48.81505" lon="-3.47004">
        <ele>65.9</ele>
        <time>2019-07-11T08:34:02Z</time>
      </trkpt>
      <trkpt lat="48.81507" lon="-3.47008">
        <ele>65.9</ele>
        <time>2019-07-11T08:34:03Z</time>
      </trkpt>
      <trkpt lat="48.81509" lon="-3.47012">
        <ele>66.2</ele>
        <time>2019-07-11T08:34:04Z</time>
      </trkpt>
      <trkpt lat="48.81511" lon="-3.47017">
        <ele>66.6</ele>
        <time>2019-07-11T08:34:05Z</time>
      </trkpt>
      <trkpt lat="48.81513" lon="-3.47021">
        <ele>66.8</ele>
        <time>2019-07-11T08:34:06Z</time>
      </trkpt>
      <trkpt lat="48.81515" lon="-3.47025">
        <ele>67.1</ele>
        <time>2019-07-11T08:34:07Z</time>
      </trkpt>
      <trkpt lat="48.81517" lon="-3.47029">
        <ele>67.1</ele>
        <time>2019-07-11T08:34:08Z</time>
      </trkpt>
      <trkpt lat="48.81519" lon="-3.47034">
        <ele>67.1</ele>
        <time>2019-07-11T08:34:09Z</time>
      </trkpt>
      <trkpt lat="48.81521" lon="-3.47038">
        <ele>67.5</ele>
        <time>2019-07-11T08:34:10Z</time>
      </trkpt>
      <trkpt lat="48.81522" lon="-3.47042">
        <ele>67.8</ele>
        <time>2019-07-11T08:34:11Z</time>
      </trkpt>
      <trkpt lat="48.81524" lon="-3.47046">
        <ele>67.9</ele>
        <time>2019-07-11T08:34:12Z</time>
      </trkpt>
      <trkpt lat="48.81525" lon="-3.47051">
        <ele>68.3</ele>
        <time>2019-07-11T08:34:13Z</time>
      </trkpt>
      <trkpt lat="48.81526" lon="-3.47054">
        <ele>68.7</ele>
        <time>2019-07-11T08:34:14Z</time>
      </trkpt>
      <trkpt lat="48.81528" lon="-3.47058">
        <ele>68.8</ele>
        <time>2019-07-11T08:34:15Z</time>
      </trkpt>
      <trkpt lat="48.81529" lon="-3.47063">
        <ele>69.2</ele>
        <time>2019-07-11T08:34:16Z</time>
      </trkpt>
      <trkpt lat="48.8153" lon="-3.47067">
        <ele>69.5</ele>
        <time>2019-07-11T08:34:17Z</time>
      </trkpt>
      <trkpt lat="48.81532" lon="-3.47071">
        <ele>70.5</ele>
        <time>2019-07-11T08:34:18Z</time>
      </trkpt>
      <trkpt lat="48.81533" lon="-3.47075">
        <ele>70.9</ele>
        <time>2019-07-11T08:34:19Z</time>
      </trkpt>
      <trkpt lat="48.81535" lon="-3.47079">
        <ele>70.9</ele>
        <time>2019-07-11T08:34:20Z</time>
      </trkpt>
      <trkpt lat="48.81536" lon="-3.47084">
        <ele>71</ele>
        <time>2019-07-11T08:34:21Z</time>
      </trkpt>
      <trkpt lat="48.81538" lon="-3.47088">
        <ele>70.9</ele>
        <time>2019-07-11T08:34:22Z</time>
      </trkpt>
      <trkpt lat="48.81539" lon="-3.47092">
        <ele>71.3</ele>
        <time>2019-07-11T08:34:23Z</time>
      </trkpt>
      <trkpt lat="48.8154" lon="-3.47096">
        <ele>72.3</ele>
        <time>2019-07-11T08:34:24Z</time>
      </trkpt>
      <trkpt lat="48.81542" lon="-3.471">
        <ele>72.3</ele>
        <time>2019-07-11T08:34:25Z</time>
      </trkpt>
      <trkpt lat="48.81543" lon="-3.47104">
        <ele>72.4</ele>
        <time>2019-07-11T08:34:26Z</time>
      </trkpt>
      <trkpt lat="48.81545" lon="-3.47109">
        <ele>71.1</ele>
        <time>2019-07-11T08:34:27Z</time>
      </trkpt>
      <trkpt lat="48.81547" lon="-3.47113">
        <ele>70.1</ele>
        <time>2019-07-11T08:34:28Z</time>
      </trkpt>
      <trkpt lat="48.81549" lon="-3.47117">
        <ele>68.1</ele>
        <time>2019-07-11T08:34:29Z</time>
      </trkpt>
      <trkpt lat="48.81551" lon="-3.47121">
        <ele>68.1</ele>
        <time>2019-07-11T08:34:30Z</time>
      </trkpt>
      <trkpt lat="48.81554" lon="-3.47124">
        <ele>66.3</ele>
        <time>2019-07-11T08:34:31Z</time>
      </trkpt>
      <trkpt lat="48.81556" lon="-3.47128">
        <ele>65.5</ele>
        <time>2019-07-11T08:34:32Z</time>
      </trkpt>
      <trkpt lat="48.81558" lon="-3.47132">
        <ele>65.3</ele>
        <time>2019-07-11T08:34:33Z</time>
      </trkpt>
      <trkpt lat="48.81561" lon="-3.47135">
        <ele>65.4</ele>
        <time>2019-07-11T08:34:34Z</time>
      </trkpt>
      <trkpt lat="48.81564" lon="-3.47138">
        <ele>65.7</ele>
        <time>2019-07-11T08:34:35Z</time>
      </trkpt>
      <trkpt lat="48.81567" lon="-3.47141">
        <ele>65.9</ele>
        <time>2019-07-11T08:34:36Z</time>
      </trkpt>
      <trkpt lat="48.8157" lon="-3.47144">
        <ele>66.3</ele>
        <time>2019-07-11T08:34:37Z</time>
      </trkpt>
      <trkpt lat="48.81572" lon="-3.47146">
        <ele>67</ele>
        <time>2019-07-11T08:34:38Z</time>
      </trkpt>
      <trkpt lat="48.81575" lon="-3.47149">
        <ele>67.6</ele>
        <time>2019-07-11T08:34:39Z</time>
      </trkpt>
      <trkpt lat="48.81577" lon="-3.47152">
        <ele>68.2</ele>
        <time>2019-07-11T08:34:40Z</time>
      </trkpt>
      <trkpt lat="48.8158" lon="-3.47154">
        <ele>68.7</ele>
        <time>2019-07-11T08:34:41Z</time>
      </trkpt>
      <trkpt lat="48.81583" lon="-3.47157">
        <ele>69.2</ele>
        <time>2019-07-11T08:34:42Z</time>
      </trkpt>
      <trkpt lat="48.81586" lon="-3.47159">
        <ele>69.8</ele>
        <time>2019-07-11T08:34:43Z</time>
      </trkpt>
      <trkpt lat="48.8159" lon="-3.47162">
        <ele>70.3</ele>
        <time>2019-07-11T08:34:44Z</time>
      </trkpt>
      <trkpt lat="48.81593" lon="-3.47165">
        <ele>70.7</ele>
        <time>2019-07-11T08:34:45Z</time>
      </trkpt>
      <trkpt lat="48.81596" lon="-3.47168">
        <ele>71.1</ele>
        <time>2019-07-11T08:34:46Z</time>
      </trkpt>
      <trkpt lat="48.81599" lon="-3.47169">
        <ele>72.7</ele>
        <time>2019-07-11T08:34:47Z</time>
      </trkpt>
      <trkpt lat="48.81603" lon="-3.47172">
        <ele>72.4</ele>
        <time>2019-07-11T08:34:48Z</time>
      </trkpt>
      <trkpt lat="48.81607" lon="-3.47176">
        <ele>71.5</ele>
        <time>2019-07-11T08:34:49Z</time>
      </trkpt>
      <trkpt lat="48.81611" lon="-3.47179">
        <ele>70.8</ele>
        <time>2019-07-11T08:34:50Z</time>
      </trkpt>
      <trkpt lat="48.81614" lon="-3.47182">
        <ele>70.1</ele>
        <time>2019-07-11T08:34:51Z</time>
      </trkpt>
      <trkpt lat="48.81617" lon="-3.47184">
        <ele>70.5</ele>
        <time>2019-07-11T08:34:52Z</time>
      </trkpt>
      <trkpt lat="48.8162" lon="-3.47186">
        <ele>71.2</ele>
        <time>2019-07-11T08:34:53Z</time>
      </trkpt>
      <trkpt lat="48.81623" lon="-3.47188">
        <ele>72.2</ele>
        <time>2019-07-11T08:34:54Z</time>
      </trkpt>
      <trkpt lat="48.81625" lon="-3.47191">
        <ele>72.1</ele>
        <time>2019-07-11T08:34:55Z</time>
      </trkpt>
      <trkpt lat="48.81626" lon="-3.47194">
        <ele>72.3</ele>
        <time>2019-07-11T08:34:56Z</time>
      </trkpt>
      <trkpt lat="48.81626" lon="-3.47197">
        <ele>72.6</ele>
        <time>2019-07-11T08:34:57Z</time>
      </trkpt>
      <trkpt lat="48.81625" lon="-3.47198">
        <ele>73.5</ele>
        <time>2019-07-11T08:34:58Z</time>
      </trkpt>
      <trkpt lat="48.81624" lon="-3.472">
        <ele>74.2</ele>
        <time>2019-07-11T08:34:59Z</time>
      </trkpt>
      <trkpt lat="48.81623" lon="-3.47203">
        <ele>74.6</ele>
        <time>2019-07-11T08:35:00Z</time>
      </trkpt>
      <trkpt lat="48.81622" lon="-3.47205">
        <ele>74.9</ele>
        <time>2019-07-11T08:35:01Z</time>
      </trkpt>
      <trkpt lat="48.81623" lon="-3.47208">
        <ele>74.7</ele>
        <time>2019-07-11T08:35:02Z</time>
      </trkpt>
      <trkpt lat="48.81624" lon="-3.47211">
        <ele>74.6</ele>
        <time>2019-07-11T08:35:03Z</time>
      </trkpt>
      <trkpt lat="48.81624" lon="-3.47213">
        <ele>74.5</ele>
        <time>2019-07-11T08:35:04Z</time>
      </trkpt>
      <trkpt lat="48.81625" lon="-3.47215">
        <ele>74.1</ele>
        <time>2019-07-11T08:35:05Z</time>
      </trkpt>
      <trkpt lat="48.81628" lon="-3.47216">
        <ele>73.8</ele>
        <time>2019-07-11T08:35:06Z</time>
      </trkpt>
      <trkpt lat="48.8163" lon="-3.47218">
        <ele>73.7</ele>
        <time>2019-07-11T08:35:07Z</time>
      </trkpt>
      <trkpt lat="48.81634" lon="-3.47219">
        <ele>73.4</ele>
        <time>2019-07-11T08:35:08Z</time>
      </trkpt>
      <trkpt lat="48.81637" lon="-3.47221">
        <ele>72.3</ele>
        <time>2019-07-11T08:35:09Z</time>
      </trkpt>
      <trkpt lat="48.8164" lon="-3.47222">
        <ele>71.6</ele>
        <time>2019-07-11T08:35:10Z</time>
      </trkpt>
      <trkpt lat="48.81643" lon="-3.47223">
        <ele>70.7</ele>
        <time>2019-07-11T08:35:11Z</time>
      </trkpt>
      <trkpt lat="48.81646" lon="-3.47224">
        <ele>69.2</ele>
        <time>2019-07-11T08:35:12Z</time>
      </trkpt>
      <trkpt lat="48.81649" lon="-3.47225">
        <ele>68.6</ele>
        <time>2019-07-11T08:35:13Z</time>
      </trkpt>
      <trkpt lat="48.81652" lon="-3.47226">
        <ele>67.8</ele>
        <time>2019-07-11T08:35:14Z</time>
      </trkpt>
      <trkpt lat="48.81654" lon="-3.47226">
        <ele>68</ele>
        <time>2019-07-11T08:35:15Z</time>
      </trkpt>
      <trkpt lat="48.81657" lon="-3.47227">
        <ele>67.6</ele>
        <time>2019-07-11T08:35:16Z</time>
      </trkpt>
      <trkpt lat="48.8166" lon="-3.47228">
        <ele>67.6</ele>
        <time>2019-07-11T08:35:17Z</time>
      </trkpt>
      <trkpt lat="48.81662" lon="-3.47229">
        <ele>67.2</ele>
        <time>2019-07-11T08:35:18Z</time>
      </trkpt>
      <trkpt lat="48.81665" lon="-3.4723">
        <ele>65.9</ele>
        <time>2019-07-11T08:35:19Z</time>
      </trkpt>
      <trkpt lat="48.81667" lon="-3.47232">
        <ele>64.3</ele>
        <time>2019-07-11T08:35:20Z</time>
      </trkpt>
      <trkpt lat="48.8167" lon="-3.47234">
        <ele>63.6</ele>
        <time>2019-07-11T08:35:21Z</time>
      </trkpt>
      <trkpt lat="48.81672" lon="-3.47237">
        <ele>63.4</ele>
        <time>2019-07-11T08:35:22Z</time>
      </trkpt>
      <trkpt lat="48.81674" lon="-3.47241">
        <ele>63.2</ele>
        <time>2019-07-11T08:35:23Z</time>
      </trkpt>
      <trkpt lat="48.81675" lon="-3.47245">
        <ele>63.3</ele>
        <time>2019-07-11T08:35:24Z</time>
      </trkpt>
      <trkpt lat="48.81676" lon="-3.47251">
        <ele>63.9</ele>
        <time>2019-07-11T08:35:25Z</time>
      </trkpt>
      <trkpt lat="48.81676" lon="-3.47257">
        <ele>64.5</ele>
        <time>2019-07-11T08:35:26Z</time>
      </trkpt>
      <trkpt lat="48.81676" lon="-3.47262">
        <ele>65.2</ele>
        <time>2019-07-11T08:35:27Z</time>
      </trkpt>
      <trkpt lat="48.81675" lon="-3.47267">
        <ele>65.8</ele>
        <time>2019-07-11T08:35:28Z</time>
      </trkpt>
      <trkpt lat="48.81674" lon="-3.47272">
        <ele>66.3</ele>
        <time>2019-07-11T08:35:29Z</time>
      </trkpt>
      <trkpt lat="48.81673" lon="-3.47277">
        <ele>67.2</ele>
        <time>2019-07-11T08:35:30Z</time>
      </trkpt>
      <trkpt lat="48.81673" lon="-3.47282">
        <ele>68.6</ele>
        <time>2019-07-11T08:35:31Z</time>
      </trkpt>
      <trkpt lat="48.81672" lon="-3.47286">
        <ele>69.3</ele>
        <time>2019-07-11T08:35:32Z</time>
      </trkpt>
      <trkpt lat="48.8167" lon="-3.47291">
        <ele>69.7</ele>
        <time>2019-07-11T08:35:33Z</time>
      </trkpt>
      <trkpt lat="48.81669" lon="-3.47295">
        <ele>70.2</ele>
        <time>2019-07-11T08:35:34Z</time>
      </trkpt>
      <trkpt lat="48.81667" lon="-3.47298">
        <ele>70.5</ele>
        <time>2019-07-11T08:35:35Z</time>
      </trkpt>
      <trkpt lat="48.81666" lon="-3.47302">
        <ele>70.6</ele>
        <time>2019-07-11T08:35:36Z</time>
      </trkpt>
      <trkpt lat="48.81665" lon="-3.47304">
        <ele>71.2</ele>
        <time>2019-07-11T08:35:37Z</time>
      </trkpt>
      <trkpt lat="48.81664" lon="-3.47307">
        <ele>71.8</ele>
        <time>2019-07-11T08:35:38Z</time>
      </trkpt>
      <trkpt lat="48.81662" lon="-3.47309">
        <ele>71.8</ele>
        <time>2019-07-11T08:35:39Z</time>
      </trkpt>
      <trkpt lat="48.81661" lon="-3.47311">
        <ele>71.9</ele>
        <time>2019-07-11T08:35:40Z</time>
      </trkpt>
      <trkpt lat="48.8166" lon="-3.47313">
        <ele>72</ele>
        <time>2019-07-11T08:35:41Z</time>
      </trkpt>
      <trkpt lat="48.81657" lon="-3.47318">
        <ele>71.6</ele>
        <time>2019-07-11T08:39:03Z</time>
      </trkpt>
      <trkpt lat="48.81656" lon="-3.4732">
        <ele>71.5</ele>
        <time>2019-07-11T08:39:04Z</time>
      </trkpt>
      <trkpt lat="48.81656" lon="-3.47323">
        <ele>71.4</ele>
        <time>2019-07-11T08:39:05Z</time>
      </trkpt>
      <trkpt lat="48.81654" lon="-3.47326">
        <ele>71.1</ele>
        <time>2019-07-11T08:39:06Z</time>
      </trkpt>
      <trkpt lat="48.81653" lon="-3.47328">
        <ele>71</ele>
        <time>2019-07-11T08:39:07Z</time>
      </trkpt>
      <trkpt lat="48.81651" lon="-3.47332">
        <ele>70.9</ele>
        <time>2019-07-11T08:39:08Z</time>
      </trkpt>
      <trkpt lat="48.8165" lon="-3.47335">
        <ele>71.1</ele>
        <time>2019-07-11T08:39:09Z</time>
      </trkpt>
      <trkpt lat="48.81649" lon="-3.47339">
        <ele>71.5</ele>
        <time>2019-07-11T08:39:10Z</time>
      </trkpt>
      <trkpt lat="48.81648" lon="-3.47343">
        <ele>71.7</ele>
        <time>2019-07-11T08:39:11Z</time>
      </trkpt>
      <trkpt lat="48.81646" lon="-3.47347">
        <ele>71.8</ele>
        <time>2019-07-11T08:39:12Z</time>
      </trkpt>
      <trkpt lat="48.81645" lon="-3.47351">
        <ele>72.5</ele>
        <time>2019-07-11T08:39:13Z</time>
      </trkpt>
      <trkpt lat="48.81644" lon="-3.47356">
        <ele>72.8</ele>
        <time>2019-07-11T08:39:14Z</time>
      </trkpt>
      <trkpt lat="48.81642" lon="-3.47361">
        <ele>72.6</ele>
        <time>2019-07-11T08:39:15Z</time>
      </trkpt>
      <trkpt lat="48.81641" lon="-3.47366">
        <ele>72.6</ele>
        <time>2019-07-11T08:39:16Z</time>
      </trkpt>
      <trkpt lat="48.8164" lon="-3.47371">
        <ele>72.9</ele>
        <time>2019-07-11T08:39:17Z</time>
      </trkpt>
      <trkpt lat="48.8164" lon="-3.47377">
        <ele>72.2</ele>
        <time>2019-07-11T08:39:18Z</time>
      </trkpt>
      <trkpt lat="48.81639" lon="-3.47384">
        <ele>72.1</ele>
        <time>2019-07-11T08:39:19Z</time>
      </trkpt>
      <trkpt lat="48.81638" lon="-3.47393">
        <ele>71.6</ele>
        <time>2019-07-11T08:39:20Z</time>
      </trkpt>
      <trkpt lat="48.81636" lon="-3.474">
        <ele>71.1</ele>
        <time>2019-07-11T08:39:21Z</time>
      </trkpt>
      <trkpt lat="48.81635" lon="-3.47407">
        <ele>70.5</ele>
        <time>2019-07-11T08:39:22Z</time>
      </trkpt>
      <trkpt lat="48.81634" lon="-3.47414">
        <ele>69.8</ele>
        <time>2019-07-11T08:39:23Z</time>
      </trkpt>
      <trkpt lat="48.81633" lon="-3.47421">
        <ele>69.4</ele>
        <time>2019-07-11T08:39:24Z</time>
      </trkpt>
      <trkpt lat="48.81632" lon="-3.4743">
        <ele>68.7</ele>
        <time>2019-07-11T08:39:25Z</time>
      </trkpt>
      <trkpt lat="48.81631" lon="-3.47438">
        <ele>68.4</ele>
        <time>2019-07-11T08:39:26Z</time>
      </trkpt>
      <trkpt lat="48.8163" lon="-3.47447">
        <ele>67.9</ele>
        <time>2019-07-11T08:39:27Z</time>
      </trkpt>
      <trkpt lat="48.8163" lon="-3.47455">
        <ele>67.4</ele>
        <time>2019-07-11T08:39:28Z</time>
      </trkpt>
      <trkpt lat="48.81629" lon="-3.47462">
        <ele>66.9</ele>
        <time>2019-07-11T08:39:29Z</time>
      </trkpt>
      <trkpt lat="48.81629" lon="-3.4747">
        <ele>66.4</ele>
        <time>2019-07-11T08:39:30Z</time>
      </trkpt>
      <trkpt lat="48.81629" lon="-3.47477">
        <ele>65.8</ele>
        <time>2019-07-11T08:39:31Z</time>
      </trkpt>
      <trkpt lat="48.81628" lon="-3.47485">
        <ele>65.3</ele>
        <time>2019-07-11T08:39:32Z</time>
      </trkpt>
      <trkpt lat="48.81628" lon="-3.47492">
        <ele>64.8</ele>
        <time>2019-07-11T08:39:33Z</time>
      </trkpt>
      <trkpt lat="48.81628" lon="-3.47498">
        <ele>64.2</ele>
        <time>2019-07-11T08:39:34Z</time>
      </trkpt>
      <trkpt lat="48.81628" lon="-3.47503">
        <ele>63.7</ele>
        <time>2019-07-11T08:39:35Z</time>
      </trkpt>
      <trkpt lat="48.81628" lon="-3.47508">
        <ele>63.2</ele>
        <time>2019-07-11T08:39:36Z</time>
      </trkpt>
      <trkpt lat="48.81628" lon="-3.47512">
        <ele>63</ele>
        <time>2019-07-11T08:39:37Z</time>
      </trkpt>
      <trkpt lat="48.81628" lon="-3.47517">
        <ele>62.6</ele>
        <time>2019-07-11T08:39:38Z</time>
      </trkpt>
      <trkpt lat="48.81628" lon="-3.47522">
        <ele>62.3</ele>
        <time>2019-07-11T08:39:39Z</time>
      </trkpt>
      <trkpt lat="48.81629" lon="-3.47527">
        <ele>61.9</ele>
        <time>2019-07-11T08:39:40Z</time>
      </trkpt>
      <trkpt lat="48.81629" lon="-3.47533">
        <ele>61.4</ele>
        <time>2019-07-11T08:39:41Z</time>
      </trkpt>
      <trkpt lat="48.8163" lon="-3.47539">
        <ele>61</ele>
        <time>2019-07-11T08:39:42Z</time>
      </trkpt>
      <trkpt lat="48.8163" lon="-3.47544">
        <ele>60.4</ele>
        <time>2019-07-11T08:39:43Z</time>
      </trkpt>
      <trkpt lat="48.81631" lon="-3.47549">
        <ele>59.8</ele>
        <time>2019-07-11T08:39:44Z</time>
      </trkpt>
      <trkpt lat="48.81632" lon="-3.47553">
        <ele>59.5</ele>
        <time>2019-07-11T08:39:45Z</time>
      </trkpt>
      <trkpt lat="48.81632" lon="-3.47556">
        <ele>59.2</ele>
        <time>2019-07-11T08:39:46Z</time>
      </trkpt>
      <trkpt lat="48.81632" lon="-3.47559">
        <ele>58.9</ele>
        <time>2019-07-11T08:39:47Z</time>
      </trkpt>
      <trkpt lat="48.81632" lon="-3.47561">
        <ele>58.7</ele>
        <time>2019-07-11T08:39:48Z</time>
      </trkpt>
      <trkpt lat="48.81632" lon="-3.47563">
        <ele>58.4</ele>
        <time>2019-07-11T08:39:49Z</time>
      </trkpt>
      <trkpt lat="48.81631" lon="-3.47566">
        <ele>58.3</ele>
        <time>2019-07-11T08:39:50Z</time>
      </trkpt>
      <trkpt lat="48.8163" lon="-3.47568">
        <ele>58.5</ele>
        <time>2019-07-11T08:39:51Z</time>
      </trkpt>
      <trkpt lat="48.81629" lon="-3.4757">
        <ele>58.7</ele>
        <time>2019-07-11T08:39:52Z</time>
      </trkpt>
      <trkpt lat="48.81627" lon="-3.4757">
        <ele>59</ele>
        <time>2019-07-11T08:39:53Z</time>
      </trkpt>
      <trkpt lat="48.81626" lon="-3.4757">
        <ele>58.9</ele>
        <time>2019-07-11T08:39:54Z</time>
      </trkpt>
      <trkpt lat="48.81624" lon="-3.47569">
        <ele>58.7</ele>
        <time>2019-07-11T08:39:55Z</time>
      </trkpt>
      <trkpt lat="48.81623" lon="-3.47568">
        <ele>58.8</ele>
        <time>2019-07-11T08:39:56Z</time>
      </trkpt>
      <trkpt lat="48.81621" lon="-3.47567">
        <ele>58.9</ele>
        <time>2019-07-11T08:39:57Z</time>
      </trkpt>
      <trkpt lat="48.81619" lon="-3.47566">
        <ele>58.7</ele>
        <time>2019-07-11T08:39:58Z</time>
      </trkpt>
      <trkpt lat="48.81616" lon="-3.47564">
        <ele>58.9</ele>
        <time>2019-07-11T08:39:59Z</time>
      </trkpt>
      <trkpt lat="48.81614" lon="-3.47562">
        <ele>58.8</ele>
        <time>2019-07-11T08:40:00Z</time>
      </trkpt>
      <trkpt lat="48.81612" lon="-3.47561">
        <ele>58.9</ele>
        <time>2019-07-11T08:40:01Z</time>
      </trkpt>
      <trkpt lat="48.8161" lon="-3.47559">
        <ele>59.1</ele>
        <time>2019-07-11T08:40:02Z</time>
      </trkpt>
      <trkpt lat="48.81608" lon="-3.47558">
        <ele>58.7</ele>
        <time>2019-07-11T08:40:03Z</time>
      </trkpt>
      <trkpt lat="48.81606" lon="-3.47557">
        <ele>58.6</ele>
        <time>2019-07-11T08:40:04Z</time>
      </trkpt>
      <trkpt lat="48.81604" lon="-3.47556">
        <ele>58.8</ele>
        <time>2019-07-11T08:40:05Z</time>
      </trkpt>
      <trkpt lat="48.81602" lon="-3.47555">
        <ele>59</ele>
        <time>2019-07-11T08:40:06Z</time>
      </trkpt>
      <trkpt lat="48.816" lon="-3.47553">
        <ele>58.7</ele>
        <time>2019-07-11T08:40:07Z</time>
      </trkpt>
      <trkpt lat="48.81598" lon="-3.47552">
        <ele>58.2</ele>
        <time>2019-07-11T08:40:08Z</time>
      </trkpt>
      <trkpt lat="48.81596" lon="-3.47551">
        <ele>58.6</ele>
        <time>2019-07-11T08:40:09Z</time>
      </trkpt>
      <trkpt lat="48.81594" lon="-3.4755">
        <ele>58.6</ele>
        <time>2019-07-11T08:40:10Z</time>
      </trkpt>
      <trkpt lat="48.81592" lon="-3.47549">
        <ele>58.7</ele>
        <time>2019-07-11T08:40:11Z</time>
      </trkpt>
      <trkpt lat="48.8159" lon="-3.47548">
        <ele>59.1</ele>
        <time>2019-07-11T08:40:12Z</time>
      </trkpt>
      <trkpt lat="48.81588" lon="-3.47548">
        <ele>59.5</ele>
        <time>2019-07-11T08:40:13Z</time>
      </trkpt>
      <trkpt lat="48.81586" lon="-3.47546">
        <ele>59.4</ele>
        <time>2019-07-11T08:40:14Z</time>
      </trkpt>
      <trkpt lat="48.81584" lon="-3.47545">
        <ele>59.5</ele>
        <time>2019-07-11T08:40:15Z</time>
      </trkpt>
      <trkpt lat="48.81582" lon="-3.47544">
        <ele>59.5</ele>
        <time>2019-07-11T08:40:16Z</time>
      </trkpt>
      <trkpt lat="48.81579" lon="-3.47544">
        <ele>59.8</ele>
        <time>2019-07-11T08:40:17Z</time>
      </trkpt>
      <trkpt lat="48.81577" lon="-3.47546">
        <ele>60.2</ele>
        <time>2019-07-11T08:40:18Z</time>
      </trkpt>
      <trkpt lat="48.81575" lon="-3.47549">
        <ele>60.4</ele>
        <time>2019-07-11T08:40:19Z</time>
      </trkpt>
      <trkpt lat="48.81575" lon="-3.47554">
        <ele>60.6</ele>
        <time>2019-07-11T08:40:20Z</time>
      </trkpt>
      <trkpt lat="48.81575" lon="-3.4756">
        <ele>60.7</ele>
        <time>2019-07-11T08:40:21Z</time>
      </trkpt>
      <trkpt lat="48.81578" lon="-3.47567">
        <ele>60.5</ele>
        <time>2019-07-11T08:40:22Z</time>
      </trkpt>
      <trkpt lat="48.8158" lon="-3.47574">
        <ele>59.9</ele>
        <time>2019-07-11T08:40:23Z</time>
      </trkpt>
      <trkpt lat="48.81583" lon="-3.47581">
        <ele>58.8</ele>
        <time>2019-07-11T08:40:24Z</time>
      </trkpt>
      <trkpt lat="48.81587" lon="-3.47589">
        <ele>58</ele>
        <time>2019-07-11T08:40:25Z</time>
      </trkpt>
      <trkpt lat="48.81589" lon="-3.47598">
        <ele>57.4</ele>
        <time>2019-07-11T08:40:26Z</time>
      </trkpt>
      <trkpt lat="48.81592" lon="-3.47609">
        <ele>56.3</ele>
        <time>2019-07-11T08:40:27Z</time>
      </trkpt>
      <trkpt lat="48.81595" lon="-3.4762">
        <ele>55.2</ele>
        <time>2019-07-11T08:40:28Z</time>
      </trkpt>
      <trkpt lat="48.81597" lon="-3.47633">
        <ele>54</ele>
        <time>2019-07-11T08:40:29Z</time>
      </trkpt>
      <trkpt lat="48.81599" lon="-3.47646">
        <ele>52.9</ele>
        <time>2019-07-11T08:40:30Z</time>
      </trkpt>
      <trkpt lat="48.81599" lon="-3.47662">
        <ele>53.4</ele>
        <time>2019-07-11T08:40:31Z</time>
      </trkpt>
      <trkpt lat="48.81601" lon="-3.47676">
        <ele>53.2</ele>
        <time>2019-07-11T08:40:32Z</time>
      </trkpt>
      <trkpt lat="48.81601" lon="-3.47691">
        <ele>52.5</ele>
        <time>2019-07-11T08:40:33Z</time>
      </trkpt>
      <trkpt lat="48.81602" lon="-3.47707">
        <ele>51.6</ele>
        <time>2019-07-11T08:40:34Z</time>
      </trkpt>
      <trkpt lat="48.81604" lon="-3.47723">
        <ele>51.2</ele>
        <time>2019-07-11T08:40:35Z</time>
      </trkpt>
      <trkpt lat="48.81607" lon="-3.47739">
        <ele>52.5</ele>
        <time>2019-07-11T08:40:36Z</time>
      </trkpt>
      <trkpt lat="48.81607" lon="-3.47754">
        <ele>52.4</ele>
        <time>2019-07-11T08:40:37Z</time>
      </trkpt>
      <trkpt lat="48.81607" lon="-3.4777">
        <ele>51.8</ele>
        <time>2019-07-11T08:40:38Z</time>
      </trkpt>
      <trkpt lat="48.81607" lon="-3.47785">
        <ele>49.8</ele>
        <time>2019-07-11T08:40:39Z</time>
      </trkpt>
      <trkpt lat="48.81606" lon="-3.47798">
        <ele>49.1</ele>
        <time>2019-07-11T08:40:40Z</time>
      </trkpt>
      <trkpt lat="48.81605" lon="-3.47813">
        <ele>47.6</ele>
        <time>2019-07-11T08:40:41Z</time>
      </trkpt>
      <trkpt lat="48.81606" lon="-3.47829">
        <ele>46.6</ele>
        <time>2019-07-11T08:40:42Z</time>
      </trkpt>
      <trkpt lat="48.81607" lon="-3.47845">
        <ele>46</ele>
        <time>2019-07-11T08:40:43Z</time>
      </trkpt>
      <trkpt lat="48.81607" lon="-3.47856">
        <ele>46.7</ele>
        <time>2019-07-11T08:40:44Z</time>
      </trkpt>
      <trkpt lat="48.81607" lon="-3.4787">
        <ele>46.3</ele>
        <time>2019-07-11T08:40:45Z</time>
      </trkpt>
      <trkpt lat="48.81608" lon="-3.47879">
        <ele>45.7</ele>
        <time>2019-07-11T08:40:46Z</time>
      </trkpt>
      <trkpt lat="48.81612" lon="-3.47885">
        <ele>45.2</ele>
        <time>2019-07-11T08:40:47Z</time>
      </trkpt>
      <trkpt lat="48.81613" lon="-3.4789">
        <ele>44.2</ele>
        <time>2019-07-11T08:40:48Z</time>
      </trkpt>
      <trkpt lat="48.81614" lon="-3.47894">
        <ele>43.9</ele>
        <time>2019-07-11T08:40:49Z</time>
      </trkpt>
      <trkpt lat="48.81615" lon="-3.47899">
        <ele>43.1</ele>
        <time>2019-07-11T08:40:50Z</time>
      </trkpt>
      <trkpt lat="48.81616" lon="-3.47901">
        <ele>42.7</ele>
        <time>2019-07-11T08:40:51Z</time>
      </trkpt>
      <trkpt lat="48.81616" lon="-3.47904">
        <ele>42.4</ele>
        <time>2019-07-11T08:40:52Z</time>
      </trkpt>
      <trkpt lat="48.81615" lon="-3.47909">
        <ele>42</ele>
        <time>2019-07-11T08:40:53Z</time>
      </trkpt>
      <trkpt lat="48.81614" lon="-3.47913">
        <ele>41.7</ele>
        <time>2019-07-11T08:40:54Z</time>
      </trkpt>
      <trkpt lat="48.81613" lon="-3.47918">
        <ele>41.3</ele>
        <time>2019-07-11T08:40:55Z</time>
      </trkpt>
      <trkpt lat="48.81613" lon="-3.47923">
        <ele>40.8</ele>
        <time>2019-07-11T08:40:56Z</time>
      </trkpt>
      <trkpt lat="48.81613" lon="-3.47929">
        <ele>40.8</ele>
        <time>2019-07-11T08:40:57Z</time>
      </trkpt>
      <trkpt lat="48.81613" lon="-3.47934">
        <ele>41</ele>
        <time>2019-07-11T08:40:58Z</time>
      </trkpt>
      <trkpt lat="48.81613" lon="-3.47939">
        <ele>41.7</ele>
        <time>2019-07-11T08:40:59Z</time>
      </trkpt>
      <trkpt lat="48.81614" lon="-3.47944">
        <ele>41.7</ele>
        <time>2019-07-11T08:41:00Z</time>
      </trkpt>
      <trkpt lat="48.81614" lon="-3.47949">
        <ele>41.6</ele>
        <time>2019-07-11T08:41:01Z</time>
      </trkpt>
      <trkpt lat="48.81615" lon="-3.47956">
        <ele>42.8</ele>
        <time>2019-07-11T08:41:02Z</time>
      </trkpt>
      <trkpt lat="48.81616" lon="-3.4796">
        <ele>43.8</ele>
        <time>2019-07-11T08:41:03Z</time>
      </trkpt>
      <trkpt lat="48.81617" lon="-3.47965">
        <ele>44.2</ele>
        <time>2019-07-11T08:41:04Z</time>
      </trkpt>
      <trkpt lat="48.81619" lon="-3.47969">
        <ele>44.8</ele>
        <time>2019-07-11T08:41:05Z</time>
      </trkpt>
      <trkpt lat="48.8162" lon="-3.47974">
        <ele>44.6</ele>
        <time>2019-07-11T08:41:06Z</time>
      </trkpt>
      <trkpt lat="48.81622" lon="-3.4798">
        <ele>44.2</ele>
        <time>2019-07-11T08:41:07Z</time>
      </trkpt>
      <trkpt lat="48.81624" lon="-3.47985">
        <ele>43.9</ele>
        <time>2019-07-11T08:41:08Z</time>
      </trkpt>
      <trkpt lat="48.81626" lon="-3.47992">
        <ele>44.1</ele>
        <time>2019-07-11T08:41:09Z</time>
      </trkpt>
      <trkpt lat="48.81628" lon="-3.48">
        <ele>43.9</ele>
        <time>2019-07-11T08:41:10Z</time>
      </trkpt>
      <trkpt lat="48.81629" lon="-3.4801">
        <ele>43.5</ele>
        <time>2019-07-11T08:41:11Z</time>
      </trkpt>
      <trkpt lat="48.8163" lon="-3.48021">
        <ele>43</ele>
        <time>2019-07-11T08:41:12Z</time>
      </trkpt>
      <trkpt lat="48.8163" lon="-3.48032">
        <ele>42.9</ele>
        <time>2019-07-11T08:41:13Z</time>
      </trkpt>
      <trkpt lat="48.81631" lon="-3.48042">
        <ele>42.8</ele>
        <time>2019-07-11T08:41:14Z</time>
      </trkpt>
      <trkpt lat="48.8163" lon="-3.48053">
        <ele>42.7</ele>
        <time>2019-07-11T08:41:15Z</time>
      </trkpt>
      <trkpt lat="48.81629" lon="-3.48064">
        <ele>42.5</ele>
        <time>2019-07-11T08:41:16Z</time>
      </trkpt>
      <trkpt lat="48.81627" lon="-3.48074">
        <ele>42.4</ele>
        <time>2019-07-11T08:41:17Z</time>
      </trkpt>
      <trkpt lat="48.81623" lon="-3.4809">
        <ele>41.5</ele>
        <time>2019-07-11T08:41:18Z</time>
      </trkpt>
      <trkpt lat="48.81618" lon="-3.48103">
        <ele>40.7</ele>
        <time>2019-07-11T08:41:19Z</time>
      </trkpt>
      <trkpt lat="48.81613" lon="-3.48117">
        <ele>40.1</ele>
        <time>2019-07-11T08:41:20Z</time>
      </trkpt>
      <trkpt lat="48.81609" lon="-3.48129">
        <ele>39.8</ele>
        <time>2019-07-11T08:41:21Z</time>
      </trkpt>
      <trkpt lat="48.81606" lon="-3.48138">
        <ele>39.3</ele>
        <time>2019-07-11T08:41:22Z</time>
      </trkpt>
      <trkpt lat="48.81602" lon="-3.48149">
        <ele>38.4</ele>
        <time>2019-07-11T08:41:23Z</time>
      </trkpt>
      <trkpt lat="48.81598" lon="-3.4816">
        <ele>37.9</ele>
        <time>2019-07-11T08:41:24Z</time>
      </trkpt>
      <trkpt lat="48.81593" lon="-3.4817">
        <ele>37.3</ele>
        <time>2019-07-11T08:41:25Z</time>
      </trkpt>
      <trkpt lat="48.81588" lon="-3.48181">
        <ele>36.9</ele>
        <time>2019-07-11T08:41:26Z</time>
      </trkpt>
      <trkpt lat="48.81582" lon="-3.48191">
        <ele>36.5</ele>
        <time>2019-07-11T08:41:27Z</time>
      </trkpt>
      <trkpt lat="48.81577" lon="-3.48201">
        <ele>35.8</ele>
        <time>2019-07-11T08:41:28Z</time>
      </trkpt>
      <trkpt lat="48.81572" lon="-3.48209">
        <ele>35.4</ele>
        <time>2019-07-11T08:41:29Z</time>
      </trkpt>
      <trkpt lat="48.81569" lon="-3.48216">
        <ele>34.6</ele>
        <time>2019-07-11T08:41:30Z</time>
      </trkpt>
      <trkpt lat="48.81564" lon="-3.48223">
        <ele>34.1</ele>
        <time>2019-07-11T08:41:31Z</time>
      </trkpt>
      <trkpt lat="48.8156" lon="-3.48229">
        <ele>33.7</ele>
        <time>2019-07-11T08:41:32Z</time>
      </trkpt>
      <trkpt lat="48.81556" lon="-3.48236">
        <ele>32.9</ele>
        <time>2019-07-11T08:41:33Z</time>
      </trkpt>
      <trkpt lat="48.81553" lon="-3.48242">
        <ele>32</ele>
        <time>2019-07-11T08:41:34Z</time>
      </trkpt>
      <trkpt lat="48.8155" lon="-3.48249">
        <ele>31.2</ele>
        <time>2019-07-11T08:41:35Z</time>
      </trkpt>
      <trkpt lat="48.81545" lon="-3.48252">
        <ele>30.2</ele>
        <time>2019-07-11T08:41:36Z</time>
      </trkpt>
      <trkpt lat="48.81541" lon="-3.4826">
        <ele>29.9</ele>
        <time>2019-07-11T08:41:37Z</time>
      </trkpt>
      <trkpt lat="48.81537" lon="-3.48268">
        <ele>28.7</ele>
        <time>2019-07-11T08:41:38Z</time>
      </trkpt>
      <trkpt lat="48.8153" lon="-3.48279">
        <ele>26.9</ele>
        <time>2019-07-11T08:41:39Z</time>
      </trkpt>
      <trkpt lat="48.81524" lon="-3.4829">
        <ele>25.7</ele>
        <time>2019-07-11T08:41:40Z</time>
      </trkpt>
      <trkpt lat="48.81519" lon="-3.48298">
        <ele>24.8</ele>
        <time>2019-07-11T08:41:41Z</time>
      </trkpt>
      <trkpt lat="48.81515" lon="-3.48307">
        <ele>23.8</ele>
        <time>2019-07-11T08:41:42Z</time>
      </trkpt>
      <trkpt lat="48.81511" lon="-3.48316">
        <ele>23</ele>
        <time>2019-07-11T08:41:43Z</time>
      </trkpt>
      <trkpt lat="48.81507" lon="-3.48326">
        <ele>22.2</ele>
        <time>2019-07-11T08:41:44Z</time>
      </trkpt>
      <trkpt lat="48.81504" lon="-3.48334">
        <ele>21.5</ele>
        <time>2019-07-11T08:41:45Z</time>
      </trkpt>
      <trkpt lat="48.81501" lon="-3.48341">
        <ele>20.8</ele>
        <time>2019-07-11T08:41:46Z</time>
      </trkpt>
      <trkpt lat="48.81496" lon="-3.48348">
        <ele>21.1</ele>
        <time>2019-07-11T08:41:47Z</time>
      </trkpt>
      <trkpt lat="48.81492" lon="-3.48355">
        <ele>21.6</ele>
        <time>2019-07-11T08:41:48Z</time>
      </trkpt>
      <trkpt lat="48.81489" lon="-3.4836">
        <ele>21</ele>
        <time>2019-07-11T08:41:49Z</time>
      </trkpt>
      <trkpt lat="48.81487" lon="-3.48367">
        <ele>21</ele>
        <time>2019-07-11T08:41:50Z</time>
      </trkpt>
      <trkpt lat="48.81484" lon="-3.48372">
        <ele>20.5</ele>
        <time>2019-07-11T08:41:51Z</time>
      </trkpt>
      <trkpt lat="48.81482" lon="-3.48377">
        <ele>20.2</ele>
        <time>2019-07-11T08:41:52Z</time>
      </trkpt>
      <trkpt lat="48.8148" lon="-3.48381">
        <ele>20.3</ele>
        <time>2019-07-11T08:41:53Z</time>
      </trkpt>
      <trkpt lat="48.81478" lon="-3.48385">
        <ele>19.6</ele>
        <time>2019-07-11T08:41:54Z</time>
      </trkpt>
      <trkpt lat="48.81475" lon="-3.4839">
        <ele>20.1</ele>
        <time>2019-07-11T08:41:55Z</time>
      </trkpt>
      <trkpt lat="48.81474" lon="-3.48393">
        <ele>20.6</ele>
        <time>2019-07-11T08:41:56Z</time>
      </trkpt>
      <trkpt lat="48.81471" lon="-3.48398">
        <ele>20.8</ele>
        <time>2019-07-11T08:41:57Z</time>
      </trkpt>
      <trkpt lat="48.81469" lon="-3.48401">
        <ele>20.7</ele>
        <time>2019-07-11T08:41:58Z</time>
      </trkpt>
      <trkpt lat="48.81467" lon="-3.48405">
        <ele>20.5</ele>
        <time>2019-07-11T08:41:59Z</time>
      </trkpt>
      <trkpt lat="48.81465" lon="-3.48409">
        <ele>20.4</ele>
        <time>2019-07-11T08:42:00Z</time>
      </trkpt>
      <trkpt lat="48.81464" lon="-3.48412">
        <ele>19.9</ele>
        <time>2019-07-11T08:42:01Z</time>
      </trkpt>
      <trkpt lat="48.81462" lon="-3.48416">
        <ele>19.7</ele>
        <time>2019-07-11T08:42:02Z</time>
      </trkpt>
      <trkpt lat="48.8146" lon="-3.48419">
        <ele>19.6</ele>
        <time>2019-07-11T08:42:03Z</time>
      </trkpt>
      <trkpt lat="48.81458" lon="-3.48423">
        <ele>19.7</ele>
        <time>2019-07-11T08:42:04Z</time>
      </trkpt>
      <trkpt lat="48.81456" lon="-3.48426">
        <ele>19.9</ele>
        <time>2019-07-11T08:42:05Z</time>
      </trkpt>
      <trkpt lat="48.81455" lon="-3.48429">
        <ele>20.1</ele>
        <time>2019-07-11T08:42:06Z</time>
      </trkpt>
      <trkpt lat="48.81453" lon="-3.48432">
        <ele>20.3</ele>
        <time>2019-07-11T08:42:07Z</time>
      </trkpt>
      <trkpt lat="48.81451" lon="-3.48435">
        <ele>20.5</ele>
        <time>2019-07-11T08:42:08Z</time>
      </trkpt>
      <trkpt lat="48.8145" lon="-3.48438">
        <ele>20.8</ele>
        <time>2019-07-11T08:42:09Z</time>
      </trkpt>
      <trkpt lat="48.81448" lon="-3.48441">
        <ele>20.9</ele>
        <time>2019-07-11T08:42:10Z</time>
      </trkpt>
      <trkpt lat="48.81447" lon="-3.48443">
        <ele>21.2</ele>
        <time>2019-07-11T08:42:11Z</time>
      </trkpt>
      <trkpt lat="48.81445" lon="-3.48446">
        <ele>21.4</ele>
        <time>2019-07-11T08:42:12Z</time>
      </trkpt>
      <trkpt lat="48.81444" lon="-3.48449">
        <ele>21.6</ele>
        <time>2019-07-11T08:42:13Z</time>
      </trkpt>
      <trkpt lat="48.81442" lon="-3.48452">
        <ele>22</ele>
        <time>2019-07-11T08:42:14Z</time>
      </trkpt>
      <trkpt lat="48.81441" lon="-3.48454">
        <ele>22.4</ele>
        <time>2019-07-11T08:42:15Z</time>
      </trkpt>
      <trkpt lat="48.81439" lon="-3.48457">
        <ele>22.8</ele>
        <time>2019-07-11T08:42:16Z</time>
      </trkpt>
      <trkpt lat="48.81438" lon="-3.48459">
        <ele>23.1</ele>
        <time>2019-07-11T08:42:17Z</time>
      </trkpt>
      <trkpt lat="48.81437" lon="-3.48462">
        <ele>23.4</ele>
        <time>2019-07-11T08:42:18Z</time>
      </trkpt>
      <trkpt lat="48.81435" lon="-3.48465">
        <ele>23.8</ele>
        <time>2019-07-11T08:42:19Z</time>
      </trkpt>
      <trkpt lat="48.81434" lon="-3.48467">
        <ele>24.8</ele>
        <time>2019-07-11T08:42:20Z</time>
      </trkpt>
      <trkpt lat="48.81433" lon="-3.48469">
        <ele>26.4</ele>
        <time>2019-07-11T08:42:21Z</time>
      </trkpt>
      <trkpt lat="48.81431" lon="-3.4847">
        <ele>28.1</ele>
        <time>2019-07-11T08:42:22Z</time>
      </trkpt>
      <trkpt lat="48.8143" lon="-3.48473">
        <ele>28.9</ele>
        <time>2019-07-11T08:42:23Z</time>
      </trkpt>
      <trkpt lat="48.81429" lon="-3.48476">
        <ele>30.3</ele>
        <time>2019-07-11T08:42:24Z</time>
      </trkpt>
      <trkpt lat="48.81428" lon="-3.48479">
        <ele>31.8</ele>
        <time>2019-07-11T08:42:25Z</time>
      </trkpt>
      <trkpt lat="48.81427" lon="-3.48482">
        <ele>32.9</ele>
        <time>2019-07-11T08:42:26Z</time>
      </trkpt>
      <trkpt lat="48.81426" lon="-3.48485">
        <ele>33.9</ele>
        <time>2019-07-11T08:42:27Z</time>
      </trkpt>
      <trkpt lat="48.81426" lon="-3.48488">
        <ele>34.8</ele>
        <time>2019-07-11T08:42:28Z</time>
      </trkpt>
      <trkpt lat="48.81426" lon="-3.4849">
        <ele>34.9</ele>
        <time>2019-07-11T08:42:29Z</time>
      </trkpt>
      <trkpt lat="48.81424" lon="-3.48492">
        <ele>35.3</ele>
        <time>2019-07-11T08:42:30Z</time>
      </trkpt>
      <trkpt lat="48.81423" lon="-3.48495">
        <ele>35.4</ele>
        <time>2019-07-11T08:42:31Z</time>
      </trkpt>
      <trkpt lat="48.81421" lon="-3.48497">
        <ele>35.9</ele>
        <time>2019-07-11T08:42:32Z</time>
      </trkpt>
      <trkpt lat="48.8142" lon="-3.48499">
        <ele>36.1</ele>
        <time>2019-07-11T08:42:33Z</time>
      </trkpt>
      <trkpt lat="48.81419" lon="-3.48501">
        <ele>36.4</ele>
        <time>2019-07-11T08:42:34Z</time>
      </trkpt>
      <trkpt lat="48.81418" lon="-3.48503">
        <ele>36.7</ele>
        <time>2019-07-11T08:42:35Z</time>
      </trkpt>
      <trkpt lat="48.81417" lon="-3.48505">
        <ele>37.2</ele>
        <time>2019-07-11T08:42:36Z</time>
      </trkpt>
      <trkpt lat="48.81416" lon="-3.48508">
        <ele>37.6</ele>
        <time>2019-07-11T08:42:37Z</time>
      </trkpt>
      <trkpt lat="48.81416" lon="-3.4851">
        <ele>37.1</ele>
        <time>2019-07-11T08:42:38Z</time>
      </trkpt>
      <trkpt lat="48.81414" lon="-3.48513">
        <ele>36.4</ele>
        <time>2019-07-11T08:42:39Z</time>
      </trkpt>
      <trkpt lat="48.81413" lon="-3.48517">
        <ele>35.4</ele>
        <time>2019-07-11T08:42:40Z</time>
      </trkpt>
      <trkpt lat="48.81412" lon="-3.4852">
        <ele>34.7</ele>
        <time>2019-07-11T08:42:41Z</time>
      </trkpt>
      <trkpt lat="48.8141" lon="-3.48523">
        <ele>33.7</ele>
        <time>2019-07-11T08:42:42Z</time>
      </trkpt>
      <trkpt lat="48.81409" lon="-3.48526">
        <ele>33.4</ele>
        <time>2019-07-11T08:42:43Z</time>
      </trkpt>
      <trkpt lat="48.81408" lon="-3.48529">
        <ele>32.8</ele>
        <time>2019-07-11T08:42:44Z</time>
      </trkpt>
      <trkpt lat="48.81406" lon="-3.48532">
        <ele>32.8</ele>
        <time>2019-07-11T08:42:45Z</time>
      </trkpt>
      <trkpt lat="48.81405" lon="-3.48535">
        <ele>33</ele>
        <time>2019-07-11T08:42:46Z</time>
      </trkpt>
      <trkpt lat="48.81403" lon="-3.48538">
        <ele>33</ele>
        <time>2019-07-11T08:42:47Z</time>
      </trkpt>
      <trkpt lat="48.81402" lon="-3.4854">
        <ele>33.3</ele>
        <time>2019-07-11T08:42:48Z</time>
      </trkpt>
      <trkpt lat="48.81401" lon="-3.48543">
        <ele>33.7</ele>
        <time>2019-07-11T08:42:49Z</time>
      </trkpt>
      <trkpt lat="48.814" lon="-3.48546">
        <ele>34.1</ele>
        <time>2019-07-11T08:42:50Z</time>
      </trkpt>
      <trkpt lat="48.81399" lon="-3.48549">
        <ele>34.5</ele>
        <time>2019-07-11T08:42:51Z</time>
      </trkpt>
      <trkpt lat="48.81398" lon="-3.48552">
        <ele>34.9</ele>
        <time>2019-07-11T08:42:52Z</time>
      </trkpt>
      <trkpt lat="48.81397" lon="-3.48554">
        <ele>35.2</ele>
        <time>2019-07-11T08:42:53Z</time>
      </trkpt>
      <trkpt lat="48.81395" lon="-3.48557">
        <ele>35.5</ele>
        <time>2019-07-11T08:42:54Z</time>
      </trkpt>
      <trkpt lat="48.81394" lon="-3.48559">
        <ele>35.6</ele>
        <time>2019-07-11T08:42:55Z</time>
      </trkpt>
      <trkpt lat="48.81393" lon="-3.48562">
        <ele>35.4</ele>
        <time>2019-07-11T08:42:56Z</time>
      </trkpt>
      <trkpt lat="48.81392" lon="-3.48565">
        <ele>35.4</ele>
        <time>2019-07-11T08:42:57Z</time>
      </trkpt>
      <trkpt lat="48.81391" lon="-3.48568">
        <ele>35.4</ele>
        <time>2019-07-11T08:42:58Z</time>
      </trkpt>
      <trkpt lat="48.8139" lon="-3.4857">
        <ele>35.3</ele>
        <time>2019-07-11T08:42:59Z</time>
      </trkpt>
      <trkpt lat="48.8139" lon="-3.48573">
        <ele>35.5</ele>
        <time>2019-07-11T08:43:00Z</time>
      </trkpt>
      <trkpt lat="48.81389" lon="-3.48575">
        <ele>35.4</ele>
        <time>2019-07-11T08:43:01Z</time>
      </trkpt>
      <trkpt lat="48.81388" lon="-3.48577">
        <ele>35.9</ele>
        <time>2019-07-11T08:43:02Z</time>
      </trkpt>
      <trkpt lat="48.81387" lon="-3.48579">
        <ele>36.2</ele>
        <time>2019-07-11T08:43:03Z</time>
      </trkpt>
      <trkpt lat="48.81385" lon="-3.48581">
        <ele>36.5</ele>
        <time>2019-07-11T08:43:04Z</time>
      </trkpt>
      <trkpt lat="48.81385" lon="-3.48584">
        <ele>36.6</ele>
        <time>2019-07-11T08:43:05Z</time>
      </trkpt>
      <trkpt lat="48.81384" lon="-3.48587">
        <ele>36.4</ele>
        <time>2019-07-11T08:43:06Z</time>
      </trkpt>
      <trkpt lat="48.81382" lon="-3.48589">
        <ele>36.4</ele>
        <time>2019-07-11T08:43:07Z</time>
      </trkpt>
      <trkpt lat="48.81381" lon="-3.48592">
        <ele>36.2</ele>
        <time>2019-07-11T08:43:08Z</time>
      </trkpt>
      <trkpt lat="48.81381" lon="-3.48595">
        <ele>36.3</ele>
        <time>2019-07-11T08:43:09Z</time>
      </trkpt>
      <trkpt lat="48.8138" lon="-3.48597">
        <ele>36.6</ele>
        <time>2019-07-11T08:43:10Z</time>
      </trkpt>
      <trkpt lat="48.81379" lon="-3.486">
        <ele>36.7</ele>
        <time>2019-07-11T08:43:11Z</time>
      </trkpt>
      <trkpt lat="48.81379" lon="-3.48602">
        <ele>36.6</ele>
        <time>2019-07-11T08:43:12Z</time>
      </trkpt>
      <trkpt lat="48.81379" lon="-3.48604">
        <ele>36.7</ele>
        <time>2019-07-11T08:43:13Z</time>
      </trkpt>
      <trkpt lat="48.81378" lon="-3.48607">
        <ele>37.1</ele>
        <time>2019-07-11T08:43:14Z</time>
      </trkpt>
      <trkpt lat="48.81377" lon="-3.4861">
        <ele>37.4</ele>
        <time>2019-07-11T08:43:15Z</time>
      </trkpt>
      <trkpt lat="48.81377" lon="-3.48613">
        <ele>37.1</ele>
        <time>2019-07-11T08:43:16Z</time>
      </trkpt>
      <trkpt lat="48.81376" lon="-3.48616">
        <ele>37</ele>
        <time>2019-07-11T08:43:17Z</time>
      </trkpt>
      <trkpt lat="48.81376" lon="-3.48618">
        <ele>36.8</ele>
        <time>2019-07-11T08:43:18Z</time>
      </trkpt>
      <trkpt lat="48.81375" lon="-3.48621">
        <ele>36.8</ele>
        <time>2019-07-11T08:43:19Z</time>
      </trkpt>
      <trkpt lat="48.81374" lon="-3.48624">
        <ele>36.9</ele>
        <time>2019-07-11T08:43:20Z</time>
      </trkpt>
      <trkpt lat="48.81374" lon="-3.48626">
        <ele>37.3</ele>
        <time>2019-07-11T08:43:21Z</time>
      </trkpt>
      <trkpt lat="48.81374" lon="-3.48629">
        <ele>37.5</ele>
        <time>2019-07-11T08:43:22Z</time>
      </trkpt>
      <trkpt lat="48.81373" lon="-3.48631">
        <ele>38.2</ele>
        <time>2019-07-11T08:43:23Z</time>
      </trkpt>
      <trkpt lat="48.81373" lon="-3.48633">
        <ele>39</ele>
        <time>2019-07-11T08:43:24Z</time>
      </trkpt>
      <trkpt lat="48.81373" lon="-3.48636">
        <ele>39.7</ele>
        <time>2019-07-11T08:43:25Z</time>
      </trkpt>
      <trkpt lat="48.81372" lon="-3.48638">
        <ele>40.5</ele>
        <time>2019-07-11T08:43:26Z</time>
      </trkpt>
      <trkpt lat="48.81371" lon="-3.4864">
        <ele>41</ele>
        <time>2019-07-11T08:43:27Z</time>
      </trkpt>
      <trkpt lat="48.81371" lon="-3.48643">
        <ele>41.3</ele>
        <time>2019-07-11T08:43:28Z</time>
      </trkpt>
      <trkpt lat="48.8137" lon="-3.48646">
        <ele>41.7</ele>
        <time>2019-07-11T08:43:29Z</time>
      </trkpt>
      <trkpt lat="48.81369" lon="-3.48648">
        <ele>42.1</ele>
        <time>2019-07-11T08:43:30Z</time>
      </trkpt>
      <trkpt lat="48.81369" lon="-3.48652">
        <ele>42.3</ele>
        <time>2019-07-11T08:43:31Z</time>
      </trkpt>
      <trkpt lat="48.81369" lon="-3.48655">
        <ele>42.5</ele>
        <time>2019-07-11T08:43:32Z</time>
      </trkpt>
      <trkpt lat="48.81369" lon="-3.48658">
        <ele>42.9</ele>
        <time>2019-07-11T08:43:33Z</time>
      </trkpt>
      <trkpt lat="48.81368" lon="-3.48661">
        <ele>43</ele>
        <time>2019-07-11T08:43:34Z</time>
      </trkpt>
      <trkpt lat="48.81367" lon="-3.48663">
        <ele>43.4</ele>
        <time>2019-07-11T08:43:35Z</time>
      </trkpt>
      <trkpt lat="48.81366" lon="-3.48665">
        <ele>43.5</ele>
        <time>2019-07-11T08:43:36Z</time>
      </trkpt>
      <trkpt lat="48.81365" lon="-3.48668">
        <ele>43.6</ele>
        <time>2019-07-11T08:43:37Z</time>
      </trkpt>
      <trkpt lat="48.81364" lon="-3.48671">
        <ele>43.7</ele>
        <time>2019-07-11T08:43:38Z</time>
      </trkpt>
      <trkpt lat="48.81363" lon="-3.48673">
        <ele>43.7</ele>
        <time>2019-07-11T08:43:39Z</time>
      </trkpt>
      <trkpt lat="48.81362" lon="-3.48676">
        <ele>43.7</ele>
        <time>2019-07-11T08:43:40Z</time>
      </trkpt>
      <trkpt lat="48.81361" lon="-3.48678">
        <ele>43.8</ele>
        <time>2019-07-11T08:43:41Z</time>
      </trkpt>
      <trkpt lat="48.8136" lon="-3.48681">
        <ele>43.8</ele>
        <time>2019-07-11T08:43:42Z</time>
      </trkpt>
      <trkpt lat="48.8136" lon="-3.48683">
        <ele>44</ele>
        <time>2019-07-11T08:43:43Z</time>
      </trkpt>
      <trkpt lat="48.81358" lon="-3.48686">
        <ele>44</ele>
        <time>2019-07-11T08:43:44Z</time>
      </trkpt>
      <trkpt lat="48.81358" lon="-3.48688">
        <ele>44</ele>
        <time>2019-07-11T08:43:45Z</time>
      </trkpt>
      <trkpt lat="48.81357" lon="-3.48691">
        <ele>43.8</ele>
        <time>2019-07-11T08:43:46Z</time>
      </trkpt>
      <trkpt lat="48.81356" lon="-3.48694">
        <ele>43.4</ele>
        <time>2019-07-11T08:43:47Z</time>
      </trkpt>
      <trkpt lat="48.81356" lon="-3.48697">
        <ele>43.3</ele>
        <time>2019-07-11T08:43:48Z</time>
      </trkpt>
      <trkpt lat="48.81355" lon="-3.48699">
        <ele>43.3</ele>
        <time>2019-07-11T08:43:49Z</time>
      </trkpt>
      <trkpt lat="48.81354" lon="-3.48702">
        <ele>43.3</ele>
        <time>2019-07-11T08:43:50Z</time>
      </trkpt>
      <trkpt lat="48.81353" lon="-3.48704">
        <ele>43.3</ele>
        <time>2019-07-11T08:43:51Z</time>
      </trkpt>
      <trkpt lat="48.81352" lon="-3.48706">
        <ele>43.3</ele>
        <time>2019-07-11T08:43:52Z</time>
      </trkpt>
      <trkpt lat="48.81351" lon="-3.48709">
        <ele>43.5</ele>
        <time>2019-07-11T08:43:53Z</time>
      </trkpt>
      <trkpt lat="48.8135" lon="-3.48711">
        <ele>43.4</ele>
        <time>2019-07-11T08:43:54Z</time>
      </trkpt>
      <trkpt lat="48.81349" lon="-3.48714">
        <ele>43.3</ele>
        <time>2019-07-11T08:43:55Z</time>
      </trkpt>
      <trkpt lat="48.81348" lon="-3.48716">
        <ele>43.4</ele>
        <time>2019-07-11T08:43:56Z</time>
      </trkpt>
      <trkpt lat="48.81348" lon="-3.48719">
        <ele>43.6</ele>
        <time>2019-07-11T08:43:57Z</time>
      </trkpt>
      <trkpt lat="48.81348" lon="-3.48722">
        <ele>43.8</ele>
        <time>2019-07-11T08:43:58Z</time>
      </trkpt>
      <trkpt lat="48.81347" lon="-3.48724">
        <ele>43.9</ele>
        <time>2019-07-11T08:43:59Z</time>
      </trkpt>
      <trkpt lat="48.81347" lon="-3.48727">
        <ele>43.8</ele>
        <time>2019-07-11T08:44:00Z</time>
      </trkpt>
      <trkpt lat="48.81347" lon="-3.4873">
        <ele>43.8</ele>
        <time>2019-07-11T08:44:01Z</time>
      </trkpt>
      <trkpt lat="48.81347" lon="-3.48733">
        <ele>44.1</ele>
        <time>2019-07-11T08:44:02Z</time>
      </trkpt>
      <trkpt lat="48.81347" lon="-3.48737">
        <ele>44.4</ele>
        <time>2019-07-11T08:44:03Z</time>
      </trkpt>
      <trkpt lat="48.81347" lon="-3.4874">
        <ele>44.7</ele>
        <time>2019-07-11T08:44:04Z</time>
      </trkpt>
      <trkpt lat="48.81346" lon="-3.48742">
        <ele>44.9</ele>
        <time>2019-07-11T08:44:05Z</time>
      </trkpt>
      <trkpt lat="48.81345" lon="-3.48744">
        <ele>45.6</ele>
        <time>2019-07-11T08:44:06Z</time>
      </trkpt>
      <trkpt lat="48.81344" lon="-3.48747">
        <ele>45.8</ele>
        <time>2019-07-11T08:44:07Z</time>
      </trkpt>
      <trkpt lat="48.81342" lon="-3.4875">
        <ele>45.9</ele>
        <time>2019-07-11T08:44:08Z</time>
      </trkpt>
      <trkpt lat="48.81342" lon="-3.48754">
        <ele>45.8</ele>
        <time>2019-07-11T08:44:09Z</time>
      </trkpt>
      <trkpt lat="48.81341" lon="-3.48757">
        <ele>45.9</ele>
        <time>2019-07-11T08:44:10Z</time>
      </trkpt>
      <trkpt lat="48.81341" lon="-3.48759">
        <ele>46.1</ele>
        <time>2019-07-11T08:44:11Z</time>
      </trkpt>
      <trkpt lat="48.81341" lon="-3.48761">
        <ele>46.7</ele>
        <time>2019-07-11T08:44:12Z</time>
      </trkpt>
      <trkpt lat="48.81341" lon="-3.48763">
        <ele>47.3</ele>
        <time>2019-07-11T08:44:13Z</time>
      </trkpt>
      <trkpt lat="48.81341" lon="-3.48766">
        <ele>47.7</ele>
        <time>2019-07-11T08:44:14Z</time>
      </trkpt>
      <trkpt lat="48.81342" lon="-3.48769">
        <ele>48.1</ele>
        <time>2019-07-11T08:44:15Z</time>
      </trkpt>
      <trkpt lat="48.81343" lon="-3.48771">
        <ele>48.5</ele>
        <time>2019-07-11T08:44:16Z</time>
      </trkpt>
      <trkpt lat="48.81344" lon="-3.48774">
        <ele>48.8</ele>
        <time>2019-07-11T08:44:17Z</time>
      </trkpt>
      <trkpt lat="48.81344" lon="-3.48776">
        <ele>49.1</ele>
        <time>2019-07-11T08:44:18Z</time>
      </trkpt>
      <trkpt lat="48.81344" lon="-3.48779">
        <ele>49.7</ele>
        <time>2019-07-11T08:44:19Z</time>
      </trkpt>
      <trkpt lat="48.81345" lon="-3.48781">
        <ele>49.9</ele>
        <time>2019-07-11T08:44:20Z</time>
      </trkpt>
      <trkpt lat="48.81347" lon="-3.48785">
        <ele>50.1</ele>
        <time>2019-07-11T08:44:21Z</time>
      </trkpt>
      <trkpt lat="48.81348" lon="-3.48787">
        <ele>50.3</ele>
        <time>2019-07-11T08:44:22Z</time>
      </trkpt>
      <trkpt lat="48.8135" lon="-3.4879">
        <ele>50.2</ele>
        <time>2019-07-11T08:44:23Z</time>
      </trkpt>
      <trkpt lat="48.81351" lon="-3.48792">
        <ele>49.9</ele>
        <time>2019-07-11T08:44:24Z</time>
      </trkpt>
      <trkpt lat="48.81353" lon="-3.48795">
        <ele>49.9</ele>
        <time>2019-07-11T08:44:25Z</time>
      </trkpt>
      <trkpt lat="48.81355" lon="-3.48796">
        <ele>49.8</ele>
        <time>2019-07-11T08:44:26Z</time>
      </trkpt>
      <trkpt lat="48.81356" lon="-3.48797">
        <ele>50.2</ele>
        <time>2019-07-11T08:44:27Z</time>
      </trkpt>
      <trkpt lat="48.81357" lon="-3.48798">
        <ele>50.4</ele>
        <time>2019-07-11T08:44:28Z</time>
      </trkpt>
      <trkpt lat="48.81359" lon="-3.48799">
        <ele>50.4</ele>
        <time>2019-07-11T08:44:29Z</time>
      </trkpt>
      <trkpt lat="48.81361" lon="-3.48799">
        <ele>50.5</ele>
        <time>2019-07-11T08:44:30Z</time>
      </trkpt>
      <trkpt lat="48.81362" lon="-3.488">
        <ele>50.4</ele>
        <time>2019-07-11T08:44:31Z</time>
      </trkpt>
      <trkpt lat="48.81364" lon="-3.48801">
        <ele>50.4</ele>
        <time>2019-07-11T08:44:32Z</time>
      </trkpt>
      <trkpt lat="48.81366" lon="-3.48802">
        <ele>50.1</ele>
        <time>2019-07-11T08:44:33Z</time>
      </trkpt>
      <trkpt lat="48.81368" lon="-3.48803">
        <ele>49.8</ele>
        <time>2019-07-11T08:44:34Z</time>
      </trkpt>
      <trkpt lat="48.81369" lon="-3.48804">
        <ele>49.7</ele>
        <time>2019-07-11T08:44:35Z</time>
      </trkpt>
      <trkpt lat="48.8137" lon="-3.48805">
        <ele>49.7</ele>
        <time>2019-07-11T08:44:36Z</time>
      </trkpt>
      <trkpt lat="48.81372" lon="-3.48806">
        <ele>49.5</ele>
        <time>2019-07-11T08:44:37Z</time>
      </trkpt>
      <trkpt lat="48.81374" lon="-3.48807">
        <ele>49.6</ele>
        <time>2019-07-11T08:44:38Z</time>
      </trkpt>
      <trkpt lat="48.81376" lon="-3.48809">
        <ele>49.8</ele>
        <time>2019-07-11T08:44:39Z</time>
      </trkpt>
      <trkpt lat="48.81377" lon="-3.4881">
        <ele>49.7</ele>
        <time>2019-07-11T08:44:40Z</time>
      </trkpt>
      <trkpt lat="48.81378" lon="-3.48812">
        <ele>49.9</ele>
        <time>2019-07-11T08:44:41Z</time>
      </trkpt>
      <trkpt lat="48.81379" lon="-3.48814">
        <ele>49.9</ele>
        <time>2019-07-11T08:44:42Z</time>
      </trkpt>
      <trkpt lat="48.81381" lon="-3.48815">
        <ele>50.2</ele>
        <time>2019-07-11T08:44:43Z</time>
      </trkpt>
      <trkpt lat="48.81382" lon="-3.48817">
        <ele>50.7</ele>
        <time>2019-07-11T08:44:44Z</time>
      </trkpt>
      <trkpt lat="48.81382" lon="-3.48819">
        <ele>51</ele>
        <time>2019-07-11T08:44:45Z</time>
      </trkpt>
      <trkpt lat="48.81383" lon="-3.48821">
        <ele>51.3</ele>
        <time>2019-07-11T08:44:46Z</time>
      </trkpt>
      <trkpt lat="48.81384" lon="-3.48823">
        <ele>51.2</ele>
        <time>2019-07-11T08:44:47Z</time>
      </trkpt>
      <trkpt lat="48.81385" lon="-3.48826">
        <ele>50.9</ele>
        <time>2019-07-11T08:44:48Z</time>
      </trkpt>
      <trkpt lat="48.81386" lon="-3.48829">
        <ele>50.8</ele>
        <time>2019-07-11T08:44:49Z</time>
      </trkpt>
      <trkpt lat="48.81387" lon="-3.48832">
        <ele>50.5</ele>
        <time>2019-07-11T08:44:50Z</time>
      </trkpt>
      <trkpt lat="48.81387" lon="-3.48835">
        <ele>50.3</ele>
        <time>2019-07-11T08:44:51Z</time>
      </trkpt>
      <trkpt lat="48.81387" lon="-3.48837">
        <ele>50.1</ele>
        <time>2019-07-11T08:44:52Z</time>
      </trkpt>
      <trkpt lat="48.81388" lon="-3.4884">
        <ele>49.8</ele>
        <time>2019-07-11T08:44:53Z</time>
      </trkpt>
      <trkpt lat="48.81388" lon="-3.48843">
        <ele>49.6</ele>
        <time>2019-07-11T08:44:54Z</time>
      </trkpt>
      <trkpt lat="48.81389" lon="-3.48846">
        <ele>49.7</ele>
        <time>2019-07-11T08:44:55Z</time>
      </trkpt>
      <trkpt lat="48.81389" lon="-3.48849">
        <ele>49.6</ele>
        <time>2019-07-11T08:44:56Z</time>
      </trkpt>
      <trkpt lat="48.81389" lon="-3.48851">
        <ele>49.6</ele>
        <time>2019-07-11T08:44:57Z</time>
      </trkpt>
      <trkpt lat="48.8139" lon="-3.48854">
        <ele>49.6</ele>
        <time>2019-07-11T08:44:58Z</time>
      </trkpt>
      <trkpt lat="48.8139" lon="-3.48857">
        <ele>49.8</ele>
        <time>2019-07-11T08:44:59Z</time>
      </trkpt>
      <trkpt lat="48.8139" lon="-3.48859">
        <ele>50.1</ele>
        <time>2019-07-11T08:45:00Z</time>
      </trkpt>
      <trkpt lat="48.81391" lon="-3.48862">
        <ele>50.6</ele>
        <time>2019-07-11T08:45:01Z</time>
      </trkpt>
      <trkpt lat="48.81391" lon="-3.48865">
        <ele>50.8</ele>
        <time>2019-07-11T08:45:02Z</time>
      </trkpt>
      <trkpt lat="48.81392" lon="-3.48868">
        <ele>51.1</ele>
        <time>2019-07-11T08:45:03Z</time>
      </trkpt>
      <trkpt lat="48.81393" lon="-3.48871">
        <ele>51.4</ele>
        <time>2019-07-11T08:45:04Z</time>
      </trkpt>
      <trkpt lat="48.81395" lon="-3.48872">
        <ele>51.5</ele>
        <time>2019-07-11T08:45:05Z</time>
      </trkpt>
      <trkpt lat="48.81398" lon="-3.48872">
        <ele>51.6</ele>
        <time>2019-07-11T08:45:06Z</time>
      </trkpt>
      <trkpt lat="48.814" lon="-3.48872">
        <ele>51.7</ele>
        <time>2019-07-11T08:45:07Z</time>
      </trkpt>
      <trkpt lat="48.81402" lon="-3.48872">
        <ele>51.7</ele>
        <time>2019-07-11T08:45:08Z</time>
      </trkpt>
      <trkpt lat="48.81405" lon="-3.48872">
        <ele>51.6</ele>
        <time>2019-07-11T08:45:09Z</time>
      </trkpt>
      <trkpt lat="48.81408" lon="-3.48871">
        <ele>51.4</ele>
        <time>2019-07-11T08:45:10Z</time>
      </trkpt>
      <trkpt lat="48.81411" lon="-3.48872">
        <ele>51</ele>
        <time>2019-07-11T08:45:11Z</time>
      </trkpt>
      <trkpt lat="48.81414" lon="-3.48872">
        <ele>50.7</ele>
        <time>2019-07-11T08:45:12Z</time>
      </trkpt>
      <trkpt lat="48.81418" lon="-3.48872">
        <ele>50</ele>
        <time>2019-07-11T08:45:13Z</time>
      </trkpt>
      <trkpt lat="48.81421" lon="-3.48872">
        <ele>50.3</ele>
        <time>2019-07-11T08:45:14Z</time>
      </trkpt>
      <trkpt lat="48.81424" lon="-3.48872">
        <ele>50.3</ele>
        <time>2019-07-11T08:45:15Z</time>
      </trkpt>
      <trkpt lat="48.81428" lon="-3.48872">
        <ele>50.2</ele>
        <time>2019-07-11T08:45:16Z</time>
      </trkpt>
      <trkpt lat="48.81432" lon="-3.48872">
        <ele>50</ele>
        <time>2019-07-11T08:45:17Z</time>
      </trkpt>
      <trkpt lat="48.81437" lon="-3.48872">
        <ele>49.6</ele>
        <time>2019-07-11T08:45:18Z</time>
      </trkpt>
      <trkpt lat="48.81441" lon="-3.48872">
        <ele>49.4</ele>
        <time>2019-07-11T08:45:19Z</time>
      </trkpt>
      <trkpt lat="48.81447" lon="-3.48873">
        <ele>48.8</ele>
        <time>2019-07-11T08:45:20Z</time>
      </trkpt>
      <trkpt lat="48.81451" lon="-3.48872">
        <ele>49</ele>
        <time>2019-07-11T08:45:21Z</time>
      </trkpt>
      <trkpt lat="48.81456" lon="-3.48873">
        <ele>49.2</ele>
        <time>2019-07-11T08:45:22Z</time>
      </trkpt>
      <trkpt lat="48.81461" lon="-3.48873">
        <ele>49.5</ele>
        <time>2019-07-11T08:45:23Z</time>
      </trkpt>
      <trkpt lat="48.81467" lon="-3.48875">
        <ele>50</ele>
        <time>2019-07-11T08:45:24Z</time>
      </trkpt>
      <trkpt lat="48.81472" lon="-3.48877">
        <ele>50.1</ele>
        <time>2019-07-11T08:45:25Z</time>
      </trkpt>
      <trkpt lat="48.81478" lon="-3.48879">
        <ele>50.2</ele>
        <time>2019-07-11T08:45:26Z</time>
      </trkpt>
      <trkpt lat="48.81483" lon="-3.48881">
        <ele>50.5</ele>
        <time>2019-07-11T08:45:27Z</time>
      </trkpt>
      <trkpt lat="48.81488" lon="-3.48884">
        <ele>50.5</ele>
        <time>2019-07-11T08:45:28Z</time>
      </trkpt>
      <trkpt lat="48.81493" lon="-3.48885">
        <ele>50.3</ele>
        <time>2019-07-11T08:45:29Z</time>
      </trkpt>
      <trkpt lat="48.815" lon="-3.48886">
        <ele>50</ele>
        <time>2019-07-11T08:45:30Z</time>
      </trkpt>
      <trkpt lat="48.81505" lon="-3.48885">
        <ele>50.4</ele>
        <time>2019-07-11T08:45:31Z</time>
      </trkpt>
      <trkpt lat="48.81509" lon="-3.48884">
        <ele>50.7</ele>
        <time>2019-07-11T08:45:32Z</time>
      </trkpt>
      <trkpt lat="48.81514" lon="-3.48882">
        <ele>51.1</ele>
        <time>2019-07-11T08:45:33Z</time>
      </trkpt>
      <trkpt lat="48.81519" lon="-3.48883">
        <ele>50.8</ele>
        <time>2019-07-11T08:45:34Z</time>
      </trkpt>
      <trkpt lat="48.81524" lon="-3.48883">
        <ele>50.9</ele>
        <time>2019-07-11T08:45:35Z</time>
      </trkpt>
      <trkpt lat="48.81529" lon="-3.48882">
        <ele>50.3</ele>
        <time>2019-07-11T08:45:36Z</time>
      </trkpt>
      <trkpt lat="48.81534" lon="-3.48883">
        <ele>50.3</ele>
        <time>2019-07-11T08:45:37Z</time>
      </trkpt>
      <trkpt lat="48.81539" lon="-3.48883">
        <ele>50</ele>
        <time>2019-07-11T08:45:38Z</time>
      </trkpt>
      <trkpt lat="48.81544" lon="-3.48883">
        <ele>50.1</ele>
        <time>2019-07-11T08:45:39Z</time>
      </trkpt>
      <trkpt lat="48.81549" lon="-3.48883">
        <ele>49.8</ele>
        <time>2019-07-11T08:45:40Z</time>
      </trkpt>
      <trkpt lat="48.81554" lon="-3.48883">
        <ele>49.7</ele>
        <time>2019-07-11T08:45:41Z</time>
      </trkpt>
      <trkpt lat="48.81558" lon="-3.48882">
        <ele>49.9</ele>
        <time>2019-07-11T08:45:42Z</time>
      </trkpt>
      <trkpt lat="48.81562" lon="-3.48882">
        <ele>49.6</ele>
        <time>2019-07-11T08:45:43Z</time>
      </trkpt>
      <trkpt lat="48.81566" lon="-3.48883">
        <ele>49.5</ele>
        <time>2019-07-11T08:45:44Z</time>
      </trkpt>
      <trkpt lat="48.81569" lon="-3.48883">
        <ele>49.5</ele>
        <time>2019-07-11T08:45:45Z</time>
      </trkpt>
      <trkpt lat="48.81573" lon="-3.48884">
        <ele>49.7</ele>
        <time>2019-07-11T08:45:46Z</time>
      </trkpt>
      <trkpt lat="48.81576" lon="-3.48884">
        <ele>50.1</ele>
        <time>2019-07-11T08:45:47Z</time>
      </trkpt>
      <trkpt lat="48.8158" lon="-3.48884">
        <ele>50.2</ele>
        <time>2019-07-11T08:45:48Z</time>
      </trkpt>
      <trkpt lat="48.81584" lon="-3.48883">
        <ele>50</ele>
        <time>2019-07-11T08:45:49Z</time>
      </trkpt>
      <trkpt lat="48.81588" lon="-3.48884">
        <ele>50</ele>
        <time>2019-07-11T08:45:50Z</time>
      </trkpt>
      <trkpt lat="48.81593" lon="-3.48884">
        <ele>49.3</ele>
        <time>2019-07-11T08:45:51Z</time>
      </trkpt>
      <trkpt lat="48.81599" lon="-3.48884">
        <ele>48.3</ele>
        <time>2019-07-11T08:45:52Z</time>
      </trkpt>
      <trkpt lat="48.81604" lon="-3.48885">
        <ele>47.9</ele>
        <time>2019-07-11T08:45:53Z</time>
      </trkpt>
      <trkpt lat="48.81609" lon="-3.48886">
        <ele>47.5</ele>
        <time>2019-07-11T08:45:54Z</time>
      </trkpt>
      <trkpt lat="48.81615" lon="-3.48887">
        <ele>46.7</ele>
        <time>2019-07-11T08:45:55Z</time>
      </trkpt>
      <trkpt lat="48.8162" lon="-3.48887">
        <ele>46.5</ele>
        <time>2019-07-11T08:45:56Z</time>
      </trkpt>
      <trkpt lat="48.81627" lon="-3.48887">
        <ele>46.5</ele>
        <time>2019-07-11T08:45:57Z</time>
      </trkpt>
      <trkpt lat="48.81633" lon="-3.48887">
        <ele>46.3</ele>
        <time>2019-07-11T08:45:58Z</time>
      </trkpt>
      <trkpt lat="48.81639" lon="-3.48886">
        <ele>45.9</ele>
        <time>2019-07-11T08:45:59Z</time>
      </trkpt>
      <trkpt lat="48.81645" lon="-3.48886">
        <ele>45.5</ele>
        <time>2019-07-11T08:46:00Z</time>
      </trkpt>
      <trkpt lat="48.81652" lon="-3.48886">
        <ele>44.9</ele>
        <time>2019-07-11T08:46:01Z</time>
      </trkpt>
      <trkpt lat="48.81658" lon="-3.48887">
        <ele>44.5</ele>
        <time>2019-07-11T08:46:02Z</time>
      </trkpt>
      <trkpt lat="48.81665" lon="-3.48889">
        <ele>43.7</ele>
        <time>2019-07-11T08:46:03Z</time>
      </trkpt>
      <trkpt lat="48.81672" lon="-3.48892">
        <ele>43.2</ele>
        <time>2019-07-11T08:46:04Z</time>
      </trkpt>
      <trkpt lat="48.81678" lon="-3.48895">
        <ele>42.9</ele>
        <time>2019-07-11T08:46:05Z</time>
      </trkpt>
      <trkpt lat="48.81684" lon="-3.48898">
        <ele>42.6</ele>
        <time>2019-07-11T08:46:06Z</time>
      </trkpt>
      <trkpt lat="48.81691" lon="-3.48901">
        <ele>42.5</ele>
        <time>2019-07-11T08:46:07Z</time>
      </trkpt>
      <trkpt lat="48.81697" lon="-3.48903">
        <ele>42.2</ele>
        <time>2019-07-11T08:46:08Z</time>
      </trkpt>
      <trkpt lat="48.81703" lon="-3.48906">
        <ele>42.2</ele>
        <time>2019-07-11T08:46:09Z</time>
      </trkpt>
      <trkpt lat="48.81709" lon="-3.48908">
        <ele>42.4</ele>
        <time>2019-07-11T08:46:10Z</time>
      </trkpt>
      <trkpt lat="48.81715" lon="-3.4891">
        <ele>42.5</ele>
        <time>2019-07-11T08:46:11Z</time>
      </trkpt>
      <trkpt lat="48.81721" lon="-3.48911">
        <ele>42.7</ele>
        <time>2019-07-11T08:46:12Z</time>
      </trkpt>
      <trkpt lat="48.81727" lon="-3.48911">
        <ele>42.6</ele>
        <time>2019-07-11T08:46:13Z</time>
      </trkpt>
      <trkpt lat="48.81733" lon="-3.48911">
        <ele>42.7</ele>
        <time>2019-07-11T08:46:14Z</time>
      </trkpt>
      <trkpt lat="48.81738" lon="-3.48911">
        <ele>42.7</ele>
        <time>2019-07-11T08:46:15Z</time>
      </trkpt>
      <trkpt lat="48.81744" lon="-3.4891">
        <ele>42.4</ele>
        <time>2019-07-11T08:46:16Z</time>
      </trkpt>
      <trkpt lat="48.81749" lon="-3.4891">
        <ele>42.4</ele>
        <time>2019-07-11T08:46:17Z</time>
      </trkpt>
      <trkpt lat="48.81755" lon="-3.48909">
        <ele>42.4</ele>
        <time>2019-07-11T08:46:18Z</time>
      </trkpt>
      <trkpt lat="48.81759" lon="-3.48908">
        <ele>42</ele>
        <time>2019-07-11T08:46:19Z</time>
      </trkpt>
      <trkpt lat="48.81765" lon="-3.48906">
        <ele>41.6</ele>
        <time>2019-07-11T08:46:20Z</time>
      </trkpt>
      <trkpt lat="48.8177" lon="-3.48905">
        <ele>41.5</ele>
        <time>2019-07-11T08:46:21Z</time>
      </trkpt>
      <trkpt lat="48.81775" lon="-3.48903">
        <ele>41.6</ele>
        <time>2019-07-11T08:46:22Z</time>
      </trkpt>
      <trkpt lat="48.81781" lon="-3.48902">
        <ele>42</ele>
        <time>2019-07-11T08:46:23Z</time>
      </trkpt>
      <trkpt lat="48.81786" lon="-3.489">
        <ele>41.9</ele>
        <time>2019-07-11T08:46:24Z</time>
      </trkpt>
      <trkpt lat="48.81791" lon="-3.48898">
        <ele>41.8</ele>
        <time>2019-07-11T08:46:25Z</time>
      </trkpt>
      <trkpt lat="48.81796" lon="-3.48896">
        <ele>41.5</ele>
        <time>2019-07-11T08:46:26Z</time>
      </trkpt>
      <trkpt lat="48.81802" lon="-3.48893">
        <ele>41.3</ele>
        <time>2019-07-11T08:46:27Z</time>
      </trkpt>
      <trkpt lat="48.81808" lon="-3.48891">
        <ele>40.9</ele>
        <time>2019-07-11T08:46:28Z</time>
      </trkpt>
      <trkpt lat="48.81814" lon="-3.4889">
        <ele>40.3</ele>
        <time>2019-07-11T08:46:29Z</time>
      </trkpt>
      <trkpt lat="48.81821" lon="-3.48889">
        <ele>39.7</ele>
        <time>2019-07-11T08:46:30Z</time>
      </trkpt>
      <trkpt lat="48.81827" lon="-3.48888">
        <ele>39.5</ele>
        <time>2019-07-11T08:46:31Z</time>
      </trkpt>
      <trkpt lat="48.81834" lon="-3.48887">
        <ele>39.3</ele>
        <time>2019-07-11T08:46:32Z</time>
      </trkpt>
      <trkpt lat="48.8184" lon="-3.48887">
        <ele>39.2</ele>
        <time>2019-07-11T08:46:33Z</time>
      </trkpt>
      <trkpt lat="48.81846" lon="-3.48887">
        <ele>39.2</ele>
        <time>2019-07-11T08:46:34Z</time>
      </trkpt>
      <trkpt lat="48.81852" lon="-3.48887">
        <ele>39.1</ele>
        <time>2019-07-11T08:46:35Z</time>
      </trkpt>
      <trkpt lat="48.81858" lon="-3.48887">
        <ele>39</ele>
        <time>2019-07-11T08:46:36Z</time>
      </trkpt>
      <trkpt lat="48.81864" lon="-3.48887">
        <ele>39.1</ele>
        <time>2019-07-11T08:46:37Z</time>
      </trkpt>
      <trkpt lat="48.8187" lon="-3.48887">
        <ele>38.6</ele>
        <time>2019-07-11T08:46:38Z</time>
      </trkpt>
      <trkpt lat="48.81876" lon="-3.48887">
        <ele>38.9</ele>
        <time>2019-07-11T08:46:39Z</time>
      </trkpt>
      <trkpt lat="48.81882" lon="-3.48888">
        <ele>39.1</ele>
        <time>2019-07-11T08:46:40Z</time>
      </trkpt>
      <trkpt lat="48.81889" lon="-3.48888">
        <ele>39.1</ele>
        <time>2019-07-11T08:46:41Z</time>
      </trkpt>
      <trkpt lat="48.81895" lon="-3.48889">
        <ele>39.3</ele>
        <time>2019-07-11T08:46:42Z</time>
      </trkpt>
      <trkpt lat="48.81901" lon="-3.4889">
        <ele>39.4</ele>
        <time>2019-07-11T08:46:43Z</time>
      </trkpt>
      <trkpt lat="48.81908" lon="-3.48891">
        <ele>38.7</ele>
        <time>2019-07-11T08:46:44Z</time>
      </trkpt>
      <trkpt lat="48.81915" lon="-3.48891">
        <ele>38.2</ele>
        <time>2019-07-11T08:46:45Z</time>
      </trkpt>
      <trkpt lat="48.81921" lon="-3.48892">
        <ele>38</ele>
        <time>2019-07-11T08:46:46Z</time>
      </trkpt>
      <trkpt lat="48.81927" lon="-3.48894">
        <ele>38.1</ele>
        <time>2019-07-11T08:46:47Z</time>
      </trkpt>
      <trkpt lat="48.81933" lon="-3.48895">
        <ele>37.6</ele>
        <time>2019-07-11T08:46:48Z</time>
      </trkpt>
      <trkpt lat="48.81939" lon="-3.48898">
        <ele>37.4</ele>
        <time>2019-07-11T08:46:49Z</time>
      </trkpt>
      <trkpt lat="48.81945" lon="-3.489">
        <ele>37.3</ele>
        <time>2019-07-11T08:46:50Z</time>
      </trkpt>
      <trkpt lat="48.81951" lon="-3.48903">
        <ele>36.7</ele>
        <time>2019-07-11T08:46:51Z</time>
      </trkpt>
      <trkpt lat="48.81957" lon="-3.48906">
        <ele>36.1</ele>
        <time>2019-07-11T08:46:52Z</time>
      </trkpt>
      <trkpt lat="48.81963" lon="-3.48909">
        <ele>35.1</ele>
        <time>2019-07-11T08:46:53Z</time>
      </trkpt>
      <trkpt lat="48.8197" lon="-3.48911">
        <ele>34.4</ele>
        <time>2019-07-11T08:46:54Z</time>
      </trkpt>
      <trkpt lat="48.81976" lon="-3.48913">
        <ele>34.1</ele>
        <time>2019-07-11T08:46:55Z</time>
      </trkpt>
      <trkpt lat="48.81982" lon="-3.48916">
        <ele>34.1</ele>
        <time>2019-07-11T08:46:56Z</time>
      </trkpt>
      <trkpt lat="48.81987" lon="-3.48918">
        <ele>34.4</ele>
        <time>2019-07-11T08:46:57Z</time>
      </trkpt>
      <trkpt lat="48.81993" lon="-3.48919">
        <ele>34.7</ele>
        <time>2019-07-11T08:46:58Z</time>
      </trkpt>
      <trkpt lat="48.81999" lon="-3.48921">
        <ele>34.3</ele>
        <time>2019-07-11T08:46:59Z</time>
      </trkpt>
      <trkpt lat="48.82005" lon="-3.48923">
        <ele>34.3</ele>
        <time>2019-07-11T08:47:00Z</time>
      </trkpt>
      <trkpt lat="48.82012" lon="-3.48925">
        <ele>34.5</ele>
        <time>2019-07-11T08:47:01Z</time>
      </trkpt>
      <trkpt lat="48.82019" lon="-3.48928">
        <ele>34.6</ele>
        <time>2019-07-11T08:47:02Z</time>
      </trkpt>
      <trkpt lat="48.82026" lon="-3.4893">
        <ele>34.7</ele>
        <time>2019-07-11T08:47:03Z</time>
      </trkpt>
      <trkpt lat="48.82032" lon="-3.48933">
        <ele>34.5</ele>
        <time>2019-07-11T08:47:04Z</time>
      </trkpt>
      <trkpt lat="48.8204" lon="-3.48936">
        <ele>34.3</ele>
        <time>2019-07-11T08:47:05Z</time>
      </trkpt>
      <trkpt lat="48.82047" lon="-3.48938">
        <ele>34.2</ele>
        <time>2019-07-11T08:47:06Z</time>
      </trkpt>
      <trkpt lat="48.82055" lon="-3.48942">
        <ele>33.9</ele>
        <time>2019-07-11T08:47:07Z</time>
      </trkpt>
      <trkpt lat="48.82062" lon="-3.48946">
        <ele>33</ele>
        <time>2019-07-11T08:47:08Z</time>
      </trkpt>
      <trkpt lat="48.82071" lon="-3.48948">
        <ele>32.3</ele>
        <time>2019-07-11T08:47:09Z</time>
      </trkpt>
      <trkpt lat="48.82079" lon="-3.48949">
        <ele>31.4</ele>
        <time>2019-07-11T08:47:10Z</time>
      </trkpt>
      <trkpt lat="48.82088" lon="-3.48949">
        <ele>30.6</ele>
        <time>2019-07-11T08:47:11Z</time>
      </trkpt>
      <trkpt lat="48.82095" lon="-3.4895">
        <ele>29.5</ele>
        <time>2019-07-11T08:47:12Z</time>
      </trkpt>
      <trkpt lat="48.82103" lon="-3.4895">
        <ele>28.7</ele>
        <time>2019-07-11T08:47:13Z</time>
      </trkpt>
      <trkpt lat="48.82111" lon="-3.48949">
        <ele>28.1</ele>
        <time>2019-07-11T08:47:14Z</time>
      </trkpt>
      <trkpt lat="48.82118" lon="-3.48948">
        <ele>27.7</ele>
        <time>2019-07-11T08:47:15Z</time>
      </trkpt>
      <trkpt lat="48.82126" lon="-3.48946">
        <ele>27.5</ele>
        <time>2019-07-11T08:47:16Z</time>
      </trkpt>
      <trkpt lat="48.82133" lon="-3.48946">
        <ele>27.5</ele>
        <time>2019-07-11T08:47:17Z</time>
      </trkpt>
      <trkpt lat="48.8214" lon="-3.48945">
        <ele>27.6</ele>
        <time>2019-07-11T08:47:18Z</time>
      </trkpt>
      <trkpt lat="48.82147" lon="-3.48946">
        <ele>27.7</ele>
        <time>2019-07-11T08:47:19Z</time>
      </trkpt>
      <trkpt lat="48.82154" lon="-3.48945">
        <ele>27.8</ele>
        <time>2019-07-11T08:47:20Z</time>
      </trkpt>
      <trkpt lat="48.82161" lon="-3.48942">
        <ele>27.7</ele>
        <time>2019-07-11T08:47:21Z</time>
      </trkpt>
      <trkpt lat="48.82167" lon="-3.48939">
        <ele>27.5</ele>
        <time>2019-07-11T08:47:22Z</time>
      </trkpt>
      <trkpt lat="48.82174" lon="-3.48935">
        <ele>27.5</ele>
        <time>2019-07-11T08:47:23Z</time>
      </trkpt>
      <trkpt lat="48.8218" lon="-3.48929">
        <ele>27.4</ele>
        <time>2019-07-11T08:47:24Z</time>
      </trkpt>
      <trkpt lat="48.82187" lon="-3.48924">
        <ele>27.4</ele>
        <time>2019-07-11T08:47:25Z</time>
      </trkpt>
      <trkpt lat="48.82192" lon="-3.48917">
        <ele>26.9</ele>
        <time>2019-07-11T08:47:26Z</time>
      </trkpt>
      <trkpt lat="48.82195" lon="-3.48906">
        <ele>26.1</ele>
        <time>2019-07-11T08:47:27Z</time>
      </trkpt>
      <trkpt lat="48.82198" lon="-3.48898">
        <ele>25.9</ele>
        <time>2019-07-11T08:47:28Z</time>
      </trkpt>
      <trkpt lat="48.82202" lon="-3.48888">
        <ele>25.8</ele>
        <time>2019-07-11T08:47:29Z</time>
      </trkpt>
      <trkpt lat="48.82208" lon="-3.48881">
        <ele>25.3</ele>
        <time>2019-07-11T08:47:30Z</time>
      </trkpt>
      <trkpt lat="48.82214" lon="-3.48875">
        <ele>24.6</ele>
        <time>2019-07-11T08:47:31Z</time>
      </trkpt>
      <trkpt lat="48.82221" lon="-3.4887">
        <ele>23.8</ele>
        <time>2019-07-11T08:47:32Z</time>
      </trkpt>
      <trkpt lat="48.82227" lon="-3.48867">
        <ele>23.4</ele>
        <time>2019-07-11T08:47:33Z</time>
      </trkpt>
      <trkpt lat="48.82233" lon="-3.48865">
        <ele>22.6</ele>
        <time>2019-07-11T08:47:34Z</time>
      </trkpt>
      <trkpt lat="48.82241" lon="-3.48865">
        <ele>21.8</ele>
        <time>2019-07-11T08:47:35Z</time>
      </trkpt>
      <trkpt lat="48.82249" lon="-3.48866">
        <ele>20.8</ele>
        <time>2019-07-11T08:47:36Z</time>
      </trkpt>
      <trkpt lat="48.82257" lon="-3.48866">
        <ele>19.8</ele>
        <time>2019-07-11T08:47:37Z</time>
      </trkpt>
      <trkpt lat="48.82265" lon="-3.48867">
        <ele>19.3</ele>
        <time>2019-07-11T08:47:38Z</time>
      </trkpt>
      <trkpt lat="48.82273" lon="-3.48868">
        <ele>19.2</ele>
        <time>2019-07-11T08:47:39Z</time>
      </trkpt>
      <trkpt lat="48.82281" lon="-3.4887">
        <ele>18.6</ele>
        <time>2019-07-11T08:47:40Z</time>
      </trkpt>
      <trkpt lat="48.8229" lon="-3.48871">
        <ele>17.7</ele>
        <time>2019-07-11T08:47:41Z</time>
      </trkpt>
      <trkpt lat="48.82298" lon="-3.48872">
        <ele>16.9</ele>
        <time>2019-07-11T08:47:42Z</time>
      </trkpt>
      <trkpt lat="48.82307" lon="-3.48872">
        <ele>16.6</ele>
        <time>2019-07-11T08:47:43Z</time>
      </trkpt>
      <trkpt lat="48.82315" lon="-3.48873">
        <ele>16.1</ele>
        <time>2019-07-11T08:47:44Z</time>
      </trkpt>
      <trkpt lat="48.82324" lon="-3.48872">
        <ele>15.2</ele>
        <time>2019-07-11T08:47:45Z</time>
      </trkpt>
      <trkpt lat="48.82333" lon="-3.48873">
        <ele>14.4</ele>
        <time>2019-07-11T08:47:46Z</time>
      </trkpt>
      <trkpt lat="48.82342" lon="-3.48872">
        <ele>14.1</ele>
        <time>2019-07-11T08:47:47Z</time>
      </trkpt>
      <trkpt lat="48.82351" lon="-3.48871">
        <ele>13.8</ele>
        <time>2019-07-11T08:47:48Z</time>
      </trkpt>
      <trkpt lat="48.8236" lon="-3.4887">
        <ele>13.2</ele>
        <time>2019-07-11T08:47:49Z</time>
      </trkpt>
      <trkpt lat="48.82369" lon="-3.48868">
        <ele>12.3</ele>
        <time>2019-07-11T08:47:50Z</time>
      </trkpt>
      <trkpt lat="48.82378" lon="-3.48866">
        <ele>11.7</ele>
        <time>2019-07-11T08:47:51Z</time>
      </trkpt>
      <trkpt lat="48.82385" lon="-3.48865">
        <ele>11.8</ele>
        <time>2019-07-11T08:47:52Z</time>
      </trkpt>
      <trkpt lat="48.82392" lon="-3.48864">
        <ele>11.8</ele>
        <time>2019-07-11T08:47:53Z</time>
      </trkpt>
      <trkpt lat="48.82398" lon="-3.48863">
        <ele>12.1</ele>
        <time>2019-07-11T08:47:54Z</time>
      </trkpt>
      <trkpt lat="48.82402" lon="-3.48864">
        <ele>12.6</ele>
        <time>2019-07-11T08:47:55Z</time>
      </trkpt>
      <trkpt lat="48.82406" lon="-3.48863">
        <ele>13.3</ele>
        <time>2019-07-11T08:47:56Z</time>
      </trkpt>
      <trkpt lat="48.8241" lon="-3.48862">
        <ele>14.2</ele>
        <time>2019-07-11T08:47:57Z</time>
      </trkpt>
      <trkpt lat="48.82413" lon="-3.4886">
        <ele>14.8</ele>
        <time>2019-07-11T08:47:58Z</time>
      </trkpt>
      <trkpt lat="48.82415" lon="-3.48858">
        <ele>15.6</ele>
        <time>2019-07-11T08:47:59Z</time>
      </trkpt>
      <trkpt lat="48.82419" lon="-3.48856">
        <ele>16.1</ele>
        <time>2019-07-11T08:48:00Z</time>
      </trkpt>
      <trkpt lat="48.82422" lon="-3.48854">
        <ele>16.6</ele>
        <time>2019-07-11T08:48:01Z</time>
      </trkpt>
      <trkpt lat="48.82425" lon="-3.48852">
        <ele>17.1</ele>
        <time>2019-07-11T08:48:02Z</time>
      </trkpt>
      <trkpt lat="48.82428" lon="-3.48849">
        <ele>17.9</ele>
        <time>2019-07-11T08:48:03Z</time>
      </trkpt>
      <trkpt lat="48.82431" lon="-3.48848">
        <ele>18.7</ele>
        <time>2019-07-11T08:48:04Z</time>
      </trkpt>
      <trkpt lat="48.82435" lon="-3.48845">
        <ele>18.9</ele>
        <time>2019-07-11T08:48:05Z</time>
      </trkpt>
      <trkpt lat="48.82438" lon="-3.48842">
        <ele>18.9</ele>
        <time>2019-07-11T08:48:06Z</time>
      </trkpt>
      <trkpt lat="48.82441" lon="-3.48838">
        <ele>18.5</ele>
        <time>2019-07-11T08:48:07Z</time>
      </trkpt>
      <trkpt lat="48.82444" lon="-3.48836">
        <ele>17.6</ele>
        <time>2019-07-11T08:48:08Z</time>
      </trkpt>
      <trkpt lat="48.82446" lon="-3.48835">
        <ele>16.6</ele>
        <time>2019-07-11T08:48:09Z</time>
      </trkpt>
      <trkpt lat="48.82449" lon="-3.48835">
        <ele>16.3</ele>
        <time>2019-07-11T08:48:10Z</time>
      </trkpt>
      <trkpt lat="48.82451" lon="-3.48837">
        <ele>16</ele>
        <time>2019-07-11T08:48:11Z</time>
      </trkpt>
      <trkpt lat="48.82454" lon="-3.4884">
        <ele>16.1</ele>
        <time>2019-07-11T08:48:12Z</time>
      </trkpt>
      <trkpt lat="48.82457" lon="-3.48844">
        <ele>16.4</ele>
        <time>2019-07-11T08:48:13Z</time>
      </trkpt>
      <trkpt lat="48.8246" lon="-3.48848">
        <ele>16.7</ele>
        <time>2019-07-11T08:48:14Z</time>
      </trkpt>
      <trkpt lat="48.82464" lon="-3.48852">
        <ele>17.2</ele>
        <time>2019-07-11T08:48:15Z</time>
      </trkpt>
      <trkpt lat="48.82467" lon="-3.48857">
        <ele>17.2</ele>
        <time>2019-07-11T08:48:16Z</time>
      </trkpt>
      <trkpt lat="48.8247" lon="-3.48861">
        <ele>17.3</ele>
        <time>2019-07-11T08:48:17Z</time>
      </trkpt>
      <trkpt lat="48.82473" lon="-3.48866">
        <ele>17.3</ele>
        <time>2019-07-11T08:48:18Z</time>
      </trkpt>
      <trkpt lat="48.82477" lon="-3.4887">
        <ele>17.8</ele>
        <time>2019-07-11T08:48:19Z</time>
      </trkpt>
      <trkpt lat="48.8248" lon="-3.48875">
        <ele>18.4</ele>
        <time>2019-07-11T08:48:20Z</time>
      </trkpt>
      <trkpt lat="48.82484" lon="-3.48881">
        <ele>18.9</ele>
        <time>2019-07-11T08:48:21Z</time>
      </trkpt>
      <trkpt lat="48.82488" lon="-3.48887">
        <ele>19.3</ele>
        <time>2019-07-11T08:48:22Z</time>
      </trkpt>
      <trkpt lat="48.82491" lon="-3.48892">
        <ele>19.9</ele>
        <time>2019-07-11T08:48:23Z</time>
      </trkpt>
      <trkpt lat="48.82494" lon="-3.48895">
        <ele>20.6</ele>
        <time>2019-07-11T08:48:24Z</time>
      </trkpt>
      <trkpt lat="48.825" lon="-3.489">
        <ele>20.1</ele>
        <time>2019-07-11T08:48:25Z</time>
      </trkpt>
      <trkpt lat="48.82505" lon="-3.48905">
        <ele>18.5</ele>
        <time>2019-07-11T08:48:26Z</time>
      </trkpt>
      <trkpt lat="48.82509" lon="-3.48908">
        <ele>17.3</ele>
        <time>2019-07-11T08:48:27Z</time>
      </trkpt>
      <trkpt lat="48.82514" lon="-3.48911">
        <ele>15.9</ele>
        <time>2019-07-11T08:48:28Z</time>
      </trkpt>
      <trkpt lat="48.82517" lon="-3.48916">
        <ele>15.2</ele>
        <time>2019-07-11T08:48:29Z</time>
      </trkpt>
      <trkpt lat="48.82518" lon="-3.48917">
        <ele>15.1</ele>
        <time>2019-07-11T08:48:30Z</time>
      </trkpt>
      <trkpt lat="48.8252" lon="-3.48917">
        <ele>13.6</ele>
        <time>2019-07-11T08:48:31Z</time>
      </trkpt>
      <trkpt lat="48.8252" lon="-3.48916">
        <ele>13.5</ele>
        <time>2019-07-11T08:48:32Z</time>
      </trkpt>
      <trkpt lat="48.82525" lon="-3.48916">
        <ele>10.8</ele>
        <time>2019-07-11T08:48:36Z</time>
      </trkpt>
      <trkpt lat="48.82527" lon="-3.48916">
        <ele>10</ele>
        <time>2019-07-11T08:48:37Z</time>
      </trkpt>
      <trkpt lat="48.82531" lon="-3.48919">
        <ele>7.8</ele>
        <time>2019-07-11T08:48:55Z</time>
      </trkpt>
      <trkpt lat="48.82533" lon="-3.48921">
        <ele>7.8</ele>
        <time>2019-07-11T08:48:56Z</time>
      </trkpt>
      <trkpt lat="48.82535" lon="-3.48924">
        <ele>7.7</ele>
        <time>2019-07-11T08:48:57Z</time>
      </trkpt>
      <trkpt lat="48.82537" lon="-3.48928">
        <ele>7.5</ele>
        <time>2019-07-11T08:48:58Z</time>
      </trkpt>
      <trkpt lat="48.82539" lon="-3.48934">
        <ele>7.4</ele>
        <time>2019-07-11T08:48:59Z</time>
      </trkpt>
      <trkpt lat="48.82541" lon="-3.48939">
        <ele>7.1</ele>
        <time>2019-07-11T08:49:00Z</time>
      </trkpt>
      <trkpt lat="48.82543" lon="-3.48945">
        <ele>7.1</ele>
        <time>2019-07-11T08:49:01Z</time>
      </trkpt>
      <trkpt lat="48.82545" lon="-3.48952">
        <ele>7.2</ele>
        <time>2019-07-11T08:49:02Z</time>
      </trkpt>
      <trkpt lat="48.82547" lon="-3.48959">
        <ele>7.3</ele>
        <time>2019-07-11T08:49:03Z</time>
      </trkpt>
      <trkpt lat="48.82549" lon="-3.48966">
        <ele>7.5</ele>
        <time>2019-07-11T08:49:04Z</time>
      </trkpt>
      <trkpt lat="48.82551" lon="-3.48972">
        <ele>7.3</ele>
        <time>2019-07-11T08:49:05Z</time>
      </trkpt>
      <trkpt lat="48.82553" lon="-3.4898">
        <ele>7</ele>
        <time>2019-07-11T08:49:06Z</time>
      </trkpt>
      <trkpt lat="48.82555" lon="-3.48987">
        <ele>6.5</ele>
        <time>2019-07-11T08:49:07Z</time>
      </trkpt>
      <trkpt lat="48.82556" lon="-3.48994">
        <ele>5.8</ele>
        <time>2019-07-11T08:49:08Z</time>
      </trkpt>
      <trkpt lat="48.82557" lon="-3.49001">
        <ele>4.8</ele>
        <time>2019-07-11T08:49:09Z</time>
      </trkpt>
      <trkpt lat="48.82558" lon="-3.49007">
        <ele>3.9</ele>
        <time>2019-07-11T08:49:10Z</time>
      </trkpt>
      <trkpt lat="48.8256" lon="-3.49013">
        <ele>3.6</ele>
        <time>2019-07-11T08:49:11Z</time>
      </trkpt>
      <trkpt lat="48.82561" lon="-3.49019">
        <ele>3.5</ele>
        <time>2019-07-11T08:49:12Z</time>
      </trkpt>
      <trkpt lat="48.82562" lon="-3.49025">
        <ele>3.3</ele>
        <time>2019-07-11T08:49:13Z</time>
      </trkpt>
      <trkpt lat="48.82563" lon="-3.4903">
        <ele>3.3</ele>
        <time>2019-07-11T08:49:14Z</time>
      </trkpt>
      <trkpt lat="48.82563" lon="-3.49036">
        <ele>3</ele>
        <time>2019-07-11T08:49:15Z</time>
      </trkpt>
      <trkpt lat="48.82565" lon="-3.49041">
        <ele>2.4</ele>
        <time>2019-07-11T08:49:16Z</time>
      </trkpt>
      <trkpt lat="48.82567" lon="-3.49047">
        <ele>2</ele>
        <time>2019-07-11T08:49:17Z</time>
      </trkpt>
      <trkpt lat="48.82568" lon="-3.49051">
        <ele>1.8</ele>
        <time>2019-07-11T08:49:18Z</time>
      </trkpt>
      <trkpt lat="48.82569" lon="-3.49056">
        <ele>1.7</ele>
        <time>2019-07-11T08:49:19Z</time>
      </trkpt>
      <trkpt lat="48.8257" lon="-3.49061">
        <ele>1.7</ele>
        <time>2019-07-11T08:49:20Z</time>
      </trkpt>
      <trkpt lat="48.82571" lon="-3.49067">
        <ele>1.7</ele>
        <time>2019-07-11T08:49:21Z</time>
      </trkpt>
      <trkpt lat="48.82573" lon="-3.49072">
        <ele>1.9</ele>
        <time>2019-07-11T08:49:22Z</time>
      </trkpt>
      <trkpt lat="48.82573" lon="-3.49077">
        <ele>1.9</ele>
        <time>2019-07-11T08:49:23Z</time>
      </trkpt>
      <trkpt lat="48.82574" lon="-3.49082">
        <ele>1.8</ele>
        <time>2019-07-11T08:49:24Z</time>
      </trkpt>
      <trkpt lat="48.82575" lon="-3.49087">
        <ele>1.6</ele>
        <time>2019-07-11T08:49:25Z</time>
      </trkpt>
      <trkpt lat="48.82575" lon="-3.49093">
        <ele>1.6</ele>
        <time>2019-07-11T08:49:26Z</time>
      </trkpt>
      <trkpt lat="48.82576" lon="-3.49098">
        <ele>1.4</ele>
        <time>2019-07-11T08:49:27Z</time>
      </trkpt>
      <trkpt lat="48.82578" lon="-3.49103">
        <ele>1.3</ele>
        <time>2019-07-11T08:49:28Z</time>
      </trkpt>
      <trkpt lat="48.82579" lon="-3.49107">
        <ele>1.1</ele>
        <time>2019-07-11T08:49:29Z</time>
      </trkpt>
      <trkpt lat="48.8258" lon="-3.49112">
        <ele>1.2</ele>
        <time>2019-07-11T08:49:30Z</time>
      </trkpt>
      <trkpt lat="48.82581" lon="-3.49116">
        <ele>1.2</ele>
        <time>2019-07-11T08:49:31Z</time>
      </trkpt>
      <trkpt lat="48.82582" lon="-3.49121">
        <ele>1</ele>
        <time>2019-07-11T08:49:32Z</time>
      </trkpt>
      <trkpt lat="48.82582" lon="-3.49125">
        <ele>1</ele>
        <time>2019-07-11T08:49:33Z</time>
      </trkpt>
      <trkpt lat="48.82584" lon="-3.49126">
        <ele>1.5</ele>
        <time>2019-07-11T08:49:34Z</time>
      </trkpt>
      <trkpt lat="48.82586" lon="-3.49127">
        <ele>1.9</ele>
        <time>2019-07-11T08:49:35Z</time>
      </trkpt>
      <trkpt lat="48.82589" lon="-3.49127">
        <ele>1.9</ele>
        <time>2019-07-11T08:49:36Z</time>
      </trkpt>
      <trkpt lat="48.82592" lon="-3.49127">
        <ele>2.2</ele>
        <time>2019-07-11T08:49:37Z</time>
      </trkpt>
      <trkpt lat="48.82595" lon="-3.49128">
        <ele>2.3</ele>
        <time>2019-07-11T08:49:38Z</time>
      </trkpt>
      <trkpt lat="48.82599" lon="-3.49127">
        <ele>2.5</ele>
        <time>2019-07-11T08:49:39Z</time>
      </trkpt>
      <trkpt lat="48.82602" lon="-3.49127">
        <ele>2.5</ele>
        <time>2019-07-11T08:49:40Z</time>
      </trkpt>
      <trkpt lat="48.82605" lon="-3.49128">
        <ele>2.6</ele>
        <time>2019-07-11T08:49:41Z</time>
      </trkpt>
      <trkpt lat="48.82608" lon="-3.49129">
        <ele>2.8</ele>
        <time>2019-07-11T08:49:42Z</time>
      </trkpt>
      <trkpt lat="48.82612" lon="-3.49131">
        <ele>2.9</ele>
        <time>2019-07-11T08:49:43Z</time>
      </trkpt>
      <trkpt lat="48.82615" lon="-3.49134">
        <ele>2.8</ele>
        <time>2019-07-11T08:49:44Z</time>
      </trkpt>
      <trkpt lat="48.82618" lon="-3.49135">
        <ele>2.9</ele>
        <time>2019-07-11T08:49:45Z</time>
      </trkpt>
      <trkpt lat="48.82621" lon="-3.49138">
        <ele>3.2</ele>
        <time>2019-07-11T08:49:46Z</time>
      </trkpt>
      <trkpt lat="48.82625" lon="-3.4914">
        <ele>3.4</ele>
        <time>2019-07-11T08:49:47Z</time>
      </trkpt>
      <trkpt lat="48.82628" lon="-3.49143">
        <ele>3.5</ele>
        <time>2019-07-11T08:49:48Z</time>
      </trkpt>
      <trkpt lat="48.82632" lon="-3.49145">
        <ele>3.6</ele>
        <time>2019-07-11T08:49:49Z</time>
      </trkpt>
      <trkpt lat="48.82635" lon="-3.49149">
        <ele>3.6</ele>
        <time>2019-07-11T08:49:50Z</time>
      </trkpt>
      <trkpt lat="48.82638" lon="-3.49152">
        <ele>3.9</ele>
        <time>2019-07-11T08:49:51Z</time>
      </trkpt>
      <trkpt lat="48.82641" lon="-3.49156">
        <ele>4.1</ele>
        <time>2019-07-11T08:49:52Z</time>
      </trkpt>
      <trkpt lat="48.82644" lon="-3.49159">
        <ele>5</ele>
        <time>2019-07-11T08:49:53Z</time>
      </trkpt>
      <trkpt lat="48.82646" lon="-3.49162">
        <ele>5.2</ele>
        <time>2019-07-11T08:49:54Z</time>
      </trkpt>
      <trkpt lat="48.82649" lon="-3.49165">
        <ele>5.3</ele>
        <time>2019-07-11T08:49:55Z</time>
      </trkpt>
      <trkpt lat="48.82652" lon="-3.49168">
        <ele>6.1</ele>
        <time>2019-07-11T08:49:56Z</time>
      </trkpt>
      <trkpt lat="48.82654" lon="-3.4917">
        <ele>6.7</ele>
        <time>2019-07-11T08:49:57Z</time>
      </trkpt>
      <trkpt lat="48.82657" lon="-3.49172">
        <ele>6.9</ele>
        <time>2019-07-11T08:49:58Z</time>
      </trkpt>
      <trkpt lat="48.82659" lon="-3.49172">
        <ele>7.2</ele>
        <time>2019-07-11T08:49:59Z</time>
      </trkpt>
      <trkpt lat="48.8266" lon="-3.49173">
        <ele>7.3</ele>
        <time>2019-07-11T08:50:00Z</time>
      </trkpt>
      <trkpt lat="48.82662" lon="-3.49174">
        <ele>6.4</ele>
        <time>2019-07-11T08:50:46Z</time>
      </trkpt>
      <trkpt lat="48.82663" lon="-3.49175">
        <ele>6.4</ele>
        <time>2019-07-11T08:50:47Z</time>
      </trkpt>
      <trkpt lat="48.82664" lon="-3.49178">
        <ele>6.5</ele>
        <time>2019-07-11T08:50:48Z</time>
      </trkpt>
      <trkpt lat="48.82665" lon="-3.49181">
        <ele>6.5</ele>
        <time>2019-07-11T08:50:49Z</time>
      </trkpt>
      <trkpt lat="48.82666" lon="-3.49184">
        <ele>6.5</ele>
        <time>2019-07-11T08:50:50Z</time>
      </trkpt>
      <trkpt lat="48.82667" lon="-3.49187">
        <ele>6.5</ele>
        <time>2019-07-11T08:50:51Z</time>
      </trkpt>
      <trkpt lat="48.82669" lon="-3.4919">
        <ele>6.8</ele>
        <time>2019-07-11T08:50:52Z</time>
      </trkpt>
      <trkpt lat="48.8267" lon="-3.49193">
        <ele>7</ele>
        <time>2019-07-11T08:50:53Z</time>
      </trkpt>
      <trkpt lat="48.82672" lon="-3.49195">
        <ele>7.4</ele>
        <time>2019-07-11T08:50:54Z</time>
      </trkpt>
      <trkpt lat="48.82674" lon="-3.49197">
        <ele>7.9</ele>
        <time>2019-07-11T08:50:55Z</time>
      </trkpt>
      <trkpt lat="48.82676" lon="-3.49199">
        <ele>7.7</ele>
        <time>2019-07-11T08:50:56Z</time>
      </trkpt>
      <trkpt lat="48.82678" lon="-3.49201">
        <ele>7.8</ele>
        <time>2019-07-11T08:50:57Z</time>
      </trkpt>
      <trkpt lat="48.8268" lon="-3.49203">
        <ele>8.1</ele>
        <time>2019-07-11T08:50:58Z</time>
      </trkpt>
      <trkpt lat="48.82683" lon="-3.49205">
        <ele>8.2</ele>
        <time>2019-07-11T08:50:59Z</time>
      </trkpt>
      <trkpt lat="48.82685" lon="-3.49207">
        <ele>8.3</ele>
        <time>2019-07-11T08:51:00Z</time>
      </trkpt>
      <trkpt lat="48.82686" lon="-3.49209">
        <ele>8.3</ele>
        <time>2019-07-11T08:51:01Z</time>
      </trkpt>
      <trkpt lat="48.82688" lon="-3.49212">
        <ele>8.3</ele>
        <time>2019-07-11T08:51:02Z</time>
      </trkpt>
      <trkpt lat="48.8269" lon="-3.49214">
        <ele>8.3</ele>
        <time>2019-07-11T08:51:03Z</time>
      </trkpt>
      <trkpt lat="48.82692" lon="-3.49216">
        <ele>8.5</ele>
        <time>2019-07-11T08:51:04Z</time>
      </trkpt>
      <trkpt lat="48.82694" lon="-3.49218">
        <ele>8.7</ele>
        <time>2019-07-11T08:51:05Z</time>
      </trkpt>
      <trkpt lat="48.82696" lon="-3.4922">
        <ele>9</ele>
        <time>2019-07-11T08:51:06Z</time>
      </trkpt>
      <trkpt lat="48.82697" lon="-3.49223">
        <ele>9.3</ele>
        <time>2019-07-11T08:51:07Z</time>
      </trkpt>
      <trkpt lat="48.82699" lon="-3.49226">
        <ele>9.7</ele>
        <time>2019-07-11T08:51:08Z</time>
      </trkpt>
      <trkpt lat="48.827" lon="-3.49228">
        <ele>10.1</ele>
        <time>2019-07-11T08:51:09Z</time>
      </trkpt>
      <trkpt lat="48.82703" lon="-3.49231">
        <ele>10.4</ele>
        <time>2019-07-11T08:51:10Z</time>
      </trkpt>
      <trkpt lat="48.82705" lon="-3.49233">
        <ele>10.7</ele>
        <time>2019-07-11T08:51:11Z</time>
      </trkpt>
      <trkpt lat="48.82708" lon="-3.49234">
        <ele>11.2</ele>
        <time>2019-07-11T08:51:12Z</time>
      </trkpt>
      <trkpt lat="48.82709" lon="-3.49236">
        <ele>11.3</ele>
        <time>2019-07-11T08:51:13Z</time>
      </trkpt>
      <trkpt lat="48.8271" lon="-3.49239">
        <ele>11.5</ele>
        <time>2019-07-11T08:51:14Z</time>
      </trkpt>
      <trkpt lat="48.82712" lon="-3.49242">
        <ele>11.7</ele>
        <time>2019-07-11T08:51:15Z</time>
      </trkpt>
      <trkpt lat="48.82714" lon="-3.49244">
        <ele>11.8</ele>
        <time>2019-07-11T08:51:16Z</time>
      </trkpt>
      <trkpt lat="48.82716" lon="-3.49244">
        <ele>11.8</ele>
        <time>2019-07-11T08:51:17Z</time>
      </trkpt>
      <trkpt lat="48.82718" lon="-3.49246">
        <ele>12.3</ele>
        <time>2019-07-11T08:51:18Z</time>
      </trkpt>
      <trkpt lat="48.8272" lon="-3.49247">
        <ele>13.2</ele>
        <time>2019-07-11T08:51:19Z</time>
      </trkpt>
      <trkpt lat="48.8272" lon="-3.49251">
        <ele>13.5</ele>
        <time>2019-07-11T08:51:20Z</time>
      </trkpt>
      <trkpt lat="48.82721" lon="-3.49254">
        <ele>14</ele>
        <time>2019-07-11T08:51:21Z</time>
      </trkpt>
      <trkpt lat="48.82723" lon="-3.49257">
        <ele>14.3</ele>
        <time>2019-07-11T08:51:22Z</time>
      </trkpt>
      <trkpt lat="48.82724" lon="-3.4926">
        <ele>14.7</ele>
        <time>2019-07-11T08:51:23Z</time>
      </trkpt>
      <trkpt lat="48.82725" lon="-3.49263">
        <ele>14.8</ele>
        <time>2019-07-11T08:51:24Z</time>
      </trkpt>
      <trkpt lat="48.82726" lon="-3.49265">
        <ele>14.7</ele>
        <time>2019-07-11T08:51:25Z</time>
      </trkpt>
      <trkpt lat="48.82727" lon="-3.49268">
        <ele>14.4</ele>
        <time>2019-07-11T08:51:26Z</time>
      </trkpt>
      <trkpt lat="48.82727" lon="-3.49271">
        <ele>14.2</ele>
        <time>2019-07-11T08:51:27Z</time>
      </trkpt>
      <trkpt lat="48.82727" lon="-3.49274">
        <ele>13.4</ele>
        <time>2019-07-11T08:51:28Z</time>
      </trkpt>
      <trkpt lat="48.82727" lon="-3.49277">
        <ele>13.4</ele>
        <time>2019-07-11T08:51:29Z</time>
      </trkpt>
      <trkpt lat="48.82726" lon="-3.4928">
        <ele>12.9</ele>
        <time>2019-07-11T08:51:30Z</time>
      </trkpt>
      <trkpt lat="48.82725" lon="-3.49283">
        <ele>12.6</ele>
        <time>2019-07-11T08:51:31Z</time>
      </trkpt>
      <trkpt lat="48.82724" lon="-3.49287">
        <ele>12.2</ele>
        <time>2019-07-11T08:51:32Z</time>
      </trkpt>
      <trkpt lat="48.82724" lon="-3.4929">
        <ele>12.2</ele>
        <time>2019-07-11T08:51:33Z</time>
      </trkpt>
      <trkpt lat="48.82723" lon="-3.49293">
        <ele>12.1</ele>
        <time>2019-07-11T08:51:34Z</time>
      </trkpt>
      <trkpt lat="48.82723" lon="-3.49297">
        <ele>12.3</ele>
        <time>2019-07-11T08:51:35Z</time>
      </trkpt>
      <trkpt lat="48.82721" lon="-3.493">
        <ele>12.2</ele>
        <time>2019-07-11T08:51:36Z</time>
      </trkpt>
      <trkpt lat="48.82721" lon="-3.49304">
        <ele>11.7</ele>
        <time>2019-07-11T08:51:37Z</time>
      </trkpt>
      <trkpt lat="48.8272" lon="-3.49308">
        <ele>11.5</ele>
        <time>2019-07-11T08:51:38Z</time>
      </trkpt>
      <trkpt lat="48.82719" lon="-3.49312">
        <ele>11.1</ele>
        <time>2019-07-11T08:51:39Z</time>
      </trkpt>
      <trkpt lat="48.82718" lon="-3.49315">
        <ele>10.8</ele>
        <time>2019-07-11T08:51:40Z</time>
      </trkpt>
      <trkpt lat="48.82717" lon="-3.49318">
        <ele>10.7</ele>
        <time>2019-07-11T08:51:41Z</time>
      </trkpt>
      <trkpt lat="48.82716" lon="-3.49322">
        <ele>10.6</ele>
        <time>2019-07-11T08:51:42Z</time>
      </trkpt>
      <trkpt lat="48.82714" lon="-3.49325">
        <ele>10.4</ele>
        <time>2019-07-11T08:51:43Z</time>
      </trkpt>
      <trkpt lat="48.82713" lon="-3.49329">
        <ele>9.9</ele>
        <time>2019-07-11T08:51:44Z</time>
      </trkpt>
      <trkpt lat="48.82712" lon="-3.49332">
        <ele>9.3</ele>
        <time>2019-07-11T08:51:45Z</time>
      </trkpt>
      <trkpt lat="48.82711" lon="-3.49335">
        <ele>8.7</ele>
        <time>2019-07-11T08:51:46Z</time>
      </trkpt>
      <trkpt lat="48.8271" lon="-3.49338">
        <ele>8.4</ele>
        <time>2019-07-11T08:51:47Z</time>
      </trkpt>
      <trkpt lat="48.82709" lon="-3.4934">
        <ele>8.4</ele>
        <time>2019-07-11T08:51:48Z</time>
      </trkpt>
      <trkpt lat="48.82708" lon="-3.49343">
        <ele>8.4</ele>
        <time>2019-07-11T08:51:49Z</time>
      </trkpt>
      <trkpt lat="48.82707" lon="-3.49346">
        <ele>8.6</ele>
        <time>2019-07-11T08:51:50Z</time>
      </trkpt>
      <trkpt lat="48.82707" lon="-3.49349">
        <ele>8.4</ele>
        <time>2019-07-11T08:51:51Z</time>
      </trkpt>
      <trkpt lat="48.82705" lon="-3.49352">
        <ele>8.3</ele>
        <time>2019-07-11T08:51:52Z</time>
      </trkpt>
      <trkpt lat="48.82703" lon="-3.49354">
        <ele>8.1</ele>
        <time>2019-07-11T08:51:53Z</time>
      </trkpt>
      <trkpt lat="48.82701" lon="-3.49357">
        <ele>8.2</ele>
        <time>2019-07-11T08:51:54Z</time>
      </trkpt>
      <trkpt lat="48.827" lon="-3.49359">
        <ele>8.5</ele>
        <time>2019-07-11T08:51:55Z</time>
      </trkpt>
      <trkpt lat="48.82699" lon="-3.49362">
        <ele>8.7</ele>
        <time>2019-07-11T08:51:56Z</time>
      </trkpt>
      <trkpt lat="48.82699" lon="-3.49366">
        <ele>9.3</ele>
        <time>2019-07-11T08:51:57Z</time>
      </trkpt>
      <trkpt lat="48.82699" lon="-3.49369">
        <ele>9.7</ele>
        <time>2019-07-11T08:51:58Z</time>
      </trkpt>
      <trkpt lat="48.82698" lon="-3.49372">
        <ele>10.5</ele>
        <time>2019-07-11T08:51:59Z</time>
      </trkpt>
      <trkpt lat="48.82698" lon="-3.49375">
        <ele>11</ele>
        <time>2019-07-11T08:52:00Z</time>
      </trkpt>
      <trkpt lat="48.82696" lon="-3.49377">
        <ele>11.4</ele>
        <time>2019-07-11T08:52:01Z</time>
      </trkpt>
      <trkpt lat="48.82694" lon="-3.49379">
        <ele>11.7</ele>
        <time>2019-07-11T08:52:02Z</time>
      </trkpt>
      <trkpt lat="48.82693" lon="-3.49383">
        <ele>11.8</ele>
        <time>2019-07-11T08:52:03Z</time>
      </trkpt>
      <trkpt lat="48.82693" lon="-3.49388">
        <ele>12.1</ele>
        <time>2019-07-11T08:52:04Z</time>
      </trkpt>
      <trkpt lat="48.82693" lon="-3.49394">
        <ele>11.7</ele>
        <time>2019-07-11T08:52:05Z</time>
      </trkpt>
      <trkpt lat="48.82692" lon="-3.494">
        <ele>11.5</ele>
        <time>2019-07-11T08:52:06Z</time>
      </trkpt>
      <trkpt lat="48.82692" lon="-3.49407">
        <ele>11</ele>
        <time>2019-07-11T08:52:07Z</time>
      </trkpt>
      <trkpt lat="48.82693" lon="-3.49415">
        <ele>10.3</ele>
        <time>2019-07-11T08:52:08Z</time>
      </trkpt>
      <trkpt lat="48.82694" lon="-3.49424">
        <ele>9.6</ele>
        <time>2019-07-11T08:52:09Z</time>
      </trkpt>
      <trkpt lat="48.82694" lon="-3.49433">
        <ele>9.2</ele>
        <time>2019-07-11T08:52:10Z</time>
      </trkpt>
      <trkpt lat="48.82694" lon="-3.49441">
        <ele>8.9</ele>
        <time>2019-07-11T08:52:11Z</time>
      </trkpt>
      <trkpt lat="48.82694" lon="-3.49448">
        <ele>8.4</ele>
        <time>2019-07-11T08:52:12Z</time>
      </trkpt>
      <trkpt lat="48.82692" lon="-3.49455">
        <ele>7.4</ele>
        <time>2019-07-11T08:52:13Z</time>
      </trkpt>
      <trkpt lat="48.82693" lon="-3.4946">
        <ele>7.2</ele>
        <time>2019-07-11T08:52:14Z</time>
      </trkpt>
      <trkpt lat="48.82693" lon="-3.49464">
        <ele>7.7</ele>
        <time>2019-07-11T08:52:15Z</time>
      </trkpt>
      <trkpt lat="48.82694" lon="-3.49467">
        <ele>8.1</ele>
        <time>2019-07-11T08:52:16Z</time>
      </trkpt>
      <trkpt lat="48.827" lon="-3.49472">
        <ele>9.2</ele>
        <time>2019-07-11T08:52:28Z</time>
      </trkpt>
      <trkpt lat="48.82702" lon="-3.49472">
        <ele>8.7</ele>
        <time>2019-07-11T08:52:29Z</time>
      </trkpt>
      <trkpt lat="48.82705" lon="-3.49472">
        <ele>8.5</ele>
        <time>2019-07-11T08:52:30Z</time>
      </trkpt>
      <trkpt lat="48.82707" lon="-3.49472">
        <ele>8.2</ele>
        <time>2019-07-11T08:52:31Z</time>
      </trkpt>
      <trkpt lat="48.8271" lon="-3.49472">
        <ele>7.9</ele>
        <time>2019-07-11T08:52:32Z</time>
      </trkpt>
      <trkpt lat="48.82713" lon="-3.49473">
        <ele>7.5</ele>
        <time>2019-07-11T08:52:33Z</time>
      </trkpt>
      <trkpt lat="48.82716" lon="-3.49474">
        <ele>7.3</ele>
        <time>2019-07-11T08:52:34Z</time>
      </trkpt>
      <trkpt lat="48.82718" lon="-3.49476">
        <ele>7.4</ele>
        <time>2019-07-11T08:52:35Z</time>
      </trkpt>
      <trkpt lat="48.82721" lon="-3.49478">
        <ele>7.6</ele>
        <time>2019-07-11T08:52:36Z</time>
      </trkpt>
      <trkpt lat="48.82723" lon="-3.49481">
        <ele>8.2</ele>
        <time>2019-07-11T08:52:37Z</time>
      </trkpt>
      <trkpt lat="48.82726" lon="-3.49482">
        <ele>8.9</ele>
        <time>2019-07-11T08:52:38Z</time>
      </trkpt>
      <trkpt lat="48.82729" lon="-3.49483">
        <ele>8.7</ele>
        <time>2019-07-11T08:52:39Z</time>
      </trkpt>
      <trkpt lat="48.82733" lon="-3.49485">
        <ele>9.1</ele>
        <time>2019-07-11T08:52:40Z</time>
      </trkpt>
      <trkpt lat="48.82737" lon="-3.49486">
        <ele>9.1</ele>
        <time>2019-07-11T08:52:41Z</time>
      </trkpt>
      <trkpt lat="48.82741" lon="-3.49488">
        <ele>9.9</ele>
        <time>2019-07-11T08:52:42Z</time>
      </trkpt>
      <trkpt lat="48.82744" lon="-3.4949">
        <ele>10.2</ele>
        <time>2019-07-11T08:52:43Z</time>
      </trkpt>
      <trkpt lat="48.82748" lon="-3.49492">
        <ele>10.9</ele>
        <time>2019-07-11T08:52:44Z</time>
      </trkpt>
      <trkpt lat="48.82752" lon="-3.49494">
        <ele>11.3</ele>
        <time>2019-07-11T08:52:45Z</time>
      </trkpt>
      <trkpt lat="48.82755" lon="-3.49496">
        <ele>12</ele>
        <time>2019-07-11T08:52:46Z</time>
      </trkpt>
      <trkpt lat="48.82758" lon="-3.49499">
        <ele>12.7</ele>
        <time>2019-07-11T08:52:47Z</time>
      </trkpt>
      <trkpt lat="48.82761" lon="-3.49502">
        <ele>13.4</ele>
        <time>2019-07-11T08:52:48Z</time>
      </trkpt>
      <trkpt lat="48.82764" lon="-3.49504">
        <ele>13.9</ele>
        <time>2019-07-11T08:52:49Z</time>
      </trkpt>
      <trkpt lat="48.82768" lon="-3.49506">
        <ele>14.5</ele>
        <time>2019-07-11T08:52:50Z</time>
      </trkpt>
      <trkpt lat="48.82772" lon="-3.49507">
        <ele>14.5</ele>
        <time>2019-07-11T08:52:51Z</time>
      </trkpt>
      <trkpt lat="48.82776" lon="-3.49509">
        <ele>14.8</ele>
        <time>2019-07-11T08:52:52Z</time>
      </trkpt>
      <trkpt lat="48.82779" lon="-3.4951">
        <ele>14.8</ele>
        <time>2019-07-11T08:52:53Z</time>
      </trkpt>
      <trkpt lat="48.82782" lon="-3.49512">
        <ele>14.5</ele>
        <time>2019-07-11T08:52:54Z</time>
      </trkpt>
      <trkpt lat="48.82786" lon="-3.49515">
        <ele>14.9</ele>
        <time>2019-07-11T08:52:55Z</time>
      </trkpt>
      <trkpt lat="48.82789" lon="-3.49517">
        <ele>15.3</ele>
        <time>2019-07-11T08:52:56Z</time>
      </trkpt>
      <trkpt lat="48.82792" lon="-3.49517">
        <ele>14.9</ele>
        <time>2019-07-11T08:52:57Z</time>
      </trkpt>
      <trkpt lat="48.82796" lon="-3.49519">
        <ele>14.2</ele>
        <time>2019-07-11T08:52:58Z</time>
      </trkpt>
      <trkpt lat="48.82799" lon="-3.4952">
        <ele>13.6</ele>
        <time>2019-07-11T08:52:59Z</time>
      </trkpt>
      <trkpt lat="48.82803" lon="-3.49521">
        <ele>12.5</ele>
        <time>2019-07-11T08:53:00Z</time>
      </trkpt>
      <trkpt lat="48.82807" lon="-3.49522">
        <ele>11.4</ele>
        <time>2019-07-11T08:53:01Z</time>
      </trkpt>
      <trkpt lat="48.8281" lon="-3.49523">
        <ele>10.6</ele>
        <time>2019-07-11T08:53:02Z</time>
      </trkpt>
      <trkpt lat="48.82814" lon="-3.49525">
        <ele>10.3</ele>
        <time>2019-07-11T08:53:03Z</time>
      </trkpt>
      <trkpt lat="48.82818" lon="-3.49526">
        <ele>9.7</ele>
        <time>2019-07-11T08:53:04Z</time>
      </trkpt>
      <trkpt lat="48.82821" lon="-3.49527">
        <ele>9.4</ele>
        <time>2019-07-11T08:53:05Z</time>
      </trkpt>
      <trkpt lat="48.82824" lon="-3.49528">
        <ele>9.2</ele>
        <time>2019-07-11T08:53:06Z</time>
      </trkpt>
      <trkpt lat="48.82827" lon="-3.4953">
        <ele>9.2</ele>
        <time>2019-07-11T08:53:07Z</time>
      </trkpt>
      <trkpt lat="48.82829" lon="-3.49532">
        <ele>8.9</ele>
        <time>2019-07-11T08:53:08Z</time>
      </trkpt>
      <trkpt lat="48.82832" lon="-3.49535">
        <ele>8.5</ele>
        <time>2019-07-11T08:53:09Z</time>
      </trkpt>
      <trkpt lat="48.82834" lon="-3.49538">
        <ele>8.3</ele>
        <time>2019-07-11T08:53:10Z</time>
      </trkpt>
      <trkpt lat="48.82836" lon="-3.49541">
        <ele>8.1</ele>
        <time>2019-07-11T08:53:11Z</time>
      </trkpt>
      <trkpt lat="48.82837" lon="-3.49544">
        <ele>8</ele>
        <time>2019-07-11T08:53:12Z</time>
      </trkpt>
      <trkpt lat="48.82839" lon="-3.49546">
        <ele>7.5</ele>
        <time>2019-07-11T08:53:13Z</time>
      </trkpt>
      <trkpt lat="48.8284" lon="-3.4955">
        <ele>7.2</ele>
        <time>2019-07-11T08:53:14Z</time>
      </trkpt>
      <trkpt lat="48.82842" lon="-3.49553">
        <ele>6.6</ele>
        <time>2019-07-11T08:53:15Z</time>
      </trkpt>
      <trkpt lat="48.82843" lon="-3.49557">
        <ele>6.4</ele>
        <time>2019-07-11T08:53:16Z</time>
      </trkpt>
      <trkpt lat="48.82845" lon="-3.49561">
        <ele>6</ele>
        <time>2019-07-11T08:53:17Z</time>
      </trkpt>
      <trkpt lat="48.82846" lon="-3.49564">
        <ele>5.9</ele>
        <time>2019-07-11T08:53:18Z</time>
      </trkpt>
      <trkpt lat="48.82847" lon="-3.49568">
        <ele>5.1</ele>
        <time>2019-07-11T08:53:19Z</time>
      </trkpt>
      <trkpt lat="48.82848" lon="-3.49572">
        <ele>4.8</ele>
        <time>2019-07-11T08:53:20Z</time>
      </trkpt>
      <trkpt lat="48.82849" lon="-3.49575">
        <ele>4.5</ele>
        <time>2019-07-11T08:53:21Z</time>
      </trkpt>
      <trkpt lat="48.82851" lon="-3.49578">
        <ele>4.5</ele>
        <time>2019-07-11T08:53:22Z</time>
      </trkpt>
      <trkpt lat="48.82853" lon="-3.4958">
        <ele>4.5</ele>
        <time>2019-07-11T08:53:23Z</time>
      </trkpt>
      <trkpt lat="48.82855" lon="-3.49581">
        <ele>4</ele>
        <time>2019-07-11T08:53:24Z</time>
      </trkpt>
      <trkpt lat="48.82857" lon="-3.49582">
        <ele>4.1</ele>
        <time>2019-07-11T08:53:25Z</time>
      </trkpt>
      <trkpt lat="48.82858" lon="-3.49583">
        <ele>4.3</ele>
        <time>2019-07-11T08:53:26Z</time>
      </trkpt>
      <trkpt lat="48.82859" lon="-3.49587">
        <ele>5</ele>
        <time>2019-07-11T08:54:21Z</time>
      </trkpt>
      <trkpt lat="48.82859" lon="-3.4959">
        <ele>4.9</ele>
        <time>2019-07-11T08:54:22Z</time>
      </trkpt>
      <trkpt lat="48.82859" lon="-3.49592">
        <ele>4.9</ele>
        <time>2019-07-11T08:54:23Z</time>
      </trkpt>
      <trkpt lat="48.82859" lon="-3.49595">
        <ele>4.8</ele>
        <time>2019-07-11T08:54:24Z</time>
      </trkpt>
      <trkpt lat="48.82859" lon="-3.49598">
        <ele>4.7</ele>
        <time>2019-07-11T08:54:25Z</time>
      </trkpt>
      <trkpt lat="48.82859" lon="-3.49601">
        <ele>4.7</ele>
        <time>2019-07-11T08:54:26Z</time>
      </trkpt>
      <trkpt lat="48.82859" lon="-3.49603">
        <ele>4.9</ele>
        <time>2019-07-11T08:54:27Z</time>
      </trkpt>
      <trkpt lat="48.8286" lon="-3.49605">
        <ele>4.9</ele>
        <time>2019-07-11T08:54:28Z</time>
      </trkpt>
      <trkpt lat="48.82862" lon="-3.49607">
        <ele>4.8</ele>
        <time>2019-07-11T08:54:29Z</time>
      </trkpt>
      <trkpt lat="48.82864" lon="-3.4961">
        <ele>4.9</ele>
        <time>2019-07-11T08:54:30Z</time>
      </trkpt>
      <trkpt lat="48.82865" lon="-3.49613">
        <ele>5.2</ele>
        <time>2019-07-11T08:54:31Z</time>
      </trkpt>
      <trkpt lat="48.82866" lon="-3.49615">
        <ele>5.6</ele>
        <time>2019-07-11T08:54:32Z</time>
      </trkpt>
      <trkpt lat="48.82868" lon="-3.49617">
        <ele>5.5</ele>
        <time>2019-07-11T08:54:33Z</time>
      </trkpt>
      <trkpt lat="48.8287" lon="-3.49619">
        <ele>5.5</ele>
        <time>2019-07-11T08:54:34Z</time>
      </trkpt>
      <trkpt lat="48.82872" lon="-3.49623">
        <ele>5.4</ele>
        <time>2019-07-11T08:54:35Z</time>
      </trkpt>
      <trkpt lat="48.82874" lon="-3.49626">
        <ele>5.3</ele>
        <time>2019-07-11T08:54:36Z</time>
      </trkpt>
      <trkpt lat="48.82876" lon="-3.4963">
        <ele>5.2</ele>
        <time>2019-07-11T08:54:37Z</time>
      </trkpt>
      <trkpt lat="48.82878" lon="-3.49633">
        <ele>5.2</ele>
        <time>2019-07-11T08:54:38Z</time>
      </trkpt>
      <trkpt lat="48.8288" lon="-3.49637">
        <ele>5.2</ele>
        <time>2019-07-11T08:54:39Z</time>
      </trkpt>
      <trkpt lat="48.82882" lon="-3.49641">
        <ele>5.2</ele>
        <time>2019-07-11T08:54:40Z</time>
      </trkpt>
      <trkpt lat="48.82884" lon="-3.49645">
        <ele>5.7</ele>
        <time>2019-07-11T08:54:41Z</time>
      </trkpt>
      <trkpt lat="48.82887" lon="-3.49648">
        <ele>6.1</ele>
        <time>2019-07-11T08:54:42Z</time>
      </trkpt>
      <trkpt lat="48.8289" lon="-3.4965">
        <ele>6.4</ele>
        <time>2019-07-11T08:54:43Z</time>
      </trkpt>
      <trkpt lat="48.82892" lon="-3.49653">
        <ele>6.4</ele>
        <time>2019-07-11T08:54:44Z</time>
      </trkpt>
      <trkpt lat="48.82895" lon="-3.49655">
        <ele>6.6</ele>
        <time>2019-07-11T08:54:45Z</time>
      </trkpt>
      <trkpt lat="48.82898" lon="-3.49657">
        <ele>6.7</ele>
        <time>2019-07-11T08:54:46Z</time>
      </trkpt>
      <trkpt lat="48.82901" lon="-3.49658">
        <ele>6.6</ele>
        <time>2019-07-11T08:54:47Z</time>
      </trkpt>
      <trkpt lat="48.82904" lon="-3.4966">
        <ele>6.7</ele>
        <time>2019-07-11T08:54:48Z</time>
      </trkpt>
      <trkpt lat="48.82907" lon="-3.49661">
        <ele>7.1</ele>
        <time>2019-07-11T08:54:49Z</time>
      </trkpt>
      <trkpt lat="48.8291" lon="-3.49662">
        <ele>7.1</ele>
        <time>2019-07-11T08:54:50Z</time>
      </trkpt>
      <trkpt lat="48.82912" lon="-3.49663">
        <ele>7.3</ele>
        <time>2019-07-11T08:54:51Z</time>
      </trkpt>
      <trkpt lat="48.82916" lon="-3.49664">
        <ele>8</ele>
        <time>2019-07-11T08:54:52Z</time>
      </trkpt>
      <trkpt lat="48.82918" lon="-3.49666">
        <ele>8.7</ele>
        <time>2019-07-11T08:54:53Z</time>
      </trkpt>
      <trkpt lat="48.82921" lon="-3.49667">
        <ele>9.3</ele>
        <time>2019-07-11T08:54:54Z</time>
      </trkpt>
      <trkpt lat="48.82924" lon="-3.49667">
        <ele>9.5</ele>
        <time>2019-07-11T08:54:55Z</time>
      </trkpt>
      <trkpt lat="48.82927" lon="-3.49666">
        <ele>9.8</ele>
        <time>2019-07-11T08:54:56Z</time>
      </trkpt>
      <trkpt lat="48.8293" lon="-3.49666">
        <ele>10.1</ele>
        <time>2019-07-11T08:54:57Z</time>
      </trkpt>
      <trkpt lat="48.82933" lon="-3.49667">
        <ele>10.2</ele>
        <time>2019-07-11T08:54:58Z</time>
      </trkpt>
      <trkpt lat="48.82936" lon="-3.49669">
        <ele>11.2</ele>
        <time>2019-07-11T08:54:59Z</time>
      </trkpt>
      <trkpt lat="48.82938" lon="-3.49673">
        <ele>12</ele>
        <time>2019-07-11T08:55:00Z</time>
      </trkpt>
      <trkpt lat="48.82939" lon="-3.49676">
        <ele>12.4</ele>
        <time>2019-07-11T08:55:01Z</time>
      </trkpt>
      <trkpt lat="48.82939" lon="-3.4968">
        <ele>12.7</ele>
        <time>2019-07-11T08:55:02Z</time>
      </trkpt>
      <trkpt lat="48.8294" lon="-3.49684">
        <ele>12.6</ele>
        <time>2019-07-11T08:55:03Z</time>
      </trkpt>
      <trkpt lat="48.8294" lon="-3.49687">
        <ele>12.9</ele>
        <time>2019-07-11T08:55:04Z</time>
      </trkpt>
      <trkpt lat="48.8294" lon="-3.4969">
        <ele>12.9</ele>
        <time>2019-07-11T08:55:05Z</time>
      </trkpt>
      <trkpt lat="48.8294" lon="-3.49694">
        <ele>13.3</ele>
        <time>2019-07-11T08:55:06Z</time>
      </trkpt>
      <trkpt lat="48.82938" lon="-3.49698">
        <ele>13.9</ele>
        <time>2019-07-11T08:55:07Z</time>
      </trkpt>
      <trkpt lat="48.82937" lon="-3.49701">
        <ele>14.4</ele>
        <time>2019-07-11T08:55:08Z</time>
      </trkpt>
      <trkpt lat="48.82937" lon="-3.49704">
        <ele>14.8</ele>
        <time>2019-07-11T08:55:09Z</time>
      </trkpt>
      <trkpt lat="48.82937" lon="-3.49707">
        <ele>15.3</ele>
        <time>2019-07-11T08:55:10Z</time>
      </trkpt>
      <trkpt lat="48.82936" lon="-3.49711">
        <ele>15.8</ele>
        <time>2019-07-11T08:55:11Z</time>
      </trkpt>
      <trkpt lat="48.82935" lon="-3.49714">
        <ele>16.1</ele>
        <time>2019-07-11T08:55:12Z</time>
      </trkpt>
      <trkpt lat="48.82934" lon="-3.49718">
        <ele>16.1</ele>
        <time>2019-07-11T08:55:13Z</time>
      </trkpt>
      <trkpt lat="48.82934" lon="-3.49721">
        <ele>15.9</ele>
        <time>2019-07-11T08:55:14Z</time>
      </trkpt>
      <trkpt lat="48.82933" lon="-3.49725">
        <ele>16.1</ele>
        <time>2019-07-11T08:55:15Z</time>
      </trkpt>
      <trkpt lat="48.82934" lon="-3.49728">
        <ele>16.1</ele>
        <time>2019-07-11T08:55:16Z</time>
      </trkpt>
      <trkpt lat="48.82933" lon="-3.49733">
        <ele>16.2</ele>
        <time>2019-07-11T08:55:17Z</time>
      </trkpt>
      <trkpt lat="48.82932" lon="-3.49737">
        <ele>16.3</ele>
        <time>2019-07-11T08:55:18Z</time>
      </trkpt>
      <trkpt lat="48.82932" lon="-3.49742">
        <ele>16.1</ele>
        <time>2019-07-11T08:55:19Z</time>
      </trkpt>
      <trkpt lat="48.82932" lon="-3.49747">
        <ele>15.6</ele>
        <time>2019-07-11T08:55:20Z</time>
      </trkpt>
      <trkpt lat="48.82932" lon="-3.49752">
        <ele>14.3</ele>
        <time>2019-07-11T08:55:21Z</time>
      </trkpt>
      <trkpt lat="48.82932" lon="-3.49756">
        <ele>12.5</ele>
        <time>2019-07-11T08:55:22Z</time>
      </trkpt>
      <trkpt lat="48.82932" lon="-3.49759">
        <ele>12.4</ele>
        <time>2019-07-11T08:55:23Z</time>
      </trkpt>
      <trkpt lat="48.82933" lon="-3.49763">
        <ele>12.5</ele>
        <time>2019-07-11T08:55:24Z</time>
      </trkpt>
      <trkpt lat="48.82934" lon="-3.49767">
        <ele>12.2</ele>
        <time>2019-07-11T08:55:25Z</time>
      </trkpt>
      <trkpt lat="48.82935" lon="-3.49771">
        <ele>12.5</ele>
        <time>2019-07-11T08:55:26Z</time>
      </trkpt>
      <trkpt lat="48.82937" lon="-3.49775">
        <ele>12.1</ele>
        <time>2019-07-11T08:55:27Z</time>
      </trkpt>
      <trkpt lat="48.82938" lon="-3.4978">
        <ele>11.5</ele>
        <time>2019-07-11T08:55:28Z</time>
      </trkpt>
      <trkpt lat="48.82939" lon="-3.49784">
        <ele>11.3</ele>
        <time>2019-07-11T08:55:29Z</time>
      </trkpt>
      <trkpt lat="48.8294" lon="-3.49789">
        <ele>11.3</ele>
        <time>2019-07-11T08:55:30Z</time>
      </trkpt>
      <trkpt lat="48.82941" lon="-3.49793">
        <ele>11.4</ele>
        <time>2019-07-11T08:55:31Z</time>
      </trkpt>
      <trkpt lat="48.82942" lon="-3.49798">
        <ele>11.5</ele>
        <time>2019-07-11T08:55:32Z</time>
      </trkpt>
      <trkpt lat="48.82943" lon="-3.49803">
        <ele>11.5</ele>
        <time>2019-07-11T08:55:33Z</time>
      </trkpt>
      <trkpt lat="48.82943" lon="-3.49808">
        <ele>11.9</ele>
        <time>2019-07-11T08:55:34Z</time>
      </trkpt>
      <trkpt lat="48.82944" lon="-3.49812">
        <ele>12.1</ele>
        <time>2019-07-11T08:55:35Z</time>
      </trkpt>
      <trkpt lat="48.82944" lon="-3.49816">
        <ele>12.1</ele>
        <time>2019-07-11T08:55:36Z</time>
      </trkpt>
      <trkpt lat="48.82945" lon="-3.4982">
        <ele>11.5</ele>
        <time>2019-07-11T08:55:37Z</time>
      </trkpt>
      <trkpt lat="48.82945" lon="-3.49824">
        <ele>10.8</ele>
        <time>2019-07-11T08:55:38Z</time>
      </trkpt>
      <trkpt lat="48.82945" lon="-3.49828">
        <ele>10.5</ele>
        <time>2019-07-11T08:55:39Z</time>
      </trkpt>
      <trkpt lat="48.82945" lon="-3.49832">
        <ele>10</ele>
        <time>2019-07-11T08:55:40Z</time>
      </trkpt>
      <trkpt lat="48.82946" lon="-3.49836">
        <ele>9.7</ele>
        <time>2019-07-11T08:55:41Z</time>
      </trkpt>
      <trkpt lat="48.82946" lon="-3.49841">
        <ele>8.7</ele>
        <time>2019-07-11T08:55:42Z</time>
      </trkpt>
      <trkpt lat="48.82945" lon="-3.49845">
        <ele>7.9</ele>
        <time>2019-07-11T08:55:43Z</time>
      </trkpt>
      <trkpt lat="48.82946" lon="-3.49849">
        <ele>7.5</ele>
        <time>2019-07-11T08:55:44Z</time>
      </trkpt>
      <trkpt lat="48.82945" lon="-3.49854">
        <ele>6.8</ele>
        <time>2019-07-11T08:55:45Z</time>
      </trkpt>
      <trkpt lat="48.82945" lon="-3.49858">
        <ele>6.2</ele>
        <time>2019-07-11T08:55:46Z</time>
      </trkpt>
      <trkpt lat="48.82944" lon="-3.49862">
        <ele>5.6</ele>
        <time>2019-07-11T08:55:47Z</time>
      </trkpt>
      <trkpt lat="48.82943" lon="-3.49866">
        <ele>5.2</ele>
        <time>2019-07-11T08:55:48Z</time>
      </trkpt>
      <trkpt lat="48.82942" lon="-3.49869">
        <ele>4.7</ele>
        <time>2019-07-11T08:55:49Z</time>
      </trkpt>
      <trkpt lat="48.82941" lon="-3.49871">
        <ele>4.1</ele>
        <time>2019-07-11T08:55:50Z</time>
      </trkpt>
      <trkpt lat="48.82939" lon="-3.49872">
        <ele>3.6</ele>
        <time>2019-07-11T08:55:51Z</time>
      </trkpt>
      <trkpt lat="48.82937" lon="-3.49872">
        <ele>3.1</ele>
        <time>2019-07-11T08:55:52Z</time>
      </trkpt>
      <trkpt lat="48.82935" lon="-3.49871">
        <ele>3</ele>
        <time>2019-07-11T08:55:53Z</time>
      </trkpt>
      <trkpt lat="48.82932" lon="-3.4987">
        <ele>2.7</ele>
        <time>2019-07-11T08:55:54Z</time>
      </trkpt>
      <trkpt lat="48.82929" lon="-3.4987">
        <ele>2.8</ele>
        <time>2019-07-11T08:55:55Z</time>
      </trkpt>
      <trkpt lat="48.82925" lon="-3.4987">
        <ele>2.6</ele>
        <time>2019-07-11T08:55:56Z</time>
      </trkpt>
      <trkpt lat="48.82922" lon="-3.4987">
        <ele>2.3</ele>
        <time>2019-07-11T08:55:57Z</time>
      </trkpt>
      <trkpt lat="48.82919" lon="-3.4987">
        <ele>2.1</ele>
        <time>2019-07-11T08:55:58Z</time>
      </trkpt>
      <trkpt lat="48.82916" lon="-3.49869">
        <ele>1.9</ele>
        <time>2019-07-11T08:55:59Z</time>
      </trkpt>
      <trkpt lat="48.82912" lon="-3.49869">
        <ele>1.8</ele>
        <time>2019-07-11T08:56:00Z</time>
      </trkpt>
      <trkpt lat="48.82909" lon="-3.49869">
        <ele>1.4</ele>
        <time>2019-07-11T08:56:01Z</time>
      </trkpt>
      <trkpt lat="48.82905" lon="-3.49869">
        <ele>0.8</ele>
        <time>2019-07-11T08:56:02Z</time>
      </trkpt>
      <trkpt lat="48.82903" lon="-3.49871">
        <ele>1.1</ele>
        <time>2019-07-11T08:56:03Z</time>
      </trkpt>
      <trkpt lat="48.829" lon="-3.49872">
        <ele>1.2</ele>
        <time>2019-07-11T08:56:04Z</time>
      </trkpt>
      <trkpt lat="48.82898" lon="-3.49872">
        <ele>1.6</ele>
        <time>2019-07-11T08:56:05Z</time>
      </trkpt>
      <trkpt lat="48.82895" lon="-3.49873">
        <ele>1.6</ele>
        <time>2019-07-11T08:56:06Z</time>
      </trkpt>
      <trkpt lat="48.82892" lon="-3.49872">
        <ele>1.6</ele>
        <time>2019-07-11T08:56:07Z</time>
      </trkpt>
      <trkpt lat="48.82889" lon="-3.49872">
        <ele>1.7</ele>
        <time>2019-07-11T08:56:08Z</time>
      </trkpt>
      <trkpt lat="48.82886" lon="-3.49874">
        <ele>2.2</ele>
        <time>2019-07-11T08:56:09Z</time>
      </trkpt>
      <trkpt lat="48.82884" lon="-3.49874">
        <ele>3</ele>
        <time>2019-07-11T08:56:10Z</time>
      </trkpt>
      <trkpt lat="48.82882" lon="-3.49874">
        <ele>3.4</ele>
        <time>2019-07-11T08:56:11Z</time>
      </trkpt>
      <trkpt lat="48.8288" lon="-3.49874">
        <ele>3.7</ele>
        <time>2019-07-11T08:56:12Z</time>
      </trkpt>
      <trkpt lat="48.82877" lon="-3.49873">
        <ele>3.7</ele>
        <time>2019-07-11T08:56:13Z</time>
      </trkpt>
      <trkpt lat="48.82874" lon="-3.49874">
        <ele>3.9</ele>
        <time>2019-07-11T08:56:14Z</time>
      </trkpt>
      <trkpt lat="48.82871" lon="-3.49873">
        <ele>3.9</ele>
        <time>2019-07-11T08:56:15Z</time>
      </trkpt>
      <trkpt lat="48.82867" lon="-3.49873">
        <ele>4</ele>
        <time>2019-07-11T08:56:16Z</time>
      </trkpt>
      <trkpt lat="48.82864" lon="-3.49873">
        <ele>3.9</ele>
        <time>2019-07-11T08:56:17Z</time>
      </trkpt>
      <trkpt lat="48.8286" lon="-3.49873">
        <ele>3.6</ele>
        <time>2019-07-11T08:56:18Z</time>
      </trkpt>
      <trkpt lat="48.82856" lon="-3.49873">
        <ele>3.1</ele>
        <time>2019-07-11T08:56:19Z</time>
      </trkpt>
      <trkpt lat="48.82853" lon="-3.49874">
        <ele>3.3</ele>
        <time>2019-07-11T08:56:20Z</time>
      </trkpt>
      <trkpt lat="48.8285" lon="-3.49874">
        <ele>3.5</ele>
        <time>2019-07-11T08:56:21Z</time>
      </trkpt>
      <trkpt lat="48.82846" lon="-3.49874">
        <ele>4.1</ele>
        <time>2019-07-11T08:56:22Z</time>
      </trkpt>
      <trkpt lat="48.82842" lon="-3.49877">
        <ele>4.7</ele>
        <time>2019-07-11T08:56:23Z</time>
      </trkpt>
      <trkpt lat="48.8284" lon="-3.49878">
        <ele>4.4</ele>
        <time>2019-07-11T08:56:24Z</time>
      </trkpt>
      <trkpt lat="48.82837" lon="-3.49879">
        <ele>4.3</ele>
        <time>2019-07-11T08:56:25Z</time>
      </trkpt>
      <trkpt lat="48.82834" lon="-3.49881">
        <ele>4</ele>
        <time>2019-07-11T08:56:26Z</time>
      </trkpt>
      <trkpt lat="48.82831" lon="-3.49884">
        <ele>4.4</ele>
        <time>2019-07-11T08:56:27Z</time>
      </trkpt>
      <trkpt lat="48.82828" lon="-3.49885">
        <ele>4.5</ele>
        <time>2019-07-11T08:56:28Z</time>
      </trkpt>
      <trkpt lat="48.82825" lon="-3.49887">
        <ele>4.8</ele>
        <time>2019-07-11T08:56:29Z</time>
      </trkpt>
      <trkpt lat="48.82822" lon="-3.49888">
        <ele>4.3</ele>
        <time>2019-07-11T08:56:30Z</time>
      </trkpt>
      <trkpt lat="48.8282" lon="-3.49889">
        <ele>3.5</ele>
        <time>2019-07-11T08:56:31Z</time>
      </trkpt>
      <trkpt lat="48.82817" lon="-3.49892">
        <ele>3.8</ele>
        <time>2019-07-11T08:56:32Z</time>
      </trkpt>
      <trkpt lat="48.82814" lon="-3.49893">
        <ele>4.1</ele>
        <time>2019-07-11T08:56:33Z</time>
      </trkpt>
      <trkpt lat="48.82811" lon="-3.49894">
        <ele>4.8</ele>
        <time>2019-07-11T08:56:34Z</time>
      </trkpt>
      <trkpt lat="48.82809" lon="-3.49896">
        <ele>5.5</ele>
        <time>2019-07-11T08:56:35Z</time>
      </trkpt>
      <trkpt lat="48.82806" lon="-3.49899">
        <ele>6.2</ele>
        <time>2019-07-11T08:56:36Z</time>
      </trkpt>
      <trkpt lat="48.82804" lon="-3.49903">
        <ele>7.2</ele>
        <time>2019-07-11T08:56:37Z</time>
      </trkpt>
      <trkpt lat="48.82801" lon="-3.49904">
        <ele>8.1</ele>
        <time>2019-07-11T08:56:38Z</time>
      </trkpt>
      <trkpt lat="48.82799" lon="-3.49906">
        <ele>9.7</ele>
        <time>2019-07-11T08:56:39Z</time>
      </trkpt>
      <trkpt lat="48.82796" lon="-3.49907">
        <ele>10.5</ele>
        <time>2019-07-11T08:56:40Z</time>
      </trkpt>
      <trkpt lat="48.82792" lon="-3.49909">
        <ele>11.1</ele>
        <time>2019-07-11T08:56:41Z</time>
      </trkpt>
      <trkpt lat="48.82788" lon="-3.49911">
        <ele>11.8</ele>
        <time>2019-07-11T08:56:42Z</time>
      </trkpt>
      <trkpt lat="48.82784" lon="-3.49911">
        <ele>11.7</ele>
        <time>2019-07-11T08:56:43Z</time>
      </trkpt>
      <trkpt lat="48.82781" lon="-3.49912">
        <ele>11.5</ele>
        <time>2019-07-11T08:56:44Z</time>
      </trkpt>
      <trkpt lat="48.82778" lon="-3.49912">
        <ele>11</ele>
        <time>2019-07-11T08:56:45Z</time>
      </trkpt>
      <trkpt lat="48.82774" lon="-3.49912">
        <ele>11</ele>
        <time>2019-07-11T08:56:46Z</time>
      </trkpt>
      <trkpt lat="48.8277" lon="-3.49912">
        <ele>10.2</ele>
        <time>2019-07-11T08:56:47Z</time>
      </trkpt>
      <trkpt lat="48.82768" lon="-3.49913">
        <ele>9.8</ele>
        <time>2019-07-11T08:56:48Z</time>
      </trkpt>
      <trkpt lat="48.82764" lon="-3.49914">
        <ele>9.5</ele>
        <time>2019-07-11T08:56:49Z</time>
      </trkpt>
      <trkpt lat="48.82761" lon="-3.49914">
        <ele>8.5</ele>
        <time>2019-07-11T08:56:50Z</time>
      </trkpt>
      <trkpt lat="48.82758" lon="-3.49913">
        <ele>7.4</ele>
        <time>2019-07-11T08:56:51Z</time>
      </trkpt>
      <trkpt lat="48.82754" lon="-3.49912">
        <ele>6.3</ele>
        <time>2019-07-11T08:56:52Z</time>
      </trkpt>
      <trkpt lat="48.82751" lon="-3.49912">
        <ele>6</ele>
        <time>2019-07-11T08:56:53Z</time>
      </trkpt>
      <trkpt lat="48.82747" lon="-3.4991">
        <ele>5.2</ele>
        <time>2019-07-11T08:56:54Z</time>
      </trkpt>
      <trkpt lat="48.82744" lon="-3.4991">
        <ele>5</ele>
        <time>2019-07-11T08:56:55Z</time>
      </trkpt>
      <trkpt lat="48.8274" lon="-3.49909">
        <ele>4.5</ele>
        <time>2019-07-11T08:56:56Z</time>
      </trkpt>
      <trkpt lat="48.82736" lon="-3.49908">
        <ele>4.5</ele>
        <time>2019-07-11T08:56:57Z</time>
      </trkpt>
      <trkpt lat="48.82732" lon="-3.49908">
        <ele>4.3</ele>
        <time>2019-07-11T08:56:58Z</time>
      </trkpt>
      <trkpt lat="48.82728" lon="-3.49908">
        <ele>4</ele>
        <time>2019-07-11T08:56:59Z</time>
      </trkpt>
      <trkpt lat="48.82724" lon="-3.49908">
        <ele>4.2</ele>
        <time>2019-07-11T08:57:00Z</time>
      </trkpt>
      <trkpt lat="48.82716" lon="-3.49907">
        <ele>3.7</ele>
        <time>2019-07-11T08:57:02Z</time>
      </trkpt>
      <trkpt lat="48.82711" lon="-3.49907">
        <ele>3.3</ele>
        <time>2019-07-11T08:57:03Z</time>
      </trkpt>
      <trkpt lat="48.82708" lon="-3.49908">
        <ele>3.9</ele>
        <time>2019-07-11T08:57:04Z</time>
      </trkpt>
      <trkpt lat="48.82704" lon="-3.49907">
        <ele>3.6</ele>
        <time>2019-07-11T08:57:05Z</time>
      </trkpt>
      <trkpt lat="48.827" lon="-3.49907">
        <ele>4</ele>
        <time>2019-07-11T08:57:06Z</time>
      </trkpt>
      <trkpt lat="48.82697" lon="-3.49908">
        <ele>4.4</ele>
        <time>2019-07-11T08:57:07Z</time>
      </trkpt>
      <trkpt lat="48.82694" lon="-3.49907">
        <ele>4.2</ele>
        <time>2019-07-11T08:57:08Z</time>
      </trkpt>
      <trkpt lat="48.8269" lon="-3.49906">
        <ele>4.3</ele>
        <time>2019-07-11T08:57:09Z</time>
      </trkpt>
      <trkpt lat="48.82686" lon="-3.49905">
        <ele>4.4</ele>
        <time>2019-07-11T08:57:10Z</time>
      </trkpt>
      <trkpt lat="48.82683" lon="-3.49905">
        <ele>4.2</ele>
        <time>2019-07-11T08:57:11Z</time>
      </trkpt>
      <trkpt lat="48.82679" lon="-3.49904">
        <ele>4.5</ele>
        <time>2019-07-11T08:57:12Z</time>
      </trkpt>
      <trkpt lat="48.82676" lon="-3.49904">
        <ele>4.7</ele>
        <time>2019-07-11T08:57:13Z</time>
      </trkpt>
      <trkpt lat="48.82672" lon="-3.49904">
        <ele>4.8</ele>
        <time>2019-07-11T08:57:14Z</time>
      </trkpt>
      <trkpt lat="48.82669" lon="-3.49904">
        <ele>5.2</ele>
        <time>2019-07-11T08:57:15Z</time>
      </trkpt>
      <trkpt lat="48.82665" lon="-3.49902">
        <ele>4.4</ele>
        <time>2019-07-11T08:57:16Z</time>
      </trkpt>
      <trkpt lat="48.82661" lon="-3.49901">
        <ele>4.2</ele>
        <time>2019-07-11T08:57:17Z</time>
      </trkpt>
      <trkpt lat="48.82658" lon="-3.49899">
        <ele>4</ele>
        <time>2019-07-11T08:57:18Z</time>
      </trkpt>
      <trkpt lat="48.82655" lon="-3.49897">
        <ele>4.1</ele>
        <time>2019-07-11T08:57:19Z</time>
      </trkpt>
      <trkpt lat="48.82653" lon="-3.49895">
        <ele>4.1</ele>
        <time>2019-07-11T08:57:20Z</time>
      </trkpt>
      <trkpt lat="48.8265" lon="-3.49893">
        <ele>4</ele>
        <time>2019-07-11T08:57:21Z</time>
      </trkpt>
      <trkpt lat="48.82647" lon="-3.49891">
        <ele>4</ele>
        <time>2019-07-11T08:57:22Z</time>
      </trkpt>
      <trkpt lat="48.82644" lon="-3.49889">
        <ele>4</ele>
        <time>2019-07-11T08:57:23Z</time>
      </trkpt>
      <trkpt lat="48.82641" lon="-3.49886">
        <ele>3.9</ele>
        <time>2019-07-11T08:57:24Z</time>
      </trkpt>
      <trkpt lat="48.82638" lon="-3.49884">
        <ele>4.1</ele>
        <time>2019-07-11T08:57:25Z</time>
      </trkpt>
      <trkpt lat="48.82636" lon="-3.49883">
        <ele>4.8</ele>
        <time>2019-07-11T08:57:26Z</time>
      </trkpt>
      <trkpt lat="48.82633" lon="-3.49881">
        <ele>4.8</ele>
        <time>2019-07-11T08:57:27Z</time>
      </trkpt>
      <trkpt lat="48.8263" lon="-3.49882">
        <ele>5.4</ele>
        <time>2019-07-11T08:57:28Z</time>
      </trkpt>
      <trkpt lat="48.82628" lon="-3.49882">
        <ele>5.9</ele>
        <time>2019-07-11T08:57:29Z</time>
      </trkpt>
      <trkpt lat="48.82625" lon="-3.49882">
        <ele>6.2</ele>
        <time>2019-07-11T08:57:30Z</time>
      </trkpt>
      <trkpt lat="48.82622" lon="-3.49882">
        <ele>6.6</ele>
        <time>2019-07-11T08:57:31Z</time>
      </trkpt>
      <trkpt lat="48.82619" lon="-3.49882">
        <ele>6.9</ele>
        <time>2019-07-11T08:57:32Z</time>
      </trkpt>
      <trkpt lat="48.82616" lon="-3.49882">
        <ele>7.2</ele>
        <time>2019-07-11T08:57:33Z</time>
      </trkpt>
      <trkpt lat="48.82612" lon="-3.49881">
        <ele>7</ele>
        <time>2019-07-11T08:57:34Z</time>
      </trkpt>
      <trkpt lat="48.82609" lon="-3.49879">
        <ele>6.2</ele>
        <time>2019-07-11T08:57:35Z</time>
      </trkpt>
      <trkpt lat="48.82606" lon="-3.49878">
        <ele>6</ele>
        <time>2019-07-11T08:57:36Z</time>
      </trkpt>
      <trkpt lat="48.82603" lon="-3.49876">
        <ele>5.7</ele>
        <time>2019-07-11T08:57:37Z</time>
      </trkpt>
      <trkpt lat="48.82601" lon="-3.49876">
        <ele>6</ele>
        <time>2019-07-11T08:57:38Z</time>
      </trkpt>
      <trkpt lat="48.82598" lon="-3.49876">
        <ele>6.6</ele>
        <time>2019-07-11T08:57:39Z</time>
      </trkpt>
      <trkpt lat="48.82595" lon="-3.49876">
        <ele>7.4</ele>
        <time>2019-07-11T08:57:40Z</time>
      </trkpt>
      <trkpt lat="48.82593" lon="-3.49876">
        <ele>8.3</ele>
        <time>2019-07-11T08:57:41Z</time>
      </trkpt>
      <trkpt lat="48.8259" lon="-3.49875">
        <ele>8.8</ele>
        <time>2019-07-11T08:57:42Z</time>
      </trkpt>
      <trkpt lat="48.82587" lon="-3.49874">
        <ele>9.5</ele>
        <time>2019-07-11T08:57:43Z</time>
      </trkpt>
      <trkpt lat="48.82584" lon="-3.49873">
        <ele>10</ele>
        <time>2019-07-11T08:57:44Z</time>
      </trkpt>
      <trkpt lat="48.82581" lon="-3.49872">
        <ele>10.2</ele>
        <time>2019-07-11T08:57:45Z</time>
      </trkpt>
      <trkpt lat="48.82578" lon="-3.4987">
        <ele>10.3</ele>
        <time>2019-07-11T08:57:46Z</time>
      </trkpt>
      <trkpt lat="48.82575" lon="-3.49869">
        <ele>10.6</ele>
        <time>2019-07-11T08:57:47Z</time>
      </trkpt>
      <trkpt lat="48.82571" lon="-3.49867">
        <ele>10.9</ele>
        <time>2019-07-11T08:57:48Z</time>
      </trkpt>
      <trkpt lat="48.82568" lon="-3.49865">
        <ele>10.9</ele>
        <time>2019-07-11T08:57:49Z</time>
      </trkpt>
      <trkpt lat="48.82564" lon="-3.49862">
        <ele>10.7</ele>
        <time>2019-07-11T08:57:50Z</time>
      </trkpt>
      <trkpt lat="48.8256" lon="-3.4986">
        <ele>10.8</ele>
        <time>2019-07-11T08:57:51Z</time>
      </trkpt>
      <trkpt lat="48.82557" lon="-3.49859">
        <ele>10.8</ele>
        <time>2019-07-11T08:57:52Z</time>
      </trkpt>
      <trkpt lat="48.82554" lon="-3.49857">
        <ele>11.1</ele>
        <time>2019-07-11T08:57:53Z</time>
      </trkpt>
      <trkpt lat="48.8255" lon="-3.49856">
        <ele>11.4</ele>
        <time>2019-07-11T08:57:54Z</time>
      </trkpt>
      <trkpt lat="48.82547" lon="-3.49855">
        <ele>11.6</ele>
        <time>2019-07-11T08:57:55Z</time>
      </trkpt>
      <trkpt lat="48.82543" lon="-3.49854">
        <ele>11.6</ele>
        <time>2019-07-11T08:57:56Z</time>
      </trkpt>
      <trkpt lat="48.82539" lon="-3.49854">
        <ele>11.7</ele>
        <time>2019-07-11T08:57:57Z</time>
      </trkpt>
      <trkpt lat="48.82536" lon="-3.49853">
        <ele>11.8</ele>
        <time>2019-07-11T08:57:58Z</time>
      </trkpt>
      <trkpt lat="48.82533" lon="-3.49852">
        <ele>12.1</ele>
        <time>2019-07-11T08:57:59Z</time>
      </trkpt>
      <trkpt lat="48.82529" lon="-3.4985">
        <ele>12.3</ele>
        <time>2019-07-11T08:58:00Z</time>
      </trkpt>
      <trkpt lat="48.82526" lon="-3.49849">
        <ele>12.6</ele>
        <time>2019-07-11T08:58:01Z</time>
      </trkpt>
      <trkpt lat="48.82523" lon="-3.49846">
        <ele>12.1</ele>
        <time>2019-07-11T08:58:02Z</time>
      </trkpt>
      <trkpt lat="48.8252" lon="-3.49843">
        <ele>11.6</ele>
        <time>2019-07-11T08:58:03Z</time>
      </trkpt>
      <trkpt lat="48.82517" lon="-3.49842">
        <ele>11.2</ele>
        <time>2019-07-11T08:58:04Z</time>
      </trkpt>
      <trkpt lat="48.82514" lon="-3.49841">
        <ele>11.1</ele>
        <time>2019-07-11T08:58:05Z</time>
      </trkpt>
      <trkpt lat="48.82511" lon="-3.49839">
        <ele>10.2</ele>
        <time>2019-07-11T08:58:06Z</time>
      </trkpt>
      <trkpt lat="48.82507" lon="-3.49838">
        <ele>9.8</ele>
        <time>2019-07-11T08:58:07Z</time>
      </trkpt>
      <trkpt lat="48.82504" lon="-3.49836">
        <ele>9.7</ele>
        <time>2019-07-11T08:58:08Z</time>
      </trkpt>
      <trkpt lat="48.82501" lon="-3.49835">
        <ele>9.3</ele>
        <time>2019-07-11T08:58:09Z</time>
      </trkpt>
      <trkpt lat="48.82497" lon="-3.49833">
        <ele>8.5</ele>
        <time>2019-07-11T08:58:10Z</time>
      </trkpt>
      <trkpt lat="48.82492" lon="-3.49831">
        <ele>8.1</ele>
        <time>2019-07-11T08:58:11Z</time>
      </trkpt>
      <trkpt lat="48.82488" lon="-3.49828">
        <ele>7.5</ele>
        <time>2019-07-11T08:58:12Z</time>
      </trkpt>
      <trkpt lat="48.82483" lon="-3.49825">
        <ele>6.5</ele>
        <time>2019-07-11T08:58:13Z</time>
      </trkpt>
      <trkpt lat="48.82479" lon="-3.49823">
        <ele>6.1</ele>
        <time>2019-07-11T08:58:14Z</time>
      </trkpt>
      <trkpt lat="48.82476" lon="-3.49822">
        <ele>6</ele>
        <time>2019-07-11T08:58:15Z</time>
      </trkpt>
      <trkpt lat="48.82473" lon="-3.4982">
        <ele>6.2</ele>
        <time>2019-07-11T08:58:16Z</time>
      </trkpt>
      <trkpt lat="48.8247" lon="-3.49819">
        <ele>7.1</ele>
        <time>2019-07-11T08:58:17Z</time>
      </trkpt>
      <trkpt lat="48.82467" lon="-3.49817">
        <ele>7.6</ele>
        <time>2019-07-11T08:58:18Z</time>
      </trkpt>
      <trkpt lat="48.82465" lon="-3.49816">
        <ele>8</ele>
        <time>2019-07-11T08:58:19Z</time>
      </trkpt>
      <trkpt lat="48.82462" lon="-3.49814">
        <ele>8.2</ele>
        <time>2019-07-11T08:58:20Z</time>
      </trkpt>
      <trkpt lat="48.82459" lon="-3.49812">
        <ele>8.2</ele>
        <time>2019-07-11T08:58:21Z</time>
      </trkpt>
      <trkpt lat="48.82456" lon="-3.49811">
        <ele>8.2</ele>
        <time>2019-07-11T08:58:22Z</time>
      </trkpt>
      <trkpt lat="48.82453" lon="-3.49809">
        <ele>9.2</ele>
        <time>2019-07-11T08:58:23Z</time>
      </trkpt>
      <trkpt lat="48.82452" lon="-3.49809">
        <ele>9.7</ele>
        <time>2019-07-11T08:58:24Z</time>
      </trkpt>
      <trkpt lat="48.82443" lon="-3.49799">
        <ele>9.5</ele>
        <time>2019-07-11T08:58:49Z</time>
      </trkpt>
      <trkpt lat="48.82441" lon="-3.49795">
        <ele>9.8</ele>
        <time>2019-07-11T08:58:50Z</time>
      </trkpt>
      <trkpt lat="48.8244" lon="-3.49792">
        <ele>9.9</ele>
        <time>2019-07-11T08:58:51Z</time>
      </trkpt>
      <trkpt lat="48.82439" lon="-3.49789">
        <ele>10</ele>
        <time>2019-07-11T08:58:52Z</time>
      </trkpt>
      <trkpt lat="48.82439" lon="-3.49787">
        <ele>10.2</ele>
        <time>2019-07-11T08:58:53Z</time>
      </trkpt>
      <trkpt lat="48.82438" lon="-3.49786">
        <ele>10.1</ele>
        <time>2019-07-11T08:58:54Z</time>
      </trkpt>
      <trkpt lat="48.82437" lon="-3.49785">
        <ele>10.1</ele>
        <time>2019-07-11T08:58:55Z</time>
      </trkpt>
      <trkpt lat="48.82437" lon="-3.49784">
        <ele>10</ele>
        <time>2019-07-11T08:58:56Z</time>
      </trkpt>
      <trkpt lat="48.82437" lon="-3.49783">
        <ele>10.1</ele>
        <time>2019-07-11T08:58:57Z</time>
      </trkpt>
      <trkpt lat="48.82438" lon="-3.49783">
        <ele>10.2</ele>
        <time>2019-07-11T08:58:58Z</time>
      </trkpt>
      <trkpt lat="48.82439" lon="-3.49785">
        <ele>10.4</ele>
        <time>2019-07-11T08:58:59Z</time>
      </trkpt>
      <trkpt lat="48.82439" lon="-3.49788">
        <ele>10.3</ele>
        <time>2019-07-11T08:59:00Z</time>
      </trkpt>
      <trkpt lat="48.82439" lon="-3.4979">
        <ele>10</ele>
        <time>2019-07-11T08:59:01Z</time>
      </trkpt>
      <trkpt lat="48.82439" lon="-3.49793">
        <ele>9.9</ele>
        <time>2019-07-11T08:59:02Z</time>
      </trkpt>
      <trkpt lat="48.8244" lon="-3.49795">
        <ele>9.7</ele>
        <time>2019-07-11T08:59:03Z</time>
      </trkpt>
      <trkpt lat="48.8244" lon="-3.49797">
        <ele>9.8</ele>
        <time>2019-07-11T08:59:04Z</time>
      </trkpt>
      <trkpt lat="48.82439" lon="-3.49794">
        <ele>5.9</ele>
        <time>2019-07-11T09:03:31Z</time>
      </trkpt>
      <trkpt lat="48.82439" lon="-3.49792">
        <ele>5.9</ele>
        <time>2019-07-11T09:03:32Z</time>
      </trkpt>
      <trkpt lat="48.82439" lon="-3.4979">
        <ele>5.9</ele>
        <time>2019-07-11T09:03:33Z</time>
      </trkpt>
      <trkpt lat="48.82439" lon="-3.49787">
        <ele>6</ele>
        <time>2019-07-11T09:03:34Z</time>
      </trkpt>
      <trkpt lat="48.82438" lon="-3.49785">
        <ele>5.9</ele>
        <time>2019-07-11T09:03:35Z</time>
      </trkpt>
      <trkpt lat="48.82436" lon="-3.49784">
        <ele>5.5</ele>
        <time>2019-07-11T09:03:36Z</time>
      </trkpt>
      <trkpt lat="48.82433" lon="-3.49784">
        <ele>5.4</ele>
        <time>2019-07-11T09:03:37Z</time>
      </trkpt>
      <trkpt lat="48.82432" lon="-3.49785">
        <ele>5.3</ele>
        <time>2019-07-11T09:03:38Z</time>
      </trkpt>
      <trkpt lat="48.8243" lon="-3.49787">
        <ele>5.6</ele>
        <time>2019-07-11T09:03:39Z</time>
      </trkpt>
      <trkpt lat="48.82428" lon="-3.49789">
        <ele>6.1</ele>
        <time>2019-07-11T09:03:40Z</time>
      </trkpt>
      <trkpt lat="48.82426" lon="-3.49791">
        <ele>6.7</ele>
        <time>2019-07-11T09:03:41Z</time>
      </trkpt>
      <trkpt lat="48.82424" lon="-3.49794">
        <ele>7.2</ele>
        <time>2019-07-11T09:03:42Z</time>
      </trkpt>
      <trkpt lat="48.82423" lon="-3.49796">
        <ele>7.8</ele>
        <time>2019-07-11T09:03:43Z</time>
      </trkpt>
      <trkpt lat="48.82421" lon="-3.498">
        <ele>8.1</ele>
        <time>2019-07-11T09:03:44Z</time>
      </trkpt>
      <trkpt lat="48.8242" lon="-3.49804">
        <ele>8.3</ele>
        <time>2019-07-11T09:03:45Z</time>
      </trkpt>
      <trkpt lat="48.82419" lon="-3.49808">
        <ele>8.5</ele>
        <time>2019-07-11T09:03:46Z</time>
      </trkpt>
      <trkpt lat="48.82418" lon="-3.49812">
        <ele>8.9</ele>
        <time>2019-07-11T09:03:47Z</time>
      </trkpt>
      <trkpt lat="48.82418" lon="-3.49816">
        <ele>9</ele>
        <time>2019-07-11T09:03:48Z</time>
      </trkpt>
      <trkpt lat="48.82417" lon="-3.49819">
        <ele>9.6</ele>
        <time>2019-07-11T09:03:49Z</time>
      </trkpt>
      <trkpt lat="48.82415" lon="-3.49823">
        <ele>9.5</ele>
        <time>2019-07-11T09:03:50Z</time>
      </trkpt>
      <trkpt lat="48.82414" lon="-3.49828">
        <ele>9.4</ele>
        <time>2019-07-11T09:03:51Z</time>
      </trkpt>
      <trkpt lat="48.82413" lon="-3.49832">
        <ele>9.4</ele>
        <time>2019-07-11T09:03:52Z</time>
      </trkpt>
      <trkpt lat="48.82411" lon="-3.49837">
        <ele>9.4</ele>
        <time>2019-07-11T09:03:53Z</time>
      </trkpt>
      <trkpt lat="48.8241" lon="-3.49841">
        <ele>9.4</ele>
        <time>2019-07-11T09:03:54Z</time>
      </trkpt>
      <trkpt lat="48.82409" lon="-3.49845">
        <ele>9.1</ele>
        <time>2019-07-11T09:03:55Z</time>
      </trkpt>
      <trkpt lat="48.82408" lon="-3.49849">
        <ele>9.4</ele>
        <time>2019-07-11T09:03:56Z</time>
      </trkpt>
      <trkpt lat="48.82407" lon="-3.49854">
        <ele>9.2</ele>
        <time>2019-07-11T09:03:57Z</time>
      </trkpt>
      <trkpt lat="48.82405" lon="-3.49858">
        <ele>9.2</ele>
        <time>2019-07-11T09:03:58Z</time>
      </trkpt>
      <trkpt lat="48.82404" lon="-3.49863">
        <ele>8.9</ele>
        <time>2019-07-11T09:03:59Z</time>
      </trkpt>
      <trkpt lat="48.82403" lon="-3.49867">
        <ele>8.4</ele>
        <time>2019-07-11T09:04:00Z</time>
      </trkpt>
      <trkpt lat="48.82402" lon="-3.49871">
        <ele>8.4</ele>
        <time>2019-07-11T09:04:01Z</time>
      </trkpt>
      <trkpt lat="48.82401" lon="-3.49875">
        <ele>8.5</ele>
        <time>2019-07-11T09:04:02Z</time>
      </trkpt>
      <trkpt lat="48.82399" lon="-3.49879">
        <ele>8.4</ele>
        <time>2019-07-11T09:04:03Z</time>
      </trkpt>
      <trkpt lat="48.82397" lon="-3.49883">
        <ele>8</ele>
        <time>2019-07-11T09:04:04Z</time>
      </trkpt>
      <trkpt lat="48.82395" lon="-3.49887">
        <ele>7.9</ele>
        <time>2019-07-11T09:04:05Z</time>
      </trkpt>
      <trkpt lat="48.82395" lon="-3.49893">
        <ele>7.8</ele>
        <time>2019-07-11T09:04:06Z</time>
      </trkpt>
      <trkpt lat="48.82394" lon="-3.49898">
        <ele>7.8</ele>
        <time>2019-07-11T09:04:07Z</time>
      </trkpt>
      <trkpt lat="48.82393" lon="-3.49903">
        <ele>7.8</ele>
        <time>2019-07-11T09:04:08Z</time>
      </trkpt>
      <trkpt lat="48.82392" lon="-3.49907">
        <ele>7.4</ele>
        <time>2019-07-11T09:04:09Z</time>
      </trkpt>
      <trkpt lat="48.82391" lon="-3.49911">
        <ele>7</ele>
        <time>2019-07-11T09:04:10Z</time>
      </trkpt>
      <trkpt lat="48.8239" lon="-3.49915">
        <ele>6.4</ele>
        <time>2019-07-11T09:04:11Z</time>
      </trkpt>
      <trkpt lat="48.82389" lon="-3.49919">
        <ele>6.3</ele>
        <time>2019-07-11T09:04:12Z</time>
      </trkpt>
      <trkpt lat="48.82389" lon="-3.49923">
        <ele>6</ele>
        <time>2019-07-11T09:04:13Z</time>
      </trkpt>
      <trkpt lat="48.82389" lon="-3.49927">
        <ele>5.6</ele>
        <time>2019-07-11T09:04:14Z</time>
      </trkpt>
      <trkpt lat="48.82388" lon="-3.49931">
        <ele>5.8</ele>
        <time>2019-07-11T09:04:15Z</time>
      </trkpt>
      <trkpt lat="48.82387" lon="-3.49936">
        <ele>5.2</ele>
        <time>2019-07-11T09:04:16Z</time>
      </trkpt>
      <trkpt lat="48.82386" lon="-3.4994">
        <ele>5</ele>
        <time>2019-07-11T09:04:17Z</time>
      </trkpt>
      <trkpt lat="48.82385" lon="-3.49945">
        <ele>5.4</ele>
        <time>2019-07-11T09:04:18Z</time>
      </trkpt>
      <trkpt lat="48.82384" lon="-3.4995">
        <ele>5.3</ele>
        <time>2019-07-11T09:04:19Z</time>
      </trkpt>
      <trkpt lat="48.82383" lon="-3.49954">
        <ele>5</ele>
        <time>2019-07-11T09:04:20Z</time>
      </trkpt>
      <trkpt lat="48.82382" lon="-3.49958">
        <ele>5.8</ele>
        <time>2019-07-11T09:04:21Z</time>
      </trkpt>
      <trkpt lat="48.82381" lon="-3.49963">
        <ele>6</ele>
        <time>2019-07-11T09:04:22Z</time>
      </trkpt>
      <trkpt lat="48.8238" lon="-3.49967">
        <ele>6.1</ele>
        <time>2019-07-11T09:04:23Z</time>
      </trkpt>
      <trkpt lat="48.82379" lon="-3.49971">
        <ele>5.9</ele>
        <time>2019-07-11T09:04:24Z</time>
      </trkpt>
      <trkpt lat="48.82378" lon="-3.49975">
        <ele>5.6</ele>
        <time>2019-07-11T09:04:25Z</time>
      </trkpt>
      <trkpt lat="48.82378" lon="-3.49979">
        <ele>5.2</ele>
        <time>2019-07-11T09:04:26Z</time>
      </trkpt>
      <trkpt lat="48.82378" lon="-3.49983">
        <ele>4.9</ele>
        <time>2019-07-11T09:04:27Z</time>
      </trkpt>
      <trkpt lat="48.82377" lon="-3.49987">
        <ele>4.6</ele>
        <time>2019-07-11T09:04:28Z</time>
      </trkpt>
      <trkpt lat="48.82375" lon="-3.4999">
        <ele>4.2</ele>
        <time>2019-07-11T09:04:29Z</time>
      </trkpt>
      <trkpt lat="48.82374" lon="-3.49994">
        <ele>4.3</ele>
        <time>2019-07-11T09:04:30Z</time>
      </trkpt>
      <trkpt lat="48.82373" lon="-3.49997">
        <ele>4.3</ele>
        <time>2019-07-11T09:04:31Z</time>
      </trkpt>
      <trkpt lat="48.82372" lon="-3.50001">
        <ele>4.7</ele>
        <time>2019-07-11T09:04:32Z</time>
      </trkpt>
      <trkpt lat="48.8237" lon="-3.50004">
        <ele>5</ele>
        <time>2019-07-11T09:04:33Z</time>
      </trkpt>
      <trkpt lat="48.8237" lon="-3.50007">
        <ele>5.2</ele>
        <time>2019-07-11T09:04:34Z</time>
      </trkpt>
      <trkpt lat="48.82369" lon="-3.50011">
        <ele>5.5</ele>
        <time>2019-07-11T09:04:35Z</time>
      </trkpt>
      <trkpt lat="48.8237" lon="-3.50015">
        <ele>6.1</ele>
        <time>2019-07-11T09:04:36Z</time>
      </trkpt>
      <trkpt lat="48.8237" lon="-3.50018">
        <ele>7</ele>
        <time>2019-07-11T09:04:37Z</time>
      </trkpt>
      <trkpt lat="48.8237" lon="-3.5002">
        <ele>7.3</ele>
        <time>2019-07-11T09:04:38Z</time>
      </trkpt>
      <trkpt lat="48.8237" lon="-3.50022">
        <ele>7.4</ele>
        <time>2019-07-11T09:04:39Z</time>
      </trkpt>
      <trkpt lat="48.8237" lon="-3.50024">
        <ele>7.6</ele>
        <time>2019-07-11T09:04:40Z</time>
      </trkpt>
      <trkpt lat="48.82371" lon="-3.50026">
        <ele>7.2</ele>
        <time>2019-07-11T09:04:41Z</time>
      </trkpt>
      <trkpt lat="48.82367" lon="-3.50034">
        <ele>8.7</ele>
        <time>2019-07-11T09:05:13Z</time>
      </trkpt>
      <trkpt lat="48.82366" lon="-3.50037">
        <ele>8.8</ele>
        <time>2019-07-11T09:05:14Z</time>
      </trkpt>
      <trkpt lat="48.82365" lon="-3.50042">
        <ele>9</ele>
        <time>2019-07-11T09:05:15Z</time>
      </trkpt>
      <trkpt lat="48.82365" lon="-3.50046">
        <ele>9.2</ele>
        <time>2019-07-11T09:05:16Z</time>
      </trkpt>
      <trkpt lat="48.82364" lon="-3.50051">
        <ele>9.4</ele>
        <time>2019-07-11T09:05:17Z</time>
      </trkpt>
      <trkpt lat="48.82363" lon="-3.50056">
        <ele>9.6</ele>
        <time>2019-07-11T09:05:18Z</time>
      </trkpt>
      <trkpt lat="48.82362" lon="-3.50061">
        <ele>9.8</ele>
        <time>2019-07-11T09:05:19Z</time>
      </trkpt>
      <trkpt lat="48.82361" lon="-3.50066">
        <ele>10.1</ele>
        <time>2019-07-11T09:05:20Z</time>
      </trkpt>
      <trkpt lat="48.8236" lon="-3.50071">
        <ele>10.6</ele>
        <time>2019-07-11T09:05:21Z</time>
      </trkpt>
      <trkpt lat="48.82358" lon="-3.50076">
        <ele>10.9</ele>
        <time>2019-07-11T09:05:22Z</time>
      </trkpt>
      <trkpt lat="48.82356" lon="-3.50082">
        <ele>11.4</ele>
        <time>2019-07-11T09:05:23Z</time>
      </trkpt>
      <trkpt lat="48.82354" lon="-3.50088">
        <ele>12</ele>
        <time>2019-07-11T09:05:24Z</time>
      </trkpt>
      <trkpt lat="48.82353" lon="-3.50093">
        <ele>12.5</ele>
        <time>2019-07-11T09:05:25Z</time>
      </trkpt>
      <trkpt lat="48.82352" lon="-3.50099">
        <ele>13.1</ele>
        <time>2019-07-11T09:05:26Z</time>
      </trkpt>
      <trkpt lat="48.82351" lon="-3.50104">
        <ele>13.5</ele>
        <time>2019-07-11T09:05:27Z</time>
      </trkpt>
      <trkpt lat="48.82349" lon="-3.5011">
        <ele>14.1</ele>
        <time>2019-07-11T09:05:28Z</time>
      </trkpt>
      <trkpt lat="48.82348" lon="-3.50115">
        <ele>14.5</ele>
        <time>2019-07-11T09:05:29Z</time>
      </trkpt>
      <trkpt lat="48.82347" lon="-3.50121">
        <ele>15.1</ele>
        <time>2019-07-11T09:05:30Z</time>
      </trkpt>
      <trkpt lat="48.82346" lon="-3.50127">
        <ele>14.9</ele>
        <time>2019-07-11T09:05:31Z</time>
      </trkpt>
      <trkpt lat="48.82345" lon="-3.50132">
        <ele>15.8</ele>
        <time>2019-07-11T09:05:32Z</time>
      </trkpt>
      <trkpt lat="48.82344" lon="-3.50138">
        <ele>16.2</ele>
        <time>2019-07-11T09:05:33Z</time>
      </trkpt>
      <trkpt lat="48.82344" lon="-3.50143">
        <ele>16.7</ele>
        <time>2019-07-11T09:05:34Z</time>
      </trkpt>
      <trkpt lat="48.82343" lon="-3.50148">
        <ele>17.3</ele>
        <time>2019-07-11T09:05:35Z</time>
      </trkpt>
      <trkpt lat="48.82342" lon="-3.50154">
        <ele>17.6</ele>
        <time>2019-07-11T09:05:36Z</time>
      </trkpt>
      <trkpt lat="48.82341" lon="-3.5016">
        <ele>17.8</ele>
        <time>2019-07-11T09:05:37Z</time>
      </trkpt>
      <trkpt lat="48.8234" lon="-3.50165">
        <ele>17.8</ele>
        <time>2019-07-11T09:05:38Z</time>
      </trkpt>
      <trkpt lat="48.82338" lon="-3.50171">
        <ele>17.8</ele>
        <time>2019-07-11T09:05:39Z</time>
      </trkpt>
      <trkpt lat="48.82337" lon="-3.50176">
        <ele>17.8</ele>
        <time>2019-07-11T09:05:40Z</time>
      </trkpt>
      <trkpt lat="48.82336" lon="-3.50181">
        <ele>17.1</ele>
        <time>2019-07-11T09:05:41Z</time>
      </trkpt>
      <trkpt lat="48.82336" lon="-3.50186">
        <ele>16.5</ele>
        <time>2019-07-11T09:05:42Z</time>
      </trkpt>
      <trkpt lat="48.82335" lon="-3.50191">
        <ele>16.1</ele>
        <time>2019-07-11T09:05:43Z</time>
      </trkpt>
      <trkpt lat="48.82335" lon="-3.50195">
        <ele>15</ele>
        <time>2019-07-11T09:05:44Z</time>
      </trkpt>
      <trkpt lat="48.82333" lon="-3.50201">
        <ele>14.7</ele>
        <time>2019-07-11T09:05:45Z</time>
      </trkpt>
      <trkpt lat="48.82333" lon="-3.50206">
        <ele>13.6</ele>
        <time>2019-07-11T09:05:46Z</time>
      </trkpt>
      <trkpt lat="48.82332" lon="-3.50212">
        <ele>13</ele>
        <time>2019-07-11T09:05:47Z</time>
      </trkpt>
      <trkpt lat="48.82331" lon="-3.50218">
        <ele>12.3</ele>
        <time>2019-07-11T09:05:48Z</time>
      </trkpt>
      <trkpt lat="48.8233" lon="-3.50224">
        <ele>11.6</ele>
        <time>2019-07-11T09:05:49Z</time>
      </trkpt>
      <trkpt lat="48.8233" lon="-3.5023">
        <ele>11.3</ele>
        <time>2019-07-11T09:05:50Z</time>
      </trkpt>
      <trkpt lat="48.82329" lon="-3.50236">
        <ele>11.8</ele>
        <time>2019-07-11T09:05:51Z</time>
      </trkpt>
      <trkpt lat="48.82328" lon="-3.50243">
        <ele>11.7</ele>
        <time>2019-07-11T09:05:52Z</time>
      </trkpt>
      <trkpt lat="48.82327" lon="-3.5025">
        <ele>11.3</ele>
        <time>2019-07-11T09:05:53Z</time>
      </trkpt>
      <trkpt lat="48.82326" lon="-3.50257">
        <ele>11.5</ele>
        <time>2019-07-11T09:05:54Z</time>
      </trkpt>
      <trkpt lat="48.82326" lon="-3.50264">
        <ele>11.2</ele>
        <time>2019-07-11T09:05:55Z</time>
      </trkpt>
      <trkpt lat="48.82326" lon="-3.50272">
        <ele>10.6</ele>
        <time>2019-07-11T09:05:56Z</time>
      </trkpt>
      <trkpt lat="48.82326" lon="-3.50279">
        <ele>10.4</ele>
        <time>2019-07-11T09:05:57Z</time>
      </trkpt>
      <trkpt lat="48.82327" lon="-3.50287">
        <ele>9.4</ele>
        <time>2019-07-11T09:05:58Z</time>
      </trkpt>
      <trkpt lat="48.82327" lon="-3.50294">
        <ele>10.3</ele>
        <time>2019-07-11T09:05:59Z</time>
      </trkpt>
      <trkpt lat="48.82328" lon="-3.50302">
        <ele>10.1</ele>
        <time>2019-07-11T09:06:00Z</time>
      </trkpt>
      <trkpt lat="48.82329" lon="-3.50309">
        <ele>10.4</ele>
        <time>2019-07-11T09:06:01Z</time>
      </trkpt>
      <trkpt lat="48.82329" lon="-3.50316">
        <ele>11.2</ele>
        <time>2019-07-11T09:06:02Z</time>
      </trkpt>
      <trkpt lat="48.8233" lon="-3.50323">
        <ele>11.6</ele>
        <time>2019-07-11T09:06:03Z</time>
      </trkpt>
      <trkpt lat="48.8233" lon="-3.50329">
        <ele>12.3</ele>
        <time>2019-07-11T09:06:04Z</time>
      </trkpt>
      <trkpt lat="48.82331" lon="-3.50336">
        <ele>13.2</ele>
        <time>2019-07-11T09:06:05Z</time>
      </trkpt>
      <trkpt lat="48.82332" lon="-3.50342">
        <ele>13.8</ele>
        <time>2019-07-11T09:06:06Z</time>
      </trkpt>
      <trkpt lat="48.82333" lon="-3.50348">
        <ele>14.2</ele>
        <time>2019-07-11T09:06:07Z</time>
      </trkpt>
      <trkpt lat="48.82335" lon="-3.50354">
        <ele>14.9</ele>
        <time>2019-07-11T09:06:08Z</time>
      </trkpt>
      <trkpt lat="48.82336" lon="-3.5036">
        <ele>16</ele>
        <time>2019-07-11T09:06:09Z</time>
      </trkpt>
      <trkpt lat="48.82337" lon="-3.50365">
        <ele>16.9</ele>
        <time>2019-07-11T09:06:10Z</time>
      </trkpt>
      <trkpt lat="48.82338" lon="-3.5037">
        <ele>17.3</ele>
        <time>2019-07-11T09:06:11Z</time>
      </trkpt>
      <trkpt lat="48.82339" lon="-3.50375">
        <ele>17.9</ele>
        <time>2019-07-11T09:06:12Z</time>
      </trkpt>
      <trkpt lat="48.82341" lon="-3.50379">
        <ele>18.1</ele>
        <time>2019-07-11T09:06:13Z</time>
      </trkpt>
      <trkpt lat="48.82342" lon="-3.50384">
        <ele>18.4</ele>
        <time>2019-07-11T09:06:14Z</time>
      </trkpt>
      <trkpt lat="48.82344" lon="-3.50388">
        <ele>18.7</ele>
        <time>2019-07-11T09:06:15Z</time>
      </trkpt>
      <trkpt lat="48.82346" lon="-3.50393">
        <ele>18.7</ele>
        <time>2019-07-11T09:06:16Z</time>
      </trkpt>
      <trkpt lat="48.82349" lon="-3.50397">
        <ele>16.6</ele>
        <time>2019-07-11T09:06:17Z</time>
      </trkpt>
      <trkpt lat="48.82351" lon="-3.50403">
        <ele>16.6</ele>
        <time>2019-07-11T09:06:18Z</time>
      </trkpt>
      <trkpt lat="48.82353" lon="-3.50408">
        <ele>15.7</ele>
        <time>2019-07-11T09:06:19Z</time>
      </trkpt>
      <trkpt lat="48.82356" lon="-3.50412">
        <ele>15.3</ele>
        <time>2019-07-11T09:06:20Z</time>
      </trkpt>
      <trkpt lat="48.82358" lon="-3.50417">
        <ele>14.6</ele>
        <time>2019-07-11T09:06:21Z</time>
      </trkpt>
      <trkpt lat="48.8236" lon="-3.50421">
        <ele>14.4</ele>
        <time>2019-07-11T09:06:22Z</time>
      </trkpt>
      <trkpt lat="48.82362" lon="-3.50425">
        <ele>14</ele>
        <time>2019-07-11T09:06:23Z</time>
      </trkpt>
      <trkpt lat="48.82364" lon="-3.50429">
        <ele>13.8</ele>
        <time>2019-07-11T09:06:24Z</time>
      </trkpt>
      <trkpt lat="48.82365" lon="-3.50433">
        <ele>14</ele>
        <time>2019-07-11T09:06:25Z</time>
      </trkpt>
      <trkpt lat="48.82367" lon="-3.50436">
        <ele>14.5</ele>
        <time>2019-07-11T09:06:26Z</time>
      </trkpt>
      <trkpt lat="48.82369" lon="-3.5044">
        <ele>15.5</ele>
        <time>2019-07-11T09:06:27Z</time>
      </trkpt>
      <trkpt lat="48.8237" lon="-3.50444">
        <ele>16.6</ele>
        <time>2019-07-11T09:06:28Z</time>
      </trkpt>
      <trkpt lat="48.82372" lon="-3.50447">
        <ele>17.3</ele>
        <time>2019-07-11T09:06:29Z</time>
      </trkpt>
      <trkpt lat="48.82373" lon="-3.5045">
        <ele>17</ele>
        <time>2019-07-11T09:06:30Z</time>
      </trkpt>
      <trkpt lat="48.82375" lon="-3.50454">
        <ele>17.1</ele>
        <time>2019-07-11T09:06:31Z</time>
      </trkpt>
      <trkpt lat="48.82378" lon="-3.50457">
        <ele>17.2</ele>
        <time>2019-07-11T09:06:32Z</time>
      </trkpt>
      <trkpt lat="48.82379" lon="-3.50459">
        <ele>18</ele>
        <time>2019-07-11T09:06:33Z</time>
      </trkpt>
      <trkpt lat="48.82381" lon="-3.50461">
        <ele>17.5</ele>
        <time>2019-07-11T09:06:34Z</time>
      </trkpt>
      <trkpt lat="48.82382" lon="-3.50464">
        <ele>18.1</ele>
        <time>2019-07-11T09:06:35Z</time>
      </trkpt>
      <trkpt lat="48.82384" lon="-3.50466">
        <ele>17</ele>
        <time>2019-07-11T09:06:36Z</time>
      </trkpt>
      <trkpt lat="48.82386" lon="-3.50469">
        <ele>16.7</ele>
        <time>2019-07-11T09:06:37Z</time>
      </trkpt>
      <trkpt lat="48.82387" lon="-3.50473">
        <ele>16.4</ele>
        <time>2019-07-11T09:06:38Z</time>
      </trkpt>
      <trkpt lat="48.82389" lon="-3.50476">
        <ele>16.5</ele>
        <time>2019-07-11T09:06:39Z</time>
      </trkpt>
      <trkpt lat="48.82391" lon="-3.5048">
        <ele>16.4</ele>
        <time>2019-07-11T09:06:40Z</time>
      </trkpt>
      <trkpt lat="48.82392" lon="-3.50484">
        <ele>16.6</ele>
        <time>2019-07-11T09:06:41Z</time>
      </trkpt>
      <trkpt lat="48.82394" lon="-3.50488">
        <ele>16.6</ele>
        <time>2019-07-11T09:06:42Z</time>
      </trkpt>
      <trkpt lat="48.82395" lon="-3.50491">
        <ele>16.6</ele>
        <time>2019-07-11T09:06:43Z</time>
      </trkpt>
      <trkpt lat="48.82397" lon="-3.50495">
        <ele>16.7</ele>
        <time>2019-07-11T09:06:44Z</time>
      </trkpt>
      <trkpt lat="48.82399" lon="-3.50498">
        <ele>16.6</ele>
        <time>2019-07-11T09:06:45Z</time>
      </trkpt>
      <trkpt lat="48.82401" lon="-3.50501">
        <ele>16.4</ele>
        <time>2019-07-11T09:06:46Z</time>
      </trkpt>
      <trkpt lat="48.82402" lon="-3.50504">
        <ele>16.8</ele>
        <time>2019-07-11T09:06:47Z</time>
      </trkpt>
      <trkpt lat="48.82403" lon="-3.50507">
        <ele>17.4</ele>
        <time>2019-07-11T09:06:48Z</time>
      </trkpt>
      <trkpt lat="48.82405" lon="-3.5051">
        <ele>17.3</ele>
        <time>2019-07-11T09:06:49Z</time>
      </trkpt>
      <trkpt lat="48.82407" lon="-3.50513">
        <ele>17.3</ele>
        <time>2019-07-11T09:06:50Z</time>
      </trkpt>
      <trkpt lat="48.82407" lon="-3.50517">
        <ele>17</ele>
        <time>2019-07-11T09:06:51Z</time>
      </trkpt>
      <trkpt lat="48.82409" lon="-3.5052">
        <ele>17.1</ele>
        <time>2019-07-11T09:06:52Z</time>
      </trkpt>
      <trkpt lat="48.8241" lon="-3.50524">
        <ele>17.4</ele>
        <time>2019-07-11T09:06:53Z</time>
      </trkpt>
      <trkpt lat="48.82411" lon="-3.50527">
        <ele>17.5</ele>
        <time>2019-07-11T09:06:54Z</time>
      </trkpt>
      <trkpt lat="48.82413" lon="-3.5053">
        <ele>17.7</ele>
        <time>2019-07-11T09:06:55Z</time>
      </trkpt>
      <trkpt lat="48.82414" lon="-3.50533">
        <ele>17.9</ele>
        <time>2019-07-11T09:06:56Z</time>
      </trkpt>
      <trkpt lat="48.82416" lon="-3.50537">
        <ele>18.5</ele>
        <time>2019-07-11T09:06:57Z</time>
      </trkpt>
      <trkpt lat="48.82418" lon="-3.50541">
        <ele>19.3</ele>
        <time>2019-07-11T09:06:58Z</time>
      </trkpt>
      <trkpt lat="48.82419" lon="-3.50545">
        <ele>19.9</ele>
        <time>2019-07-11T09:06:59Z</time>
      </trkpt>
      <trkpt lat="48.82421" lon="-3.50549">
        <ele>20</ele>
        <time>2019-07-11T09:07:00Z</time>
      </trkpt>
      <trkpt lat="48.82422" lon="-3.50552">
        <ele>20.6</ele>
        <time>2019-07-11T09:07:01Z</time>
      </trkpt>
      <trkpt lat="48.82424" lon="-3.50556">
        <ele>20.9</ele>
        <time>2019-07-11T09:07:02Z</time>
      </trkpt>
      <trkpt lat="48.82425" lon="-3.50559">
        <ele>20.7</ele>
        <time>2019-07-11T09:07:03Z</time>
      </trkpt>
      <trkpt lat="48.82427" lon="-3.50562">
        <ele>20.8</ele>
        <time>2019-07-11T09:07:04Z</time>
      </trkpt>
      <trkpt lat="48.82428" lon="-3.50566">
        <ele>21.3</ele>
        <time>2019-07-11T09:07:05Z</time>
      </trkpt>
      <trkpt lat="48.8243" lon="-3.50569">
        <ele>21.7</ele>
        <time>2019-07-11T09:07:06Z</time>
      </trkpt>
      <trkpt lat="48.82432" lon="-3.50572">
        <ele>20.5</ele>
        <time>2019-07-11T09:07:07Z</time>
      </trkpt>
      <trkpt lat="48.82434" lon="-3.50576">
        <ele>20.7</ele>
        <time>2019-07-11T09:07:08Z</time>
      </trkpt>
      <trkpt lat="48.82435" lon="-3.50579">
        <ele>20.5</ele>
        <time>2019-07-11T09:07:09Z</time>
      </trkpt>
      <trkpt lat="48.82437" lon="-3.50581">
        <ele>19.7</ele>
        <time>2019-07-11T09:07:10Z</time>
      </trkpt>
      <trkpt lat="48.82439" lon="-3.50584">
        <ele>19.1</ele>
        <time>2019-07-11T09:07:11Z</time>
      </trkpt>
      <trkpt lat="48.8244" lon="-3.50587">
        <ele>19</ele>
        <time>2019-07-11T09:07:12Z</time>
      </trkpt>
      <trkpt lat="48.82441" lon="-3.50591">
        <ele>19.4</ele>
        <time>2019-07-11T09:07:13Z</time>
      </trkpt>
      <trkpt lat="48.82443" lon="-3.50595">
        <ele>20</ele>
        <time>2019-07-11T09:07:14Z</time>
      </trkpt>
      <trkpt lat="48.82444" lon="-3.50599">
        <ele>20.6</ele>
        <time>2019-07-11T09:07:15Z</time>
      </trkpt>
      <trkpt lat="48.82446" lon="-3.50602">
        <ele>21.4</ele>
        <time>2019-07-11T09:07:16Z</time>
      </trkpt>
      <trkpt lat="48.82447" lon="-3.50606">
        <ele>22</ele>
        <time>2019-07-11T09:07:17Z</time>
      </trkpt>
      <trkpt lat="48.82448" lon="-3.50609">
        <ele>22.5</ele>
        <time>2019-07-11T09:07:18Z</time>
      </trkpt>
      <trkpt lat="48.8245" lon="-3.50612">
        <ele>22.7</ele>
        <time>2019-07-11T09:07:19Z</time>
      </trkpt>
      <trkpt lat="48.82451" lon="-3.50616">
        <ele>23.3</ele>
        <time>2019-07-11T09:07:20Z</time>
      </trkpt>
      <trkpt lat="48.82453" lon="-3.5062">
        <ele>23.7</ele>
        <time>2019-07-11T09:07:21Z</time>
      </trkpt>
      <trkpt lat="48.82454" lon="-3.50623">
        <ele>23.8</ele>
        <time>2019-07-11T09:07:22Z</time>
      </trkpt>
      <trkpt lat="48.82456" lon="-3.50626">
        <ele>23.4</ele>
        <time>2019-07-11T09:07:23Z</time>
      </trkpt>
      <trkpt lat="48.82457" lon="-3.50629">
        <ele>23.6</ele>
        <time>2019-07-11T09:07:24Z</time>
      </trkpt>
      <trkpt lat="48.82458" lon="-3.50632">
        <ele>24.5</ele>
        <time>2019-07-11T09:07:25Z</time>
      </trkpt>
      <trkpt lat="48.82459" lon="-3.50635">
        <ele>25</ele>
        <time>2019-07-11T09:07:26Z</time>
      </trkpt>
      <trkpt lat="48.82461" lon="-3.50638">
        <ele>25.1</ele>
        <time>2019-07-11T09:07:27Z</time>
      </trkpt>
      <trkpt lat="48.82462" lon="-3.50643">
        <ele>25</ele>
        <time>2019-07-11T09:07:28Z</time>
      </trkpt>
      <trkpt lat="48.82463" lon="-3.50647">
        <ele>25</ele>
        <time>2019-07-11T09:07:29Z</time>
      </trkpt>
      <trkpt lat="48.82465" lon="-3.50651">
        <ele>25.1</ele>
        <time>2019-07-11T09:07:30Z</time>
      </trkpt>
      <trkpt lat="48.82466" lon="-3.50656">
        <ele>25.4</ele>
        <time>2019-07-11T09:07:31Z</time>
      </trkpt>
      <trkpt lat="48.82468" lon="-3.50659">
        <ele>25.7</ele>
        <time>2019-07-11T09:07:32Z</time>
      </trkpt>
      <trkpt lat="48.82469" lon="-3.50663">
        <ele>25.8</ele>
        <time>2019-07-11T09:07:33Z</time>
      </trkpt>
      <trkpt lat="48.8247" lon="-3.50667">
        <ele>25.9</ele>
        <time>2019-07-11T09:07:34Z</time>
      </trkpt>
      <trkpt lat="48.82472" lon="-3.50671">
        <ele>26</ele>
        <time>2019-07-11T09:07:35Z</time>
      </trkpt>
      <trkpt lat="48.82473" lon="-3.50675">
        <ele>25.9</ele>
        <time>2019-07-11T09:07:36Z</time>
      </trkpt>
      <trkpt lat="48.82474" lon="-3.5068">
        <ele>26.1</ele>
        <time>2019-07-11T09:07:37Z</time>
      </trkpt>
      <trkpt lat="48.82475" lon="-3.50685">
        <ele>25.9</ele>
        <time>2019-07-11T09:07:38Z</time>
      </trkpt>
      <trkpt lat="48.82476" lon="-3.50691">
        <ele>25.6</ele>
        <time>2019-07-11T09:07:39Z</time>
      </trkpt>
      <trkpt lat="48.82477" lon="-3.50696">
        <ele>25.3</ele>
        <time>2019-07-11T09:07:40Z</time>
      </trkpt>
      <trkpt lat="48.82479" lon="-3.50702">
        <ele>24.4</ele>
        <time>2019-07-11T09:07:41Z</time>
      </trkpt>
      <trkpt lat="48.82481" lon="-3.50707">
        <ele>23.6</ele>
        <time>2019-07-11T09:07:42Z</time>
      </trkpt>
      <trkpt lat="48.82482" lon="-3.50713">
        <ele>23.3</ele>
        <time>2019-07-11T09:07:43Z</time>
      </trkpt>
      <trkpt lat="48.82484" lon="-3.50719">
        <ele>22.5</ele>
        <time>2019-07-11T09:07:44Z</time>
      </trkpt>
      <trkpt lat="48.82486" lon="-3.50725">
        <ele>21.7</ele>
        <time>2019-07-11T09:07:45Z</time>
      </trkpt>
      <trkpt lat="48.82487" lon="-3.50731">
        <ele>21.3</ele>
        <time>2019-07-11T09:07:46Z</time>
      </trkpt>
      <trkpt lat="48.82489" lon="-3.50737">
        <ele>20.4</ele>
        <time>2019-07-11T09:07:47Z</time>
      </trkpt>
      <trkpt lat="48.8249" lon="-3.50744">
        <ele>19.5</ele>
        <time>2019-07-11T09:07:48Z</time>
      </trkpt>
      <trkpt lat="48.82491" lon="-3.50749">
        <ele>19</ele>
        <time>2019-07-11T09:07:49Z</time>
      </trkpt>
      <trkpt lat="48.82493" lon="-3.50754">
        <ele>18.3</ele>
        <time>2019-07-11T09:07:50Z</time>
      </trkpt>
      <trkpt lat="48.82493" lon="-3.50759">
        <ele>17.6</ele>
        <time>2019-07-11T09:07:51Z</time>
      </trkpt>
      <trkpt lat="48.82494" lon="-3.50765">
        <ele>17.2</ele>
        <time>2019-07-11T09:07:52Z</time>
      </trkpt>
      <trkpt lat="48.82494" lon="-3.5077">
        <ele>17.1</ele>
        <time>2019-07-11T09:07:53Z</time>
      </trkpt>
      <trkpt lat="48.82494" lon="-3.50775">
        <ele>17</ele>
        <time>2019-07-11T09:07:54Z</time>
      </trkpt>
      <trkpt lat="48.82494" lon="-3.5078">
        <ele>17.1</ele>
        <time>2019-07-11T09:07:55Z</time>
      </trkpt>
      <trkpt lat="48.82494" lon="-3.50785">
        <ele>17</ele>
        <time>2019-07-11T09:07:56Z</time>
      </trkpt>
      <trkpt lat="48.82495" lon="-3.5079">
        <ele>16.6</ele>
        <time>2019-07-11T09:07:57Z</time>
      </trkpt>
      <trkpt lat="48.82496" lon="-3.50795">
        <ele>16</ele>
        <time>2019-07-11T09:07:58Z</time>
      </trkpt>
      <trkpt lat="48.82496" lon="-3.508">
        <ele>15.6</ele>
        <time>2019-07-11T09:07:59Z</time>
      </trkpt>
      <trkpt lat="48.82496" lon="-3.50805">
        <ele>15.8</ele>
        <time>2019-07-11T09:08:00Z</time>
      </trkpt>
      <trkpt lat="48.82496" lon="-3.5081">
        <ele>15.9</ele>
        <time>2019-07-11T09:08:01Z</time>
      </trkpt>
      <trkpt lat="48.82496" lon="-3.50815">
        <ele>15.6</ele>
        <time>2019-07-11T09:08:02Z</time>
      </trkpt>
      <trkpt lat="48.82497" lon="-3.50819">
        <ele>15.3</ele>
        <time>2019-07-11T09:08:03Z</time>
      </trkpt>
      <trkpt lat="48.82497" lon="-3.50825">
        <ele>15.3</ele>
        <time>2019-07-11T09:08:04Z</time>
      </trkpt>
      <trkpt lat="48.82498" lon="-3.50829">
        <ele>15.6</ele>
        <time>2019-07-11T09:08:05Z</time>
      </trkpt>
      <trkpt lat="48.82499" lon="-3.50834">
        <ele>15.8</ele>
        <time>2019-07-11T09:08:06Z</time>
      </trkpt>
      <trkpt lat="48.82499" lon="-3.50839">
        <ele>16.4</ele>
        <time>2019-07-11T09:08:07Z</time>
      </trkpt>
      <trkpt lat="48.825" lon="-3.50844">
        <ele>16.7</ele>
        <time>2019-07-11T09:08:08Z</time>
      </trkpt>
      <trkpt lat="48.82501" lon="-3.50849">
        <ele>17.3</ele>
        <time>2019-07-11T09:08:09Z</time>
      </trkpt>
      <trkpt lat="48.82502" lon="-3.50854">
        <ele>17.7</ele>
        <time>2019-07-11T09:08:10Z</time>
      </trkpt>
      <trkpt lat="48.82503" lon="-3.5086">
        <ele>19</ele>
        <time>2019-07-11T09:08:11Z</time>
      </trkpt>
      <trkpt lat="48.82504" lon="-3.50866">
        <ele>19.4</ele>
        <time>2019-07-11T09:08:12Z</time>
      </trkpt>
      <trkpt lat="48.82506" lon="-3.50871">
        <ele>19.8</ele>
        <time>2019-07-11T09:08:13Z</time>
      </trkpt>
      <trkpt lat="48.82508" lon="-3.50877">
        <ele>20.1</ele>
        <time>2019-07-11T09:08:14Z</time>
      </trkpt>
      <trkpt lat="48.8251" lon="-3.50883">
        <ele>20</ele>
        <time>2019-07-11T09:08:15Z</time>
      </trkpt>
      <trkpt lat="48.82512" lon="-3.50889">
        <ele>20.2</ele>
        <time>2019-07-11T09:08:16Z</time>
      </trkpt>
      <trkpt lat="48.82514" lon="-3.50895">
        <ele>20.7</ele>
        <time>2019-07-11T09:08:17Z</time>
      </trkpt>
      <trkpt lat="48.82517" lon="-3.509">
        <ele>20.4</ele>
        <time>2019-07-11T09:08:18Z</time>
      </trkpt>
      <trkpt lat="48.82519" lon="-3.50905">
        <ele>20.5</ele>
        <time>2019-07-11T09:08:19Z</time>
      </trkpt>
      <trkpt lat="48.82521" lon="-3.50909">
        <ele>20.3</ele>
        <time>2019-07-11T09:08:20Z</time>
      </trkpt>
      <trkpt lat="48.82523" lon="-3.50912">
        <ele>20.2</ele>
        <time>2019-07-11T09:08:21Z</time>
      </trkpt>
      <trkpt lat="48.82525" lon="-3.50916">
        <ele>20.4</ele>
        <time>2019-07-11T09:08:22Z</time>
      </trkpt>
      <trkpt lat="48.82528" lon="-3.50921">
        <ele>20.2</ele>
        <time>2019-07-11T09:08:23Z</time>
      </trkpt>
      <trkpt lat="48.8253" lon="-3.50925">
        <ele>20.5</ele>
        <time>2019-07-11T09:08:24Z</time>
      </trkpt>
      <trkpt lat="48.82533" lon="-3.5093">
        <ele>20.4</ele>
        <time>2019-07-11T09:08:25Z</time>
      </trkpt>
      <trkpt lat="48.82536" lon="-3.50934">
        <ele>20.2</ele>
        <time>2019-07-11T09:08:26Z</time>
      </trkpt>
      <trkpt lat="48.82537" lon="-3.50939">
        <ele>19.6</ele>
        <time>2019-07-11T09:08:27Z</time>
      </trkpt>
      <trkpt lat="48.82539" lon="-3.50943">
        <ele>19.9</ele>
        <time>2019-07-11T09:08:28Z</time>
      </trkpt>
      <trkpt lat="48.82541" lon="-3.50947">
        <ele>20.2</ele>
        <time>2019-07-11T09:08:29Z</time>
      </trkpt>
      <trkpt lat="48.82543" lon="-3.50951">
        <ele>20.6</ele>
        <time>2019-07-11T09:08:30Z</time>
      </trkpt>
      <trkpt lat="48.82546" lon="-3.50955">
        <ele>20.6</ele>
        <time>2019-07-11T09:08:31Z</time>
      </trkpt>
      <trkpt lat="48.82549" lon="-3.5096">
        <ele>19.9</ele>
        <time>2019-07-11T09:08:32Z</time>
      </trkpt>
      <trkpt lat="48.82551" lon="-3.50964">
        <ele>18.6</ele>
        <time>2019-07-11T09:08:33Z</time>
      </trkpt>
      <trkpt lat="48.82554" lon="-3.50967">
        <ele>18.1</ele>
        <time>2019-07-11T09:08:34Z</time>
      </trkpt>
      <trkpt lat="48.82556" lon="-3.5097">
        <ele>17.2</ele>
        <time>2019-07-11T09:08:35Z</time>
      </trkpt>
      <trkpt lat="48.82558" lon="-3.50973">
        <ele>17.5</ele>
        <time>2019-07-11T09:08:36Z</time>
      </trkpt>
      <trkpt lat="48.8256" lon="-3.50977">
        <ele>18</ele>
        <time>2019-07-11T09:08:37Z</time>
      </trkpt>
      <trkpt lat="48.82562" lon="-3.5098">
        <ele>18.6</ele>
        <time>2019-07-11T09:08:38Z</time>
      </trkpt>
      <trkpt lat="48.82564" lon="-3.50983">
        <ele>19.1</ele>
        <time>2019-07-11T09:08:39Z</time>
      </trkpt>
      <trkpt lat="48.82566" lon="-3.50986">
        <ele>19.5</ele>
        <time>2019-07-11T09:08:40Z</time>
      </trkpt>
      <trkpt lat="48.82568" lon="-3.50989">
        <ele>19.4</ele>
        <time>2019-07-11T09:08:41Z</time>
      </trkpt>
      <trkpt lat="48.8257" lon="-3.50992">
        <ele>19.8</ele>
        <time>2019-07-11T09:08:42Z</time>
      </trkpt>
      <trkpt lat="48.82572" lon="-3.50996">
        <ele>20.3</ele>
        <time>2019-07-11T09:08:43Z</time>
      </trkpt>
      <trkpt lat="48.82575" lon="-3.51001">
        <ele>20.6</ele>
        <time>2019-07-11T09:08:44Z</time>
      </trkpt>
      <trkpt lat="48.82578" lon="-3.51006">
        <ele>20.8</ele>
        <time>2019-07-11T09:08:45Z</time>
      </trkpt>
      <trkpt lat="48.82581" lon="-3.51011">
        <ele>21.1</ele>
        <time>2019-07-11T09:08:46Z</time>
      </trkpt>
      <trkpt lat="48.82584" lon="-3.51016">
        <ele>21.3</ele>
        <time>2019-07-11T09:08:47Z</time>
      </trkpt>
      <trkpt lat="48.82587" lon="-3.51021">
        <ele>21.5</ele>
        <time>2019-07-11T09:08:48Z</time>
      </trkpt>
      <trkpt lat="48.82589" lon="-3.51027">
        <ele>21.3</ele>
        <time>2019-07-11T09:08:49Z</time>
      </trkpt>
      <trkpt lat="48.82593" lon="-3.51032">
        <ele>21</ele>
        <time>2019-07-11T09:08:50Z</time>
      </trkpt>
      <trkpt lat="48.82596" lon="-3.51037">
        <ele>20.9</ele>
        <time>2019-07-11T09:08:51Z</time>
      </trkpt>
      <trkpt lat="48.82599" lon="-3.51041">
        <ele>20.5</ele>
        <time>2019-07-11T09:08:52Z</time>
      </trkpt>
      <trkpt lat="48.82602" lon="-3.51046">
        <ele>21.5</ele>
        <time>2019-07-11T09:08:53Z</time>
      </trkpt>
      <trkpt lat="48.82605" lon="-3.51049">
        <ele>22</ele>
        <time>2019-07-11T09:08:54Z</time>
      </trkpt>
      <trkpt lat="48.82608" lon="-3.51053">
        <ele>22.4</ele>
        <time>2019-07-11T09:08:55Z</time>
      </trkpt>
      <trkpt lat="48.82611" lon="-3.51057">
        <ele>22.6</ele>
        <time>2019-07-11T09:08:56Z</time>
      </trkpt>
      <trkpt lat="48.82614" lon="-3.51062">
        <ele>23</ele>
        <time>2019-07-11T09:08:57Z</time>
      </trkpt>
      <trkpt lat="48.82616" lon="-3.51066">
        <ele>24.1</ele>
        <time>2019-07-11T09:08:58Z</time>
      </trkpt>
      <trkpt lat="48.82619" lon="-3.5107">
        <ele>25</ele>
        <time>2019-07-11T09:08:59Z</time>
      </trkpt>
      <trkpt lat="48.82622" lon="-3.51073">
        <ele>25.3</ele>
        <time>2019-07-11T09:09:00Z</time>
      </trkpt>
      <trkpt lat="48.82624" lon="-3.51076">
        <ele>25.6</ele>
        <time>2019-07-11T09:09:01Z</time>
      </trkpt>
      <trkpt lat="48.82627" lon="-3.51077">
        <ele>25.5</ele>
        <time>2019-07-11T09:09:02Z</time>
      </trkpt>
      <trkpt lat="48.8263" lon="-3.51077">
        <ele>25.8</ele>
        <time>2019-07-11T09:09:03Z</time>
      </trkpt>
      <trkpt lat="48.82632" lon="-3.51078">
        <ele>25.7</ele>
        <time>2019-07-11T09:09:04Z</time>
      </trkpt>
      <trkpt lat="48.82635" lon="-3.51079">
        <ele>25.3</ele>
        <time>2019-07-11T09:09:05Z</time>
      </trkpt>
      <trkpt lat="48.82637" lon="-3.51081">
        <ele>25.7</ele>
        <time>2019-07-11T09:09:06Z</time>
      </trkpt>
      <trkpt lat="48.8264" lon="-3.51083">
        <ele>26.3</ele>
        <time>2019-07-11T09:09:07Z</time>
      </trkpt>
      <trkpt lat="48.82641" lon="-3.51086">
        <ele>26.6</ele>
        <time>2019-07-11T09:09:08Z</time>
      </trkpt>
      <trkpt lat="48.82641" lon="-3.5109">
        <ele>26.5</ele>
        <time>2019-07-11T09:09:09Z</time>
      </trkpt>
      <trkpt lat="48.82644" lon="-3.51091">
        <ele>24.9</ele>
        <time>2019-07-11T09:09:10Z</time>
      </trkpt>
      <trkpt lat="48.82644" lon="-3.51095">
        <ele>24.1</ele>
        <time>2019-07-11T09:09:11Z</time>
      </trkpt>
      <trkpt lat="48.82646" lon="-3.51098">
        <ele>23</ele>
        <time>2019-07-11T09:09:12Z</time>
      </trkpt>
      <trkpt lat="48.82647" lon="-3.51101">
        <ele>22.2</ele>
        <time>2019-07-11T09:09:13Z</time>
      </trkpt>
      <trkpt lat="48.82648" lon="-3.51104">
        <ele>21.4</ele>
        <time>2019-07-11T09:09:14Z</time>
      </trkpt>
      <trkpt lat="48.82649" lon="-3.51107">
        <ele>20.9</ele>
        <time>2019-07-11T09:09:15Z</time>
      </trkpt>
      <trkpt lat="48.82651" lon="-3.5111">
        <ele>20.1</ele>
        <time>2019-07-11T09:09:16Z</time>
      </trkpt>
      <trkpt lat="48.82652" lon="-3.51113">
        <ele>20.2</ele>
        <time>2019-07-11T09:09:17Z</time>
      </trkpt>
      <trkpt lat="48.82654" lon="-3.51117">
        <ele>20.7</ele>
        <time>2019-07-11T09:09:18Z</time>
      </trkpt>
      <trkpt lat="48.82655" lon="-3.5112">
        <ele>20.7</ele>
        <time>2019-07-11T09:09:19Z</time>
      </trkpt>
      <trkpt lat="48.82657" lon="-3.51123">
        <ele>20.8</ele>
        <time>2019-07-11T09:09:20Z</time>
      </trkpt>
      <trkpt lat="48.8266" lon="-3.51127">
        <ele>20.6</ele>
        <time>2019-07-11T09:09:21Z</time>
      </trkpt>
      <trkpt lat="48.82662" lon="-3.51128">
        <ele>20.5</ele>
        <time>2019-07-11T09:09:22Z</time>
      </trkpt>
      <trkpt lat="48.82663" lon="-3.5113">
        <ele>20.2</ele>
        <time>2019-07-11T09:09:23Z</time>
      </trkpt>
      <trkpt lat="48.82665" lon="-3.51132">
        <ele>20.3</ele>
        <time>2019-07-11T09:09:24Z</time>
      </trkpt>
      <trkpt lat="48.82667" lon="-3.51134">
        <ele>20.2</ele>
        <time>2019-07-11T09:09:25Z</time>
      </trkpt>
      <trkpt lat="48.82668" lon="-3.51136">
        <ele>20.1</ele>
        <time>2019-07-11T09:09:26Z</time>
      </trkpt>
      <trkpt lat="48.82669" lon="-3.51137">
        <ele>20.1</ele>
        <time>2019-07-11T09:09:27Z</time>
      </trkpt>
      <trkpt lat="48.82669" lon="-3.51139">
        <ele>20.1</ele>
        <time>2019-07-11T09:09:28Z</time>
      </trkpt>
      <trkpt lat="48.82671" lon="-3.51141">
        <ele>20.5</ele>
        <time>2019-07-11T09:09:29Z</time>
      </trkpt>
      <trkpt lat="48.82671" lon="-3.51143">
        <ele>20.5</ele>
        <time>2019-07-11T09:09:30Z</time>
      </trkpt>
      <trkpt lat="48.82672" lon="-3.51146">
        <ele>20.4</ele>
        <time>2019-07-11T09:09:31Z</time>
      </trkpt>
      <trkpt lat="48.82673" lon="-3.51147">
        <ele>20.4</ele>
        <time>2019-07-11T09:09:32Z</time>
      </trkpt>
      <trkpt lat="48.82674" lon="-3.51149">
        <ele>20</ele>
        <time>2019-07-11T09:09:33Z</time>
      </trkpt>
      <trkpt lat="48.82675" lon="-3.51162">
        <ele>21.1</ele>
        <time>2019-07-11T09:10:05Z</time>
      </trkpt>
      <trkpt lat="48.82674" lon="-3.51163">
        <ele>21.2</ele>
        <time>2019-07-11T09:10:06Z</time>
      </trkpt>
      <trkpt lat="48.82673" lon="-3.51165">
        <ele>20.9</ele>
        <time>2019-07-11T09:10:07Z</time>
      </trkpt>
      <trkpt lat="48.82673" lon="-3.51167">
        <ele>20.9</ele>
        <time>2019-07-11T09:10:08Z</time>
      </trkpt>
      <trkpt lat="48.82673" lon="-3.51169">
        <ele>21.1</ele>
        <time>2019-07-11T09:10:09Z</time>
      </trkpt>
      <trkpt lat="48.82673" lon="-3.5117">
        <ele>21.4</ele>
        <time>2019-07-11T09:10:10Z</time>
      </trkpt>
      <trkpt lat="48.8268" lon="-3.51168">
        <ele>16.4</ele>
        <time>2019-07-11T09:21:22Z</time>
      </trkpt>
      <trkpt lat="48.82681" lon="-3.51169">
        <ele>16.2</ele>
        <time>2019-07-11T09:21:23Z</time>
      </trkpt>
      <trkpt lat="48.82684" lon="-3.51171">
        <ele>15.9</ele>
        <time>2019-07-11T09:21:26Z</time>
      </trkpt>
      <trkpt lat="48.8269" lon="-3.51171">
        <ele>14.5</ele>
        <time>2019-07-11T09:21:29Z</time>
      </trkpt>
      <trkpt lat="48.82692" lon="-3.51171">
        <ele>13.8</ele>
        <time>2019-07-11T09:21:30Z</time>
      </trkpt>
      <trkpt lat="48.82695" lon="-3.51169">
        <ele>13</ele>
        <time>2019-07-11T09:21:31Z</time>
      </trkpt>
      <trkpt lat="48.82697" lon="-3.51167">
        <ele>12.6</ele>
        <time>2019-07-11T09:21:32Z</time>
      </trkpt>
      <trkpt lat="48.82697" lon="-3.51165">
        <ele>12.7</ele>
        <time>2019-07-11T09:21:33Z</time>
      </trkpt>
      <trkpt lat="48.82698" lon="-3.51164">
        <ele>12.5</ele>
        <time>2019-07-11T09:21:34Z</time>
      </trkpt>
      <trkpt lat="48.82697" lon="-3.51162">
        <ele>12.3</ele>
        <time>2019-07-11T09:21:35Z</time>
      </trkpt>
      <trkpt lat="48.82698" lon="-3.51161">
        <ele>12.2</ele>
        <time>2019-07-11T09:21:36Z</time>
      </trkpt>
      <trkpt lat="48.82698" lon="-3.51159">
        <ele>11.9</ele>
        <time>2019-07-11T09:21:37Z</time>
      </trkpt>
      <trkpt lat="48.82699" lon="-3.51157">
        <ele>11.7</ele>
        <time>2019-07-11T09:21:38Z</time>
      </trkpt>
      <trkpt lat="48.827" lon="-3.51154">
        <ele>11.5</ele>
        <time>2019-07-11T09:21:39Z</time>
      </trkpt>
      <trkpt lat="48.82702" lon="-3.51151">
        <ele>11.3</ele>
        <time>2019-07-11T09:21:40Z</time>
      </trkpt>
      <trkpt lat="48.82704" lon="-3.51147">
        <ele>11.1</ele>
        <time>2019-07-11T09:21:41Z</time>
      </trkpt>
      <trkpt lat="48.82707" lon="-3.51143">
        <ele>10.8</ele>
        <time>2019-07-11T09:21:42Z</time>
      </trkpt>
      <trkpt lat="48.82711" lon="-3.51138">
        <ele>10.1</ele>
        <time>2019-07-11T09:21:43Z</time>
      </trkpt>
      <trkpt lat="48.82715" lon="-3.51133">
        <ele>10.1</ele>
        <time>2019-07-11T09:21:44Z</time>
      </trkpt>
      <trkpt lat="48.82717" lon="-3.51129">
        <ele>9.8</ele>
        <time>2019-07-11T09:21:45Z</time>
      </trkpt>
      <trkpt lat="48.82721" lon="-3.51123">
        <ele>7.7</ele>
        <time>2019-07-11T09:21:46Z</time>
      </trkpt>
      <trkpt lat="48.82724" lon="-3.51119">
        <ele>7.4</ele>
        <time>2019-07-11T09:21:47Z</time>
      </trkpt>
      <trkpt lat="48.82726" lon="-3.51116">
        <ele>7.1</ele>
        <time>2019-07-11T09:21:48Z</time>
      </trkpt>
      <trkpt lat="48.82728" lon="-3.51113">
        <ele>7</ele>
        <time>2019-07-11T09:21:49Z</time>
      </trkpt>
      <trkpt lat="48.82731" lon="-3.5111">
        <ele>7.4</ele>
        <time>2019-07-11T09:21:50Z</time>
      </trkpt>
      <trkpt lat="48.82732" lon="-3.51107">
        <ele>8.2</ele>
        <time>2019-07-11T09:21:51Z</time>
      </trkpt>
      <trkpt lat="48.82735" lon="-3.51104">
        <ele>9</ele>
        <time>2019-07-11T09:21:52Z</time>
      </trkpt>
      <trkpt lat="48.82737" lon="-3.51101">
        <ele>8.6</ele>
        <time>2019-07-11T09:21:53Z</time>
      </trkpt>
      <trkpt lat="48.82739" lon="-3.51097">
        <ele>8.9</ele>
        <time>2019-07-11T09:21:54Z</time>
      </trkpt>
      <trkpt lat="48.8274" lon="-3.51094">
        <ele>9.2</ele>
        <time>2019-07-11T09:21:55Z</time>
      </trkpt>
      <trkpt lat="48.82741" lon="-3.51089">
        <ele>9.5</ele>
        <time>2019-07-11T09:21:56Z</time>
      </trkpt>
      <trkpt lat="48.8274" lon="-3.51086">
        <ele>10.1</ele>
        <time>2019-07-11T09:21:57Z</time>
      </trkpt>
      <trkpt lat="48.8274" lon="-3.51083">
        <ele>10.6</ele>
        <time>2019-07-11T09:21:58Z</time>
      </trkpt>
      <trkpt lat="48.82739" lon="-3.51081">
        <ele>11.2</ele>
        <time>2019-07-11T09:21:59Z</time>
      </trkpt>
      <trkpt lat="48.82737" lon="-3.51081">
        <ele>12.2</ele>
        <time>2019-07-11T09:22:00Z</time>
      </trkpt>
      <trkpt lat="48.82736" lon="-3.51082">
        <ele>13.2</ele>
        <time>2019-07-11T09:22:01Z</time>
      </trkpt>
      <trkpt lat="48.82735" lon="-3.5108">
        <ele>14.1</ele>
        <time>2019-07-11T09:22:02Z</time>
      </trkpt>
      <trkpt lat="48.82732" lon="-3.51075">
        <ele>16.6</ele>
        <time>2019-07-11T09:22:07Z</time>
      </trkpt>
      <trkpt lat="48.82732" lon="-3.51072">
        <ele>16</ele>
        <time>2019-07-11T09:22:08Z</time>
      </trkpt>
      <trkpt lat="48.82732" lon="-3.51068">
        <ele>14.9</ele>
        <time>2019-07-11T09:22:09Z</time>
      </trkpt>
      <trkpt lat="48.82734" lon="-3.51062">
        <ele>14.5</ele>
        <time>2019-07-11T09:22:10Z</time>
      </trkpt>
      <trkpt lat="48.82735" lon="-3.51058">
        <ele>14.4</ele>
        <time>2019-07-11T09:22:11Z</time>
      </trkpt>
      <trkpt lat="48.82735" lon="-3.51055">
        <ele>14.5</ele>
        <time>2019-07-11T09:22:12Z</time>
      </trkpt>
      <trkpt lat="48.82735" lon="-3.51052">
        <ele>14.6</ele>
        <time>2019-07-11T09:22:13Z</time>
      </trkpt>
      <trkpt lat="48.82736" lon="-3.51046">
        <ele>12.7</ele>
        <time>2019-07-11T09:22:14Z</time>
      </trkpt>
      <trkpt lat="48.82737" lon="-3.51042">
        <ele>11.3</ele>
        <time>2019-07-11T09:22:15Z</time>
      </trkpt>
      <trkpt lat="48.82737" lon="-3.51038">
        <ele>10.2</ele>
        <time>2019-07-11T09:22:16Z</time>
      </trkpt>
      <trkpt lat="48.82737" lon="-3.51034">
        <ele>9.5</ele>
        <time>2019-07-11T09:22:17Z</time>
      </trkpt>
      <trkpt lat="48.82736" lon="-3.5103">
        <ele>9.1</ele>
        <time>2019-07-11T09:22:18Z</time>
      </trkpt>
      <trkpt lat="48.82735" lon="-3.51027">
        <ele>8.3</ele>
        <time>2019-07-11T09:22:19Z</time>
      </trkpt>
      <trkpt lat="48.82735" lon="-3.51024">
        <ele>7.8</ele>
        <time>2019-07-11T09:22:20Z</time>
      </trkpt>
      <trkpt lat="48.82734" lon="-3.51021">
        <ele>8</ele>
        <time>2019-07-11T09:22:21Z</time>
      </trkpt>
      <trkpt lat="48.82734" lon="-3.51019">
        <ele>7.5</ele>
        <time>2019-07-11T09:22:22Z</time>
      </trkpt>
      <trkpt lat="48.82735" lon="-3.51017">
        <ele>6.7</ele>
        <time>2019-07-11T09:22:23Z</time>
      </trkpt>
      <trkpt lat="48.82739" lon="-3.51011">
        <ele>6.5</ele>
        <time>2019-07-11T09:22:45Z</time>
      </trkpt>
      <trkpt lat="48.82743" lon="-3.51009">
        <ele>5.1</ele>
        <time>2019-07-11T09:22:53Z</time>
      </trkpt>
      <trkpt lat="48.82744" lon="-3.5101">
        <ele>4.8</ele>
        <time>2019-07-11T09:22:54Z</time>
      </trkpt>
      <trkpt lat="48.82745" lon="-3.51011">
        <ele>4.6</ele>
        <time>2019-07-11T09:22:55Z</time>
      </trkpt>
      <trkpt lat="48.82746" lon="-3.51011">
        <ele>4.2</ele>
        <time>2019-07-11T09:22:56Z</time>
      </trkpt>
      <trkpt lat="48.82747" lon="-3.51013">
        <ele>4</ele>
        <time>2019-07-11T09:22:57Z</time>
      </trkpt>
      <trkpt lat="48.82747" lon="-3.51016">
        <ele>3.8</ele>
        <time>2019-07-11T09:22:58Z</time>
      </trkpt>
      <trkpt lat="48.82747" lon="-3.51018">
        <ele>3.5</ele>
        <time>2019-07-11T09:22:59Z</time>
      </trkpt>
      <trkpt lat="48.82747" lon="-3.51021">
        <ele>3.3</ele>
        <time>2019-07-11T09:23:00Z</time>
      </trkpt>
      <trkpt lat="48.82746" lon="-3.51024">
        <ele>3.1</ele>
        <time>2019-07-11T09:23:01Z</time>
      </trkpt>
      <trkpt lat="48.82746" lon="-3.51026">
        <ele>2.9</ele>
        <time>2019-07-11T09:23:02Z</time>
      </trkpt>
      <trkpt lat="48.82746" lon="-3.51029">
        <ele>2.7</ele>
        <time>2019-07-11T09:23:03Z</time>
      </trkpt>
      <trkpt lat="48.82745" lon="-3.51031">
        <ele>2.4</ele>
        <time>2019-07-11T09:23:04Z</time>
      </trkpt>
      <trkpt lat="48.82744" lon="-3.51034">
        <ele>2.1</ele>
        <time>2019-07-11T09:23:05Z</time>
      </trkpt>
      <trkpt lat="48.82744" lon="-3.51037">
        <ele>1.9</ele>
        <time>2019-07-11T09:23:06Z</time>
      </trkpt>
      <trkpt lat="48.82743" lon="-3.5104">
        <ele>1.7</ele>
        <time>2019-07-11T09:23:07Z</time>
      </trkpt>
      <trkpt lat="48.82742" lon="-3.51043">
        <ele>1.5</ele>
        <time>2019-07-11T09:23:08Z</time>
      </trkpt>
      <trkpt lat="48.8274" lon="-3.51046">
        <ele>1</ele>
        <time>2019-07-11T09:23:09Z</time>
      </trkpt>
      <trkpt lat="48.82739" lon="-3.51049">
        <ele>0.4</ele>
        <time>2019-07-11T09:23:10Z</time>
      </trkpt>
      <trkpt lat="48.82738" lon="-3.51051">
        <ele>-0.5</ele>
        <time>2019-07-11T09:23:11Z</time>
      </trkpt>
      <trkpt lat="48.82737" lon="-3.51054">
        <ele>-1.3</ele>
        <time>2019-07-11T09:23:12Z</time>
      </trkpt>
      <trkpt lat="48.82735" lon="-3.51056">
        <ele>-1.8</ele>
        <time>2019-07-11T09:23:13Z</time>
      </trkpt>
      <trkpt lat="48.82734" lon="-3.51062">
        <ele>-1.1</ele>
        <time>2019-07-11T09:23:29Z</time>
      </trkpt>
      <trkpt lat="48.82733" lon="-3.51063">
        <ele>-1</ele>
        <time>2019-07-11T09:23:30Z</time>
      </trkpt>
      <trkpt lat="48.82731" lon="-3.51064">
        <ele>-0.8</ele>
        <time>2019-07-11T09:23:31Z</time>
      </trkpt>
      <trkpt lat="48.82729" lon="-3.51065">
        <ele>-0.6</ele>
        <time>2019-07-11T09:23:32Z</time>
      </trkpt>
      <trkpt lat="48.82727" lon="-3.51065">
        <ele>-0.4</ele>
        <time>2019-07-11T09:23:33Z</time>
      </trkpt>
      <trkpt lat="48.82726" lon="-3.51065">
        <ele>-0.1</ele>
        <time>2019-07-11T09:23:34Z</time>
      </trkpt>
      <trkpt lat="48.82723" lon="-3.51066">
        <ele>0.4</ele>
        <time>2019-07-11T09:23:35Z</time>
      </trkpt>
      <trkpt lat="48.82721" lon="-3.51065">
        <ele>0.8</ele>
        <time>2019-07-11T09:23:36Z</time>
      </trkpt>
      <trkpt lat="48.82718" lon="-3.51065">
        <ele>1.2</ele>
        <time>2019-07-11T09:23:37Z</time>
      </trkpt>
      <trkpt lat="48.82715" lon="-3.51065">
        <ele>1.6</ele>
        <time>2019-07-11T09:23:38Z</time>
      </trkpt>
      <trkpt lat="48.82712" lon="-3.51064">
        <ele>2.2</ele>
        <time>2019-07-11T09:23:39Z</time>
      </trkpt>
      <trkpt lat="48.8271" lon="-3.51064">
        <ele>2.8</ele>
        <time>2019-07-11T09:23:40Z</time>
      </trkpt>
      <trkpt lat="48.82708" lon="-3.51064">
        <ele>3.4</ele>
        <time>2019-07-11T09:23:41Z</time>
      </trkpt>
      <trkpt lat="48.82705" lon="-3.51064">
        <ele>3.9</ele>
        <time>2019-07-11T09:23:42Z</time>
      </trkpt>
      <trkpt lat="48.82702" lon="-3.51064">
        <ele>4.4</ele>
        <time>2019-07-11T09:23:43Z</time>
      </trkpt>
      <trkpt lat="48.82699" lon="-3.51063">
        <ele>4.9</ele>
        <time>2019-07-11T09:23:44Z</time>
      </trkpt>
      <trkpt lat="48.82697" lon="-3.51063">
        <ele>5.5</ele>
        <time>2019-07-11T09:23:45Z</time>
      </trkpt>
      <trkpt lat="48.82695" lon="-3.51062">
        <ele>6</ele>
        <time>2019-07-11T09:23:46Z</time>
      </trkpt>
      <trkpt lat="48.82694" lon="-3.51061">
        <ele>6.5</ele>
        <time>2019-07-11T09:23:47Z</time>
      </trkpt>
      <trkpt lat="48.82691" lon="-3.5106">
        <ele>7.2</ele>
        <time>2019-07-11T09:23:48Z</time>
      </trkpt>
      <trkpt lat="48.82689" lon="-3.5106">
        <ele>7.9</ele>
        <time>2019-07-11T09:23:49Z</time>
      </trkpt>
      <trkpt lat="48.82686" lon="-3.5106">
        <ele>8.3</ele>
        <time>2019-07-11T09:23:50Z</time>
      </trkpt>
      <trkpt lat="48.82684" lon="-3.5106">
        <ele>8.8</ele>
        <time>2019-07-11T09:23:51Z</time>
      </trkpt>
      <trkpt lat="48.82681" lon="-3.51061">
        <ele>9</ele>
        <time>2019-07-11T09:23:52Z</time>
      </trkpt>
      <trkpt lat="48.82679" lon="-3.51062">
        <ele>8.9</ele>
        <time>2019-07-11T09:23:53Z</time>
      </trkpt>
      <trkpt lat="48.82677" lon="-3.51063">
        <ele>9.1</ele>
        <time>2019-07-11T09:23:54Z</time>
      </trkpt>
      <trkpt lat="48.82675" lon="-3.51064">
        <ele>9</ele>
        <time>2019-07-11T09:23:55Z</time>
      </trkpt>
      <trkpt lat="48.82674" lon="-3.51065">
        <ele>8.9</ele>
        <time>2019-07-11T09:23:56Z</time>
      </trkpt>
      <trkpt lat="48.82672" lon="-3.51067">
        <ele>8.8</ele>
        <time>2019-07-11T09:23:57Z</time>
      </trkpt>
      <trkpt lat="48.82669" lon="-3.51069">
        <ele>8.8</ele>
        <time>2019-07-11T09:23:58Z</time>
      </trkpt>
      <trkpt lat="48.82667" lon="-3.51071">
        <ele>8.8</ele>
        <time>2019-07-11T09:23:59Z</time>
      </trkpt>
      <trkpt lat="48.82665" lon="-3.51072">
        <ele>9.1</ele>
        <time>2019-07-11T09:24:00Z</time>
      </trkpt>
      <trkpt lat="48.82663" lon="-3.51073">
        <ele>9.1</ele>
        <time>2019-07-11T09:24:01Z</time>
      </trkpt>
      <trkpt lat="48.82661" lon="-3.51074">
        <ele>9.2</ele>
        <time>2019-07-11T09:24:02Z</time>
      </trkpt>
      <trkpt lat="48.82659" lon="-3.51076">
        <ele>9.1</ele>
        <time>2019-07-11T09:24:03Z</time>
      </trkpt>
      <trkpt lat="48.82658" lon="-3.51077">
        <ele>9.1</ele>
        <time>2019-07-11T09:24:04Z</time>
      </trkpt>
      <trkpt lat="48.82657" lon="-3.51077">
        <ele>9.1</ele>
        <time>2019-07-11T09:24:05Z</time>
      </trkpt>
      <trkpt lat="48.82653" lon="-3.51082">
        <ele>9.6</ele>
        <time>2019-07-11T09:24:09Z</time>
      </trkpt>
      <trkpt lat="48.82652" lon="-3.51084">
        <ele>10.3</ele>
        <time>2019-07-11T09:24:10Z</time>
      </trkpt>
      <trkpt lat="48.8265" lon="-3.51087">
        <ele>10.4</ele>
        <time>2019-07-11T09:24:11Z</time>
      </trkpt>
      <trkpt lat="48.82649" lon="-3.5109">
        <ele>10.8</ele>
        <time>2019-07-11T09:24:12Z</time>
      </trkpt>
      <trkpt lat="48.82647" lon="-3.51092">
        <ele>10.9</ele>
        <time>2019-07-11T09:24:13Z</time>
      </trkpt>
      <trkpt lat="48.82645" lon="-3.51093">
        <ele>10.8</ele>
        <time>2019-07-11T09:24:14Z</time>
      </trkpt>
      <trkpt lat="48.82642" lon="-3.51092">
        <ele>10.7</ele>
        <time>2019-07-11T09:24:15Z</time>
      </trkpt>
      <trkpt lat="48.82638" lon="-3.51091">
        <ele>10.4</ele>
        <time>2019-07-11T09:24:16Z</time>
      </trkpt>
      <trkpt lat="48.82636" lon="-3.51089">
        <ele>10.5</ele>
        <time>2019-07-11T09:24:17Z</time>
      </trkpt>
      <trkpt lat="48.82633" lon="-3.51086">
        <ele>10.4</ele>
        <time>2019-07-11T09:24:18Z</time>
      </trkpt>
      <trkpt lat="48.8263" lon="-3.51082">
        <ele>10.6</ele>
        <time>2019-07-11T09:24:19Z</time>
      </trkpt>
      <trkpt lat="48.82628" lon="-3.5108">
        <ele>10.4</ele>
        <time>2019-07-11T09:24:20Z</time>
      </trkpt>
      <trkpt lat="48.82625" lon="-3.51078">
        <ele>10.4</ele>
        <time>2019-07-11T09:24:21Z</time>
      </trkpt>
      <trkpt lat="48.82622" lon="-3.51075">
        <ele>10.7</ele>
        <time>2019-07-11T09:24:22Z</time>
      </trkpt>
      <trkpt lat="48.82618" lon="-3.51074">
        <ele>10.5</ele>
        <time>2019-07-11T09:24:23Z</time>
      </trkpt>
      <trkpt lat="48.82616" lon="-3.51071">
        <ele>10.6</ele>
        <time>2019-07-11T09:24:24Z</time>
      </trkpt>
      <trkpt lat="48.82614" lon="-3.51068">
        <ele>10.6</ele>
        <time>2019-07-11T09:24:25Z</time>
      </trkpt>
      <trkpt lat="48.82611" lon="-3.51067">
        <ele>11.3</ele>
        <time>2019-07-11T09:24:26Z</time>
      </trkpt>
      <trkpt lat="48.82608" lon="-3.51064">
        <ele>11.2</ele>
        <time>2019-07-11T09:24:27Z</time>
      </trkpt>
      <trkpt lat="48.82605" lon="-3.51064">
        <ele>12.7</ele>
        <time>2019-07-11T09:24:28Z</time>
      </trkpt>
      <trkpt lat="48.82604" lon="-3.51063">
        <ele>12.7</ele>
        <time>2019-07-11T09:24:29Z</time>
      </trkpt>
      <trkpt lat="48.82602" lon="-3.51062">
        <ele>12.7</ele>
        <time>2019-07-11T09:24:30Z</time>
      </trkpt>
      <trkpt lat="48.826" lon="-3.51061">
        <ele>12.9</ele>
        <time>2019-07-11T09:24:31Z</time>
      </trkpt>
      <trkpt lat="48.82598" lon="-3.51059">
        <ele>13.6</ele>
        <time>2019-07-11T09:24:32Z</time>
      </trkpt>
      <trkpt lat="48.82596" lon="-3.51055">
        <ele>13.5</ele>
        <time>2019-07-11T09:24:33Z</time>
      </trkpt>
      <trkpt lat="48.82594" lon="-3.51052">
        <ele>13.4</ele>
        <time>2019-07-11T09:24:34Z</time>
      </trkpt>
      <trkpt lat="48.82592" lon="-3.51047">
        <ele>12.5</ele>
        <time>2019-07-11T09:24:35Z</time>
      </trkpt>
      <trkpt lat="48.82591" lon="-3.51043">
        <ele>11.5</ele>
        <time>2019-07-11T09:24:36Z</time>
      </trkpt>
      <trkpt lat="48.82589" lon="-3.51039">
        <ele>11.1</ele>
        <time>2019-07-11T09:24:37Z</time>
      </trkpt>
      <trkpt lat="48.82587" lon="-3.51036">
        <ele>10.4</ele>
        <time>2019-07-11T09:24:38Z</time>
      </trkpt>
      <trkpt lat="48.82585" lon="-3.51032">
        <ele>9.9</ele>
        <time>2019-07-11T09:24:39Z</time>
      </trkpt>
      <trkpt lat="48.82584" lon="-3.5103">
        <ele>9.5</ele>
        <time>2019-07-11T09:24:40Z</time>
      </trkpt>
      <trkpt lat="48.82582" lon="-3.51027">
        <ele>9.3</ele>
        <time>2019-07-11T09:24:41Z</time>
      </trkpt>
      <trkpt lat="48.8258" lon="-3.51024">
        <ele>9.2</ele>
        <time>2019-07-11T09:24:42Z</time>
      </trkpt>
      <trkpt lat="48.82578" lon="-3.51021">
        <ele>8.8</ele>
        <time>2019-07-11T09:24:43Z</time>
      </trkpt>
      <trkpt lat="48.82576" lon="-3.51018">
        <ele>8.7</ele>
        <time>2019-07-11T09:24:44Z</time>
      </trkpt>
      <trkpt lat="48.82575" lon="-3.51016">
        <ele>8.4</ele>
        <time>2019-07-11T09:24:45Z</time>
      </trkpt>
      <trkpt lat="48.82573" lon="-3.51013">
        <ele>8.4</ele>
        <time>2019-07-11T09:24:46Z</time>
      </trkpt>
      <trkpt lat="48.82571" lon="-3.5101">
        <ele>8</ele>
        <time>2019-07-11T09:24:47Z</time>
      </trkpt>
      <trkpt lat="48.8257" lon="-3.51008">
        <ele>7.8</ele>
        <time>2019-07-11T09:24:48Z</time>
      </trkpt>
      <trkpt lat="48.82568" lon="-3.51006">
        <ele>7.3</ele>
        <time>2019-07-11T09:24:49Z</time>
      </trkpt>
      <trkpt lat="48.82566" lon="-3.51005">
        <ele>7.4</ele>
        <time>2019-07-11T09:24:50Z</time>
      </trkpt>
      <trkpt lat="48.82563" lon="-3.51004">
        <ele>7.5</ele>
        <time>2019-07-11T09:24:51Z</time>
      </trkpt>
      <trkpt lat="48.8256" lon="-3.51003">
        <ele>7.4</ele>
        <time>2019-07-11T09:24:52Z</time>
      </trkpt>
      <trkpt lat="48.82559" lon="-3.51002">
        <ele>7.8</ele>
        <time>2019-07-11T09:24:53Z</time>
      </trkpt>
      <trkpt lat="48.82556" lon="-3.51001">
        <ele>7.6</ele>
        <time>2019-07-11T09:24:54Z</time>
      </trkpt>
      <trkpt lat="48.82554" lon="-3.51">
        <ele>7.5</ele>
        <time>2019-07-11T09:24:55Z</time>
      </trkpt>
      <trkpt lat="48.82552" lon="-3.50999">
        <ele>7.2</ele>
        <time>2019-07-11T09:24:56Z</time>
      </trkpt>
      <trkpt lat="48.8255" lon="-3.50996">
        <ele>7.5</ele>
        <time>2019-07-11T09:24:57Z</time>
      </trkpt>
      <trkpt lat="48.82549" lon="-3.50993">
        <ele>7.5</ele>
        <time>2019-07-11T09:24:58Z</time>
      </trkpt>
      <trkpt lat="48.82547" lon="-3.50989">
        <ele>7.5</ele>
        <time>2019-07-11T09:24:59Z</time>
      </trkpt>
      <trkpt lat="48.82547" lon="-3.50984">
        <ele>7.8</ele>
        <time>2019-07-11T09:25:00Z</time>
      </trkpt>
      <trkpt lat="48.82547" lon="-3.5098">
        <ele>8</ele>
        <time>2019-07-11T09:25:01Z</time>
      </trkpt>
      <trkpt lat="48.82547" lon="-3.50976">
        <ele>8</ele>
        <time>2019-07-11T09:25:02Z</time>
      </trkpt>
      <trkpt lat="48.82547" lon="-3.50972">
        <ele>8.4</ele>
        <time>2019-07-11T09:25:03Z</time>
      </trkpt>
      <trkpt lat="48.82547" lon="-3.50968">
        <ele>8.5</ele>
        <time>2019-07-11T09:25:04Z</time>
      </trkpt>
      <trkpt lat="48.82547" lon="-3.50964">
        <ele>8.5</ele>
        <time>2019-07-11T09:25:05Z</time>
      </trkpt>
      <trkpt lat="48.82546" lon="-3.50961">
        <ele>8.7</ele>
        <time>2019-07-11T09:25:06Z</time>
      </trkpt>
      <trkpt lat="48.82544" lon="-3.50959">
        <ele>9.1</ele>
        <time>2019-07-11T09:25:07Z</time>
      </trkpt>
      <trkpt lat="48.82543" lon="-3.50956">
        <ele>9.4</ele>
        <time>2019-07-11T09:25:08Z</time>
      </trkpt>
      <trkpt lat="48.82541" lon="-3.50953">
        <ele>9.2</ele>
        <time>2019-07-11T09:25:09Z</time>
      </trkpt>
      <trkpt lat="48.82539" lon="-3.5095">
        <ele>9.3</ele>
        <time>2019-07-11T09:25:10Z</time>
      </trkpt>
      <trkpt lat="48.82537" lon="-3.50947">
        <ele>9.3</ele>
        <time>2019-07-11T09:25:11Z</time>
      </trkpt>
      <trkpt lat="48.82535" lon="-3.50945">
        <ele>9</ele>
        <time>2019-07-11T09:25:12Z</time>
      </trkpt>
      <trkpt lat="48.82533" lon="-3.50942">
        <ele>8.8</ele>
        <time>2019-07-11T09:25:13Z</time>
      </trkpt>
      <trkpt lat="48.82531" lon="-3.50939">
        <ele>8.4</ele>
        <time>2019-07-11T09:25:14Z</time>
      </trkpt>
      <trkpt lat="48.82529" lon="-3.50936">
        <ele>8</ele>
        <time>2019-07-11T09:25:15Z</time>
      </trkpt>
      <trkpt lat="48.82527" lon="-3.50933">
        <ele>7.9</ele>
        <time>2019-07-11T09:25:16Z</time>
      </trkpt>
      <trkpt lat="48.82525" lon="-3.5093">
        <ele>7.6</ele>
        <time>2019-07-11T09:25:17Z</time>
      </trkpt>
      <trkpt lat="48.82523" lon="-3.50926">
        <ele>7.8</ele>
        <time>2019-07-11T09:25:18Z</time>
      </trkpt>
      <trkpt lat="48.82522" lon="-3.50923">
        <ele>7.6</ele>
        <time>2019-07-11T09:25:19Z</time>
      </trkpt>
      <trkpt lat="48.82521" lon="-3.50919">
        <ele>7.7</ele>
        <time>2019-07-11T09:25:20Z</time>
      </trkpt>
      <trkpt lat="48.82519" lon="-3.50915">
        <ele>7.6</ele>
        <time>2019-07-11T09:25:21Z</time>
      </trkpt>
      <trkpt lat="48.82517" lon="-3.50911">
        <ele>7.7</ele>
        <time>2019-07-11T09:25:22Z</time>
      </trkpt>
      <trkpt lat="48.82515" lon="-3.50907">
        <ele>7.7</ele>
        <time>2019-07-11T09:25:23Z</time>
      </trkpt>
      <trkpt lat="48.82514" lon="-3.50903">
        <ele>7.7</ele>
        <time>2019-07-11T09:25:24Z</time>
      </trkpt>
      <trkpt lat="48.82513" lon="-3.509">
        <ele>7.9</ele>
        <time>2019-07-11T09:25:25Z</time>
      </trkpt>
      <trkpt lat="48.82512" lon="-3.50897">
        <ele>7.9</ele>
        <time>2019-07-11T09:25:26Z</time>
      </trkpt>
      <trkpt lat="48.8251" lon="-3.50893">
        <ele>7.9</ele>
        <time>2019-07-11T09:25:27Z</time>
      </trkpt>
      <trkpt lat="48.82509" lon="-3.5089">
        <ele>8.4</ele>
        <time>2019-07-11T09:25:28Z</time>
      </trkpt>
      <trkpt lat="48.82506" lon="-3.50886">
        <ele>8.5</ele>
        <time>2019-07-11T09:25:29Z</time>
      </trkpt>
      <trkpt lat="48.82505" lon="-3.50883">
        <ele>8.8</ele>
        <time>2019-07-11T09:25:30Z</time>
      </trkpt>
      <trkpt lat="48.82502" lon="-3.50879">
        <ele>8.6</ele>
        <time>2019-07-11T09:25:31Z</time>
      </trkpt>
      <trkpt lat="48.82501" lon="-3.50874">
        <ele>8.9</ele>
        <time>2019-07-11T09:25:32Z</time>
      </trkpt>
      <trkpt lat="48.82499" lon="-3.50869">
        <ele>9.2</ele>
        <time>2019-07-11T09:25:33Z</time>
      </trkpt>
      <trkpt lat="48.82498" lon="-3.50864">
        <ele>9.4</ele>
        <time>2019-07-11T09:25:34Z</time>
      </trkpt>
      <trkpt lat="48.82496" lon="-3.5086">
        <ele>10</ele>
        <time>2019-07-11T09:25:35Z</time>
      </trkpt>
      <trkpt lat="48.82494" lon="-3.50855">
        <ele>10.5</ele>
        <time>2019-07-11T09:25:36Z</time>
      </trkpt>
      <trkpt lat="48.82494" lon="-3.5085">
        <ele>11.3</ele>
        <time>2019-07-11T09:25:37Z</time>
      </trkpt>
      <trkpt lat="48.82492" lon="-3.50846">
        <ele>11.5</ele>
        <time>2019-07-11T09:25:38Z</time>
      </trkpt>
      <trkpt lat="48.82492" lon="-3.50842">
        <ele>12.4</ele>
        <time>2019-07-11T09:25:39Z</time>
      </trkpt>
      <trkpt lat="48.82491" lon="-3.50837">
        <ele>12.8</ele>
        <time>2019-07-11T09:25:40Z</time>
      </trkpt>
      <trkpt lat="48.8249" lon="-3.50832">
        <ele>13.4</ele>
        <time>2019-07-11T09:25:41Z</time>
      </trkpt>
      <trkpt lat="48.82489" lon="-3.50826">
        <ele>14.3</ele>
        <time>2019-07-11T09:25:42Z</time>
      </trkpt>
      <trkpt lat="48.82489" lon="-3.5082">
        <ele>14.6</ele>
        <time>2019-07-11T09:25:43Z</time>
      </trkpt>
      <trkpt lat="48.82488" lon="-3.50814">
        <ele>14.7</ele>
        <time>2019-07-11T09:25:44Z</time>
      </trkpt>
      <trkpt lat="48.82488" lon="-3.50809">
        <ele>15.9</ele>
        <time>2019-07-11T09:25:45Z</time>
      </trkpt>
      <trkpt lat="48.82487" lon="-3.50803">
        <ele>16.5</ele>
        <time>2019-07-11T09:25:46Z</time>
      </trkpt>
      <trkpt lat="48.82486" lon="-3.50797">
        <ele>16.1</ele>
        <time>2019-07-11T09:25:47Z</time>
      </trkpt>
      <trkpt lat="48.82486" lon="-3.50791">
        <ele>16.4</ele>
        <time>2019-07-11T09:25:48Z</time>
      </trkpt>
      <trkpt lat="48.82484" lon="-3.50786">
        <ele>16.6</ele>
        <time>2019-07-11T09:25:49Z</time>
      </trkpt>
      <trkpt lat="48.82484" lon="-3.50781">
        <ele>17.2</ele>
        <time>2019-07-11T09:25:50Z</time>
      </trkpt>
      <trkpt lat="48.82483" lon="-3.50775">
        <ele>17.2</ele>
        <time>2019-07-11T09:25:51Z</time>
      </trkpt>
      <trkpt lat="48.82483" lon="-3.50769">
        <ele>17.8</ele>
        <time>2019-07-11T09:25:52Z</time>
      </trkpt>
      <trkpt lat="48.82482" lon="-3.50764">
        <ele>17.8</ele>
        <time>2019-07-11T09:25:53Z</time>
      </trkpt>
      <trkpt lat="48.82481" lon="-3.50757">
        <ele>17.6</ele>
        <time>2019-07-11T09:25:54Z</time>
      </trkpt>
      <trkpt lat="48.82481" lon="-3.50751">
        <ele>17.7</ele>
        <time>2019-07-11T09:25:55Z</time>
      </trkpt>
      <trkpt lat="48.8248" lon="-3.50746">
        <ele>18.2</ele>
        <time>2019-07-11T09:25:56Z</time>
      </trkpt>
      <trkpt lat="48.8248" lon="-3.50741">
        <ele>18.9</ele>
        <time>2019-07-11T09:25:57Z</time>
      </trkpt>
      <trkpt lat="48.8248" lon="-3.50735">
        <ele>18.7</ele>
        <time>2019-07-11T09:25:58Z</time>
      </trkpt>
      <trkpt lat="48.8248" lon="-3.5073">
        <ele>19</ele>
        <time>2019-07-11T09:25:59Z</time>
      </trkpt>
      <trkpt lat="48.82479" lon="-3.50724">
        <ele>19.3</ele>
        <time>2019-07-11T09:26:00Z</time>
      </trkpt>
      <trkpt lat="48.82478" lon="-3.50719">
        <ele>19.8</ele>
        <time>2019-07-11T09:26:01Z</time>
      </trkpt>
      <trkpt lat="48.82478" lon="-3.50713">
        <ele>19.7</ele>
        <time>2019-07-11T09:26:02Z</time>
      </trkpt>
      <trkpt lat="48.82477" lon="-3.50708">
        <ele>19.9</ele>
        <time>2019-07-11T09:26:03Z</time>
      </trkpt>
      <trkpt lat="48.82476" lon="-3.50703">
        <ele>19.9</ele>
        <time>2019-07-11T09:26:04Z</time>
      </trkpt>
      <trkpt lat="48.82475" lon="-3.50698">
        <ele>19.2</ele>
        <time>2019-07-11T09:26:05Z</time>
      </trkpt>
      <trkpt lat="48.82474" lon="-3.50693">
        <ele>19.4</ele>
        <time>2019-07-11T09:26:06Z</time>
      </trkpt>
      <trkpt lat="48.82473" lon="-3.50687">
        <ele>19</ele>
        <time>2019-07-11T09:26:07Z</time>
      </trkpt>
      <trkpt lat="48.8247" lon="-3.50681">
        <ele>17.2</ele>
        <time>2019-07-11T09:26:08Z</time>
      </trkpt>
      <trkpt lat="48.82468" lon="-3.50675">
        <ele>15.6</ele>
        <time>2019-07-11T09:26:09Z</time>
      </trkpt>
      <trkpt lat="48.82466" lon="-3.5067">
        <ele>13.9</ele>
        <time>2019-07-11T09:26:10Z</time>
      </trkpt>
      <trkpt lat="48.82464" lon="-3.50663">
        <ele>12.9</ele>
        <time>2019-07-11T09:26:11Z</time>
      </trkpt>
      <trkpt lat="48.82461" lon="-3.50657">
        <ele>12.1</ele>
        <time>2019-07-11T09:26:12Z</time>
      </trkpt>
      <trkpt lat="48.82457" lon="-3.50651">
        <ele>11.2</ele>
        <time>2019-07-11T09:26:13Z</time>
      </trkpt>
      <trkpt lat="48.82454" lon="-3.50644">
        <ele>10.4</ele>
        <time>2019-07-11T09:26:14Z</time>
      </trkpt>
      <trkpt lat="48.8245" lon="-3.50637">
        <ele>9.5</ele>
        <time>2019-07-11T09:26:15Z</time>
      </trkpt>
      <trkpt lat="48.82447" lon="-3.5063">
        <ele>8.7</ele>
        <time>2019-07-11T09:26:16Z</time>
      </trkpt>
      <trkpt lat="48.82444" lon="-3.50623">
        <ele>8.4</ele>
        <time>2019-07-11T09:26:17Z</time>
      </trkpt>
      <trkpt lat="48.8244" lon="-3.50615">
        <ele>7.6</ele>
        <time>2019-07-11T09:26:18Z</time>
      </trkpt>
      <trkpt lat="48.82437" lon="-3.50608">
        <ele>6.9</ele>
        <time>2019-07-11T09:26:19Z</time>
      </trkpt>
      <trkpt lat="48.82433" lon="-3.50601">
        <ele>6.2</ele>
        <time>2019-07-11T09:26:20Z</time>
      </trkpt>
      <trkpt lat="48.8243" lon="-3.50593">
        <ele>5.6</ele>
        <time>2019-07-11T09:26:21Z</time>
      </trkpt>
      <trkpt lat="48.82427" lon="-3.50586">
        <ele>5.2</ele>
        <time>2019-07-11T09:26:22Z</time>
      </trkpt>
      <trkpt lat="48.82423" lon="-3.50579">
        <ele>4.9</ele>
        <time>2019-07-11T09:26:23Z</time>
      </trkpt>
      <trkpt lat="48.82419" lon="-3.50571">
        <ele>4.6</ele>
        <time>2019-07-11T09:26:24Z</time>
      </trkpt>
      <trkpt lat="48.82416" lon="-3.50563">
        <ele>5.1</ele>
        <time>2019-07-11T09:26:25Z</time>
      </trkpt>
      <trkpt lat="48.82413" lon="-3.50556">
        <ele>5.1</ele>
        <time>2019-07-11T09:26:26Z</time>
      </trkpt>
      <trkpt lat="48.8241" lon="-3.5055">
        <ele>5.6</ele>
        <time>2019-07-11T09:26:27Z</time>
      </trkpt>
      <trkpt lat="48.82407" lon="-3.50544">
        <ele>5.7</ele>
        <time>2019-07-11T09:26:28Z</time>
      </trkpt>
      <trkpt lat="48.82404" lon="-3.50538">
        <ele>5.7</ele>
        <time>2019-07-11T09:26:29Z</time>
      </trkpt>
      <trkpt lat="48.82402" lon="-3.50531">
        <ele>6.2</ele>
        <time>2019-07-11T09:26:30Z</time>
      </trkpt>
      <trkpt lat="48.82399" lon="-3.50525">
        <ele>6.7</ele>
        <time>2019-07-11T09:26:31Z</time>
      </trkpt>
      <trkpt lat="48.82396" lon="-3.50519">
        <ele>7.5</ele>
        <time>2019-07-11T09:26:32Z</time>
      </trkpt>
      <trkpt lat="48.82393" lon="-3.50512">
        <ele>7.7</ele>
        <time>2019-07-11T09:26:33Z</time>
      </trkpt>
      <trkpt lat="48.8239" lon="-3.50505">
        <ele>7.8</ele>
        <time>2019-07-11T09:26:34Z</time>
      </trkpt>
      <trkpt lat="48.82387" lon="-3.50498">
        <ele>7.8</ele>
        <time>2019-07-11T09:26:35Z</time>
      </trkpt>
      <trkpt lat="48.82383" lon="-3.50492">
        <ele>8.8</ele>
        <time>2019-07-11T09:26:36Z</time>
      </trkpt>
      <trkpt lat="48.8238" lon="-3.50484">
        <ele>8.5</ele>
        <time>2019-07-11T09:26:37Z</time>
      </trkpt>
      <trkpt lat="48.82376" lon="-3.50476">
        <ele>8.6</ele>
        <time>2019-07-11T09:26:38Z</time>
      </trkpt>
      <trkpt lat="48.82372" lon="-3.50468">
        <ele>7.4</ele>
        <time>2019-07-11T09:26:39Z</time>
      </trkpt>
      <trkpt lat="48.82369" lon="-3.50459">
        <ele>6.2</ele>
        <time>2019-07-11T09:26:40Z</time>
      </trkpt>
      <trkpt lat="48.82364" lon="-3.50451">
        <ele>5.2</ele>
        <time>2019-07-11T09:26:41Z</time>
      </trkpt>
      <trkpt lat="48.8236" lon="-3.50442">
        <ele>4.3</ele>
        <time>2019-07-11T09:26:42Z</time>
      </trkpt>
      <trkpt lat="48.82356" lon="-3.50434">
        <ele>3.8</ele>
        <time>2019-07-11T09:26:43Z</time>
      </trkpt>
      <trkpt lat="48.82352" lon="-3.50426">
        <ele>4</ele>
        <time>2019-07-11T09:26:44Z</time>
      </trkpt>
      <trkpt lat="48.82349" lon="-3.50417">
        <ele>3</ele>
        <time>2019-07-11T09:26:45Z</time>
      </trkpt>
      <trkpt lat="48.82346" lon="-3.50407">
        <ele>1.5</ele>
        <time>2019-07-11T09:26:46Z</time>
      </trkpt>
      <trkpt lat="48.82343" lon="-3.50397">
        <ele>0.6</ele>
        <time>2019-07-11T09:26:47Z</time>
      </trkpt>
      <trkpt lat="48.8234" lon="-3.50388">
        <ele>-0.2</ele>
        <time>2019-07-11T09:26:48Z</time>
      </trkpt>
      <trkpt lat="48.82337" lon="-3.50379">
        <ele>-1.3</ele>
        <time>2019-07-11T09:26:49Z</time>
      </trkpt>
      <trkpt lat="48.82335" lon="-3.5037">
        <ele>-2</ele>
        <time>2019-07-11T09:26:50Z</time>
      </trkpt>
      <trkpt lat="48.82332" lon="-3.50361">
        <ele>-2.5</ele>
        <time>2019-07-11T09:26:51Z</time>
      </trkpt>
      <trkpt lat="48.82328" lon="-3.50343">
        <ele>-3</ele>
        <time>2019-07-11T09:26:53Z</time>
      </trkpt>
      <trkpt lat="48.82326" lon="-3.50334">
        <ele>-3.1</ele>
        <time>2019-07-11T09:26:54Z</time>
      </trkpt>
      <trkpt lat="48.82325" lon="-3.50325">
        <ele>-3.5</ele>
        <time>2019-07-11T09:26:55Z</time>
      </trkpt>
      <trkpt lat="48.82324" lon="-3.50315">
        <ele>-3.7</ele>
        <time>2019-07-11T09:26:56Z</time>
      </trkpt>
      <trkpt lat="48.82323" lon="-3.50306">
        <ele>-3.9</ele>
        <time>2019-07-11T09:26:57Z</time>
      </trkpt>
      <trkpt lat="48.82322" lon="-3.50297">
        <ele>-3.9</ele>
        <time>2019-07-11T09:26:58Z</time>
      </trkpt>
      <trkpt lat="48.82322" lon="-3.50289">
        <ele>-3.6</ele>
        <time>2019-07-11T09:26:59Z</time>
      </trkpt>
      <trkpt lat="48.82322" lon="-3.50281">
        <ele>-3.7</ele>
        <time>2019-07-11T09:27:00Z</time>
      </trkpt>
      <trkpt lat="48.82321" lon="-3.50274">
        <ele>-3</ele>
        <time>2019-07-11T09:27:01Z</time>
      </trkpt>
      <trkpt lat="48.82321" lon="-3.50267">
        <ele>-2.3</ele>
        <time>2019-07-11T09:27:02Z</time>
      </trkpt>
      <trkpt lat="48.82322" lon="-3.50261">
        <ele>-1.3</ele>
        <time>2019-07-11T09:27:03Z</time>
      </trkpt>
      <trkpt lat="48.82322" lon="-3.50254">
        <ele>-1.2</ele>
        <time>2019-07-11T09:27:04Z</time>
      </trkpt>
      <trkpt lat="48.82322" lon="-3.50247">
        <ele>6.5</ele>
        <time>2019-07-11T09:27:05Z</time>
      </trkpt>
      <trkpt lat="48.82322" lon="-3.50239">
        <ele>0.7</ele>
        <time>2019-07-11T09:27:06Z</time>
      </trkpt>
      <trkpt lat="48.82323" lon="-3.50233">
        <ele>1.1</ele>
        <time>2019-07-11T09:27:07Z</time>
      </trkpt>
      <trkpt lat="48.82323" lon="-3.50226">
        <ele>1.6</ele>
        <time>2019-07-11T09:27:08Z</time>
      </trkpt>
      <trkpt lat="48.82324" lon="-3.5022">
        <ele>2.7</ele>
        <time>2019-07-11T09:27:09Z</time>
      </trkpt>
      <trkpt lat="48.82324" lon="-3.50214">
        <ele>3.3</ele>
        <time>2019-07-11T09:27:10Z</time>
      </trkpt>
      <trkpt lat="48.82325" lon="-3.50207">
        <ele>4.2</ele>
        <time>2019-07-11T09:27:11Z</time>
      </trkpt>
      <trkpt lat="48.82326" lon="-3.502">
        <ele>4.9</ele>
        <time>2019-07-11T09:27:12Z</time>
      </trkpt>
      <trkpt lat="48.82327" lon="-3.50193">
        <ele>5.5</ele>
        <time>2019-07-11T09:27:13Z</time>
      </trkpt>
      <trkpt lat="48.82328" lon="-3.50185">
        <ele>5.9</ele>
        <time>2019-07-11T09:27:14Z</time>
      </trkpt>
      <trkpt lat="48.8233" lon="-3.50177">
        <ele>6.6</ele>
        <time>2019-07-11T09:27:15Z</time>
      </trkpt>
      <trkpt lat="48.82331" lon="-3.50169">
        <ele>6.8</ele>
        <time>2019-07-11T09:27:16Z</time>
      </trkpt>
      <trkpt lat="48.82333" lon="-3.50161">
        <ele>7.2</ele>
        <time>2019-07-11T09:27:17Z</time>
      </trkpt>
      <trkpt lat="48.82334" lon="-3.50153">
        <ele>7.5</ele>
        <time>2019-07-11T09:27:18Z</time>
      </trkpt>
      <trkpt lat="48.82335" lon="-3.50146">
        <ele>7.4</ele>
        <time>2019-07-11T09:27:19Z</time>
      </trkpt>
      <trkpt lat="48.82337" lon="-3.50137">
        <ele>7.6</ele>
        <time>2019-07-11T09:27:20Z</time>
      </trkpt>
      <trkpt lat="48.82338" lon="-3.50129">
        <ele>8.3</ele>
        <time>2019-07-11T09:27:21Z</time>
      </trkpt>
      <trkpt lat="48.82341" lon="-3.50121">
        <ele>8.6</ele>
        <time>2019-07-11T09:27:22Z</time>
      </trkpt>
      <trkpt lat="48.82342" lon="-3.50112">
        <ele>8.8</ele>
        <time>2019-07-11T09:27:23Z</time>
      </trkpt>
      <trkpt lat="48.82344" lon="-3.50104">
        <ele>8.9</ele>
        <time>2019-07-11T09:27:24Z</time>
      </trkpt>
      <trkpt lat="48.82346" lon="-3.50096">
        <ele>9</ele>
        <time>2019-07-11T09:27:25Z</time>
      </trkpt>
      <trkpt lat="48.82348" lon="-3.50088">
        <ele>9</ele>
        <time>2019-07-11T09:27:26Z</time>
      </trkpt>
      <trkpt lat="48.82349" lon="-3.50079">
        <ele>9.1</ele>
        <time>2019-07-11T09:27:27Z</time>
      </trkpt>
      <trkpt lat="48.8235" lon="-3.50071">
        <ele>9</ele>
        <time>2019-07-11T09:27:28Z</time>
      </trkpt>
      <trkpt lat="48.82352" lon="-3.50064">
        <ele>9.1</ele>
        <time>2019-07-11T09:27:29Z</time>
      </trkpt>
      <trkpt lat="48.82353" lon="-3.50057">
        <ele>9.4</ele>
        <time>2019-07-11T09:27:30Z</time>
      </trkpt>
      <trkpt lat="48.82354" lon="-3.50052">
        <ele>9.6</ele>
        <time>2019-07-11T09:27:31Z</time>
      </trkpt>
      <trkpt lat="48.82354" lon="-3.50047">
        <ele>9.5</ele>
        <time>2019-07-11T09:27:32Z</time>
      </trkpt>
      <trkpt lat="48.82352" lon="-3.50043">
        <ele>9.7</ele>
        <time>2019-07-11T09:27:33Z</time>
      </trkpt>
      <trkpt lat="48.82349" lon="-3.50041">
        <ele>8.6</ele>
        <time>2019-07-11T09:27:34Z</time>
      </trkpt>
      <trkpt lat="48.82346" lon="-3.50041">
        <ele>7.8</ele>
        <time>2019-07-11T09:27:35Z</time>
      </trkpt>
      <trkpt lat="48.82343" lon="-3.50042">
        <ele>7.8</ele>
        <time>2019-07-11T09:27:36Z</time>
      </trkpt>
      <trkpt lat="48.82339" lon="-3.50044">
        <ele>7.3</ele>
        <time>2019-07-11T09:27:37Z</time>
      </trkpt>
      <trkpt lat="48.82335" lon="-3.50046">
        <ele>7.5</ele>
        <time>2019-07-11T09:27:38Z</time>
      </trkpt>
      <trkpt lat="48.82332" lon="-3.50048">
        <ele>7.3</ele>
        <time>2019-07-11T09:27:39Z</time>
      </trkpt>
      <trkpt lat="48.82328" lon="-3.50049">
        <ele>7.2</ele>
        <time>2019-07-11T09:27:40Z</time>
      </trkpt>
      <trkpt lat="48.82324" lon="-3.50051">
        <ele>7.6</ele>
        <time>2019-07-11T09:27:41Z</time>
      </trkpt>
      <trkpt lat="48.8232" lon="-3.50053">
        <ele>7.9</ele>
        <time>2019-07-11T09:27:42Z</time>
      </trkpt>
      <trkpt lat="48.82317" lon="-3.50054">
        <ele>7.9</ele>
        <time>2019-07-11T09:27:43Z</time>
      </trkpt>
      <trkpt lat="48.82313" lon="-3.50055">
        <ele>7.9</ele>
        <time>2019-07-11T09:27:44Z</time>
      </trkpt>
      <trkpt lat="48.82309" lon="-3.50057">
        <ele>7.7</ele>
        <time>2019-07-11T09:27:45Z</time>
      </trkpt>
      <trkpt lat="48.82305" lon="-3.50058">
        <ele>7.4</ele>
        <time>2019-07-11T09:27:46Z</time>
      </trkpt>
      <trkpt lat="48.82302" lon="-3.50059">
        <ele>7.2</ele>
        <time>2019-07-11T09:27:47Z</time>
      </trkpt>
      <trkpt lat="48.82298" lon="-3.50061">
        <ele>6.8</ele>
        <time>2019-07-11T09:27:48Z</time>
      </trkpt>
      <trkpt lat="48.82294" lon="-3.50062">
        <ele>7</ele>
        <time>2019-07-11T09:27:49Z</time>
      </trkpt>
      <trkpt lat="48.82291" lon="-3.50063">
        <ele>7.5</ele>
        <time>2019-07-11T09:27:50Z</time>
      </trkpt>
      <trkpt lat="48.82287" lon="-3.50065">
        <ele>7.9</ele>
        <time>2019-07-11T09:27:51Z</time>
      </trkpt>
      <trkpt lat="48.82284" lon="-3.50066">
        <ele>8.1</ele>
        <time>2019-07-11T09:27:52Z</time>
      </trkpt>
      <trkpt lat="48.8228" lon="-3.50068">
        <ele>8</ele>
        <time>2019-07-11T09:27:53Z</time>
      </trkpt>
      <trkpt lat="48.82277" lon="-3.50069">
        <ele>7.8</ele>
        <time>2019-07-11T09:27:54Z</time>
      </trkpt>
      <trkpt lat="48.82272" lon="-3.5007">
        <ele>7.5</ele>
        <time>2019-07-11T09:27:55Z</time>
      </trkpt>
      <trkpt lat="48.82269" lon="-3.50072">
        <ele>7.8</ele>
        <time>2019-07-11T09:27:56Z</time>
      </trkpt>
      <trkpt lat="48.82266" lon="-3.50073">
        <ele>7.5</ele>
        <time>2019-07-11T09:27:57Z</time>
      </trkpt>
      <trkpt lat="48.82262" lon="-3.50075">
        <ele>7.2</ele>
        <time>2019-07-11T09:27:58Z</time>
      </trkpt>
      <trkpt lat="48.82259" lon="-3.50077">
        <ele>6.8</ele>
        <time>2019-07-11T09:27:59Z</time>
      </trkpt>
      <trkpt lat="48.82255" lon="-3.50078">
        <ele>6.6</ele>
        <time>2019-07-11T09:28:00Z</time>
      </trkpt>
      <trkpt lat="48.82252" lon="-3.5008">
        <ele>6.1</ele>
        <time>2019-07-11T09:28:01Z</time>
      </trkpt>
      <trkpt lat="48.82248" lon="-3.50081">
        <ele>5.5</ele>
        <time>2019-07-11T09:28:02Z</time>
      </trkpt>
      <trkpt lat="48.82245" lon="-3.50082">
        <ele>5.2</ele>
        <time>2019-07-11T09:28:03Z</time>
      </trkpt>
      <trkpt lat="48.82241" lon="-3.50083">
        <ele>5</ele>
        <time>2019-07-11T09:28:04Z</time>
      </trkpt>
      <trkpt lat="48.82238" lon="-3.50084">
        <ele>4.6</ele>
        <time>2019-07-11T09:28:05Z</time>
      </trkpt>
      <trkpt lat="48.82235" lon="-3.50085">
        <ele>4.5</ele>
        <time>2019-07-11T09:28:06Z</time>
      </trkpt>
      <trkpt lat="48.82231" lon="-3.50086">
        <ele>4.4</ele>
        <time>2019-07-11T09:28:07Z</time>
      </trkpt>
      <trkpt lat="48.82228" lon="-3.50087">
        <ele>4.7</ele>
        <time>2019-07-11T09:28:08Z</time>
      </trkpt>
      <trkpt lat="48.82225" lon="-3.50088">
        <ele>5</ele>
        <time>2019-07-11T09:28:09Z</time>
      </trkpt>
      <trkpt lat="48.82222" lon="-3.50089">
        <ele>5.1</ele>
        <time>2019-07-11T09:28:10Z</time>
      </trkpt>
      <trkpt lat="48.82218" lon="-3.5009">
        <ele>5.2</ele>
        <time>2019-07-11T09:28:11Z</time>
      </trkpt>
      <trkpt lat="48.82215" lon="-3.50092">
        <ele>5.1</ele>
        <time>2019-07-11T09:28:12Z</time>
      </trkpt>
      <trkpt lat="48.82211" lon="-3.50093">
        <ele>5.2</ele>
        <time>2019-07-11T09:28:13Z</time>
      </trkpt>
      <trkpt lat="48.82208" lon="-3.50096">
        <ele>5.8</ele>
        <time>2019-07-11T09:28:14Z</time>
      </trkpt>
      <trkpt lat="48.82205" lon="-3.50097">
        <ele>5.7</ele>
        <time>2019-07-11T09:28:15Z</time>
      </trkpt>
      <trkpt lat="48.82202" lon="-3.50099">
        <ele>6.1</ele>
        <time>2019-07-11T09:28:16Z</time>
      </trkpt>
      <trkpt lat="48.82199" lon="-3.501">
        <ele>6.1</ele>
        <time>2019-07-11T09:28:17Z</time>
      </trkpt>
      <trkpt lat="48.82196" lon="-3.50101">
        <ele>6.4</ele>
        <time>2019-07-11T09:28:18Z</time>
      </trkpt>
      <trkpt lat="48.82193" lon="-3.50103">
        <ele>6.6</ele>
        <time>2019-07-11T09:28:19Z</time>
      </trkpt>
      <trkpt lat="48.82189" lon="-3.50104">
        <ele>6.4</ele>
        <time>2019-07-11T09:28:20Z</time>
      </trkpt>
      <trkpt lat="48.82186" lon="-3.50105">
        <ele>6.5</ele>
        <time>2019-07-11T09:28:21Z</time>
      </trkpt>
      <trkpt lat="48.82182" lon="-3.50106">
        <ele>6.3</ele>
        <time>2019-07-11T09:28:22Z</time>
      </trkpt>
      <trkpt lat="48.82179" lon="-3.50107">
        <ele>6.4</ele>
        <time>2019-07-11T09:28:23Z</time>
      </trkpt>
      <trkpt lat="48.82175" lon="-3.50108">
        <ele>6.5</ele>
        <time>2019-07-11T09:28:24Z</time>
      </trkpt>
      <trkpt lat="48.82172" lon="-3.50109">
        <ele>6.7</ele>
        <time>2019-07-11T09:28:25Z</time>
      </trkpt>
      <trkpt lat="48.82169" lon="-3.5011">
        <ele>7</ele>
        <time>2019-07-11T09:28:26Z</time>
      </trkpt>
      <trkpt lat="48.82166" lon="-3.50111">
        <ele>7.3</ele>
        <time>2019-07-11T09:28:27Z</time>
      </trkpt>
      <trkpt lat="48.82163" lon="-3.50112">
        <ele>7.3</ele>
        <time>2019-07-11T09:28:28Z</time>
      </trkpt>
      <trkpt lat="48.82159" lon="-3.50112">
        <ele>7.2</ele>
        <time>2019-07-11T09:28:29Z</time>
      </trkpt>
      <trkpt lat="48.82156" lon="-3.50112">
        <ele>7.3</ele>
        <time>2019-07-11T09:28:30Z</time>
      </trkpt>
      <trkpt lat="48.82152" lon="-3.50112">
        <ele>7.1</ele>
        <time>2019-07-11T09:28:31Z</time>
      </trkpt>
      <trkpt lat="48.82148" lon="-3.50111">
        <ele>6.2</ele>
        <time>2019-07-11T09:28:32Z</time>
      </trkpt>
      <trkpt lat="48.82145" lon="-3.50111">
        <ele>4.2</ele>
        <time>2019-07-11T09:28:33Z</time>
      </trkpt>
      <trkpt lat="48.82141" lon="-3.5011">
        <ele>3.2</ele>
        <time>2019-07-11T09:28:34Z</time>
      </trkpt>
      <trkpt lat="48.82138" lon="-3.5011">
        <ele>2.1</ele>
        <time>2019-07-11T09:28:35Z</time>
      </trkpt>
      <trkpt lat="48.82134" lon="-3.5011">
        <ele>1.6</ele>
        <time>2019-07-11T09:28:36Z</time>
      </trkpt>
      <trkpt lat="48.82131" lon="-3.5011">
        <ele>1.4</ele>
        <time>2019-07-11T09:28:37Z</time>
      </trkpt>
      <trkpt lat="48.82128" lon="-3.5011">
        <ele>1.3</ele>
        <time>2019-07-11T09:28:38Z</time>
      </trkpt>
      <trkpt lat="48.82125" lon="-3.5011">
        <ele>1.1</ele>
        <time>2019-07-11T09:28:39Z</time>
      </trkpt>
      <trkpt lat="48.82121" lon="-3.5011">
        <ele>1.2</ele>
        <time>2019-07-11T09:28:40Z</time>
      </trkpt>
      <trkpt lat="48.82118" lon="-3.5011">
        <ele>1.4</ele>
        <time>2019-07-11T09:28:41Z</time>
      </trkpt>
      <trkpt lat="48.82115" lon="-3.5011">
        <ele>1.6</ele>
        <time>2019-07-11T09:28:42Z</time>
      </trkpt>
      <trkpt lat="48.82111" lon="-3.50111">
        <ele>1.9</ele>
        <time>2019-07-11T09:28:43Z</time>
      </trkpt>
      <trkpt lat="48.82107" lon="-3.50111">
        <ele>2.4</ele>
        <time>2019-07-11T09:28:44Z</time>
      </trkpt>
      <trkpt lat="48.82104" lon="-3.50111">
        <ele>2.4</ele>
        <time>2019-07-11T09:28:45Z</time>
      </trkpt>
      <trkpt lat="48.82101" lon="-3.50111">
        <ele>3</ele>
        <time>2019-07-11T09:28:46Z</time>
      </trkpt>
      <trkpt lat="48.82098" lon="-3.50111">
        <ele>3.2</ele>
        <time>2019-07-11T09:28:47Z</time>
      </trkpt>
      <trkpt lat="48.82095" lon="-3.5011">
        <ele>3.3</ele>
        <time>2019-07-11T09:28:48Z</time>
      </trkpt>
      <trkpt lat="48.82092" lon="-3.5011">
        <ele>3.9</ele>
        <time>2019-07-11T09:28:49Z</time>
      </trkpt>
      <trkpt lat="48.82089" lon="-3.5011">
        <ele>4.1</ele>
        <time>2019-07-11T09:28:50Z</time>
      </trkpt>
      <trkpt lat="48.82086" lon="-3.50109">
        <ele>4.2</ele>
        <time>2019-07-11T09:28:51Z</time>
      </trkpt>
      <trkpt lat="48.82084" lon="-3.50109">
        <ele>4</ele>
        <time>2019-07-11T09:28:52Z</time>
      </trkpt>
      <trkpt lat="48.82081" lon="-3.50108">
        <ele>4.6</ele>
        <time>2019-07-11T09:28:53Z</time>
      </trkpt>
      <trkpt lat="48.82077" lon="-3.50108">
        <ele>5.3</ele>
        <time>2019-07-11T09:28:54Z</time>
      </trkpt>
      <trkpt lat="48.82074" lon="-3.50108">
        <ele>5.6</ele>
        <time>2019-07-11T09:28:55Z</time>
      </trkpt>
      <trkpt lat="48.82071" lon="-3.50107">
        <ele>5.8</ele>
        <time>2019-07-11T09:28:56Z</time>
      </trkpt>
      <trkpt lat="48.82069" lon="-3.50106">
        <ele>5.8</ele>
        <time>2019-07-11T09:28:57Z</time>
      </trkpt>
      <trkpt lat="48.82066" lon="-3.50105">
        <ele>5.5</ele>
        <time>2019-07-11T09:28:58Z</time>
      </trkpt>
      <trkpt lat="48.82064" lon="-3.50104">
        <ele>5.3</ele>
        <time>2019-07-11T09:28:59Z</time>
      </trkpt>
      <trkpt lat="48.82061" lon="-3.50102">
        <ele>4.9</ele>
        <time>2019-07-11T09:29:00Z</time>
      </trkpt>
      <trkpt lat="48.82059" lon="-3.50102">
        <ele>4.7</ele>
        <time>2019-07-11T09:29:01Z</time>
      </trkpt>
      <trkpt lat="48.82056" lon="-3.50101">
        <ele>4.4</ele>
        <time>2019-07-11T09:29:02Z</time>
      </trkpt>
      <trkpt lat="48.82053" lon="-3.501">
        <ele>4.3</ele>
        <time>2019-07-11T09:29:03Z</time>
      </trkpt>
      <trkpt lat="48.8205" lon="-3.501">
        <ele>4.6</ele>
        <time>2019-07-11T09:29:04Z</time>
      </trkpt>
      <trkpt lat="48.82048" lon="-3.50099">
        <ele>5</ele>
        <time>2019-07-11T09:29:05Z</time>
      </trkpt>
      <trkpt lat="48.82045" lon="-3.50099">
        <ele>5.2</ele>
        <time>2019-07-11T09:29:06Z</time>
      </trkpt>
      <trkpt lat="48.82042" lon="-3.50098">
        <ele>5.4</ele>
        <time>2019-07-11T09:29:07Z</time>
      </trkpt>
      <trkpt lat="48.82039" lon="-3.50098">
        <ele>5.6</ele>
        <time>2019-07-11T09:29:08Z</time>
      </trkpt>
      <trkpt lat="48.82037" lon="-3.50097">
        <ele>6.1</ele>
        <time>2019-07-11T09:29:09Z</time>
      </trkpt>
      <trkpt lat="48.82034" lon="-3.50097">
        <ele>6.7</ele>
        <time>2019-07-11T09:29:10Z</time>
      </trkpt>
      <trkpt lat="48.82032" lon="-3.50095">
        <ele>7.1</ele>
        <time>2019-07-11T09:29:11Z</time>
      </trkpt>
      <trkpt lat="48.82029" lon="-3.50094">
        <ele>7.4</ele>
        <time>2019-07-11T09:29:12Z</time>
      </trkpt>
      <trkpt lat="48.82027" lon="-3.50094">
        <ele>7.9</ele>
        <time>2019-07-11T09:29:13Z</time>
      </trkpt>
      <trkpt lat="48.82024" lon="-3.50093">
        <ele>8</ele>
        <time>2019-07-11T09:29:14Z</time>
      </trkpt>
      <trkpt lat="48.82022" lon="-3.50092">
        <ele>8.3</ele>
        <time>2019-07-11T09:29:15Z</time>
      </trkpt>
      <trkpt lat="48.8202" lon="-3.50091">
        <ele>8.2</ele>
        <time>2019-07-11T09:29:16Z</time>
      </trkpt>
      <trkpt lat="48.82018" lon="-3.5009">
        <ele>8.2</ele>
        <time>2019-07-11T09:29:17Z</time>
      </trkpt>
      <trkpt lat="48.82015" lon="-3.50088">
        <ele>8.1</ele>
        <time>2019-07-11T09:29:18Z</time>
      </trkpt>
      <trkpt lat="48.82013" lon="-3.50087">
        <ele>8.7</ele>
        <time>2019-07-11T09:29:19Z</time>
      </trkpt>
      <trkpt lat="48.8201" lon="-3.50086">
        <ele>9</ele>
        <time>2019-07-11T09:29:20Z</time>
      </trkpt>
      <trkpt lat="48.82008" lon="-3.50086">
        <ele>9.1</ele>
        <time>2019-07-11T09:29:21Z</time>
      </trkpt>
      <trkpt lat="48.82005" lon="-3.50085">
        <ele>9.5</ele>
        <time>2019-07-11T09:29:22Z</time>
      </trkpt>
      <trkpt lat="48.82002" lon="-3.50085">
        <ele>10.2</ele>
        <time>2019-07-11T09:29:23Z</time>
      </trkpt>
      <trkpt lat="48.82" lon="-3.50084">
        <ele>10.1</ele>
        <time>2019-07-11T09:29:24Z</time>
      </trkpt>
      <trkpt lat="48.81997" lon="-3.50083">
        <ele>10.5</ele>
        <time>2019-07-11T09:29:25Z</time>
      </trkpt>
      <trkpt lat="48.81995" lon="-3.50082">
        <ele>10.2</ele>
        <time>2019-07-11T09:29:26Z</time>
      </trkpt>
      <trkpt lat="48.81992" lon="-3.50081">
        <ele>11</ele>
        <time>2019-07-11T09:29:27Z</time>
      </trkpt>
      <trkpt lat="48.81989" lon="-3.50081">
        <ele>12.4</ele>
        <time>2019-07-11T09:29:28Z</time>
      </trkpt>
      <trkpt lat="48.81987" lon="-3.5008">
        <ele>13.5</ele>
        <time>2019-07-11T09:29:29Z</time>
      </trkpt>
      <trkpt lat="48.81984" lon="-3.50079">
        <ele>14.9</ele>
        <time>2019-07-11T09:29:30Z</time>
      </trkpt>
      <trkpt lat="48.81982" lon="-3.50078">
        <ele>15.6</ele>
        <time>2019-07-11T09:29:31Z</time>
      </trkpt>
      <trkpt lat="48.8198" lon="-3.50077">
        <ele>16.1</ele>
        <time>2019-07-11T09:29:32Z</time>
      </trkpt>
      <trkpt lat="48.81977" lon="-3.50076">
        <ele>17.2</ele>
        <time>2019-07-11T09:29:33Z</time>
      </trkpt>
      <trkpt lat="48.81975" lon="-3.50074">
        <ele>18.3</ele>
        <time>2019-07-11T09:29:34Z</time>
      </trkpt>
      <trkpt lat="48.81973" lon="-3.50073">
        <ele>17.7</ele>
        <time>2019-07-11T09:29:35Z</time>
      </trkpt>
      <trkpt lat="48.81971" lon="-3.50072">
        <ele>17.5</ele>
        <time>2019-07-11T09:29:36Z</time>
      </trkpt>
      <trkpt lat="48.81969" lon="-3.50071">
        <ele>17.6</ele>
        <time>2019-07-11T09:29:37Z</time>
      </trkpt>
      <trkpt lat="48.81966" lon="-3.5007">
        <ele>16.4</ele>
        <time>2019-07-11T09:29:38Z</time>
      </trkpt>
      <trkpt lat="48.81964" lon="-3.5007">
        <ele>16.4</ele>
        <time>2019-07-11T09:29:39Z</time>
      </trkpt>
      <trkpt lat="48.81961" lon="-3.5007">
        <ele>15.7</ele>
        <time>2019-07-11T09:29:40Z</time>
      </trkpt>
      <trkpt lat="48.81959" lon="-3.50072">
        <ele>17.2</ele>
        <time>2019-07-11T09:29:41Z</time>
      </trkpt>
      <trkpt lat="48.81957" lon="-3.50072">
        <ele>18.2</ele>
        <time>2019-07-11T09:29:42Z</time>
      </trkpt>
      <trkpt lat="48.81954" lon="-3.50071">
        <ele>18.4</ele>
        <time>2019-07-11T09:29:43Z</time>
      </trkpt>
      <trkpt lat="48.81952" lon="-3.5007">
        <ele>18.4</ele>
        <time>2019-07-11T09:29:44Z</time>
      </trkpt>
      <trkpt lat="48.8195" lon="-3.50068">
        <ele>18</ele>
        <time>2019-07-11T09:29:45Z</time>
      </trkpt>
      <trkpt lat="48.81948" lon="-3.50067">
        <ele>17.2</ele>
        <time>2019-07-11T09:29:46Z</time>
      </trkpt>
      <trkpt lat="48.81946" lon="-3.50065">
        <ele>16.9</ele>
        <time>2019-07-11T09:29:47Z</time>
      </trkpt>
      <trkpt lat="48.81944" lon="-3.50064">
        <ele>16.9</ele>
        <time>2019-07-11T09:29:48Z</time>
      </trkpt>
      <trkpt lat="48.81941" lon="-3.50063">
        <ele>16.9</ele>
        <time>2019-07-11T09:29:49Z</time>
      </trkpt>
      <trkpt lat="48.81939" lon="-3.50062">
        <ele>17.1</ele>
        <time>2019-07-11T09:29:50Z</time>
      </trkpt>
      <trkpt lat="48.81936" lon="-3.50061">
        <ele>17.1</ele>
        <time>2019-07-11T09:29:51Z</time>
      </trkpt>
      <trkpt lat="48.81934" lon="-3.50061">
        <ele>16</ele>
        <time>2019-07-11T09:29:52Z</time>
      </trkpt>
      <trkpt lat="48.81931" lon="-3.50061">
        <ele>15.3</ele>
        <time>2019-07-11T09:29:53Z</time>
      </trkpt>
      <trkpt lat="48.81929" lon="-3.5006">
        <ele>15.1</ele>
        <time>2019-07-11T09:29:54Z</time>
      </trkpt>
      <trkpt lat="48.81926" lon="-3.5006">
        <ele>14.9</ele>
        <time>2019-07-11T09:29:55Z</time>
      </trkpt>
      <trkpt lat="48.81924" lon="-3.50059">
        <ele>15</ele>
        <time>2019-07-11T09:29:56Z</time>
      </trkpt>
      <trkpt lat="48.81923" lon="-3.5006">
        <ele>15.1</ele>
        <time>2019-07-11T09:29:57Z</time>
      </trkpt>
      <trkpt lat="48.8192" lon="-3.5006">
        <ele>15.1</ele>
        <time>2019-07-11T09:29:58Z</time>
      </trkpt>
      <trkpt lat="48.81918" lon="-3.50061">
        <ele>15.4</ele>
        <time>2019-07-11T09:29:59Z</time>
      </trkpt>
      <trkpt lat="48.81916" lon="-3.50061">
        <ele>15.5</ele>
        <time>2019-07-11T09:30:00Z</time>
      </trkpt>
      <trkpt lat="48.81913" lon="-3.50062">
        <ele>15.3</ele>
        <time>2019-07-11T09:30:01Z</time>
      </trkpt>
      <trkpt lat="48.8191" lon="-3.50063">
        <ele>15.2</ele>
        <time>2019-07-11T09:30:02Z</time>
      </trkpt>
      <trkpt lat="48.81908" lon="-3.50064">
        <ele>14.3</ele>
        <time>2019-07-11T09:30:03Z</time>
      </trkpt>
      <trkpt lat="48.81906" lon="-3.50065">
        <ele>14.3</ele>
        <time>2019-07-11T09:30:04Z</time>
      </trkpt>
      <trkpt lat="48.81905" lon="-3.50067">
        <ele>14.8</ele>
        <time>2019-07-11T09:30:05Z</time>
      </trkpt>
      <trkpt lat="48.81903" lon="-3.50069">
        <ele>14.9</ele>
        <time>2019-07-11T09:30:06Z</time>
      </trkpt>
      <trkpt lat="48.81902" lon="-3.5007">
        <ele>14.9</ele>
        <time>2019-07-11T09:30:07Z</time>
      </trkpt>
      <trkpt lat="48.819" lon="-3.50072">
        <ele>15.5</ele>
        <time>2019-07-11T09:30:08Z</time>
      </trkpt>
      <trkpt lat="48.81899" lon="-3.50074">
        <ele>16.1</ele>
        <time>2019-07-11T09:30:09Z</time>
      </trkpt>
      <trkpt lat="48.81897" lon="-3.50077">
        <ele>16.5</ele>
        <time>2019-07-11T09:30:10Z</time>
      </trkpt>
      <trkpt lat="48.81895" lon="-3.5008">
        <ele>17.5</ele>
        <time>2019-07-11T09:30:11Z</time>
      </trkpt>
      <trkpt lat="48.81893" lon="-3.50083">
        <ele>18.4</ele>
        <time>2019-07-11T09:30:12Z</time>
      </trkpt>
      <trkpt lat="48.81892" lon="-3.50086">
        <ele>18.9</ele>
        <time>2019-07-11T09:30:13Z</time>
      </trkpt>
      <trkpt lat="48.81891" lon="-3.50089">
        <ele>19.5</ele>
        <time>2019-07-11T09:30:14Z</time>
      </trkpt>
      <trkpt lat="48.81889" lon="-3.50093">
        <ele>19.8</ele>
        <time>2019-07-11T09:30:15Z</time>
      </trkpt>
      <trkpt lat="48.81888" lon="-3.50096">
        <ele>20.2</ele>
        <time>2019-07-11T09:30:16Z</time>
      </trkpt>
      <trkpt lat="48.81887" lon="-3.50099">
        <ele>20.5</ele>
        <time>2019-07-11T09:30:17Z</time>
      </trkpt>
      <trkpt lat="48.81886" lon="-3.50102">
        <ele>21.1</ele>
        <time>2019-07-11T09:30:18Z</time>
      </trkpt>
      <trkpt lat="48.81885" lon="-3.50105">
        <ele>21.1</ele>
        <time>2019-07-11T09:30:19Z</time>
      </trkpt>
      <trkpt lat="48.81884" lon="-3.50109">
        <ele>21.3</ele>
        <time>2019-07-11T09:30:20Z</time>
      </trkpt>
      <trkpt lat="48.81884" lon="-3.50112">
        <ele>21.3</ele>
        <time>2019-07-11T09:30:21Z</time>
      </trkpt>
      <trkpt lat="48.81883" lon="-3.50116">
        <ele>21.9</ele>
        <time>2019-07-11T09:30:22Z</time>
      </trkpt>
      <trkpt lat="48.81883" lon="-3.50119">
        <ele>22.4</ele>
        <time>2019-07-11T09:30:23Z</time>
      </trkpt>
      <trkpt lat="48.81883" lon="-3.50123">
        <ele>22.8</ele>
        <time>2019-07-11T09:30:24Z</time>
      </trkpt>
      <trkpt lat="48.81883" lon="-3.50127">
        <ele>23.6</ele>
        <time>2019-07-11T09:30:25Z</time>
      </trkpt>
      <trkpt lat="48.81883" lon="-3.50131">
        <ele>24.1</ele>
        <time>2019-07-11T09:30:26Z</time>
      </trkpt>
      <trkpt lat="48.81882" lon="-3.50134">
        <ele>24.2</ele>
        <time>2019-07-11T09:30:27Z</time>
      </trkpt>
      <trkpt lat="48.81882" lon="-3.50137">
        <ele>25.1</ele>
        <time>2019-07-11T09:30:28Z</time>
      </trkpt>
      <trkpt lat="48.81882" lon="-3.50141">
        <ele>25.4</ele>
        <time>2019-07-11T09:30:29Z</time>
      </trkpt>
      <trkpt lat="48.81882" lon="-3.50145">
        <ele>25.7</ele>
        <time>2019-07-11T09:30:30Z</time>
      </trkpt>
      <trkpt lat="48.81882" lon="-3.50148">
        <ele>25.5</ele>
        <time>2019-07-11T09:30:31Z</time>
      </trkpt>
      <trkpt lat="48.81883" lon="-3.50152">
        <ele>25.6</ele>
        <time>2019-07-11T09:30:32Z</time>
      </trkpt>
      <trkpt lat="48.81883" lon="-3.50156">
        <ele>25.6</ele>
        <time>2019-07-11T09:30:33Z</time>
      </trkpt>
      <trkpt lat="48.81882" lon="-3.50159">
        <ele>25.7</ele>
        <time>2019-07-11T09:30:34Z</time>
      </trkpt>
      <trkpt lat="48.81881" lon="-3.50162">
        <ele>25.4</ele>
        <time>2019-07-11T09:30:35Z</time>
      </trkpt>
      <trkpt lat="48.81881" lon="-3.50166">
        <ele>25.2</ele>
        <time>2019-07-11T09:30:36Z</time>
      </trkpt>
      <trkpt lat="48.81879" lon="-3.50169">
        <ele>24.9</ele>
        <time>2019-07-11T09:30:37Z</time>
      </trkpt>
      <trkpt lat="48.81878" lon="-3.50171">
        <ele>24.9</ele>
        <time>2019-07-11T09:30:38Z</time>
      </trkpt>
      <trkpt lat="48.81877" lon="-3.50173">
        <ele>24.9</ele>
        <time>2019-07-11T09:30:39Z</time>
      </trkpt>
      <trkpt lat="48.81875" lon="-3.50176">
        <ele>24.6</ele>
        <time>2019-07-11T09:30:40Z</time>
      </trkpt>
      <trkpt lat="48.81874" lon="-3.50178">
        <ele>24.6</ele>
        <time>2019-07-11T09:30:41Z</time>
      </trkpt>
      <trkpt lat="48.81872" lon="-3.5018">
        <ele>24.5</ele>
        <time>2019-07-11T09:30:42Z</time>
      </trkpt>
      <trkpt lat="48.81871" lon="-3.50182">
        <ele>24.6</ele>
        <time>2019-07-11T09:30:43Z</time>
      </trkpt>
      <trkpt lat="48.81869" lon="-3.50184">
        <ele>24.7</ele>
        <time>2019-07-11T09:30:44Z</time>
      </trkpt>
      <trkpt lat="48.81867" lon="-3.50186">
        <ele>24.7</ele>
        <time>2019-07-11T09:30:45Z</time>
      </trkpt>
      <trkpt lat="48.81866" lon="-3.50188">
        <ele>24.4</ele>
        <time>2019-07-11T09:30:46Z</time>
      </trkpt>
      <trkpt lat="48.81864" lon="-3.5019">
        <ele>24.4</ele>
        <time>2019-07-11T09:30:47Z</time>
      </trkpt>
      <trkpt lat="48.81862" lon="-3.50192">
        <ele>24.8</ele>
        <time>2019-07-11T09:30:48Z</time>
      </trkpt>
      <trkpt lat="48.8186" lon="-3.50195">
        <ele>25.1</ele>
        <time>2019-07-11T09:30:49Z</time>
      </trkpt>
      <trkpt lat="48.81858" lon="-3.50198">
        <ele>25.3</ele>
        <time>2019-07-11T09:30:50Z</time>
      </trkpt>
      <trkpt lat="48.81857" lon="-3.50201">
        <ele>25.4</ele>
        <time>2019-07-11T09:30:51Z</time>
      </trkpt>
      <trkpt lat="48.81855" lon="-3.50203">
        <ele>25.7</ele>
        <time>2019-07-11T09:30:52Z</time>
      </trkpt>
      <trkpt lat="48.81854" lon="-3.50206">
        <ele>25.8</ele>
        <time>2019-07-11T09:30:53Z</time>
      </trkpt>
      <trkpt lat="48.81852" lon="-3.50209">
        <ele>26.2</ele>
        <time>2019-07-11T09:30:54Z</time>
      </trkpt>
      <trkpt lat="48.8185" lon="-3.50211">
        <ele>26.6</ele>
        <time>2019-07-11T09:30:55Z</time>
      </trkpt>
      <trkpt lat="48.81848" lon="-3.50214">
        <ele>26.8</ele>
        <time>2019-07-11T09:30:56Z</time>
      </trkpt>
      <trkpt lat="48.81847" lon="-3.50217">
        <ele>27</ele>
        <time>2019-07-11T09:30:57Z</time>
      </trkpt>
      <trkpt lat="48.81846" lon="-3.50219">
        <ele>27.1</ele>
        <time>2019-07-11T09:30:58Z</time>
      </trkpt>
      <trkpt lat="48.81844" lon="-3.50223">
        <ele>27.2</ele>
        <time>2019-07-11T09:30:59Z</time>
      </trkpt>
      <trkpt lat="48.81843" lon="-3.50226">
        <ele>27.1</ele>
        <time>2019-07-11T09:31:00Z</time>
      </trkpt>
      <trkpt lat="48.81842" lon="-3.50228">
        <ele>27.3</ele>
        <time>2019-07-11T09:31:01Z</time>
      </trkpt>
      <trkpt lat="48.8184" lon="-3.50231">
        <ele>27.1</ele>
        <time>2019-07-11T09:31:02Z</time>
      </trkpt>
      <trkpt lat="48.81838" lon="-3.50233">
        <ele>26.8</ele>
        <time>2019-07-11T09:31:03Z</time>
      </trkpt>
      <trkpt lat="48.81836" lon="-3.50236">
        <ele>27.2</ele>
        <time>2019-07-11T09:31:04Z</time>
      </trkpt>
      <trkpt lat="48.81835" lon="-3.5024">
        <ele>27.3</ele>
        <time>2019-07-11T09:31:05Z</time>
      </trkpt>
      <trkpt lat="48.81833" lon="-3.50244">
        <ele>27.3</ele>
        <time>2019-07-11T09:31:06Z</time>
      </trkpt>
      <trkpt lat="48.81831" lon="-3.50248">
        <ele>27.1</ele>
        <time>2019-07-11T09:31:07Z</time>
      </trkpt>
      <trkpt lat="48.81827" lon="-3.50252">
        <ele>26.7</ele>
        <time>2019-07-11T09:31:08Z</time>
      </trkpt>
      <trkpt lat="48.81822" lon="-3.50257">
        <ele>26.2</ele>
        <time>2019-07-11T09:31:09Z</time>
      </trkpt>
      <trkpt lat="48.81817" lon="-3.5026">
        <ele>25.8</ele>
        <time>2019-07-11T09:31:10Z</time>
      </trkpt>
      <trkpt lat="48.81813" lon="-3.50263">
        <ele>25.5</ele>
        <time>2019-07-11T09:31:11Z</time>
      </trkpt>
      <trkpt lat="48.81808" lon="-3.50267">
        <ele>25.1</ele>
        <time>2019-07-11T09:31:12Z</time>
      </trkpt>
      <trkpt lat="48.81804" lon="-3.5027">
        <ele>24.9</ele>
        <time>2019-07-11T09:31:13Z</time>
      </trkpt>
      <trkpt lat="48.81799" lon="-3.50273">
        <ele>24.6</ele>
        <time>2019-07-11T09:31:14Z</time>
      </trkpt>
      <trkpt lat="48.81796" lon="-3.50276">
        <ele>24.5</ele>
        <time>2019-07-11T09:31:15Z</time>
      </trkpt>
      <trkpt lat="48.81792" lon="-3.50279">
        <ele>23.9</ele>
        <time>2019-07-11T09:31:16Z</time>
      </trkpt>
      <trkpt lat="48.81789" lon="-3.50282">
        <ele>23.5</ele>
        <time>2019-07-11T09:31:17Z</time>
      </trkpt>
      <trkpt lat="48.81785" lon="-3.50286">
        <ele>23.6</ele>
        <time>2019-07-11T09:31:18Z</time>
      </trkpt>
      <trkpt lat="48.81781" lon="-3.50287">
        <ele>24.9</ele>
        <time>2019-07-11T09:31:19Z</time>
      </trkpt>
      <trkpt lat="48.81777" lon="-3.50291">
        <ele>24.9</ele>
        <time>2019-07-11T09:31:20Z</time>
      </trkpt>
      <trkpt lat="48.81775" lon="-3.50298">
        <ele>24.4</ele>
        <time>2019-07-11T09:31:21Z</time>
      </trkpt>
      <trkpt lat="48.81773" lon="-3.50305">
        <ele>23.9</ele>
        <time>2019-07-11T09:31:22Z</time>
      </trkpt>
      <trkpt lat="48.81772" lon="-3.50312">
        <ele>23.4</ele>
        <time>2019-07-11T09:31:23Z</time>
      </trkpt>
      <trkpt lat="48.8177" lon="-3.50319">
        <ele>23.1</ele>
        <time>2019-07-11T09:31:24Z</time>
      </trkpt>
      <trkpt lat="48.81769" lon="-3.50326">
        <ele>22.7</ele>
        <time>2019-07-11T09:31:25Z</time>
      </trkpt>
      <trkpt lat="48.81768" lon="-3.50333">
        <ele>22.4</ele>
        <time>2019-07-11T09:31:26Z</time>
      </trkpt>
      <trkpt lat="48.81768" lon="-3.5034">
        <ele>22.3</ele>
        <time>2019-07-11T09:31:27Z</time>
      </trkpt>
      <trkpt lat="48.81768" lon="-3.50348">
        <ele>22.3</ele>
        <time>2019-07-11T09:31:28Z</time>
      </trkpt>
      <trkpt lat="48.81768" lon="-3.50354">
        <ele>22.7</ele>
        <time>2019-07-11T09:31:29Z</time>
      </trkpt>
      <trkpt lat="48.81767" lon="-3.50361">
        <ele>23.1</ele>
        <time>2019-07-11T09:31:30Z</time>
      </trkpt>
      <trkpt lat="48.81768" lon="-3.50368">
        <ele>23.2</ele>
        <time>2019-07-11T09:31:31Z</time>
      </trkpt>
      <trkpt lat="48.81768" lon="-3.50374">
        <ele>23.4</ele>
        <time>2019-07-11T09:31:32Z</time>
      </trkpt>
      <trkpt lat="48.81768" lon="-3.50381">
        <ele>23.6</ele>
        <time>2019-07-11T09:31:33Z</time>
      </trkpt>
      <trkpt lat="48.81769" lon="-3.50388">
        <ele>23.5</ele>
        <time>2019-07-11T09:31:34Z</time>
      </trkpt>
      <trkpt lat="48.8177" lon="-3.50395">
        <ele>23.3</ele>
        <time>2019-07-11T09:31:35Z</time>
      </trkpt>
      <trkpt lat="48.81772" lon="-3.50401">
        <ele>23.1</ele>
        <time>2019-07-11T09:31:36Z</time>
      </trkpt>
      <trkpt lat="48.81773" lon="-3.50408">
        <ele>22.3</ele>
        <time>2019-07-11T09:31:37Z</time>
      </trkpt>
      <trkpt lat="48.81773" lon="-3.50415">
        <ele>21.9</ele>
        <time>2019-07-11T09:31:38Z</time>
      </trkpt>
      <trkpt lat="48.81775" lon="-3.50421">
        <ele>21.6</ele>
        <time>2019-07-11T09:31:39Z</time>
      </trkpt>
      <trkpt lat="48.81775" lon="-3.50428">
        <ele>21.2</ele>
        <time>2019-07-11T09:31:40Z</time>
      </trkpt>
      <trkpt lat="48.81776" lon="-3.50434">
        <ele>21.1</ele>
        <time>2019-07-11T09:31:41Z</time>
      </trkpt>
      <trkpt lat="48.81777" lon="-3.5044">
        <ele>20.9</ele>
        <time>2019-07-11T09:31:42Z</time>
      </trkpt>
      <trkpt lat="48.81778" lon="-3.50446">
        <ele>21.1</ele>
        <time>2019-07-11T09:31:43Z</time>
      </trkpt>
      <trkpt lat="48.81778" lon="-3.50451">
        <ele>21</ele>
        <time>2019-07-11T09:31:44Z</time>
      </trkpt>
      <trkpt lat="48.8178" lon="-3.50457">
        <ele>21.4</ele>
        <time>2019-07-11T09:31:45Z</time>
      </trkpt>
      <trkpt lat="48.81781" lon="-3.50462">
        <ele>21.5</ele>
        <time>2019-07-11T09:31:46Z</time>
      </trkpt>
      <trkpt lat="48.81781" lon="-3.50468">
        <ele>21.2</ele>
        <time>2019-07-11T09:31:47Z</time>
      </trkpt>
      <trkpt lat="48.81782" lon="-3.50474">
        <ele>20.8</ele>
        <time>2019-07-11T09:31:48Z</time>
      </trkpt>
      <trkpt lat="48.81782" lon="-3.5048">
        <ele>20.1</ele>
        <time>2019-07-11T09:31:49Z</time>
      </trkpt>
      <trkpt lat="48.81782" lon="-3.50484">
        <ele>19.8</ele>
        <time>2019-07-11T09:31:50Z</time>
      </trkpt>
      <trkpt lat="48.81783" lon="-3.50486">
        <ele>19.6</ele>
        <time>2019-07-11T09:31:51Z</time>
      </trkpt>
      <trkpt lat="48.81785" lon="-3.50489">
        <ele>19.8</ele>
        <time>2019-07-11T09:32:02Z</time>
      </trkpt>
      <trkpt lat="48.81786" lon="-3.5049">
        <ele>20</ele>
        <time>2019-07-11T09:32:03Z</time>
      </trkpt>
      <trkpt lat="48.81788" lon="-3.50492">
        <ele>20.2</ele>
        <time>2019-07-11T09:32:04Z</time>
      </trkpt>
      <trkpt lat="48.81789" lon="-3.50493">
        <ele>20.3</ele>
        <time>2019-07-11T09:32:05Z</time>
      </trkpt>
      <trkpt lat="48.81791" lon="-3.50494">
        <ele>20.2</ele>
        <time>2019-07-11T09:32:06Z</time>
      </trkpt>
      <trkpt lat="48.81792" lon="-3.50495">
        <ele>20.2</ele>
        <time>2019-07-11T09:32:07Z</time>
      </trkpt>
      <trkpt lat="48.81794" lon="-3.50497">
        <ele>20.3</ele>
        <time>2019-07-11T09:32:08Z</time>
      </trkpt>
      <trkpt lat="48.81796" lon="-3.50499">
        <ele>20.5</ele>
        <time>2019-07-11T09:32:09Z</time>
      </trkpt>
      <trkpt lat="48.81797" lon="-3.505">
        <ele>20.6</ele>
        <time>2019-07-11T09:32:10Z</time>
      </trkpt>
      <trkpt lat="48.81799" lon="-3.50501">
        <ele>20.6</ele>
        <time>2019-07-11T09:32:11Z</time>
      </trkpt>
      <trkpt lat="48.81801" lon="-3.50503">
        <ele>20.8</ele>
        <time>2019-07-11T09:32:12Z</time>
      </trkpt>
      <trkpt lat="48.81802" lon="-3.50506">
        <ele>21.1</ele>
        <time>2019-07-11T09:32:13Z</time>
      </trkpt>
      <trkpt lat="48.81804" lon="-3.50509">
        <ele>21.4</ele>
        <time>2019-07-11T09:32:14Z</time>
      </trkpt>
      <trkpt lat="48.81807" lon="-3.50512">
        <ele>22.1</ele>
        <time>2019-07-11T09:32:15Z</time>
      </trkpt>
      <trkpt lat="48.81809" lon="-3.50515">
        <ele>22.6</ele>
        <time>2019-07-11T09:32:16Z</time>
      </trkpt>
      <trkpt lat="48.81812" lon="-3.50519">
        <ele>23.1</ele>
        <time>2019-07-11T09:32:17Z</time>
      </trkpt>
      <trkpt lat="48.81812" lon="-3.50521">
        <ele>24.3</ele>
        <time>2019-07-11T09:32:18Z</time>
      </trkpt>
      <trkpt lat="48.81814" lon="-3.50526">
        <ele>25.1</ele>
        <time>2019-07-11T09:32:19Z</time>
      </trkpt>
      <trkpt lat="48.81817" lon="-3.50529">
        <ele>26</ele>
        <time>2019-07-11T09:32:20Z</time>
      </trkpt>
      <trkpt lat="48.8182" lon="-3.50533">
        <ele>26.9</ele>
        <time>2019-07-11T09:32:21Z</time>
      </trkpt>
      <trkpt lat="48.81822" lon="-3.50536">
        <ele>27.6</ele>
        <time>2019-07-11T09:32:22Z</time>
      </trkpt>
      <trkpt lat="48.81825" lon="-3.5054">
        <ele>28.4</ele>
        <time>2019-07-11T09:32:23Z</time>
      </trkpt>
      <trkpt lat="48.81826" lon="-3.50544">
        <ele>29.3</ele>
        <time>2019-07-11T09:32:24Z</time>
      </trkpt>
      <trkpt lat="48.81829" lon="-3.50547">
        <ele>29.8</ele>
        <time>2019-07-11T09:32:25Z</time>
      </trkpt>
      <trkpt lat="48.81831" lon="-3.5055">
        <ele>30.4</ele>
        <time>2019-07-11T09:32:26Z</time>
      </trkpt>
      <trkpt lat="48.81831" lon="-3.50555">
        <ele>30.9</ele>
        <time>2019-07-11T09:32:27Z</time>
      </trkpt>
      <trkpt lat="48.81832" lon="-3.50559">
        <ele>31.3</ele>
        <time>2019-07-11T09:32:28Z</time>
      </trkpt>
      <trkpt lat="48.81832" lon="-3.50565">
        <ele>31.1</ele>
        <time>2019-07-11T09:32:29Z</time>
      </trkpt>
      <trkpt lat="48.81831" lon="-3.5057">
        <ele>31.6</ele>
        <time>2019-07-11T09:32:30Z</time>
      </trkpt>
      <trkpt lat="48.81832" lon="-3.50574">
        <ele>30.2</ele>
        <time>2019-07-11T09:32:31Z</time>
      </trkpt>
      <trkpt lat="48.81831" lon="-3.50578">
        <ele>29.2</ele>
        <time>2019-07-11T09:32:32Z</time>
      </trkpt>
      <trkpt lat="48.8183" lon="-3.50583">
        <ele>29.1</ele>
        <time>2019-07-11T09:32:33Z</time>
      </trkpt>
      <trkpt lat="48.81829" lon="-3.50588">
        <ele>28.8</ele>
        <time>2019-07-11T09:32:34Z</time>
      </trkpt>
      <trkpt lat="48.81829" lon="-3.50593">
        <ele>28.5</ele>
        <time>2019-07-11T09:32:35Z</time>
      </trkpt>
      <trkpt lat="48.81828" lon="-3.50599">
        <ele>27.9</ele>
        <time>2019-07-11T09:32:36Z</time>
      </trkpt>
      <trkpt lat="48.81828" lon="-3.50606">
        <ele>27.3</ele>
        <time>2019-07-11T09:32:37Z</time>
      </trkpt>
      <trkpt lat="48.81828" lon="-3.50613">
        <ele>26.8</ele>
        <time>2019-07-11T09:32:38Z</time>
      </trkpt>
      <trkpt lat="48.81827" lon="-3.50621">
        <ele>26.1</ele>
        <time>2019-07-11T09:32:39Z</time>
      </trkpt>
      <trkpt lat="48.81827" lon="-3.50628">
        <ele>25.3</ele>
        <time>2019-07-11T09:32:40Z</time>
      </trkpt>
      <trkpt lat="48.81826" lon="-3.50636">
        <ele>24.7</ele>
        <time>2019-07-11T09:32:41Z</time>
      </trkpt>
      <trkpt lat="48.81826" lon="-3.50642">
        <ele>24</ele>
        <time>2019-07-11T09:32:42Z</time>
      </trkpt>
      <trkpt lat="48.81825" lon="-3.50649">
        <ele>23.2</ele>
        <time>2019-07-11T09:32:43Z</time>
      </trkpt>
      <trkpt lat="48.81825" lon="-3.50654">
        <ele>23.9</ele>
        <time>2019-07-11T09:32:44Z</time>
      </trkpt>
      <trkpt lat="48.81824" lon="-3.5066">
        <ele>23.5</ele>
        <time>2019-07-11T09:32:45Z</time>
      </trkpt>
      <trkpt lat="48.81823" lon="-3.50667">
        <ele>23.6</ele>
        <time>2019-07-11T09:32:46Z</time>
      </trkpt>
      <trkpt lat="48.81823" lon="-3.50672">
        <ele>23.8</ele>
        <time>2019-07-11T09:32:47Z</time>
      </trkpt>
      <trkpt lat="48.81822" lon="-3.50679">
        <ele>23.9</ele>
        <time>2019-07-11T09:32:48Z</time>
      </trkpt>
      <trkpt lat="48.81821" lon="-3.50686">
        <ele>23.9</ele>
        <time>2019-07-11T09:32:49Z</time>
      </trkpt>
      <trkpt lat="48.8182" lon="-3.50693">
        <ele>23.8</ele>
        <time>2019-07-11T09:32:50Z</time>
      </trkpt>
      <trkpt lat="48.81818" lon="-3.507">
        <ele>23.2</ele>
        <time>2019-07-11T09:32:51Z</time>
      </trkpt>
      <trkpt lat="48.81818" lon="-3.50706">
        <ele>22.9</ele>
        <time>2019-07-11T09:32:52Z</time>
      </trkpt>
      <trkpt lat="48.81818" lon="-3.5071">
        <ele>22.4</ele>
        <time>2019-07-11T09:32:53Z</time>
      </trkpt>
      <trkpt lat="48.81818" lon="-3.50713">
        <ele>21.9</ele>
        <time>2019-07-11T09:32:54Z</time>
      </trkpt>
      <trkpt lat="48.81818" lon="-3.50716">
        <ele>21</ele>
        <time>2019-07-11T09:32:55Z</time>
      </trkpt>
      <trkpt lat="48.81818" lon="-3.50717">
        <ele>20.4</ele>
        <time>2019-07-11T09:32:56Z</time>
      </trkpt>
      <trkpt lat="48.81818" lon="-3.50722">
        <ele>18.8</ele>
        <time>2019-07-11T09:32:59Z</time>
      </trkpt>
      <trkpt lat="48.81817" lon="-3.50725">
        <ele>18.4</ele>
        <time>2019-07-11T09:33:00Z</time>
      </trkpt>
      <trkpt lat="48.81817" lon="-3.50727">
        <ele>17.7</ele>
        <time>2019-07-11T09:33:01Z</time>
      </trkpt>
      <trkpt lat="48.81817" lon="-3.50729">
        <ele>16.7</ele>
        <time>2019-07-11T09:33:02Z</time>
      </trkpt>
      <trkpt lat="48.81817" lon="-3.50734">
        <ele>14.9</ele>
        <time>2019-07-11T09:33:05Z</time>
      </trkpt>
      <trkpt lat="48.81817" lon="-3.50736">
        <ele>15</ele>
        <time>2019-07-11T09:33:06Z</time>
      </trkpt>
      <trkpt lat="48.81817" lon="-3.50742">
        <ele>14.4</ele>
        <time>2019-07-11T09:33:17Z</time>
      </trkpt>
      <trkpt lat="48.81817" lon="-3.50745">
        <ele>14.4</ele>
        <time>2019-07-11T09:33:18Z</time>
      </trkpt>
      <trkpt lat="48.81817" lon="-3.50748">
        <ele>14.8</ele>
        <time>2019-07-11T09:33:19Z</time>
      </trkpt>
      <trkpt lat="48.81816" lon="-3.50752">
        <ele>15.2</ele>
        <time>2019-07-11T09:33:20Z</time>
      </trkpt>
      <trkpt lat="48.81815" lon="-3.50756">
        <ele>15.7</ele>
        <time>2019-07-11T09:33:21Z</time>
      </trkpt>
      <trkpt lat="48.81815" lon="-3.5076">
        <ele>16.4</ele>
        <time>2019-07-11T09:33:22Z</time>
      </trkpt>
      <trkpt lat="48.81813" lon="-3.50765">
        <ele>16.6</ele>
        <time>2019-07-11T09:33:23Z</time>
      </trkpt>
      <trkpt lat="48.81813" lon="-3.5077">
        <ele>17.1</ele>
        <time>2019-07-11T09:33:24Z</time>
      </trkpt>
      <trkpt lat="48.81812" lon="-3.50775">
        <ele>17.8</ele>
        <time>2019-07-11T09:33:25Z</time>
      </trkpt>
      <trkpt lat="48.81811" lon="-3.50782">
        <ele>18</ele>
        <time>2019-07-11T09:33:26Z</time>
      </trkpt>
      <trkpt lat="48.8181" lon="-3.50788">
        <ele>18.1</ele>
        <time>2019-07-11T09:33:27Z</time>
      </trkpt>
      <trkpt lat="48.8181" lon="-3.50795">
        <ele>18.3</ele>
        <time>2019-07-11T09:33:28Z</time>
      </trkpt>
      <trkpt lat="48.81809" lon="-3.50801">
        <ele>18.6</ele>
        <time>2019-07-11T09:33:29Z</time>
      </trkpt>
      <trkpt lat="48.81809" lon="-3.50807">
        <ele>19.2</ele>
        <time>2019-07-11T09:33:30Z</time>
      </trkpt>
      <trkpt lat="48.81808" lon="-3.50814">
        <ele>19.5</ele>
        <time>2019-07-11T09:33:31Z</time>
      </trkpt>
      <trkpt lat="48.81808" lon="-3.50819">
        <ele>19.8</ele>
        <time>2019-07-11T09:33:32Z</time>
      </trkpt>
      <trkpt lat="48.81808" lon="-3.50825">
        <ele>20.1</ele>
        <time>2019-07-11T09:33:33Z</time>
      </trkpt>
      <trkpt lat="48.81809" lon="-3.50831">
        <ele>20.4</ele>
        <time>2019-07-11T09:33:34Z</time>
      </trkpt>
      <trkpt lat="48.81809" lon="-3.50838">
        <ele>20.7</ele>
        <time>2019-07-11T09:33:35Z</time>
      </trkpt>
      <trkpt lat="48.81809" lon="-3.50843">
        <ele>21</ele>
        <time>2019-07-11T09:33:36Z</time>
      </trkpt>
      <trkpt lat="48.81808" lon="-3.50849">
        <ele>21.4</ele>
        <time>2019-07-11T09:33:37Z</time>
      </trkpt>
      <trkpt lat="48.81807" lon="-3.50855">
        <ele>22</ele>
        <time>2019-07-11T09:33:38Z</time>
      </trkpt>
      <trkpt lat="48.81806" lon="-3.50861">
        <ele>21.8</ele>
        <time>2019-07-11T09:33:39Z</time>
      </trkpt>
      <trkpt lat="48.81805" lon="-3.50867">
        <ele>22</ele>
        <time>2019-07-11T09:33:40Z</time>
      </trkpt>
      <trkpt lat="48.81805" lon="-3.50873">
        <ele>22.3</ele>
        <time>2019-07-11T09:33:41Z</time>
      </trkpt>
      <trkpt lat="48.81804" lon="-3.50879">
        <ele>22.6</ele>
        <time>2019-07-11T09:33:42Z</time>
      </trkpt>
      <trkpt lat="48.81802" lon="-3.50886">
        <ele>23.1</ele>
        <time>2019-07-11T09:33:43Z</time>
      </trkpt>
      <trkpt lat="48.81801" lon="-3.50892">
        <ele>23.4</ele>
        <time>2019-07-11T09:33:44Z</time>
      </trkpt>
      <trkpt lat="48.81801" lon="-3.50898">
        <ele>23.8</ele>
        <time>2019-07-11T09:33:45Z</time>
      </trkpt>
      <trkpt lat="48.818" lon="-3.50904">
        <ele>24</ele>
        <time>2019-07-11T09:33:46Z</time>
      </trkpt>
      <trkpt lat="48.81799" lon="-3.50911">
        <ele>24.3</ele>
        <time>2019-07-11T09:33:47Z</time>
      </trkpt>
      <trkpt lat="48.81799" lon="-3.50917">
        <ele>24.3</ele>
        <time>2019-07-11T09:33:48Z</time>
      </trkpt>
      <trkpt lat="48.81799" lon="-3.50924">
        <ele>23.8</ele>
        <time>2019-07-11T09:33:49Z</time>
      </trkpt>
      <trkpt lat="48.81799" lon="-3.50931">
        <ele>23.9</ele>
        <time>2019-07-11T09:33:50Z</time>
      </trkpt>
      <trkpt lat="48.81798" lon="-3.50938">
        <ele>23.7</ele>
        <time>2019-07-11T09:33:51Z</time>
      </trkpt>
      <trkpt lat="48.81797" lon="-3.50945">
        <ele>23.5</ele>
        <time>2019-07-11T09:33:52Z</time>
      </trkpt>
      <trkpt lat="48.81797" lon="-3.50951">
        <ele>23.3</ele>
        <time>2019-07-11T09:33:53Z</time>
      </trkpt>
      <trkpt lat="48.81796" lon="-3.50958">
        <ele>22.9</ele>
        <time>2019-07-11T09:33:54Z</time>
      </trkpt>
      <trkpt lat="48.81795" lon="-3.50964">
        <ele>22.1</ele>
        <time>2019-07-11T09:33:55Z</time>
      </trkpt>
      <trkpt lat="48.81794" lon="-3.50969">
        <ele>21.5</ele>
        <time>2019-07-11T09:33:56Z</time>
      </trkpt>
      <trkpt lat="48.81794" lon="-3.50975">
        <ele>21</ele>
        <time>2019-07-11T09:33:57Z</time>
      </trkpt>
      <trkpt lat="48.81793" lon="-3.5098">
        <ele>20.8</ele>
        <time>2019-07-11T09:33:58Z</time>
      </trkpt>
      <trkpt lat="48.81792" lon="-3.50986">
        <ele>20.8</ele>
        <time>2019-07-11T09:33:59Z</time>
      </trkpt>
      <trkpt lat="48.81792" lon="-3.50992">
        <ele>20.7</ele>
        <time>2019-07-11T09:34:00Z</time>
      </trkpt>
      <trkpt lat="48.81791" lon="-3.50997">
        <ele>20.9</ele>
        <time>2019-07-11T09:34:01Z</time>
      </trkpt>
      <trkpt lat="48.81791" lon="-3.51003">
        <ele>21.2</ele>
        <time>2019-07-11T09:34:02Z</time>
      </trkpt>
      <trkpt lat="48.81791" lon="-3.51009">
        <ele>21.5</ele>
        <time>2019-07-11T09:34:03Z</time>
      </trkpt>
      <trkpt lat="48.8179" lon="-3.51015">
        <ele>21.8</ele>
        <time>2019-07-11T09:34:04Z</time>
      </trkpt>
      <trkpt lat="48.8179" lon="-3.51021">
        <ele>22.5</ele>
        <time>2019-07-11T09:34:05Z</time>
      </trkpt>
      <trkpt lat="48.81789" lon="-3.51028">
        <ele>22.1</ele>
        <time>2019-07-11T09:34:06Z</time>
      </trkpt>
      <trkpt lat="48.81788" lon="-3.51034">
        <ele>21.5</ele>
        <time>2019-07-11T09:34:07Z</time>
      </trkpt>
      <trkpt lat="48.81787" lon="-3.51041">
        <ele>21.1</ele>
        <time>2019-07-11T09:34:08Z</time>
      </trkpt>
      <trkpt lat="48.81786" lon="-3.51046">
        <ele>20.1</ele>
        <time>2019-07-11T09:34:09Z</time>
      </trkpt>
      <trkpt lat="48.81784" lon="-3.51053">
        <ele>19.6</ele>
        <time>2019-07-11T09:34:10Z</time>
      </trkpt>
      <trkpt lat="48.81783" lon="-3.51059">
        <ele>19.4</ele>
        <time>2019-07-11T09:34:11Z</time>
      </trkpt>
      <trkpt lat="48.81781" lon="-3.51065">
        <ele>19.2</ele>
        <time>2019-07-11T09:34:12Z</time>
      </trkpt>
      <trkpt lat="48.8178" lon="-3.51071">
        <ele>18.8</ele>
        <time>2019-07-11T09:34:13Z</time>
      </trkpt>
      <trkpt lat="48.81778" lon="-3.51076">
        <ele>18</ele>
        <time>2019-07-11T09:34:14Z</time>
      </trkpt>
      <trkpt lat="48.81775" lon="-3.51082">
        <ele>17.5</ele>
        <time>2019-07-11T09:34:15Z</time>
      </trkpt>
      <trkpt lat="48.81773" lon="-3.51088">
        <ele>17.2</ele>
        <time>2019-07-11T09:34:16Z</time>
      </trkpt>
      <trkpt lat="48.8177" lon="-3.51093">
        <ele>16.8</ele>
        <time>2019-07-11T09:34:17Z</time>
      </trkpt>
      <trkpt lat="48.81767" lon="-3.51098">
        <ele>16.3</ele>
        <time>2019-07-11T09:34:18Z</time>
      </trkpt>
      <trkpt lat="48.81764" lon="-3.51102">
        <ele>16</ele>
        <time>2019-07-11T09:34:19Z</time>
      </trkpt>
      <trkpt lat="48.81761" lon="-3.51105">
        <ele>15.5</ele>
        <time>2019-07-11T09:34:20Z</time>
      </trkpt>
      <trkpt lat="48.81758" lon="-3.5111">
        <ele>15.4</ele>
        <time>2019-07-11T09:34:21Z</time>
      </trkpt>
      <trkpt lat="48.81756" lon="-3.51116">
        <ele>15.2</ele>
        <time>2019-07-11T09:34:22Z</time>
      </trkpt>
      <trkpt lat="48.81754" lon="-3.51122">
        <ele>15.1</ele>
        <time>2019-07-11T09:34:23Z</time>
      </trkpt>
      <trkpt lat="48.81752" lon="-3.51128">
        <ele>15.2</ele>
        <time>2019-07-11T09:34:24Z</time>
      </trkpt>
      <trkpt lat="48.81751" lon="-3.51134">
        <ele>15.3</ele>
        <time>2019-07-11T09:34:25Z</time>
      </trkpt>
      <trkpt lat="48.8175" lon="-3.5114">
        <ele>15.4</ele>
        <time>2019-07-11T09:34:26Z</time>
      </trkpt>
      <trkpt lat="48.81749" lon="-3.51147">
        <ele>15.6</ele>
        <time>2019-07-11T09:34:27Z</time>
      </trkpt>
      <trkpt lat="48.81748" lon="-3.51153">
        <ele>15.7</ele>
        <time>2019-07-11T09:34:28Z</time>
      </trkpt>
      <trkpt lat="48.81748" lon="-3.5116">
        <ele>15.8</ele>
        <time>2019-07-11T09:34:29Z</time>
      </trkpt>
      <trkpt lat="48.81747" lon="-3.51166">
        <ele>16</ele>
        <time>2019-07-11T09:34:30Z</time>
      </trkpt>
      <trkpt lat="48.81746" lon="-3.51173">
        <ele>16.1</ele>
        <time>2019-07-11T09:34:31Z</time>
      </trkpt>
      <trkpt lat="48.81746" lon="-3.51179">
        <ele>16.2</ele>
        <time>2019-07-11T09:34:32Z</time>
      </trkpt>
      <trkpt lat="48.81746" lon="-3.51185">
        <ele>16.3</ele>
        <time>2019-07-11T09:34:33Z</time>
      </trkpt>
      <trkpt lat="48.81746" lon="-3.51192">
        <ele>16.3</ele>
        <time>2019-07-11T09:34:34Z</time>
      </trkpt>
      <trkpt lat="48.81746" lon="-3.51198">
        <ele>16.3</ele>
        <time>2019-07-11T09:34:35Z</time>
      </trkpt>
      <trkpt lat="48.81746" lon="-3.51205">
        <ele>16.6</ele>
        <time>2019-07-11T09:34:36Z</time>
      </trkpt>
      <trkpt lat="48.81747" lon="-3.51212">
        <ele>16.9</ele>
        <time>2019-07-11T09:34:37Z</time>
      </trkpt>
      <trkpt lat="48.81747" lon="-3.51219">
        <ele>17.2</ele>
        <time>2019-07-11T09:34:38Z</time>
      </trkpt>
      <trkpt lat="48.81747" lon="-3.51225">
        <ele>17.5</ele>
        <time>2019-07-11T09:34:39Z</time>
      </trkpt>
      <trkpt lat="48.81747" lon="-3.51231">
        <ele>18</ele>
        <time>2019-07-11T09:34:40Z</time>
      </trkpt>
      <trkpt lat="48.81747" lon="-3.51237">
        <ele>18.2</ele>
        <time>2019-07-11T09:34:41Z</time>
      </trkpt>
      <trkpt lat="48.81748" lon="-3.51243">
        <ele>18.6</ele>
        <time>2019-07-11T09:34:42Z</time>
      </trkpt>
      <trkpt lat="48.81746" lon="-3.5125">
        <ele>19.4</ele>
        <time>2019-07-11T09:34:43Z</time>
      </trkpt>
      <trkpt lat="48.81746" lon="-3.51256">
        <ele>20.1</ele>
        <time>2019-07-11T09:34:44Z</time>
      </trkpt>
      <trkpt lat="48.81746" lon="-3.51262">
        <ele>20.5</ele>
        <time>2019-07-11T09:34:45Z</time>
      </trkpt>
      <trkpt lat="48.81745" lon="-3.51268">
        <ele>21.7</ele>
        <time>2019-07-11T09:34:46Z</time>
      </trkpt>
      <trkpt lat="48.81744" lon="-3.51275">
        <ele>22.2</ele>
        <time>2019-07-11T09:34:47Z</time>
      </trkpt>
      <trkpt lat="48.81744" lon="-3.51281">
        <ele>22.7</ele>
        <time>2019-07-11T09:34:48Z</time>
      </trkpt>
      <trkpt lat="48.81744" lon="-3.51288">
        <ele>23</ele>
        <time>2019-07-11T09:34:49Z</time>
      </trkpt>
      <trkpt lat="48.81744" lon="-3.51294">
        <ele>23.2</ele>
        <time>2019-07-11T09:34:50Z</time>
      </trkpt>
      <trkpt lat="48.81744" lon="-3.51302">
        <ele>23</ele>
        <time>2019-07-11T09:34:51Z</time>
      </trkpt>
      <trkpt lat="48.81743" lon="-3.51309">
        <ele>23</ele>
        <time>2019-07-11T09:34:52Z</time>
      </trkpt>
      <trkpt lat="48.81742" lon="-3.51315">
        <ele>23.2</ele>
        <time>2019-07-11T09:34:53Z</time>
      </trkpt>
      <trkpt lat="48.81741" lon="-3.51322">
        <ele>23.4</ele>
        <time>2019-07-11T09:34:54Z</time>
      </trkpt>
      <trkpt lat="48.81743" lon="-3.51328">
        <ele>24.1</ele>
        <time>2019-07-11T09:34:55Z</time>
      </trkpt>
      <trkpt lat="48.81741" lon="-3.51334">
        <ele>24.3</ele>
        <time>2019-07-11T09:34:56Z</time>
      </trkpt>
      <trkpt lat="48.8174" lon="-3.5134">
        <ele>24.5</ele>
        <time>2019-07-11T09:34:57Z</time>
      </trkpt>
      <trkpt lat="48.81738" lon="-3.51347">
        <ele>24.7</ele>
        <time>2019-07-11T09:34:58Z</time>
      </trkpt>
      <trkpt lat="48.81737" lon="-3.51353">
        <ele>24.8</ele>
        <time>2019-07-11T09:34:59Z</time>
      </trkpt>
      <trkpt lat="48.81736" lon="-3.51359">
        <ele>25.1</ele>
        <time>2019-07-11T09:35:00Z</time>
      </trkpt>
      <trkpt lat="48.81735" lon="-3.51364">
        <ele>25.2</ele>
        <time>2019-07-11T09:35:01Z</time>
      </trkpt>
      <trkpt lat="48.81734" lon="-3.5137">
        <ele>25.3</ele>
        <time>2019-07-11T09:35:02Z</time>
      </trkpt>
      <trkpt lat="48.81733" lon="-3.51376">
        <ele>25.4</ele>
        <time>2019-07-11T09:35:03Z</time>
      </trkpt>
      <trkpt lat="48.81732" lon="-3.51383">
        <ele>25.5</ele>
        <time>2019-07-11T09:35:04Z</time>
      </trkpt>
      <trkpt lat="48.81732" lon="-3.5139">
        <ele>25.8</ele>
        <time>2019-07-11T09:35:05Z</time>
      </trkpt>
      <trkpt lat="48.81731" lon="-3.51396">
        <ele>25.9</ele>
        <time>2019-07-11T09:35:06Z</time>
      </trkpt>
      <trkpt lat="48.81731" lon="-3.51403">
        <ele>26.2</ele>
        <time>2019-07-11T09:35:07Z</time>
      </trkpt>
      <trkpt lat="48.8173" lon="-3.51409">
        <ele>26.4</ele>
        <time>2019-07-11T09:35:08Z</time>
      </trkpt>
      <trkpt lat="48.8173" lon="-3.51416">
        <ele>26.5</ele>
        <time>2019-07-11T09:35:09Z</time>
      </trkpt>
      <trkpt lat="48.81729" lon="-3.51421">
        <ele>27</ele>
        <time>2019-07-11T09:35:10Z</time>
      </trkpt>
      <trkpt lat="48.81728" lon="-3.51428">
        <ele>27.2</ele>
        <time>2019-07-11T09:35:11Z</time>
      </trkpt>
      <trkpt lat="48.8173" lon="-3.51435">
        <ele>26.6</ele>
        <time>2019-07-11T09:35:12Z</time>
      </trkpt>
      <trkpt lat="48.8173" lon="-3.51441">
        <ele>26.7</ele>
        <time>2019-07-11T09:35:13Z</time>
      </trkpt>
      <trkpt lat="48.81729" lon="-3.51448">
        <ele>27</ele>
        <time>2019-07-11T09:35:14Z</time>
      </trkpt>
      <trkpt lat="48.81727" lon="-3.51454">
        <ele>27.5</ele>
        <time>2019-07-11T09:35:15Z</time>
      </trkpt>
      <trkpt lat="48.81727" lon="-3.5146">
        <ele>27.8</ele>
        <time>2019-07-11T09:35:16Z</time>
      </trkpt>
      <trkpt lat="48.81727" lon="-3.51465">
        <ele>28</ele>
        <time>2019-07-11T09:35:17Z</time>
      </trkpt>
      <trkpt lat="48.81727" lon="-3.51472">
        <ele>28.4</ele>
        <time>2019-07-11T09:35:18Z</time>
      </trkpt>
      <trkpt lat="48.81726" lon="-3.51479">
        <ele>30.3</ele>
        <time>2019-07-11T09:35:19Z</time>
      </trkpt>
      <trkpt lat="48.81727" lon="-3.51485">
        <ele>31</ele>
        <time>2019-07-11T09:35:20Z</time>
      </trkpt>
      <trkpt lat="48.81726" lon="-3.51489">
        <ele>31.2</ele>
        <time>2019-07-11T09:35:21Z</time>
      </trkpt>
      <trkpt lat="48.81725" lon="-3.51492">
        <ele>31</ele>
        <time>2019-07-11T09:35:22Z</time>
      </trkpt>
      <trkpt lat="48.81722" lon="-3.51495">
        <ele>30.5</ele>
        <time>2019-07-11T09:35:23Z</time>
      </trkpt>
      <trkpt lat="48.81718" lon="-3.51498">
        <ele>30.2</ele>
        <time>2019-07-11T09:35:24Z</time>
      </trkpt>
      <trkpt lat="48.81716" lon="-3.51501">
        <ele>29.2</ele>
        <time>2019-07-11T09:35:25Z</time>
      </trkpt>
      <trkpt lat="48.81713" lon="-3.51504">
        <ele>28.3</ele>
        <time>2019-07-11T09:35:26Z</time>
      </trkpt>
      <trkpt lat="48.8171" lon="-3.51507">
        <ele>27</ele>
        <time>2019-07-11T09:35:27Z</time>
      </trkpt>
      <trkpt lat="48.81707" lon="-3.51511">
        <ele>25.3</ele>
        <time>2019-07-11T09:35:28Z</time>
      </trkpt>
      <trkpt lat="48.81704" lon="-3.51514">
        <ele>24.4</ele>
        <time>2019-07-11T09:35:29Z</time>
      </trkpt>
      <trkpt lat="48.81701" lon="-3.51517">
        <ele>23.9</ele>
        <time>2019-07-11T09:35:30Z</time>
      </trkpt>
      <trkpt lat="48.81698" lon="-3.51521">
        <ele>23.8</ele>
        <time>2019-07-11T09:35:31Z</time>
      </trkpt>
      <trkpt lat="48.81694" lon="-3.51524">
        <ele>23</ele>
        <time>2019-07-11T09:35:32Z</time>
      </trkpt>
      <trkpt lat="48.81691" lon="-3.51527">
        <ele>22.7</ele>
        <time>2019-07-11T09:35:33Z</time>
      </trkpt>
      <trkpt lat="48.81687" lon="-3.5153">
        <ele>22.1</ele>
        <time>2019-07-11T09:35:34Z</time>
      </trkpt>
      <trkpt lat="48.81684" lon="-3.51532">
        <ele>21.4</ele>
        <time>2019-07-11T09:35:35Z</time>
      </trkpt>
      <trkpt lat="48.8168" lon="-3.51536">
        <ele>21.1</ele>
        <time>2019-07-11T09:35:36Z</time>
      </trkpt>
      <trkpt lat="48.81676" lon="-3.51539">
        <ele>20.5</ele>
        <time>2019-07-11T09:35:37Z</time>
      </trkpt>
      <trkpt lat="48.81673" lon="-3.51542">
        <ele>20.1</ele>
        <time>2019-07-11T09:35:38Z</time>
      </trkpt>
      <trkpt lat="48.81669" lon="-3.51546">
        <ele>19.7</ele>
        <time>2019-07-11T09:35:39Z</time>
      </trkpt>
      <trkpt lat="48.81665" lon="-3.51549">
        <ele>19.2</ele>
        <time>2019-07-11T09:35:40Z</time>
      </trkpt>
      <trkpt lat="48.81661" lon="-3.51554">
        <ele>18.3</ele>
        <time>2019-07-11T09:35:41Z</time>
      </trkpt>
      <trkpt lat="48.81657" lon="-3.51557">
        <ele>17.4</ele>
        <time>2019-07-11T09:35:42Z</time>
      </trkpt>
      <trkpt lat="48.81653" lon="-3.51561">
        <ele>16.6</ele>
        <time>2019-07-11T09:35:43Z</time>
      </trkpt>
      <trkpt lat="48.81648" lon="-3.51564">
        <ele>15.4</ele>
        <time>2019-07-11T09:35:44Z</time>
      </trkpt>
      <trkpt lat="48.81644" lon="-3.51565">
        <ele>15</ele>
        <time>2019-07-11T09:35:45Z</time>
      </trkpt>
      <trkpt lat="48.8164" lon="-3.51567">
        <ele>14.8</ele>
        <time>2019-07-11T09:35:46Z</time>
      </trkpt>
      <trkpt lat="48.81636" lon="-3.51569">
        <ele>14.7</ele>
        <time>2019-07-11T09:35:47Z</time>
      </trkpt>
      <trkpt lat="48.81632" lon="-3.5157">
        <ele>14.2</ele>
        <time>2019-07-11T09:35:48Z</time>
      </trkpt>
      <trkpt lat="48.81628" lon="-3.51572">
        <ele>13.6</ele>
        <time>2019-07-11T09:35:49Z</time>
      </trkpt>
      <trkpt lat="48.81624" lon="-3.51573">
        <ele>13</ele>
        <time>2019-07-11T09:35:50Z</time>
      </trkpt>
      <trkpt lat="48.81619" lon="-3.51575">
        <ele>12.6</ele>
        <time>2019-07-11T09:35:51Z</time>
      </trkpt>
      <trkpt lat="48.81614" lon="-3.51577">
        <ele>12.1</ele>
        <time>2019-07-11T09:35:52Z</time>
      </trkpt>
      <trkpt lat="48.8161" lon="-3.51579">
        <ele>11.7</ele>
        <time>2019-07-11T09:35:53Z</time>
      </trkpt>
      <trkpt lat="48.81606" lon="-3.51581">
        <ele>11.4</ele>
        <time>2019-07-11T09:35:54Z</time>
      </trkpt>
      <trkpt lat="48.81603" lon="-3.51583">
        <ele>11</ele>
        <time>2019-07-11T09:35:55Z</time>
      </trkpt>
      <trkpt lat="48.81599" lon="-3.51585">
        <ele>10.9</ele>
        <time>2019-07-11T09:35:56Z</time>
      </trkpt>
      <trkpt lat="48.81595" lon="-3.51587">
        <ele>10.8</ele>
        <time>2019-07-11T09:35:57Z</time>
      </trkpt>
      <trkpt lat="48.81591" lon="-3.51589">
        <ele>10.9</ele>
        <time>2019-07-11T09:35:58Z</time>
      </trkpt>
      <trkpt lat="48.81588" lon="-3.51591">
        <ele>11</ele>
        <time>2019-07-11T09:35:59Z</time>
      </trkpt>
      <trkpt lat="48.81584" lon="-3.51593">
        <ele>11</ele>
        <time>2019-07-11T09:36:00Z</time>
      </trkpt>
      <trkpt lat="48.8158" lon="-3.51596">
        <ele>11.1</ele>
        <time>2019-07-11T09:36:01Z</time>
      </trkpt>
      <trkpt lat="48.81576" lon="-3.51598">
        <ele>11.1</ele>
        <time>2019-07-11T09:36:02Z</time>
      </trkpt>
      <trkpt lat="48.81572" lon="-3.516">
        <ele>11.3</ele>
        <time>2019-07-11T09:36:03Z</time>
      </trkpt>
      <trkpt lat="48.8157" lon="-3.51603">
        <ele>11.4</ele>
        <time>2019-07-11T09:36:04Z</time>
      </trkpt>
      <trkpt lat="48.81566" lon="-3.51606">
        <ele>11.5</ele>
        <time>2019-07-11T09:36:05Z</time>
      </trkpt>
      <trkpt lat="48.81563" lon="-3.51609">
        <ele>11.5</ele>
        <time>2019-07-11T09:36:06Z</time>
      </trkpt>
      <trkpt lat="48.8156" lon="-3.51612">
        <ele>11.2</ele>
        <time>2019-07-11T09:36:07Z</time>
      </trkpt>
      <trkpt lat="48.81558" lon="-3.51615">
        <ele>11.6</ele>
        <time>2019-07-11T09:36:08Z</time>
      </trkpt>
      <trkpt lat="48.81556" lon="-3.51617">
        <ele>12</ele>
        <time>2019-07-11T09:36:09Z</time>
      </trkpt>
      <trkpt lat="48.81553" lon="-3.51621">
        <ele>12.2</ele>
        <time>2019-07-11T09:36:10Z</time>
      </trkpt>
      <trkpt lat="48.81552" lon="-3.51624">
        <ele>12.3</ele>
        <time>2019-07-11T09:36:11Z</time>
      </trkpt>
      <trkpt lat="48.8155" lon="-3.51627">
        <ele>11.9</ele>
        <time>2019-07-11T09:36:12Z</time>
      </trkpt>
      <trkpt lat="48.81546" lon="-3.5163">
        <ele>11.5</ele>
        <time>2019-07-11T09:36:13Z</time>
      </trkpt>
      <trkpt lat="48.81542" lon="-3.51634">
        <ele>11.6</ele>
        <time>2019-07-11T09:36:14Z</time>
      </trkpt>
      <trkpt lat="48.81539" lon="-3.51637">
        <ele>11.8</ele>
        <time>2019-07-11T09:36:15Z</time>
      </trkpt>
      <trkpt lat="48.81537" lon="-3.5164">
        <ele>12</ele>
        <time>2019-07-11T09:36:16Z</time>
      </trkpt>
      <trkpt lat="48.81533" lon="-3.51644">
        <ele>12.5</ele>
        <time>2019-07-11T09:36:17Z</time>
      </trkpt>
      <trkpt lat="48.8153" lon="-3.51647">
        <ele>12.6</ele>
        <time>2019-07-11T09:36:18Z</time>
      </trkpt>
      <trkpt lat="48.81527" lon="-3.51651">
        <ele>12.9</ele>
        <time>2019-07-11T09:36:19Z</time>
      </trkpt>
      <trkpt lat="48.81525" lon="-3.51654">
        <ele>13.1</ele>
        <time>2019-07-11T09:36:20Z</time>
      </trkpt>
      <trkpt lat="48.81523" lon="-3.51658">
        <ele>13.1</ele>
        <time>2019-07-11T09:36:21Z</time>
      </trkpt>
      <trkpt lat="48.8152" lon="-3.51662">
        <ele>13</ele>
        <time>2019-07-11T09:36:22Z</time>
      </trkpt>
      <trkpt lat="48.81517" lon="-3.51665">
        <ele>13</ele>
        <time>2019-07-11T09:36:23Z</time>
      </trkpt>
      <trkpt lat="48.81515" lon="-3.51669">
        <ele>13.1</ele>
        <time>2019-07-11T09:36:24Z</time>
      </trkpt>
      <trkpt lat="48.81512" lon="-3.51672">
        <ele>13.2</ele>
        <time>2019-07-11T09:36:25Z</time>
      </trkpt>
      <trkpt lat="48.81509" lon="-3.51676">
        <ele>13</ele>
        <time>2019-07-11T09:36:26Z</time>
      </trkpt>
      <trkpt lat="48.81507" lon="-3.5168">
        <ele>12.9</ele>
        <time>2019-07-11T09:36:27Z</time>
      </trkpt>
      <trkpt lat="48.81505" lon="-3.51685">
        <ele>13.2</ele>
        <time>2019-07-11T09:36:28Z</time>
      </trkpt>
      <trkpt lat="48.81502" lon="-3.51689">
        <ele>12.8</ele>
        <time>2019-07-11T09:36:29Z</time>
      </trkpt>
      <trkpt lat="48.81499" lon="-3.51692">
        <ele>12.8</ele>
        <time>2019-07-11T09:36:30Z</time>
      </trkpt>
      <trkpt lat="48.81496" lon="-3.51695">
        <ele>13</ele>
        <time>2019-07-11T09:36:31Z</time>
      </trkpt>
      <trkpt lat="48.81495" lon="-3.51699">
        <ele>13.7</ele>
        <time>2019-07-11T09:36:32Z</time>
      </trkpt>
      <trkpt lat="48.81492" lon="-3.51702">
        <ele>13.9</ele>
        <time>2019-07-11T09:36:33Z</time>
      </trkpt>
      <trkpt lat="48.81489" lon="-3.51706">
        <ele>14</ele>
        <time>2019-07-11T09:36:34Z</time>
      </trkpt>
      <trkpt lat="48.81487" lon="-3.51709">
        <ele>14.1</ele>
        <time>2019-07-11T09:36:35Z</time>
      </trkpt>
      <trkpt lat="48.81483" lon="-3.51712">
        <ele>14.2</ele>
        <time>2019-07-11T09:36:36Z</time>
      </trkpt>
      <trkpt lat="48.8148" lon="-3.51715">
        <ele>14.2</ele>
        <time>2019-07-11T09:36:37Z</time>
      </trkpt>
      <trkpt lat="48.81479" lon="-3.51719">
        <ele>14.6</ele>
        <time>2019-07-11T09:36:38Z</time>
      </trkpt>
      <trkpt lat="48.81477" lon="-3.51723">
        <ele>15.3</ele>
        <time>2019-07-11T09:36:39Z</time>
      </trkpt>
      <trkpt lat="48.81475" lon="-3.51727">
        <ele>15.3</ele>
        <time>2019-07-11T09:36:40Z</time>
      </trkpt>
      <trkpt lat="48.81473" lon="-3.5173">
        <ele>15.5</ele>
        <time>2019-07-11T09:36:41Z</time>
      </trkpt>
      <trkpt lat="48.8147" lon="-3.51734">
        <ele>15.7</ele>
        <time>2019-07-11T09:36:42Z</time>
      </trkpt>
      <trkpt lat="48.81468" lon="-3.51739">
        <ele>15.9</ele>
        <time>2019-07-11T09:36:43Z</time>
      </trkpt>
      <trkpt lat="48.81465" lon="-3.51743">
        <ele>16.2</ele>
        <time>2019-07-11T09:36:44Z</time>
      </trkpt>
      <trkpt lat="48.81463" lon="-3.51746">
        <ele>16.6</ele>
        <time>2019-07-11T09:36:45Z</time>
      </trkpt>
      <trkpt lat="48.8146" lon="-3.51751">
        <ele>16.7</ele>
        <time>2019-07-11T09:36:46Z</time>
      </trkpt>
      <trkpt lat="48.81457" lon="-3.51754">
        <ele>16.9</ele>
        <time>2019-07-11T09:36:47Z</time>
      </trkpt>
      <trkpt lat="48.81454" lon="-3.51757">
        <ele>17</ele>
        <time>2019-07-11T09:36:48Z</time>
      </trkpt>
      <trkpt lat="48.81451" lon="-3.51761">
        <ele>17</ele>
        <time>2019-07-11T09:36:49Z</time>
      </trkpt>
      <trkpt lat="48.81448" lon="-3.51765">
        <ele>17.3</ele>
        <time>2019-07-11T09:36:50Z</time>
      </trkpt>
      <trkpt lat="48.81446" lon="-3.51769">
        <ele>17.7</ele>
        <time>2019-07-11T09:36:51Z</time>
      </trkpt>
      <trkpt lat="48.81444" lon="-3.51772">
        <ele>17.9</ele>
        <time>2019-07-11T09:36:52Z</time>
      </trkpt>
      <trkpt lat="48.81442" lon="-3.51776">
        <ele>18.1</ele>
        <time>2019-07-11T09:36:53Z</time>
      </trkpt>
      <trkpt lat="48.81439" lon="-3.51779">
        <ele>18.4</ele>
        <time>2019-07-11T09:36:54Z</time>
      </trkpt>
      <trkpt lat="48.81437" lon="-3.51783">
        <ele>18.5</ele>
        <time>2019-07-11T09:36:55Z</time>
      </trkpt>
      <trkpt lat="48.81434" lon="-3.51787">
        <ele>18.6</ele>
        <time>2019-07-11T09:36:56Z</time>
      </trkpt>
      <trkpt lat="48.81432" lon="-3.51792">
        <ele>19.1</ele>
        <time>2019-07-11T09:36:57Z</time>
      </trkpt>
      <trkpt lat="48.8143" lon="-3.51796">
        <ele>19.3</ele>
        <time>2019-07-11T09:36:58Z</time>
      </trkpt>
      <trkpt lat="48.81428" lon="-3.518">
        <ele>19.2</ele>
        <time>2019-07-11T09:36:59Z</time>
      </trkpt>
      <trkpt lat="48.81425" lon="-3.51803">
        <ele>19</ele>
        <time>2019-07-11T09:37:00Z</time>
      </trkpt>
      <trkpt lat="48.81422" lon="-3.51806">
        <ele>18.9</ele>
        <time>2019-07-11T09:37:01Z</time>
      </trkpt>
      <trkpt lat="48.81419" lon="-3.51809">
        <ele>18.9</ele>
        <time>2019-07-11T09:37:02Z</time>
      </trkpt>
      <trkpt lat="48.81416" lon="-3.51812">
        <ele>19.2</ele>
        <time>2019-07-11T09:37:03Z</time>
      </trkpt>
      <trkpt lat="48.81414" lon="-3.51815">
        <ele>19.7</ele>
        <time>2019-07-11T09:37:04Z</time>
      </trkpt>
      <trkpt lat="48.81412" lon="-3.51818">
        <ele>20.1</ele>
        <time>2019-07-11T09:37:05Z</time>
      </trkpt>
      <trkpt lat="48.8141" lon="-3.51821">
        <ele>20.5</ele>
        <time>2019-07-11T09:37:06Z</time>
      </trkpt>
      <trkpt lat="48.81407" lon="-3.51824">
        <ele>20.7</ele>
        <time>2019-07-11T09:37:07Z</time>
      </trkpt>
      <trkpt lat="48.81405" lon="-3.51827">
        <ele>20.7</ele>
        <time>2019-07-11T09:37:08Z</time>
      </trkpt>
      <trkpt lat="48.81401" lon="-3.51829">
        <ele>20.7</ele>
        <time>2019-07-11T09:37:09Z</time>
      </trkpt>
      <trkpt lat="48.81399" lon="-3.51832">
        <ele>20.6</ele>
        <time>2019-07-11T09:37:10Z</time>
      </trkpt>
      <trkpt lat="48.81396" lon="-3.51834">
        <ele>20.7</ele>
        <time>2019-07-11T09:37:11Z</time>
      </trkpt>
      <trkpt lat="48.81393" lon="-3.51836">
        <ele>20.7</ele>
        <time>2019-07-11T09:37:12Z</time>
      </trkpt>
      <trkpt lat="48.81391" lon="-3.51839">
        <ele>20.4</ele>
        <time>2019-07-11T09:37:13Z</time>
      </trkpt>
      <trkpt lat="48.81388" lon="-3.51841">
        <ele>20.1</ele>
        <time>2019-07-11T09:37:14Z</time>
      </trkpt>
      <trkpt lat="48.81385" lon="-3.51843">
        <ele>19.6</ele>
        <time>2019-07-11T09:37:15Z</time>
      </trkpt>
      <trkpt lat="48.81383" lon="-3.51846">
        <ele>18.8</ele>
        <time>2019-07-11T09:37:16Z</time>
      </trkpt>
      <trkpt lat="48.8138" lon="-3.51848">
        <ele>18.4</ele>
        <time>2019-07-11T09:37:17Z</time>
      </trkpt>
      <trkpt lat="48.81377" lon="-3.5185">
        <ele>18.4</ele>
        <time>2019-07-11T09:37:18Z</time>
      </trkpt>
      <trkpt lat="48.81374" lon="-3.51852">
        <ele>18.2</ele>
        <time>2019-07-11T09:37:19Z</time>
      </trkpt>
      <trkpt lat="48.81371" lon="-3.51854">
        <ele>17.8</ele>
        <time>2019-07-11T09:37:20Z</time>
      </trkpt>
      <trkpt lat="48.81368" lon="-3.51857">
        <ele>17.5</ele>
        <time>2019-07-11T09:37:21Z</time>
      </trkpt>
      <trkpt lat="48.81365" lon="-3.51859">
        <ele>17.7</ele>
        <time>2019-07-11T09:37:22Z</time>
      </trkpt>
      <trkpt lat="48.81363" lon="-3.51861">
        <ele>18.2</ele>
        <time>2019-07-11T09:37:23Z</time>
      </trkpt>
      <trkpt lat="48.8136" lon="-3.51863">
        <ele>18.4</ele>
        <time>2019-07-11T09:37:24Z</time>
      </trkpt>
      <trkpt lat="48.81358" lon="-3.51865">
        <ele>18.5</ele>
        <time>2019-07-11T09:37:25Z</time>
      </trkpt>
      <trkpt lat="48.81355" lon="-3.51867">
        <ele>18.6</ele>
        <time>2019-07-11T09:37:26Z</time>
      </trkpt>
      <trkpt lat="48.81353" lon="-3.51869">
        <ele>18.7</ele>
        <time>2019-07-11T09:37:27Z</time>
      </trkpt>
      <trkpt lat="48.8135" lon="-3.51871">
        <ele>18.5</ele>
        <time>2019-07-11T09:37:28Z</time>
      </trkpt>
      <trkpt lat="48.81347" lon="-3.51873">
        <ele>18.4</ele>
        <time>2019-07-11T09:37:29Z</time>
      </trkpt>
      <trkpt lat="48.81344" lon="-3.51874">
        <ele>17.7</ele>
        <time>2019-07-11T09:37:30Z</time>
      </trkpt>
      <trkpt lat="48.81341" lon="-3.51875">
        <ele>17.3</ele>
        <time>2019-07-11T09:37:31Z</time>
      </trkpt>
      <trkpt lat="48.81339" lon="-3.51877">
        <ele>17.1</ele>
        <time>2019-07-11T09:37:32Z</time>
      </trkpt>
      <trkpt lat="48.81336" lon="-3.51879">
        <ele>16.8</ele>
        <time>2019-07-11T09:37:33Z</time>
      </trkpt>
      <trkpt lat="48.81334" lon="-3.51881">
        <ele>16.2</ele>
        <time>2019-07-11T09:37:34Z</time>
      </trkpt>
      <trkpt lat="48.81331" lon="-3.51883">
        <ele>16.1</ele>
        <time>2019-07-11T09:37:35Z</time>
      </trkpt>
      <trkpt lat="48.81328" lon="-3.51884">
        <ele>16</ele>
        <time>2019-07-11T09:37:36Z</time>
      </trkpt>
      <trkpt lat="48.81324" lon="-3.51886">
        <ele>16.2</ele>
        <time>2019-07-11T09:37:37Z</time>
      </trkpt>
      <trkpt lat="48.81321" lon="-3.51888">
        <ele>16.1</ele>
        <time>2019-07-11T09:37:38Z</time>
      </trkpt>
      <trkpt lat="48.81318" lon="-3.5189">
        <ele>15.9</ele>
        <time>2019-07-11T09:37:39Z</time>
      </trkpt>
      <trkpt lat="48.81316" lon="-3.51891">
        <ele>16</ele>
        <time>2019-07-11T09:37:40Z</time>
      </trkpt>
      <trkpt lat="48.81313" lon="-3.51892">
        <ele>15.7</ele>
        <time>2019-07-11T09:37:41Z</time>
      </trkpt>
      <trkpt lat="48.8131" lon="-3.51894">
        <ele>15.5</ele>
        <time>2019-07-11T09:37:42Z</time>
      </trkpt>
      <trkpt lat="48.81307" lon="-3.51895">
        <ele>15.2</ele>
        <time>2019-07-11T09:37:43Z</time>
      </trkpt>
      <trkpt lat="48.81304" lon="-3.51897">
        <ele>15.3</ele>
        <time>2019-07-11T09:37:44Z</time>
      </trkpt>
      <trkpt lat="48.81301" lon="-3.51898">
        <ele>14.9</ele>
        <time>2019-07-11T09:37:45Z</time>
      </trkpt>
      <trkpt lat="48.81298" lon="-3.51898">
        <ele>15</ele>
        <time>2019-07-11T09:37:46Z</time>
      </trkpt>
      <trkpt lat="48.81295" lon="-3.51899">
        <ele>15.3</ele>
        <time>2019-07-11T09:37:47Z</time>
      </trkpt>
      <trkpt lat="48.81292" lon="-3.519">
        <ele>15.7</ele>
        <time>2019-07-11T09:37:48Z</time>
      </trkpt>
      <trkpt lat="48.81289" lon="-3.51901">
        <ele>16</ele>
        <time>2019-07-11T09:37:49Z</time>
      </trkpt>
      <trkpt lat="48.81286" lon="-3.51902">
        <ele>16</ele>
        <time>2019-07-11T09:37:50Z</time>
      </trkpt>
      <trkpt lat="48.81283" lon="-3.51903">
        <ele>15.9</ele>
        <time>2019-07-11T09:37:51Z</time>
      </trkpt>
      <trkpt lat="48.81281" lon="-3.51904">
        <ele>16</ele>
        <time>2019-07-11T09:37:52Z</time>
      </trkpt>
      <trkpt lat="48.81278" lon="-3.51904">
        <ele>16.3</ele>
        <time>2019-07-11T09:37:53Z</time>
      </trkpt>
      <trkpt lat="48.81275" lon="-3.51905">
        <ele>16.6</ele>
        <time>2019-07-11T09:37:54Z</time>
      </trkpt>
      <trkpt lat="48.81273" lon="-3.51906">
        <ele>16.7</ele>
        <time>2019-07-11T09:37:55Z</time>
      </trkpt>
      <trkpt lat="48.8127" lon="-3.51907">
        <ele>16.9</ele>
        <time>2019-07-11T09:37:56Z</time>
      </trkpt>
      <trkpt lat="48.81268" lon="-3.51908">
        <ele>17.3</ele>
        <time>2019-07-11T09:37:57Z</time>
      </trkpt>
      <trkpt lat="48.81266" lon="-3.51909">
        <ele>17.6</ele>
        <time>2019-07-11T09:37:58Z</time>
      </trkpt>
      <trkpt lat="48.81263" lon="-3.5191">
        <ele>17.8</ele>
        <time>2019-07-11T09:37:59Z</time>
      </trkpt>
      <trkpt lat="48.81261" lon="-3.51911">
        <ele>18</ele>
        <time>2019-07-11T09:38:00Z</time>
      </trkpt>
      <trkpt lat="48.81258" lon="-3.51912">
        <ele>18.2</ele>
        <time>2019-07-11T09:38:01Z</time>
      </trkpt>
      <trkpt lat="48.81256" lon="-3.51913">
        <ele>18.5</ele>
        <time>2019-07-11T09:38:02Z</time>
      </trkpt>
      <trkpt lat="48.81253" lon="-3.51914">
        <ele>18.4</ele>
        <time>2019-07-11T09:38:03Z</time>
      </trkpt>
      <trkpt lat="48.8125" lon="-3.51915">
        <ele>18.1</ele>
        <time>2019-07-11T09:38:04Z</time>
      </trkpt>
      <trkpt lat="48.81247" lon="-3.51916">
        <ele>17.9</ele>
        <time>2019-07-11T09:38:05Z</time>
      </trkpt>
      <trkpt lat="48.81245" lon="-3.51916">
        <ele>17.9</ele>
        <time>2019-07-11T09:38:06Z</time>
      </trkpt>
      <trkpt lat="48.81242" lon="-3.51917">
        <ele>18.2</ele>
        <time>2019-07-11T09:38:07Z</time>
      </trkpt>
      <trkpt lat="48.8124" lon="-3.51918">
        <ele>18.6</ele>
        <time>2019-07-11T09:38:08Z</time>
      </trkpt>
      <trkpt lat="48.81237" lon="-3.51919">
        <ele>18.9</ele>
        <time>2019-07-11T09:38:09Z</time>
      </trkpt>
      <trkpt lat="48.81235" lon="-3.5192">
        <ele>19.3</ele>
        <time>2019-07-11T09:38:10Z</time>
      </trkpt>
      <trkpt lat="48.81232" lon="-3.51921">
        <ele>19.5</ele>
        <time>2019-07-11T09:38:11Z</time>
      </trkpt>
      <trkpt lat="48.81229" lon="-3.51922">
        <ele>19.9</ele>
        <time>2019-07-11T09:38:12Z</time>
      </trkpt>
      <trkpt lat="48.81227" lon="-3.51923">
        <ele>20.2</ele>
        <time>2019-07-11T09:38:13Z</time>
      </trkpt>
      <trkpt lat="48.81224" lon="-3.51924">
        <ele>20.5</ele>
        <time>2019-07-11T09:38:14Z</time>
      </trkpt>
      <trkpt lat="48.81222" lon="-3.51926">
        <ele>20.8</ele>
        <time>2019-07-11T09:38:15Z</time>
      </trkpt>
      <trkpt lat="48.81219" lon="-3.51926">
        <ele>21.1</ele>
        <time>2019-07-11T09:38:16Z</time>
      </trkpt>
      <trkpt lat="48.81216" lon="-3.51927">
        <ele>21.6</ele>
        <time>2019-07-11T09:38:17Z</time>
      </trkpt>
      <trkpt lat="48.81214" lon="-3.51928">
        <ele>22</ele>
        <time>2019-07-11T09:38:18Z</time>
      </trkpt>
      <trkpt lat="48.81212" lon="-3.5193">
        <ele>22.3</ele>
        <time>2019-07-11T09:38:19Z</time>
      </trkpt>
      <trkpt lat="48.81209" lon="-3.51931">
        <ele>22.5</ele>
        <time>2019-07-11T09:38:20Z</time>
      </trkpt>
      <trkpt lat="48.81207" lon="-3.51934">
        <ele>22.4</ele>
        <time>2019-07-11T09:38:21Z</time>
      </trkpt>
      <trkpt lat="48.81204" lon="-3.51936">
        <ele>21.9</ele>
        <time>2019-07-11T09:38:22Z</time>
      </trkpt>
      <trkpt lat="48.81202" lon="-3.51937">
        <ele>21.9</ele>
        <time>2019-07-11T09:38:23Z</time>
      </trkpt>
      <trkpt lat="48.81199" lon="-3.51938">
        <ele>21.8</ele>
        <time>2019-07-11T09:38:24Z</time>
      </trkpt>
      <trkpt lat="48.81197" lon="-3.51939">
        <ele>21.8</ele>
        <time>2019-07-11T09:38:25Z</time>
      </trkpt>
      <trkpt lat="48.81195" lon="-3.5194">
        <ele>21.8</ele>
        <time>2019-07-11T09:38:26Z</time>
      </trkpt>
      <trkpt lat="48.81193" lon="-3.51941">
        <ele>22.2</ele>
        <time>2019-07-11T09:38:27Z</time>
      </trkpt>
      <trkpt lat="48.81191" lon="-3.51943">
        <ele>22.3</ele>
        <time>2019-07-11T09:38:28Z</time>
      </trkpt>
      <trkpt lat="48.81189" lon="-3.51944">
        <ele>22.5</ele>
        <time>2019-07-11T09:38:29Z</time>
      </trkpt>
      <trkpt lat="48.81187" lon="-3.51945">
        <ele>22.8</ele>
        <time>2019-07-11T09:38:30Z</time>
      </trkpt>
      <trkpt lat="48.81185" lon="-3.51947">
        <ele>22.9</ele>
        <time>2019-07-11T09:38:31Z</time>
      </trkpt>
      <trkpt lat="48.81183" lon="-3.51948">
        <ele>23.3</ele>
        <time>2019-07-11T09:38:32Z</time>
      </trkpt>
      <trkpt lat="48.8118" lon="-3.51948">
        <ele>23.4</ele>
        <time>2019-07-11T09:38:33Z</time>
      </trkpt>
      <trkpt lat="48.81178" lon="-3.51949">
        <ele>23.8</ele>
        <time>2019-07-11T09:38:34Z</time>
      </trkpt>
      <trkpt lat="48.81176" lon="-3.5195">
        <ele>24.1</ele>
        <time>2019-07-11T09:38:35Z</time>
      </trkpt>
      <trkpt lat="48.81175" lon="-3.51951">
        <ele>24.4</ele>
        <time>2019-07-11T09:38:36Z</time>
      </trkpt>
      <trkpt lat="48.81173" lon="-3.51952">
        <ele>24.5</ele>
        <time>2019-07-11T09:38:37Z</time>
      </trkpt>
      <trkpt lat="48.81171" lon="-3.51953">
        <ele>24.7</ele>
        <time>2019-07-11T09:38:38Z</time>
      </trkpt>
      <trkpt lat="48.8117" lon="-3.51954">
        <ele>24.8</ele>
        <time>2019-07-11T09:38:39Z</time>
      </trkpt>
      <trkpt lat="48.81168" lon="-3.51954">
        <ele>25.2</ele>
        <time>2019-07-11T09:38:40Z</time>
      </trkpt>
      <trkpt lat="48.81167" lon="-3.51955">
        <ele>25.7</ele>
        <time>2019-07-11T09:38:41Z</time>
      </trkpt>
      <trkpt lat="48.81165" lon="-3.51956">
        <ele>26.1</ele>
        <time>2019-07-11T09:38:42Z</time>
      </trkpt>
      <trkpt lat="48.81163" lon="-3.51957">
        <ele>26.6</ele>
        <time>2019-07-11T09:38:43Z</time>
      </trkpt>
      <trkpt lat="48.81162" lon="-3.51958">
        <ele>26.8</ele>
        <time>2019-07-11T09:38:44Z</time>
      </trkpt>
      <trkpt lat="48.8116" lon="-3.51958">
        <ele>27.2</ele>
        <time>2019-07-11T09:38:45Z</time>
      </trkpt>
      <trkpt lat="48.81158" lon="-3.51958">
        <ele>27.6</ele>
        <time>2019-07-11T09:38:46Z</time>
      </trkpt>
      <trkpt lat="48.81156" lon="-3.51959">
        <ele>28.1</ele>
        <time>2019-07-11T09:38:47Z</time>
      </trkpt>
      <trkpt lat="48.81155" lon="-3.5196">
        <ele>28.4</ele>
        <time>2019-07-11T09:38:48Z</time>
      </trkpt>
      <trkpt lat="48.81153" lon="-3.51961">
        <ele>28.8</ele>
        <time>2019-07-11T09:38:49Z</time>
      </trkpt>
      <trkpt lat="48.81153" lon="-3.51963">
        <ele>29.6</ele>
        <time>2019-07-11T09:38:50Z</time>
      </trkpt>
      <trkpt lat="48.81151" lon="-3.51965">
        <ele>30.1</ele>
        <time>2019-07-11T09:38:51Z</time>
      </trkpt>
      <trkpt lat="48.81149" lon="-3.51966">
        <ele>30.7</ele>
        <time>2019-07-11T09:38:52Z</time>
      </trkpt>
      <trkpt lat="48.81147" lon="-3.51967">
        <ele>30.9</ele>
        <time>2019-07-11T09:38:53Z</time>
      </trkpt>
      <trkpt lat="48.81145" lon="-3.51969">
        <ele>31.2</ele>
        <time>2019-07-11T09:38:54Z</time>
      </trkpt>
      <trkpt lat="48.81142" lon="-3.5197">
        <ele>31.4</ele>
        <time>2019-07-11T09:38:55Z</time>
      </trkpt>
      <trkpt lat="48.8114" lon="-3.51971">
        <ele>31.6</ele>
        <time>2019-07-11T09:38:56Z</time>
      </trkpt>
      <trkpt lat="48.81138" lon="-3.51972">
        <ele>31.7</ele>
        <time>2019-07-11T09:38:57Z</time>
      </trkpt>
      <trkpt lat="48.81135" lon="-3.51973">
        <ele>31.6</ele>
        <time>2019-07-11T09:38:58Z</time>
      </trkpt>
      <trkpt lat="48.81133" lon="-3.51974">
        <ele>31.6</ele>
        <time>2019-07-11T09:38:59Z</time>
      </trkpt>
      <trkpt lat="48.8113" lon="-3.51975">
        <ele>31.5</ele>
        <time>2019-07-11T09:39:00Z</time>
      </trkpt>
      <trkpt lat="48.81128" lon="-3.51975">
        <ele>31.5</ele>
        <time>2019-07-11T09:39:01Z</time>
      </trkpt>
      <trkpt lat="48.81126" lon="-3.51975">
        <ele>32.2</ele>
        <time>2019-07-11T09:39:02Z</time>
      </trkpt>
      <trkpt lat="48.81125" lon="-3.51975">
        <ele>33</ele>
        <time>2019-07-11T09:39:03Z</time>
      </trkpt>
      <trkpt lat="48.81123" lon="-3.51976">
        <ele>33.4</ele>
        <time>2019-07-11T09:39:04Z</time>
      </trkpt>
      <trkpt lat="48.81121" lon="-3.51976">
        <ele>33.9</ele>
        <time>2019-07-11T09:39:05Z</time>
      </trkpt>
      <trkpt lat="48.81119" lon="-3.51977">
        <ele>34.5</ele>
        <time>2019-07-11T09:39:06Z</time>
      </trkpt>
      <trkpt lat="48.81117" lon="-3.51977">
        <ele>34.7</ele>
        <time>2019-07-11T09:39:07Z</time>
      </trkpt>
      <trkpt lat="48.81115" lon="-3.51978">
        <ele>35</ele>
        <time>2019-07-11T09:39:08Z</time>
      </trkpt>
      <trkpt lat="48.81113" lon="-3.51978">
        <ele>35</ele>
        <time>2019-07-11T09:39:09Z</time>
      </trkpt>
      <trkpt lat="48.81111" lon="-3.51979">
        <ele>35.1</ele>
        <time>2019-07-11T09:39:10Z</time>
      </trkpt>
      <trkpt lat="48.8111" lon="-3.51979">
        <ele>35.2</ele>
        <time>2019-07-11T09:39:11Z</time>
      </trkpt>
      <trkpt lat="48.81108" lon="-3.51979">
        <ele>35.3</ele>
        <time>2019-07-11T09:39:12Z</time>
      </trkpt>
      <trkpt lat="48.81106" lon="-3.51979">
        <ele>35.4</ele>
        <time>2019-07-11T09:39:13Z</time>
      </trkpt>
      <trkpt lat="48.81104" lon="-3.51979">
        <ele>35.4</ele>
        <time>2019-07-11T09:39:14Z</time>
      </trkpt>
      <trkpt lat="48.81102" lon="-3.51979">
        <ele>35.6</ele>
        <time>2019-07-11T09:39:15Z</time>
      </trkpt>
      <trkpt lat="48.81101" lon="-3.51979">
        <ele>35.7</ele>
        <time>2019-07-11T09:39:16Z</time>
      </trkpt>
      <trkpt lat="48.81099" lon="-3.51979">
        <ele>35.8</ele>
        <time>2019-07-11T09:39:17Z</time>
      </trkpt>
      <trkpt lat="48.81097" lon="-3.5198">
        <ele>35.8</ele>
        <time>2019-07-11T09:39:18Z</time>
      </trkpt>
      <trkpt lat="48.81096" lon="-3.51981">
        <ele>35.8</ele>
        <time>2019-07-11T09:39:19Z</time>
      </trkpt>
      <trkpt lat="48.81094" lon="-3.51982">
        <ele>35.8</ele>
        <time>2019-07-11T09:39:20Z</time>
      </trkpt>
      <trkpt lat="48.81093" lon="-3.51984">
        <ele>35.5</ele>
        <time>2019-07-11T09:39:21Z</time>
      </trkpt>
      <trkpt lat="48.81091" lon="-3.51988">
        <ele>35.3</ele>
        <time>2019-07-11T09:39:22Z</time>
      </trkpt>
      <trkpt lat="48.8109" lon="-3.51991">
        <ele>35.1</ele>
        <time>2019-07-11T09:39:23Z</time>
      </trkpt>
      <trkpt lat="48.8109" lon="-3.51995">
        <ele>34.9</ele>
        <time>2019-07-11T09:39:24Z</time>
      </trkpt>
      <trkpt lat="48.81089" lon="-3.51998">
        <ele>34.3</ele>
        <time>2019-07-11T09:39:25Z</time>
      </trkpt>
      <trkpt lat="48.81089" lon="-3.52003">
        <ele>34.1</ele>
        <time>2019-07-11T09:39:26Z</time>
      </trkpt>
      <trkpt lat="48.8109" lon="-3.52007">
        <ele>33.9</ele>
        <time>2019-07-11T09:39:27Z</time>
      </trkpt>
      <trkpt lat="48.8109" lon="-3.52011">
        <ele>33.8</ele>
        <time>2019-07-11T09:39:28Z</time>
      </trkpt>
      <trkpt lat="48.8109" lon="-3.52014">
        <ele>33.4</ele>
        <time>2019-07-11T09:39:29Z</time>
      </trkpt>
      <trkpt lat="48.81091" lon="-3.52018">
        <ele>33.6</ele>
        <time>2019-07-11T09:39:30Z</time>
      </trkpt>
      <trkpt lat="48.81091" lon="-3.52021">
        <ele>33.8</ele>
        <time>2019-07-11T09:39:31Z</time>
      </trkpt>
      <trkpt lat="48.81091" lon="-3.52025">
        <ele>33.9</ele>
        <time>2019-07-11T09:39:32Z</time>
      </trkpt>
      <trkpt lat="48.81091" lon="-3.5203">
        <ele>34.1</ele>
        <time>2019-07-11T09:39:33Z</time>
      </trkpt>
      <trkpt lat="48.81092" lon="-3.52033">
        <ele>35.1</ele>
        <time>2019-07-11T09:39:34Z</time>
      </trkpt>
      <trkpt lat="48.81092" lon="-3.52037">
        <ele>35.3</ele>
        <time>2019-07-11T09:39:35Z</time>
      </trkpt>
      <trkpt lat="48.81092" lon="-3.52041">
        <ele>34.6</ele>
        <time>2019-07-11T09:39:36Z</time>
      </trkpt>
      <trkpt lat="48.81092" lon="-3.52046">
        <ele>33.8</ele>
        <time>2019-07-11T09:39:37Z</time>
      </trkpt>
      <trkpt lat="48.81091" lon="-3.52052">
        <ele>33.4</ele>
        <time>2019-07-11T09:39:38Z</time>
      </trkpt>
      <trkpt lat="48.81091" lon="-3.52057">
        <ele>33.6</ele>
        <time>2019-07-11T09:39:39Z</time>
      </trkpt>
      <trkpt lat="48.8109" lon="-3.52063">
        <ele>33.8</ele>
        <time>2019-07-11T09:39:40Z</time>
      </trkpt>
      <trkpt lat="48.81089" lon="-3.52069">
        <ele>33.6</ele>
        <time>2019-07-11T09:39:41Z</time>
      </trkpt>
      <trkpt lat="48.81088" lon="-3.52076">
        <ele>33.5</ele>
        <time>2019-07-11T09:39:42Z</time>
      </trkpt>
      <trkpt lat="48.81088" lon="-3.52083">
        <ele>33.3</ele>
        <time>2019-07-11T09:39:43Z</time>
      </trkpt>
      <trkpt lat="48.81087" lon="-3.52091">
        <ele>33</ele>
        <time>2019-07-11T09:39:44Z</time>
      </trkpt>
      <trkpt lat="48.81086" lon="-3.52098">
        <ele>32.5</ele>
        <time>2019-07-11T09:39:45Z</time>
      </trkpt>
      <trkpt lat="48.81086" lon="-3.52106">
        <ele>32.3</ele>
        <time>2019-07-11T09:39:46Z</time>
      </trkpt>
      <trkpt lat="48.81085" lon="-3.52113">
        <ele>32.1</ele>
        <time>2019-07-11T09:39:47Z</time>
      </trkpt>
      <trkpt lat="48.81085" lon="-3.5212">
        <ele>31.9</ele>
        <time>2019-07-11T09:39:48Z</time>
      </trkpt>
      <trkpt lat="48.81084" lon="-3.52127">
        <ele>31.6</ele>
        <time>2019-07-11T09:39:49Z</time>
      </trkpt>
      <trkpt lat="48.81084" lon="-3.52134">
        <ele>31.8</ele>
        <time>2019-07-11T09:39:50Z</time>
      </trkpt>
      <trkpt lat="48.81083" lon="-3.52142">
        <ele>31.6</ele>
        <time>2019-07-11T09:39:51Z</time>
      </trkpt>
      <trkpt lat="48.81082" lon="-3.52149">
        <ele>31.5</ele>
        <time>2019-07-11T09:39:52Z</time>
      </trkpt>
      <trkpt lat="48.81081" lon="-3.52156">
        <ele>31.3</ele>
        <time>2019-07-11T09:39:53Z</time>
      </trkpt>
      <trkpt lat="48.8108" lon="-3.52164">
        <ele>30.7</ele>
        <time>2019-07-11T09:39:54Z</time>
      </trkpt>
      <trkpt lat="48.8108" lon="-3.52171">
        <ele>30.1</ele>
        <time>2019-07-11T09:39:55Z</time>
      </trkpt>
      <trkpt lat="48.81078" lon="-3.52178">
        <ele>29.8</ele>
        <time>2019-07-11T09:39:56Z</time>
      </trkpt>
      <trkpt lat="48.81078" lon="-3.52185">
        <ele>29.4</ele>
        <time>2019-07-11T09:39:57Z</time>
      </trkpt>
      <trkpt lat="48.81078" lon="-3.52192">
        <ele>29</ele>
        <time>2019-07-11T09:39:58Z</time>
      </trkpt>
      <trkpt lat="48.81077" lon="-3.52199">
        <ele>28.6</ele>
        <time>2019-07-11T09:39:59Z</time>
      </trkpt>
      <trkpt lat="48.81076" lon="-3.52206">
        <ele>28.1</ele>
        <time>2019-07-11T09:40:00Z</time>
      </trkpt>
      <trkpt lat="48.81076" lon="-3.52213">
        <ele>27.8</ele>
        <time>2019-07-11T09:40:01Z</time>
      </trkpt>
      <trkpt lat="48.81075" lon="-3.52221">
        <ele>27.7</ele>
        <time>2019-07-11T09:40:02Z</time>
      </trkpt>
      <trkpt lat="48.81074" lon="-3.52228">
        <ele>27.5</ele>
        <time>2019-07-11T09:40:03Z</time>
      </trkpt>
      <trkpt lat="48.81073" lon="-3.52234">
        <ele>27.4</ele>
        <time>2019-07-11T09:40:04Z</time>
      </trkpt>
      <trkpt lat="48.81073" lon="-3.5224">
        <ele>27</ele>
        <time>2019-07-11T09:40:05Z</time>
      </trkpt>
      <trkpt lat="48.81073" lon="-3.52245">
        <ele>26.6</ele>
        <time>2019-07-11T09:40:06Z</time>
      </trkpt>
      <trkpt lat="48.81073" lon="-3.5225">
        <ele>26.4</ele>
        <time>2019-07-11T09:40:07Z</time>
      </trkpt>
      <trkpt lat="48.81072" lon="-3.52256">
        <ele>26.3</ele>
        <time>2019-07-11T09:40:08Z</time>
      </trkpt>
      <trkpt lat="48.81072" lon="-3.52261">
        <ele>26.3</ele>
        <time>2019-07-11T09:40:09Z</time>
      </trkpt>
      <trkpt lat="48.81072" lon="-3.52265">
        <ele>26.1</ele>
        <time>2019-07-11T09:40:10Z</time>
      </trkpt>
      <trkpt lat="48.81071" lon="-3.52271">
        <ele>25.9</ele>
        <time>2019-07-11T09:40:11Z</time>
      </trkpt>
      <trkpt lat="48.8107" lon="-3.52276">
        <ele>26.1</ele>
        <time>2019-07-11T09:40:12Z</time>
      </trkpt>
      <trkpt lat="48.8107" lon="-3.52283">
        <ele>25.6</ele>
        <time>2019-07-11T09:40:13Z</time>
      </trkpt>
      <trkpt lat="48.81068" lon="-3.52292">
        <ele>25.4</ele>
        <time>2019-07-11T09:40:14Z</time>
      </trkpt>
      <trkpt lat="48.81067" lon="-3.523">
        <ele>25.2</ele>
        <time>2019-07-11T09:40:15Z</time>
      </trkpt>
      <trkpt lat="48.81066" lon="-3.52308">
        <ele>25.1</ele>
        <time>2019-07-11T09:40:16Z</time>
      </trkpt>
      <trkpt lat="48.81065" lon="-3.52315">
        <ele>25.3</ele>
        <time>2019-07-11T09:40:17Z</time>
      </trkpt>
      <trkpt lat="48.81064" lon="-3.52322">
        <ele>25.7</ele>
        <time>2019-07-11T09:40:18Z</time>
      </trkpt>
      <trkpt lat="48.81062" lon="-3.52328">
        <ele>25.9</ele>
        <time>2019-07-11T09:40:19Z</time>
      </trkpt>
      <trkpt lat="48.81061" lon="-3.52335">
        <ele>26.2</ele>
        <time>2019-07-11T09:40:20Z</time>
      </trkpt>
      <trkpt lat="48.8106" lon="-3.52342">
        <ele>26.4</ele>
        <time>2019-07-11T09:40:21Z</time>
      </trkpt>
      <trkpt lat="48.8106" lon="-3.52347">
        <ele>26.9</ele>
        <time>2019-07-11T09:40:22Z</time>
      </trkpt>
      <trkpt lat="48.8106" lon="-3.52351">
        <ele>27</ele>
        <time>2019-07-11T09:40:23Z</time>
      </trkpt>
      <trkpt lat="48.81059" lon="-3.52358">
        <ele>27.5</ele>
        <time>2019-07-11T09:40:24Z</time>
      </trkpt>
      <trkpt lat="48.81057" lon="-3.52365">
        <ele>27.7</ele>
        <time>2019-07-11T09:40:25Z</time>
      </trkpt>
      <trkpt lat="48.81056" lon="-3.52372">
        <ele>28</ele>
        <time>2019-07-11T09:40:26Z</time>
      </trkpt>
      <trkpt lat="48.81056" lon="-3.52379">
        <ele>28.4</ele>
        <time>2019-07-11T09:40:27Z</time>
      </trkpt>
      <trkpt lat="48.81055" lon="-3.52385">
        <ele>28.9</ele>
        <time>2019-07-11T09:40:28Z</time>
      </trkpt>
      <trkpt lat="48.81054" lon="-3.52391">
        <ele>29.6</ele>
        <time>2019-07-11T09:40:29Z</time>
      </trkpt>
      <trkpt lat="48.81054" lon="-3.52398">
        <ele>30.5</ele>
        <time>2019-07-11T09:40:30Z</time>
      </trkpt>
      <trkpt lat="48.81053" lon="-3.52405">
        <ele>30.6</ele>
        <time>2019-07-11T09:40:31Z</time>
      </trkpt>
      <trkpt lat="48.81053" lon="-3.52412">
        <ele>30.7</ele>
        <time>2019-07-11T09:40:32Z</time>
      </trkpt>
      <trkpt lat="48.81053" lon="-3.5242">
        <ele>30.4</ele>
        <time>2019-07-11T09:40:33Z</time>
      </trkpt>
      <trkpt lat="48.81053" lon="-3.52428">
        <ele>30.2</ele>
        <time>2019-07-11T09:40:34Z</time>
      </trkpt>
      <trkpt lat="48.81053" lon="-3.52435">
        <ele>29.9</ele>
        <time>2019-07-11T09:40:35Z</time>
      </trkpt>
      <trkpt lat="48.81052" lon="-3.52446">
        <ele>27.6</ele>
        <time>2019-07-11T09:40:36Z</time>
      </trkpt>
      <trkpt lat="48.81051" lon="-3.52455">
        <ele>26.7</ele>
        <time>2019-07-11T09:40:37Z</time>
      </trkpt>
      <trkpt lat="48.8105" lon="-3.52464">
        <ele>25.6</ele>
        <time>2019-07-11T09:40:38Z</time>
      </trkpt>
      <trkpt lat="48.81049" lon="-3.52475">
        <ele>23.4</ele>
        <time>2019-07-11T09:40:39Z</time>
      </trkpt>
      <trkpt lat="48.81048" lon="-3.52484">
        <ele>21.6</ele>
        <time>2019-07-11T09:40:40Z</time>
      </trkpt>
      <trkpt lat="48.81048" lon="-3.52493">
        <ele>19.9</ele>
        <time>2019-07-11T09:40:41Z</time>
      </trkpt>
      <trkpt lat="48.81048" lon="-3.525">
        <ele>19</ele>
        <time>2019-07-11T09:40:42Z</time>
      </trkpt>
      <trkpt lat="48.81048" lon="-3.52505">
        <ele>18.1</ele>
        <time>2019-07-11T09:40:43Z</time>
      </trkpt>
      <trkpt lat="48.81048" lon="-3.5251">
        <ele>17.5</ele>
        <time>2019-07-11T09:40:44Z</time>
      </trkpt>
      <trkpt lat="48.81048" lon="-3.52512">
        <ele>17.2</ele>
        <time>2019-07-11T09:40:45Z</time>
      </trkpt>
      <trkpt lat="48.81048" lon="-3.52514">
        <ele>16.9</ele>
        <time>2019-07-11T09:40:46Z</time>
      </trkpt>
      <trkpt lat="48.81049" lon="-3.52517">
        <ele>16.6</ele>
        <time>2019-07-11T09:40:47Z</time>
      </trkpt>
      <trkpt lat="48.81048" lon="-3.5252">
        <ele>16.2</ele>
        <time>2019-07-11T09:40:48Z</time>
      </trkpt>
      <trkpt lat="48.81046" lon="-3.52524">
        <ele>16.3</ele>
        <time>2019-07-11T09:40:49Z</time>
      </trkpt>
      <trkpt lat="48.81044" lon="-3.52528">
        <ele>16.4</ele>
        <time>2019-07-11T09:40:50Z</time>
      </trkpt>
      <trkpt lat="48.81041" lon="-3.52529">
        <ele>16.3</ele>
        <time>2019-07-11T09:40:51Z</time>
      </trkpt>
      <trkpt lat="48.81037" lon="-3.5253">
        <ele>15.9</ele>
        <time>2019-07-11T09:40:52Z</time>
      </trkpt>
      <trkpt lat="48.81033" lon="-3.52532">
        <ele>15.3</ele>
        <time>2019-07-11T09:40:53Z</time>
      </trkpt>
      <trkpt lat="48.81029" lon="-3.52534">
        <ele>14.8</ele>
        <time>2019-07-11T09:40:54Z</time>
      </trkpt>
      <trkpt lat="48.81024" lon="-3.52535">
        <ele>14.2</ele>
        <time>2019-07-11T09:40:55Z</time>
      </trkpt>
      <trkpt lat="48.81019" lon="-3.52536">
        <ele>14.3</ele>
        <time>2019-07-11T09:40:56Z</time>
      </trkpt>
      <trkpt lat="48.81013" lon="-3.52537">
        <ele>14.2</ele>
        <time>2019-07-11T09:40:57Z</time>
      </trkpt>
      <trkpt lat="48.81007" lon="-3.52537">
        <ele>13.8</ele>
        <time>2019-07-11T09:40:58Z</time>
      </trkpt>
      <trkpt lat="48.81002" lon="-3.52536">
        <ele>13.4</ele>
        <time>2019-07-11T09:40:59Z</time>
      </trkpt>
      <trkpt lat="48.80996" lon="-3.52536">
        <ele>13</ele>
        <time>2019-07-11T09:41:00Z</time>
      </trkpt>
      <trkpt lat="48.80991" lon="-3.52535">
        <ele>12.8</ele>
        <time>2019-07-11T09:41:01Z</time>
      </trkpt>
      <trkpt lat="48.80988" lon="-3.52535">
        <ele>12.6</ele>
        <time>2019-07-11T09:41:02Z</time>
      </trkpt>
      <trkpt lat="48.80983" lon="-3.52534">
        <ele>12.1</ele>
        <time>2019-07-11T09:41:03Z</time>
      </trkpt>
      <trkpt lat="48.80979" lon="-3.52533">
        <ele>11.9</ele>
        <time>2019-07-11T09:41:04Z</time>
      </trkpt>
      <trkpt lat="48.80976" lon="-3.52532">
        <ele>11.6</ele>
        <time>2019-07-11T09:41:05Z</time>
      </trkpt>
      <trkpt lat="48.80972" lon="-3.52532">
        <ele>11.4</ele>
        <time>2019-07-11T09:41:06Z</time>
      </trkpt>
      <trkpt lat="48.80969" lon="-3.52533">
        <ele>11.8</ele>
        <time>2019-07-11T09:41:07Z</time>
      </trkpt>
      <trkpt lat="48.80966" lon="-3.52533">
        <ele>12.2</ele>
        <time>2019-07-11T09:41:08Z</time>
      </trkpt>
      <trkpt lat="48.80964" lon="-3.52533">
        <ele>12.5</ele>
        <time>2019-07-11T09:41:09Z</time>
      </trkpt>
      <trkpt lat="48.80961" lon="-3.52533">
        <ele>12.9</ele>
        <time>2019-07-11T09:41:10Z</time>
      </trkpt>
      <trkpt lat="48.80958" lon="-3.52534">
        <ele>13.1</ele>
        <time>2019-07-11T09:41:11Z</time>
      </trkpt>
      <trkpt lat="48.80956" lon="-3.52535">
        <ele>13.1</ele>
        <time>2019-07-11T09:41:12Z</time>
      </trkpt>
      <trkpt lat="48.80953" lon="-3.52536">
        <ele>13.3</ele>
        <time>2019-07-11T09:41:13Z</time>
      </trkpt>
      <trkpt lat="48.8095" lon="-3.52538">
        <ele>13.4</ele>
        <time>2019-07-11T09:41:14Z</time>
      </trkpt>
      <trkpt lat="48.80948" lon="-3.5254">
        <ele>13.5</ele>
        <time>2019-07-11T09:41:15Z</time>
      </trkpt>
      <trkpt lat="48.80946" lon="-3.5254">
        <ele>13.7</ele>
        <time>2019-07-11T09:41:16Z</time>
      </trkpt>
      <trkpt lat="48.80943" lon="-3.52541">
        <ele>13.9</ele>
        <time>2019-07-11T09:41:17Z</time>
      </trkpt>
      <trkpt lat="48.80941" lon="-3.52543">
        <ele>14</ele>
        <time>2019-07-11T09:41:18Z</time>
      </trkpt>
      <trkpt lat="48.80938" lon="-3.52544">
        <ele>14</ele>
        <time>2019-07-11T09:41:19Z</time>
      </trkpt>
      <trkpt lat="48.80935" lon="-3.52547">
        <ele>13.9</ele>
        <time>2019-07-11T09:41:20Z</time>
      </trkpt>
      <trkpt lat="48.80932" lon="-3.52548">
        <ele>13.9</ele>
        <time>2019-07-11T09:41:21Z</time>
      </trkpt>
      <trkpt lat="48.80929" lon="-3.5255">
        <ele>14.1</ele>
        <time>2019-07-11T09:41:22Z</time>
      </trkpt>
      <trkpt lat="48.80927" lon="-3.52552">
        <ele>14.4</ele>
        <time>2019-07-11T09:41:23Z</time>
      </trkpt>
      <trkpt lat="48.80924" lon="-3.52554">
        <ele>14.5</ele>
        <time>2019-07-11T09:41:24Z</time>
      </trkpt>
      <trkpt lat="48.80921" lon="-3.52556">
        <ele>14.7</ele>
        <time>2019-07-11T09:41:25Z</time>
      </trkpt>
      <trkpt lat="48.80918" lon="-3.52558">
        <ele>14.9</ele>
        <time>2019-07-11T09:41:26Z</time>
      </trkpt>
      <trkpt lat="48.80915" lon="-3.5256">
        <ele>15.2</ele>
        <time>2019-07-11T09:41:27Z</time>
      </trkpt>
      <trkpt lat="48.80912" lon="-3.52562">
        <ele>15.5</ele>
        <time>2019-07-11T09:41:28Z</time>
      </trkpt>
      <trkpt lat="48.8091" lon="-3.52564">
        <ele>15.6</ele>
        <time>2019-07-11T09:41:29Z</time>
      </trkpt>
      <trkpt lat="48.80907" lon="-3.52566">
        <ele>15.6</ele>
        <time>2019-07-11T09:41:30Z</time>
      </trkpt>
      <trkpt lat="48.80904" lon="-3.52567">
        <ele>15.5</ele>
        <time>2019-07-11T09:41:31Z</time>
      </trkpt>
      <trkpt lat="48.80901" lon="-3.52569">
        <ele>15.5</ele>
        <time>2019-07-11T09:41:32Z</time>
      </trkpt>
      <trkpt lat="48.80898" lon="-3.5257">
        <ele>15.3</ele>
        <time>2019-07-11T09:41:33Z</time>
      </trkpt>
      <trkpt lat="48.80895" lon="-3.52571">
        <ele>15.1</ele>
        <time>2019-07-11T09:41:34Z</time>
      </trkpt>
      <trkpt lat="48.80893" lon="-3.52572">
        <ele>14.9</ele>
        <time>2019-07-11T09:41:35Z</time>
      </trkpt>
      <trkpt lat="48.8089" lon="-3.52573">
        <ele>14.5</ele>
        <time>2019-07-11T09:41:36Z</time>
      </trkpt>
      <trkpt lat="48.80888" lon="-3.52575">
        <ele>14.4</ele>
        <time>2019-07-11T09:41:37Z</time>
      </trkpt>
      <trkpt lat="48.80886" lon="-3.52576">
        <ele>14.5</ele>
        <time>2019-07-11T09:41:38Z</time>
      </trkpt>
      <trkpt lat="48.80884" lon="-3.52577">
        <ele>14.8</ele>
        <time>2019-07-11T09:41:39Z</time>
      </trkpt>
      <trkpt lat="48.80883" lon="-3.52578">
        <ele>15.2</ele>
        <time>2019-07-11T09:41:40Z</time>
      </trkpt>
      <trkpt lat="48.80881" lon="-3.5258">
        <ele>15.7</ele>
        <time>2019-07-11T09:41:41Z</time>
      </trkpt>
      <trkpt lat="48.8088" lon="-3.52582">
        <ele>16.2</ele>
        <time>2019-07-11T09:41:42Z</time>
      </trkpt>
      <trkpt lat="48.80878" lon="-3.52584">
        <ele>16.7</ele>
        <time>2019-07-11T09:41:43Z</time>
      </trkpt>
      <trkpt lat="48.80876" lon="-3.52585">
        <ele>16.7</ele>
        <time>2019-07-11T09:41:44Z</time>
      </trkpt>
      <trkpt lat="48.80874" lon="-3.52587">
        <ele>17.1</ele>
        <time>2019-07-11T09:41:45Z</time>
      </trkpt>
      <trkpt lat="48.80871" lon="-3.52589">
        <ele>17.4</ele>
        <time>2019-07-11T09:41:46Z</time>
      </trkpt>
      <trkpt lat="48.80869" lon="-3.5259">
        <ele>17.6</ele>
        <time>2019-07-11T09:41:47Z</time>
      </trkpt>
      <trkpt lat="48.80868" lon="-3.52592">
        <ele>17.7</ele>
        <time>2019-07-11T09:41:48Z</time>
      </trkpt>
      <trkpt lat="48.80868" lon="-3.52594">
        <ele>18.2</ele>
        <time>2019-07-11T09:41:49Z</time>
      </trkpt>
      <trkpt lat="48.80867" lon="-3.52596">
        <ele>18.6</ele>
        <time>2019-07-11T09:41:50Z</time>
      </trkpt>
      <trkpt lat="48.80865" lon="-3.52598">
        <ele>19.2</ele>
        <time>2019-07-11T09:41:51Z</time>
      </trkpt>
      <trkpt lat="48.80864" lon="-3.526">
        <ele>19.8</ele>
        <time>2019-07-11T09:41:52Z</time>
      </trkpt>
      <trkpt lat="48.80862" lon="-3.52602">
        <ele>20.2</ele>
        <time>2019-07-11T09:41:53Z</time>
      </trkpt>
      <trkpt lat="48.80861" lon="-3.52603">
        <ele>20.6</ele>
        <time>2019-07-11T09:41:54Z</time>
      </trkpt>
      <trkpt lat="48.80861" lon="-3.52606">
        <ele>21.2</ele>
        <time>2019-07-11T09:41:55Z</time>
      </trkpt>
      <trkpt lat="48.80859" lon="-3.52607">
        <ele>21.9</ele>
        <time>2019-07-11T09:41:56Z</time>
      </trkpt>
      <trkpt lat="48.80858" lon="-3.52609">
        <ele>22.8</ele>
        <time>2019-07-11T09:41:57Z</time>
      </trkpt>
      <trkpt lat="48.80857" lon="-3.5261">
        <ele>23.7</ele>
        <time>2019-07-11T09:41:58Z</time>
      </trkpt>
      <trkpt lat="48.80856" lon="-3.52611">
        <ele>24.7</ele>
        <time>2019-07-11T09:41:59Z</time>
      </trkpt>
      <trkpt lat="48.80854" lon="-3.52612">
        <ele>25.5</ele>
        <time>2019-07-11T09:42:00Z</time>
      </trkpt>
      <trkpt lat="48.80853" lon="-3.52614">
        <ele>26.1</ele>
        <time>2019-07-11T09:42:01Z</time>
      </trkpt>
      <trkpt lat="48.80853" lon="-3.52616">
        <ele>28.5</ele>
        <time>2019-07-11T09:42:02Z</time>
      </trkpt>
      <trkpt lat="48.80851" lon="-3.52618">
        <ele>29.9</ele>
        <time>2019-07-11T09:42:03Z</time>
      </trkpt>
      <trkpt lat="48.80851" lon="-3.52621">
        <ele>30.9</ele>
        <time>2019-07-11T09:42:04Z</time>
      </trkpt>
      <trkpt lat="48.8085" lon="-3.52623">
        <ele>31.8</ele>
        <time>2019-07-11T09:42:05Z</time>
      </trkpt>
      <trkpt lat="48.80848" lon="-3.52626">
        <ele>32.5</ele>
        <time>2019-07-11T09:42:06Z</time>
      </trkpt>
      <trkpt lat="48.80848" lon="-3.52629">
        <ele>32.9</ele>
        <time>2019-07-11T09:42:07Z</time>
      </trkpt>
      <trkpt lat="48.80847" lon="-3.52632">
        <ele>33.2</ele>
        <time>2019-07-11T09:42:08Z</time>
      </trkpt>
      <trkpt lat="48.80846" lon="-3.52635">
        <ele>33.7</ele>
        <time>2019-07-11T09:42:09Z</time>
      </trkpt>
      <trkpt lat="48.80846" lon="-3.52637">
        <ele>34.1</ele>
        <time>2019-07-11T09:42:10Z</time>
      </trkpt>
      <trkpt lat="48.80846" lon="-3.52639">
        <ele>34.2</ele>
        <time>2019-07-11T09:42:11Z</time>
      </trkpt>
      <trkpt lat="48.80845" lon="-3.52642">
        <ele>34.2</ele>
        <time>2019-07-11T09:42:12Z</time>
      </trkpt>
      <trkpt lat="48.80845" lon="-3.52645">
        <ele>34.1</ele>
        <time>2019-07-11T09:42:13Z</time>
      </trkpt>
      <trkpt lat="48.80845" lon="-3.52648">
        <ele>34</ele>
        <time>2019-07-11T09:42:14Z</time>
      </trkpt>
      <trkpt lat="48.80844" lon="-3.52651">
        <ele>34.1</ele>
        <time>2019-07-11T09:42:15Z</time>
      </trkpt>
      <trkpt lat="48.80844" lon="-3.52654">
        <ele>33.9</ele>
        <time>2019-07-11T09:42:16Z</time>
      </trkpt>
      <trkpt lat="48.80844" lon="-3.52657">
        <ele>33.9</ele>
        <time>2019-07-11T09:42:17Z</time>
      </trkpt>
      <trkpt lat="48.80843" lon="-3.52659">
        <ele>33.9</ele>
        <time>2019-07-11T09:42:18Z</time>
      </trkpt>
      <trkpt lat="48.80841" lon="-3.52662">
        <ele>33.7</ele>
        <time>2019-07-11T09:42:19Z</time>
      </trkpt>
      <trkpt lat="48.80841" lon="-3.52665">
        <ele>33.4</ele>
        <time>2019-07-11T09:42:20Z</time>
      </trkpt>
      <trkpt lat="48.8084" lon="-3.52668">
        <ele>33.1</ele>
        <time>2019-07-11T09:42:21Z</time>
      </trkpt>
      <trkpt lat="48.80838" lon="-3.5267">
        <ele>32.8</ele>
        <time>2019-07-11T09:42:22Z</time>
      </trkpt>
      <trkpt lat="48.80837" lon="-3.52672">
        <ele>32.8</ele>
        <time>2019-07-11T09:42:23Z</time>
      </trkpt>
      <trkpt lat="48.80836" lon="-3.52675">
        <ele>32.4</ele>
        <time>2019-07-11T09:42:24Z</time>
      </trkpt>
      <trkpt lat="48.80835" lon="-3.52677">
        <ele>32.5</ele>
        <time>2019-07-11T09:42:25Z</time>
      </trkpt>
      <trkpt lat="48.80834" lon="-3.52679">
        <ele>32.2</ele>
        <time>2019-07-11T09:42:26Z</time>
      </trkpt>
      <trkpt lat="48.80833" lon="-3.52681">
        <ele>32.3</ele>
        <time>2019-07-11T09:42:27Z</time>
      </trkpt>
      <trkpt lat="48.80833" lon="-3.52683">
        <ele>32.5</ele>
        <time>2019-07-11T09:42:28Z</time>
      </trkpt>
      <trkpt lat="48.80832" lon="-3.52686">
        <ele>32.2</ele>
        <time>2019-07-11T09:42:29Z</time>
      </trkpt>
      <trkpt lat="48.8083" lon="-3.52688">
        <ele>31.6</ele>
        <time>2019-07-11T09:42:30Z</time>
      </trkpt>
      <trkpt lat="48.80829" lon="-3.52691">
        <ele>31.5</ele>
        <time>2019-07-11T09:42:31Z</time>
      </trkpt>
      <trkpt lat="48.80827" lon="-3.52693">
        <ele>31.6</ele>
        <time>2019-07-11T09:42:32Z</time>
      </trkpt>
      <trkpt lat="48.80826" lon="-3.52694">
        <ele>31.3</ele>
        <time>2019-07-11T09:42:33Z</time>
      </trkpt>
      <trkpt lat="48.80824" lon="-3.52695">
        <ele>31.5</ele>
        <time>2019-07-11T09:42:34Z</time>
      </trkpt>
      <trkpt lat="48.80823" lon="-3.52697">
        <ele>31.3</ele>
        <time>2019-07-11T09:42:35Z</time>
      </trkpt>
      <trkpt lat="48.80822" lon="-3.52699">
        <ele>31.9</ele>
        <time>2019-07-11T09:42:36Z</time>
      </trkpt>
      <trkpt lat="48.80821" lon="-3.527">
        <ele>32.2</ele>
        <time>2019-07-11T09:42:37Z</time>
      </trkpt>
      <trkpt lat="48.8082" lon="-3.52702">
        <ele>31.9</ele>
        <time>2019-07-11T09:42:38Z</time>
      </trkpt>
      <trkpt lat="48.80819" lon="-3.52703">
        <ele>32.1</ele>
        <time>2019-07-11T09:42:39Z</time>
      </trkpt>
      <trkpt lat="48.80817" lon="-3.52705">
        <ele>32.3</ele>
        <time>2019-07-11T09:42:40Z</time>
      </trkpt>
      <trkpt lat="48.80816" lon="-3.52706">
        <ele>32.9</ele>
        <time>2019-07-11T09:42:41Z</time>
      </trkpt>
      <trkpt lat="48.80815" lon="-3.52708">
        <ele>32.9</ele>
        <time>2019-07-11T09:42:42Z</time>
      </trkpt>
      <trkpt lat="48.80814" lon="-3.52709">
        <ele>32.7</ele>
        <time>2019-07-11T09:42:43Z</time>
      </trkpt>
      <trkpt lat="48.80812" lon="-3.52711">
        <ele>31.8</ele>
        <time>2019-07-11T09:42:44Z</time>
      </trkpt>
      <trkpt lat="48.80811" lon="-3.52713">
        <ele>31.4</ele>
        <time>2019-07-11T09:42:45Z</time>
      </trkpt>
      <trkpt lat="48.80811" lon="-3.52715">
        <ele>31.3</ele>
        <time>2019-07-11T09:42:46Z</time>
      </trkpt>
      <trkpt lat="48.8081" lon="-3.52717">
        <ele>30.8</ele>
        <time>2019-07-11T09:42:47Z</time>
      </trkpt>
      <trkpt lat="48.8081" lon="-3.52719">
        <ele>31</ele>
        <time>2019-07-11T09:42:48Z</time>
      </trkpt>
      <trkpt lat="48.80809" lon="-3.52723">
        <ele>31.1</ele>
        <time>2019-07-11T09:42:49Z</time>
      </trkpt>
      <trkpt lat="48.80808" lon="-3.52726">
        <ele>31.3</ele>
        <time>2019-07-11T09:42:50Z</time>
      </trkpt>
      <trkpt lat="48.80808" lon="-3.52728">
        <ele>31.4</ele>
        <time>2019-07-11T09:42:51Z</time>
      </trkpt>
      <trkpt lat="48.80806" lon="-3.52731">
        <ele>31.5</ele>
        <time>2019-07-11T09:42:52Z</time>
      </trkpt>
      <trkpt lat="48.80805" lon="-3.52734">
        <ele>31.7</ele>
        <time>2019-07-11T09:42:53Z</time>
      </trkpt>
      <trkpt lat="48.80803" lon="-3.52736">
        <ele>32</ele>
        <time>2019-07-11T09:42:54Z</time>
      </trkpt>
      <trkpt lat="48.80801" lon="-3.52738">
        <ele>31.8</ele>
        <time>2019-07-11T09:42:55Z</time>
      </trkpt>
      <trkpt lat="48.80799" lon="-3.52739">
        <ele>31.8</ele>
        <time>2019-07-11T09:42:56Z</time>
      </trkpt>
      <trkpt lat="48.80797" lon="-3.52739">
        <ele>31.6</ele>
        <time>2019-07-11T09:42:57Z</time>
      </trkpt>
      <trkpt lat="48.80795" lon="-3.52737">
        <ele>31.4</ele>
        <time>2019-07-11T09:42:58Z</time>
      </trkpt>
      <trkpt lat="48.80793" lon="-3.52736">
        <ele>31.5</ele>
        <time>2019-07-11T09:42:59Z</time>
      </trkpt>
      <trkpt lat="48.80791" lon="-3.52734">
        <ele>31.3</ele>
        <time>2019-07-11T09:43:00Z</time>
      </trkpt>
      <trkpt lat="48.80789" lon="-3.52733">
        <ele>31.5</ele>
        <time>2019-07-11T09:43:01Z</time>
      </trkpt>
      <trkpt lat="48.80787" lon="-3.5273">
        <ele>31.4</ele>
        <time>2019-07-11T09:43:02Z</time>
      </trkpt>
      <trkpt lat="48.80784" lon="-3.52729">
        <ele>31.3</ele>
        <time>2019-07-11T09:43:03Z</time>
      </trkpt>
      <trkpt lat="48.80782" lon="-3.52727">
        <ele>31.3</ele>
        <time>2019-07-11T09:43:04Z</time>
      </trkpt>
      <trkpt lat="48.8078" lon="-3.52724">
        <ele>31.4</ele>
        <time>2019-07-11T09:43:05Z</time>
      </trkpt>
      <trkpt lat="48.80777" lon="-3.52722">
        <ele>31.4</ele>
        <time>2019-07-11T09:43:06Z</time>
      </trkpt>
      <trkpt lat="48.80776" lon="-3.5272">
        <ele>31.6</ele>
        <time>2019-07-11T09:43:07Z</time>
      </trkpt>
      <trkpt lat="48.80774" lon="-3.52717">
        <ele>31</ele>
        <time>2019-07-11T09:43:08Z</time>
      </trkpt>
      <trkpt lat="48.80772" lon="-3.52714">
        <ele>31</ele>
        <time>2019-07-11T09:43:09Z</time>
      </trkpt>
      <trkpt lat="48.8077" lon="-3.52711">
        <ele>30.8</ele>
        <time>2019-07-11T09:43:10Z</time>
      </trkpt>
      <trkpt lat="48.80767" lon="-3.52709">
        <ele>30.7</ele>
        <time>2019-07-11T09:43:11Z</time>
      </trkpt>
      <trkpt lat="48.80764" lon="-3.52707">
        <ele>30.4</ele>
        <time>2019-07-11T09:43:12Z</time>
      </trkpt>
      <trkpt lat="48.80761" lon="-3.52704">
        <ele>30.3</ele>
        <time>2019-07-11T09:43:13Z</time>
      </trkpt>
      <trkpt lat="48.8076" lon="-3.52701">
        <ele>30.6</ele>
        <time>2019-07-11T09:43:14Z</time>
      </trkpt>
      <trkpt lat="48.80757" lon="-3.52699">
        <ele>30.8</ele>
        <time>2019-07-11T09:43:15Z</time>
      </trkpt>
      <trkpt lat="48.80755" lon="-3.52696">
        <ele>30.7</ele>
        <time>2019-07-11T09:43:16Z</time>
      </trkpt>
      <trkpt lat="48.80752" lon="-3.52694">
        <ele>31.2</ele>
        <time>2019-07-11T09:43:17Z</time>
      </trkpt>
      <trkpt lat="48.8075" lon="-3.52691">
        <ele>31.4</ele>
        <time>2019-07-11T09:43:18Z</time>
      </trkpt>
      <trkpt lat="48.80748" lon="-3.52688">
        <ele>32</ele>
        <time>2019-07-11T09:43:19Z</time>
      </trkpt>
      <trkpt lat="48.80746" lon="-3.52685">
        <ele>32.1</ele>
        <time>2019-07-11T09:43:20Z</time>
      </trkpt>
      <trkpt lat="48.80744" lon="-3.52682">
        <ele>32.1</ele>
        <time>2019-07-11T09:43:21Z</time>
      </trkpt>
      <trkpt lat="48.80743" lon="-3.52679">
        <ele>32.3</ele>
        <time>2019-07-11T09:43:22Z</time>
      </trkpt>
      <trkpt lat="48.80741" lon="-3.52675">
        <ele>32.4</ele>
        <time>2019-07-11T09:43:23Z</time>
      </trkpt>
      <trkpt lat="48.80739" lon="-3.52672">
        <ele>32.1</ele>
        <time>2019-07-11T09:43:24Z</time>
      </trkpt>
      <trkpt lat="48.80737" lon="-3.52668">
        <ele>32.1</ele>
        <time>2019-07-11T09:43:25Z</time>
      </trkpt>
      <trkpt lat="48.80734" lon="-3.52665">
        <ele>32.6</ele>
        <time>2019-07-11T09:43:26Z</time>
      </trkpt>
      <trkpt lat="48.80732" lon="-3.52662">
        <ele>32.6</ele>
        <time>2019-07-11T09:43:27Z</time>
      </trkpt>
      <trkpt lat="48.80729" lon="-3.5266">
        <ele>32.7</ele>
        <time>2019-07-11T09:43:28Z</time>
      </trkpt>
      <trkpt lat="48.80726" lon="-3.52657">
        <ele>32.6</ele>
        <time>2019-07-11T09:43:29Z</time>
      </trkpt>
      <trkpt lat="48.80724" lon="-3.52654">
        <ele>32.4</ele>
        <time>2019-07-11T09:43:30Z</time>
      </trkpt>
      <trkpt lat="48.80721" lon="-3.52652">
        <ele>32.4</ele>
        <time>2019-07-11T09:43:31Z</time>
      </trkpt>
      <trkpt lat="48.80718" lon="-3.52651">
        <ele>32.4</ele>
        <time>2019-07-11T09:43:32Z</time>
      </trkpt>
      <trkpt lat="48.80716" lon="-3.5265">
        <ele>32.1</ele>
        <time>2019-07-11T09:43:33Z</time>
      </trkpt>
      <trkpt lat="48.80713" lon="-3.52649">
        <ele>31.7</ele>
        <time>2019-07-11T09:43:34Z</time>
      </trkpt>
      <trkpt lat="48.8071" lon="-3.52647">
        <ele>31.5</ele>
        <time>2019-07-11T09:43:35Z</time>
      </trkpt>
      <trkpt lat="48.80708" lon="-3.52645">
        <ele>31.5</ele>
        <time>2019-07-11T09:43:36Z</time>
      </trkpt>
      <trkpt lat="48.80705" lon="-3.52644">
        <ele>31.7</ele>
        <time>2019-07-11T09:43:37Z</time>
      </trkpt>
      <trkpt lat="48.80702" lon="-3.52643">
        <ele>31.9</ele>
        <time>2019-07-11T09:43:38Z</time>
      </trkpt>
      <trkpt lat="48.80699" lon="-3.52642">
        <ele>32.1</ele>
        <time>2019-07-11T09:43:39Z</time>
      </trkpt>
      <trkpt lat="48.80697" lon="-3.5264">
        <ele>32.3</ele>
        <time>2019-07-11T09:43:40Z</time>
      </trkpt>
      <trkpt lat="48.80694" lon="-3.52639">
        <ele>32.5</ele>
        <time>2019-07-11T09:43:41Z</time>
      </trkpt>
      <trkpt lat="48.80691" lon="-3.52637">
        <ele>32.5</ele>
        <time>2019-07-11T09:43:42Z</time>
      </trkpt>
      <trkpt lat="48.80689" lon="-3.52635">
        <ele>32.6</ele>
        <time>2019-07-11T09:43:43Z</time>
      </trkpt>
      <trkpt lat="48.80685" lon="-3.52633">
        <ele>32.7</ele>
        <time>2019-07-11T09:43:44Z</time>
      </trkpt>
      <trkpt lat="48.80682" lon="-3.52632">
        <ele>32.6</ele>
        <time>2019-07-11T09:43:45Z</time>
      </trkpt>
      <trkpt lat="48.80679" lon="-3.5263">
        <ele>32.5</ele>
        <time>2019-07-11T09:43:46Z</time>
      </trkpt>
      <trkpt lat="48.80676" lon="-3.52628">
        <ele>32.1</ele>
        <time>2019-07-11T09:43:47Z</time>
      </trkpt>
      <trkpt lat="48.80673" lon="-3.52626">
        <ele>31.7</ele>
        <time>2019-07-11T09:43:48Z</time>
      </trkpt>
      <trkpt lat="48.8067" lon="-3.52625">
        <ele>31.5</ele>
        <time>2019-07-11T09:43:49Z</time>
      </trkpt>
      <trkpt lat="48.80666" lon="-3.52624">
        <ele>31.1</ele>
        <time>2019-07-11T09:43:50Z</time>
      </trkpt>
      <trkpt lat="48.80663" lon="-3.52624">
        <ele>31.1</ele>
        <time>2019-07-11T09:43:51Z</time>
      </trkpt>
      <trkpt lat="48.8066" lon="-3.52622">
        <ele>31.1</ele>
        <time>2019-07-11T09:43:52Z</time>
      </trkpt>
      <trkpt lat="48.80657" lon="-3.52622">
        <ele>31.2</ele>
        <time>2019-07-11T09:43:53Z</time>
      </trkpt>
      <trkpt lat="48.80654" lon="-3.52621">
        <ele>31.3</ele>
        <time>2019-07-11T09:43:54Z</time>
      </trkpt>
      <trkpt lat="48.80651" lon="-3.5262">
        <ele>31.2</ele>
        <time>2019-07-11T09:43:55Z</time>
      </trkpt>
      <trkpt lat="48.80648" lon="-3.52618">
        <ele>31</ele>
        <time>2019-07-11T09:43:56Z</time>
      </trkpt>
      <trkpt lat="48.80645" lon="-3.52616">
        <ele>31</ele>
        <time>2019-07-11T09:43:57Z</time>
      </trkpt>
      <trkpt lat="48.80643" lon="-3.52614">
        <ele>31.3</ele>
        <time>2019-07-11T09:43:58Z</time>
      </trkpt>
      <trkpt lat="48.8064" lon="-3.52612">
        <ele>31</ele>
        <time>2019-07-11T09:43:59Z</time>
      </trkpt>
      <trkpt lat="48.80639" lon="-3.5261">
        <ele>31.1</ele>
        <time>2019-07-11T09:44:00Z</time>
      </trkpt>
      <trkpt lat="48.80636" lon="-3.52608">
        <ele>30.8</ele>
        <time>2019-07-11T09:44:01Z</time>
      </trkpt>
      <trkpt lat="48.80634" lon="-3.52606">
        <ele>30.7</ele>
        <time>2019-07-11T09:44:02Z</time>
      </trkpt>
      <trkpt lat="48.80631" lon="-3.52605">
        <ele>30.7</ele>
        <time>2019-07-11T09:44:03Z</time>
      </trkpt>
      <trkpt lat="48.80627" lon="-3.52604">
        <ele>30.8</ele>
        <time>2019-07-11T09:44:04Z</time>
      </trkpt>
      <trkpt lat="48.80624" lon="-3.52604">
        <ele>31.1</ele>
        <time>2019-07-11T09:44:05Z</time>
      </trkpt>
      <trkpt lat="48.80621" lon="-3.52603">
        <ele>31.9</ele>
        <time>2019-07-11T09:44:06Z</time>
      </trkpt>
      <trkpt lat="48.80618" lon="-3.52601">
        <ele>32.2</ele>
        <time>2019-07-11T09:44:07Z</time>
      </trkpt>
      <trkpt lat="48.80614" lon="-3.526">
        <ele>32.5</ele>
        <time>2019-07-11T09:44:08Z</time>
      </trkpt>
      <trkpt lat="48.80611" lon="-3.52599">
        <ele>32.3</ele>
        <time>2019-07-11T09:44:09Z</time>
      </trkpt>
      <trkpt lat="48.80607" lon="-3.52598">
        <ele>32.2</ele>
        <time>2019-07-11T09:44:10Z</time>
      </trkpt>
      <trkpt lat="48.80603" lon="-3.52597">
        <ele>32.3</ele>
        <time>2019-07-11T09:44:11Z</time>
      </trkpt>
      <trkpt lat="48.80598" lon="-3.52596">
        <ele>33</ele>
        <time>2019-07-11T09:44:12Z</time>
      </trkpt>
      <trkpt lat="48.80594" lon="-3.52594">
        <ele>34.4</ele>
        <time>2019-07-11T09:44:13Z</time>
      </trkpt>
      <trkpt lat="48.8059" lon="-3.52592">
        <ele>34.8</ele>
        <time>2019-07-11T09:44:14Z</time>
      </trkpt>
      <trkpt lat="48.80586" lon="-3.5259">
        <ele>35.7</ele>
        <time>2019-07-11T09:44:15Z</time>
      </trkpt>
      <trkpt lat="48.80583" lon="-3.52589">
        <ele>36.4</ele>
        <time>2019-07-11T09:44:16Z</time>
      </trkpt>
      <trkpt lat="48.80581" lon="-3.52589">
        <ele>37.1</ele>
        <time>2019-07-11T09:44:17Z</time>
      </trkpt>
      <trkpt lat="48.80579" lon="-3.5259">
        <ele>37.5</ele>
        <time>2019-07-11T09:44:18Z</time>
      </trkpt>
      <trkpt lat="48.80578" lon="-3.52592">
        <ele>37.2</ele>
        <time>2019-07-11T09:44:19Z</time>
      </trkpt>
      <trkpt lat="48.80578" lon="-3.52595">
        <ele>37.6</ele>
        <time>2019-07-11T09:44:20Z</time>
      </trkpt>
      <trkpt lat="48.80578" lon="-3.52599">
        <ele>37.5</ele>
        <time>2019-07-11T09:44:21Z</time>
      </trkpt>
      <trkpt lat="48.80577" lon="-3.52604">
        <ele>37.7</ele>
        <time>2019-07-11T09:44:22Z</time>
      </trkpt>
      <trkpt lat="48.80576" lon="-3.52609">
        <ele>37.6</ele>
        <time>2019-07-11T09:44:23Z</time>
      </trkpt>
      <trkpt lat="48.80576" lon="-3.52615">
        <ele>37.3</ele>
        <time>2019-07-11T09:44:24Z</time>
      </trkpt>
      <trkpt lat="48.80574" lon="-3.5262">
        <ele>37</ele>
        <time>2019-07-11T09:44:25Z</time>
      </trkpt>
      <trkpt lat="48.80571" lon="-3.52624">
        <ele>36.5</ele>
        <time>2019-07-11T09:44:26Z</time>
      </trkpt>
      <trkpt lat="48.80568" lon="-3.52628">
        <ele>36.7</ele>
        <time>2019-07-11T09:44:27Z</time>
      </trkpt>
      <trkpt lat="48.80565" lon="-3.52632">
        <ele>36.6</ele>
        <time>2019-07-11T09:44:28Z</time>
      </trkpt>
      <trkpt lat="48.80563" lon="-3.52635">
        <ele>36.6</ele>
        <time>2019-07-11T09:44:29Z</time>
      </trkpt>
      <trkpt lat="48.80561" lon="-3.52638">
        <ele>36.6</ele>
        <time>2019-07-11T09:44:30Z</time>
      </trkpt>
      <trkpt lat="48.80559" lon="-3.52641">
        <ele>36.4</ele>
        <time>2019-07-11T09:44:31Z</time>
      </trkpt>
      <trkpt lat="48.80558" lon="-3.52645">
        <ele>35.9</ele>
        <time>2019-07-11T09:44:32Z</time>
      </trkpt>
      <trkpt lat="48.80556" lon="-3.52649">
        <ele>35.4</ele>
        <time>2019-07-11T09:44:33Z</time>
      </trkpt>
      <trkpt lat="48.80553" lon="-3.52652">
        <ele>35</ele>
        <time>2019-07-11T09:44:34Z</time>
      </trkpt>
      <trkpt lat="48.8055" lon="-3.52656">
        <ele>34.5</ele>
        <time>2019-07-11T09:44:35Z</time>
      </trkpt>
      <trkpt lat="48.80547" lon="-3.5266">
        <ele>34.1</ele>
        <time>2019-07-11T09:44:36Z</time>
      </trkpt>
      <trkpt lat="48.80544" lon="-3.52665">
        <ele>33.8</ele>
        <time>2019-07-11T09:44:37Z</time>
      </trkpt>
      <trkpt lat="48.8054" lon="-3.52671">
        <ele>33.5</ele>
        <time>2019-07-11T09:44:38Z</time>
      </trkpt>
      <trkpt lat="48.80536" lon="-3.52677">
        <ele>32.9</ele>
        <time>2019-07-11T09:44:39Z</time>
      </trkpt>
      <trkpt lat="48.80533" lon="-3.52684">
        <ele>31.8</ele>
        <time>2019-07-11T09:44:40Z</time>
      </trkpt>
      <trkpt lat="48.8053" lon="-3.52693">
        <ele>31.3</ele>
        <time>2019-07-11T09:44:41Z</time>
      </trkpt>
      <trkpt lat="48.80528" lon="-3.52702">
        <ele>30.5</ele>
        <time>2019-07-11T09:44:42Z</time>
      </trkpt>
      <trkpt lat="48.80527" lon="-3.52712">
        <ele>29.6</ele>
        <time>2019-07-11T09:44:43Z</time>
      </trkpt>
      <trkpt lat="48.80525" lon="-3.52722">
        <ele>28.6</ele>
        <time>2019-07-11T09:44:44Z</time>
      </trkpt>
      <trkpt lat="48.80524" lon="-3.52731">
        <ele>28.1</ele>
        <time>2019-07-11T09:44:45Z</time>
      </trkpt>
      <trkpt lat="48.80522" lon="-3.52738">
        <ele>28</ele>
        <time>2019-07-11T09:44:46Z</time>
      </trkpt>
      <trkpt lat="48.8052" lon="-3.52744">
        <ele>27.8</ele>
        <time>2019-07-11T09:44:47Z</time>
      </trkpt>
      <trkpt lat="48.80518" lon="-3.52747">
        <ele>27.5</ele>
        <time>2019-07-11T09:44:48Z</time>
      </trkpt>
      <trkpt lat="48.80513" lon="-3.52748">
        <ele>27.3</ele>
        <time>2019-07-11T09:44:49Z</time>
      </trkpt>
      <trkpt lat="48.80509" lon="-3.52746">
        <ele>27</ele>
        <time>2019-07-11T09:44:50Z</time>
      </trkpt>
      <trkpt lat="48.80504" lon="-3.52743">
        <ele>26.2</ele>
        <time>2019-07-11T09:44:51Z</time>
      </trkpt>
      <trkpt lat="48.805" lon="-3.52741">
        <ele>25.6</ele>
        <time>2019-07-11T09:44:52Z</time>
      </trkpt>
      <trkpt lat="48.80496" lon="-3.52738">
        <ele>24.7</ele>
        <time>2019-07-11T09:44:53Z</time>
      </trkpt>
      <trkpt lat="48.80491" lon="-3.52735">
        <ele>24.2</ele>
        <time>2019-07-11T09:44:54Z</time>
      </trkpt>
      <trkpt lat="48.80487" lon="-3.52732">
        <ele>23.9</ele>
        <time>2019-07-11T09:44:55Z</time>
      </trkpt>
      <trkpt lat="48.80483" lon="-3.52731">
        <ele>23.5</ele>
        <time>2019-07-11T09:44:56Z</time>
      </trkpt>
      <trkpt lat="48.80478" lon="-3.52729">
        <ele>23.1</ele>
        <time>2019-07-11T09:44:57Z</time>
      </trkpt>
      <trkpt lat="48.80475" lon="-3.52728">
        <ele>22.6</ele>
        <time>2019-07-11T09:44:58Z</time>
      </trkpt>
      <trkpt lat="48.80471" lon="-3.5273">
        <ele>22.7</ele>
        <time>2019-07-11T09:44:59Z</time>
      </trkpt>
      <trkpt lat="48.80468" lon="-3.5273">
        <ele>22.3</ele>
        <time>2019-07-11T09:45:00Z</time>
      </trkpt>
      <trkpt lat="48.80465" lon="-3.5273">
        <ele>22.2</ele>
        <time>2019-07-11T09:45:01Z</time>
      </trkpt>
      <trkpt lat="48.8046" lon="-3.52728">
        <ele>22.4</ele>
        <time>2019-07-11T09:45:02Z</time>
      </trkpt>
      <trkpt lat="48.80456" lon="-3.52727">
        <ele>22.9</ele>
        <time>2019-07-11T09:45:03Z</time>
      </trkpt>
      <trkpt lat="48.80452" lon="-3.52726">
        <ele>23.3</ele>
        <time>2019-07-11T09:45:04Z</time>
      </trkpt>
      <trkpt lat="48.80448" lon="-3.52726">
        <ele>23.6</ele>
        <time>2019-07-11T09:45:05Z</time>
      </trkpt>
      <trkpt lat="48.80444" lon="-3.52725">
        <ele>24</ele>
        <time>2019-07-11T09:45:06Z</time>
      </trkpt>
      <trkpt lat="48.80441" lon="-3.52724">
        <ele>24.3</ele>
        <time>2019-07-11T09:45:07Z</time>
      </trkpt>
      <trkpt lat="48.80437" lon="-3.52723">
        <ele>24.7</ele>
        <time>2019-07-11T09:45:08Z</time>
      </trkpt>
      <trkpt lat="48.80433" lon="-3.52723">
        <ele>24.6</ele>
        <time>2019-07-11T09:45:09Z</time>
      </trkpt>
      <trkpt lat="48.8043" lon="-3.52723">
        <ele>24.7</ele>
        <time>2019-07-11T09:45:10Z</time>
      </trkpt>
      <trkpt lat="48.80426" lon="-3.52723">
        <ele>25</ele>
        <time>2019-07-11T09:45:11Z</time>
      </trkpt>
      <trkpt lat="48.80423" lon="-3.52723">
        <ele>25</ele>
        <time>2019-07-11T09:45:12Z</time>
      </trkpt>
      <trkpt lat="48.80419" lon="-3.52723">
        <ele>25.3</ele>
        <time>2019-07-11T09:45:13Z</time>
      </trkpt>
      <trkpt lat="48.80416" lon="-3.52723">
        <ele>25.5</ele>
        <time>2019-07-11T09:45:14Z</time>
      </trkpt>
      <trkpt lat="48.80412" lon="-3.52722">
        <ele>25.7</ele>
        <time>2019-07-11T09:45:15Z</time>
      </trkpt>
      <trkpt lat="48.80409" lon="-3.52722">
        <ele>25.4</ele>
        <time>2019-07-11T09:45:16Z</time>
      </trkpt>
      <trkpt lat="48.80405" lon="-3.52722">
        <ele>25.3</ele>
        <time>2019-07-11T09:45:17Z</time>
      </trkpt>
      <trkpt lat="48.80401" lon="-3.52722">
        <ele>25.5</ele>
        <time>2019-07-11T09:45:18Z</time>
      </trkpt>
      <trkpt lat="48.80397" lon="-3.52722">
        <ele>25.5</ele>
        <time>2019-07-11T09:45:19Z</time>
      </trkpt>
      <trkpt lat="48.80394" lon="-3.52722">
        <ele>26.6</ele>
        <time>2019-07-11T09:45:20Z</time>
      </trkpt>
      <trkpt lat="48.8039" lon="-3.52723">
        <ele>27.5</ele>
        <time>2019-07-11T09:45:21Z</time>
      </trkpt>
      <trkpt lat="48.80387" lon="-3.52723">
        <ele>28</ele>
        <time>2019-07-11T09:45:22Z</time>
      </trkpt>
      <trkpt lat="48.80383" lon="-3.52724">
        <ele>28.7</ele>
        <time>2019-07-11T09:45:23Z</time>
      </trkpt>
      <trkpt lat="48.8038" lon="-3.52724">
        <ele>29.4</ele>
        <time>2019-07-11T09:45:24Z</time>
      </trkpt>
      <trkpt lat="48.80376" lon="-3.52725">
        <ele>29.3</ele>
        <time>2019-07-11T09:45:25Z</time>
      </trkpt>
      <trkpt lat="48.80372" lon="-3.52725">
        <ele>29.7</ele>
        <time>2019-07-11T09:45:26Z</time>
      </trkpt>
      <trkpt lat="48.80368" lon="-3.52726">
        <ele>29.7</ele>
        <time>2019-07-11T09:45:27Z</time>
      </trkpt>
      <trkpt lat="48.80364" lon="-3.52728">
        <ele>29.5</ele>
        <time>2019-07-11T09:45:28Z</time>
      </trkpt>
      <trkpt lat="48.80359" lon="-3.5273">
        <ele>29.2</ele>
        <time>2019-07-11T09:45:29Z</time>
      </trkpt>
      <trkpt lat="48.80355" lon="-3.52732">
        <ele>28.6</ele>
        <time>2019-07-11T09:45:30Z</time>
      </trkpt>
      <trkpt lat="48.80351" lon="-3.52735">
        <ele>27.9</ele>
        <time>2019-07-11T09:45:31Z</time>
      </trkpt>
      <trkpt lat="48.80347" lon="-3.52738">
        <ele>27.2</ele>
        <time>2019-07-11T09:45:32Z</time>
      </trkpt>
      <trkpt lat="48.80343" lon="-3.52741">
        <ele>26.5</ele>
        <time>2019-07-11T09:45:33Z</time>
      </trkpt>
      <trkpt lat="48.8034" lon="-3.52744">
        <ele>26.2</ele>
        <time>2019-07-11T09:45:34Z</time>
      </trkpt>
      <trkpt lat="48.80337" lon="-3.52747">
        <ele>26.1</ele>
        <time>2019-07-11T09:45:35Z</time>
      </trkpt>
      <trkpt lat="48.80334" lon="-3.52752">
        <ele>26.3</ele>
        <time>2019-07-11T09:45:36Z</time>
      </trkpt>
      <trkpt lat="48.80331" lon="-3.52755">
        <ele>26.7</ele>
        <time>2019-07-11T09:45:37Z</time>
      </trkpt>
      <trkpt lat="48.80328" lon="-3.52759">
        <ele>27</ele>
        <time>2019-07-11T09:45:38Z</time>
      </trkpt>
      <trkpt lat="48.80324" lon="-3.52763">
        <ele>27.2</ele>
        <time>2019-07-11T09:45:39Z</time>
      </trkpt>
      <trkpt lat="48.8032" lon="-3.52766">
        <ele>27.5</ele>
        <time>2019-07-11T09:45:40Z</time>
      </trkpt>
      <trkpt lat="48.80316" lon="-3.52769">
        <ele>27.8</ele>
        <time>2019-07-11T09:45:41Z</time>
      </trkpt>
      <trkpt lat="48.80312" lon="-3.52773">
        <ele>27.9</ele>
        <time>2019-07-11T09:45:42Z</time>
      </trkpt>
      <trkpt lat="48.80307" lon="-3.52776">
        <ele>28.3</ele>
        <time>2019-07-11T09:45:43Z</time>
      </trkpt>
      <trkpt lat="48.80303" lon="-3.52779">
        <ele>28.6</ele>
        <time>2019-07-11T09:45:44Z</time>
      </trkpt>
      <trkpt lat="48.80299" lon="-3.52782">
        <ele>28.8</ele>
        <time>2019-07-11T09:45:45Z</time>
      </trkpt>
      <trkpt lat="48.80295" lon="-3.52786">
        <ele>28.9</ele>
        <time>2019-07-11T09:45:46Z</time>
      </trkpt>
      <trkpt lat="48.8029" lon="-3.52789">
        <ele>28.9</ele>
        <time>2019-07-11T09:45:47Z</time>
      </trkpt>
      <trkpt lat="48.80285" lon="-3.52792">
        <ele>28.7</ele>
        <time>2019-07-11T09:45:48Z</time>
      </trkpt>
      <trkpt lat="48.8028" lon="-3.52795">
        <ele>28.8</ele>
        <time>2019-07-11T09:45:49Z</time>
      </trkpt>
      <trkpt lat="48.80275" lon="-3.52797">
        <ele>28.9</ele>
        <time>2019-07-11T09:45:50Z</time>
      </trkpt>
      <trkpt lat="48.80271" lon="-3.528">
        <ele>28.9</ele>
        <time>2019-07-11T09:45:51Z</time>
      </trkpt>
      <trkpt lat="48.80266" lon="-3.52802">
        <ele>29.1</ele>
        <time>2019-07-11T09:45:52Z</time>
      </trkpt>
      <trkpt lat="48.80262" lon="-3.52805">
        <ele>29.4</ele>
        <time>2019-07-11T09:45:53Z</time>
      </trkpt>
      <trkpt lat="48.80257" lon="-3.52806">
        <ele>29.9</ele>
        <time>2019-07-11T09:45:54Z</time>
      </trkpt>
      <trkpt lat="48.80253" lon="-3.52808">
        <ele>29.9</ele>
        <time>2019-07-11T09:45:55Z</time>
      </trkpt>
      <trkpt lat="48.80249" lon="-3.5281">
        <ele>29.7</ele>
        <time>2019-07-11T09:45:56Z</time>
      </trkpt>
      <trkpt lat="48.80244" lon="-3.52811">
        <ele>29.7</ele>
        <time>2019-07-11T09:45:57Z</time>
      </trkpt>
      <trkpt lat="48.80239" lon="-3.52813">
        <ele>29.4</ele>
        <time>2019-07-11T09:45:58Z</time>
      </trkpt>
      <trkpt lat="48.80234" lon="-3.52814">
        <ele>29.2</ele>
        <time>2019-07-11T09:45:59Z</time>
      </trkpt>
      <trkpt lat="48.8023" lon="-3.52815">
        <ele>29.5</ele>
        <time>2019-07-11T09:46:00Z</time>
      </trkpt>
      <trkpt lat="48.80225" lon="-3.52815">
        <ele>29.3</ele>
        <time>2019-07-11T09:46:01Z</time>
      </trkpt>
      <trkpt lat="48.80221" lon="-3.52815">
        <ele>28.9</ele>
        <time>2019-07-11T09:46:02Z</time>
      </trkpt>
      <trkpt lat="48.80217" lon="-3.52813">
        <ele>28.5</ele>
        <time>2019-07-11T09:46:03Z</time>
      </trkpt>
      <trkpt lat="48.80213" lon="-3.52812">
        <ele>28.5</ele>
        <time>2019-07-11T09:46:04Z</time>
      </trkpt>
      <trkpt lat="48.80209" lon="-3.5281">
        <ele>28.3</ele>
        <time>2019-07-11T09:46:05Z</time>
      </trkpt>
      <trkpt lat="48.80205" lon="-3.52807">
        <ele>28</ele>
        <time>2019-07-11T09:46:06Z</time>
      </trkpt>
      <trkpt lat="48.80201" lon="-3.52804">
        <ele>27.7</ele>
        <time>2019-07-11T09:46:07Z</time>
      </trkpt>
      <trkpt lat="48.80197" lon="-3.52802">
        <ele>27.5</ele>
        <time>2019-07-11T09:46:08Z</time>
      </trkpt>
      <trkpt lat="48.80193" lon="-3.52801">
        <ele>27.3</ele>
        <time>2019-07-11T09:46:09Z</time>
      </trkpt>
      <trkpt lat="48.8019" lon="-3.52801">
        <ele>27</ele>
        <time>2019-07-11T09:46:10Z</time>
      </trkpt>
      <trkpt lat="48.80186" lon="-3.52803">
        <ele>26.7</ele>
        <time>2019-07-11T09:46:11Z</time>
      </trkpt>
      <trkpt lat="48.80183" lon="-3.52809">
        <ele>26.5</ele>
        <time>2019-07-11T09:46:12Z</time>
      </trkpt>
      <trkpt lat="48.8018" lon="-3.52816">
        <ele>26</ele>
        <time>2019-07-11T09:46:13Z</time>
      </trkpt>
      <trkpt lat="48.80177" lon="-3.52822">
        <ele>25.7</ele>
        <time>2019-07-11T09:46:14Z</time>
      </trkpt>
      <trkpt lat="48.80174" lon="-3.52828">
        <ele>25.4</ele>
        <time>2019-07-11T09:46:15Z</time>
      </trkpt>
      <trkpt lat="48.80172" lon="-3.52835">
        <ele>25.3</ele>
        <time>2019-07-11T09:46:16Z</time>
      </trkpt>
      <trkpt lat="48.80169" lon="-3.52841">
        <ele>25.3</ele>
        <time>2019-07-11T09:46:17Z</time>
      </trkpt>
      <trkpt lat="48.80166" lon="-3.52847">
        <ele>25.3</ele>
        <time>2019-07-11T09:46:18Z</time>
      </trkpt>
      <trkpt lat="48.80163" lon="-3.52853">
        <ele>25.3</ele>
        <time>2019-07-11T09:46:19Z</time>
      </trkpt>
      <trkpt lat="48.8016" lon="-3.52859">
        <ele>25.3</ele>
        <time>2019-07-11T09:46:20Z</time>
      </trkpt>
      <trkpt lat="48.80156" lon="-3.52866">
        <ele>25.1</ele>
        <time>2019-07-11T09:46:21Z</time>
      </trkpt>
      <trkpt lat="48.80153" lon="-3.52873">
        <ele>25</ele>
        <time>2019-07-11T09:46:22Z</time>
      </trkpt>
      <trkpt lat="48.80151" lon="-3.5288">
        <ele>25.6</ele>
        <time>2019-07-11T09:46:23Z</time>
      </trkpt>
      <trkpt lat="48.80148" lon="-3.52887">
        <ele>25.5</ele>
        <time>2019-07-11T09:46:24Z</time>
      </trkpt>
      <trkpt lat="48.80145" lon="-3.52894">
        <ele>25.4</ele>
        <time>2019-07-11T09:46:25Z</time>
      </trkpt>
      <trkpt lat="48.80141" lon="-3.52901">
        <ele>25.5</ele>
        <time>2019-07-11T09:46:26Z</time>
      </trkpt>
      <trkpt lat="48.80138" lon="-3.52908">
        <ele>25.4</ele>
        <time>2019-07-11T09:46:27Z</time>
      </trkpt>
      <trkpt lat="48.80133" lon="-3.52914">
        <ele>25.2</ele>
        <time>2019-07-11T09:46:28Z</time>
      </trkpt>
      <trkpt lat="48.8013" lon="-3.5292">
        <ele>25</ele>
        <time>2019-07-11T09:46:29Z</time>
      </trkpt>
      <trkpt lat="48.80127" lon="-3.52927">
        <ele>25.4</ele>
        <time>2019-07-11T09:46:30Z</time>
      </trkpt>
      <trkpt lat="48.80124" lon="-3.52934">
        <ele>25.8</ele>
        <time>2019-07-11T09:46:31Z</time>
      </trkpt>
      <trkpt lat="48.80121" lon="-3.5294">
        <ele>25.9</ele>
        <time>2019-07-11T09:46:32Z</time>
      </trkpt>
      <trkpt lat="48.80117" lon="-3.52946">
        <ele>25.7</ele>
        <time>2019-07-11T09:46:33Z</time>
      </trkpt>
      <trkpt lat="48.80115" lon="-3.52952">
        <ele>26.2</ele>
        <time>2019-07-11T09:46:34Z</time>
      </trkpt>
      <trkpt lat="48.80113" lon="-3.52958">
        <ele>27</ele>
        <time>2019-07-11T09:46:35Z</time>
      </trkpt>
      <trkpt lat="48.80111" lon="-3.52963">
        <ele>27.9</ele>
        <time>2019-07-11T09:46:36Z</time>
      </trkpt>
      <trkpt lat="48.80108" lon="-3.52968">
        <ele>28.4</ele>
        <time>2019-07-11T09:46:37Z</time>
      </trkpt>
      <trkpt lat="48.80105" lon="-3.52972">
        <ele>28.9</ele>
        <time>2019-07-11T09:46:38Z</time>
      </trkpt>
      <trkpt lat="48.80102" lon="-3.52977">
        <ele>29.1</ele>
        <time>2019-07-11T09:46:39Z</time>
      </trkpt>
      <trkpt lat="48.80099" lon="-3.52981">
        <ele>28.5</ele>
        <time>2019-07-11T09:46:40Z</time>
      </trkpt>
      <trkpt lat="48.80096" lon="-3.52986">
        <ele>28.2</ele>
        <time>2019-07-11T09:46:41Z</time>
      </trkpt>
      <trkpt lat="48.80094" lon="-3.52991">
        <ele>27.8</ele>
        <time>2019-07-11T09:46:42Z</time>
      </trkpt>
      <trkpt lat="48.80092" lon="-3.52995">
        <ele>27.5</ele>
        <time>2019-07-11T09:46:43Z</time>
      </trkpt>
      <trkpt lat="48.8009" lon="-3.53">
        <ele>28</ele>
        <time>2019-07-11T09:46:44Z</time>
      </trkpt>
      <trkpt lat="48.80088" lon="-3.53004">
        <ele>27.8</ele>
        <time>2019-07-11T09:46:45Z</time>
      </trkpt>
      <trkpt lat="48.80084" lon="-3.53008">
        <ele>27.7</ele>
        <time>2019-07-11T09:46:46Z</time>
      </trkpt>
      <trkpt lat="48.80081" lon="-3.53013">
        <ele>27.6</ele>
        <time>2019-07-11T09:46:47Z</time>
      </trkpt>
      <trkpt lat="48.80079" lon="-3.53019">
        <ele>27.8</ele>
        <time>2019-07-11T09:46:48Z</time>
      </trkpt>
      <trkpt lat="48.80076" lon="-3.53023">
        <ele>28</ele>
        <time>2019-07-11T09:46:49Z</time>
      </trkpt>
      <trkpt lat="48.80072" lon="-3.53027">
        <ele>27.8</ele>
        <time>2019-07-11T09:46:50Z</time>
      </trkpt>
      <trkpt lat="48.80069" lon="-3.53032">
        <ele>27.3</ele>
        <time>2019-07-11T09:46:51Z</time>
      </trkpt>
      <trkpt lat="48.80065" lon="-3.53038">
        <ele>26.8</ele>
        <time>2019-07-11T09:46:52Z</time>
      </trkpt>
      <trkpt lat="48.80061" lon="-3.53043">
        <ele>26.5</ele>
        <time>2019-07-11T09:46:53Z</time>
      </trkpt>
      <trkpt lat="48.80057" lon="-3.53048">
        <ele>25.9</ele>
        <time>2019-07-11T09:46:54Z</time>
      </trkpt>
      <trkpt lat="48.80053" lon="-3.53053">
        <ele>25.2</ele>
        <time>2019-07-11T09:46:55Z</time>
      </trkpt>
      <trkpt lat="48.80048" lon="-3.53058">
        <ele>24.6</ele>
        <time>2019-07-11T09:46:56Z</time>
      </trkpt>
      <trkpt lat="48.80044" lon="-3.53063">
        <ele>24.1</ele>
        <time>2019-07-11T09:46:57Z</time>
      </trkpt>
      <trkpt lat="48.8004" lon="-3.53069">
        <ele>23.6</ele>
        <time>2019-07-11T09:46:58Z</time>
      </trkpt>
      <trkpt lat="48.80036" lon="-3.53074">
        <ele>23.1</ele>
        <time>2019-07-11T09:46:59Z</time>
      </trkpt>
      <trkpt lat="48.80031" lon="-3.5308">
        <ele>22.6</ele>
        <time>2019-07-11T09:47:00Z</time>
      </trkpt>
      <trkpt lat="48.80027" lon="-3.53085">
        <ele>22</ele>
        <time>2019-07-11T09:47:01Z</time>
      </trkpt>
      <trkpt lat="48.80022" lon="-3.53091">
        <ele>21.6</ele>
        <time>2019-07-11T09:47:02Z</time>
      </trkpt>
      <trkpt lat="48.80018" lon="-3.53097">
        <ele>21.2</ele>
        <time>2019-07-11T09:47:03Z</time>
      </trkpt>
      <trkpt lat="48.80014" lon="-3.53104">
        <ele>20.8</ele>
        <time>2019-07-11T09:47:04Z</time>
      </trkpt>
      <trkpt lat="48.8001" lon="-3.5311">
        <ele>20.3</ele>
        <time>2019-07-11T09:47:05Z</time>
      </trkpt>
      <trkpt lat="48.80007" lon="-3.53115">
        <ele>19.9</ele>
        <time>2019-07-11T09:47:06Z</time>
      </trkpt>
      <trkpt lat="48.80005" lon="-3.5312">
        <ele>19.8</ele>
        <time>2019-07-11T09:47:07Z</time>
      </trkpt>
      <trkpt lat="48.80004" lon="-3.53127">
        <ele>20.5</ele>
        <time>2019-07-11T09:47:08Z</time>
      </trkpt>
      <trkpt lat="48.80005" lon="-3.53135">
        <ele>21.2</ele>
        <time>2019-07-11T09:47:09Z</time>
      </trkpt>
      <trkpt lat="48.80007" lon="-3.53141">
        <ele>21.6</ele>
        <time>2019-07-11T09:47:10Z</time>
      </trkpt>
      <trkpt lat="48.8001" lon="-3.53147">
        <ele>21.8</ele>
        <time>2019-07-11T09:47:11Z</time>
      </trkpt>
      <trkpt lat="48.80013" lon="-3.53153">
        <ele>22.4</ele>
        <time>2019-07-11T09:47:12Z</time>
      </trkpt>
      <trkpt lat="48.80014" lon="-3.53159">
        <ele>23</ele>
        <time>2019-07-11T09:47:13Z</time>
      </trkpt>
      <trkpt lat="48.80016" lon="-3.53164">
        <ele>23.9</ele>
        <time>2019-07-11T09:47:14Z</time>
      </trkpt>
      <trkpt lat="48.80019" lon="-3.53169">
        <ele>24.3</ele>
        <time>2019-07-11T09:47:15Z</time>
      </trkpt>
      <trkpt lat="48.80021" lon="-3.53175">
        <ele>24.5</ele>
        <time>2019-07-11T09:47:16Z</time>
      </trkpt>
      <trkpt lat="48.80023" lon="-3.53181">
        <ele>24.7</ele>
        <time>2019-07-11T09:47:17Z</time>
      </trkpt>
      <trkpt lat="48.80025" lon="-3.53187">
        <ele>25.1</ele>
        <time>2019-07-11T09:47:18Z</time>
      </trkpt>
      <trkpt lat="48.80027" lon="-3.53193">
        <ele>25.3</ele>
        <time>2019-07-11T09:47:19Z</time>
      </trkpt>
      <trkpt lat="48.80029" lon="-3.53199">
        <ele>25.7</ele>
        <time>2019-07-11T09:47:20Z</time>
      </trkpt>
      <trkpt lat="48.80031" lon="-3.53204">
        <ele>25.8</ele>
        <time>2019-07-11T09:47:21Z</time>
      </trkpt>
      <trkpt lat="48.80035" lon="-3.53209">
        <ele>25.8</ele>
        <time>2019-07-11T09:47:22Z</time>
      </trkpt>
      <trkpt lat="48.80039" lon="-3.53213">
        <ele>26</ele>
        <time>2019-07-11T09:47:23Z</time>
      </trkpt>
      <trkpt lat="48.80043" lon="-3.53217">
        <ele>25.9</ele>
        <time>2019-07-11T09:47:24Z</time>
      </trkpt>
      <trkpt lat="48.80047" lon="-3.53219">
        <ele>26.3</ele>
        <time>2019-07-11T09:47:25Z</time>
      </trkpt>
      <trkpt lat="48.80051" lon="-3.53221">
        <ele>26.7</ele>
        <time>2019-07-11T09:47:26Z</time>
      </trkpt>
      <trkpt lat="48.80055" lon="-3.53224">
        <ele>26.9</ele>
        <time>2019-07-11T09:47:27Z</time>
      </trkpt>
      <trkpt lat="48.80059" lon="-3.53226">
        <ele>27.6</ele>
        <time>2019-07-11T09:47:28Z</time>
      </trkpt>
      <trkpt lat="48.80064" lon="-3.53229">
        <ele>27.9</ele>
        <time>2019-07-11T09:47:29Z</time>
      </trkpt>
      <trkpt lat="48.80069" lon="-3.53232">
        <ele>28.2</ele>
        <time>2019-07-11T09:47:30Z</time>
      </trkpt>
      <trkpt lat="48.80073" lon="-3.53234">
        <ele>28.3</ele>
        <time>2019-07-11T09:47:31Z</time>
      </trkpt>
      <trkpt lat="48.80077" lon="-3.53236">
        <ele>28</ele>
        <time>2019-07-11T09:47:32Z</time>
      </trkpt>
      <trkpt lat="48.80081" lon="-3.53238">
        <ele>27.3</ele>
        <time>2019-07-11T09:47:33Z</time>
      </trkpt>
      <trkpt lat="48.80084" lon="-3.5324">
        <ele>27.1</ele>
        <time>2019-07-11T09:47:34Z</time>
      </trkpt>
      <trkpt lat="48.80086" lon="-3.53242">
        <ele>26.9</ele>
        <time>2019-07-11T09:47:35Z</time>
      </trkpt>
      <trkpt lat="48.80088" lon="-3.53244">
        <ele>26.7</ele>
        <time>2019-07-11T09:47:36Z</time>
      </trkpt>
      <trkpt lat="48.8009" lon="-3.53246">
        <ele>25.8</ele>
        <time>2019-07-11T09:47:37Z</time>
      </trkpt>
      <trkpt lat="48.80092" lon="-3.53248">
        <ele>25.9</ele>
        <time>2019-07-11T09:47:38Z</time>
      </trkpt>
      <trkpt lat="48.80093" lon="-3.53249">
        <ele>25.5</ele>
        <time>2019-07-11T09:47:39Z</time>
      </trkpt>
      <trkpt lat="48.80095" lon="-3.53251">
        <ele>25.3</ele>
        <time>2019-07-11T09:47:40Z</time>
      </trkpt>
      <trkpt lat="48.80096" lon="-3.53253">
        <ele>24.8</ele>
        <time>2019-07-11T09:47:41Z</time>
      </trkpt>
      <trkpt lat="48.80098" lon="-3.53256">
        <ele>24.4</ele>
        <time>2019-07-11T09:47:42Z</time>
      </trkpt>
      <trkpt lat="48.801" lon="-3.53258">
        <ele>24.1</ele>
        <time>2019-07-11T09:47:43Z</time>
      </trkpt>
      <trkpt lat="48.80102" lon="-3.5326">
        <ele>23</ele>
        <time>2019-07-11T09:47:44Z</time>
      </trkpt>
      <trkpt lat="48.80104" lon="-3.53261">
        <ele>22.2</ele>
        <time>2019-07-11T09:47:45Z</time>
      </trkpt>
      <trkpt lat="48.80106" lon="-3.53261">
        <ele>21.4</ele>
        <time>2019-07-11T09:47:46Z</time>
      </trkpt>
      <trkpt lat="48.80108" lon="-3.53261">
        <ele>20.7</ele>
        <time>2019-07-11T09:47:47Z</time>
      </trkpt>
      <trkpt lat="48.8011" lon="-3.53262">
        <ele>20</ele>
        <time>2019-07-11T09:47:48Z</time>
      </trkpt>
      <trkpt lat="48.80111" lon="-3.53263">
        <ele>19.7</ele>
        <time>2019-07-11T09:47:49Z</time>
      </trkpt>
      <trkpt lat="48.80111" lon="-3.53265">
        <ele>19</ele>
        <time>2019-07-11T09:47:50Z</time>
      </trkpt>
      <trkpt lat="48.80111" lon="-3.53266">
        <ele>18.2</ele>
        <time>2019-07-11T09:47:51Z</time>
      </trkpt>
      <trkpt lat="48.80109" lon="-3.53266">
        <ele>17.6</ele>
        <time>2019-07-11T09:47:52Z</time>
      </trkpt>
      <trkpt lat="48.80107" lon="-3.53264">
        <ele>17.3</ele>
        <time>2019-07-11T09:47:53Z</time>
      </trkpt>
      <trkpt lat="48.80105" lon="-3.53263">
        <ele>17.2</ele>
        <time>2019-07-11T09:47:54Z</time>
      </trkpt>
      <trkpt lat="48.80103" lon="-3.53261">
        <ele>17.1</ele>
        <time>2019-07-11T09:47:55Z</time>
      </trkpt>
      <trkpt lat="48.801" lon="-3.53261">
        <ele>16.7</ele>
        <time>2019-07-11T09:47:56Z</time>
      </trkpt>
      <trkpt lat="48.80098" lon="-3.5326">
        <ele>16.5</ele>
        <time>2019-07-11T09:47:57Z</time>
      </trkpt>
      <trkpt lat="48.80095" lon="-3.53259">
        <ele>16.3</ele>
        <time>2019-07-11T09:47:58Z</time>
      </trkpt>
      <trkpt lat="48.80092" lon="-3.53258">
        <ele>16.3</ele>
        <time>2019-07-11T09:47:59Z</time>
      </trkpt>
      <trkpt lat="48.8009" lon="-3.53258">
        <ele>16.5</ele>
        <time>2019-07-11T09:48:00Z</time>
      </trkpt>
      <trkpt lat="48.80087" lon="-3.53258">
        <ele>16.3</ele>
        <time>2019-07-11T09:48:01Z</time>
      </trkpt>
      <trkpt lat="48.80084" lon="-3.53258">
        <ele>16.4</ele>
        <time>2019-07-11T09:48:02Z</time>
      </trkpt>
      <trkpt lat="48.80081" lon="-3.53258">
        <ele>16.4</ele>
        <time>2019-07-11T09:48:03Z</time>
      </trkpt>
      <trkpt lat="48.80079" lon="-3.53259">
        <ele>16.5</ele>
        <time>2019-07-11T09:48:04Z</time>
      </trkpt>
      <trkpt lat="48.80075" lon="-3.5326">
        <ele>16.5</ele>
        <time>2019-07-11T09:48:05Z</time>
      </trkpt>
      <trkpt lat="48.80071" lon="-3.53261">
        <ele>16.2</ele>
        <time>2019-07-11T09:48:06Z</time>
      </trkpt>
      <trkpt lat="48.80067" lon="-3.53262">
        <ele>16.3</ele>
        <time>2019-07-11T09:48:07Z</time>
      </trkpt>
      <trkpt lat="48.80063" lon="-3.53264">
        <ele>15.9</ele>
        <time>2019-07-11T09:48:08Z</time>
      </trkpt>
      <trkpt lat="48.80057" lon="-3.53265">
        <ele>15.9</ele>
        <time>2019-07-11T09:48:09Z</time>
      </trkpt>
      <trkpt lat="48.80052" lon="-3.53267">
        <ele>15.8</ele>
        <time>2019-07-11T09:48:10Z</time>
      </trkpt>
      <trkpt lat="48.80048" lon="-3.5327">
        <ele>15.7</ele>
        <time>2019-07-11T09:48:11Z</time>
      </trkpt>
      <trkpt lat="48.80043" lon="-3.53274">
        <ele>15.3</ele>
        <time>2019-07-11T09:48:12Z</time>
      </trkpt>
      <trkpt lat="48.80039" lon="-3.53278">
        <ele>15.2</ele>
        <time>2019-07-11T09:48:13Z</time>
      </trkpt>
      <trkpt lat="48.80035" lon="-3.53283">
        <ele>15.1</ele>
        <time>2019-07-11T09:48:14Z</time>
      </trkpt>
      <trkpt lat="48.80031" lon="-3.53287">
        <ele>15.2</ele>
        <time>2019-07-11T09:48:15Z</time>
      </trkpt>
      <trkpt lat="48.80028" lon="-3.53291">
        <ele>15.2</ele>
        <time>2019-07-11T09:48:16Z</time>
      </trkpt>
      <trkpt lat="48.80025" lon="-3.53296">
        <ele>15.2</ele>
        <time>2019-07-11T09:48:17Z</time>
      </trkpt>
      <trkpt lat="48.80022" lon="-3.533">
        <ele>15.3</ele>
        <time>2019-07-11T09:48:18Z</time>
      </trkpt>
      <trkpt lat="48.80019" lon="-3.53304">
        <ele>15.4</ele>
        <time>2019-07-11T09:48:19Z</time>
      </trkpt>
      <trkpt lat="48.80016" lon="-3.53307">
        <ele>15.3</ele>
        <time>2019-07-11T09:48:20Z</time>
      </trkpt>
      <trkpt lat="48.80012" lon="-3.5331">
        <ele>15</ele>
        <time>2019-07-11T09:48:21Z</time>
      </trkpt>
      <trkpt lat="48.80008" lon="-3.53312">
        <ele>14.8</ele>
        <time>2019-07-11T09:48:22Z</time>
      </trkpt>
      <trkpt lat="48.80005" lon="-3.53314">
        <ele>14.8</ele>
        <time>2019-07-11T09:48:23Z</time>
      </trkpt>
      <trkpt lat="48.80001" lon="-3.53315">
        <ele>14.9</ele>
        <time>2019-07-11T09:48:24Z</time>
      </trkpt>
      <trkpt lat="48.79997" lon="-3.53315">
        <ele>15</ele>
        <time>2019-07-11T09:48:25Z</time>
      </trkpt>
      <trkpt lat="48.79992" lon="-3.53314">
        <ele>14.8</ele>
        <time>2019-07-11T09:48:26Z</time>
      </trkpt>
      <trkpt lat="48.79989" lon="-3.53312">
        <ele>14.7</ele>
        <time>2019-07-11T09:48:27Z</time>
      </trkpt>
      <trkpt lat="48.79985" lon="-3.53309">
        <ele>14.7</ele>
        <time>2019-07-11T09:48:28Z</time>
      </trkpt>
      <trkpt lat="48.79981" lon="-3.53307">
        <ele>14.7</ele>
        <time>2019-07-11T09:48:29Z</time>
      </trkpt>
      <trkpt lat="48.79978" lon="-3.53304">
        <ele>14.6</ele>
        <time>2019-07-11T09:48:30Z</time>
      </trkpt>
      <trkpt lat="48.79975" lon="-3.533">
        <ele>14.6</ele>
        <time>2019-07-11T09:48:31Z</time>
      </trkpt>
      <trkpt lat="48.79971" lon="-3.53297">
        <ele>14.7</ele>
        <time>2019-07-11T09:48:32Z</time>
      </trkpt>
      <trkpt lat="48.79968" lon="-3.53293">
        <ele>14.5</ele>
        <time>2019-07-11T09:48:33Z</time>
      </trkpt>
      <trkpt lat="48.79964" lon="-3.5329">
        <ele>14.3</ele>
        <time>2019-07-11T09:48:34Z</time>
      </trkpt>
      <trkpt lat="48.7996" lon="-3.53288">
        <ele>14</ele>
        <time>2019-07-11T09:48:35Z</time>
      </trkpt>
      <trkpt lat="48.79956" lon="-3.53286">
        <ele>13.7</ele>
        <time>2019-07-11T09:48:36Z</time>
      </trkpt>
      <trkpt lat="48.79953" lon="-3.53283">
        <ele>13.6</ele>
        <time>2019-07-11T09:48:37Z</time>
      </trkpt>
      <trkpt lat="48.79949" lon="-3.5328">
        <ele>13.6</ele>
        <time>2019-07-11T09:48:38Z</time>
      </trkpt>
      <trkpt lat="48.79946" lon="-3.53278">
        <ele>13.7</ele>
        <time>2019-07-11T09:48:39Z</time>
      </trkpt>
      <trkpt lat="48.79943" lon="-3.53277">
        <ele>13.6</ele>
        <time>2019-07-11T09:48:40Z</time>
      </trkpt>
      <trkpt lat="48.79939" lon="-3.53276">
        <ele>13.8</ele>
        <time>2019-07-11T09:48:41Z</time>
      </trkpt>
      <trkpt lat="48.79934" lon="-3.53276">
        <ele>13.9</ele>
        <time>2019-07-11T09:48:42Z</time>
      </trkpt>
      <trkpt lat="48.79931" lon="-3.53276">
        <ele>13.8</ele>
        <time>2019-07-11T09:48:43Z</time>
      </trkpt>
      <trkpt lat="48.79927" lon="-3.53275">
        <ele>13.9</ele>
        <time>2019-07-11T09:48:44Z</time>
      </trkpt>
      <trkpt lat="48.79923" lon="-3.53275">
        <ele>14.1</ele>
        <time>2019-07-11T09:48:45Z</time>
      </trkpt>
      <trkpt lat="48.7992" lon="-3.53275">
        <ele>14.1</ele>
        <time>2019-07-11T09:48:46Z</time>
      </trkpt>
      <trkpt lat="48.79917" lon="-3.53276">
        <ele>14.1</ele>
        <time>2019-07-11T09:48:47Z</time>
      </trkpt>
      <trkpt lat="48.79913" lon="-3.53275">
        <ele>14.2</ele>
        <time>2019-07-11T09:48:48Z</time>
      </trkpt>
      <trkpt lat="48.7991" lon="-3.53276">
        <ele>14.7</ele>
        <time>2019-07-11T09:48:49Z</time>
      </trkpt>
      <trkpt lat="48.79907" lon="-3.53275">
        <ele>15.3</ele>
        <time>2019-07-11T09:48:50Z</time>
      </trkpt>
      <trkpt lat="48.79903" lon="-3.53275">
        <ele>16</ele>
        <time>2019-07-11T09:48:51Z</time>
      </trkpt>
      <trkpt lat="48.79899" lon="-3.53275">
        <ele>16.8</ele>
        <time>2019-07-11T09:48:52Z</time>
      </trkpt>
      <trkpt lat="48.79896" lon="-3.53274">
        <ele>17.1</ele>
        <time>2019-07-11T09:48:53Z</time>
      </trkpt>
      <trkpt lat="48.79893" lon="-3.53274">
        <ele>16.6</ele>
        <time>2019-07-11T09:48:54Z</time>
      </trkpt>
      <trkpt lat="48.7989" lon="-3.53275">
        <ele>16.5</ele>
        <time>2019-07-11T09:48:55Z</time>
      </trkpt>
      <trkpt lat="48.79887" lon="-3.53275">
        <ele>16.2</ele>
        <time>2019-07-11T09:48:56Z</time>
      </trkpt>
      <trkpt lat="48.79884" lon="-3.53275">
        <ele>16.7</ele>
        <time>2019-07-11T09:48:57Z</time>
      </trkpt>
      <trkpt lat="48.79881" lon="-3.53276">
        <ele>17.5</ele>
        <time>2019-07-11T09:48:58Z</time>
      </trkpt>
      <trkpt lat="48.79879" lon="-3.53277">
        <ele>17.9</ele>
        <time>2019-07-11T09:48:59Z</time>
      </trkpt>
      <trkpt lat="48.79876" lon="-3.53279">
        <ele>18.6</ele>
        <time>2019-07-11T09:49:00Z</time>
      </trkpt>
      <trkpt lat="48.79873" lon="-3.5328">
        <ele>19.4</ele>
        <time>2019-07-11T09:49:01Z</time>
      </trkpt>
      <trkpt lat="48.79871" lon="-3.53283">
        <ele>20.6</ele>
        <time>2019-07-11T09:49:02Z</time>
      </trkpt>
      <trkpt lat="48.7987" lon="-3.53286">
        <ele>21.5</ele>
        <time>2019-07-11T09:49:03Z</time>
      </trkpt>
      <trkpt lat="48.79867" lon="-3.53289">
        <ele>22</ele>
        <time>2019-07-11T09:49:04Z</time>
      </trkpt>
      <trkpt lat="48.79866" lon="-3.53293">
        <ele>22.2</ele>
        <time>2019-07-11T09:49:05Z</time>
      </trkpt>
      <trkpt lat="48.79865" lon="-3.53297">
        <ele>22.7</ele>
        <time>2019-07-11T09:49:06Z</time>
      </trkpt>
      <trkpt lat="48.79864" lon="-3.53302">
        <ele>22.9</ele>
        <time>2019-07-11T09:49:07Z</time>
      </trkpt>
      <trkpt lat="48.79863" lon="-3.53307">
        <ele>23.2</ele>
        <time>2019-07-11T09:49:08Z</time>
      </trkpt>
      <trkpt lat="48.79862" lon="-3.53311">
        <ele>23.4</ele>
        <time>2019-07-11T09:49:09Z</time>
      </trkpt>
      <trkpt lat="48.79862" lon="-3.53316">
        <ele>23.6</ele>
        <time>2019-07-11T09:49:10Z</time>
      </trkpt>
      <trkpt lat="48.79861" lon="-3.53321">
        <ele>24</ele>
        <time>2019-07-11T09:49:11Z</time>
      </trkpt>
      <trkpt lat="48.79861" lon="-3.53326">
        <ele>24.6</ele>
        <time>2019-07-11T09:49:12Z</time>
      </trkpt>
      <trkpt lat="48.7986" lon="-3.53332">
        <ele>25.3</ele>
        <time>2019-07-11T09:49:13Z</time>
      </trkpt>
      <trkpt lat="48.7986" lon="-3.53337">
        <ele>26</ele>
        <time>2019-07-11T09:49:14Z</time>
      </trkpt>
      <trkpt lat="48.7986" lon="-3.53343">
        <ele>26.7</ele>
        <time>2019-07-11T09:49:15Z</time>
      </trkpt>
      <trkpt lat="48.7986" lon="-3.53348">
        <ele>26.9</ele>
        <time>2019-07-11T09:49:16Z</time>
      </trkpt>
      <trkpt lat="48.79862" lon="-3.53353">
        <ele>25.6</ele>
        <time>2019-07-11T09:49:17Z</time>
      </trkpt>
      <trkpt lat="48.79862" lon="-3.53358">
        <ele>25.5</ele>
        <time>2019-07-11T09:49:18Z</time>
      </trkpt>
      <trkpt lat="48.79863" lon="-3.53364">
        <ele>25.4</ele>
        <time>2019-07-11T09:49:19Z</time>
      </trkpt>
      <trkpt lat="48.79863" lon="-3.53368">
        <ele>25.2</ele>
        <time>2019-07-11T09:49:20Z</time>
      </trkpt>
      <trkpt lat="48.79863" lon="-3.53373">
        <ele>24.9</ele>
        <time>2019-07-11T09:49:21Z</time>
      </trkpt>
      <trkpt lat="48.79863" lon="-3.53377">
        <ele>24.6</ele>
        <time>2019-07-11T09:49:22Z</time>
      </trkpt>
      <trkpt lat="48.79863" lon="-3.53382">
        <ele>24.2</ele>
        <time>2019-07-11T09:49:23Z</time>
      </trkpt>
      <trkpt lat="48.79862" lon="-3.53388">
        <ele>24.2</ele>
        <time>2019-07-11T09:49:24Z</time>
      </trkpt>
      <trkpt lat="48.79862" lon="-3.53393">
        <ele>23.8</ele>
        <time>2019-07-11T09:49:25Z</time>
      </trkpt>
      <trkpt lat="48.79862" lon="-3.53399">
        <ele>23.8</ele>
        <time>2019-07-11T09:49:26Z</time>
      </trkpt>
      <trkpt lat="48.79862" lon="-3.53404">
        <ele>23.7</ele>
        <time>2019-07-11T09:49:27Z</time>
      </trkpt>
      <trkpt lat="48.79862" lon="-3.53409">
        <ele>23.4</ele>
        <time>2019-07-11T09:49:28Z</time>
      </trkpt>
      <trkpt lat="48.79862" lon="-3.53415">
        <ele>23.4</ele>
        <time>2019-07-11T09:49:29Z</time>
      </trkpt>
      <trkpt lat="48.79861" lon="-3.5342">
        <ele>23.2</ele>
        <time>2019-07-11T09:49:30Z</time>
      </trkpt>
      <trkpt lat="48.7986" lon="-3.53425">
        <ele>23.2</ele>
        <time>2019-07-11T09:49:31Z</time>
      </trkpt>
      <trkpt lat="48.79859" lon="-3.53429">
        <ele>23.6</ele>
        <time>2019-07-11T09:49:32Z</time>
      </trkpt>
      <trkpt lat="48.79858" lon="-3.53432">
        <ele>25.1</ele>
        <time>2019-07-11T09:49:33Z</time>
      </trkpt>
      <trkpt lat="48.79858" lon="-3.53436">
        <ele>26.6</ele>
        <time>2019-07-11T09:49:34Z</time>
      </trkpt>
      <trkpt lat="48.79857" lon="-3.5344">
        <ele>27.7</ele>
        <time>2019-07-11T09:49:35Z</time>
      </trkpt>
      <trkpt lat="48.79855" lon="-3.53445">
        <ele>28.7</ele>
        <time>2019-07-11T09:49:36Z</time>
      </trkpt>
      <trkpt lat="48.79854" lon="-3.5345">
        <ele>29.9</ele>
        <time>2019-07-11T09:49:37Z</time>
      </trkpt>
      <trkpt lat="48.79855" lon="-3.53456">
        <ele>31</ele>
        <time>2019-07-11T09:49:38Z</time>
      </trkpt>
      <trkpt lat="48.79856" lon="-3.5346">
        <ele>32.1</ele>
        <time>2019-07-11T09:49:39Z</time>
      </trkpt>
      <trkpt lat="48.79857" lon="-3.53465">
        <ele>33.2</ele>
        <time>2019-07-11T09:49:40Z</time>
      </trkpt>
      <trkpt lat="48.79858" lon="-3.53471">
        <ele>34</ele>
        <time>2019-07-11T09:49:41Z</time>
      </trkpt>
      <trkpt lat="48.7986" lon="-3.53475">
        <ele>34.9</ele>
        <time>2019-07-11T09:49:42Z</time>
      </trkpt>
      <trkpt lat="48.79862" lon="-3.5348">
        <ele>35.8</ele>
        <time>2019-07-11T09:49:43Z</time>
      </trkpt>
      <trkpt lat="48.79865" lon="-3.53484">
        <ele>36.3</ele>
        <time>2019-07-11T09:49:44Z</time>
      </trkpt>
      <trkpt lat="48.79868" lon="-3.53489">
        <ele>36.1</ele>
        <time>2019-07-11T09:49:45Z</time>
      </trkpt>
      <trkpt lat="48.7987" lon="-3.53495">
        <ele>36.2</ele>
        <time>2019-07-11T09:49:46Z</time>
      </trkpt>
      <trkpt lat="48.79872" lon="-3.535">
        <ele>36.5</ele>
        <time>2019-07-11T09:49:47Z</time>
      </trkpt>
      <trkpt lat="48.79874" lon="-3.53505">
        <ele>37</ele>
        <time>2019-07-11T09:49:48Z</time>
      </trkpt>
      <trkpt lat="48.79876" lon="-3.5351">
        <ele>36.8</ele>
        <time>2019-07-11T09:49:49Z</time>
      </trkpt>
      <trkpt lat="48.79878" lon="-3.53516">
        <ele>36.7</ele>
        <time>2019-07-11T09:49:50Z</time>
      </trkpt>
      <trkpt lat="48.79879" lon="-3.53521">
        <ele>36.8</ele>
        <time>2019-07-11T09:49:51Z</time>
      </trkpt>
      <trkpt lat="48.79881" lon="-3.53526">
        <ele>36.8</ele>
        <time>2019-07-11T09:49:52Z</time>
      </trkpt>
      <trkpt lat="48.79882" lon="-3.53531">
        <ele>36.9</ele>
        <time>2019-07-11T09:49:53Z</time>
      </trkpt>
      <trkpt lat="48.79884" lon="-3.53536">
        <ele>36.9</ele>
        <time>2019-07-11T09:49:54Z</time>
      </trkpt>
      <trkpt lat="48.79886" lon="-3.53541">
        <ele>36.6</ele>
        <time>2019-07-11T09:49:55Z</time>
      </trkpt>
      <trkpt lat="48.79887" lon="-3.53545">
        <ele>36.3</ele>
        <time>2019-07-11T09:49:56Z</time>
      </trkpt>
      <trkpt lat="48.79889" lon="-3.53549">
        <ele>36</ele>
        <time>2019-07-11T09:49:57Z</time>
      </trkpt>
      <trkpt lat="48.79891" lon="-3.53553">
        <ele>35.8</ele>
        <time>2019-07-11T09:49:58Z</time>
      </trkpt>
      <trkpt lat="48.79893" lon="-3.53557">
        <ele>35.6</ele>
        <time>2019-07-11T09:49:59Z</time>
      </trkpt>
      <trkpt lat="48.79895" lon="-3.5356">
        <ele>36</ele>
        <time>2019-07-11T09:50:00Z</time>
      </trkpt>
      <trkpt lat="48.79897" lon="-3.53563">
        <ele>36</ele>
        <time>2019-07-11T09:50:01Z</time>
      </trkpt>
      <trkpt lat="48.79899" lon="-3.53567">
        <ele>36.3</ele>
        <time>2019-07-11T09:50:02Z</time>
      </trkpt>
      <trkpt lat="48.79901" lon="-3.53571">
        <ele>36.7</ele>
        <time>2019-07-11T09:50:03Z</time>
      </trkpt>
      <trkpt lat="48.79903" lon="-3.53575">
        <ele>36.9</ele>
        <time>2019-07-11T09:50:04Z</time>
      </trkpt>
      <trkpt lat="48.79906" lon="-3.53579">
        <ele>36.7</ele>
        <time>2019-07-11T09:50:05Z</time>
      </trkpt>
      <trkpt lat="48.79909" lon="-3.53582">
        <ele>36.9</ele>
        <time>2019-07-11T09:50:06Z</time>
      </trkpt>
      <trkpt lat="48.79913" lon="-3.53586">
        <ele>37.1</ele>
        <time>2019-07-11T09:50:07Z</time>
      </trkpt>
      <trkpt lat="48.79916" lon="-3.5359">
        <ele>37.1</ele>
        <time>2019-07-11T09:50:08Z</time>
      </trkpt>
      <trkpt lat="48.79919" lon="-3.53595">
        <ele>37.2</ele>
        <time>2019-07-11T09:50:09Z</time>
      </trkpt>
      <trkpt lat="48.79922" lon="-3.53599">
        <ele>37.3</ele>
        <time>2019-07-11T09:50:10Z</time>
      </trkpt>
      <trkpt lat="48.79925" lon="-3.53604">
        <ele>37.1</ele>
        <time>2019-07-11T09:50:11Z</time>
      </trkpt>
      <trkpt lat="48.79927" lon="-3.53609">
        <ele>37.5</ele>
        <time>2019-07-11T09:50:12Z</time>
      </trkpt>
      <trkpt lat="48.79931" lon="-3.53614">
        <ele>37.8</ele>
        <time>2019-07-11T09:50:13Z</time>
      </trkpt>
      <trkpt lat="48.79934" lon="-3.53619">
        <ele>38</ele>
        <time>2019-07-11T09:50:14Z</time>
      </trkpt>
      <trkpt lat="48.79938" lon="-3.53625">
        <ele>37.8</ele>
        <time>2019-07-11T09:50:15Z</time>
      </trkpt>
      <trkpt lat="48.79941" lon="-3.53631">
        <ele>37.6</ele>
        <time>2019-07-11T09:50:16Z</time>
      </trkpt>
      <trkpt lat="48.79944" lon="-3.53637">
        <ele>37.4</ele>
        <time>2019-07-11T09:50:17Z</time>
      </trkpt>
      <trkpt lat="48.79947" lon="-3.53643">
        <ele>37</ele>
        <time>2019-07-11T09:50:18Z</time>
      </trkpt>
      <trkpt lat="48.79949" lon="-3.5365">
        <ele>36.5</ele>
        <time>2019-07-11T09:50:19Z</time>
      </trkpt>
      <trkpt lat="48.79948" lon="-3.53661">
        <ele>32.5</ele>
        <time>2019-07-11T09:50:20Z</time>
      </trkpt>
      <trkpt lat="48.79948" lon="-3.53669">
        <ele>31.2</ele>
        <time>2019-07-11T09:50:21Z</time>
      </trkpt>
      <trkpt lat="48.79947" lon="-3.53676">
        <ele>30.2</ele>
        <time>2019-07-11T09:50:22Z</time>
      </trkpt>
      <trkpt lat="48.79945" lon="-3.53682">
        <ele>29.3</ele>
        <time>2019-07-11T09:50:23Z</time>
      </trkpt>
      <trkpt lat="48.79943" lon="-3.53689">
        <ele>28.1</ele>
        <time>2019-07-11T09:50:24Z</time>
      </trkpt>
      <trkpt lat="48.79941" lon="-3.53694">
        <ele>27</ele>
        <time>2019-07-11T09:50:25Z</time>
      </trkpt>
      <trkpt lat="48.79939" lon="-3.53699">
        <ele>26.1</ele>
        <time>2019-07-11T09:50:26Z</time>
      </trkpt>
      <trkpt lat="48.79937" lon="-3.53703">
        <ele>25.1</ele>
        <time>2019-07-11T09:50:27Z</time>
      </trkpt>
      <trkpt lat="48.79933" lon="-3.53705">
        <ele>24</ele>
        <time>2019-07-11T09:50:28Z</time>
      </trkpt>
      <trkpt lat="48.7993" lon="-3.53707">
        <ele>23.4</ele>
        <time>2019-07-11T09:50:29Z</time>
      </trkpt>
      <trkpt lat="48.79927" lon="-3.53706">
        <ele>22.8</ele>
        <time>2019-07-11T09:50:30Z</time>
      </trkpt>
      <trkpt lat="48.79924" lon="-3.53705">
        <ele>22.1</ele>
        <time>2019-07-11T09:50:31Z</time>
      </trkpt>
      <trkpt lat="48.79921" lon="-3.53703">
        <ele>21.1</ele>
        <time>2019-07-11T09:50:32Z</time>
      </trkpt>
      <trkpt lat="48.79918" lon="-3.53703">
        <ele>20.5</ele>
        <time>2019-07-11T09:50:33Z</time>
      </trkpt>
      <trkpt lat="48.79916" lon="-3.53702">
        <ele>20</ele>
        <time>2019-07-11T09:50:34Z</time>
      </trkpt>
      <trkpt lat="48.79913" lon="-3.53701">
        <ele>19.4</ele>
        <time>2019-07-11T09:50:35Z</time>
      </trkpt>
      <trkpt lat="48.79911" lon="-3.537">
        <ele>18.7</ele>
        <time>2019-07-11T09:50:36Z</time>
      </trkpt>
      <trkpt lat="48.79908" lon="-3.537">
        <ele>18.3</ele>
        <time>2019-07-11T09:50:37Z</time>
      </trkpt>
      <trkpt lat="48.79905" lon="-3.537">
        <ele>17.8</ele>
        <time>2019-07-11T09:50:38Z</time>
      </trkpt>
      <trkpt lat="48.79901" lon="-3.53699">
        <ele>17.6</ele>
        <time>2019-07-11T09:50:39Z</time>
      </trkpt>
      <trkpt lat="48.79898" lon="-3.53698">
        <ele>17.6</ele>
        <time>2019-07-11T09:50:40Z</time>
      </trkpt>
      <trkpt lat="48.79894" lon="-3.53696">
        <ele>17.7</ele>
        <time>2019-07-11T09:50:41Z</time>
      </trkpt>
      <trkpt lat="48.79891" lon="-3.53695">
        <ele>17.4</ele>
        <time>2019-07-11T09:50:42Z</time>
      </trkpt>
      <trkpt lat="48.79889" lon="-3.53695">
        <ele>17.2</ele>
        <time>2019-07-11T09:50:43Z</time>
      </trkpt>
      <trkpt lat="48.79887" lon="-3.53695">
        <ele>17</ele>
        <time>2019-07-11T09:50:44Z</time>
      </trkpt>
      <trkpt lat="48.79884" lon="-3.53695">
        <ele>16.7</ele>
        <time>2019-07-11T09:50:45Z</time>
      </trkpt>
      <trkpt lat="48.79882" lon="-3.53694">
        <ele>17.4</ele>
        <time>2019-07-11T09:50:46Z</time>
      </trkpt>
      <trkpt lat="48.79878" lon="-3.53693">
        <ele>17.6</ele>
        <time>2019-07-11T09:50:47Z</time>
      </trkpt>
      <trkpt lat="48.79876" lon="-3.53692">
        <ele>17.4</ele>
        <time>2019-07-11T09:50:48Z</time>
      </trkpt>
      <trkpt lat="48.79873" lon="-3.5369">
        <ele>17.9</ele>
        <time>2019-07-11T09:50:49Z</time>
      </trkpt>
      <trkpt lat="48.7987" lon="-3.53688">
        <ele>18.6</ele>
        <time>2019-07-11T09:50:50Z</time>
      </trkpt>
      <trkpt lat="48.79867" lon="-3.53686">
        <ele>18.9</ele>
        <time>2019-07-11T09:50:51Z</time>
      </trkpt>
      <trkpt lat="48.79865" lon="-3.53686">
        <ele>19.3</ele>
        <time>2019-07-11T09:50:52Z</time>
      </trkpt>
      <trkpt lat="48.79863" lon="-3.53686">
        <ele>19.8</ele>
        <time>2019-07-11T09:50:53Z</time>
      </trkpt>
      <trkpt lat="48.7986" lon="-3.53687">
        <ele>20.4</ele>
        <time>2019-07-11T09:50:54Z</time>
      </trkpt>
      <trkpt lat="48.79857" lon="-3.53687">
        <ele>20.9</ele>
        <time>2019-07-11T09:50:55Z</time>
      </trkpt>
      <trkpt lat="48.79854" lon="-3.53687">
        <ele>21.3</ele>
        <time>2019-07-11T09:50:56Z</time>
      </trkpt>
      <trkpt lat="48.79851" lon="-3.53685">
        <ele>21.9</ele>
        <time>2019-07-11T09:50:57Z</time>
      </trkpt>
      <trkpt lat="48.79848" lon="-3.53683">
        <ele>22.9</ele>
        <time>2019-07-11T09:50:58Z</time>
      </trkpt>
      <trkpt lat="48.79846" lon="-3.53682">
        <ele>23.3</ele>
        <time>2019-07-11T09:50:59Z</time>
      </trkpt>
      <trkpt lat="48.79844" lon="-3.5368">
        <ele>23.9</ele>
        <time>2019-07-11T09:51:00Z</time>
      </trkpt>
      <trkpt lat="48.79841" lon="-3.5368">
        <ele>24.1</ele>
        <time>2019-07-11T09:51:01Z</time>
      </trkpt>
      <trkpt lat="48.79838" lon="-3.5368">
        <ele>24.2</ele>
        <time>2019-07-11T09:51:02Z</time>
      </trkpt>
      <trkpt lat="48.79835" lon="-3.5368">
        <ele>24.4</ele>
        <time>2019-07-11T09:51:03Z</time>
      </trkpt>
      <trkpt lat="48.79831" lon="-3.5368">
        <ele>24.5</ele>
        <time>2019-07-11T09:51:04Z</time>
      </trkpt>
      <trkpt lat="48.79828" lon="-3.5368">
        <ele>24.7</ele>
        <time>2019-07-11T09:51:05Z</time>
      </trkpt>
      <trkpt lat="48.79826" lon="-3.53681">
        <ele>24.9</ele>
        <time>2019-07-11T09:51:06Z</time>
      </trkpt>
      <trkpt lat="48.79823" lon="-3.5368">
        <ele>24.9</ele>
        <time>2019-07-11T09:51:07Z</time>
      </trkpt>
      <trkpt lat="48.7982" lon="-3.53678">
        <ele>25.2</ele>
        <time>2019-07-11T09:51:08Z</time>
      </trkpt>
      <trkpt lat="48.79817" lon="-3.53675">
        <ele>26</ele>
        <time>2019-07-11T09:51:09Z</time>
      </trkpt>
      <trkpt lat="48.79815" lon="-3.53673">
        <ele>26.9</ele>
        <time>2019-07-11T09:51:10Z</time>
      </trkpt>
      <trkpt lat="48.79813" lon="-3.53671">
        <ele>27.6</ele>
        <time>2019-07-11T09:51:11Z</time>
      </trkpt>
      <trkpt lat="48.7981" lon="-3.53669">
        <ele>28.2</ele>
        <time>2019-07-11T09:51:12Z</time>
      </trkpt>
      <trkpt lat="48.79808" lon="-3.53668">
        <ele>28.4</ele>
        <time>2019-07-11T09:51:13Z</time>
      </trkpt>
      <trkpt lat="48.79805" lon="-3.53667">
        <ele>28.4</ele>
        <time>2019-07-11T09:51:14Z</time>
      </trkpt>
      <trkpt lat="48.79803" lon="-3.53666">
        <ele>28.4</ele>
        <time>2019-07-11T09:51:15Z</time>
      </trkpt>
      <trkpt lat="48.798" lon="-3.53665">
        <ele>28.3</ele>
        <time>2019-07-11T09:51:16Z</time>
      </trkpt>
      <trkpt lat="48.79798" lon="-3.53664">
        <ele>28.3</ele>
        <time>2019-07-11T09:51:17Z</time>
      </trkpt>
      <trkpt lat="48.79796" lon="-3.53664">
        <ele>28.3</ele>
        <time>2019-07-11T09:51:18Z</time>
      </trkpt>
      <trkpt lat="48.79793" lon="-3.53663">
        <ele>28.6</ele>
        <time>2019-07-11T09:51:19Z</time>
      </trkpt>
      <trkpt lat="48.79791" lon="-3.53663">
        <ele>28.9</ele>
        <time>2019-07-11T09:51:20Z</time>
      </trkpt>
      <trkpt lat="48.79788" lon="-3.53662">
        <ele>28.9</ele>
        <time>2019-07-11T09:51:21Z</time>
      </trkpt>
      <trkpt lat="48.79785" lon="-3.53662">
        <ele>28.7</ele>
        <time>2019-07-11T09:51:22Z</time>
      </trkpt>
      <trkpt lat="48.79783" lon="-3.53662">
        <ele>29.1</ele>
        <time>2019-07-11T09:51:23Z</time>
      </trkpt>
      <trkpt lat="48.79779" lon="-3.53662">
        <ele>29.5</ele>
        <time>2019-07-11T09:51:24Z</time>
      </trkpt>
      <trkpt lat="48.79776" lon="-3.53662">
        <ele>29.9</ele>
        <time>2019-07-11T09:51:25Z</time>
      </trkpt>
      <trkpt lat="48.79773" lon="-3.53661">
        <ele>29.6</ele>
        <time>2019-07-11T09:51:26Z</time>
      </trkpt>
      <trkpt lat="48.7977" lon="-3.53661">
        <ele>29.8</ele>
        <time>2019-07-11T09:51:27Z</time>
      </trkpt>
      <trkpt lat="48.79767" lon="-3.53661">
        <ele>29.7</ele>
        <time>2019-07-11T09:51:28Z</time>
      </trkpt>
      <trkpt lat="48.79763" lon="-3.53661">
        <ele>29.5</ele>
        <time>2019-07-11T09:51:29Z</time>
      </trkpt>
      <trkpt lat="48.79759" lon="-3.5366">
        <ele>29</ele>
        <time>2019-07-11T09:51:30Z</time>
      </trkpt>
      <trkpt lat="48.79755" lon="-3.5366">
        <ele>29.1</ele>
        <time>2019-07-11T09:51:31Z</time>
      </trkpt>
      <trkpt lat="48.79752" lon="-3.53661">
        <ele>29.2</ele>
        <time>2019-07-11T09:51:32Z</time>
      </trkpt>
      <trkpt lat="48.79748" lon="-3.53661">
        <ele>29.6</ele>
        <time>2019-07-11T09:51:33Z</time>
      </trkpt>
      <trkpt lat="48.79744" lon="-3.53662">
        <ele>29.6</ele>
        <time>2019-07-11T09:51:34Z</time>
      </trkpt>
      <trkpt lat="48.79739" lon="-3.53662">
        <ele>29.1</ele>
        <time>2019-07-11T09:51:35Z</time>
      </trkpt>
      <trkpt lat="48.79736" lon="-3.53661">
        <ele>28.8</ele>
        <time>2019-07-11T09:51:36Z</time>
      </trkpt>
      <trkpt lat="48.79733" lon="-3.53661">
        <ele>28.5</ele>
        <time>2019-07-11T09:51:37Z</time>
      </trkpt>
      <trkpt lat="48.7973" lon="-3.53662">
        <ele>28.7</ele>
        <time>2019-07-11T09:51:38Z</time>
      </trkpt>
      <trkpt lat="48.79726" lon="-3.53661">
        <ele>28.6</ele>
        <time>2019-07-11T09:51:39Z</time>
      </trkpt>
      <trkpt lat="48.79723" lon="-3.53661">
        <ele>28</ele>
        <time>2019-07-11T09:51:40Z</time>
      </trkpt>
      <trkpt lat="48.7972" lon="-3.5366">
        <ele>27.4</ele>
        <time>2019-07-11T09:51:41Z</time>
      </trkpt>
      <trkpt lat="48.79718" lon="-3.53659">
        <ele>26.9</ele>
        <time>2019-07-11T09:51:42Z</time>
      </trkpt>
      <trkpt lat="48.79717" lon="-3.53659">
        <ele>26.6</ele>
        <time>2019-07-11T09:51:43Z</time>
      </trkpt>
      <trkpt lat="48.79714" lon="-3.5366">
        <ele>26.3</ele>
        <time>2019-07-11T09:51:44Z</time>
      </trkpt>
      <trkpt lat="48.7971" lon="-3.5366">
        <ele>26.1</ele>
        <time>2019-07-11T09:51:45Z</time>
      </trkpt>
      <trkpt lat="48.79707" lon="-3.53662">
        <ele>25.8</ele>
        <time>2019-07-11T09:51:46Z</time>
      </trkpt>
      <trkpt lat="48.79704" lon="-3.53663">
        <ele>25.4</ele>
        <time>2019-07-11T09:51:47Z</time>
      </trkpt>
      <trkpt lat="48.797" lon="-3.53664">
        <ele>25.2</ele>
        <time>2019-07-11T09:51:48Z</time>
      </trkpt>
      <trkpt lat="48.79696" lon="-3.53665">
        <ele>25.2</ele>
        <time>2019-07-11T09:51:49Z</time>
      </trkpt>
      <trkpt lat="48.79692" lon="-3.53665">
        <ele>25.1</ele>
        <time>2019-07-11T09:51:50Z</time>
      </trkpt>
      <trkpt lat="48.79688" lon="-3.53664">
        <ele>24.7</ele>
        <time>2019-07-11T09:51:51Z</time>
      </trkpt>
      <trkpt lat="48.79685" lon="-3.53663">
        <ele>24.4</ele>
        <time>2019-07-11T09:51:52Z</time>
      </trkpt>
      <trkpt lat="48.79681" lon="-3.53662">
        <ele>24</ele>
        <time>2019-07-11T09:51:53Z</time>
      </trkpt>
      <trkpt lat="48.79676" lon="-3.53662">
        <ele>23.7</ele>
        <time>2019-07-11T09:51:54Z</time>
      </trkpt>
      <trkpt lat="48.79673" lon="-3.53662">
        <ele>23.5</ele>
        <time>2019-07-11T09:51:55Z</time>
      </trkpt>
      <trkpt lat="48.79668" lon="-3.53661">
        <ele>23.2</ele>
        <time>2019-07-11T09:51:56Z</time>
      </trkpt>
      <trkpt lat="48.79664" lon="-3.5366">
        <ele>23.4</ele>
        <time>2019-07-11T09:51:57Z</time>
      </trkpt>
      <trkpt lat="48.7966" lon="-3.53659">
        <ele>23.9</ele>
        <time>2019-07-11T09:51:58Z</time>
      </trkpt>
      <trkpt lat="48.79656" lon="-3.53658">
        <ele>24.6</ele>
        <time>2019-07-11T09:51:59Z</time>
      </trkpt>
      <trkpt lat="48.79651" lon="-3.53657">
        <ele>24.9</ele>
        <time>2019-07-11T09:52:00Z</time>
      </trkpt>
      <trkpt lat="48.79647" lon="-3.53656">
        <ele>25</ele>
        <time>2019-07-11T09:52:01Z</time>
      </trkpt>
      <trkpt lat="48.79643" lon="-3.53656">
        <ele>25.4</ele>
        <time>2019-07-11T09:52:02Z</time>
      </trkpt>
      <trkpt lat="48.7964" lon="-3.53656">
        <ele>25.9</ele>
        <time>2019-07-11T09:52:03Z</time>
      </trkpt>
      <trkpt lat="48.79637" lon="-3.53657">
        <ele>26.5</ele>
        <time>2019-07-11T09:52:04Z</time>
      </trkpt>
      <trkpt lat="48.79634" lon="-3.53658">
        <ele>26.8</ele>
        <time>2019-07-11T09:52:05Z</time>
      </trkpt>
      <trkpt lat="48.79631" lon="-3.53659">
        <ele>26.9</ele>
        <time>2019-07-11T09:52:06Z</time>
      </trkpt>
      <trkpt lat="48.79627" lon="-3.53659">
        <ele>26.7</ele>
        <time>2019-07-11T09:52:07Z</time>
      </trkpt>
      <trkpt lat="48.79625" lon="-3.53661">
        <ele>27.4</ele>
        <time>2019-07-11T09:52:08Z</time>
      </trkpt>
      <trkpt lat="48.79621" lon="-3.53663">
        <ele>27.5</ele>
        <time>2019-07-11T09:52:09Z</time>
      </trkpt>
      <trkpt lat="48.79617" lon="-3.53665">
        <ele>27.5</ele>
        <time>2019-07-11T09:52:10Z</time>
      </trkpt>
      <trkpt lat="48.79614" lon="-3.53666">
        <ele>27.9</ele>
        <time>2019-07-11T09:52:11Z</time>
      </trkpt>
      <trkpt lat="48.7961" lon="-3.53668">
        <ele>28.4</ele>
        <time>2019-07-11T09:52:12Z</time>
      </trkpt>
      <trkpt lat="48.79606" lon="-3.53669">
        <ele>28.8</ele>
        <time>2019-07-11T09:52:13Z</time>
      </trkpt>
      <trkpt lat="48.79602" lon="-3.53671">
        <ele>29.3</ele>
        <time>2019-07-11T09:52:14Z</time>
      </trkpt>
      <trkpt lat="48.79598" lon="-3.53672">
        <ele>29.9</ele>
        <time>2019-07-11T09:52:15Z</time>
      </trkpt>
      <trkpt lat="48.79594" lon="-3.53673">
        <ele>30.3</ele>
        <time>2019-07-11T09:52:16Z</time>
      </trkpt>
      <trkpt lat="48.79589" lon="-3.53676">
        <ele>30.5</ele>
        <time>2019-07-11T09:52:17Z</time>
      </trkpt>
      <trkpt lat="48.79583" lon="-3.53677">
        <ele>30.9</ele>
        <time>2019-07-11T09:52:18Z</time>
      </trkpt>
      <trkpt lat="48.79578" lon="-3.53679">
        <ele>31.1</ele>
        <time>2019-07-11T09:52:19Z</time>
      </trkpt>
      <trkpt lat="48.79573" lon="-3.53681">
        <ele>31.5</ele>
        <time>2019-07-11T09:52:20Z</time>
      </trkpt>
      <trkpt lat="48.79569" lon="-3.53683">
        <ele>31.6</ele>
        <time>2019-07-11T09:52:21Z</time>
      </trkpt>
      <trkpt lat="48.79565" lon="-3.53685">
        <ele>31</ele>
        <time>2019-07-11T09:52:22Z</time>
      </trkpt>
      <trkpt lat="48.79561" lon="-3.53686">
        <ele>30.2</ele>
        <time>2019-07-11T09:52:23Z</time>
      </trkpt>
      <trkpt lat="48.79557" lon="-3.53687">
        <ele>29.7</ele>
        <time>2019-07-11T09:52:24Z</time>
      </trkpt>
      <trkpt lat="48.79551" lon="-3.53688">
        <ele>28.6</ele>
        <time>2019-07-11T09:52:25Z</time>
      </trkpt>
      <trkpt lat="48.79546" lon="-3.5369">
        <ele>27.5</ele>
        <time>2019-07-11T09:52:26Z</time>
      </trkpt>
      <trkpt lat="48.79541" lon="-3.53692">
        <ele>26.5</ele>
        <time>2019-07-11T09:52:27Z</time>
      </trkpt>
      <trkpt lat="48.79537" lon="-3.53694">
        <ele>25.4</ele>
        <time>2019-07-11T09:52:28Z</time>
      </trkpt>
      <trkpt lat="48.79534" lon="-3.53696">
        <ele>25.5</ele>
        <time>2019-07-11T09:52:29Z</time>
      </trkpt>
      <trkpt lat="48.7953" lon="-3.53697">
        <ele>25.8</ele>
        <time>2019-07-11T09:52:30Z</time>
      </trkpt>
      <trkpt lat="48.79528" lon="-3.537">
        <ele>26.5</ele>
        <time>2019-07-11T09:52:31Z</time>
      </trkpt>
      <trkpt lat="48.79525" lon="-3.53702">
        <ele>27.5</ele>
        <time>2019-07-11T09:52:32Z</time>
      </trkpt>
      <trkpt lat="48.79522" lon="-3.53705">
        <ele>28.5</ele>
        <time>2019-07-11T09:52:33Z</time>
      </trkpt>
      <trkpt lat="48.7952" lon="-3.53708">
        <ele>29.9</ele>
        <time>2019-07-11T09:52:34Z</time>
      </trkpt>
      <trkpt lat="48.79518" lon="-3.53711">
        <ele>30.7</ele>
        <time>2019-07-11T09:52:35Z</time>
      </trkpt>
      <trkpt lat="48.79516" lon="-3.53714">
        <ele>31.5</ele>
        <time>2019-07-11T09:52:36Z</time>
      </trkpt>
      <trkpt lat="48.79515" lon="-3.53718">
        <ele>32.3</ele>
        <time>2019-07-11T09:52:37Z</time>
      </trkpt>
      <trkpt lat="48.79514" lon="-3.53722">
        <ele>32.9</ele>
        <time>2019-07-11T09:52:38Z</time>
      </trkpt>
      <trkpt lat="48.79512" lon="-3.53725">
        <ele>33.7</ele>
        <time>2019-07-11T09:52:39Z</time>
      </trkpt>
      <trkpt lat="48.79511" lon="-3.53729">
        <ele>34.4</ele>
        <time>2019-07-11T09:52:40Z</time>
      </trkpt>
      <trkpt lat="48.79509" lon="-3.53732">
        <ele>35.3</ele>
        <time>2019-07-11T09:52:41Z</time>
      </trkpt>
      <trkpt lat="48.79508" lon="-3.53736">
        <ele>35.8</ele>
        <time>2019-07-11T09:52:42Z</time>
      </trkpt>
      <trkpt lat="48.79506" lon="-3.5374">
        <ele>35.8</ele>
        <time>2019-07-11T09:52:43Z</time>
      </trkpt>
      <trkpt lat="48.79505" lon="-3.53744">
        <ele>36.1</ele>
        <time>2019-07-11T09:52:44Z</time>
      </trkpt>
      <trkpt lat="48.79504" lon="-3.53747">
        <ele>36.5</ele>
        <time>2019-07-11T09:52:45Z</time>
      </trkpt>
      <trkpt lat="48.79503" lon="-3.53752">
        <ele>37.2</ele>
        <time>2019-07-11T09:52:46Z</time>
      </trkpt>
      <trkpt lat="48.79501" lon="-3.53756">
        <ele>37</ele>
        <time>2019-07-11T09:52:47Z</time>
      </trkpt>
      <trkpt lat="48.795" lon="-3.53761">
        <ele>36.9</ele>
        <time>2019-07-11T09:52:48Z</time>
      </trkpt>
      <trkpt lat="48.79498" lon="-3.53765">
        <ele>36.2</ele>
        <time>2019-07-11T09:52:49Z</time>
      </trkpt>
      <trkpt lat="48.79496" lon="-3.5377">
        <ele>35.8</ele>
        <time>2019-07-11T09:52:50Z</time>
      </trkpt>
      <trkpt lat="48.79495" lon="-3.53774">
        <ele>35.2</ele>
        <time>2019-07-11T09:52:51Z</time>
      </trkpt>
      <trkpt lat="48.79493" lon="-3.53778">
        <ele>35.1</ele>
        <time>2019-07-11T09:52:52Z</time>
      </trkpt>
      <trkpt lat="48.79492" lon="-3.53782">
        <ele>35.1</ele>
        <time>2019-07-11T09:52:53Z</time>
      </trkpt>
      <trkpt lat="48.79491" lon="-3.53786">
        <ele>35.2</ele>
        <time>2019-07-11T09:52:54Z</time>
      </trkpt>
      <trkpt lat="48.7949" lon="-3.53791">
        <ele>35.4</ele>
        <time>2019-07-11T09:52:55Z</time>
      </trkpt>
      <trkpt lat="48.79489" lon="-3.53796">
        <ele>35.4</ele>
        <time>2019-07-11T09:52:56Z</time>
      </trkpt>
      <trkpt lat="48.79487" lon="-3.53801">
        <ele>35.3</ele>
        <time>2019-07-11T09:52:57Z</time>
      </trkpt>
      <trkpt lat="48.79486" lon="-3.53806">
        <ele>34.3</ele>
        <time>2019-07-11T09:52:58Z</time>
      </trkpt>
      <trkpt lat="48.79483" lon="-3.5381">
        <ele>33.9</ele>
        <time>2019-07-11T09:52:59Z</time>
      </trkpt>
      <trkpt lat="48.79482" lon="-3.53814">
        <ele>33.6</ele>
        <time>2019-07-11T09:53:00Z</time>
      </trkpt>
      <trkpt lat="48.79479" lon="-3.53819">
        <ele>33.7</ele>
        <time>2019-07-11T09:53:01Z</time>
      </trkpt>
      <trkpt lat="48.79477" lon="-3.53823">
        <ele>33.7</ele>
        <time>2019-07-11T09:53:02Z</time>
      </trkpt>
      <trkpt lat="48.79475" lon="-3.53827">
        <ele>33.3</ele>
        <time>2019-07-11T09:53:03Z</time>
      </trkpt>
      <trkpt lat="48.79473" lon="-3.53831">
        <ele>33.1</ele>
        <time>2019-07-11T09:53:04Z</time>
      </trkpt>
      <trkpt lat="48.79471" lon="-3.53834">
        <ele>32.8</ele>
        <time>2019-07-11T09:53:05Z</time>
      </trkpt>
      <trkpt lat="48.79469" lon="-3.53837">
        <ele>32.7</ele>
        <time>2019-07-11T09:53:06Z</time>
      </trkpt>
      <trkpt lat="48.79467" lon="-3.53841">
        <ele>32.7</ele>
        <time>2019-07-11T09:53:07Z</time>
      </trkpt>
      <trkpt lat="48.79465" lon="-3.53844">
        <ele>32.5</ele>
        <time>2019-07-11T09:53:08Z</time>
      </trkpt>
      <trkpt lat="48.79463" lon="-3.53848">
        <ele>32.5</ele>
        <time>2019-07-11T09:53:09Z</time>
      </trkpt>
      <trkpt lat="48.79462" lon="-3.53851">
        <ele>32.5</ele>
        <time>2019-07-11T09:53:10Z</time>
      </trkpt>
      <trkpt lat="48.79461" lon="-3.53854">
        <ele>33.1</ele>
        <time>2019-07-11T09:53:11Z</time>
      </trkpt>
      <trkpt lat="48.7946" lon="-3.53857">
        <ele>33.6</ele>
        <time>2019-07-11T09:53:12Z</time>
      </trkpt>
      <trkpt lat="48.79459" lon="-3.53861">
        <ele>34.2</ele>
        <time>2019-07-11T09:53:13Z</time>
      </trkpt>
      <trkpt lat="48.79459" lon="-3.53864">
        <ele>34.6</ele>
        <time>2019-07-11T09:53:14Z</time>
      </trkpt>
      <trkpt lat="48.79458" lon="-3.53868">
        <ele>35.1</ele>
        <time>2019-07-11T09:53:15Z</time>
      </trkpt>
      <trkpt lat="48.79458" lon="-3.53872">
        <ele>35.3</ele>
        <time>2019-07-11T09:53:16Z</time>
      </trkpt>
      <trkpt lat="48.79457" lon="-3.53876">
        <ele>35.2</ele>
        <time>2019-07-11T09:53:17Z</time>
      </trkpt>
      <trkpt lat="48.79456" lon="-3.53879">
        <ele>35.3</ele>
        <time>2019-07-11T09:53:18Z</time>
      </trkpt>
      <trkpt lat="48.79456" lon="-3.53883">
        <ele>35.1</ele>
        <time>2019-07-11T09:53:19Z</time>
      </trkpt>
      <trkpt lat="48.79455" lon="-3.53887">
        <ele>34.4</ele>
        <time>2019-07-11T09:53:20Z</time>
      </trkpt>
      <trkpt lat="48.79453" lon="-3.53891">
        <ele>34.1</ele>
        <time>2019-07-11T09:53:21Z</time>
      </trkpt>
      <trkpt lat="48.79452" lon="-3.53895">
        <ele>33.7</ele>
        <time>2019-07-11T09:53:22Z</time>
      </trkpt>
      <trkpt lat="48.79451" lon="-3.53899">
        <ele>33.8</ele>
        <time>2019-07-11T09:53:23Z</time>
      </trkpt>
      <trkpt lat="48.7945" lon="-3.53903">
        <ele>33.9</ele>
        <time>2019-07-11T09:53:24Z</time>
      </trkpt>
      <trkpt lat="48.79449" lon="-3.53906">
        <ele>34.8</ele>
        <time>2019-07-11T09:53:25Z</time>
      </trkpt>
      <trkpt lat="48.79448" lon="-3.53909">
        <ele>35.2</ele>
        <time>2019-07-11T09:53:26Z</time>
      </trkpt>
      <trkpt lat="48.79446" lon="-3.53912">
        <ele>35.3</ele>
        <time>2019-07-11T09:53:27Z</time>
      </trkpt>
      <trkpt lat="48.79444" lon="-3.53915">
        <ele>35.3</ele>
        <time>2019-07-11T09:53:28Z</time>
      </trkpt>
      <trkpt lat="48.79442" lon="-3.53918">
        <ele>35.4</ele>
        <time>2019-07-11T09:53:29Z</time>
      </trkpt>
      <trkpt lat="48.79441" lon="-3.53921">
        <ele>35.7</ele>
        <time>2019-07-11T09:53:30Z</time>
      </trkpt>
      <trkpt lat="48.7944" lon="-3.53924">
        <ele>36.3</ele>
        <time>2019-07-11T09:53:31Z</time>
      </trkpt>
      <trkpt lat="48.79439" lon="-3.53927">
        <ele>36.9</ele>
        <time>2019-07-11T09:53:32Z</time>
      </trkpt>
      <trkpt lat="48.79438" lon="-3.5393">
        <ele>37.5</ele>
        <time>2019-07-11T09:53:33Z</time>
      </trkpt>
      <trkpt lat="48.79436" lon="-3.53932">
        <ele>38.2</ele>
        <time>2019-07-11T09:53:34Z</time>
      </trkpt>
      <trkpt lat="48.79434" lon="-3.53934">
        <ele>38.5</ele>
        <time>2019-07-11T09:53:35Z</time>
      </trkpt>
      <trkpt lat="48.79433" lon="-3.53935">
        <ele>38.6</ele>
        <time>2019-07-11T09:53:36Z</time>
      </trkpt>
      <trkpt lat="48.79431" lon="-3.53937">
        <ele>38.7</ele>
        <time>2019-07-11T09:53:37Z</time>
      </trkpt>
      <trkpt lat="48.7943" lon="-3.53939">
        <ele>38.8</ele>
        <time>2019-07-11T09:53:38Z</time>
      </trkpt>
      <trkpt lat="48.7943" lon="-3.53941">
        <ele>38.7</ele>
        <time>2019-07-11T09:53:39Z</time>
      </trkpt>
      <trkpt lat="48.79429" lon="-3.53943">
        <ele>38.3</ele>
        <time>2019-07-11T09:53:40Z</time>
      </trkpt>
      <trkpt lat="48.79429" lon="-3.53948">
        <ele>38</ele>
        <time>2019-07-11T09:54:03Z</time>
      </trkpt>
      <trkpt lat="48.79431" lon="-3.5395">
        <ele>38.1</ele>
        <time>2019-07-11T09:54:04Z</time>
      </trkpt>
      <trkpt lat="48.79433" lon="-3.53951">
        <ele>38.2</ele>
        <time>2019-07-11T09:54:05Z</time>
      </trkpt>
      <trkpt lat="48.79435" lon="-3.53952">
        <ele>38.6</ele>
        <time>2019-07-11T09:54:06Z</time>
      </trkpt>
      <trkpt lat="48.79437" lon="-3.53954">
        <ele>38.8</ele>
        <time>2019-07-11T09:54:07Z</time>
      </trkpt>
      <trkpt lat="48.7944" lon="-3.53955">
        <ele>38.9</ele>
        <time>2019-07-11T09:54:08Z</time>
      </trkpt>
      <trkpt lat="48.79443" lon="-3.53957">
        <ele>38.8</ele>
        <time>2019-07-11T09:54:09Z</time>
      </trkpt>
      <trkpt lat="48.79446" lon="-3.53958">
        <ele>38.7</ele>
        <time>2019-07-11T09:54:10Z</time>
      </trkpt>
      <trkpt lat="48.79448" lon="-3.5396">
        <ele>38.5</ele>
        <time>2019-07-11T09:54:11Z</time>
      </trkpt>
      <trkpt lat="48.79451" lon="-3.53962">
        <ele>38.4</ele>
        <time>2019-07-11T09:54:12Z</time>
      </trkpt>
      <trkpt lat="48.79454" lon="-3.53963">
        <ele>38.9</ele>
        <time>2019-07-11T09:54:13Z</time>
      </trkpt>
      <trkpt lat="48.79457" lon="-3.53965">
        <ele>38.9</ele>
        <time>2019-07-11T09:54:14Z</time>
      </trkpt>
      <trkpt lat="48.7946" lon="-3.53967">
        <ele>38.9</ele>
        <time>2019-07-11T09:54:15Z</time>
      </trkpt>
      <trkpt lat="48.79463" lon="-3.53969">
        <ele>38.6</ele>
        <time>2019-07-11T09:54:16Z</time>
      </trkpt>
      <trkpt lat="48.79466" lon="-3.53972">
        <ele>37.8</ele>
        <time>2019-07-11T09:54:17Z</time>
      </trkpt>
      <trkpt lat="48.7947" lon="-3.53974">
        <ele>37.1</ele>
        <time>2019-07-11T09:54:18Z</time>
      </trkpt>
      <trkpt lat="48.79473" lon="-3.53977">
        <ele>36.7</ele>
        <time>2019-07-11T09:54:19Z</time>
      </trkpt>
      <trkpt lat="48.79477" lon="-3.53979">
        <ele>36.2</ele>
        <time>2019-07-11T09:54:20Z</time>
      </trkpt>
      <trkpt lat="48.7948" lon="-3.53982">
        <ele>36.1</ele>
        <time>2019-07-11T09:54:21Z</time>
      </trkpt>
      <trkpt lat="48.79482" lon="-3.53983">
        <ele>36.3</ele>
        <time>2019-07-11T09:54:22Z</time>
      </trkpt>
      <trkpt lat="48.79484" lon="-3.53985">
        <ele>35.9</ele>
        <time>2019-07-11T09:54:23Z</time>
      </trkpt>
      <trkpt lat="48.79486" lon="-3.53986">
        <ele>35.2</ele>
        <time>2019-07-11T09:54:24Z</time>
      </trkpt>
      <trkpt lat="48.79487" lon="-3.53987">
        <ele>34.7</ele>
        <time>2019-07-11T09:54:25Z</time>
      </trkpt>
      <trkpt lat="48.79488" lon="-3.53988">
        <ele>34.5</ele>
        <time>2019-07-11T09:54:26Z</time>
      </trkpt>
      <trkpt lat="48.7949" lon="-3.53994">
        <ele>34.2</ele>
        <time>2019-07-11T09:54:45Z</time>
      </trkpt>
      <trkpt lat="48.79488" lon="-3.53994">
        <ele>34.2</ele>
        <time>2019-07-11T09:54:46Z</time>
      </trkpt>
      <trkpt lat="48.79487" lon="-3.53994">
        <ele>34.2</ele>
        <time>2019-07-11T09:54:47Z</time>
      </trkpt>
      <trkpt lat="48.79485" lon="-3.53992">
        <ele>34.2</ele>
        <time>2019-07-11T09:54:48Z</time>
      </trkpt>
      <trkpt lat="48.79484" lon="-3.5399">
        <ele>34.1</ele>
        <time>2019-07-11T09:54:49Z</time>
      </trkpt>
      <trkpt lat="48.79482" lon="-3.53989">
        <ele>33.7</ele>
        <time>2019-07-11T09:54:50Z</time>
      </trkpt>
      <trkpt lat="48.79479" lon="-3.53987">
        <ele>33.4</ele>
        <time>2019-07-11T09:54:51Z</time>
      </trkpt>
      <trkpt lat="48.79476" lon="-3.53985">
        <ele>33.1</ele>
        <time>2019-07-11T09:54:52Z</time>
      </trkpt>
      <trkpt lat="48.79474" lon="-3.53983">
        <ele>33</ele>
        <time>2019-07-11T09:54:53Z</time>
      </trkpt>
      <trkpt lat="48.79472" lon="-3.53982">
        <ele>32.9</ele>
        <time>2019-07-11T09:54:54Z</time>
      </trkpt>
      <trkpt lat="48.7947" lon="-3.5398">
        <ele>32.5</ele>
        <time>2019-07-11T09:54:55Z</time>
      </trkpt>
      <trkpt lat="48.79467" lon="-3.53978">
        <ele>32.5</ele>
        <time>2019-07-11T09:54:56Z</time>
      </trkpt>
      <trkpt lat="48.79465" lon="-3.53976">
        <ele>32.5</ele>
        <time>2019-07-11T09:54:57Z</time>
      </trkpt>
      <trkpt lat="48.79463" lon="-3.53975">
        <ele>32.8</ele>
        <time>2019-07-11T09:54:58Z</time>
      </trkpt>
      <trkpt lat="48.79461" lon="-3.53973">
        <ele>32.8</ele>
        <time>2019-07-11T09:54:59Z</time>
      </trkpt>
      <trkpt lat="48.79459" lon="-3.53972">
        <ele>32.7</ele>
        <time>2019-07-11T09:55:00Z</time>
      </trkpt>
      <trkpt lat="48.79456" lon="-3.5397">
        <ele>32.9</ele>
        <time>2019-07-11T09:55:01Z</time>
      </trkpt>
      <trkpt lat="48.79454" lon="-3.53969">
        <ele>32.8</ele>
        <time>2019-07-11T09:55:02Z</time>
      </trkpt>
      <trkpt lat="48.79452" lon="-3.53968">
        <ele>32.7</ele>
        <time>2019-07-11T09:55:03Z</time>
      </trkpt>
      <trkpt lat="48.7945" lon="-3.53967">
        <ele>32.8</ele>
        <time>2019-07-11T09:55:04Z</time>
      </trkpt>
      <trkpt lat="48.79447" lon="-3.53966">
        <ele>32.4</ele>
        <time>2019-07-11T09:55:05Z</time>
      </trkpt>
      <trkpt lat="48.79445" lon="-3.53965">
        <ele>32.4</ele>
        <time>2019-07-11T09:55:06Z</time>
      </trkpt>
      <trkpt lat="48.79443" lon="-3.53963">
        <ele>32.5</ele>
        <time>2019-07-11T09:55:07Z</time>
      </trkpt>
      <trkpt lat="48.79441" lon="-3.53962">
        <ele>32.6</ele>
        <time>2019-07-11T09:55:08Z</time>
      </trkpt>
      <trkpt lat="48.79438" lon="-3.5396">
        <ele>32.6</ele>
        <time>2019-07-11T09:55:09Z</time>
      </trkpt>
      <trkpt lat="48.79437" lon="-3.53959">
        <ele>32.6</ele>
        <time>2019-07-11T09:55:10Z</time>
      </trkpt>
      <trkpt lat="48.79434" lon="-3.53957">
        <ele>32.5</ele>
        <time>2019-07-11T09:55:11Z</time>
      </trkpt>
      <trkpt lat="48.79432" lon="-3.53957">
        <ele>32.3</ele>
        <time>2019-07-11T09:55:12Z</time>
      </trkpt>
      <trkpt lat="48.7943" lon="-3.53956">
        <ele>32.2</ele>
        <time>2019-07-11T09:55:13Z</time>
      </trkpt>
      <trkpt lat="48.79428" lon="-3.53956">
        <ele>32.2</ele>
        <time>2019-07-11T09:55:14Z</time>
      </trkpt>
      <trkpt lat="48.79426" lon="-3.53954">
        <ele>32.1</ele>
        <time>2019-07-11T09:55:15Z</time>
      </trkpt>
      <trkpt lat="48.79424" lon="-3.53953">
        <ele>32.2</ele>
        <time>2019-07-11T09:55:16Z</time>
      </trkpt>
      <trkpt lat="48.79421" lon="-3.53952">
        <ele>32.2</ele>
        <time>2019-07-11T09:55:17Z</time>
      </trkpt>
      <trkpt lat="48.79418" lon="-3.53952">
        <ele>32.1</ele>
        <time>2019-07-11T09:55:18Z</time>
      </trkpt>
      <trkpt lat="48.79415" lon="-3.53951">
        <ele>32.2</ele>
        <time>2019-07-11T09:55:19Z</time>
      </trkpt>
      <trkpt lat="48.79411" lon="-3.53951">
        <ele>32.4</ele>
        <time>2019-07-11T09:55:20Z</time>
      </trkpt>
      <trkpt lat="48.79408" lon="-3.53951">
        <ele>32.2</ele>
        <time>2019-07-11T09:55:21Z</time>
      </trkpt>
      <trkpt lat="48.79404" lon="-3.53951">
        <ele>32.4</ele>
        <time>2019-07-11T09:55:22Z</time>
      </trkpt>
      <trkpt lat="48.79401" lon="-3.53951">
        <ele>32.5</ele>
        <time>2019-07-11T09:55:23Z</time>
      </trkpt>
      <trkpt lat="48.79397" lon="-3.53951">
        <ele>32.5</ele>
        <time>2019-07-11T09:55:24Z</time>
      </trkpt>
      <trkpt lat="48.79394" lon="-3.53951">
        <ele>32.6</ele>
        <time>2019-07-11T09:55:25Z</time>
      </trkpt>
      <trkpt lat="48.79391" lon="-3.53952">
        <ele>33.1</ele>
        <time>2019-07-11T09:55:26Z</time>
      </trkpt>
      <trkpt lat="48.79388" lon="-3.53952">
        <ele>33.5</ele>
        <time>2019-07-11T09:55:27Z</time>
      </trkpt>
      <trkpt lat="48.79385" lon="-3.53952">
        <ele>34.1</ele>
        <time>2019-07-11T09:55:28Z</time>
      </trkpt>
      <trkpt lat="48.79382" lon="-3.53954">
        <ele>34.1</ele>
        <time>2019-07-11T09:55:29Z</time>
      </trkpt>
      <trkpt lat="48.79378" lon="-3.53955">
        <ele>34.3</ele>
        <time>2019-07-11T09:55:30Z</time>
      </trkpt>
      <trkpt lat="48.79375" lon="-3.53956">
        <ele>34.6</ele>
        <time>2019-07-11T09:55:31Z</time>
      </trkpt>
      <trkpt lat="48.79372" lon="-3.53958">
        <ele>35</ele>
        <time>2019-07-11T09:55:32Z</time>
      </trkpt>
      <trkpt lat="48.79369" lon="-3.53959">
        <ele>35.8</ele>
        <time>2019-07-11T09:55:33Z</time>
      </trkpt>
      <trkpt lat="48.79365" lon="-3.53961">
        <ele>36.4</ele>
        <time>2019-07-11T09:55:34Z</time>
      </trkpt>
      <trkpt lat="48.79363" lon="-3.53963">
        <ele>37</ele>
        <time>2019-07-11T09:55:35Z</time>
      </trkpt>
      <trkpt lat="48.7936" lon="-3.53964">
        <ele>38.6</ele>
        <time>2019-07-11T09:55:36Z</time>
      </trkpt>
      <trkpt lat="48.79359" lon="-3.53967">
        <ele>39.5</ele>
        <time>2019-07-11T09:55:37Z</time>
      </trkpt>
      <trkpt lat="48.79357" lon="-3.53969">
        <ele>40.5</ele>
        <time>2019-07-11T09:55:38Z</time>
      </trkpt>
      <trkpt lat="48.79355" lon="-3.53973">
        <ele>41.2</ele>
        <time>2019-07-11T09:55:39Z</time>
      </trkpt>
      <trkpt lat="48.79354" lon="-3.53976">
        <ele>42.2</ele>
        <time>2019-07-11T09:55:40Z</time>
      </trkpt>
      <trkpt lat="48.79353" lon="-3.5398">
        <ele>42.5</ele>
        <time>2019-07-11T09:55:41Z</time>
      </trkpt>
      <trkpt lat="48.79351" lon="-3.53985">
        <ele>43.1</ele>
        <time>2019-07-11T09:55:42Z</time>
      </trkpt>
      <trkpt lat="48.79351" lon="-3.53989">
        <ele>43.6</ele>
        <time>2019-07-11T09:55:43Z</time>
      </trkpt>
      <trkpt lat="48.7935" lon="-3.53993">
        <ele>43.7</ele>
        <time>2019-07-11T09:55:44Z</time>
      </trkpt>
      <trkpt lat="48.79349" lon="-3.53997">
        <ele>43.8</ele>
        <time>2019-07-11T09:55:45Z</time>
      </trkpt>
      <trkpt lat="48.79348" lon="-3.54002">
        <ele>44.1</ele>
        <time>2019-07-11T09:55:46Z</time>
      </trkpt>
      <trkpt lat="48.79348" lon="-3.54006">
        <ele>44.4</ele>
        <time>2019-07-11T09:55:47Z</time>
      </trkpt>
      <trkpt lat="48.79347" lon="-3.54011">
        <ele>44.8</ele>
        <time>2019-07-11T09:55:48Z</time>
      </trkpt>
      <trkpt lat="48.79347" lon="-3.54015">
        <ele>45.2</ele>
        <time>2019-07-11T09:55:49Z</time>
      </trkpt>
      <trkpt lat="48.79345" lon="-3.5402">
        <ele>45.9</ele>
        <time>2019-07-11T09:55:50Z</time>
      </trkpt>
      <trkpt lat="48.79344" lon="-3.54024">
        <ele>46.2</ele>
        <time>2019-07-11T09:55:51Z</time>
      </trkpt>
      <trkpt lat="48.79343" lon="-3.54028">
        <ele>46.4</ele>
        <time>2019-07-11T09:55:52Z</time>
      </trkpt>
      <trkpt lat="48.79343" lon="-3.54033">
        <ele>46.6</ele>
        <time>2019-07-11T09:55:53Z</time>
      </trkpt>
      <trkpt lat="48.79344" lon="-3.54038">
        <ele>46.4</ele>
        <time>2019-07-11T09:55:54Z</time>
      </trkpt>
      <trkpt lat="48.79344" lon="-3.54042">
        <ele>46</ele>
        <time>2019-07-11T09:55:55Z</time>
      </trkpt>
      <trkpt lat="48.79344" lon="-3.54046">
        <ele>46</ele>
        <time>2019-07-11T09:55:56Z</time>
      </trkpt>
      <trkpt lat="48.79344" lon="-3.5405">
        <ele>46</ele>
        <time>2019-07-11T09:55:57Z</time>
      </trkpt>
      <trkpt lat="48.79345" lon="-3.54054">
        <ele>46</ele>
        <time>2019-07-11T09:55:58Z</time>
      </trkpt>
      <trkpt lat="48.79344" lon="-3.54058">
        <ele>45.9</ele>
        <time>2019-07-11T09:55:59Z</time>
      </trkpt>
      <trkpt lat="48.79343" lon="-3.54063">
        <ele>45.7</ele>
        <time>2019-07-11T09:56:00Z</time>
      </trkpt>
      <trkpt lat="48.79343" lon="-3.54067">
        <ele>45.7</ele>
        <time>2019-07-11T09:56:01Z</time>
      </trkpt>
      <trkpt lat="48.79343" lon="-3.54073">
        <ele>45.8</ele>
        <time>2019-07-11T09:56:02Z</time>
      </trkpt>
      <trkpt lat="48.79343" lon="-3.54078">
        <ele>45.8</ele>
        <time>2019-07-11T09:56:03Z</time>
      </trkpt>
      <trkpt lat="48.79343" lon="-3.54083">
        <ele>45.6</ele>
        <time>2019-07-11T09:56:04Z</time>
      </trkpt>
      <trkpt lat="48.79343" lon="-3.54088">
        <ele>45.5</ele>
        <time>2019-07-11T09:56:05Z</time>
      </trkpt>
      <trkpt lat="48.79344" lon="-3.54094">
        <ele>43.4</ele>
        <time>2019-07-11T09:56:06Z</time>
      </trkpt>
      <trkpt lat="48.79344" lon="-3.54099">
        <ele>42.1</ele>
        <time>2019-07-11T09:56:07Z</time>
      </trkpt>
      <trkpt lat="48.79343" lon="-3.54104">
        <ele>41.3</ele>
        <time>2019-07-11T09:56:08Z</time>
      </trkpt>
      <trkpt lat="48.79343" lon="-3.54109">
        <ele>40.1</ele>
        <time>2019-07-11T09:56:09Z</time>
      </trkpt>
      <trkpt lat="48.79343" lon="-3.54114">
        <ele>39.1</ele>
        <time>2019-07-11T09:56:10Z</time>
      </trkpt>
      <trkpt lat="48.79343" lon="-3.54119">
        <ele>38.5</ele>
        <time>2019-07-11T09:56:11Z</time>
      </trkpt>
      <trkpt lat="48.79343" lon="-3.54124">
        <ele>37.8</ele>
        <time>2019-07-11T09:56:12Z</time>
      </trkpt>
      <trkpt lat="48.79343" lon="-3.54128">
        <ele>37.3</ele>
        <time>2019-07-11T09:56:13Z</time>
      </trkpt>
      <trkpt lat="48.79343" lon="-3.54133">
        <ele>37.1</ele>
        <time>2019-07-11T09:56:14Z</time>
      </trkpt>
      <trkpt lat="48.79343" lon="-3.54137">
        <ele>37.1</ele>
        <time>2019-07-11T09:56:15Z</time>
      </trkpt>
      <trkpt lat="48.79343" lon="-3.54142">
        <ele>37</ele>
        <time>2019-07-11T09:56:16Z</time>
      </trkpt>
      <trkpt lat="48.79343" lon="-3.54146">
        <ele>36.5</ele>
        <time>2019-07-11T09:56:17Z</time>
      </trkpt>
      <trkpt lat="48.79343" lon="-3.54151">
        <ele>36.2</ele>
        <time>2019-07-11T09:56:18Z</time>
      </trkpt>
      <trkpt lat="48.79343" lon="-3.54155">
        <ele>36.1</ele>
        <time>2019-07-11T09:56:19Z</time>
      </trkpt>
      <trkpt lat="48.79343" lon="-3.5416">
        <ele>36</ele>
        <time>2019-07-11T09:56:20Z</time>
      </trkpt>
      <trkpt lat="48.79343" lon="-3.54165">
        <ele>36.3</ele>
        <time>2019-07-11T09:56:21Z</time>
      </trkpt>
      <trkpt lat="48.79343" lon="-3.54169">
        <ele>36.7</ele>
        <time>2019-07-11T09:56:22Z</time>
      </trkpt>
      <trkpt lat="48.79343" lon="-3.54174">
        <ele>37.2</ele>
        <time>2019-07-11T09:56:23Z</time>
      </trkpt>
      <trkpt lat="48.79344" lon="-3.54178">
        <ele>37.7</ele>
        <time>2019-07-11T09:56:24Z</time>
      </trkpt>
      <trkpt lat="48.79344" lon="-3.54183">
        <ele>38.5</ele>
        <time>2019-07-11T09:56:25Z</time>
      </trkpt>
      <trkpt lat="48.79344" lon="-3.54187">
        <ele>39.3</ele>
        <time>2019-07-11T09:56:26Z</time>
      </trkpt>
      <trkpt lat="48.79344" lon="-3.54192">
        <ele>39.9</ele>
        <time>2019-07-11T09:56:27Z</time>
      </trkpt>
      <trkpt lat="48.79344" lon="-3.54198">
        <ele>40</ele>
        <time>2019-07-11T09:56:28Z</time>
      </trkpt>
      <trkpt lat="48.79343" lon="-3.54204">
        <ele>39.6</ele>
        <time>2019-07-11T09:56:29Z</time>
      </trkpt>
      <trkpt lat="48.79342" lon="-3.5421">
        <ele>38.8</ele>
        <time>2019-07-11T09:56:30Z</time>
      </trkpt>
      <trkpt lat="48.79342" lon="-3.54216">
        <ele>37.8</ele>
        <time>2019-07-11T09:56:31Z</time>
      </trkpt>
      <trkpt lat="48.7934" lon="-3.54223">
        <ele>36.7</ele>
        <time>2019-07-11T09:56:32Z</time>
      </trkpt>
      <trkpt lat="48.79339" lon="-3.54229">
        <ele>36.3</ele>
        <time>2019-07-11T09:56:33Z</time>
      </trkpt>
      <trkpt lat="48.79338" lon="-3.54234">
        <ele>36.3</ele>
        <time>2019-07-11T09:56:34Z</time>
      </trkpt>
      <trkpt lat="48.79336" lon="-3.54239">
        <ele>36.5</ele>
        <time>2019-07-11T09:56:35Z</time>
      </trkpt>
      <trkpt lat="48.79335" lon="-3.54245">
        <ele>36.7</ele>
        <time>2019-07-11T09:56:36Z</time>
      </trkpt>
      <trkpt lat="48.79334" lon="-3.54251">
        <ele>36.9</ele>
        <time>2019-07-11T09:56:37Z</time>
      </trkpt>
      <trkpt lat="48.79332" lon="-3.54256">
        <ele>37.2</ele>
        <time>2019-07-11T09:56:38Z</time>
      </trkpt>
      <trkpt lat="48.79331" lon="-3.54261">
        <ele>37.4</ele>
        <time>2019-07-11T09:56:39Z</time>
      </trkpt>
      <trkpt lat="48.7933" lon="-3.54266">
        <ele>37.6</ele>
        <time>2019-07-11T09:56:40Z</time>
      </trkpt>
      <trkpt lat="48.7933" lon="-3.54271">
        <ele>36.2</ele>
        <time>2019-07-11T09:56:41Z</time>
      </trkpt>
      <trkpt lat="48.79329" lon="-3.54274">
        <ele>36.6</ele>
        <time>2019-07-11T09:56:42Z</time>
      </trkpt>
      <trkpt lat="48.79328" lon="-3.54276">
        <ele>36.8</ele>
        <time>2019-07-11T09:56:43Z</time>
      </trkpt>
      <trkpt lat="48.79327" lon="-3.54278">
        <ele>37.2</ele>
        <time>2019-07-11T09:56:44Z</time>
      </trkpt>
      <trkpt lat="48.79326" lon="-3.54279">
        <ele>37.6</ele>
        <time>2019-07-11T09:56:45Z</time>
      </trkpt>
      <trkpt lat="48.79325" lon="-3.54281">
        <ele>38.2</ele>
        <time>2019-07-11T09:56:46Z</time>
      </trkpt>
      <trkpt lat="48.79323" lon="-3.54283">
        <ele>38.7</ele>
        <time>2019-07-11T09:56:47Z</time>
      </trkpt>
      <trkpt lat="48.79322" lon="-3.54285">
        <ele>39.1</ele>
        <time>2019-07-11T09:56:48Z</time>
      </trkpt>
      <trkpt lat="48.79321" lon="-3.54286">
        <ele>39.3</ele>
        <time>2019-07-11T09:56:49Z</time>
      </trkpt>
      <trkpt lat="48.7932" lon="-3.54289">
        <ele>39.8</ele>
        <time>2019-07-11T09:56:50Z</time>
      </trkpt>
      <trkpt lat="48.79319" lon="-3.54291">
        <ele>40.3</ele>
        <time>2019-07-11T09:56:51Z</time>
      </trkpt>
      <trkpt lat="48.79318" lon="-3.54293">
        <ele>40.8</ele>
        <time>2019-07-11T09:56:52Z</time>
      </trkpt>
      <trkpt lat="48.79316" lon="-3.54295">
        <ele>41.2</ele>
        <time>2019-07-11T09:56:53Z</time>
      </trkpt>
      <trkpt lat="48.79315" lon="-3.54297">
        <ele>41.6</ele>
        <time>2019-07-11T09:56:54Z</time>
      </trkpt>
      <trkpt lat="48.79314" lon="-3.54299">
        <ele>42</ele>
        <time>2019-07-11T09:56:55Z</time>
      </trkpt>
      <trkpt lat="48.79312" lon="-3.54301">
        <ele>42.4</ele>
        <time>2019-07-11T09:56:56Z</time>
      </trkpt>
      <trkpt lat="48.79311" lon="-3.54303">
        <ele>43</ele>
        <time>2019-07-11T09:56:57Z</time>
      </trkpt>
      <trkpt lat="48.7931" lon="-3.54305">
        <ele>43.7</ele>
        <time>2019-07-11T09:56:58Z</time>
      </trkpt>
      <trkpt lat="48.79308" lon="-3.54306">
        <ele>44.3</ele>
        <time>2019-07-11T09:56:59Z</time>
      </trkpt>
      <trkpt lat="48.79308" lon="-3.54308">
        <ele>44.7</ele>
        <time>2019-07-11T09:57:00Z</time>
      </trkpt>
      <trkpt lat="48.79307" lon="-3.5431">
        <ele>45.1</ele>
        <time>2019-07-11T09:57:01Z</time>
      </trkpt>
      <trkpt lat="48.79306" lon="-3.54312">
        <ele>45.5</ele>
        <time>2019-07-11T09:57:02Z</time>
      </trkpt>
      <trkpt lat="48.79304" lon="-3.54314">
        <ele>45.9</ele>
        <time>2019-07-11T09:57:03Z</time>
      </trkpt>
      <trkpt lat="48.79303" lon="-3.54315">
        <ele>46.3</ele>
        <time>2019-07-11T09:57:04Z</time>
      </trkpt>
      <trkpt lat="48.79302" lon="-3.54318">
        <ele>46.7</ele>
        <time>2019-07-11T09:57:05Z</time>
      </trkpt>
      <trkpt lat="48.79301" lon="-3.5432">
        <ele>47</ele>
        <time>2019-07-11T09:57:06Z</time>
      </trkpt>
      <trkpt lat="48.79299" lon="-3.54321">
        <ele>47.2</ele>
        <time>2019-07-11T09:57:07Z</time>
      </trkpt>
      <trkpt lat="48.79298" lon="-3.54323">
        <ele>47.1</ele>
        <time>2019-07-11T09:57:08Z</time>
      </trkpt>
      <trkpt lat="48.79297" lon="-3.54325">
        <ele>47.6</ele>
        <time>2019-07-11T09:57:09Z</time>
      </trkpt>
      <trkpt lat="48.79296" lon="-3.54327">
        <ele>48</ele>
        <time>2019-07-11T09:57:10Z</time>
      </trkpt>
      <trkpt lat="48.79295" lon="-3.54329">
        <ele>48.3</ele>
        <time>2019-07-11T09:57:11Z</time>
      </trkpt>
      <trkpt lat="48.79293" lon="-3.54331">
        <ele>48.7</ele>
        <time>2019-07-11T09:57:12Z</time>
      </trkpt>
      <trkpt lat="48.79292" lon="-3.54334">
        <ele>48.9</ele>
        <time>2019-07-11T09:57:13Z</time>
      </trkpt>
      <trkpt lat="48.79292" lon="-3.54336">
        <ele>49.1</ele>
        <time>2019-07-11T09:57:14Z</time>
      </trkpt>
      <trkpt lat="48.79291" lon="-3.54339">
        <ele>49.1</ele>
        <time>2019-07-11T09:57:15Z</time>
      </trkpt>
      <trkpt lat="48.7929" lon="-3.54342">
        <ele>49</ele>
        <time>2019-07-11T09:57:16Z</time>
      </trkpt>
      <trkpt lat="48.79289" lon="-3.54344">
        <ele>48.9</ele>
        <time>2019-07-11T09:57:17Z</time>
      </trkpt>
      <trkpt lat="48.79287" lon="-3.54346">
        <ele>48.8</ele>
        <time>2019-07-11T09:57:18Z</time>
      </trkpt>
      <trkpt lat="48.79287" lon="-3.54348">
        <ele>48.9</ele>
        <time>2019-07-11T09:57:19Z</time>
      </trkpt>
      <trkpt lat="48.79287" lon="-3.54351">
        <ele>48.9</ele>
        <time>2019-07-11T09:57:20Z</time>
      </trkpt>
      <trkpt lat="48.79286" lon="-3.54354">
        <ele>48.7</ele>
        <time>2019-07-11T09:57:21Z</time>
      </trkpt>
      <trkpt lat="48.79285" lon="-3.54356">
        <ele>48.7</ele>
        <time>2019-07-11T09:57:22Z</time>
      </trkpt>
      <trkpt lat="48.79285" lon="-3.54358">
        <ele>48.8</ele>
        <time>2019-07-11T09:57:23Z</time>
      </trkpt>
      <trkpt lat="48.79284" lon="-3.54361">
        <ele>48.7</ele>
        <time>2019-07-11T09:57:24Z</time>
      </trkpt>
      <trkpt lat="48.79284" lon="-3.54363">
        <ele>48.7</ele>
        <time>2019-07-11T09:57:25Z</time>
      </trkpt>
      <trkpt lat="48.79283" lon="-3.54366">
        <ele>48.7</ele>
        <time>2019-07-11T09:57:26Z</time>
      </trkpt>
      <trkpt lat="48.79283" lon="-3.54368">
        <ele>48.7</ele>
        <time>2019-07-11T09:57:27Z</time>
      </trkpt>
      <trkpt lat="48.79282" lon="-3.54371">
        <ele>48.6</ele>
        <time>2019-07-11T09:57:28Z</time>
      </trkpt>
      <trkpt lat="48.79282" lon="-3.54374">
        <ele>48.5</ele>
        <time>2019-07-11T09:57:29Z</time>
      </trkpt>
      <trkpt lat="48.79282" lon="-3.54376">
        <ele>48.6</ele>
        <time>2019-07-11T09:57:30Z</time>
      </trkpt>
      <trkpt lat="48.79281" lon="-3.54379">
        <ele>48.4</ele>
        <time>2019-07-11T09:57:31Z</time>
      </trkpt>
      <trkpt lat="48.79281" lon="-3.54382">
        <ele>48.3</ele>
        <time>2019-07-11T09:57:32Z</time>
      </trkpt>
      <trkpt lat="48.7928" lon="-3.54385">
        <ele>48.5</ele>
        <time>2019-07-11T09:57:33Z</time>
      </trkpt>
      <trkpt lat="48.79279" lon="-3.54387">
        <ele>48.6</ele>
        <time>2019-07-11T09:57:34Z</time>
      </trkpt>
      <trkpt lat="48.79279" lon="-3.5439">
        <ele>48.8</ele>
        <time>2019-07-11T09:57:35Z</time>
      </trkpt>
      <trkpt lat="48.79278" lon="-3.54392">
        <ele>49</ele>
        <time>2019-07-11T09:57:36Z</time>
      </trkpt>
      <trkpt lat="48.79277" lon="-3.54395">
        <ele>49.2</ele>
        <time>2019-07-11T09:57:37Z</time>
      </trkpt>
      <trkpt lat="48.79276" lon="-3.54397">
        <ele>49.3</ele>
        <time>2019-07-11T09:57:38Z</time>
      </trkpt>
      <trkpt lat="48.79276" lon="-3.54399">
        <ele>49.2</ele>
        <time>2019-07-11T09:57:39Z</time>
      </trkpt>
      <trkpt lat="48.79275" lon="-3.54402">
        <ele>49.2</ele>
        <time>2019-07-11T09:57:40Z</time>
      </trkpt>
      <trkpt lat="48.79274" lon="-3.54404">
        <ele>49.2</ele>
        <time>2019-07-11T09:57:41Z</time>
      </trkpt>
      <trkpt lat="48.79273" lon="-3.54407">
        <ele>49.2</ele>
        <time>2019-07-11T09:57:42Z</time>
      </trkpt>
      <trkpt lat="48.79272" lon="-3.54409">
        <ele>49.2</ele>
        <time>2019-07-11T09:57:43Z</time>
      </trkpt>
      <trkpt lat="48.79271" lon="-3.54412">
        <ele>49.1</ele>
        <time>2019-07-11T09:57:44Z</time>
      </trkpt>
      <trkpt lat="48.79271" lon="-3.54414">
        <ele>49</ele>
        <time>2019-07-11T09:57:45Z</time>
      </trkpt>
      <trkpt lat="48.7927" lon="-3.54416">
        <ele>49.4</ele>
        <time>2019-07-11T09:57:46Z</time>
      </trkpt>
      <trkpt lat="48.79269" lon="-3.54418">
        <ele>49.4</ele>
        <time>2019-07-11T09:57:47Z</time>
      </trkpt>
      <trkpt lat="48.79268" lon="-3.5442">
        <ele>49.6</ele>
        <time>2019-07-11T09:57:48Z</time>
      </trkpt>
      <trkpt lat="48.79266" lon="-3.54422">
        <ele>49.4</ele>
        <time>2019-07-11T09:57:49Z</time>
      </trkpt>
      <trkpt lat="48.79265" lon="-3.54425">
        <ele>49.3</ele>
        <time>2019-07-11T09:57:50Z</time>
      </trkpt>
      <trkpt lat="48.79264" lon="-3.54427">
        <ele>49.3</ele>
        <time>2019-07-11T09:57:51Z</time>
      </trkpt>
      <trkpt lat="48.79263" lon="-3.54429">
        <ele>49.3</ele>
        <time>2019-07-11T09:57:52Z</time>
      </trkpt>
      <trkpt lat="48.79262" lon="-3.54432">
        <ele>49.3</ele>
        <time>2019-07-11T09:57:53Z</time>
      </trkpt>
      <trkpt lat="48.7926" lon="-3.54434">
        <ele>49.5</ele>
        <time>2019-07-11T09:57:54Z</time>
      </trkpt>
      <trkpt lat="48.79259" lon="-3.54436">
        <ele>49.7</ele>
        <time>2019-07-11T09:57:55Z</time>
      </trkpt>
      <trkpt lat="48.79258" lon="-3.54438">
        <ele>49.9</ele>
        <time>2019-07-11T09:57:56Z</time>
      </trkpt>
      <trkpt lat="48.79256" lon="-3.5444">
        <ele>50</ele>
        <time>2019-07-11T09:57:57Z</time>
      </trkpt>
      <trkpt lat="48.79255" lon="-3.54442">
        <ele>50</ele>
        <time>2019-07-11T09:57:58Z</time>
      </trkpt>
      <trkpt lat="48.79253" lon="-3.54444">
        <ele>50</ele>
        <time>2019-07-11T09:57:59Z</time>
      </trkpt>
      <trkpt lat="48.79252" lon="-3.54447">
        <ele>49.9</ele>
        <time>2019-07-11T09:58:00Z</time>
      </trkpt>
      <trkpt lat="48.7925" lon="-3.54449">
        <ele>50</ele>
        <time>2019-07-11T09:58:01Z</time>
      </trkpt>
      <trkpt lat="48.79248" lon="-3.54452">
        <ele>49.8</ele>
        <time>2019-07-11T09:58:02Z</time>
      </trkpt>
      <trkpt lat="48.79246" lon="-3.54456">
        <ele>49.9</ele>
        <time>2019-07-11T09:58:03Z</time>
      </trkpt>
      <trkpt lat="48.79244" lon="-3.54461">
        <ele>50.1</ele>
        <time>2019-07-11T09:58:04Z</time>
      </trkpt>
      <trkpt lat="48.79242" lon="-3.54465">
        <ele>50.1</ele>
        <time>2019-07-11T09:58:05Z</time>
      </trkpt>
      <trkpt lat="48.79239" lon="-3.54469">
        <ele>50.1</ele>
        <time>2019-07-11T09:58:06Z</time>
      </trkpt>
      <trkpt lat="48.79237" lon="-3.54474">
        <ele>50.2</ele>
        <time>2019-07-11T09:58:07Z</time>
      </trkpt>
      <trkpt lat="48.79235" lon="-3.54479">
        <ele>50.2</ele>
        <time>2019-07-11T09:58:08Z</time>
      </trkpt>
      <trkpt lat="48.79232" lon="-3.54484">
        <ele>49.7</ele>
        <time>2019-07-11T09:58:09Z</time>
      </trkpt>
      <trkpt lat="48.7923" lon="-3.5449">
        <ele>49</ele>
        <time>2019-07-11T09:58:10Z</time>
      </trkpt>
      <trkpt lat="48.79228" lon="-3.54496">
        <ele>48.5</ele>
        <time>2019-07-11T09:58:11Z</time>
      </trkpt>
      <trkpt lat="48.79226" lon="-3.54502">
        <ele>48.1</ele>
        <time>2019-07-11T09:58:12Z</time>
      </trkpt>
      <trkpt lat="48.79225" lon="-3.54509">
        <ele>47.9</ele>
        <time>2019-07-11T09:58:13Z</time>
      </trkpt>
      <trkpt lat="48.79223" lon="-3.54515">
        <ele>48</ele>
        <time>2019-07-11T09:58:14Z</time>
      </trkpt>
      <trkpt lat="48.79223" lon="-3.54523">
        <ele>48.4</ele>
        <time>2019-07-11T09:58:15Z</time>
      </trkpt>
      <trkpt lat="48.79222" lon="-3.5453">
        <ele>49</ele>
        <time>2019-07-11T09:58:16Z</time>
      </trkpt>
      <trkpt lat="48.79221" lon="-3.54536">
        <ele>48.7</ele>
        <time>2019-07-11T09:58:17Z</time>
      </trkpt>
      <trkpt lat="48.7922" lon="-3.54542">
        <ele>48.9</ele>
        <time>2019-07-11T09:58:18Z</time>
      </trkpt>
      <trkpt lat="48.79219" lon="-3.54548">
        <ele>49.2</ele>
        <time>2019-07-11T09:58:19Z</time>
      </trkpt>
      <trkpt lat="48.79219" lon="-3.54553">
        <ele>49.6</ele>
        <time>2019-07-11T09:58:20Z</time>
      </trkpt>
      <trkpt lat="48.79218" lon="-3.54558">
        <ele>49.7</ele>
        <time>2019-07-11T09:58:21Z</time>
      </trkpt>
      <trkpt lat="48.79217" lon="-3.54564">
        <ele>49.8</ele>
        <time>2019-07-11T09:58:22Z</time>
      </trkpt>
      <trkpt lat="48.79216" lon="-3.5457">
        <ele>49.7</ele>
        <time>2019-07-11T09:58:23Z</time>
      </trkpt>
      <trkpt lat="48.79216" lon="-3.54577">
        <ele>49.4</ele>
        <time>2019-07-11T09:58:24Z</time>
      </trkpt>
      <trkpt lat="48.79215" lon="-3.54583">
        <ele>49.1</ele>
        <time>2019-07-11T09:58:25Z</time>
      </trkpt>
      <trkpt lat="48.79215" lon="-3.5459">
        <ele>48.9</ele>
        <time>2019-07-11T09:58:26Z</time>
      </trkpt>
      <trkpt lat="48.79214" lon="-3.54595">
        <ele>48.5</ele>
        <time>2019-07-11T09:58:27Z</time>
      </trkpt>
      <trkpt lat="48.79212" lon="-3.54599">
        <ele>48.1</ele>
        <time>2019-07-11T09:58:28Z</time>
      </trkpt>
      <trkpt lat="48.7921" lon="-3.54604">
        <ele>46.8</ele>
        <time>2019-07-11T09:58:29Z</time>
      </trkpt>
      <trkpt lat="48.79208" lon="-3.54609">
        <ele>45.8</ele>
        <time>2019-07-11T09:58:30Z</time>
      </trkpt>
      <trkpt lat="48.79207" lon="-3.54614">
        <ele>45</ele>
        <time>2019-07-11T09:58:31Z</time>
      </trkpt>
      <trkpt lat="48.79205" lon="-3.54618">
        <ele>44.5</ele>
        <time>2019-07-11T09:58:32Z</time>
      </trkpt>
      <trkpt lat="48.79204" lon="-3.54623">
        <ele>44</ele>
        <time>2019-07-11T09:58:33Z</time>
      </trkpt>
      <trkpt lat="48.79203" lon="-3.54628">
        <ele>43.5</ele>
        <time>2019-07-11T09:58:34Z</time>
      </trkpt>
      <trkpt lat="48.79202" lon="-3.54632">
        <ele>42.9</ele>
        <time>2019-07-11T09:58:35Z</time>
      </trkpt>
      <trkpt lat="48.79202" lon="-3.54637">
        <ele>42.5</ele>
        <time>2019-07-11T09:58:36Z</time>
      </trkpt>
      <trkpt lat="48.79201" lon="-3.54642">
        <ele>42.2</ele>
        <time>2019-07-11T09:58:37Z</time>
      </trkpt>
      <trkpt lat="48.792" lon="-3.54646">
        <ele>42</ele>
        <time>2019-07-11T09:58:38Z</time>
      </trkpt>
      <trkpt lat="48.792" lon="-3.54649">
        <ele>41.6</ele>
        <time>2019-07-11T09:58:39Z</time>
      </trkpt>
      <trkpt lat="48.79199" lon="-3.54653">
        <ele>41.1</ele>
        <time>2019-07-11T09:58:40Z</time>
      </trkpt>
      <trkpt lat="48.79199" lon="-3.54656">
        <ele>40.7</ele>
        <time>2019-07-11T09:58:41Z</time>
      </trkpt>
      <trkpt lat="48.79197" lon="-3.5466">
        <ele>40.3</ele>
        <time>2019-07-11T09:58:42Z</time>
      </trkpt>
      <trkpt lat="48.79195" lon="-3.54665">
        <ele>40.1</ele>
        <time>2019-07-11T09:58:43Z</time>
      </trkpt>
      <trkpt lat="48.79194" lon="-3.5467">
        <ele>40</ele>
        <time>2019-07-11T09:58:44Z</time>
      </trkpt>
      <trkpt lat="48.79192" lon="-3.54673">
        <ele>40.1</ele>
        <time>2019-07-11T09:58:45Z</time>
      </trkpt>
      <trkpt lat="48.7919" lon="-3.54676">
        <ele>40.1</ele>
        <time>2019-07-11T09:58:46Z</time>
      </trkpt>
      <trkpt lat="48.79188" lon="-3.5468">
        <ele>40.1</ele>
        <time>2019-07-11T09:58:47Z</time>
      </trkpt>
      <trkpt lat="48.79186" lon="-3.54684">
        <ele>40.3</ele>
        <time>2019-07-11T09:58:48Z</time>
      </trkpt>
      <trkpt lat="48.79184" lon="-3.54688">
        <ele>40.6</ele>
        <time>2019-07-11T09:58:49Z</time>
      </trkpt>
      <trkpt lat="48.79182" lon="-3.54691">
        <ele>41</ele>
        <time>2019-07-11T09:58:50Z</time>
      </trkpt>
      <trkpt lat="48.79179" lon="-3.54696">
        <ele>40.8</ele>
        <time>2019-07-11T09:58:51Z</time>
      </trkpt>
      <trkpt lat="48.79177" lon="-3.547">
        <ele>40.4</ele>
        <time>2019-07-11T09:58:52Z</time>
      </trkpt>
      <trkpt lat="48.79174" lon="-3.54701">
        <ele>40.7</ele>
        <time>2019-07-11T09:58:53Z</time>
      </trkpt>
      <trkpt lat="48.79173" lon="-3.54703">
        <ele>40.8</ele>
        <time>2019-07-11T09:58:54Z</time>
      </trkpt>
      <trkpt lat="48.7917" lon="-3.54703">
        <ele>41</ele>
        <time>2019-07-11T09:58:55Z</time>
      </trkpt>
      <trkpt lat="48.79168" lon="-3.54702">
        <ele>41.2</ele>
        <time>2019-07-11T09:58:56Z</time>
      </trkpt>
      <trkpt lat="48.79165" lon="-3.54701">
        <ele>41.4</ele>
        <time>2019-07-11T09:58:57Z</time>
      </trkpt>
      <trkpt lat="48.79163" lon="-3.54701">
        <ele>41.5</ele>
        <time>2019-07-11T09:58:58Z</time>
      </trkpt>
      <trkpt lat="48.7916" lon="-3.547">
        <ele>41.3</ele>
        <time>2019-07-11T09:58:59Z</time>
      </trkpt>
      <trkpt lat="48.79158" lon="-3.54698">
        <ele>41.2</ele>
        <time>2019-07-11T09:59:00Z</time>
      </trkpt>
      <trkpt lat="48.79155" lon="-3.54697">
        <ele>40.9</ele>
        <time>2019-07-11T09:59:01Z</time>
      </trkpt>
      <trkpt lat="48.79153" lon="-3.54695">
        <ele>40.7</ele>
        <time>2019-07-11T09:59:02Z</time>
      </trkpt>
      <trkpt lat="48.79151" lon="-3.54694">
        <ele>40.6</ele>
        <time>2019-07-11T09:59:03Z</time>
      </trkpt>
      <trkpt lat="48.79149" lon="-3.54693">
        <ele>40.5</ele>
        <time>2019-07-11T09:59:04Z</time>
      </trkpt>
      <trkpt lat="48.79148" lon="-3.54691">
        <ele>40.4</ele>
        <time>2019-07-11T09:59:05Z</time>
      </trkpt>
      <trkpt lat="48.79146" lon="-3.54689">
        <ele>40.4</ele>
        <time>2019-07-11T09:59:06Z</time>
      </trkpt>
      <trkpt lat="48.79144" lon="-3.54687">
        <ele>40.4</ele>
        <time>2019-07-11T09:59:07Z</time>
      </trkpt>
      <trkpt lat="48.79142" lon="-3.54686">
        <ele>40.6</ele>
        <time>2019-07-11T09:59:08Z</time>
      </trkpt>
      <trkpt lat="48.7914" lon="-3.54684">
        <ele>40.6</ele>
        <time>2019-07-11T09:59:09Z</time>
      </trkpt>
      <trkpt lat="48.79138" lon="-3.54682">
        <ele>40.6</ele>
        <time>2019-07-11T09:59:10Z</time>
      </trkpt>
      <trkpt lat="48.79137" lon="-3.5468">
        <ele>40.8</ele>
        <time>2019-07-11T09:59:11Z</time>
      </trkpt>
      <trkpt lat="48.79135" lon="-3.54679">
        <ele>41.1</ele>
        <time>2019-07-11T09:59:12Z</time>
      </trkpt>
      <trkpt lat="48.79134" lon="-3.54677">
        <ele>41.3</ele>
        <time>2019-07-11T09:59:13Z</time>
      </trkpt>
      <trkpt lat="48.79133" lon="-3.54675">
        <ele>41.4</ele>
        <time>2019-07-11T09:59:14Z</time>
      </trkpt>
      <trkpt lat="48.79131" lon="-3.54673">
        <ele>41.5</ele>
        <time>2019-07-11T09:59:15Z</time>
      </trkpt>
      <trkpt lat="48.79129" lon="-3.54671">
        <ele>41.7</ele>
        <time>2019-07-11T09:59:16Z</time>
      </trkpt>
      <trkpt lat="48.79128" lon="-3.54669">
        <ele>41.8</ele>
        <time>2019-07-11T09:59:17Z</time>
      </trkpt>
      <trkpt lat="48.79126" lon="-3.54667">
        <ele>41.9</ele>
        <time>2019-07-11T09:59:18Z</time>
      </trkpt>
      <trkpt lat="48.79125" lon="-3.54664">
        <ele>42.1</ele>
        <time>2019-07-11T09:59:19Z</time>
      </trkpt>
      <trkpt lat="48.79124" lon="-3.54661">
        <ele>42.3</ele>
        <time>2019-07-11T09:59:20Z</time>
      </trkpt>
      <trkpt lat="48.79123" lon="-3.54659">
        <ele>42.9</ele>
        <time>2019-07-11T09:59:21Z</time>
      </trkpt>
      <trkpt lat="48.79121" lon="-3.54657">
        <ele>43.1</ele>
        <time>2019-07-11T09:59:22Z</time>
      </trkpt>
      <trkpt lat="48.7912" lon="-3.54654">
        <ele>43.5</ele>
        <time>2019-07-11T09:59:23Z</time>
      </trkpt>
      <trkpt lat="48.79118" lon="-3.54651">
        <ele>44.1</ele>
        <time>2019-07-11T09:59:24Z</time>
      </trkpt>
      <trkpt lat="48.79117" lon="-3.54648">
        <ele>44.5</ele>
        <time>2019-07-11T09:59:25Z</time>
      </trkpt>
      <trkpt lat="48.79115" lon="-3.54645">
        <ele>44.8</ele>
        <time>2019-07-11T09:59:26Z</time>
      </trkpt>
      <trkpt lat="48.79113" lon="-3.54642">
        <ele>45.1</ele>
        <time>2019-07-11T09:59:27Z</time>
      </trkpt>
      <trkpt lat="48.79112" lon="-3.5464">
        <ele>45.6</ele>
        <time>2019-07-11T09:59:28Z</time>
      </trkpt>
      <trkpt lat="48.7911" lon="-3.54638">
        <ele>46.1</ele>
        <time>2019-07-11T09:59:29Z</time>
      </trkpt>
      <trkpt lat="48.79108" lon="-3.54636">
        <ele>46.6</ele>
        <time>2019-07-11T09:59:30Z</time>
      </trkpt>
      <trkpt lat="48.79106" lon="-3.54633">
        <ele>46.5</ele>
        <time>2019-07-11T09:59:31Z</time>
      </trkpt>
      <trkpt lat="48.79104" lon="-3.5463">
        <ele>46.5</ele>
        <time>2019-07-11T09:59:32Z</time>
      </trkpt>
      <trkpt lat="48.79102" lon="-3.54628">
        <ele>45.9</ele>
        <time>2019-07-11T09:59:33Z</time>
      </trkpt>
      <trkpt lat="48.791" lon="-3.54626">
        <ele>45.8</ele>
        <time>2019-07-11T09:59:34Z</time>
      </trkpt>
      <trkpt lat="48.79097" lon="-3.54624">
        <ele>45.6</ele>
        <time>2019-07-11T09:59:35Z</time>
      </trkpt>
      <trkpt lat="48.79095" lon="-3.54622">
        <ele>45.5</ele>
        <time>2019-07-11T09:59:36Z</time>
      </trkpt>
      <trkpt lat="48.79093" lon="-3.54621">
        <ele>45.5</ele>
        <time>2019-07-11T09:59:37Z</time>
      </trkpt>
      <trkpt lat="48.79091" lon="-3.5462">
        <ele>45.9</ele>
        <time>2019-07-11T09:59:38Z</time>
      </trkpt>
      <trkpt lat="48.79089" lon="-3.5462">
        <ele>45.9</ele>
        <time>2019-07-11T09:59:39Z</time>
      </trkpt>
      <trkpt lat="48.79087" lon="-3.5462">
        <ele>46</ele>
        <time>2019-07-11T09:59:40Z</time>
      </trkpt>
      <trkpt lat="48.79084" lon="-3.5462">
        <ele>46.2</ele>
        <time>2019-07-11T09:59:41Z</time>
      </trkpt>
      <trkpt lat="48.79082" lon="-3.54621">
        <ele>46.4</ele>
        <time>2019-07-11T09:59:42Z</time>
      </trkpt>
      <trkpt lat="48.7908" lon="-3.54622">
        <ele>46.6</ele>
        <time>2019-07-11T09:59:43Z</time>
      </trkpt>
      <trkpt lat="48.79078" lon="-3.54623">
        <ele>46.5</ele>
        <time>2019-07-11T09:59:44Z</time>
      </trkpt>
      <trkpt lat="48.79075" lon="-3.54624">
        <ele>46.6</ele>
        <time>2019-07-11T09:59:45Z</time>
      </trkpt>
      <trkpt lat="48.79073" lon="-3.54626">
        <ele>46.8</ele>
        <time>2019-07-11T09:59:46Z</time>
      </trkpt>
      <trkpt lat="48.79071" lon="-3.54627">
        <ele>46.9</ele>
        <time>2019-07-11T09:59:47Z</time>
      </trkpt>
      <trkpt lat="48.7907" lon="-3.54628">
        <ele>47</ele>
        <time>2019-07-11T09:59:48Z</time>
      </trkpt>
      <trkpt lat="48.79067" lon="-3.54629">
        <ele>47.4</ele>
        <time>2019-07-11T09:59:49Z</time>
      </trkpt>
      <trkpt lat="48.79065" lon="-3.5463">
        <ele>47.7</ele>
        <time>2019-07-11T09:59:50Z</time>
      </trkpt>
      <trkpt lat="48.79063" lon="-3.54631">
        <ele>48</ele>
        <time>2019-07-11T09:59:51Z</time>
      </trkpt>
      <trkpt lat="48.79061" lon="-3.54632">
        <ele>48.3</ele>
        <time>2019-07-11T09:59:52Z</time>
      </trkpt>
      <trkpt lat="48.79059" lon="-3.54633">
        <ele>48.5</ele>
        <time>2019-07-11T09:59:53Z</time>
      </trkpt>
      <trkpt lat="48.79056" lon="-3.54634">
        <ele>48.6</ele>
        <time>2019-07-11T09:59:54Z</time>
      </trkpt>
      <trkpt lat="48.79054" lon="-3.54634">
        <ele>49</ele>
        <time>2019-07-11T09:59:55Z</time>
      </trkpt>
      <trkpt lat="48.79051" lon="-3.54634">
        <ele>49.1</ele>
        <time>2019-07-11T09:59:56Z</time>
      </trkpt>
      <trkpt lat="48.79049" lon="-3.54634">
        <ele>49.1</ele>
        <time>2019-07-11T09:59:57Z</time>
      </trkpt>
      <trkpt lat="48.79046" lon="-3.54635">
        <ele>49.3</ele>
        <time>2019-07-11T09:59:58Z</time>
      </trkpt>
      <trkpt lat="48.79043" lon="-3.54636">
        <ele>49.4</ele>
        <time>2019-07-11T09:59:59Z</time>
      </trkpt>
      <trkpt lat="48.7904" lon="-3.54636">
        <ele>49.4</ele>
        <time>2019-07-11T10:00:00Z</time>
      </trkpt>
      <trkpt lat="48.79038" lon="-3.54636">
        <ele>49.5</ele>
        <time>2019-07-11T10:00:01Z</time>
      </trkpt>
      <trkpt lat="48.79034" lon="-3.54636">
        <ele>49.4</ele>
        <time>2019-07-11T10:00:02Z</time>
      </trkpt>
      <trkpt lat="48.79032" lon="-3.54636">
        <ele>49.1</ele>
        <time>2019-07-11T10:00:03Z</time>
      </trkpt>
      <trkpt lat="48.79029" lon="-3.54637">
        <ele>48.8</ele>
        <time>2019-07-11T10:00:04Z</time>
      </trkpt>
      <trkpt lat="48.79026" lon="-3.54636">
        <ele>49</ele>
        <time>2019-07-11T10:00:05Z</time>
      </trkpt>
      <trkpt lat="48.79024" lon="-3.54634">
        <ele>49.1</ele>
        <time>2019-07-11T10:00:06Z</time>
      </trkpt>
      <trkpt lat="48.79021" lon="-3.54633">
        <ele>49.2</ele>
        <time>2019-07-11T10:00:07Z</time>
      </trkpt>
      <trkpt lat="48.79018" lon="-3.54632">
        <ele>49.6</ele>
        <time>2019-07-11T10:00:08Z</time>
      </trkpt>
      <trkpt lat="48.79016" lon="-3.5463">
        <ele>49.9</ele>
        <time>2019-07-11T10:00:09Z</time>
      </trkpt>
      <trkpt lat="48.79014" lon="-3.54627">
        <ele>50.5</ele>
        <time>2019-07-11T10:00:10Z</time>
      </trkpt>
      <trkpt lat="48.79012" lon="-3.54625">
        <ele>51</ele>
        <time>2019-07-11T10:00:11Z</time>
      </trkpt>
      <trkpt lat="48.79009" lon="-3.54624">
        <ele>51</ele>
        <time>2019-07-11T10:00:12Z</time>
      </trkpt>
      <trkpt lat="48.79007" lon="-3.54622">
        <ele>50.7</ele>
        <time>2019-07-11T10:00:13Z</time>
      </trkpt>
      <trkpt lat="48.79005" lon="-3.54621">
        <ele>50.3</ele>
        <time>2019-07-11T10:00:14Z</time>
      </trkpt>
      <trkpt lat="48.79002" lon="-3.54619">
        <ele>49.5</ele>
        <time>2019-07-11T10:00:15Z</time>
      </trkpt>
      <trkpt lat="48.78999" lon="-3.54617">
        <ele>48.9</ele>
        <time>2019-07-11T10:00:16Z</time>
      </trkpt>
      <trkpt lat="48.78996" lon="-3.54615">
        <ele>48.7</ele>
        <time>2019-07-11T10:00:17Z</time>
      </trkpt>
      <trkpt lat="48.78993" lon="-3.54613">
        <ele>48.4</ele>
        <time>2019-07-11T10:00:18Z</time>
      </trkpt>
      <trkpt lat="48.7899" lon="-3.54611">
        <ele>48.2</ele>
        <time>2019-07-11T10:00:19Z</time>
      </trkpt>
      <trkpt lat="48.78987" lon="-3.54608">
        <ele>48.3</ele>
        <time>2019-07-11T10:00:20Z</time>
      </trkpt>
      <trkpt lat="48.78983" lon="-3.54605">
        <ele>48.2</ele>
        <time>2019-07-11T10:00:21Z</time>
      </trkpt>
      <trkpt lat="48.7898" lon="-3.54603">
        <ele>48.2</ele>
        <time>2019-07-11T10:00:22Z</time>
      </trkpt>
      <trkpt lat="48.78976" lon="-3.54601">
        <ele>47.7</ele>
        <time>2019-07-11T10:00:23Z</time>
      </trkpt>
      <trkpt lat="48.78972" lon="-3.54598">
        <ele>46.8</ele>
        <time>2019-07-11T10:00:24Z</time>
      </trkpt>
      <trkpt lat="48.78968" lon="-3.54596">
        <ele>45.9</ele>
        <time>2019-07-11T10:00:25Z</time>
      </trkpt>
      <trkpt lat="48.78964" lon="-3.54593">
        <ele>45.1</ele>
        <time>2019-07-11T10:00:26Z</time>
      </trkpt>
      <trkpt lat="48.78959" lon="-3.54591">
        <ele>44.6</ele>
        <time>2019-07-11T10:00:27Z</time>
      </trkpt>
      <trkpt lat="48.78955" lon="-3.54588">
        <ele>43.8</ele>
        <time>2019-07-11T10:00:28Z</time>
      </trkpt>
      <trkpt lat="48.7895" lon="-3.54586">
        <ele>43.4</ele>
        <time>2019-07-11T10:00:29Z</time>
      </trkpt>
      <trkpt lat="48.78945" lon="-3.54583">
        <ele>42.4</ele>
        <time>2019-07-11T10:00:30Z</time>
      </trkpt>
      <trkpt lat="48.78941" lon="-3.54581">
        <ele>41.5</ele>
        <time>2019-07-11T10:00:31Z</time>
      </trkpt>
      <trkpt lat="48.78936" lon="-3.54578">
        <ele>40.8</ele>
        <time>2019-07-11T10:00:32Z</time>
      </trkpt>
      <trkpt lat="48.78933" lon="-3.54574">
        <ele>40.3</ele>
        <time>2019-07-11T10:00:33Z</time>
      </trkpt>
      <trkpt lat="48.78928" lon="-3.54571">
        <ele>39.9</ele>
        <time>2019-07-11T10:00:34Z</time>
      </trkpt>
      <trkpt lat="48.78925" lon="-3.54568">
        <ele>39.7</ele>
        <time>2019-07-11T10:00:35Z</time>
      </trkpt>
      <trkpt lat="48.78921" lon="-3.54564">
        <ele>39.4</ele>
        <time>2019-07-11T10:00:36Z</time>
      </trkpt>
      <trkpt lat="48.78918" lon="-3.54559">
        <ele>39.1</ele>
        <time>2019-07-11T10:00:37Z</time>
      </trkpt>
      <trkpt lat="48.78915" lon="-3.54554">
        <ele>39.8</ele>
        <time>2019-07-11T10:00:38Z</time>
      </trkpt>
      <trkpt lat="48.78913" lon="-3.54548">
        <ele>39.9</ele>
        <time>2019-07-11T10:00:39Z</time>
      </trkpt>
      <trkpt lat="48.78911" lon="-3.54543">
        <ele>40.2</ele>
        <time>2019-07-11T10:00:40Z</time>
      </trkpt>
      <trkpt lat="48.78909" lon="-3.54539">
        <ele>40.2</ele>
        <time>2019-07-11T10:00:41Z</time>
      </trkpt>
      <trkpt lat="48.78907" lon="-3.54535">
        <ele>40.2</ele>
        <time>2019-07-11T10:00:42Z</time>
      </trkpt>
      <trkpt lat="48.78905" lon="-3.54531">
        <ele>39.9</ele>
        <time>2019-07-11T10:00:43Z</time>
      </trkpt>
      <trkpt lat="48.78903" lon="-3.54527">
        <ele>39.2</ele>
        <time>2019-07-11T10:00:44Z</time>
      </trkpt>
      <trkpt lat="48.78901" lon="-3.54523">
        <ele>38.9</ele>
        <time>2019-07-11T10:00:45Z</time>
      </trkpt>
      <trkpt lat="48.78899" lon="-3.54519">
        <ele>38.5</ele>
        <time>2019-07-11T10:00:46Z</time>
      </trkpt>
      <trkpt lat="48.78898" lon="-3.54515">
        <ele>38.3</ele>
        <time>2019-07-11T10:00:47Z</time>
      </trkpt>
      <trkpt lat="48.78895" lon="-3.54511">
        <ele>38.1</ele>
        <time>2019-07-11T10:00:48Z</time>
      </trkpt>
      <trkpt lat="48.78893" lon="-3.54507">
        <ele>38</ele>
        <time>2019-07-11T10:00:49Z</time>
      </trkpt>
      <trkpt lat="48.78891" lon="-3.54503">
        <ele>37.7</ele>
        <time>2019-07-11T10:00:50Z</time>
      </trkpt>
      <trkpt lat="48.7889" lon="-3.54499">
        <ele>37.4</ele>
        <time>2019-07-11T10:00:51Z</time>
      </trkpt>
      <trkpt lat="48.78888" lon="-3.54495">
        <ele>37.1</ele>
        <time>2019-07-11T10:00:52Z</time>
      </trkpt>
      <trkpt lat="48.78887" lon="-3.54492">
        <ele>36.8</ele>
        <time>2019-07-11T10:00:53Z</time>
      </trkpt>
      <trkpt lat="48.78885" lon="-3.54489">
        <ele>36.5</ele>
        <time>2019-07-11T10:00:54Z</time>
      </trkpt>
      <trkpt lat="48.78884" lon="-3.54487">
        <ele>36.6</ele>
        <time>2019-07-11T10:00:55Z</time>
      </trkpt>
      <trkpt lat="48.78883" lon="-3.54485">
        <ele>37</ele>
        <time>2019-07-11T10:00:56Z</time>
      </trkpt>
      <trkpt lat="48.78881" lon="-3.54483">
        <ele>36.6</ele>
        <time>2019-07-11T10:00:57Z</time>
      </trkpt>
      <trkpt lat="48.7888" lon="-3.54482">
        <ele>36</ele>
        <time>2019-07-11T10:00:58Z</time>
      </trkpt>
      <trkpt lat="48.78879" lon="-3.54481">
        <ele>34.8</ele>
        <time>2019-07-11T10:00:59Z</time>
      </trkpt>
      <trkpt lat="48.78878" lon="-3.5448">
        <ele>34.2</ele>
        <time>2019-07-11T10:01:00Z</time>
      </trkpt>
      <trkpt lat="48.78877" lon="-3.54478">
        <ele>33.9</ele>
        <time>2019-07-11T10:01:01Z</time>
      </trkpt>
      <trkpt lat="48.78875" lon="-3.54476">
        <ele>34.2</ele>
        <time>2019-07-11T10:01:02Z</time>
      </trkpt>
      <trkpt lat="48.78875" lon="-3.54475">
        <ele>34.3</ele>
        <time>2019-07-11T10:01:03Z</time>
      </trkpt>
      <trkpt lat="48.78871" lon="-3.54474">
        <ele>34.2</ele>
        <time>2019-07-11T10:01:26Z</time>
      </trkpt>
      <trkpt lat="48.7887" lon="-3.54475">
        <ele>34.2</ele>
        <time>2019-07-11T10:01:27Z</time>
      </trkpt>
      <trkpt lat="48.78869" lon="-3.54476">
        <ele>34.2</ele>
        <time>2019-07-11T10:01:28Z</time>
      </trkpt>
      <trkpt lat="48.78867" lon="-3.54479">
        <ele>34.2</ele>
        <time>2019-07-11T10:01:29Z</time>
      </trkpt>
      <trkpt lat="48.78866" lon="-3.5448">
        <ele>34.1</ele>
        <time>2019-07-11T10:01:30Z</time>
      </trkpt>
      <trkpt lat="48.78865" lon="-3.54483">
        <ele>34.1</ele>
        <time>2019-07-11T10:01:31Z</time>
      </trkpt>
      <trkpt lat="48.78863" lon="-3.54483">
        <ele>34.1</ele>
        <time>2019-07-11T10:01:32Z</time>
      </trkpt>
      <trkpt lat="48.78862" lon="-3.54483">
        <ele>34.1</ele>
        <time>2019-07-11T10:01:33Z</time>
      </trkpt>
      <trkpt lat="48.78861" lon="-3.54482">
        <ele>34.3</ele>
        <time>2019-07-11T10:01:34Z</time>
      </trkpt>
      <trkpt lat="48.78859" lon="-3.5448">
        <ele>34.4</ele>
        <time>2019-07-11T10:01:35Z</time>
      </trkpt>
      <trkpt lat="48.78858" lon="-3.54477">
        <ele>34.6</ele>
        <time>2019-07-11T10:01:36Z</time>
      </trkpt>
      <trkpt lat="48.78857" lon="-3.54474">
        <ele>34.6</ele>
        <time>2019-07-11T10:01:37Z</time>
      </trkpt>
      <trkpt lat="48.78856" lon="-3.54471">
        <ele>34.6</ele>
        <time>2019-07-11T10:01:38Z</time>
      </trkpt>
      <trkpt lat="48.78854" lon="-3.54469">
        <ele>34.5</ele>
        <time>2019-07-11T10:01:39Z</time>
      </trkpt>
      <trkpt lat="48.78854" lon="-3.54466">
        <ele>34.6</ele>
        <time>2019-07-11T10:01:40Z</time>
      </trkpt>
      <trkpt lat="48.78853" lon="-3.54464">
        <ele>34.6</ele>
        <time>2019-07-11T10:01:41Z</time>
      </trkpt>
      <trkpt lat="48.78852" lon="-3.54462">
        <ele>34.6</ele>
        <time>2019-07-11T10:01:42Z</time>
      </trkpt>
      <trkpt lat="48.78851" lon="-3.54461">
        <ele>34.6</ele>
        <time>2019-07-11T10:01:43Z</time>
      </trkpt>
      <trkpt lat="48.78851" lon="-3.5446">
        <ele>34.6</ele>
        <time>2019-07-11T10:01:44Z</time>
      </trkpt>
      <trkpt lat="48.78852" lon="-3.54458">
        <ele>34.8</ele>
        <time>2019-07-11T10:01:45Z</time>
      </trkpt>
      <trkpt lat="48.78862" lon="-3.54445">
        <ele>34.9</ele>
        <time>2019-07-11T10:05:16Z</time>
      </trkpt>
      <trkpt lat="48.78862" lon="-3.54443">
        <ele>35.1</ele>
        <time>2019-07-11T10:05:17Z</time>
      </trkpt>
      <trkpt lat="48.78861" lon="-3.5444">
        <ele>35.2</ele>
        <time>2019-07-11T10:05:18Z</time>
      </trkpt>
      <trkpt lat="48.7886" lon="-3.54437">
        <ele>35.4</ele>
        <time>2019-07-11T10:05:19Z</time>
      </trkpt>
      <trkpt lat="48.78859" lon="-3.54434">
        <ele>35.6</ele>
        <time>2019-07-11T10:05:20Z</time>
      </trkpt>
      <trkpt lat="48.78858" lon="-3.54431">
        <ele>35.9</ele>
        <time>2019-07-11T10:05:21Z</time>
      </trkpt>
      <trkpt lat="48.78857" lon="-3.54428">
        <ele>35.9</ele>
        <time>2019-07-11T10:05:22Z</time>
      </trkpt>
      <trkpt lat="48.78856" lon="-3.54424">
        <ele>36.8</ele>
        <time>2019-07-11T10:05:23Z</time>
      </trkpt>
      <trkpt lat="48.78856" lon="-3.54421">
        <ele>37.2</ele>
        <time>2019-07-11T10:05:24Z</time>
      </trkpt>
      <trkpt lat="48.78856" lon="-3.54417">
        <ele>38.2</ele>
        <time>2019-07-11T10:05:25Z</time>
      </trkpt>
      <trkpt lat="48.78856" lon="-3.54412">
        <ele>39.2</ele>
        <time>2019-07-11T10:05:26Z</time>
      </trkpt>
      <trkpt lat="48.78856" lon="-3.54407">
        <ele>39.9</ele>
        <time>2019-07-11T10:05:27Z</time>
      </trkpt>
      <trkpt lat="48.78856" lon="-3.54402">
        <ele>40.5</ele>
        <time>2019-07-11T10:05:28Z</time>
      </trkpt>
      <trkpt lat="48.78857" lon="-3.54396">
        <ele>41.5</ele>
        <time>2019-07-11T10:05:29Z</time>
      </trkpt>
      <trkpt lat="48.78857" lon="-3.54389">
        <ele>41.7</ele>
        <time>2019-07-11T10:05:30Z</time>
      </trkpt>
      <trkpt lat="48.78857" lon="-3.54382">
        <ele>41.1</ele>
        <time>2019-07-11T10:05:31Z</time>
      </trkpt>
      <trkpt lat="48.78857" lon="-3.54374">
        <ele>41</ele>
        <time>2019-07-11T10:05:32Z</time>
      </trkpt>
      <trkpt lat="48.78856" lon="-3.54369">
        <ele>41</ele>
        <time>2019-07-11T10:05:33Z</time>
      </trkpt>
      <trkpt lat="48.78854" lon="-3.54364">
        <ele>41.3</ele>
        <time>2019-07-11T10:05:34Z</time>
      </trkpt>
      <trkpt lat="48.78853" lon="-3.5436">
        <ele>41.5</ele>
        <time>2019-07-11T10:05:35Z</time>
      </trkpt>
      <trkpt lat="48.7885" lon="-3.54356">
        <ele>41.7</ele>
        <time>2019-07-11T10:05:36Z</time>
      </trkpt>
      <trkpt lat="48.78847" lon="-3.54352">
        <ele>41.6</ele>
        <time>2019-07-11T10:05:37Z</time>
      </trkpt>
      <trkpt lat="48.78846" lon="-3.54349">
        <ele>41.7</ele>
        <time>2019-07-11T10:05:38Z</time>
      </trkpt>
      <trkpt lat="48.78846" lon="-3.54345">
        <ele>42.5</ele>
        <time>2019-07-11T10:05:39Z</time>
      </trkpt>
      <trkpt lat="48.78845" lon="-3.54341">
        <ele>42.9</ele>
        <time>2019-07-11T10:05:40Z</time>
      </trkpt>
      <trkpt lat="48.78845" lon="-3.54338">
        <ele>42.7</ele>
        <time>2019-07-11T10:05:41Z</time>
      </trkpt>
      <trkpt lat="48.78844" lon="-3.54334">
        <ele>42.6</ele>
        <time>2019-07-11T10:05:42Z</time>
      </trkpt>
      <trkpt lat="48.78842" lon="-3.54331">
        <ele>42.6</ele>
        <time>2019-07-11T10:05:43Z</time>
      </trkpt>
      <trkpt lat="48.78841" lon="-3.54328">
        <ele>42.6</ele>
        <time>2019-07-11T10:05:44Z</time>
      </trkpt>
      <trkpt lat="48.7884" lon="-3.54324">
        <ele>42.6</ele>
        <time>2019-07-11T10:05:45Z</time>
      </trkpt>
      <trkpt lat="48.78838" lon="-3.5432">
        <ele>42.9</ele>
        <time>2019-07-11T10:05:46Z</time>
      </trkpt>
      <trkpt lat="48.78837" lon="-3.54316">
        <ele>43.3</ele>
        <time>2019-07-11T10:05:47Z</time>
      </trkpt>
      <trkpt lat="48.78836" lon="-3.54312">
        <ele>43.5</ele>
        <time>2019-07-11T10:05:48Z</time>
      </trkpt>
      <trkpt lat="48.78835" lon="-3.54309">
        <ele>43.9</ele>
        <time>2019-07-11T10:05:49Z</time>
      </trkpt>
      <trkpt lat="48.78834" lon="-3.54305">
        <ele>44.2</ele>
        <time>2019-07-11T10:05:50Z</time>
      </trkpt>
      <trkpt lat="48.78833" lon="-3.54303">
        <ele>44.3</ele>
        <time>2019-07-11T10:05:51Z</time>
      </trkpt>
      <trkpt lat="48.78833" lon="-3.543">
        <ele>44.9</ele>
        <time>2019-07-11T10:05:52Z</time>
      </trkpt>
      <trkpt lat="48.78832" lon="-3.54297">
        <ele>45.1</ele>
        <time>2019-07-11T10:05:53Z</time>
      </trkpt>
      <trkpt lat="48.78831" lon="-3.54295">
        <ele>45.3</ele>
        <time>2019-07-11T10:05:54Z</time>
      </trkpt>
      <trkpt lat="48.7883" lon="-3.54293">
        <ele>45.4</ele>
        <time>2019-07-11T10:05:55Z</time>
      </trkpt>
      <trkpt lat="48.7883" lon="-3.54291">
        <ele>45.7</ele>
        <time>2019-07-11T10:05:56Z</time>
      </trkpt>
      <trkpt lat="48.78829" lon="-3.54287">
        <ele>45.9</ele>
        <time>2019-07-11T10:05:57Z</time>
      </trkpt>
      <trkpt lat="48.78829" lon="-3.54284">
        <ele>46</ele>
        <time>2019-07-11T10:05:58Z</time>
      </trkpt>
      <trkpt lat="48.78829" lon="-3.5428">
        <ele>46.1</ele>
        <time>2019-07-11T10:05:59Z</time>
      </trkpt>
      <trkpt lat="48.78829" lon="-3.54277">
        <ele>46.1</ele>
        <time>2019-07-11T10:06:00Z</time>
      </trkpt>
      <trkpt lat="48.78828" lon="-3.54273">
        <ele>46.2</ele>
        <time>2019-07-11T10:06:01Z</time>
      </trkpt>
      <trkpt lat="48.78828" lon="-3.54269">
        <ele>46</ele>
        <time>2019-07-11T10:06:02Z</time>
      </trkpt>
      <trkpt lat="48.78827" lon="-3.54266">
        <ele>46.1</ele>
        <time>2019-07-11T10:06:03Z</time>
      </trkpt>
      <trkpt lat="48.78826" lon="-3.54264">
        <ele>46.3</ele>
        <time>2019-07-11T10:06:04Z</time>
      </trkpt>
      <trkpt lat="48.78825" lon="-3.54261">
        <ele>46.5</ele>
        <time>2019-07-11T10:06:05Z</time>
      </trkpt>
      <trkpt lat="48.78823" lon="-3.54258">
        <ele>46.3</ele>
        <time>2019-07-11T10:06:06Z</time>
      </trkpt>
      <trkpt lat="48.78822" lon="-3.54255">
        <ele>46.3</ele>
        <time>2019-07-11T10:06:07Z</time>
      </trkpt>
      <trkpt lat="48.78821" lon="-3.54253">
        <ele>46.2</ele>
        <time>2019-07-11T10:06:08Z</time>
      </trkpt>
      <trkpt lat="48.7882" lon="-3.54249">
        <ele>46.2</ele>
        <time>2019-07-11T10:06:09Z</time>
      </trkpt>
      <trkpt lat="48.7882" lon="-3.54245">
        <ele>45.7</ele>
        <time>2019-07-11T10:06:10Z</time>
      </trkpt>
      <trkpt lat="48.7882" lon="-3.54242">
        <ele>45.1</ele>
        <time>2019-07-11T10:06:11Z</time>
      </trkpt>
      <trkpt lat="48.78819" lon="-3.54238">
        <ele>44.8</ele>
        <time>2019-07-11T10:06:12Z</time>
      </trkpt>
      <trkpt lat="48.78819" lon="-3.54234">
        <ele>43.9</ele>
        <time>2019-07-11T10:06:13Z</time>
      </trkpt>
      <trkpt lat="48.78819" lon="-3.54231">
        <ele>42.8</ele>
        <time>2019-07-11T10:06:14Z</time>
      </trkpt>
      <trkpt lat="48.78817" lon="-3.54227">
        <ele>41</ele>
        <time>2019-07-11T10:06:15Z</time>
      </trkpt>
      <trkpt lat="48.78817" lon="-3.54224">
        <ele>39.5</ele>
        <time>2019-07-11T10:06:16Z</time>
      </trkpt>
      <trkpt lat="48.78815" lon="-3.5422">
        <ele>38</ele>
        <time>2019-07-11T10:06:17Z</time>
      </trkpt>
      <trkpt lat="48.78814" lon="-3.54215">
        <ele>36.8</ele>
        <time>2019-07-11T10:06:18Z</time>
      </trkpt>
      <trkpt lat="48.78812" lon="-3.5421">
        <ele>36.2</ele>
        <time>2019-07-11T10:06:19Z</time>
      </trkpt>
      <trkpt lat="48.78811" lon="-3.54205">
        <ele>36.2</ele>
        <time>2019-07-11T10:06:20Z</time>
      </trkpt>
      <trkpt lat="48.78809" lon="-3.54199">
        <ele>35.3</ele>
        <time>2019-07-11T10:06:21Z</time>
      </trkpt>
      <trkpt lat="48.78808" lon="-3.54194">
        <ele>35.1</ele>
        <time>2019-07-11T10:06:22Z</time>
      </trkpt>
      <trkpt lat="48.78806" lon="-3.54188">
        <ele>35.1</ele>
        <time>2019-07-11T10:06:23Z</time>
      </trkpt>
      <trkpt lat="48.78805" lon="-3.54183">
        <ele>35.1</ele>
        <time>2019-07-11T10:06:24Z</time>
      </trkpt>
      <trkpt lat="48.78803" lon="-3.54179">
        <ele>35.3</ele>
        <time>2019-07-11T10:06:25Z</time>
      </trkpt>
      <trkpt lat="48.78801" lon="-3.54175">
        <ele>35.6</ele>
        <time>2019-07-11T10:06:26Z</time>
      </trkpt>
      <trkpt lat="48.78799" lon="-3.54171">
        <ele>36.4</ele>
        <time>2019-07-11T10:06:27Z</time>
      </trkpt>
      <trkpt lat="48.78798" lon="-3.54166">
        <ele>36.9</ele>
        <time>2019-07-11T10:06:28Z</time>
      </trkpt>
      <trkpt lat="48.78796" lon="-3.54161">
        <ele>37</ele>
        <time>2019-07-11T10:06:29Z</time>
      </trkpt>
      <trkpt lat="48.78795" lon="-3.54157">
        <ele>36.9</ele>
        <time>2019-07-11T10:06:30Z</time>
      </trkpt>
      <trkpt lat="48.78793" lon="-3.54152">
        <ele>36.9</ele>
        <time>2019-07-11T10:06:31Z</time>
      </trkpt>
      <trkpt lat="48.78793" lon="-3.54148">
        <ele>36.8</ele>
        <time>2019-07-11T10:06:32Z</time>
      </trkpt>
      <trkpt lat="48.78791" lon="-3.54144">
        <ele>36.7</ele>
        <time>2019-07-11T10:06:33Z</time>
      </trkpt>
      <trkpt lat="48.7879" lon="-3.54141">
        <ele>36.5</ele>
        <time>2019-07-11T10:06:34Z</time>
      </trkpt>
      <trkpt lat="48.78788" lon="-3.54136">
        <ele>36.4</ele>
        <time>2019-07-11T10:06:35Z</time>
      </trkpt>
      <trkpt lat="48.78787" lon="-3.54132">
        <ele>36.1</ele>
        <time>2019-07-11T10:06:36Z</time>
      </trkpt>
      <trkpt lat="48.78785" lon="-3.54129">
        <ele>35.8</ele>
        <time>2019-07-11T10:06:37Z</time>
      </trkpt>
      <trkpt lat="48.78784" lon="-3.54125">
        <ele>35.7</ele>
        <time>2019-07-11T10:06:38Z</time>
      </trkpt>
      <trkpt lat="48.78783" lon="-3.54122">
        <ele>35.5</ele>
        <time>2019-07-11T10:06:39Z</time>
      </trkpt>
      <trkpt lat="48.78782" lon="-3.54119">
        <ele>35.1</ele>
        <time>2019-07-11T10:06:40Z</time>
      </trkpt>
      <trkpt lat="48.7878" lon="-3.54116">
        <ele>35.4</ele>
        <time>2019-07-11T10:06:41Z</time>
      </trkpt>
      <trkpt lat="48.78779" lon="-3.54112">
        <ele>34.7</ele>
        <time>2019-07-11T10:06:42Z</time>
      </trkpt>
      <trkpt lat="48.78777" lon="-3.5411">
        <ele>34.5</ele>
        <time>2019-07-11T10:06:43Z</time>
      </trkpt>
      <trkpt lat="48.78776" lon="-3.54108">
        <ele>34.4</ele>
        <time>2019-07-11T10:06:44Z</time>
      </trkpt>
      <trkpt lat="48.78775" lon="-3.54106">
        <ele>34.2</ele>
        <time>2019-07-11T10:06:45Z</time>
      </trkpt>
      <trkpt lat="48.78774" lon="-3.54103">
        <ele>34.5</ele>
        <time>2019-07-11T10:06:46Z</time>
      </trkpt>
      <trkpt lat="48.78772" lon="-3.54099">
        <ele>34.8</ele>
        <time>2019-07-11T10:06:47Z</time>
      </trkpt>
      <trkpt lat="48.7877" lon="-3.54096">
        <ele>34.9</ele>
        <time>2019-07-11T10:06:48Z</time>
      </trkpt>
      <trkpt lat="48.78768" lon="-3.54093">
        <ele>34.5</ele>
        <time>2019-07-11T10:06:49Z</time>
      </trkpt>
      <trkpt lat="48.78766" lon="-3.5409">
        <ele>34.5</ele>
        <time>2019-07-11T10:06:50Z</time>
      </trkpt>
      <trkpt lat="48.78763" lon="-3.54087">
        <ele>34.5</ele>
        <time>2019-07-11T10:06:51Z</time>
      </trkpt>
      <trkpt lat="48.78761" lon="-3.54084">
        <ele>34.2</ele>
        <time>2019-07-11T10:06:52Z</time>
      </trkpt>
      <trkpt lat="48.78759" lon="-3.54082">
        <ele>34.5</ele>
        <time>2019-07-11T10:06:53Z</time>
      </trkpt>
      <trkpt lat="48.78757" lon="-3.5408">
        <ele>34.2</ele>
        <time>2019-07-11T10:06:54Z</time>
      </trkpt>
      <trkpt lat="48.78755" lon="-3.54079">
        <ele>34.5</ele>
        <time>2019-07-11T10:06:55Z</time>
      </trkpt>
      <trkpt lat="48.78753" lon="-3.54076">
        <ele>35.2</ele>
        <time>2019-07-11T10:06:56Z</time>
      </trkpt>
      <trkpt lat="48.7875" lon="-3.54073">
        <ele>35.8</ele>
        <time>2019-07-11T10:06:57Z</time>
      </trkpt>
      <trkpt lat="48.78748" lon="-3.54071">
        <ele>36</ele>
        <time>2019-07-11T10:06:58Z</time>
      </trkpt>
      <trkpt lat="48.78745" lon="-3.54069">
        <ele>36</ele>
        <time>2019-07-11T10:06:59Z</time>
      </trkpt>
      <trkpt lat="48.78742" lon="-3.54066">
        <ele>36.3</ele>
        <time>2019-07-11T10:07:00Z</time>
      </trkpt>
      <trkpt lat="48.78739" lon="-3.54064">
        <ele>36.1</ele>
        <time>2019-07-11T10:07:01Z</time>
      </trkpt>
      <trkpt lat="48.78737" lon="-3.54061">
        <ele>36.3</ele>
        <time>2019-07-11T10:07:02Z</time>
      </trkpt>
      <trkpt lat="48.78733" lon="-3.54059">
        <ele>36.5</ele>
        <time>2019-07-11T10:07:03Z</time>
      </trkpt>
      <trkpt lat="48.78729" lon="-3.54056">
        <ele>37.6</ele>
        <time>2019-07-11T10:07:04Z</time>
      </trkpt>
      <trkpt lat="48.78726" lon="-3.54053">
        <ele>38.4</ele>
        <time>2019-07-11T10:07:05Z</time>
      </trkpt>
      <trkpt lat="48.78723" lon="-3.54049">
        <ele>38.6</ele>
        <time>2019-07-11T10:07:06Z</time>
      </trkpt>
      <trkpt lat="48.7872" lon="-3.54045">
        <ele>39.5</ele>
        <time>2019-07-11T10:07:07Z</time>
      </trkpt>
      <trkpt lat="48.78717" lon="-3.54041">
        <ele>39.8</ele>
        <time>2019-07-11T10:07:08Z</time>
      </trkpt>
      <trkpt lat="48.78714" lon="-3.54038">
        <ele>39.8</ele>
        <time>2019-07-11T10:07:09Z</time>
      </trkpt>
      <trkpt lat="48.78711" lon="-3.54034">
        <ele>40.1</ele>
        <time>2019-07-11T10:07:10Z</time>
      </trkpt>
      <trkpt lat="48.78708" lon="-3.5403">
        <ele>40.4</ele>
        <time>2019-07-11T10:07:11Z</time>
      </trkpt>
      <trkpt lat="48.78706" lon="-3.54025">
        <ele>40.7</ele>
        <time>2019-07-11T10:07:12Z</time>
      </trkpt>
      <trkpt lat="48.78703" lon="-3.5402">
        <ele>41.7</ele>
        <time>2019-07-11T10:07:13Z</time>
      </trkpt>
      <trkpt lat="48.787" lon="-3.54014">
        <ele>42.1</ele>
        <time>2019-07-11T10:07:14Z</time>
      </trkpt>
      <trkpt lat="48.78698" lon="-3.54009">
        <ele>42</ele>
        <time>2019-07-11T10:07:15Z</time>
      </trkpt>
      <trkpt lat="48.78695" lon="-3.54003">
        <ele>41.6</ele>
        <time>2019-07-11T10:07:16Z</time>
      </trkpt>
      <trkpt lat="48.78693" lon="-3.53997">
        <ele>41.4</ele>
        <time>2019-07-11T10:07:17Z</time>
      </trkpt>
      <trkpt lat="48.7869" lon="-3.53991">
        <ele>41.3</ele>
        <time>2019-07-11T10:07:18Z</time>
      </trkpt>
      <trkpt lat="48.78688" lon="-3.53985">
        <ele>41.4</ele>
        <time>2019-07-11T10:07:19Z</time>
      </trkpt>
      <trkpt lat="48.78686" lon="-3.53977">
        <ele>41.9</ele>
        <time>2019-07-11T10:07:20Z</time>
      </trkpt>
      <trkpt lat="48.78684" lon="-3.5397">
        <ele>41.8</ele>
        <time>2019-07-11T10:07:21Z</time>
      </trkpt>
      <trkpt lat="48.78682" lon="-3.53963">
        <ele>41.3</ele>
        <time>2019-07-11T10:07:22Z</time>
      </trkpt>
      <trkpt lat="48.78679" lon="-3.53955">
        <ele>41</ele>
        <time>2019-07-11T10:07:23Z</time>
      </trkpt>
      <trkpt lat="48.78678" lon="-3.53947">
        <ele>40.8</ele>
        <time>2019-07-11T10:07:24Z</time>
      </trkpt>
      <trkpt lat="48.78676" lon="-3.5394">
        <ele>40.5</ele>
        <time>2019-07-11T10:07:25Z</time>
      </trkpt>
      <trkpt lat="48.78674" lon="-3.53933">
        <ele>40</ele>
        <time>2019-07-11T10:07:26Z</time>
      </trkpt>
      <trkpt lat="48.78672" lon="-3.53927">
        <ele>39.4</ele>
        <time>2019-07-11T10:07:27Z</time>
      </trkpt>
      <trkpt lat="48.78669" lon="-3.53921">
        <ele>39</ele>
        <time>2019-07-11T10:07:28Z</time>
      </trkpt>
      <trkpt lat="48.78667" lon="-3.53915">
        <ele>38.1</ele>
        <time>2019-07-11T10:07:29Z</time>
      </trkpt>
      <trkpt lat="48.78665" lon="-3.53909">
        <ele>37.7</ele>
        <time>2019-07-11T10:07:30Z</time>
      </trkpt>
      <trkpt lat="48.78663" lon="-3.53902">
        <ele>37</ele>
        <time>2019-07-11T10:07:31Z</time>
      </trkpt>
      <trkpt lat="48.7866" lon="-3.53895">
        <ele>36.9</ele>
        <time>2019-07-11T10:07:32Z</time>
      </trkpt>
      <trkpt lat="48.78658" lon="-3.53888">
        <ele>37.1</ele>
        <time>2019-07-11T10:07:33Z</time>
      </trkpt>
      <trkpt lat="48.78655" lon="-3.53881">
        <ele>36.7</ele>
        <time>2019-07-11T10:07:34Z</time>
      </trkpt>
      <trkpt lat="48.78652" lon="-3.53873">
        <ele>36.1</ele>
        <time>2019-07-11T10:07:35Z</time>
      </trkpt>
      <trkpt lat="48.7865" lon="-3.53866">
        <ele>35.8</ele>
        <time>2019-07-11T10:07:36Z</time>
      </trkpt>
      <trkpt lat="48.78647" lon="-3.53861">
        <ele>35.7</ele>
        <time>2019-07-11T10:07:37Z</time>
      </trkpt>
      <trkpt lat="48.78645" lon="-3.53856">
        <ele>35.7</ele>
        <time>2019-07-11T10:07:38Z</time>
      </trkpt>
      <trkpt lat="48.78643" lon="-3.5385">
        <ele>35</ele>
        <time>2019-07-11T10:07:39Z</time>
      </trkpt>
      <trkpt lat="48.78642" lon="-3.53845">
        <ele>34.8</ele>
        <time>2019-07-11T10:07:40Z</time>
      </trkpt>
      <trkpt lat="48.7864" lon="-3.53839">
        <ele>34.3</ele>
        <time>2019-07-11T10:07:41Z</time>
      </trkpt>
      <trkpt lat="48.78636" lon="-3.53833">
        <ele>34.1</ele>
        <time>2019-07-11T10:07:42Z</time>
      </trkpt>
      <trkpt lat="48.78634" lon="-3.53826">
        <ele>34.4</ele>
        <time>2019-07-11T10:07:43Z</time>
      </trkpt>
      <trkpt lat="48.78631" lon="-3.53819">
        <ele>34.6</ele>
        <time>2019-07-11T10:07:44Z</time>
      </trkpt>
      <trkpt lat="48.78628" lon="-3.53812">
        <ele>34.2</ele>
        <time>2019-07-11T10:07:45Z</time>
      </trkpt>
      <trkpt lat="48.78626" lon="-3.53804">
        <ele>34</ele>
        <time>2019-07-11T10:07:46Z</time>
      </trkpt>
      <trkpt lat="48.78624" lon="-3.53795">
        <ele>33.4</ele>
        <time>2019-07-11T10:07:47Z</time>
      </trkpt>
      <trkpt lat="48.78622" lon="-3.53785">
        <ele>33</ele>
        <time>2019-07-11T10:07:48Z</time>
      </trkpt>
      <trkpt lat="48.78621" lon="-3.53775">
        <ele>32.7</ele>
        <time>2019-07-11T10:07:49Z</time>
      </trkpt>
      <trkpt lat="48.7862" lon="-3.53766">
        <ele>32.4</ele>
        <time>2019-07-11T10:07:50Z</time>
      </trkpt>
      <trkpt lat="48.78619" lon="-3.53758">
        <ele>31.8</ele>
        <time>2019-07-11T10:07:51Z</time>
      </trkpt>
      <trkpt lat="48.78618" lon="-3.5375">
        <ele>31.5</ele>
        <time>2019-07-11T10:07:52Z</time>
      </trkpt>
      <trkpt lat="48.78616" lon="-3.53741">
        <ele>31.2</ele>
        <time>2019-07-11T10:07:53Z</time>
      </trkpt>
      <trkpt lat="48.78614" lon="-3.53732">
        <ele>30.8</ele>
        <time>2019-07-11T10:07:54Z</time>
      </trkpt>
      <trkpt lat="48.78611" lon="-3.53724">
        <ele>30.6</ele>
        <time>2019-07-11T10:07:55Z</time>
      </trkpt>
      <trkpt lat="48.7861" lon="-3.53714">
        <ele>29.8</ele>
        <time>2019-07-11T10:07:56Z</time>
      </trkpt>
      <trkpt lat="48.78608" lon="-3.53707">
        <ele>29.6</ele>
        <time>2019-07-11T10:07:57Z</time>
      </trkpt>
      <trkpt lat="48.78607" lon="-3.53697">
        <ele>28.9</ele>
        <time>2019-07-11T10:07:58Z</time>
      </trkpt>
      <trkpt lat="48.78605" lon="-3.53692">
        <ele>29</ele>
        <time>2019-07-11T10:07:59Z</time>
      </trkpt>
      <trkpt lat="48.78604" lon="-3.53685">
        <ele>28.8</ele>
        <time>2019-07-11T10:08:00Z</time>
      </trkpt>
      <trkpt lat="48.78603" lon="-3.53677">
        <ele>28.6</ele>
        <time>2019-07-11T10:08:01Z</time>
      </trkpt>
      <trkpt lat="48.78601" lon="-3.53671">
        <ele>28.5</ele>
        <time>2019-07-11T10:08:02Z</time>
      </trkpt>
      <trkpt lat="48.78603" lon="-3.53656">
        <ele>27.4</ele>
        <time>2019-07-11T10:08:03Z</time>
      </trkpt>
      <trkpt lat="48.78602" lon="-3.53642">
        <ele>26.3</ele>
        <time>2019-07-11T10:08:04Z</time>
      </trkpt>
      <trkpt lat="48.786" lon="-3.53632">
        <ele>25.6</ele>
        <time>2019-07-11T10:08:05Z</time>
      </trkpt>
      <trkpt lat="48.78599" lon="-3.53622">
        <ele>25.3</ele>
        <time>2019-07-11T10:08:06Z</time>
      </trkpt>
      <trkpt lat="48.78598" lon="-3.53612">
        <ele>25.2</ele>
        <time>2019-07-11T10:08:07Z</time>
      </trkpt>
      <trkpt lat="48.78597" lon="-3.53602">
        <ele>24.8</ele>
        <time>2019-07-11T10:08:08Z</time>
      </trkpt>
      <trkpt lat="48.78594" lon="-3.53593">
        <ele>24.8</ele>
        <time>2019-07-11T10:08:09Z</time>
      </trkpt>
      <trkpt lat="48.78592" lon="-3.53586">
        <ele>24.8</ele>
        <time>2019-07-11T10:08:10Z</time>
      </trkpt>
      <trkpt lat="48.78589" lon="-3.53579">
        <ele>24.2</ele>
        <time>2019-07-11T10:08:11Z</time>
      </trkpt>
      <trkpt lat="48.78585" lon="-3.53573">
        <ele>23.7</ele>
        <time>2019-07-11T10:08:12Z</time>
      </trkpt>
      <trkpt lat="48.78582" lon="-3.53566">
        <ele>23.2</ele>
        <time>2019-07-11T10:08:13Z</time>
      </trkpt>
      <trkpt lat="48.78579" lon="-3.53559">
        <ele>23.1</ele>
        <time>2019-07-11T10:08:14Z</time>
      </trkpt>
      <trkpt lat="48.78577" lon="-3.53552">
        <ele>22.9</ele>
        <time>2019-07-11T10:08:15Z</time>
      </trkpt>
      <trkpt lat="48.78574" lon="-3.53546">
        <ele>22.6</ele>
        <time>2019-07-11T10:08:16Z</time>
      </trkpt>
      <trkpt lat="48.78572" lon="-3.53541">
        <ele>22.3</ele>
        <time>2019-07-11T10:08:17Z</time>
      </trkpt>
      <trkpt lat="48.7857" lon="-3.53536">
        <ele>22.1</ele>
        <time>2019-07-11T10:08:18Z</time>
      </trkpt>
      <trkpt lat="48.78569" lon="-3.53532">
        <ele>21.8</ele>
        <time>2019-07-11T10:08:19Z</time>
      </trkpt>
      <trkpt lat="48.78568" lon="-3.53527">
        <ele>21.5</ele>
        <time>2019-07-11T10:08:20Z</time>
      </trkpt>
      <trkpt lat="48.78566" lon="-3.5352">
        <ele>21.4</ele>
        <time>2019-07-11T10:08:21Z</time>
      </trkpt>
      <trkpt lat="48.78565" lon="-3.53514">
        <ele>21.4</ele>
        <time>2019-07-11T10:08:22Z</time>
      </trkpt>
      <trkpt lat="48.78562" lon="-3.53508">
        <ele>21.4</ele>
        <time>2019-07-11T10:08:23Z</time>
      </trkpt>
      <trkpt lat="48.78561" lon="-3.53502">
        <ele>21.7</ele>
        <time>2019-07-11T10:08:24Z</time>
      </trkpt>
      <trkpt lat="48.7856" lon="-3.53497">
        <ele>21.8</ele>
        <time>2019-07-11T10:08:25Z</time>
      </trkpt>
      <trkpt lat="48.78558" lon="-3.53493">
        <ele>21.7</ele>
        <time>2019-07-11T10:08:26Z</time>
      </trkpt>
      <trkpt lat="48.78557" lon="-3.53488">
        <ele>21.4</ele>
        <time>2019-07-11T10:08:27Z</time>
      </trkpt>
      <trkpt lat="48.78556" lon="-3.53484">
        <ele>21.5</ele>
        <time>2019-07-11T10:08:28Z</time>
      </trkpt>
      <trkpt lat="48.78555" lon="-3.5348">
        <ele>21.2</ele>
        <time>2019-07-11T10:08:29Z</time>
      </trkpt>
      <trkpt lat="48.78554" lon="-3.53476">
        <ele>21</ele>
        <time>2019-07-11T10:08:30Z</time>
      </trkpt>
      <trkpt lat="48.78553" lon="-3.53472">
        <ele>20.7</ele>
        <time>2019-07-11T10:08:31Z</time>
      </trkpt>
      <trkpt lat="48.78552" lon="-3.53468">
        <ele>20.2</ele>
        <time>2019-07-11T10:08:32Z</time>
      </trkpt>
      <trkpt lat="48.78551" lon="-3.53464">
        <ele>20.2</ele>
        <time>2019-07-11T10:08:33Z</time>
      </trkpt>
      <trkpt lat="48.7855" lon="-3.5346">
        <ele>20</ele>
        <time>2019-07-11T10:08:34Z</time>
      </trkpt>
      <trkpt lat="48.7855" lon="-3.53456">
        <ele>19.3</ele>
        <time>2019-07-11T10:08:35Z</time>
      </trkpt>
      <trkpt lat="48.78548" lon="-3.53452">
        <ele>18.6</ele>
        <time>2019-07-11T10:08:36Z</time>
      </trkpt>
      <trkpt lat="48.78547" lon="-3.53449">
        <ele>18.3</ele>
        <time>2019-07-11T10:08:37Z</time>
      </trkpt>
      <trkpt lat="48.78546" lon="-3.53445">
        <ele>17.8</ele>
        <time>2019-07-11T10:08:38Z</time>
      </trkpt>
      <trkpt lat="48.78545" lon="-3.53441">
        <ele>17.5</ele>
        <time>2019-07-11T10:08:39Z</time>
      </trkpt>
      <trkpt lat="48.78544" lon="-3.53438">
        <ele>17.3</ele>
        <time>2019-07-11T10:08:40Z</time>
      </trkpt>
      <trkpt lat="48.78542" lon="-3.53434">
        <ele>17.2</ele>
        <time>2019-07-11T10:08:41Z</time>
      </trkpt>
      <trkpt lat="48.78541" lon="-3.53431">
        <ele>17.3</ele>
        <time>2019-07-11T10:08:42Z</time>
      </trkpt>
      <trkpt lat="48.78539" lon="-3.53428">
        <ele>17.7</ele>
        <time>2019-07-11T10:08:43Z</time>
      </trkpt>
      <trkpt lat="48.78539" lon="-3.53425">
        <ele>18.4</ele>
        <time>2019-07-11T10:08:44Z</time>
      </trkpt>
      <trkpt lat="48.78537" lon="-3.53422">
        <ele>18.6</ele>
        <time>2019-07-11T10:08:45Z</time>
      </trkpt>
      <trkpt lat="48.78535" lon="-3.53419">
        <ele>19.7</ele>
        <time>2019-07-11T10:08:46Z</time>
      </trkpt>
      <trkpt lat="48.78534" lon="-3.53416">
        <ele>20.4</ele>
        <time>2019-07-11T10:08:47Z</time>
      </trkpt>
      <trkpt lat="48.78533" lon="-3.53413">
        <ele>21.7</ele>
        <time>2019-07-11T10:08:48Z</time>
      </trkpt>
      <trkpt lat="48.78532" lon="-3.5341">
        <ele>22.4</ele>
        <time>2019-07-11T10:08:49Z</time>
      </trkpt>
      <trkpt lat="48.78532" lon="-3.53407">
        <ele>23.2</ele>
        <time>2019-07-11T10:08:50Z</time>
      </trkpt>
      <trkpt lat="48.78531" lon="-3.53404">
        <ele>24.2</ele>
        <time>2019-07-11T10:08:51Z</time>
      </trkpt>
      <trkpt lat="48.7853" lon="-3.53401">
        <ele>24.7</ele>
        <time>2019-07-11T10:08:52Z</time>
      </trkpt>
      <trkpt lat="48.78529" lon="-3.53397">
        <ele>25.1</ele>
        <time>2019-07-11T10:08:53Z</time>
      </trkpt>
      <trkpt lat="48.78528" lon="-3.53394">
        <ele>25.3</ele>
        <time>2019-07-11T10:08:54Z</time>
      </trkpt>
      <trkpt lat="48.78525" lon="-3.53391">
        <ele>25.9</ele>
        <time>2019-07-11T10:08:55Z</time>
      </trkpt>
      <trkpt lat="48.78523" lon="-3.53387">
        <ele>26.6</ele>
        <time>2019-07-11T10:08:56Z</time>
      </trkpt>
      <trkpt lat="48.78521" lon="-3.53384">
        <ele>27.4</ele>
        <time>2019-07-11T10:08:57Z</time>
      </trkpt>
      <trkpt lat="48.78519" lon="-3.5338">
        <ele>28</ele>
        <time>2019-07-11T10:08:58Z</time>
      </trkpt>
      <trkpt lat="48.78518" lon="-3.53376">
        <ele>28.6</ele>
        <time>2019-07-11T10:08:59Z</time>
      </trkpt>
      <trkpt lat="48.78516" lon="-3.53372">
        <ele>29</ele>
        <time>2019-07-11T10:09:00Z</time>
      </trkpt>
      <trkpt lat="48.78513" lon="-3.53368">
        <ele>29.3</ele>
        <time>2019-07-11T10:09:01Z</time>
      </trkpt>
      <trkpt lat="48.7851" lon="-3.53364">
        <ele>30</ele>
        <time>2019-07-11T10:09:02Z</time>
      </trkpt>
      <trkpt lat="48.78506" lon="-3.53359">
        <ele>30.4</ele>
        <time>2019-07-11T10:09:03Z</time>
      </trkpt>
      <trkpt lat="48.78504" lon="-3.53356">
        <ele>31.2</ele>
        <time>2019-07-11T10:09:04Z</time>
      </trkpt>
      <trkpt lat="48.78502" lon="-3.53352">
        <ele>31.8</ele>
        <time>2019-07-11T10:09:05Z</time>
      </trkpt>
      <trkpt lat="48.785" lon="-3.53348">
        <ele>32.8</ele>
        <time>2019-07-11T10:09:06Z</time>
      </trkpt>
      <trkpt lat="48.78497" lon="-3.53344">
        <ele>33.5</ele>
        <time>2019-07-11T10:09:07Z</time>
      </trkpt>
      <trkpt lat="48.78494" lon="-3.5334">
        <ele>34.4</ele>
        <time>2019-07-11T10:09:08Z</time>
      </trkpt>
      <trkpt lat="48.78491" lon="-3.53336">
        <ele>35.1</ele>
        <time>2019-07-11T10:09:09Z</time>
      </trkpt>
      <trkpt lat="48.78488" lon="-3.53332">
        <ele>35.7</ele>
        <time>2019-07-11T10:09:10Z</time>
      </trkpt>
      <trkpt lat="48.78486" lon="-3.53329">
        <ele>36.7</ele>
        <time>2019-07-11T10:09:11Z</time>
      </trkpt>
      <trkpt lat="48.78485" lon="-3.53325">
        <ele>38.9</ele>
        <time>2019-07-11T10:09:12Z</time>
      </trkpt>
      <trkpt lat="48.78483" lon="-3.53321">
        <ele>40</ele>
        <time>2019-07-11T10:09:13Z</time>
      </trkpt>
      <trkpt lat="48.78482" lon="-3.53317">
        <ele>40.8</ele>
        <time>2019-07-11T10:09:14Z</time>
      </trkpt>
      <trkpt lat="48.7848" lon="-3.53311">
        <ele>39.7</ele>
        <time>2019-07-11T10:09:15Z</time>
      </trkpt>
      <trkpt lat="48.78479" lon="-3.53306">
        <ele>38.7</ele>
        <time>2019-07-11T10:09:16Z</time>
      </trkpt>
      <trkpt lat="48.78477" lon="-3.53301">
        <ele>37.7</ele>
        <time>2019-07-11T10:09:17Z</time>
      </trkpt>
      <trkpt lat="48.78476" lon="-3.53296">
        <ele>37.3</ele>
        <time>2019-07-11T10:09:18Z</time>
      </trkpt>
      <trkpt lat="48.78475" lon="-3.53291">
        <ele>36.7</ele>
        <time>2019-07-11T10:09:19Z</time>
      </trkpt>
      <trkpt lat="48.78474" lon="-3.53286">
        <ele>36.1</ele>
        <time>2019-07-11T10:09:20Z</time>
      </trkpt>
      <trkpt lat="48.78474" lon="-3.53282">
        <ele>36.8</ele>
        <time>2019-07-11T10:09:21Z</time>
      </trkpt>
      <trkpt lat="48.78474" lon="-3.53279">
        <ele>37.2</ele>
        <time>2019-07-11T10:09:22Z</time>
      </trkpt>
      <trkpt lat="48.78474" lon="-3.53275">
        <ele>37.1</ele>
        <time>2019-07-11T10:09:23Z</time>
      </trkpt>
      <trkpt lat="48.78474" lon="-3.53272">
        <ele>37.5</ele>
        <time>2019-07-11T10:09:24Z</time>
      </trkpt>
      <trkpt lat="48.78474" lon="-3.53268">
        <ele>37.6</ele>
        <time>2019-07-11T10:09:25Z</time>
      </trkpt>
      <trkpt lat="48.78473" lon="-3.53264">
        <ele>38.1</ele>
        <time>2019-07-11T10:09:26Z</time>
      </trkpt>
      <trkpt lat="48.78473" lon="-3.53261">
        <ele>38.2</ele>
        <time>2019-07-11T10:09:27Z</time>
      </trkpt>
      <trkpt lat="48.78473" lon="-3.53258">
        <ele>38.3</ele>
        <time>2019-07-11T10:09:28Z</time>
      </trkpt>
      <trkpt lat="48.78472" lon="-3.53254">
        <ele>37.6</ele>
        <time>2019-07-11T10:09:29Z</time>
      </trkpt>
      <trkpt lat="48.78472" lon="-3.5325">
        <ele>36</ele>
        <time>2019-07-11T10:09:30Z</time>
      </trkpt>
      <trkpt lat="48.78472" lon="-3.53245">
        <ele>35.3</ele>
        <time>2019-07-11T10:09:31Z</time>
      </trkpt>
      <trkpt lat="48.78472" lon="-3.53239">
        <ele>35</ele>
        <time>2019-07-11T10:09:32Z</time>
      </trkpt>
      <trkpt lat="48.78471" lon="-3.53234">
        <ele>34.7</ele>
        <time>2019-07-11T10:09:33Z</time>
      </trkpt>
      <trkpt lat="48.78472" lon="-3.53228">
        <ele>33.9</ele>
        <time>2019-07-11T10:09:34Z</time>
      </trkpt>
      <trkpt lat="48.78473" lon="-3.53222">
        <ele>33.3</ele>
        <time>2019-07-11T10:09:35Z</time>
      </trkpt>
      <trkpt lat="48.78473" lon="-3.53216">
        <ele>32.9</ele>
        <time>2019-07-11T10:09:36Z</time>
      </trkpt>
      <trkpt lat="48.78472" lon="-3.5321">
        <ele>32</ele>
        <time>2019-07-11T10:09:37Z</time>
      </trkpt>
      <trkpt lat="48.78471" lon="-3.53203">
        <ele>31.6</ele>
        <time>2019-07-11T10:09:38Z</time>
      </trkpt>
      <trkpt lat="48.7847" lon="-3.53198">
        <ele>30.8</ele>
        <time>2019-07-11T10:09:39Z</time>
      </trkpt>
      <trkpt lat="48.78469" lon="-3.53195">
        <ele>31.2</ele>
        <time>2019-07-11T10:09:40Z</time>
      </trkpt>
      <trkpt lat="48.78467" lon="-3.53192">
        <ele>31.5</ele>
        <time>2019-07-11T10:09:41Z</time>
      </trkpt>
      <trkpt lat="48.78466" lon="-3.53188">
        <ele>31.2</ele>
        <time>2019-07-11T10:09:42Z</time>
      </trkpt>
      <trkpt lat="48.78464" lon="-3.53185">
        <ele>31.1</ele>
        <time>2019-07-11T10:09:43Z</time>
      </trkpt>
      <trkpt lat="48.78462" lon="-3.53181">
        <ele>30.8</ele>
        <time>2019-07-11T10:09:44Z</time>
      </trkpt>
      <trkpt lat="48.78461" lon="-3.53177">
        <ele>30.3</ele>
        <time>2019-07-11T10:09:45Z</time>
      </trkpt>
      <trkpt lat="48.78459" lon="-3.53173">
        <ele>29.8</ele>
        <time>2019-07-11T10:09:46Z</time>
      </trkpt>
      <trkpt lat="48.78458" lon="-3.53168">
        <ele>29.3</ele>
        <time>2019-07-11T10:09:47Z</time>
      </trkpt>
      <trkpt lat="48.78456" lon="-3.53163">
        <ele>28.5</ele>
        <time>2019-07-11T10:09:48Z</time>
      </trkpt>
      <trkpt lat="48.78454" lon="-3.53158">
        <ele>28.2</ele>
        <time>2019-07-11T10:09:49Z</time>
      </trkpt>
      <trkpt lat="48.78451" lon="-3.53153">
        <ele>28.1</ele>
        <time>2019-07-11T10:09:50Z</time>
      </trkpt>
      <trkpt lat="48.78448" lon="-3.53148">
        <ele>27.7</ele>
        <time>2019-07-11T10:09:51Z</time>
      </trkpt>
      <trkpt lat="48.78445" lon="-3.53143">
        <ele>27.7</ele>
        <time>2019-07-11T10:09:52Z</time>
      </trkpt>
      <trkpt lat="48.78442" lon="-3.53138">
        <ele>27.4</ele>
        <time>2019-07-11T10:09:53Z</time>
      </trkpt>
      <trkpt lat="48.78439" lon="-3.53133">
        <ele>27.4</ele>
        <time>2019-07-11T10:09:54Z</time>
      </trkpt>
      <trkpt lat="48.78436" lon="-3.5313">
        <ele>27.4</ele>
        <time>2019-07-11T10:09:55Z</time>
      </trkpt>
      <trkpt lat="48.78432" lon="-3.53128">
        <ele>27.4</ele>
        <time>2019-07-11T10:09:56Z</time>
      </trkpt>
      <trkpt lat="48.78429" lon="-3.53126">
        <ele>27.3</ele>
        <time>2019-07-11T10:09:57Z</time>
      </trkpt>
      <trkpt lat="48.78425" lon="-3.53124">
        <ele>27</ele>
        <time>2019-07-11T10:09:58Z</time>
      </trkpt>
      <trkpt lat="48.78421" lon="-3.53123">
        <ele>27.2</ele>
        <time>2019-07-11T10:09:59Z</time>
      </trkpt>
      <trkpt lat="48.78418" lon="-3.53123">
        <ele>27.4</ele>
        <time>2019-07-11T10:10:00Z</time>
      </trkpt>
      <trkpt lat="48.78414" lon="-3.53122">
        <ele>27.5</ele>
        <time>2019-07-11T10:10:01Z</time>
      </trkpt>
      <trkpt lat="48.7841" lon="-3.53121">
        <ele>27.6</ele>
        <time>2019-07-11T10:10:02Z</time>
      </trkpt>
      <trkpt lat="48.78407" lon="-3.53121">
        <ele>27.6</ele>
        <time>2019-07-11T10:10:03Z</time>
      </trkpt>
      <trkpt lat="48.78402" lon="-3.53123">
        <ele>27.5</ele>
        <time>2019-07-11T10:10:04Z</time>
      </trkpt>
      <trkpt lat="48.78399" lon="-3.53124">
        <ele>27.3</ele>
        <time>2019-07-11T10:10:05Z</time>
      </trkpt>
      <trkpt lat="48.78394" lon="-3.53126">
        <ele>26.8</ele>
        <time>2019-07-11T10:10:06Z</time>
      </trkpt>
      <trkpt lat="48.78391" lon="-3.53128">
        <ele>26.6</ele>
        <time>2019-07-11T10:10:07Z</time>
      </trkpt>
      <trkpt lat="48.78387" lon="-3.53131">
        <ele>26.2</ele>
        <time>2019-07-11T10:10:08Z</time>
      </trkpt>
      <trkpt lat="48.78384" lon="-3.53132">
        <ele>25.8</ele>
        <time>2019-07-11T10:10:09Z</time>
      </trkpt>
      <trkpt lat="48.78381" lon="-3.53134">
        <ele>25.8</ele>
        <time>2019-07-11T10:10:10Z</time>
      </trkpt>
      <trkpt lat="48.78378" lon="-3.53136">
        <ele>25.8</ele>
        <time>2019-07-11T10:10:11Z</time>
      </trkpt>
      <trkpt lat="48.78375" lon="-3.53138">
        <ele>25.7</ele>
        <time>2019-07-11T10:10:12Z</time>
      </trkpt>
      <trkpt lat="48.78373" lon="-3.5314">
        <ele>25.9</ele>
        <time>2019-07-11T10:10:13Z</time>
      </trkpt>
      <trkpt lat="48.78372" lon="-3.53142">
        <ele>26.2</ele>
        <time>2019-07-11T10:10:14Z</time>
      </trkpt>
      <trkpt lat="48.7837" lon="-3.53144">
        <ele>26.4</ele>
        <time>2019-07-11T10:10:15Z</time>
      </trkpt>
      <trkpt lat="48.78368" lon="-3.53147">
        <ele>26.4</ele>
        <time>2019-07-11T10:10:16Z</time>
      </trkpt>
      <trkpt lat="48.78366" lon="-3.53153">
        <ele>25.7</ele>
        <time>2019-07-11T10:10:17Z</time>
      </trkpt>
      <trkpt lat="48.78362" lon="-3.53157">
        <ele>24.8</ele>
        <time>2019-07-11T10:10:18Z</time>
      </trkpt>
      <trkpt lat="48.78359" lon="-3.5316">
        <ele>24.9</ele>
        <time>2019-07-11T10:10:19Z</time>
      </trkpt>
      <trkpt lat="48.78357" lon="-3.53163">
        <ele>25.2</ele>
        <time>2019-07-11T10:10:20Z</time>
      </trkpt>
      <trkpt lat="48.78354" lon="-3.53165">
        <ele>25.5</ele>
        <time>2019-07-11T10:10:21Z</time>
      </trkpt>
      <trkpt lat="48.78352" lon="-3.53167">
        <ele>26.1</ele>
        <time>2019-07-11T10:10:22Z</time>
      </trkpt>
      <trkpt lat="48.7835" lon="-3.5317">
        <ele>26.6</ele>
        <time>2019-07-11T10:10:23Z</time>
      </trkpt>
      <trkpt lat="48.78347" lon="-3.53172">
        <ele>27</ele>
        <time>2019-07-11T10:10:24Z</time>
      </trkpt>
      <trkpt lat="48.78346" lon="-3.53174">
        <ele>27.4</ele>
        <time>2019-07-11T10:10:25Z</time>
      </trkpt>
      <trkpt lat="48.78344" lon="-3.53175">
        <ele>27.8</ele>
        <time>2019-07-11T10:10:26Z</time>
      </trkpt>
      <trkpt lat="48.78341" lon="-3.53176">
        <ele>28.6</ele>
        <time>2019-07-11T10:10:27Z</time>
      </trkpt>
      <trkpt lat="48.78339" lon="-3.5318">
        <ele>28.1</ele>
        <time>2019-07-11T10:10:28Z</time>
      </trkpt>
      <trkpt lat="48.78337" lon="-3.53182">
        <ele>28.6</ele>
        <time>2019-07-11T10:10:29Z</time>
      </trkpt>
      <trkpt lat="48.78336" lon="-3.53185">
        <ele>28.9</ele>
        <time>2019-07-11T10:10:30Z</time>
      </trkpt>
      <trkpt lat="48.78335" lon="-3.53188">
        <ele>29.3</ele>
        <time>2019-07-11T10:10:31Z</time>
      </trkpt>
      <trkpt lat="48.78333" lon="-3.53201">
        <ele>29.1</ele>
        <time>2019-07-11T10:10:39Z</time>
      </trkpt>
      <trkpt lat="48.78331" lon="-3.53205">
        <ele>29.8</ele>
        <time>2019-07-11T10:10:40Z</time>
      </trkpt>
      <trkpt lat="48.7833" lon="-3.53209">
        <ele>29.6</ele>
        <time>2019-07-11T10:10:41Z</time>
      </trkpt>
      <trkpt lat="48.78329" lon="-3.53213">
        <ele>29.4</ele>
        <time>2019-07-11T10:10:42Z</time>
      </trkpt>
      <trkpt lat="48.78328" lon="-3.53218">
        <ele>29.3</ele>
        <time>2019-07-11T10:10:43Z</time>
      </trkpt>
      <trkpt lat="48.78328" lon="-3.53223">
        <ele>29.3</ele>
        <time>2019-07-11T10:10:44Z</time>
      </trkpt>
      <trkpt lat="48.78328" lon="-3.53228">
        <ele>29.1</ele>
        <time>2019-07-11T10:10:45Z</time>
      </trkpt>
      <trkpt lat="48.78328" lon="-3.53233">
        <ele>28.8</ele>
        <time>2019-07-11T10:10:46Z</time>
      </trkpt>
      <trkpt lat="48.78328" lon="-3.53238">
        <ele>28.7</ele>
        <time>2019-07-11T10:10:47Z</time>
      </trkpt>
      <trkpt lat="48.78328" lon="-3.53244">
        <ele>28.6</ele>
        <time>2019-07-11T10:10:48Z</time>
      </trkpt>
      <trkpt lat="48.78328" lon="-3.53249">
        <ele>28.2</ele>
        <time>2019-07-11T10:10:49Z</time>
      </trkpt>
      <trkpt lat="48.78329" lon="-3.53255">
        <ele>27.9</ele>
        <time>2019-07-11T10:10:50Z</time>
      </trkpt>
      <trkpt lat="48.78329" lon="-3.53262">
        <ele>27.9</ele>
        <time>2019-07-11T10:10:51Z</time>
      </trkpt>
      <trkpt lat="48.7833" lon="-3.53269">
        <ele>27.7</ele>
        <time>2019-07-11T10:10:52Z</time>
      </trkpt>
      <trkpt lat="48.7833" lon="-3.53275">
        <ele>27.5</ele>
        <time>2019-07-11T10:10:53Z</time>
      </trkpt>
      <trkpt lat="48.78331" lon="-3.53281">
        <ele>27.3</ele>
        <time>2019-07-11T10:10:54Z</time>
      </trkpt>
      <trkpt lat="48.78331" lon="-3.53287">
        <ele>27.2</ele>
        <time>2019-07-11T10:10:55Z</time>
      </trkpt>
      <trkpt lat="48.78331" lon="-3.53292">
        <ele>27.5</ele>
        <time>2019-07-11T10:10:56Z</time>
      </trkpt>
      <trkpt lat="48.78332" lon="-3.53297">
        <ele>27.8</ele>
        <time>2019-07-11T10:10:57Z</time>
      </trkpt>
      <trkpt lat="48.78332" lon="-3.53302">
        <ele>27.8</ele>
        <time>2019-07-11T10:10:58Z</time>
      </trkpt>
      <trkpt lat="48.78334" lon="-3.53307">
        <ele>27.5</ele>
        <time>2019-07-11T10:10:59Z</time>
      </trkpt>
      <trkpt lat="48.78334" lon="-3.53313">
        <ele>27.3</ele>
        <time>2019-07-11T10:11:00Z</time>
      </trkpt>
      <trkpt lat="48.78335" lon="-3.53318">
        <ele>26.7</ele>
        <time>2019-07-11T10:11:01Z</time>
      </trkpt>
      <trkpt lat="48.78336" lon="-3.53323">
        <ele>26.4</ele>
        <time>2019-07-11T10:11:02Z</time>
      </trkpt>
      <trkpt lat="48.78336" lon="-3.53328">
        <ele>26</ele>
        <time>2019-07-11T10:11:03Z</time>
      </trkpt>
      <trkpt lat="48.78337" lon="-3.53334">
        <ele>25.8</ele>
        <time>2019-07-11T10:11:04Z</time>
      </trkpt>
      <trkpt lat="48.78337" lon="-3.5334">
        <ele>25.8</ele>
        <time>2019-07-11T10:11:05Z</time>
      </trkpt>
      <trkpt lat="48.78337" lon="-3.53345">
        <ele>25.9</ele>
        <time>2019-07-11T10:11:06Z</time>
      </trkpt>
      <trkpt lat="48.78338" lon="-3.5335">
        <ele>25.9</ele>
        <time>2019-07-11T10:11:07Z</time>
      </trkpt>
      <trkpt lat="48.78338" lon="-3.53355">
        <ele>25.6</ele>
        <time>2019-07-11T10:11:08Z</time>
      </trkpt>
      <trkpt lat="48.78338" lon="-3.5336">
        <ele>25.8</ele>
        <time>2019-07-11T10:11:09Z</time>
      </trkpt>
      <trkpt lat="48.78339" lon="-3.53365">
        <ele>26.5</ele>
        <time>2019-07-11T10:11:10Z</time>
      </trkpt>
      <trkpt lat="48.78339" lon="-3.5337">
        <ele>26.7</ele>
        <time>2019-07-11T10:11:11Z</time>
      </trkpt>
      <trkpt lat="48.78338" lon="-3.53375">
        <ele>26.9</ele>
        <time>2019-07-11T10:11:12Z</time>
      </trkpt>
      <trkpt lat="48.78338" lon="-3.53381">
        <ele>27.1</ele>
        <time>2019-07-11T10:11:13Z</time>
      </trkpt>
      <trkpt lat="48.78338" lon="-3.53386">
        <ele>26.5</ele>
        <time>2019-07-11T10:11:14Z</time>
      </trkpt>
      <trkpt lat="48.78338" lon="-3.53391">
        <ele>26.2</ele>
        <time>2019-07-11T10:11:15Z</time>
      </trkpt>
      <trkpt lat="48.78338" lon="-3.53397">
        <ele>26.4</ele>
        <time>2019-07-11T10:11:16Z</time>
      </trkpt>
      <trkpt lat="48.78338" lon="-3.53402">
        <ele>26.4</ele>
        <time>2019-07-11T10:11:17Z</time>
      </trkpt>
      <trkpt lat="48.78338" lon="-3.53409">
        <ele>26.6</ele>
        <time>2019-07-11T10:11:18Z</time>
      </trkpt>
      <trkpt lat="48.78338" lon="-3.53415">
        <ele>26.6</ele>
        <time>2019-07-11T10:11:19Z</time>
      </trkpt>
      <trkpt lat="48.78338" lon="-3.53421">
        <ele>27</ele>
        <time>2019-07-11T10:11:20Z</time>
      </trkpt>
      <trkpt lat="48.78338" lon="-3.53426">
        <ele>27.4</ele>
        <time>2019-07-11T10:11:21Z</time>
      </trkpt>
      <trkpt lat="48.78339" lon="-3.5343">
        <ele>28</ele>
        <time>2019-07-11T10:11:22Z</time>
      </trkpt>
      <trkpt lat="48.78339" lon="-3.53435">
        <ele>28.6</ele>
        <time>2019-07-11T10:11:23Z</time>
      </trkpt>
      <trkpt lat="48.78341" lon="-3.53439">
        <ele>29.1</ele>
        <time>2019-07-11T10:11:24Z</time>
      </trkpt>
      <trkpt lat="48.78342" lon="-3.53444">
        <ele>29.5</ele>
        <time>2019-07-11T10:11:25Z</time>
      </trkpt>
      <trkpt lat="48.78344" lon="-3.5345">
        <ele>29.9</ele>
        <time>2019-07-11T10:11:26Z</time>
      </trkpt>
      <trkpt lat="48.78344" lon="-3.53455">
        <ele>30.8</ele>
        <time>2019-07-11T10:11:27Z</time>
      </trkpt>
      <trkpt lat="48.78345" lon="-3.5346">
        <ele>31.4</ele>
        <time>2019-07-11T10:11:28Z</time>
      </trkpt>
      <trkpt lat="48.78346" lon="-3.53466">
        <ele>32.1</ele>
        <time>2019-07-11T10:11:29Z</time>
      </trkpt>
      <trkpt lat="48.78346" lon="-3.53472">
        <ele>33.2</ele>
        <time>2019-07-11T10:11:30Z</time>
      </trkpt>
      <trkpt lat="48.78347" lon="-3.53478">
        <ele>33.4</ele>
        <time>2019-07-11T10:11:31Z</time>
      </trkpt>
      <trkpt lat="48.78348" lon="-3.53485">
        <ele>33</ele>
        <time>2019-07-11T10:11:32Z</time>
      </trkpt>
      <trkpt lat="48.7835" lon="-3.53491">
        <ele>32.5</ele>
        <time>2019-07-11T10:11:33Z</time>
      </trkpt>
      <trkpt lat="48.78352" lon="-3.53498">
        <ele>32.2</ele>
        <time>2019-07-11T10:11:34Z</time>
      </trkpt>
      <trkpt lat="48.78353" lon="-3.53505">
        <ele>31.8</ele>
        <time>2019-07-11T10:11:35Z</time>
      </trkpt>
      <trkpt lat="48.78355" lon="-3.53512">
        <ele>31.4</ele>
        <time>2019-07-11T10:11:36Z</time>
      </trkpt>
      <trkpt lat="48.78356" lon="-3.53519">
        <ele>31.3</ele>
        <time>2019-07-11T10:11:37Z</time>
      </trkpt>
      <trkpt lat="48.78357" lon="-3.53526">
        <ele>31.5</ele>
        <time>2019-07-11T10:11:38Z</time>
      </trkpt>
      <trkpt lat="48.78358" lon="-3.53533">
        <ele>31.6</ele>
        <time>2019-07-11T10:11:39Z</time>
      </trkpt>
      <trkpt lat="48.78359" lon="-3.5354">
        <ele>31.6</ele>
        <time>2019-07-11T10:11:40Z</time>
      </trkpt>
      <trkpt lat="48.78361" lon="-3.53547">
        <ele>31.8</ele>
        <time>2019-07-11T10:11:41Z</time>
      </trkpt>
      <trkpt lat="48.78362" lon="-3.53553">
        <ele>31.3</ele>
        <time>2019-07-11T10:11:42Z</time>
      </trkpt>
      <trkpt lat="48.78363" lon="-3.53559">
        <ele>31.2</ele>
        <time>2019-07-11T10:11:43Z</time>
      </trkpt>
      <trkpt lat="48.78365" lon="-3.53564">
        <ele>30.9</ele>
        <time>2019-07-11T10:11:44Z</time>
      </trkpt>
      <trkpt lat="48.78366" lon="-3.5357">
        <ele>30.7</ele>
        <time>2019-07-11T10:11:45Z</time>
      </trkpt>
      <trkpt lat="48.78367" lon="-3.53575">
        <ele>30.4</ele>
        <time>2019-07-11T10:11:46Z</time>
      </trkpt>
      <trkpt lat="48.78368" lon="-3.53581">
        <ele>30</ele>
        <time>2019-07-11T10:11:47Z</time>
      </trkpt>
      <trkpt lat="48.78368" lon="-3.53588">
        <ele>29.7</ele>
        <time>2019-07-11T10:11:48Z</time>
      </trkpt>
      <trkpt lat="48.78368" lon="-3.53595">
        <ele>29.2</ele>
        <time>2019-07-11T10:11:49Z</time>
      </trkpt>
      <trkpt lat="48.78368" lon="-3.53602">
        <ele>28.7</ele>
        <time>2019-07-11T10:11:50Z</time>
      </trkpt>
      <trkpt lat="48.78368" lon="-3.53609">
        <ele>28.3</ele>
        <time>2019-07-11T10:11:51Z</time>
      </trkpt>
      <trkpt lat="48.78369" lon="-3.53617">
        <ele>27.9</ele>
        <time>2019-07-11T10:11:52Z</time>
      </trkpt>
      <trkpt lat="48.78369" lon="-3.53625">
        <ele>27.6</ele>
        <time>2019-07-11T10:11:53Z</time>
      </trkpt>
      <trkpt lat="48.7837" lon="-3.53634">
        <ele>27.6</ele>
        <time>2019-07-11T10:11:54Z</time>
      </trkpt>
      <trkpt lat="48.7837" lon="-3.53641">
        <ele>27.3</ele>
        <time>2019-07-11T10:11:55Z</time>
      </trkpt>
      <trkpt lat="48.7837" lon="-3.53649">
        <ele>27.1</ele>
        <time>2019-07-11T10:11:56Z</time>
      </trkpt>
      <trkpt lat="48.78371" lon="-3.53656">
        <ele>26.9</ele>
        <time>2019-07-11T10:11:57Z</time>
      </trkpt>
      <trkpt lat="48.78371" lon="-3.53664">
        <ele>26</ele>
        <time>2019-07-11T10:11:58Z</time>
      </trkpt>
      <trkpt lat="48.78371" lon="-3.53671">
        <ele>25</ele>
        <time>2019-07-11T10:11:59Z</time>
      </trkpt>
      <trkpt lat="48.78371" lon="-3.53678">
        <ele>24.5</ele>
        <time>2019-07-11T10:12:00Z</time>
      </trkpt>
      <trkpt lat="48.78371" lon="-3.53685">
        <ele>24.1</ele>
        <time>2019-07-11T10:12:01Z</time>
      </trkpt>
      <trkpt lat="48.78371" lon="-3.53693">
        <ele>23.4</ele>
        <time>2019-07-11T10:12:02Z</time>
      </trkpt>
      <trkpt lat="48.7837" lon="-3.53699">
        <ele>23.5</ele>
        <time>2019-07-11T10:12:03Z</time>
      </trkpt>
      <trkpt lat="48.78371" lon="-3.53706">
        <ele>23.1</ele>
        <time>2019-07-11T10:12:04Z</time>
      </trkpt>
      <trkpt lat="48.7837" lon="-3.53712">
        <ele>22.9</ele>
        <time>2019-07-11T10:12:05Z</time>
      </trkpt>
      <trkpt lat="48.7837" lon="-3.53718">
        <ele>23.1</ele>
        <time>2019-07-11T10:12:06Z</time>
      </trkpt>
      <trkpt lat="48.78369" lon="-3.53722">
        <ele>23.1</ele>
        <time>2019-07-11T10:12:07Z</time>
      </trkpt>
      <trkpt lat="48.78368" lon="-3.53727">
        <ele>23</ele>
        <time>2019-07-11T10:12:08Z</time>
      </trkpt>
      <trkpt lat="48.78367" lon="-3.53732">
        <ele>22.7</ele>
        <time>2019-07-11T10:12:09Z</time>
      </trkpt>
      <trkpt lat="48.78366" lon="-3.53738">
        <ele>22.4</ele>
        <time>2019-07-11T10:12:10Z</time>
      </trkpt>
      <trkpt lat="48.78365" lon="-3.53743">
        <ele>22.1</ele>
        <time>2019-07-11T10:12:11Z</time>
      </trkpt>
      <trkpt lat="48.78363" lon="-3.53748">
        <ele>21.8</ele>
        <time>2019-07-11T10:12:12Z</time>
      </trkpt>
      <trkpt lat="48.78362" lon="-3.53753">
        <ele>21.4</ele>
        <time>2019-07-11T10:12:13Z</time>
      </trkpt>
      <trkpt lat="48.78361" lon="-3.53758">
        <ele>21</ele>
        <time>2019-07-11T10:12:14Z</time>
      </trkpt>
      <trkpt lat="48.7836" lon="-3.53763">
        <ele>21.1</ele>
        <time>2019-07-11T10:12:15Z</time>
      </trkpt>
      <trkpt lat="48.78358" lon="-3.53767">
        <ele>20.9</ele>
        <time>2019-07-11T10:12:16Z</time>
      </trkpt>
      <trkpt lat="48.78358" lon="-3.53773">
        <ele>20.8</ele>
        <time>2019-07-11T10:12:17Z</time>
      </trkpt>
      <trkpt lat="48.78357" lon="-3.53778">
        <ele>20.7</ele>
        <time>2019-07-11T10:12:18Z</time>
      </trkpt>
      <trkpt lat="48.78357" lon="-3.53783">
        <ele>20.3</ele>
        <time>2019-07-11T10:12:19Z</time>
      </trkpt>
      <trkpt lat="48.78355" lon="-3.53788">
        <ele>20.1</ele>
        <time>2019-07-11T10:12:20Z</time>
      </trkpt>
      <trkpt lat="48.78355" lon="-3.53793">
        <ele>20.2</ele>
        <time>2019-07-11T10:12:21Z</time>
      </trkpt>
      <trkpt lat="48.78354" lon="-3.53798">
        <ele>20.8</ele>
        <time>2019-07-11T10:12:22Z</time>
      </trkpt>
      <trkpt lat="48.78354" lon="-3.53802">
        <ele>21.4</ele>
        <time>2019-07-11T10:12:23Z</time>
      </trkpt>
      <trkpt lat="48.78353" lon="-3.53806">
        <ele>22.1</ele>
        <time>2019-07-11T10:12:24Z</time>
      </trkpt>
      <trkpt lat="48.78352" lon="-3.5381">
        <ele>22.6</ele>
        <time>2019-07-11T10:12:25Z</time>
      </trkpt>
      <trkpt lat="48.78352" lon="-3.53814">
        <ele>23.2</ele>
        <time>2019-07-11T10:12:26Z</time>
      </trkpt>
      <trkpt lat="48.78352" lon="-3.53818">
        <ele>24</ele>
        <time>2019-07-11T10:12:27Z</time>
      </trkpt>
      <trkpt lat="48.78351" lon="-3.53822">
        <ele>24.7</ele>
        <time>2019-07-11T10:12:28Z</time>
      </trkpt>
      <trkpt lat="48.7835" lon="-3.53825">
        <ele>25.2</ele>
        <time>2019-07-11T10:12:29Z</time>
      </trkpt>
      <trkpt lat="48.7835" lon="-3.53828">
        <ele>25.7</ele>
        <time>2019-07-11T10:12:30Z</time>
      </trkpt>
      <trkpt lat="48.78349" lon="-3.53831">
        <ele>26</ele>
        <time>2019-07-11T10:12:31Z</time>
      </trkpt>
      <trkpt lat="48.78349" lon="-3.53835">
        <ele>26.8</ele>
        <time>2019-07-11T10:12:32Z</time>
      </trkpt>
      <trkpt lat="48.78349" lon="-3.5384">
        <ele>27.1</ele>
        <time>2019-07-11T10:12:33Z</time>
      </trkpt>
      <trkpt lat="48.78348" lon="-3.53844">
        <ele>27.3</ele>
        <time>2019-07-11T10:12:34Z</time>
      </trkpt>
      <trkpt lat="48.78349" lon="-3.53848">
        <ele>27.6</ele>
        <time>2019-07-11T10:12:35Z</time>
      </trkpt>
      <trkpt lat="48.78349" lon="-3.53852">
        <ele>28</ele>
        <time>2019-07-11T10:12:36Z</time>
      </trkpt>
      <trkpt lat="48.78349" lon="-3.53856">
        <ele>28.4</ele>
        <time>2019-07-11T10:12:37Z</time>
      </trkpt>
      <trkpt lat="48.78349" lon="-3.5386">
        <ele>28.4</ele>
        <time>2019-07-11T10:12:38Z</time>
      </trkpt>
      <trkpt lat="48.78349" lon="-3.53863">
        <ele>28.7</ele>
        <time>2019-07-11T10:12:39Z</time>
      </trkpt>
      <trkpt lat="48.78349" lon="-3.53867">
        <ele>29.1</ele>
        <time>2019-07-11T10:12:40Z</time>
      </trkpt>
      <trkpt lat="48.78349" lon="-3.5387">
        <ele>29.5</ele>
        <time>2019-07-11T10:12:41Z</time>
      </trkpt>
      <trkpt lat="48.78349" lon="-3.53875">
        <ele>29.7</ele>
        <time>2019-07-11T10:12:42Z</time>
      </trkpt>
      <trkpt lat="48.7835" lon="-3.53879">
        <ele>30</ele>
        <time>2019-07-11T10:12:43Z</time>
      </trkpt>
      <trkpt lat="48.78349" lon="-3.53883">
        <ele>30.1</ele>
        <time>2019-07-11T10:12:44Z</time>
      </trkpt>
      <trkpt lat="48.78348" lon="-3.53886">
        <ele>30.6</ele>
        <time>2019-07-11T10:12:45Z</time>
      </trkpt>
      <trkpt lat="48.78348" lon="-3.53888">
        <ele>31.3</ele>
        <time>2019-07-11T10:12:46Z</time>
      </trkpt>
      <trkpt lat="48.78349" lon="-3.53892">
        <ele>31.5</ele>
        <time>2019-07-11T10:12:47Z</time>
      </trkpt>
      <trkpt lat="48.78348" lon="-3.53896">
        <ele>31.6</ele>
        <time>2019-07-11T10:12:48Z</time>
      </trkpt>
      <trkpt lat="48.78348" lon="-3.53899">
        <ele>31.5</ele>
        <time>2019-07-11T10:12:49Z</time>
      </trkpt>
      <trkpt lat="48.78348" lon="-3.53901">
        <ele>32.6</ele>
        <time>2019-07-11T10:12:50Z</time>
      </trkpt>
      <trkpt lat="48.78348" lon="-3.53904">
        <ele>32.6</ele>
        <time>2019-07-11T10:12:51Z</time>
      </trkpt>
      <trkpt lat="48.7835" lon="-3.53908">
        <ele>32.5</ele>
        <time>2019-07-11T10:12:52Z</time>
      </trkpt>
      <trkpt lat="48.78351" lon="-3.53912">
        <ele>32.1</ele>
        <time>2019-07-11T10:12:53Z</time>
      </trkpt>
      <trkpt lat="48.78351" lon="-3.53916">
        <ele>31.9</ele>
        <time>2019-07-11T10:12:54Z</time>
      </trkpt>
      <trkpt lat="48.78352" lon="-3.53921">
        <ele>31.8</ele>
        <time>2019-07-11T10:12:55Z</time>
      </trkpt>
      <trkpt lat="48.78352" lon="-3.53924">
        <ele>31.8</ele>
        <time>2019-07-11T10:12:56Z</time>
      </trkpt>
      <trkpt lat="48.78353" lon="-3.53928">
        <ele>31.8</ele>
        <time>2019-07-11T10:12:57Z</time>
      </trkpt>
      <trkpt lat="48.78353" lon="-3.53932">
        <ele>32</ele>
        <time>2019-07-11T10:12:58Z</time>
      </trkpt>
      <trkpt lat="48.78354" lon="-3.53934">
        <ele>32</ele>
        <time>2019-07-11T10:12:59Z</time>
      </trkpt>
      <trkpt lat="48.78355" lon="-3.53938">
        <ele>32.3</ele>
        <time>2019-07-11T10:13:00Z</time>
      </trkpt>
      <trkpt lat="48.78356" lon="-3.53942">
        <ele>32.9</ele>
        <time>2019-07-11T10:13:01Z</time>
      </trkpt>
      <trkpt lat="48.78356" lon="-3.53947">
        <ele>33.2</ele>
        <time>2019-07-11T10:13:02Z</time>
      </trkpt>
      <trkpt lat="48.78357" lon="-3.53952">
        <ele>33.3</ele>
        <time>2019-07-11T10:13:03Z</time>
      </trkpt>
      <trkpt lat="48.78358" lon="-3.53957">
        <ele>33.2</ele>
        <time>2019-07-11T10:13:04Z</time>
      </trkpt>
      <trkpt lat="48.78359" lon="-3.53961">
        <ele>33</ele>
        <time>2019-07-11T10:13:05Z</time>
      </trkpt>
      <trkpt lat="48.78359" lon="-3.53964">
        <ele>32.8</ele>
        <time>2019-07-11T10:13:06Z</time>
      </trkpt>
      <trkpt lat="48.78359" lon="-3.53968">
        <ele>32.7</ele>
        <time>2019-07-11T10:13:07Z</time>
      </trkpt>
      <trkpt lat="48.78359" lon="-3.53972">
        <ele>32.4</ele>
        <time>2019-07-11T10:13:08Z</time>
      </trkpt>
      <trkpt lat="48.78359" lon="-3.53976">
        <ele>32.4</ele>
        <time>2019-07-11T10:13:09Z</time>
      </trkpt>
      <trkpt lat="48.78359" lon="-3.5398">
        <ele>32.3</ele>
        <time>2019-07-11T10:13:10Z</time>
      </trkpt>
      <trkpt lat="48.78359" lon="-3.53984">
        <ele>32</ele>
        <time>2019-07-11T10:13:11Z</time>
      </trkpt>
      <trkpt lat="48.78359" lon="-3.53989">
        <ele>31.9</ele>
        <time>2019-07-11T10:13:12Z</time>
      </trkpt>
      <trkpt lat="48.7836" lon="-3.53992">
        <ele>31.7</ele>
        <time>2019-07-11T10:13:13Z</time>
      </trkpt>
      <trkpt lat="48.7836" lon="-3.53995">
        <ele>32</ele>
        <time>2019-07-11T10:13:14Z</time>
      </trkpt>
      <trkpt lat="48.78361" lon="-3.53999">
        <ele>32.3</ele>
        <time>2019-07-11T10:13:15Z</time>
      </trkpt>
      <trkpt lat="48.78362" lon="-3.54003">
        <ele>32.7</ele>
        <time>2019-07-11T10:13:16Z</time>
      </trkpt>
      <trkpt lat="48.78363" lon="-3.54007">
        <ele>33</ele>
        <time>2019-07-11T10:13:17Z</time>
      </trkpt>
      <trkpt lat="48.78364" lon="-3.5401">
        <ele>33.3</ele>
        <time>2019-07-11T10:13:18Z</time>
      </trkpt>
      <trkpt lat="48.78365" lon="-3.54012">
        <ele>33.9</ele>
        <time>2019-07-11T10:13:19Z</time>
      </trkpt>
      <trkpt lat="48.78366" lon="-3.54015">
        <ele>34.5</ele>
        <time>2019-07-11T10:13:20Z</time>
      </trkpt>
      <trkpt lat="48.78367" lon="-3.54018">
        <ele>34.6</ele>
        <time>2019-07-11T10:13:21Z</time>
      </trkpt>
      <trkpt lat="48.78368" lon="-3.54022">
        <ele>34.8</ele>
        <time>2019-07-11T10:13:22Z</time>
      </trkpt>
      <trkpt lat="48.78369" lon="-3.54026">
        <ele>35</ele>
        <time>2019-07-11T10:13:23Z</time>
      </trkpt>
      <trkpt lat="48.7837" lon="-3.5403">
        <ele>35.3</ele>
        <time>2019-07-11T10:13:24Z</time>
      </trkpt>
      <trkpt lat="48.78371" lon="-3.54034">
        <ele>35.6</ele>
        <time>2019-07-11T10:13:25Z</time>
      </trkpt>
      <trkpt lat="48.78371" lon="-3.54037">
        <ele>35.8</ele>
        <time>2019-07-11T10:13:26Z</time>
      </trkpt>
      <trkpt lat="48.78372" lon="-3.54039">
        <ele>36.3</ele>
        <time>2019-07-11T10:13:27Z</time>
      </trkpt>
      <trkpt lat="48.78372" lon="-3.54042">
        <ele>36.5</ele>
        <time>2019-07-11T10:13:28Z</time>
      </trkpt>
      <trkpt lat="48.78373" lon="-3.54045">
        <ele>36.9</ele>
        <time>2019-07-11T10:13:29Z</time>
      </trkpt>
      <trkpt lat="48.78373" lon="-3.54049">
        <ele>37.3</ele>
        <time>2019-07-11T10:13:30Z</time>
      </trkpt>
      <trkpt lat="48.78373" lon="-3.54052">
        <ele>37.8</ele>
        <time>2019-07-11T10:13:31Z</time>
      </trkpt>
      <trkpt lat="48.78374" lon="-3.54056">
        <ele>38.1</ele>
        <time>2019-07-11T10:13:32Z</time>
      </trkpt>
      <trkpt lat="48.78375" lon="-3.5406">
        <ele>38.5</ele>
        <time>2019-07-11T10:13:33Z</time>
      </trkpt>
      <trkpt lat="48.78376" lon="-3.54063">
        <ele>39.1</ele>
        <time>2019-07-11T10:13:34Z</time>
      </trkpt>
      <trkpt lat="48.78376" lon="-3.54066">
        <ele>40</ele>
        <time>2019-07-11T10:13:35Z</time>
      </trkpt>
      <trkpt lat="48.78377" lon="-3.54069">
        <ele>40.7</ele>
        <time>2019-07-11T10:13:36Z</time>
      </trkpt>
      <trkpt lat="48.78378" lon="-3.54071">
        <ele>41.8</ele>
        <time>2019-07-11T10:13:37Z</time>
      </trkpt>
      <trkpt lat="48.78379" lon="-3.54073">
        <ele>43</ele>
        <time>2019-07-11T10:13:38Z</time>
      </trkpt>
      <trkpt lat="48.7838" lon="-3.54075">
        <ele>43.4</ele>
        <time>2019-07-11T10:13:39Z</time>
      </trkpt>
      <trkpt lat="48.7838" lon="-3.54078">
        <ele>43.7</ele>
        <time>2019-07-11T10:13:40Z</time>
      </trkpt>
      <trkpt lat="48.7838" lon="-3.54081">
        <ele>43.9</ele>
        <time>2019-07-11T10:13:41Z</time>
      </trkpt>
      <trkpt lat="48.78381" lon="-3.54085">
        <ele>43.6</ele>
        <time>2019-07-11T10:13:42Z</time>
      </trkpt>
      <trkpt lat="48.78382" lon="-3.54089">
        <ele>42.2</ele>
        <time>2019-07-11T10:13:43Z</time>
      </trkpt>
      <trkpt lat="48.78383" lon="-3.54093">
        <ele>41.9</ele>
        <time>2019-07-11T10:13:44Z</time>
      </trkpt>
      <trkpt lat="48.78383" lon="-3.54098">
        <ele>42</ele>
        <time>2019-07-11T10:13:45Z</time>
      </trkpt>
      <trkpt lat="48.78384" lon="-3.54102">
        <ele>41.8</ele>
        <time>2019-07-11T10:13:46Z</time>
      </trkpt>
      <trkpt lat="48.78384" lon="-3.54107">
        <ele>41.4</ele>
        <time>2019-07-11T10:13:47Z</time>
      </trkpt>
      <trkpt lat="48.78386" lon="-3.54111">
        <ele>40.6</ele>
        <time>2019-07-11T10:13:48Z</time>
      </trkpt>
      <trkpt lat="48.78387" lon="-3.54116">
        <ele>39.9</ele>
        <time>2019-07-11T10:13:49Z</time>
      </trkpt>
      <trkpt lat="48.78388" lon="-3.5412">
        <ele>39.4</ele>
        <time>2019-07-11T10:13:50Z</time>
      </trkpt>
      <trkpt lat="48.78388" lon="-3.54125">
        <ele>39</ele>
        <time>2019-07-11T10:13:51Z</time>
      </trkpt>
      <trkpt lat="48.78389" lon="-3.54131">
        <ele>39.2</ele>
        <time>2019-07-11T10:13:52Z</time>
      </trkpt>
      <trkpt lat="48.78389" lon="-3.54136">
        <ele>39.3</ele>
        <time>2019-07-11T10:13:53Z</time>
      </trkpt>
      <trkpt lat="48.78389" lon="-3.54141">
        <ele>39.3</ele>
        <time>2019-07-11T10:13:54Z</time>
      </trkpt>
      <trkpt lat="48.78389" lon="-3.54149">
        <ele>39.3</ele>
        <time>2019-07-11T10:13:55Z</time>
      </trkpt>
      <trkpt lat="48.78388" lon="-3.54156">
        <ele>39.5</ele>
        <time>2019-07-11T10:13:56Z</time>
      </trkpt>
      <trkpt lat="48.78388" lon="-3.54164">
        <ele>39.4</ele>
        <time>2019-07-11T10:13:57Z</time>
      </trkpt>
      <trkpt lat="48.78388" lon="-3.5417">
        <ele>39.7</ele>
        <time>2019-07-11T10:13:58Z</time>
      </trkpt>
      <trkpt lat="48.7839" lon="-3.54177">
        <ele>37.6</ele>
        <time>2019-07-11T10:13:59Z</time>
      </trkpt>
      <trkpt lat="48.78391" lon="-3.54185">
        <ele>35.9</ele>
        <time>2019-07-11T10:14:00Z</time>
      </trkpt>
      <trkpt lat="48.78392" lon="-3.54191">
        <ele>34.4</ele>
        <time>2019-07-11T10:14:01Z</time>
      </trkpt>
      <trkpt lat="48.78393" lon="-3.54198">
        <ele>33.3</ele>
        <time>2019-07-11T10:14:02Z</time>
      </trkpt>
      <trkpt lat="48.78393" lon="-3.54203">
        <ele>32.3</ele>
        <time>2019-07-11T10:14:03Z</time>
      </trkpt>
      <trkpt lat="48.78393" lon="-3.54209">
        <ele>31.5</ele>
        <time>2019-07-11T10:14:04Z</time>
      </trkpt>
      <trkpt lat="48.78393" lon="-3.54215">
        <ele>31</ele>
        <time>2019-07-11T10:14:05Z</time>
      </trkpt>
      <trkpt lat="48.78393" lon="-3.5422">
        <ele>30.5</ele>
        <time>2019-07-11T10:14:06Z</time>
      </trkpt>
      <trkpt lat="48.78392" lon="-3.54226">
        <ele>30.1</ele>
        <time>2019-07-11T10:14:07Z</time>
      </trkpt>
      <trkpt lat="48.78392" lon="-3.54232">
        <ele>29.5</ele>
        <time>2019-07-11T10:14:08Z</time>
      </trkpt>
      <trkpt lat="48.78392" lon="-3.54237">
        <ele>29.2</ele>
        <time>2019-07-11T10:14:09Z</time>
      </trkpt>
      <trkpt lat="48.78392" lon="-3.54243">
        <ele>29.1</ele>
        <time>2019-07-11T10:14:10Z</time>
      </trkpt>
      <trkpt lat="48.78392" lon="-3.54247">
        <ele>29.2</ele>
        <time>2019-07-11T10:14:11Z</time>
      </trkpt>
      <trkpt lat="48.78392" lon="-3.54252">
        <ele>29.3</ele>
        <time>2019-07-11T10:14:12Z</time>
      </trkpt>
      <trkpt lat="48.78392" lon="-3.54256">
        <ele>29.2</ele>
        <time>2019-07-11T10:14:13Z</time>
      </trkpt>
      <trkpt lat="48.78392" lon="-3.5426">
        <ele>29.3</ele>
        <time>2019-07-11T10:14:14Z</time>
      </trkpt>
      <trkpt lat="48.78392" lon="-3.54265">
        <ele>29.2</ele>
        <time>2019-07-11T10:14:15Z</time>
      </trkpt>
      <trkpt lat="48.78391" lon="-3.5427">
        <ele>29</ele>
        <time>2019-07-11T10:14:16Z</time>
      </trkpt>
      <trkpt lat="48.78391" lon="-3.54275">
        <ele>28.7</ele>
        <time>2019-07-11T10:14:17Z</time>
      </trkpt>
      <trkpt lat="48.78391" lon="-3.54279">
        <ele>28.8</ele>
        <time>2019-07-11T10:14:18Z</time>
      </trkpt>
      <trkpt lat="48.78391" lon="-3.54284">
        <ele>29</ele>
        <time>2019-07-11T10:14:19Z</time>
      </trkpt>
      <trkpt lat="48.78391" lon="-3.54288">
        <ele>28.9</ele>
        <time>2019-07-11T10:14:20Z</time>
      </trkpt>
      <trkpt lat="48.7839" lon="-3.54292">
        <ele>28.9</ele>
        <time>2019-07-11T10:14:21Z</time>
      </trkpt>
      <trkpt lat="48.7839" lon="-3.54296">
        <ele>29.1</ele>
        <time>2019-07-11T10:14:22Z</time>
      </trkpt>
      <trkpt lat="48.78389" lon="-3.543">
        <ele>29.1</ele>
        <time>2019-07-11T10:14:23Z</time>
      </trkpt>
      <trkpt lat="48.78389" lon="-3.54304">
        <ele>29.1</ele>
        <time>2019-07-11T10:14:24Z</time>
      </trkpt>
      <trkpt lat="48.78388" lon="-3.54308">
        <ele>29.3</ele>
        <time>2019-07-11T10:14:25Z</time>
      </trkpt>
      <trkpt lat="48.78388" lon="-3.54313">
        <ele>29.3</ele>
        <time>2019-07-11T10:14:26Z</time>
      </trkpt>
      <trkpt lat="48.78387" lon="-3.54316">
        <ele>30</ele>
        <time>2019-07-11T10:14:27Z</time>
      </trkpt>
      <trkpt lat="48.78386" lon="-3.54321">
        <ele>30.3</ele>
        <time>2019-07-11T10:14:28Z</time>
      </trkpt>
      <trkpt lat="48.78386" lon="-3.54325">
        <ele>30.7</ele>
        <time>2019-07-11T10:14:29Z</time>
      </trkpt>
      <trkpt lat="48.78386" lon="-3.5433">
        <ele>31.2</ele>
        <time>2019-07-11T10:14:30Z</time>
      </trkpt>
      <trkpt lat="48.78385" lon="-3.54334">
        <ele>31.6</ele>
        <time>2019-07-11T10:14:31Z</time>
      </trkpt>
      <trkpt lat="48.78385" lon="-3.54338">
        <ele>32.1</ele>
        <time>2019-07-11T10:14:32Z</time>
      </trkpt>
      <trkpt lat="48.78386" lon="-3.54342">
        <ele>32.8</ele>
        <time>2019-07-11T10:14:33Z</time>
      </trkpt>
      <trkpt lat="48.78386" lon="-3.54347">
        <ele>33.5</ele>
        <time>2019-07-11T10:14:34Z</time>
      </trkpt>
      <trkpt lat="48.78387" lon="-3.54351">
        <ele>34.2</ele>
        <time>2019-07-11T10:14:35Z</time>
      </trkpt>
      <trkpt lat="48.78387" lon="-3.54355">
        <ele>35.1</ele>
        <time>2019-07-11T10:14:36Z</time>
      </trkpt>
      <trkpt lat="48.78387" lon="-3.5436">
        <ele>35.8</ele>
        <time>2019-07-11T10:14:37Z</time>
      </trkpt>
      <trkpt lat="48.78388" lon="-3.54365">
        <ele>36.1</ele>
        <time>2019-07-11T10:14:38Z</time>
      </trkpt>
      <trkpt lat="48.78389" lon="-3.5437">
        <ele>36.2</ele>
        <time>2019-07-11T10:14:39Z</time>
      </trkpt>
      <trkpt lat="48.78392" lon="-3.54373">
        <ele>34.9</ele>
        <time>2019-07-11T10:14:40Z</time>
      </trkpt>
      <trkpt lat="48.78394" lon="-3.54378">
        <ele>34.6</ele>
        <time>2019-07-11T10:14:41Z</time>
      </trkpt>
      <trkpt lat="48.78396" lon="-3.54382">
        <ele>34.9</ele>
        <time>2019-07-11T10:14:42Z</time>
      </trkpt>
      <trkpt lat="48.78397" lon="-3.54386">
        <ele>35</ele>
        <time>2019-07-11T10:14:43Z</time>
      </trkpt>
      <trkpt lat="48.78398" lon="-3.5439">
        <ele>35.5</ele>
        <time>2019-07-11T10:14:44Z</time>
      </trkpt>
      <trkpt lat="48.784" lon="-3.54394">
        <ele>35.5</ele>
        <time>2019-07-11T10:14:45Z</time>
      </trkpt>
      <trkpt lat="48.78402" lon="-3.54398">
        <ele>35.7</ele>
        <time>2019-07-11T10:14:46Z</time>
      </trkpt>
      <trkpt lat="48.78403" lon="-3.54402">
        <ele>36.6</ele>
        <time>2019-07-11T10:14:47Z</time>
      </trkpt>
      <trkpt lat="48.78404" lon="-3.54408">
        <ele>36.7</ele>
        <time>2019-07-11T10:14:48Z</time>
      </trkpt>
      <trkpt lat="48.78404" lon="-3.54413">
        <ele>36.2</ele>
        <time>2019-07-11T10:14:49Z</time>
      </trkpt>
      <trkpt lat="48.78405" lon="-3.54419">
        <ele>36.3</ele>
        <time>2019-07-11T10:14:50Z</time>
      </trkpt>
      <trkpt lat="48.78405" lon="-3.54425">
        <ele>36.3</ele>
        <time>2019-07-11T10:14:51Z</time>
      </trkpt>
      <trkpt lat="48.78406" lon="-3.54432">
        <ele>36.3</ele>
        <time>2019-07-11T10:14:52Z</time>
      </trkpt>
      <trkpt lat="48.78406" lon="-3.54437">
        <ele>36.3</ele>
        <time>2019-07-11T10:14:53Z</time>
      </trkpt>
      <trkpt lat="48.78406" lon="-3.54443">
        <ele>36.3</ele>
        <time>2019-07-11T10:14:54Z</time>
      </trkpt>
      <trkpt lat="48.78405" lon="-3.54448">
        <ele>36.2</ele>
        <time>2019-07-11T10:14:55Z</time>
      </trkpt>
      <trkpt lat="48.78405" lon="-3.54452">
        <ele>36.5</ele>
        <time>2019-07-11T10:14:56Z</time>
      </trkpt>
      <trkpt lat="48.78405" lon="-3.54456">
        <ele>36.4</ele>
        <time>2019-07-11T10:14:57Z</time>
      </trkpt>
      <trkpt lat="48.78404" lon="-3.54459">
        <ele>36.2</ele>
        <time>2019-07-11T10:14:58Z</time>
      </trkpt>
      <trkpt lat="48.78404" lon="-3.54462">
        <ele>36.3</ele>
        <time>2019-07-11T10:14:59Z</time>
      </trkpt>
      <trkpt lat="48.78403" lon="-3.54465">
        <ele>36.5</ele>
        <time>2019-07-11T10:15:00Z</time>
      </trkpt>
      <trkpt lat="48.78402" lon="-3.54468">
        <ele>36.6</ele>
        <time>2019-07-11T10:15:01Z</time>
      </trkpt>
      <trkpt lat="48.78402" lon="-3.54471">
        <ele>36.8</ele>
        <time>2019-07-11T10:15:02Z</time>
      </trkpt>
      <trkpt lat="48.78401" lon="-3.54473">
        <ele>37.1</ele>
        <time>2019-07-11T10:15:03Z</time>
      </trkpt>
      <trkpt lat="48.784" lon="-3.54475">
        <ele>37.2</ele>
        <time>2019-07-11T10:15:04Z</time>
      </trkpt>
      <trkpt lat="48.78399" lon="-3.54478">
        <ele>37.3</ele>
        <time>2019-07-11T10:15:05Z</time>
      </trkpt>
      <trkpt lat="48.78398" lon="-3.5448">
        <ele>37.4</ele>
        <time>2019-07-11T10:15:06Z</time>
      </trkpt>
      <trkpt lat="48.78397" lon="-3.54483">
        <ele>36.8</ele>
        <time>2019-07-11T10:15:07Z</time>
      </trkpt>
      <trkpt lat="48.78396" lon="-3.54485">
        <ele>36.3</ele>
        <time>2019-07-11T10:15:08Z</time>
      </trkpt>
      <trkpt lat="48.78394" lon="-3.54489">
        <ele>36.1</ele>
        <time>2019-07-11T10:15:09Z</time>
      </trkpt>
      <trkpt lat="48.78393" lon="-3.54491">
        <ele>36</ele>
        <time>2019-07-11T10:15:10Z</time>
      </trkpt>
      <trkpt lat="48.78391" lon="-3.54494">
        <ele>35.7</ele>
        <time>2019-07-11T10:15:11Z</time>
      </trkpt>
      <trkpt lat="48.78389" lon="-3.54496">
        <ele>35</ele>
        <time>2019-07-11T10:15:12Z</time>
      </trkpt>
      <trkpt lat="48.78387" lon="-3.54497">
        <ele>34.4</ele>
        <time>2019-07-11T10:15:13Z</time>
      </trkpt>
      <trkpt lat="48.78384" lon="-3.54497">
        <ele>33.7</ele>
        <time>2019-07-11T10:15:14Z</time>
      </trkpt>
      <trkpt lat="48.78381" lon="-3.54495">
        <ele>32.2</ele>
        <time>2019-07-11T10:15:15Z</time>
      </trkpt>
      <trkpt lat="48.78379" lon="-3.54495">
        <ele>31.4</ele>
        <time>2019-07-11T10:15:16Z</time>
      </trkpt>
      <trkpt lat="48.78377" lon="-3.54496">
        <ele>31</ele>
        <time>2019-07-11T10:15:17Z</time>
      </trkpt>
      <trkpt lat="48.78376" lon="-3.54498">
        <ele>30.7</ele>
        <time>2019-07-11T10:15:18Z</time>
      </trkpt>
      <trkpt lat="48.78373" lon="-3.54499">
        <ele>30.6</ele>
        <time>2019-07-11T10:15:19Z</time>
      </trkpt>
      <trkpt lat="48.78371" lon="-3.545">
        <ele>30.6</ele>
        <time>2019-07-11T10:15:20Z</time>
      </trkpt>
      <trkpt lat="48.78369" lon="-3.54501">
        <ele>30.8</ele>
        <time>2019-07-11T10:15:21Z</time>
      </trkpt>
      <trkpt lat="48.78367" lon="-3.54503">
        <ele>31.2</ele>
        <time>2019-07-11T10:15:22Z</time>
      </trkpt>
      <trkpt lat="48.78365" lon="-3.54505">
        <ele>31.6</ele>
        <time>2019-07-11T10:15:23Z</time>
      </trkpt>
      <trkpt lat="48.78363" lon="-3.54507">
        <ele>31.8</ele>
        <time>2019-07-11T10:15:24Z</time>
      </trkpt>
      <trkpt lat="48.78362" lon="-3.54508">
        <ele>32.2</ele>
        <time>2019-07-11T10:15:25Z</time>
      </trkpt>
      <trkpt lat="48.78361" lon="-3.54509">
        <ele>32.6</ele>
        <time>2019-07-11T10:15:26Z</time>
      </trkpt>
      <trkpt lat="48.78359" lon="-3.5451">
        <ele>33</ele>
        <time>2019-07-11T10:15:27Z</time>
      </trkpt>
      <trkpt lat="48.78358" lon="-3.54511">
        <ele>33.5</ele>
        <time>2019-07-11T10:15:28Z</time>
      </trkpt>
      <trkpt lat="48.78356" lon="-3.54512">
        <ele>34.2</ele>
        <time>2019-07-11T10:15:29Z</time>
      </trkpt>
      <trkpt lat="48.78354" lon="-3.54512">
        <ele>35.4</ele>
        <time>2019-07-11T10:15:30Z</time>
      </trkpt>
      <trkpt lat="48.78352" lon="-3.54513">
        <ele>36.2</ele>
        <time>2019-07-11T10:15:31Z</time>
      </trkpt>
      <trkpt lat="48.7835" lon="-3.54514">
        <ele>36.4</ele>
        <time>2019-07-11T10:15:32Z</time>
      </trkpt>
      <trkpt lat="48.78349" lon="-3.54515">
        <ele>36.5</ele>
        <time>2019-07-11T10:15:33Z</time>
      </trkpt>
      <trkpt lat="48.78346" lon="-3.54515">
        <ele>36.8</ele>
        <time>2019-07-11T10:15:34Z</time>
      </trkpt>
      <trkpt lat="48.78344" lon="-3.54515">
        <ele>36.9</ele>
        <time>2019-07-11T10:15:35Z</time>
      </trkpt>
      <trkpt lat="48.78342" lon="-3.54515">
        <ele>37.3</ele>
        <time>2019-07-11T10:15:36Z</time>
      </trkpt>
      <trkpt lat="48.7834" lon="-3.54516">
        <ele>37.7</ele>
        <time>2019-07-11T10:15:37Z</time>
      </trkpt>
      <trkpt lat="48.78338" lon="-3.54516">
        <ele>38.4</ele>
        <time>2019-07-11T10:15:38Z</time>
      </trkpt>
      <trkpt lat="48.78335" lon="-3.54516">
        <ele>39.5</ele>
        <time>2019-07-11T10:15:39Z</time>
      </trkpt>
      <trkpt lat="48.78333" lon="-3.54516">
        <ele>40.4</ele>
        <time>2019-07-11T10:15:40Z</time>
      </trkpt>
      <trkpt lat="48.78331" lon="-3.54516">
        <ele>41.1</ele>
        <time>2019-07-11T10:15:41Z</time>
      </trkpt>
      <trkpt lat="48.78328" lon="-3.54516">
        <ele>42.2</ele>
        <time>2019-07-11T10:15:42Z</time>
      </trkpt>
      <trkpt lat="48.78326" lon="-3.54516">
        <ele>43</ele>
        <time>2019-07-11T10:15:43Z</time>
      </trkpt>
      <trkpt lat="48.78324" lon="-3.54516">
        <ele>43.6</ele>
        <time>2019-07-11T10:15:44Z</time>
      </trkpt>
      <trkpt lat="48.78322" lon="-3.54516">
        <ele>44.3</ele>
        <time>2019-07-11T10:15:45Z</time>
      </trkpt>
      <trkpt lat="48.7832" lon="-3.54516">
        <ele>44.7</ele>
        <time>2019-07-11T10:15:46Z</time>
      </trkpt>
      <trkpt lat="48.78318" lon="-3.54516">
        <ele>45.2</ele>
        <time>2019-07-11T10:15:47Z</time>
      </trkpt>
      <trkpt lat="48.78316" lon="-3.54516">
        <ele>45.9</ele>
        <time>2019-07-11T10:15:48Z</time>
      </trkpt>
      <trkpt lat="48.78313" lon="-3.54516">
        <ele>46.2</ele>
        <time>2019-07-11T10:15:49Z</time>
      </trkpt>
      <trkpt lat="48.78311" lon="-3.54516">
        <ele>46.4</ele>
        <time>2019-07-11T10:15:50Z</time>
      </trkpt>
      <trkpt lat="48.78309" lon="-3.54516">
        <ele>46.7</ele>
        <time>2019-07-11T10:15:51Z</time>
      </trkpt>
      <trkpt lat="48.78307" lon="-3.54515">
        <ele>47.1</ele>
        <time>2019-07-11T10:15:52Z</time>
      </trkpt>
      <trkpt lat="48.78305" lon="-3.54515">
        <ele>47.6</ele>
        <time>2019-07-11T10:15:53Z</time>
      </trkpt>
      <trkpt lat="48.78304" lon="-3.54514">
        <ele>48.2</ele>
        <time>2019-07-11T10:15:54Z</time>
      </trkpt>
      <trkpt lat="48.78301" lon="-3.54514">
        <ele>48.5</ele>
        <time>2019-07-11T10:15:55Z</time>
      </trkpt>
      <trkpt lat="48.78299" lon="-3.54514">
        <ele>48.8</ele>
        <time>2019-07-11T10:15:56Z</time>
      </trkpt>
      <trkpt lat="48.78298" lon="-3.54516">
        <ele>48.9</ele>
        <time>2019-07-11T10:15:57Z</time>
      </trkpt>
      <trkpt lat="48.78296" lon="-3.54517">
        <ele>49.3</ele>
        <time>2019-07-11T10:15:58Z</time>
      </trkpt>
      <trkpt lat="48.78294" lon="-3.54518">
        <ele>49.2</ele>
        <time>2019-07-11T10:15:59Z</time>
      </trkpt>
      <trkpt lat="48.78292" lon="-3.54519">
        <ele>49</ele>
        <time>2019-07-11T10:16:00Z</time>
      </trkpt>
      <trkpt lat="48.7829" lon="-3.5452">
        <ele>49.1</ele>
        <time>2019-07-11T10:16:01Z</time>
      </trkpt>
      <trkpt lat="48.78288" lon="-3.54522">
        <ele>49.3</ele>
        <time>2019-07-11T10:16:02Z</time>
      </trkpt>
      <trkpt lat="48.78287" lon="-3.54522">
        <ele>49.5</ele>
        <time>2019-07-11T10:16:03Z</time>
      </trkpt>
      <trkpt lat="48.78285" lon="-3.54522">
        <ele>49.6</ele>
        <time>2019-07-11T10:16:04Z</time>
      </trkpt>
      <trkpt lat="48.78283" lon="-3.54522">
        <ele>49.9</ele>
        <time>2019-07-11T10:16:05Z</time>
      </trkpt>
      <trkpt lat="48.78281" lon="-3.54522">
        <ele>50.3</ele>
        <time>2019-07-11T10:16:06Z</time>
      </trkpt>
      <trkpt lat="48.78278" lon="-3.54523">
        <ele>50.6</ele>
        <time>2019-07-11T10:16:07Z</time>
      </trkpt>
      <trkpt lat="48.78276" lon="-3.54524">
        <ele>50.8</ele>
        <time>2019-07-11T10:16:08Z</time>
      </trkpt>
      <trkpt lat="48.78274" lon="-3.54523">
        <ele>50.9</ele>
        <time>2019-07-11T10:16:09Z</time>
      </trkpt>
      <trkpt lat="48.78272" lon="-3.54523">
        <ele>51.4</ele>
        <time>2019-07-11T10:16:10Z</time>
      </trkpt>
      <trkpt lat="48.78269" lon="-3.54524">
        <ele>51.9</ele>
        <time>2019-07-11T10:16:11Z</time>
      </trkpt>
      <trkpt lat="48.78267" lon="-3.54523">
        <ele>52.2</ele>
        <time>2019-07-11T10:16:12Z</time>
      </trkpt>
      <trkpt lat="48.78264" lon="-3.54523">
        <ele>52.4</ele>
        <time>2019-07-11T10:16:13Z</time>
      </trkpt>
      <trkpt lat="48.78261" lon="-3.54523">
        <ele>52.8</ele>
        <time>2019-07-11T10:16:14Z</time>
      </trkpt>
      <trkpt lat="48.78259" lon="-3.54524">
        <ele>52.8</ele>
        <time>2019-07-11T10:16:15Z</time>
      </trkpt>
      <trkpt lat="48.78256" lon="-3.54527">
        <ele>51.9</ele>
        <time>2019-07-11T10:16:16Z</time>
      </trkpt>
      <trkpt lat="48.78254" lon="-3.54528">
        <ele>51.7</ele>
        <time>2019-07-11T10:16:17Z</time>
      </trkpt>
      <trkpt lat="48.78252" lon="-3.54529">
        <ele>51.6</ele>
        <time>2019-07-11T10:16:18Z</time>
      </trkpt>
      <trkpt lat="48.7825" lon="-3.54529">
        <ele>51.8</ele>
        <time>2019-07-11T10:16:19Z</time>
      </trkpt>
      <trkpt lat="48.78248" lon="-3.54529">
        <ele>51.8</ele>
        <time>2019-07-11T10:16:20Z</time>
      </trkpt>
      <trkpt lat="48.78246" lon="-3.54528">
        <ele>51.8</ele>
        <time>2019-07-11T10:16:21Z</time>
      </trkpt>
      <trkpt lat="48.78244" lon="-3.54529">
        <ele>51.8</ele>
        <time>2019-07-11T10:16:22Z</time>
      </trkpt>
      <trkpt lat="48.78241" lon="-3.54529">
        <ele>51.9</ele>
        <time>2019-07-11T10:16:23Z</time>
      </trkpt>
      <trkpt lat="48.78239" lon="-3.54528">
        <ele>51.8</ele>
        <time>2019-07-11T10:16:24Z</time>
      </trkpt>
      <trkpt lat="48.78236" lon="-3.54528">
        <ele>51.8</ele>
        <time>2019-07-11T10:16:25Z</time>
      </trkpt>
      <trkpt lat="48.78234" lon="-3.54529">
        <ele>51.8</ele>
        <time>2019-07-11T10:16:26Z</time>
      </trkpt>
      <trkpt lat="48.78231" lon="-3.5453">
        <ele>51.7</ele>
        <time>2019-07-11T10:16:27Z</time>
      </trkpt>
      <trkpt lat="48.78228" lon="-3.54531">
        <ele>51.6</ele>
        <time>2019-07-11T10:16:28Z</time>
      </trkpt>
      <trkpt lat="48.78226" lon="-3.5453">
        <ele>51.5</ele>
        <time>2019-07-11T10:16:29Z</time>
      </trkpt>
      <trkpt lat="48.78223" lon="-3.5453">
        <ele>51.5</ele>
        <time>2019-07-11T10:16:30Z</time>
      </trkpt>
      <trkpt lat="48.78221" lon="-3.5453">
        <ele>51.5</ele>
        <time>2019-07-11T10:16:31Z</time>
      </trkpt>
      <trkpt lat="48.78219" lon="-3.5453">
        <ele>51.5</ele>
        <time>2019-07-11T10:16:32Z</time>
      </trkpt>
      <trkpt lat="48.78216" lon="-3.54529">
        <ele>51.7</ele>
        <time>2019-07-11T10:16:33Z</time>
      </trkpt>
      <trkpt lat="48.78214" lon="-3.54529">
        <ele>51.7</ele>
        <time>2019-07-11T10:16:34Z</time>
      </trkpt>
      <trkpt lat="48.78212" lon="-3.54528">
        <ele>52</ele>
        <time>2019-07-11T10:16:35Z</time>
      </trkpt>
      <trkpt lat="48.7821" lon="-3.54529">
        <ele>52.1</ele>
        <time>2019-07-11T10:16:36Z</time>
      </trkpt>
      <trkpt lat="48.78207" lon="-3.54529">
        <ele>52.3</ele>
        <time>2019-07-11T10:16:37Z</time>
      </trkpt>
      <trkpt lat="48.78206" lon="-3.54529">
        <ele>52.7</ele>
        <time>2019-07-11T10:16:38Z</time>
      </trkpt>
      <trkpt lat="48.78203" lon="-3.54528">
        <ele>53.1</ele>
        <time>2019-07-11T10:16:39Z</time>
      </trkpt>
      <trkpt lat="48.78201" lon="-3.54528">
        <ele>53.4</ele>
        <time>2019-07-11T10:16:40Z</time>
      </trkpt>
      <trkpt lat="48.78201" lon="-3.5453">
        <ele>54.1</ele>
        <time>2019-07-11T10:16:41Z</time>
      </trkpt>
      <trkpt lat="48.78199" lon="-3.5453">
        <ele>54.3</ele>
        <time>2019-07-11T10:16:42Z</time>
      </trkpt>
      <trkpt lat="48.78197" lon="-3.5453">
        <ele>54.7</ele>
        <time>2019-07-11T10:16:43Z</time>
      </trkpt>
      <trkpt lat="48.78194" lon="-3.54529">
        <ele>55.1</ele>
        <time>2019-07-11T10:16:44Z</time>
      </trkpt>
      <trkpt lat="48.78192" lon="-3.54528">
        <ele>55.5</ele>
        <time>2019-07-11T10:16:45Z</time>
      </trkpt>
      <trkpt lat="48.7819" lon="-3.54526">
        <ele>55.8</ele>
        <time>2019-07-11T10:16:46Z</time>
      </trkpt>
      <trkpt lat="48.78188" lon="-3.54525">
        <ele>56.1</ele>
        <time>2019-07-11T10:16:47Z</time>
      </trkpt>
      <trkpt lat="48.78186" lon="-3.54524">
        <ele>56.4</ele>
        <time>2019-07-11T10:16:48Z</time>
      </trkpt>
      <trkpt lat="48.78185" lon="-3.54524">
        <ele>56.9</ele>
        <time>2019-07-11T10:16:49Z</time>
      </trkpt>
      <trkpt lat="48.78183" lon="-3.54524">
        <ele>57.5</ele>
        <time>2019-07-11T10:16:50Z</time>
      </trkpt>
      <trkpt lat="48.78182" lon="-3.54524">
        <ele>57.9</ele>
        <time>2019-07-11T10:16:51Z</time>
      </trkpt>
      <trkpt lat="48.7818" lon="-3.54523">
        <ele>58.1</ele>
        <time>2019-07-11T10:16:52Z</time>
      </trkpt>
      <trkpt lat="48.78178" lon="-3.54523">
        <ele>58.2</ele>
        <time>2019-07-11T10:16:53Z</time>
      </trkpt>
      <trkpt lat="48.78176" lon="-3.54523">
        <ele>58.4</ele>
        <time>2019-07-11T10:16:54Z</time>
      </trkpt>
      <trkpt lat="48.78174" lon="-3.54523">
        <ele>58.7</ele>
        <time>2019-07-11T10:16:55Z</time>
      </trkpt>
      <trkpt lat="48.78173" lon="-3.54523">
        <ele>59</ele>
        <time>2019-07-11T10:16:56Z</time>
      </trkpt>
      <trkpt lat="48.78172" lon="-3.54523">
        <ele>59.4</ele>
        <time>2019-07-11T10:16:57Z</time>
      </trkpt>
      <trkpt lat="48.78169" lon="-3.54523">
        <ele>59.7</ele>
        <time>2019-07-11T10:16:58Z</time>
      </trkpt>
      <trkpt lat="48.78167" lon="-3.54524">
        <ele>59.8</ele>
        <time>2019-07-11T10:16:59Z</time>
      </trkpt>
      <trkpt lat="48.78165" lon="-3.54524">
        <ele>60.3</ele>
        <time>2019-07-11T10:17:00Z</time>
      </trkpt>
      <trkpt lat="48.78163" lon="-3.54524">
        <ele>60.4</ele>
        <time>2019-07-11T10:17:01Z</time>
      </trkpt>
      <trkpt lat="48.78161" lon="-3.54524">
        <ele>60.8</ele>
        <time>2019-07-11T10:17:02Z</time>
      </trkpt>
      <trkpt lat="48.78158" lon="-3.54524">
        <ele>61.3</ele>
        <time>2019-07-11T10:17:03Z</time>
      </trkpt>
      <trkpt lat="48.78154" lon="-3.54525">
        <ele>61.6</ele>
        <time>2019-07-11T10:17:04Z</time>
      </trkpt>
      <trkpt lat="48.78152" lon="-3.54525">
        <ele>61.6</ele>
        <time>2019-07-11T10:17:05Z</time>
      </trkpt>
      <trkpt lat="48.78148" lon="-3.54526">
        <ele>61.5</ele>
        <time>2019-07-11T10:17:06Z</time>
      </trkpt>
      <trkpt lat="48.78145" lon="-3.54526">
        <ele>60.3</ele>
        <time>2019-07-11T10:17:07Z</time>
      </trkpt>
      <trkpt lat="48.78143" lon="-3.54527">
        <ele>58.6</ele>
        <time>2019-07-11T10:17:08Z</time>
      </trkpt>
      <trkpt lat="48.7814" lon="-3.54528">
        <ele>57.8</ele>
        <time>2019-07-11T10:17:09Z</time>
      </trkpt>
      <trkpt lat="48.78138" lon="-3.5453">
        <ele>57.2</ele>
        <time>2019-07-11T10:17:10Z</time>
      </trkpt>
      <trkpt lat="48.78136" lon="-3.54531">
        <ele>56.6</ele>
        <time>2019-07-11T10:17:11Z</time>
      </trkpt>
      <trkpt lat="48.78133" lon="-3.54531">
        <ele>56.4</ele>
        <time>2019-07-11T10:17:12Z</time>
      </trkpt>
      <trkpt lat="48.7813" lon="-3.54533">
        <ele>56.1</ele>
        <time>2019-07-11T10:17:13Z</time>
      </trkpt>
      <trkpt lat="48.78128" lon="-3.54535">
        <ele>56.3</ele>
        <time>2019-07-11T10:17:14Z</time>
      </trkpt>
      <trkpt lat="48.78125" lon="-3.54538">
        <ele>56</ele>
        <time>2019-07-11T10:17:15Z</time>
      </trkpt>
      <trkpt lat="48.78122" lon="-3.54541">
        <ele>55.8</ele>
        <time>2019-07-11T10:17:16Z</time>
      </trkpt>
      <trkpt lat="48.7812" lon="-3.54543">
        <ele>55.9</ele>
        <time>2019-07-11T10:17:17Z</time>
      </trkpt>
      <trkpt lat="48.78118" lon="-3.54545">
        <ele>55.6</ele>
        <time>2019-07-11T10:17:18Z</time>
      </trkpt>
      <trkpt lat="48.78116" lon="-3.54549">
        <ele>56.2</ele>
        <time>2019-07-11T10:17:19Z</time>
      </trkpt>
      <trkpt lat="48.78116" lon="-3.54553">
        <ele>56.5</ele>
        <time>2019-07-11T10:17:20Z</time>
      </trkpt>
      <trkpt lat="48.78115" lon="-3.54557">
        <ele>57.1</ele>
        <time>2019-07-11T10:17:21Z</time>
      </trkpt>
      <trkpt lat="48.78115" lon="-3.54561">
        <ele>57.6</ele>
        <time>2019-07-11T10:17:22Z</time>
      </trkpt>
      <trkpt lat="48.78116" lon="-3.54564">
        <ele>58</ele>
        <time>2019-07-11T10:17:23Z</time>
      </trkpt>
      <trkpt lat="48.78117" lon="-3.54566">
        <ele>58</ele>
        <time>2019-07-11T10:17:24Z</time>
      </trkpt>
      <trkpt lat="48.78118" lon="-3.5457">
        <ele>58</ele>
        <time>2019-07-11T10:17:25Z</time>
      </trkpt>
      <trkpt lat="48.78118" lon="-3.54573">
        <ele>58.5</ele>
        <time>2019-07-11T10:17:26Z</time>
      </trkpt>
      <trkpt lat="48.78118" lon="-3.54575">
        <ele>58.9</ele>
        <time>2019-07-11T10:17:27Z</time>
      </trkpt>
      <trkpt lat="48.78119" lon="-3.54578">
        <ele>58.7</ele>
        <time>2019-07-11T10:17:28Z</time>
      </trkpt>
      <trkpt lat="48.78119" lon="-3.54581">
        <ele>59</ele>
        <time>2019-07-11T10:17:29Z</time>
      </trkpt>
      <trkpt lat="48.78121" lon="-3.54584">
        <ele>58.8</ele>
        <time>2019-07-11T10:17:30Z</time>
      </trkpt>
      <trkpt lat="48.78122" lon="-3.54587">
        <ele>58.9</ele>
        <time>2019-07-11T10:17:31Z</time>
      </trkpt>
      <trkpt lat="48.78125" lon="-3.54591">
        <ele>59.4</ele>
        <time>2019-07-11T10:17:32Z</time>
      </trkpt>
      <trkpt lat="48.78126" lon="-3.54595">
        <ele>59.8</ele>
        <time>2019-07-11T10:17:33Z</time>
      </trkpt>
      <trkpt lat="48.78127" lon="-3.54599">
        <ele>60.2</ele>
        <time>2019-07-11T10:17:34Z</time>
      </trkpt>
      <trkpt lat="48.78129" lon="-3.54604">
        <ele>60.1</ele>
        <time>2019-07-11T10:17:35Z</time>
      </trkpt>
      <trkpt lat="48.7813" lon="-3.54609">
        <ele>59.9</ele>
        <time>2019-07-11T10:17:36Z</time>
      </trkpt>
      <trkpt lat="48.7813" lon="-3.54614">
        <ele>59.6</ele>
        <time>2019-07-11T10:17:37Z</time>
      </trkpt>
      <trkpt lat="48.78131" lon="-3.5462">
        <ele>59.3</ele>
        <time>2019-07-11T10:17:38Z</time>
      </trkpt>
      <trkpt lat="48.78132" lon="-3.54626">
        <ele>59</ele>
        <time>2019-07-11T10:17:39Z</time>
      </trkpt>
      <trkpt lat="48.78132" lon="-3.54632">
        <ele>59</ele>
        <time>2019-07-11T10:17:40Z</time>
      </trkpt>
      <trkpt lat="48.78131" lon="-3.54638">
        <ele>59.6</ele>
        <time>2019-07-11T10:17:41Z</time>
      </trkpt>
      <trkpt lat="48.78131" lon="-3.54643">
        <ele>59.4</ele>
        <time>2019-07-11T10:17:42Z</time>
      </trkpt>
      <trkpt lat="48.7813" lon="-3.54648">
        <ele>59.4</ele>
        <time>2019-07-11T10:17:43Z</time>
      </trkpt>
      <trkpt lat="48.7813" lon="-3.54653">
        <ele>59.7</ele>
        <time>2019-07-11T10:17:44Z</time>
      </trkpt>
      <trkpt lat="48.7813" lon="-3.54658">
        <ele>60</ele>
        <time>2019-07-11T10:17:45Z</time>
      </trkpt>
      <trkpt lat="48.78129" lon="-3.54662">
        <ele>59.9</ele>
        <time>2019-07-11T10:17:46Z</time>
      </trkpt>
      <trkpt lat="48.78128" lon="-3.54666">
        <ele>59.5</ele>
        <time>2019-07-11T10:17:47Z</time>
      </trkpt>
      <trkpt lat="48.78127" lon="-3.54669">
        <ele>58.9</ele>
        <time>2019-07-11T10:17:48Z</time>
      </trkpt>
      <trkpt lat="48.78125" lon="-3.54672">
        <ele>58.4</ele>
        <time>2019-07-11T10:17:49Z</time>
      </trkpt>
      <trkpt lat="48.78124" lon="-3.54676">
        <ele>58.1</ele>
        <time>2019-07-11T10:17:50Z</time>
      </trkpt>
      <trkpt lat="48.78122" lon="-3.54681">
        <ele>57.7</ele>
        <time>2019-07-11T10:17:51Z</time>
      </trkpt>
      <trkpt lat="48.78121" lon="-3.54686">
        <ele>57.2</ele>
        <time>2019-07-11T10:17:52Z</time>
      </trkpt>
      <trkpt lat="48.78119" lon="-3.5469">
        <ele>56.9</ele>
        <time>2019-07-11T10:17:53Z</time>
      </trkpt>
      <trkpt lat="48.78117" lon="-3.54694">
        <ele>56.6</ele>
        <time>2019-07-11T10:17:54Z</time>
      </trkpt>
      <trkpt lat="48.78114" lon="-3.54697">
        <ele>56.3</ele>
        <time>2019-07-11T10:17:55Z</time>
      </trkpt>
      <trkpt lat="48.78112" lon="-3.547">
        <ele>56.3</ele>
        <time>2019-07-11T10:17:56Z</time>
      </trkpt>
      <trkpt lat="48.78111" lon="-3.54703">
        <ele>56.5</ele>
        <time>2019-07-11T10:17:57Z</time>
      </trkpt>
      <trkpt lat="48.78108" lon="-3.54704">
        <ele>56.7</ele>
        <time>2019-07-11T10:17:58Z</time>
      </trkpt>
      <trkpt lat="48.78105" lon="-3.54704">
        <ele>56.8</ele>
        <time>2019-07-11T10:17:59Z</time>
      </trkpt>
      <trkpt lat="48.78103" lon="-3.54705">
        <ele>56.9</ele>
        <time>2019-07-11T10:18:00Z</time>
      </trkpt>
      <trkpt lat="48.78101" lon="-3.54706">
        <ele>56.9</ele>
        <time>2019-07-11T10:18:01Z</time>
      </trkpt>
      <trkpt lat="48.78099" lon="-3.54707">
        <ele>57.2</ele>
        <time>2019-07-11T10:18:02Z</time>
      </trkpt>
      <trkpt lat="48.78097" lon="-3.54708">
        <ele>57.2</ele>
        <time>2019-07-11T10:18:03Z</time>
      </trkpt>
      <trkpt lat="48.78096" lon="-3.54709">
        <ele>57.1</ele>
        <time>2019-07-11T10:18:04Z</time>
      </trkpt>
      <trkpt lat="48.78094" lon="-3.54711">
        <ele>57.2</ele>
        <time>2019-07-11T10:18:05Z</time>
      </trkpt>
      <trkpt lat="48.78092" lon="-3.54711">
        <ele>57.3</ele>
        <time>2019-07-11T10:18:06Z</time>
      </trkpt>
      <trkpt lat="48.7809" lon="-3.54712">
        <ele>57.4</ele>
        <time>2019-07-11T10:18:07Z</time>
      </trkpt>
      <trkpt lat="48.78088" lon="-3.54712">
        <ele>57.6</ele>
        <time>2019-07-11T10:18:08Z</time>
      </trkpt>
      <trkpt lat="48.78087" lon="-3.54713">
        <ele>57.9</ele>
        <time>2019-07-11T10:18:09Z</time>
      </trkpt>
      <trkpt lat="48.78085" lon="-3.54713">
        <ele>58.3</ele>
        <time>2019-07-11T10:18:10Z</time>
      </trkpt>
      <trkpt lat="48.78083" lon="-3.54714">
        <ele>58.7</ele>
        <time>2019-07-11T10:18:11Z</time>
      </trkpt>
      <trkpt lat="48.7808" lon="-3.54714">
        <ele>59.1</ele>
        <time>2019-07-11T10:18:12Z</time>
      </trkpt>
      <trkpt lat="48.78079" lon="-3.54715">
        <ele>59.4</ele>
        <time>2019-07-11T10:18:13Z</time>
      </trkpt>
      <trkpt lat="48.78076" lon="-3.54715">
        <ele>59.8</ele>
        <time>2019-07-11T10:18:14Z</time>
      </trkpt>
      <trkpt lat="48.78073" lon="-3.54715">
        <ele>59.9</ele>
        <time>2019-07-11T10:18:15Z</time>
      </trkpt>
      <trkpt lat="48.78072" lon="-3.54717">
        <ele>60.3</ele>
        <time>2019-07-11T10:18:16Z</time>
      </trkpt>
      <trkpt lat="48.78069" lon="-3.54719">
        <ele>60.3</ele>
        <time>2019-07-11T10:18:17Z</time>
      </trkpt>
      <trkpt lat="48.78066" lon="-3.5472">
        <ele>60.2</ele>
        <time>2019-07-11T10:18:18Z</time>
      </trkpt>
      <trkpt lat="48.78063" lon="-3.54721">
        <ele>60.2</ele>
        <time>2019-07-11T10:18:19Z</time>
      </trkpt>
      <trkpt lat="48.7806" lon="-3.54722">
        <ele>60.2</ele>
        <time>2019-07-11T10:18:20Z</time>
      </trkpt>
      <trkpt lat="48.78058" lon="-3.54722">
        <ele>60.3</ele>
        <time>2019-07-11T10:18:21Z</time>
      </trkpt>
      <trkpt lat="48.78056" lon="-3.54723">
        <ele>60.6</ele>
        <time>2019-07-11T10:18:22Z</time>
      </trkpt>
      <trkpt lat="48.78054" lon="-3.54724">
        <ele>60.8</ele>
        <time>2019-07-11T10:18:23Z</time>
      </trkpt>
      <trkpt lat="48.78052" lon="-3.54725">
        <ele>61.2</ele>
        <time>2019-07-11T10:18:24Z</time>
      </trkpt>
      <trkpt lat="48.7805" lon="-3.54727">
        <ele>61.4</ele>
        <time>2019-07-11T10:18:25Z</time>
      </trkpt>
      <trkpt lat="48.78048" lon="-3.54729">
        <ele>61.8</ele>
        <time>2019-07-11T10:18:26Z</time>
      </trkpt>
      <trkpt lat="48.78047" lon="-3.54731">
        <ele>61.9</ele>
        <time>2019-07-11T10:18:27Z</time>
      </trkpt>
      <trkpt lat="48.78046" lon="-3.54733">
        <ele>61.8</ele>
        <time>2019-07-11T10:18:28Z</time>
      </trkpt>
      <trkpt lat="48.78045" lon="-3.54735">
        <ele>62.1</ele>
        <time>2019-07-11T10:18:29Z</time>
      </trkpt>
      <trkpt lat="48.78044" lon="-3.54737">
        <ele>62.4</ele>
        <time>2019-07-11T10:18:30Z</time>
      </trkpt>
      <trkpt lat="48.78042" lon="-3.54739">
        <ele>62.6</ele>
        <time>2019-07-11T10:18:31Z</time>
      </trkpt>
      <trkpt lat="48.7804" lon="-3.54742">
        <ele>62.1</ele>
        <time>2019-07-11T10:18:32Z</time>
      </trkpt>
      <trkpt lat="48.78038" lon="-3.54743">
        <ele>62.4</ele>
        <time>2019-07-11T10:18:33Z</time>
      </trkpt>
      <trkpt lat="48.78037" lon="-3.54744">
        <ele>62.8</ele>
        <time>2019-07-11T10:18:34Z</time>
      </trkpt>
      <trkpt lat="48.78034" lon="-3.54745">
        <ele>62.8</ele>
        <time>2019-07-11T10:18:35Z</time>
      </trkpt>
      <trkpt lat="48.78032" lon="-3.54747">
        <ele>63.2</ele>
        <time>2019-07-11T10:18:36Z</time>
      </trkpt>
      <trkpt lat="48.7803" lon="-3.54748">
        <ele>63.5</ele>
        <time>2019-07-11T10:18:37Z</time>
      </trkpt>
      <trkpt lat="48.78027" lon="-3.54749">
        <ele>63.8</ele>
        <time>2019-07-11T10:18:38Z</time>
      </trkpt>
      <trkpt lat="48.78025" lon="-3.54751">
        <ele>64</ele>
        <time>2019-07-11T10:18:39Z</time>
      </trkpt>
      <trkpt lat="48.78023" lon="-3.54753">
        <ele>64.3</ele>
        <time>2019-07-11T10:18:40Z</time>
      </trkpt>
      <trkpt lat="48.78021" lon="-3.54754">
        <ele>64.8</ele>
        <time>2019-07-11T10:18:41Z</time>
      </trkpt>
      <trkpt lat="48.78019" lon="-3.54755">
        <ele>65.5</ele>
        <time>2019-07-11T10:18:42Z</time>
      </trkpt>
      <trkpt lat="48.78016" lon="-3.54756">
        <ele>66.2</ele>
        <time>2019-07-11T10:18:43Z</time>
      </trkpt>
      <trkpt lat="48.78014" lon="-3.54757">
        <ele>67.1</ele>
        <time>2019-07-11T10:18:44Z</time>
      </trkpt>
      <trkpt lat="48.78013" lon="-3.54758">
        <ele>68.1</ele>
        <time>2019-07-11T10:18:45Z</time>
      </trkpt>
      <trkpt lat="48.78012" lon="-3.5476">
        <ele>68.7</ele>
        <time>2019-07-11T10:18:46Z</time>
      </trkpt>
      <trkpt lat="48.78011" lon="-3.54761">
        <ele>69.5</ele>
        <time>2019-07-11T10:18:47Z</time>
      </trkpt>
      <trkpt lat="48.78009" lon="-3.54764">
        <ele>70.1</ele>
        <time>2019-07-11T10:18:48Z</time>
      </trkpt>
      <trkpt lat="48.78007" lon="-3.54767">
        <ele>70.4</ele>
        <time>2019-07-11T10:18:49Z</time>
      </trkpt>
      <trkpt lat="48.78004" lon="-3.54769">
        <ele>70.5</ele>
        <time>2019-07-11T10:18:50Z</time>
      </trkpt>
      <trkpt lat="48.78002" lon="-3.54771">
        <ele>71</ele>
        <time>2019-07-11T10:18:51Z</time>
      </trkpt>
      <trkpt lat="48.78" lon="-3.54774">
        <ele>71.4</ele>
        <time>2019-07-11T10:18:52Z</time>
      </trkpt>
      <trkpt lat="48.77997" lon="-3.54777">
        <ele>72</ele>
        <time>2019-07-11T10:18:53Z</time>
      </trkpt>
      <trkpt lat="48.77995" lon="-3.54779">
        <ele>72.5</ele>
        <time>2019-07-11T10:18:54Z</time>
      </trkpt>
      <trkpt lat="48.77994" lon="-3.54782">
        <ele>73</ele>
        <time>2019-07-11T10:18:55Z</time>
      </trkpt>
      <trkpt lat="48.77993" lon="-3.54785">
        <ele>73.6</ele>
        <time>2019-07-11T10:18:56Z</time>
      </trkpt>
      <trkpt lat="48.77991" lon="-3.54787">
        <ele>74.1</ele>
        <time>2019-07-11T10:18:57Z</time>
      </trkpt>
      <trkpt lat="48.77989" lon="-3.54789">
        <ele>74.6</ele>
        <time>2019-07-11T10:18:58Z</time>
      </trkpt>
      <trkpt lat="48.77986" lon="-3.54791">
        <ele>75</ele>
        <time>2019-07-11T10:18:59Z</time>
      </trkpt>
      <trkpt lat="48.77984" lon="-3.54793">
        <ele>75.8</ele>
        <time>2019-07-11T10:19:00Z</time>
      </trkpt>
      <trkpt lat="48.77982" lon="-3.54795">
        <ele>76.7</ele>
        <time>2019-07-11T10:19:01Z</time>
      </trkpt>
      <trkpt lat="48.77981" lon="-3.54797">
        <ele>77.2</ele>
        <time>2019-07-11T10:19:02Z</time>
      </trkpt>
      <trkpt lat="48.77979" lon="-3.548">
        <ele>77.8</ele>
        <time>2019-07-11T10:19:03Z</time>
      </trkpt>
      <trkpt lat="48.77979" lon="-3.54804">
        <ele>78.1</ele>
        <time>2019-07-11T10:19:04Z</time>
      </trkpt>
      <trkpt lat="48.77978" lon="-3.54808">
        <ele>78.8</ele>
        <time>2019-07-11T10:19:05Z</time>
      </trkpt>
      <trkpt lat="48.77978" lon="-3.54814">
        <ele>78.6</ele>
        <time>2019-07-11T10:19:06Z</time>
      </trkpt>
      <trkpt lat="48.77977" lon="-3.5482">
        <ele>77.7</ele>
        <time>2019-07-11T10:19:07Z</time>
      </trkpt>
      <trkpt lat="48.77976" lon="-3.54825">
        <ele>77.2</ele>
        <time>2019-07-11T10:19:08Z</time>
      </trkpt>
      <trkpt lat="48.77975" lon="-3.5483">
        <ele>76.8</ele>
        <time>2019-07-11T10:19:09Z</time>
      </trkpt>
      <trkpt lat="48.77974" lon="-3.54833">
        <ele>76.7</ele>
        <time>2019-07-11T10:19:10Z</time>
      </trkpt>
      <trkpt lat="48.77973" lon="-3.54837">
        <ele>76.9</ele>
        <time>2019-07-11T10:19:11Z</time>
      </trkpt>
      <trkpt lat="48.77972" lon="-3.5484">
        <ele>77.2</ele>
        <time>2019-07-11T10:19:12Z</time>
      </trkpt>
      <trkpt lat="48.77971" lon="-3.54844">
        <ele>77.1</ele>
        <time>2019-07-11T10:19:13Z</time>
      </trkpt>
      <trkpt lat="48.77968" lon="-3.54847">
        <ele>77.1</ele>
        <time>2019-07-11T10:19:14Z</time>
      </trkpt>
      <trkpt lat="48.77966" lon="-3.54849">
        <ele>76.9</ele>
        <time>2019-07-11T10:19:15Z</time>
      </trkpt>
      <trkpt lat="48.77964" lon="-3.54852">
        <ele>76.7</ele>
        <time>2019-07-11T10:19:16Z</time>
      </trkpt>
      <trkpt lat="48.77961" lon="-3.54854">
        <ele>76.4</ele>
        <time>2019-07-11T10:19:17Z</time>
      </trkpt>
      <trkpt lat="48.77959" lon="-3.54858">
        <ele>76.4</ele>
        <time>2019-07-11T10:19:18Z</time>
      </trkpt>
      <trkpt lat="48.77956" lon="-3.5486">
        <ele>76.2</ele>
        <time>2019-07-11T10:19:19Z</time>
      </trkpt>
      <trkpt lat="48.77954" lon="-3.54862">
        <ele>76</ele>
        <time>2019-07-11T10:19:20Z</time>
      </trkpt>
      <trkpt lat="48.77951" lon="-3.54865">
        <ele>75.9</ele>
        <time>2019-07-11T10:19:21Z</time>
      </trkpt>
      <trkpt lat="48.7795" lon="-3.54869">
        <ele>75.8</ele>
        <time>2019-07-11T10:19:22Z</time>
      </trkpt>
      <trkpt lat="48.77948" lon="-3.54873">
        <ele>75.7</ele>
        <time>2019-07-11T10:19:23Z</time>
      </trkpt>
      <trkpt lat="48.77947" lon="-3.54877">
        <ele>75.5</ele>
        <time>2019-07-11T10:19:24Z</time>
      </trkpt>
      <trkpt lat="48.77945" lon="-3.5488">
        <ele>75.5</ele>
        <time>2019-07-11T10:19:25Z</time>
      </trkpt>
      <trkpt lat="48.77943" lon="-3.54884">
        <ele>75.5</ele>
        <time>2019-07-11T10:19:26Z</time>
      </trkpt>
      <trkpt lat="48.77941" lon="-3.54887">
        <ele>75.2</ele>
        <time>2019-07-11T10:19:27Z</time>
      </trkpt>
      <trkpt lat="48.77939" lon="-3.5489">
        <ele>75.3</ele>
        <time>2019-07-11T10:19:28Z</time>
      </trkpt>
      <trkpt lat="48.77936" lon="-3.54891">
        <ele>74.9</ele>
        <time>2019-07-11T10:19:29Z</time>
      </trkpt>
      <trkpt lat="48.77933" lon="-3.54893">
        <ele>75</ele>
        <time>2019-07-11T10:19:30Z</time>
      </trkpt>
      <trkpt lat="48.7793" lon="-3.54897">
        <ele>74.9</ele>
        <time>2019-07-11T10:19:31Z</time>
      </trkpt>
      <trkpt lat="48.77927" lon="-3.549">
        <ele>75.2</ele>
        <time>2019-07-11T10:19:32Z</time>
      </trkpt>
      <trkpt lat="48.77926" lon="-3.54904">
        <ele>75.4</ele>
        <time>2019-07-11T10:19:33Z</time>
      </trkpt>
      <trkpt lat="48.77923" lon="-3.54907">
        <ele>76</ele>
        <time>2019-07-11T10:19:34Z</time>
      </trkpt>
      <trkpt lat="48.7792" lon="-3.54911">
        <ele>76.6</ele>
        <time>2019-07-11T10:19:35Z</time>
      </trkpt>
      <trkpt lat="48.77919" lon="-3.54916">
        <ele>77.1</ele>
        <time>2019-07-11T10:19:36Z</time>
      </trkpt>
      <trkpt lat="48.77916" lon="-3.54921">
        <ele>77.3</ele>
        <time>2019-07-11T10:19:37Z</time>
      </trkpt>
      <trkpt lat="48.77914" lon="-3.54926">
        <ele>77.7</ele>
        <time>2019-07-11T10:19:38Z</time>
      </trkpt>
      <trkpt lat="48.77913" lon="-3.54931">
        <ele>77.9</ele>
        <time>2019-07-11T10:19:39Z</time>
      </trkpt>
      <trkpt lat="48.77911" lon="-3.54936">
        <ele>78.1</ele>
        <time>2019-07-11T10:19:40Z</time>
      </trkpt>
      <trkpt lat="48.77909" lon="-3.54941">
        <ele>78.4</ele>
        <time>2019-07-11T10:19:41Z</time>
      </trkpt>
      <trkpt lat="48.77907" lon="-3.54946">
        <ele>78.8</ele>
        <time>2019-07-11T10:19:42Z</time>
      </trkpt>
      <trkpt lat="48.77905" lon="-3.5495">
        <ele>79</ele>
        <time>2019-07-11T10:19:43Z</time>
      </trkpt>
      <trkpt lat="48.77902" lon="-3.54955">
        <ele>79.3</ele>
        <time>2019-07-11T10:19:44Z</time>
      </trkpt>
      <trkpt lat="48.779" lon="-3.5496">
        <ele>79.5</ele>
        <time>2019-07-11T10:19:45Z</time>
      </trkpt>
      <trkpt lat="48.77898" lon="-3.54966">
        <ele>79.6</ele>
        <time>2019-07-11T10:19:46Z</time>
      </trkpt>
      <trkpt lat="48.77897" lon="-3.5497">
        <ele>79.9</ele>
        <time>2019-07-11T10:19:47Z</time>
      </trkpt>
      <trkpt lat="48.77893" lon="-3.54974">
        <ele>80</ele>
        <time>2019-07-11T10:19:48Z</time>
      </trkpt>
      <trkpt lat="48.77891" lon="-3.54976">
        <ele>80.7</ele>
        <time>2019-07-11T10:19:49Z</time>
      </trkpt>
      <trkpt lat="48.77889" lon="-3.54979">
        <ele>81.1</ele>
        <time>2019-07-11T10:19:50Z</time>
      </trkpt>
      <trkpt lat="48.77887" lon="-3.54983">
        <ele>81.7</ele>
        <time>2019-07-11T10:19:51Z</time>
      </trkpt>
      <trkpt lat="48.77885" lon="-3.54988">
        <ele>82.1</ele>
        <time>2019-07-11T10:19:52Z</time>
      </trkpt>
      <trkpt lat="48.77883" lon="-3.54993">
        <ele>82.3</ele>
        <time>2019-07-11T10:19:53Z</time>
      </trkpt>
      <trkpt lat="48.77881" lon="-3.54999">
        <ele>82.4</ele>
        <time>2019-07-11T10:19:54Z</time>
      </trkpt>
      <trkpt lat="48.77878" lon="-3.55005">
        <ele>82.4</ele>
        <time>2019-07-11T10:19:55Z</time>
      </trkpt>
      <trkpt lat="48.77875" lon="-3.5501">
        <ele>82.5</ele>
        <time>2019-07-11T10:19:56Z</time>
      </trkpt>
      <trkpt lat="48.77872" lon="-3.55015">
        <ele>82.4</ele>
        <time>2019-07-11T10:19:57Z</time>
      </trkpt>
      <trkpt lat="48.77869" lon="-3.55021">
        <ele>81.9</ele>
        <time>2019-07-11T10:19:58Z</time>
      </trkpt>
      <trkpt lat="48.77866" lon="-3.55026">
        <ele>81.6</ele>
        <time>2019-07-11T10:19:59Z</time>
      </trkpt>
      <trkpt lat="48.77862" lon="-3.55031">
        <ele>81.2</ele>
        <time>2019-07-11T10:20:00Z</time>
      </trkpt>
      <trkpt lat="48.77858" lon="-3.5504">
        <ele>79</ele>
        <time>2019-07-11T10:20:01Z</time>
      </trkpt>
      <trkpt lat="48.77855" lon="-3.55045">
        <ele>77.8</ele>
        <time>2019-07-11T10:20:02Z</time>
      </trkpt>
      <trkpt lat="48.7785" lon="-3.55048">
        <ele>77.2</ele>
        <time>2019-07-11T10:20:03Z</time>
      </trkpt>
      <trkpt lat="48.77847" lon="-3.55052">
        <ele>76.6</ele>
        <time>2019-07-11T10:20:04Z</time>
      </trkpt>
      <trkpt lat="48.77844" lon="-3.55056">
        <ele>75.8</ele>
        <time>2019-07-11T10:20:05Z</time>
      </trkpt>
      <trkpt lat="48.77842" lon="-3.5506">
        <ele>75.5</ele>
        <time>2019-07-11T10:20:06Z</time>
      </trkpt>
      <trkpt lat="48.77839" lon="-3.55064">
        <ele>75.1</ele>
        <time>2019-07-11T10:20:07Z</time>
      </trkpt>
      <trkpt lat="48.77837" lon="-3.55069">
        <ele>74.5</ele>
        <time>2019-07-11T10:20:08Z</time>
      </trkpt>
      <trkpt lat="48.77835" lon="-3.55073">
        <ele>73.4</ele>
        <time>2019-07-11T10:20:09Z</time>
      </trkpt>
      <trkpt lat="48.77832" lon="-3.55076">
        <ele>72.8</ele>
        <time>2019-07-11T10:20:10Z</time>
      </trkpt>
      <trkpt lat="48.7783" lon="-3.55079">
        <ele>72.3</ele>
        <time>2019-07-11T10:20:11Z</time>
      </trkpt>
      <trkpt lat="48.77828" lon="-3.55082">
        <ele>72</ele>
        <time>2019-07-11T10:20:12Z</time>
      </trkpt>
      <trkpt lat="48.77825" lon="-3.55085">
        <ele>71.8</ele>
        <time>2019-07-11T10:20:13Z</time>
      </trkpt>
      <trkpt lat="48.77823" lon="-3.55088">
        <ele>71.7</ele>
        <time>2019-07-11T10:20:14Z</time>
      </trkpt>
      <trkpt lat="48.7782" lon="-3.55091">
        <ele>71.3</ele>
        <time>2019-07-11T10:20:15Z</time>
      </trkpt>
      <trkpt lat="48.77817" lon="-3.55094">
        <ele>70.8</ele>
        <time>2019-07-11T10:20:16Z</time>
      </trkpt>
      <trkpt lat="48.77813" lon="-3.55097">
        <ele>70.5</ele>
        <time>2019-07-11T10:20:17Z</time>
      </trkpt>
      <trkpt lat="48.7781" lon="-3.55101">
        <ele>70.3</ele>
        <time>2019-07-11T10:20:18Z</time>
      </trkpt>
      <trkpt lat="48.77807" lon="-3.55104">
        <ele>70</ele>
        <time>2019-07-11T10:20:19Z</time>
      </trkpt>
      <trkpt lat="48.77803" lon="-3.55107">
        <ele>69.7</ele>
        <time>2019-07-11T10:20:20Z</time>
      </trkpt>
      <trkpt lat="48.778" lon="-3.55111">
        <ele>69.6</ele>
        <time>2019-07-11T10:20:21Z</time>
      </trkpt>
      <trkpt lat="48.77797" lon="-3.55116">
        <ele>69.4</ele>
        <time>2019-07-11T10:20:22Z</time>
      </trkpt>
      <trkpt lat="48.77794" lon="-3.5512">
        <ele>69.5</ele>
        <time>2019-07-11T10:20:23Z</time>
      </trkpt>
      <trkpt lat="48.77791" lon="-3.55123">
        <ele>69.3</ele>
        <time>2019-07-11T10:20:24Z</time>
      </trkpt>
      <trkpt lat="48.77787" lon="-3.55127">
        <ele>69</ele>
        <time>2019-07-11T10:20:25Z</time>
      </trkpt>
      <trkpt lat="48.77784" lon="-3.55131">
        <ele>68.7</ele>
        <time>2019-07-11T10:20:26Z</time>
      </trkpt>
      <trkpt lat="48.77781" lon="-3.55135">
        <ele>68.4</ele>
        <time>2019-07-11T10:20:27Z</time>
      </trkpt>
      <trkpt lat="48.77778" lon="-3.5514">
        <ele>68.1</ele>
        <time>2019-07-11T10:20:28Z</time>
      </trkpt>
      <trkpt lat="48.77776" lon="-3.55144">
        <ele>67.7</ele>
        <time>2019-07-11T10:20:29Z</time>
      </trkpt>
      <trkpt lat="48.77773" lon="-3.55148">
        <ele>67.3</ele>
        <time>2019-07-11T10:20:30Z</time>
      </trkpt>
      <trkpt lat="48.7777" lon="-3.55152">
        <ele>67.2</ele>
        <time>2019-07-11T10:20:31Z</time>
      </trkpt>
      <trkpt lat="48.77766" lon="-3.55157">
        <ele>66.9</ele>
        <time>2019-07-11T10:20:32Z</time>
      </trkpt>
      <trkpt lat="48.77762" lon="-3.55161">
        <ele>66.6</ele>
        <time>2019-07-11T10:20:33Z</time>
      </trkpt>
      <trkpt lat="48.77758" lon="-3.55166">
        <ele>66.5</ele>
        <time>2019-07-11T10:20:34Z</time>
      </trkpt>
      <trkpt lat="48.77753" lon="-3.5517">
        <ele>66.4</ele>
        <time>2019-07-11T10:20:35Z</time>
      </trkpt>
      <trkpt lat="48.77749" lon="-3.55175">
        <ele>66.1</ele>
        <time>2019-07-11T10:20:36Z</time>
      </trkpt>
      <trkpt lat="48.77745" lon="-3.55178">
        <ele>65.8</ele>
        <time>2019-07-11T10:20:37Z</time>
      </trkpt>
      <trkpt lat="48.77741" lon="-3.55182">
        <ele>65.6</ele>
        <time>2019-07-11T10:20:38Z</time>
      </trkpt>
      <trkpt lat="48.77736" lon="-3.55186">
        <ele>65.5</ele>
        <time>2019-07-11T10:20:39Z</time>
      </trkpt>
      <trkpt lat="48.77733" lon="-3.5519">
        <ele>65.4</ele>
        <time>2019-07-11T10:20:40Z</time>
      </trkpt>
      <trkpt lat="48.77729" lon="-3.55194">
        <ele>65.2</ele>
        <time>2019-07-11T10:20:41Z</time>
      </trkpt>
      <trkpt lat="48.77726" lon="-3.55197">
        <ele>65.4</ele>
        <time>2019-07-11T10:20:42Z</time>
      </trkpt>
      <trkpt lat="48.77723" lon="-3.552">
        <ele>65.2</ele>
        <time>2019-07-11T10:20:43Z</time>
      </trkpt>
      <trkpt lat="48.7772" lon="-3.55204">
        <ele>64.9</ele>
        <time>2019-07-11T10:20:44Z</time>
      </trkpt>
      <trkpt lat="48.77716" lon="-3.55208">
        <ele>64.6</ele>
        <time>2019-07-11T10:20:45Z</time>
      </trkpt>
      <trkpt lat="48.77713" lon="-3.55212">
        <ele>64.5</ele>
        <time>2019-07-11T10:20:46Z</time>
      </trkpt>
      <trkpt lat="48.7771" lon="-3.55217">
        <ele>64.3</ele>
        <time>2019-07-11T10:20:47Z</time>
      </trkpt>
      <trkpt lat="48.77708" lon="-3.55222">
        <ele>64.1</ele>
        <time>2019-07-11T10:20:48Z</time>
      </trkpt>
      <trkpt lat="48.77704" lon="-3.55226">
        <ele>63.9</ele>
        <time>2019-07-11T10:20:49Z</time>
      </trkpt>
      <trkpt lat="48.77701" lon="-3.5523">
        <ele>63.7</ele>
        <time>2019-07-11T10:20:50Z</time>
      </trkpt>
      <trkpt lat="48.77698" lon="-3.55234">
        <ele>63.6</ele>
        <time>2019-07-11T10:20:51Z</time>
      </trkpt>
      <trkpt lat="48.77694" lon="-3.55237">
        <ele>63.6</ele>
        <time>2019-07-11T10:20:52Z</time>
      </trkpt>
      <trkpt lat="48.77691" lon="-3.55241">
        <ele>63.5</ele>
        <time>2019-07-11T10:20:53Z</time>
      </trkpt>
      <trkpt lat="48.77687" lon="-3.55244">
        <ele>63.5</ele>
        <time>2019-07-11T10:20:54Z</time>
      </trkpt>
      <trkpt lat="48.77684" lon="-3.55248">
        <ele>63.5</ele>
        <time>2019-07-11T10:20:55Z</time>
      </trkpt>
      <trkpt lat="48.77681" lon="-3.55252">
        <ele>63.5</ele>
        <time>2019-07-11T10:20:56Z</time>
      </trkpt>
      <trkpt lat="48.77679" lon="-3.55257">
        <ele>63.5</ele>
        <time>2019-07-11T10:20:57Z</time>
      </trkpt>
      <trkpt lat="48.77676" lon="-3.55261">
        <ele>63.5</ele>
        <time>2019-07-11T10:20:58Z</time>
      </trkpt>
      <trkpt lat="48.77673" lon="-3.55265">
        <ele>63.5</ele>
        <time>2019-07-11T10:20:59Z</time>
      </trkpt>
      <trkpt lat="48.77669" lon="-3.55269">
        <ele>63.5</ele>
        <time>2019-07-11T10:21:00Z</time>
      </trkpt>
      <trkpt lat="48.77666" lon="-3.55272">
        <ele>63.7</ele>
        <time>2019-07-11T10:21:01Z</time>
      </trkpt>
      <trkpt lat="48.77664" lon="-3.55276">
        <ele>63.9</ele>
        <time>2019-07-11T10:21:02Z</time>
      </trkpt>
      <trkpt lat="48.77662" lon="-3.5528">
        <ele>64.1</ele>
        <time>2019-07-11T10:21:03Z</time>
      </trkpt>
      <trkpt lat="48.77659" lon="-3.55283">
        <ele>64.4</ele>
        <time>2019-07-11T10:21:04Z</time>
      </trkpt>
      <trkpt lat="48.77655" lon="-3.55287">
        <ele>64.6</ele>
        <time>2019-07-11T10:21:05Z</time>
      </trkpt>
      <trkpt lat="48.77651" lon="-3.55291">
        <ele>64.7</ele>
        <time>2019-07-11T10:21:06Z</time>
      </trkpt>
      <trkpt lat="48.77648" lon="-3.55296">
        <ele>65.2</ele>
        <time>2019-07-11T10:21:07Z</time>
      </trkpt>
      <trkpt lat="48.77645" lon="-3.553">
        <ele>65.6</ele>
        <time>2019-07-11T10:21:08Z</time>
      </trkpt>
      <trkpt lat="48.77642" lon="-3.55304">
        <ele>66</ele>
        <time>2019-07-11T10:21:09Z</time>
      </trkpt>
      <trkpt lat="48.7764" lon="-3.55308">
        <ele>66.2</ele>
        <time>2019-07-11T10:21:10Z</time>
      </trkpt>
      <trkpt lat="48.77637" lon="-3.55313">
        <ele>66.5</ele>
        <time>2019-07-11T10:21:11Z</time>
      </trkpt>
      <trkpt lat="48.77634" lon="-3.55316">
        <ele>66.9</ele>
        <time>2019-07-11T10:21:12Z</time>
      </trkpt>
      <trkpt lat="48.7763" lon="-3.55319">
        <ele>67.3</ele>
        <time>2019-07-11T10:21:13Z</time>
      </trkpt>
      <trkpt lat="48.77626" lon="-3.55321">
        <ele>67.7</ele>
        <time>2019-07-11T10:21:14Z</time>
      </trkpt>
      <trkpt lat="48.77624" lon="-3.55325">
        <ele>68.2</ele>
        <time>2019-07-11T10:21:15Z</time>
      </trkpt>
      <trkpt lat="48.77622" lon="-3.55329">
        <ele>68.6</ele>
        <time>2019-07-11T10:21:16Z</time>
      </trkpt>
      <trkpt lat="48.7762" lon="-3.55331">
        <ele>69.2</ele>
        <time>2019-07-11T10:21:17Z</time>
      </trkpt>
      <trkpt lat="48.77619" lon="-3.55334">
        <ele>69.5</ele>
        <time>2019-07-11T10:21:18Z</time>
      </trkpt>
      <trkpt lat="48.77618" lon="-3.55335">
        <ele>69.9</ele>
        <time>2019-07-11T10:21:19Z</time>
      </trkpt>
      <trkpt lat="48.77616" lon="-3.55336">
        <ele>70.4</ele>
        <time>2019-07-11T10:21:20Z</time>
      </trkpt>
      <trkpt lat="48.77614" lon="-3.55337">
        <ele>71</ele>
        <time>2019-07-11T10:21:21Z</time>
      </trkpt>
      <trkpt lat="48.77613" lon="-3.55339">
        <ele>71.4</ele>
        <time>2019-07-11T10:21:22Z</time>
      </trkpt>
      <trkpt lat="48.77612" lon="-3.5534">
        <ele>71.7</ele>
        <time>2019-07-11T10:21:23Z</time>
      </trkpt>
      <trkpt lat="48.77609" lon="-3.55343">
        <ele>72.2</ele>
        <time>2019-07-11T10:21:24Z</time>
      </trkpt>
      <trkpt lat="48.77607" lon="-3.55344">
        <ele>72.6</ele>
        <time>2019-07-11T10:21:25Z</time>
      </trkpt>
      <trkpt lat="48.77605" lon="-3.55346">
        <ele>72.9</ele>
        <time>2019-07-11T10:21:26Z</time>
      </trkpt>
      <trkpt lat="48.77602" lon="-3.55349">
        <ele>72.8</ele>
        <time>2019-07-11T10:21:27Z</time>
      </trkpt>
      <trkpt lat="48.77599" lon="-3.55352">
        <ele>73.6</ele>
        <time>2019-07-11T10:21:28Z</time>
      </trkpt>
      <trkpt lat="48.77596" lon="-3.55355">
        <ele>74.2</ele>
        <time>2019-07-11T10:21:29Z</time>
      </trkpt>
      <trkpt lat="48.77594" lon="-3.55358">
        <ele>74.5</ele>
        <time>2019-07-11T10:21:30Z</time>
      </trkpt>
      <trkpt lat="48.7759" lon="-3.55361">
        <ele>74.5</ele>
        <time>2019-07-11T10:21:31Z</time>
      </trkpt>
      <trkpt lat="48.77585" lon="-3.55364">
        <ele>74.7</ele>
        <time>2019-07-11T10:21:32Z</time>
      </trkpt>
      <trkpt lat="48.77581" lon="-3.55367">
        <ele>75.1</ele>
        <time>2019-07-11T10:21:33Z</time>
      </trkpt>
      <trkpt lat="48.77578" lon="-3.5537">
        <ele>75.4</ele>
        <time>2019-07-11T10:21:34Z</time>
      </trkpt>
      <trkpt lat="48.77575" lon="-3.55374">
        <ele>75.6</ele>
        <time>2019-07-11T10:21:35Z</time>
      </trkpt>
      <trkpt lat="48.77571" lon="-3.55377">
        <ele>75.9</ele>
        <time>2019-07-11T10:21:36Z</time>
      </trkpt>
      <trkpt lat="48.77568" lon="-3.5538">
        <ele>76.5</ele>
        <time>2019-07-11T10:21:37Z</time>
      </trkpt>
      <trkpt lat="48.77565" lon="-3.55385">
        <ele>76.8</ele>
        <time>2019-07-11T10:21:38Z</time>
      </trkpt>
      <trkpt lat="48.77563" lon="-3.55389">
        <ele>76.9</ele>
        <time>2019-07-11T10:21:39Z</time>
      </trkpt>
      <trkpt lat="48.77561" lon="-3.55394">
        <ele>77.4</ele>
        <time>2019-07-11T10:21:40Z</time>
      </trkpt>
      <trkpt lat="48.77559" lon="-3.55396">
        <ele>78.4</ele>
        <time>2019-07-11T10:21:41Z</time>
      </trkpt>
      <trkpt lat="48.77554" lon="-3.55399">
        <ele>78.7</ele>
        <time>2019-07-11T10:21:42Z</time>
      </trkpt>
      <trkpt lat="48.77552" lon="-3.55403">
        <ele>79.5</ele>
        <time>2019-07-11T10:21:43Z</time>
      </trkpt>
      <trkpt lat="48.77548" lon="-3.55406">
        <ele>79.1</ele>
        <time>2019-07-11T10:21:44Z</time>
      </trkpt>
      <trkpt lat="48.77545" lon="-3.5541">
        <ele>79.4</ele>
        <time>2019-07-11T10:21:45Z</time>
      </trkpt>
      <trkpt lat="48.77541" lon="-3.55415">
        <ele>78.8</ele>
        <time>2019-07-11T10:21:46Z</time>
      </trkpt>
      <trkpt lat="48.77539" lon="-3.5542">
        <ele>79</ele>
        <time>2019-07-11T10:21:47Z</time>
      </trkpt>
      <trkpt lat="48.77536" lon="-3.55424">
        <ele>79.2</ele>
        <time>2019-07-11T10:21:48Z</time>
      </trkpt>
      <trkpt lat="48.77533" lon="-3.55428">
        <ele>79.4</ele>
        <time>2019-07-11T10:21:49Z</time>
      </trkpt>
      <trkpt lat="48.77531" lon="-3.55434">
        <ele>79.8</ele>
        <time>2019-07-11T10:21:50Z</time>
      </trkpt>
      <trkpt lat="48.77528" lon="-3.55439">
        <ele>79.6</ele>
        <time>2019-07-11T10:21:51Z</time>
      </trkpt>
      <trkpt lat="48.77524" lon="-3.55442">
        <ele>79.1</ele>
        <time>2019-07-11T10:21:52Z</time>
      </trkpt>
      <trkpt lat="48.77522" lon="-3.55446">
        <ele>78.6</ele>
        <time>2019-07-11T10:21:53Z</time>
      </trkpt>
      <trkpt lat="48.77519" lon="-3.55449">
        <ele>78.4</ele>
        <time>2019-07-11T10:21:54Z</time>
      </trkpt>
      <trkpt lat="48.77515" lon="-3.55453">
        <ele>78.2</ele>
        <time>2019-07-11T10:21:55Z</time>
      </trkpt>
      <trkpt lat="48.77513" lon="-3.55457">
        <ele>78</ele>
        <time>2019-07-11T10:21:56Z</time>
      </trkpt>
      <trkpt lat="48.7751" lon="-3.55461">
        <ele>77.7</ele>
        <time>2019-07-11T10:21:57Z</time>
      </trkpt>
      <trkpt lat="48.77507" lon="-3.55465">
        <ele>76.9</ele>
        <time>2019-07-11T10:21:58Z</time>
      </trkpt>
      <trkpt lat="48.77504" lon="-3.55469">
        <ele>76.6</ele>
        <time>2019-07-11T10:21:59Z</time>
      </trkpt>
      <trkpt lat="48.77502" lon="-3.55472">
        <ele>76.8</ele>
        <time>2019-07-11T10:22:00Z</time>
      </trkpt>
      <trkpt lat="48.77499" lon="-3.55476">
        <ele>76.5</ele>
        <time>2019-07-11T10:22:01Z</time>
      </trkpt>
      <trkpt lat="48.77497" lon="-3.55479">
        <ele>76.2</ele>
        <time>2019-07-11T10:22:02Z</time>
      </trkpt>
      <trkpt lat="48.77494" lon="-3.55483">
        <ele>76</ele>
        <time>2019-07-11T10:22:03Z</time>
      </trkpt>
      <trkpt lat="48.77492" lon="-3.55485">
        <ele>76.1</ele>
        <time>2019-07-11T10:22:04Z</time>
      </trkpt>
      <trkpt lat="48.7749" lon="-3.55489">
        <ele>76.2</ele>
        <time>2019-07-11T10:22:05Z</time>
      </trkpt>
      <trkpt lat="48.77487" lon="-3.55492">
        <ele>76.2</ele>
        <time>2019-07-11T10:22:06Z</time>
      </trkpt>
      <trkpt lat="48.77485" lon="-3.55496">
        <ele>75.9</ele>
        <time>2019-07-11T10:22:07Z</time>
      </trkpt>
      <trkpt lat="48.77482" lon="-3.555">
        <ele>75.4</ele>
        <time>2019-07-11T10:22:08Z</time>
      </trkpt>
      <trkpt lat="48.7748" lon="-3.55504">
        <ele>74.4</ele>
        <time>2019-07-11T10:22:09Z</time>
      </trkpt>
      <trkpt lat="48.77478" lon="-3.55509">
        <ele>73.9</ele>
        <time>2019-07-11T10:22:10Z</time>
      </trkpt>
      <trkpt lat="48.77477" lon="-3.55513">
        <ele>73.6</ele>
        <time>2019-07-11T10:22:11Z</time>
      </trkpt>
      <trkpt lat="48.77475" lon="-3.55518">
        <ele>73.3</ele>
        <time>2019-07-11T10:22:12Z</time>
      </trkpt>
      <trkpt lat="48.77474" lon="-3.55522">
        <ele>73.4</ele>
        <time>2019-07-11T10:22:13Z</time>
      </trkpt>
      <trkpt lat="48.77472" lon="-3.55526">
        <ele>73.5</ele>
        <time>2019-07-11T10:22:14Z</time>
      </trkpt>
      <trkpt lat="48.77471" lon="-3.5553">
        <ele>73.5</ele>
        <time>2019-07-11T10:22:15Z</time>
      </trkpt>
      <trkpt lat="48.77469" lon="-3.55534">
        <ele>73.4</ele>
        <time>2019-07-11T10:22:16Z</time>
      </trkpt>
      <trkpt lat="48.77468" lon="-3.55539">
        <ele>73.6</ele>
        <time>2019-07-11T10:22:17Z</time>
      </trkpt>
      <trkpt lat="48.77466" lon="-3.55543">
        <ele>73.4</ele>
        <time>2019-07-11T10:22:18Z</time>
      </trkpt>
      <trkpt lat="48.77465" lon="-3.55548">
        <ele>73.5</ele>
        <time>2019-07-11T10:22:19Z</time>
      </trkpt>
      <trkpt lat="48.77463" lon="-3.55553">
        <ele>73.8</ele>
        <time>2019-07-11T10:22:20Z</time>
      </trkpt>
      <trkpt lat="48.77462" lon="-3.55558">
        <ele>73.6</ele>
        <time>2019-07-11T10:22:21Z</time>
      </trkpt>
      <trkpt lat="48.77461" lon="-3.55564">
        <ele>73.8</ele>
        <time>2019-07-11T10:22:22Z</time>
      </trkpt>
      <trkpt lat="48.77461" lon="-3.5557">
        <ele>73.6</ele>
        <time>2019-07-11T10:22:23Z</time>
      </trkpt>
      <trkpt lat="48.77459" lon="-3.55575">
        <ele>73.5</ele>
        <time>2019-07-11T10:22:24Z</time>
      </trkpt>
      <trkpt lat="48.77459" lon="-3.55581">
        <ele>73.4</ele>
        <time>2019-07-11T10:22:25Z</time>
      </trkpt>
      <trkpt lat="48.77459" lon="-3.55587">
        <ele>73.1</ele>
        <time>2019-07-11T10:22:26Z</time>
      </trkpt>
      <trkpt lat="48.77458" lon="-3.55592">
        <ele>72.7</ele>
        <time>2019-07-11T10:22:27Z</time>
      </trkpt>
      <trkpt lat="48.77458" lon="-3.55598">
        <ele>72.5</ele>
        <time>2019-07-11T10:22:28Z</time>
      </trkpt>
      <trkpt lat="48.77458" lon="-3.55604">
        <ele>72</ele>
        <time>2019-07-11T10:22:29Z</time>
      </trkpt>
      <trkpt lat="48.77458" lon="-3.55609">
        <ele>71.5</ele>
        <time>2019-07-11T10:22:30Z</time>
      </trkpt>
      <trkpt lat="48.77457" lon="-3.55615">
        <ele>70.7</ele>
        <time>2019-07-11T10:22:31Z</time>
      </trkpt>
      <trkpt lat="48.77457" lon="-3.55621">
        <ele>70</ele>
        <time>2019-07-11T10:22:32Z</time>
      </trkpt>
      <trkpt lat="48.77456" lon="-3.55627">
        <ele>69.7</ele>
        <time>2019-07-11T10:22:33Z</time>
      </trkpt>
      <trkpt lat="48.77455" lon="-3.55633">
        <ele>69.4</ele>
        <time>2019-07-11T10:22:34Z</time>
      </trkpt>
      <trkpt lat="48.77454" lon="-3.5564">
        <ele>69.1</ele>
        <time>2019-07-11T10:22:35Z</time>
      </trkpt>
      <trkpt lat="48.77454" lon="-3.55646">
        <ele>68.9</ele>
        <time>2019-07-11T10:22:36Z</time>
      </trkpt>
      <trkpt lat="48.77453" lon="-3.55652">
        <ele>68.4</ele>
        <time>2019-07-11T10:22:37Z</time>
      </trkpt>
      <trkpt lat="48.77453" lon="-3.55658">
        <ele>67.9</ele>
        <time>2019-07-11T10:22:38Z</time>
      </trkpt>
      <trkpt lat="48.77452" lon="-3.55664">
        <ele>67.6</ele>
        <time>2019-07-11T10:22:39Z</time>
      </trkpt>
      <trkpt lat="48.77451" lon="-3.5567">
        <ele>67.6</ele>
        <time>2019-07-11T10:22:40Z</time>
      </trkpt>
      <trkpt lat="48.7745" lon="-3.55675">
        <ele>67.4</ele>
        <time>2019-07-11T10:22:41Z</time>
      </trkpt>
      <trkpt lat="48.77449" lon="-3.5568">
        <ele>67.1</ele>
        <time>2019-07-11T10:22:42Z</time>
      </trkpt>
      <trkpt lat="48.77447" lon="-3.55685">
        <ele>66.8</ele>
        <time>2019-07-11T10:22:43Z</time>
      </trkpt>
      <trkpt lat="48.77445" lon="-3.55689">
        <ele>66.8</ele>
        <time>2019-07-11T10:22:44Z</time>
      </trkpt>
      <trkpt lat="48.77444" lon="-3.55695">
        <ele>66.8</ele>
        <time>2019-07-11T10:22:45Z</time>
      </trkpt>
      <trkpt lat="48.77442" lon="-3.55701">
        <ele>66.6</ele>
        <time>2019-07-11T10:22:46Z</time>
      </trkpt>
      <trkpt lat="48.7744" lon="-3.55707">
        <ele>66.2</ele>
        <time>2019-07-11T10:22:47Z</time>
      </trkpt>
      <trkpt lat="48.77437" lon="-3.55713">
        <ele>65.9</ele>
        <time>2019-07-11T10:22:48Z</time>
      </trkpt>
      <trkpt lat="48.77434" lon="-3.5572">
        <ele>65.6</ele>
        <time>2019-07-11T10:22:49Z</time>
      </trkpt>
      <trkpt lat="48.77431" lon="-3.55725">
        <ele>65.3</ele>
        <time>2019-07-11T10:22:50Z</time>
      </trkpt>
      <trkpt lat="48.77428" lon="-3.55731">
        <ele>65.2</ele>
        <time>2019-07-11T10:22:51Z</time>
      </trkpt>
      <trkpt lat="48.77424" lon="-3.55736">
        <ele>65.1</ele>
        <time>2019-07-11T10:22:52Z</time>
      </trkpt>
      <trkpt lat="48.77421" lon="-3.5574">
        <ele>64.9</ele>
        <time>2019-07-11T10:22:53Z</time>
      </trkpt>
      <trkpt lat="48.77419" lon="-3.55743">
        <ele>64.9</ele>
        <time>2019-07-11T10:22:54Z</time>
      </trkpt>
      <trkpt lat="48.77417" lon="-3.55746">
        <ele>65.3</ele>
        <time>2019-07-11T10:22:55Z</time>
      </trkpt>
      <trkpt lat="48.77415" lon="-3.55749">
        <ele>65.7</ele>
        <time>2019-07-11T10:22:56Z</time>
      </trkpt>
      <trkpt lat="48.77413" lon="-3.55753">
        <ele>65.8</ele>
        <time>2019-07-11T10:22:57Z</time>
      </trkpt>
      <trkpt lat="48.77411" lon="-3.55757">
        <ele>65.8</ele>
        <time>2019-07-11T10:22:58Z</time>
      </trkpt>
      <trkpt lat="48.77409" lon="-3.5576">
        <ele>65.9</ele>
        <time>2019-07-11T10:22:59Z</time>
      </trkpt>
      <trkpt lat="48.77406" lon="-3.55762">
        <ele>66.5</ele>
        <time>2019-07-11T10:23:00Z</time>
      </trkpt>
      <trkpt lat="48.77404" lon="-3.55764">
        <ele>66.8</ele>
        <time>2019-07-11T10:23:01Z</time>
      </trkpt>
      <trkpt lat="48.77402" lon="-3.55767">
        <ele>66.9</ele>
        <time>2019-07-11T10:23:02Z</time>
      </trkpt>
      <trkpt lat="48.77399" lon="-3.55769">
        <ele>67</ele>
        <time>2019-07-11T10:23:03Z</time>
      </trkpt>
      <trkpt lat="48.77397" lon="-3.55773">
        <ele>67</ele>
        <time>2019-07-11T10:23:04Z</time>
      </trkpt>
      <trkpt lat="48.77395" lon="-3.55775">
        <ele>66.9</ele>
        <time>2019-07-11T10:23:05Z</time>
      </trkpt>
      <trkpt lat="48.77393" lon="-3.55777">
        <ele>66.7</ele>
        <time>2019-07-11T10:23:06Z</time>
      </trkpt>
      <trkpt lat="48.77393" lon="-3.55778">
        <ele>66.5</ele>
        <time>2019-07-11T10:23:07Z</time>
      </trkpt>
      <trkpt lat="48.77392" lon="-3.55781">
        <ele>65.3</ele>
        <time>2019-07-11T10:23:10Z</time>
      </trkpt>
      <trkpt lat="48.77391" lon="-3.55782">
        <ele>64.9</ele>
        <time>2019-07-11T10:23:11Z</time>
      </trkpt>
      <trkpt lat="48.7739" lon="-3.55784">
        <ele>64.4</ele>
        <time>2019-07-11T10:23:12Z</time>
      </trkpt>
      <trkpt lat="48.77388" lon="-3.55786">
        <ele>63.9</ele>
        <time>2019-07-11T10:23:13Z</time>
      </trkpt>
      <trkpt lat="48.77387" lon="-3.55789">
        <ele>63.2</ele>
        <time>2019-07-11T10:23:14Z</time>
      </trkpt>
      <trkpt lat="48.77386" lon="-3.55791">
        <ele>62.6</ele>
        <time>2019-07-11T10:23:15Z</time>
      </trkpt>
      <trkpt lat="48.77385" lon="-3.55794">
        <ele>62.4</ele>
        <time>2019-07-11T10:23:16Z</time>
      </trkpt>
      <trkpt lat="48.77384" lon="-3.55798">
        <ele>62.1</ele>
        <time>2019-07-11T10:23:17Z</time>
      </trkpt>
      <trkpt lat="48.77383" lon="-3.55801">
        <ele>61.8</ele>
        <time>2019-07-11T10:23:18Z</time>
      </trkpt>
      <trkpt lat="48.77382" lon="-3.55805">
        <ele>61.7</ele>
        <time>2019-07-11T10:23:19Z</time>
      </trkpt>
      <trkpt lat="48.77381" lon="-3.55808">
        <ele>61.7</ele>
        <time>2019-07-11T10:23:20Z</time>
      </trkpt>
      <trkpt lat="48.7738" lon="-3.55813">
        <ele>61.4</ele>
        <time>2019-07-11T10:23:21Z</time>
      </trkpt>
      <trkpt lat="48.77379" lon="-3.55816">
        <ele>61.2</ele>
        <time>2019-07-11T10:23:22Z</time>
      </trkpt>
      <trkpt lat="48.77377" lon="-3.55819">
        <ele>60.8</ele>
        <time>2019-07-11T10:23:23Z</time>
      </trkpt>
      <trkpt lat="48.77376" lon="-3.55823">
        <ele>60.6</ele>
        <time>2019-07-11T10:23:24Z</time>
      </trkpt>
      <trkpt lat="48.77376" lon="-3.55826">
        <ele>60.4</ele>
        <time>2019-07-11T10:23:25Z</time>
      </trkpt>
      <trkpt lat="48.77376" lon="-3.55829">
        <ele>60.2</ele>
        <time>2019-07-11T10:23:26Z</time>
      </trkpt>
      <trkpt lat="48.77376" lon="-3.55833">
        <ele>60.1</ele>
        <time>2019-07-11T10:23:27Z</time>
      </trkpt>
      <trkpt lat="48.77376" lon="-3.55837">
        <ele>59.9</ele>
        <time>2019-07-11T10:23:28Z</time>
      </trkpt>
      <trkpt lat="48.77377" lon="-3.55841">
        <ele>59.8</ele>
        <time>2019-07-11T10:23:29Z</time>
      </trkpt>
      <trkpt lat="48.77377" lon="-3.55845">
        <ele>59.7</ele>
        <time>2019-07-11T10:23:30Z</time>
      </trkpt>
      <trkpt lat="48.77379" lon="-3.5585">
        <ele>59.6</ele>
        <time>2019-07-11T10:23:31Z</time>
      </trkpt>
      <trkpt lat="48.7738" lon="-3.55855">
        <ele>59.4</ele>
        <time>2019-07-11T10:23:32Z</time>
      </trkpt>
      <trkpt lat="48.77381" lon="-3.55861">
        <ele>59.2</ele>
        <time>2019-07-11T10:23:33Z</time>
      </trkpt>
      <trkpt lat="48.77382" lon="-3.55867">
        <ele>59</ele>
        <time>2019-07-11T10:23:34Z</time>
      </trkpt>
      <trkpt lat="48.77384" lon="-3.55873">
        <ele>58.7</ele>
        <time>2019-07-11T10:23:35Z</time>
      </trkpt>
      <trkpt lat="48.77385" lon="-3.55879">
        <ele>58.5</ele>
        <time>2019-07-11T10:23:36Z</time>
      </trkpt>
      <trkpt lat="48.77388" lon="-3.55884">
        <ele>58.6</ele>
        <time>2019-07-11T10:23:37Z</time>
      </trkpt>
      <trkpt lat="48.7739" lon="-3.55888">
        <ele>58.5</ele>
        <time>2019-07-11T10:23:38Z</time>
      </trkpt>
      <trkpt lat="48.77393" lon="-3.55891">
        <ele>58.8</ele>
        <time>2019-07-11T10:23:39Z</time>
      </trkpt>
      <trkpt lat="48.77395" lon="-3.55894">
        <ele>58.8</ele>
        <time>2019-07-11T10:23:40Z</time>
      </trkpt>
      <trkpt lat="48.77397" lon="-3.55895">
        <ele>58.7</ele>
        <time>2019-07-11T10:23:41Z</time>
      </trkpt>
      <trkpt lat="48.77398" lon="-3.55896">
        <ele>58.4</ele>
        <time>2019-07-11T10:23:42Z</time>
      </trkpt>
      <trkpt lat="48.77399" lon="-3.55898">
        <ele>58.1</ele>
        <time>2019-07-11T10:23:43Z</time>
      </trkpt>
      <trkpt lat="48.774" lon="-3.559">
        <ele>58.3</ele>
        <time>2019-07-11T10:23:44Z</time>
      </trkpt>
      <trkpt lat="48.77401" lon="-3.55901">
        <ele>58.5</ele>
        <time>2019-07-11T10:23:45Z</time>
      </trkpt>
      <trkpt lat="48.77402" lon="-3.55904">
        <ele>58.7</ele>
        <time>2019-07-11T10:23:46Z</time>
      </trkpt>
      <trkpt lat="48.77403" lon="-3.55906">
        <ele>58.9</ele>
        <time>2019-07-11T10:23:47Z</time>
      </trkpt>
      <trkpt lat="48.77404" lon="-3.55908">
        <ele>59.1</ele>
        <time>2019-07-11T10:23:48Z</time>
      </trkpt>
      <trkpt lat="48.77406" lon="-3.55913">
        <ele>60.3</ele>
        <time>2019-07-11T10:23:51Z</time>
      </trkpt>
      <trkpt lat="48.77408" lon="-3.55916">
        <ele>61.1</ele>
        <time>2019-07-11T10:23:52Z</time>
      </trkpt>
      <trkpt lat="48.7741" lon="-3.55918">
        <ele>61.6</ele>
        <time>2019-07-11T10:23:53Z</time>
      </trkpt>
      <trkpt lat="48.77413" lon="-3.55922">
        <ele>62</ele>
        <time>2019-07-11T10:23:54Z</time>
      </trkpt>
      <trkpt lat="48.77414" lon="-3.55924">
        <ele>62.3</ele>
        <time>2019-07-11T10:23:55Z</time>
      </trkpt>
      <trkpt lat="48.77416" lon="-3.55927">
        <ele>62.6</ele>
        <time>2019-07-11T10:23:56Z</time>
      </trkpt>
      <trkpt lat="48.77417" lon="-3.55929">
        <ele>62.9</ele>
        <time>2019-07-11T10:23:57Z</time>
      </trkpt>
      <trkpt lat="48.77418" lon="-3.55933">
        <ele>63.4</ele>
        <time>2019-07-11T10:23:58Z</time>
      </trkpt>
      <trkpt lat="48.77419" lon="-3.55936">
        <ele>63.8</ele>
        <time>2019-07-11T10:23:59Z</time>
      </trkpt>
      <trkpt lat="48.77421" lon="-3.55939">
        <ele>64.3</ele>
        <time>2019-07-11T10:24:00Z</time>
      </trkpt>
      <trkpt lat="48.77422" lon="-3.55943">
        <ele>64.6</ele>
        <time>2019-07-11T10:24:01Z</time>
      </trkpt>
      <trkpt lat="48.77422" lon="-3.55946">
        <ele>65</ele>
        <time>2019-07-11T10:24:02Z</time>
      </trkpt>
      <trkpt lat="48.77423" lon="-3.55949">
        <ele>65.4</ele>
        <time>2019-07-11T10:24:03Z</time>
      </trkpt>
      <trkpt lat="48.77424" lon="-3.55952">
        <ele>65.9</ele>
        <time>2019-07-11T10:24:04Z</time>
      </trkpt>
      <trkpt lat="48.77424" lon="-3.55954">
        <ele>66.4</ele>
        <time>2019-07-11T10:24:05Z</time>
      </trkpt>
      <trkpt lat="48.77425" lon="-3.55956">
        <ele>66.9</ele>
        <time>2019-07-11T10:24:06Z</time>
      </trkpt>
      <trkpt lat="48.77425" lon="-3.55959">
        <ele>67.4</ele>
        <time>2019-07-11T10:24:07Z</time>
      </trkpt>
      <trkpt lat="48.77426" lon="-3.55961">
        <ele>68</ele>
        <time>2019-07-11T10:24:08Z</time>
      </trkpt>
      <trkpt lat="48.77427" lon="-3.55964">
        <ele>68.5</ele>
        <time>2019-07-11T10:24:09Z</time>
      </trkpt>
      <trkpt lat="48.77429" lon="-3.55968">
        <ele>69.1</ele>
        <time>2019-07-11T10:24:10Z</time>
      </trkpt>
      <trkpt lat="48.7743" lon="-3.55971">
        <ele>69.7</ele>
        <time>2019-07-11T10:24:11Z</time>
      </trkpt>
      <trkpt lat="48.77433" lon="-3.55975">
        <ele>70.1</ele>
        <time>2019-07-11T10:24:12Z</time>
      </trkpt>
      <trkpt lat="48.77435" lon="-3.55979">
        <ele>70.5</ele>
        <time>2019-07-11T10:24:13Z</time>
      </trkpt>
      <trkpt lat="48.77438" lon="-3.55984">
        <ele>70.9</ele>
        <time>2019-07-11T10:24:14Z</time>
      </trkpt>
      <trkpt lat="48.77441" lon="-3.55989">
        <ele>71.3</ele>
        <time>2019-07-11T10:24:15Z</time>
      </trkpt>
      <trkpt lat="48.77445" lon="-3.55994">
        <ele>71.2</ele>
        <time>2019-07-11T10:24:16Z</time>
      </trkpt>
      <trkpt lat="48.77448" lon="-3.55998">
        <ele>71.4</ele>
        <time>2019-07-11T10:24:17Z</time>
      </trkpt>
      <trkpt lat="48.77451" lon="-3.56001">
        <ele>71.9</ele>
        <time>2019-07-11T10:24:18Z</time>
      </trkpt>
      <trkpt lat="48.77455" lon="-3.56006">
        <ele>72.1</ele>
        <time>2019-07-11T10:24:19Z</time>
      </trkpt>
      <trkpt lat="48.77458" lon="-3.5601">
        <ele>72.2</ele>
        <time>2019-07-11T10:24:20Z</time>
      </trkpt>
      <trkpt lat="48.77462" lon="-3.56013">
        <ele>72.3</ele>
        <time>2019-07-11T10:24:21Z</time>
      </trkpt>
      <trkpt lat="48.77465" lon="-3.56016">
        <ele>72.4</ele>
        <time>2019-07-11T10:24:22Z</time>
      </trkpt>
      <trkpt lat="48.77469" lon="-3.56021">
        <ele>72.4</ele>
        <time>2019-07-11T10:24:23Z</time>
      </trkpt>
      <trkpt lat="48.77472" lon="-3.56024">
        <ele>72.6</ele>
        <time>2019-07-11T10:24:24Z</time>
      </trkpt>
      <trkpt lat="48.77475" lon="-3.56027">
        <ele>72.2</ele>
        <time>2019-07-11T10:24:25Z</time>
      </trkpt>
      <trkpt lat="48.77478" lon="-3.56031">
        <ele>72.1</ele>
        <time>2019-07-11T10:24:26Z</time>
      </trkpt>
      <trkpt lat="48.77481" lon="-3.56035">
        <ele>72</ele>
        <time>2019-07-11T10:24:27Z</time>
      </trkpt>
      <trkpt lat="48.77483" lon="-3.5604">
        <ele>71.4</ele>
        <time>2019-07-11T10:24:28Z</time>
      </trkpt>
      <trkpt lat="48.77485" lon="-3.56045">
        <ele>70.6</ele>
        <time>2019-07-11T10:24:29Z</time>
      </trkpt>
      <trkpt lat="48.77487" lon="-3.56049">
        <ele>69.7</ele>
        <time>2019-07-11T10:24:30Z</time>
      </trkpt>
      <trkpt lat="48.77489" lon="-3.56054">
        <ele>68.8</ele>
        <time>2019-07-11T10:24:31Z</time>
      </trkpt>
      <trkpt lat="48.77492" lon="-3.56058">
        <ele>68</ele>
        <time>2019-07-11T10:24:32Z</time>
      </trkpt>
      <trkpt lat="48.77494" lon="-3.56062">
        <ele>66.7</ele>
        <time>2019-07-11T10:24:33Z</time>
      </trkpt>
      <trkpt lat="48.77496" lon="-3.56066">
        <ele>66</ele>
        <time>2019-07-11T10:24:34Z</time>
      </trkpt>
      <trkpt lat="48.77499" lon="-3.56071">
        <ele>65.1</ele>
        <time>2019-07-11T10:24:35Z</time>
      </trkpt>
      <trkpt lat="48.77502" lon="-3.56075">
        <ele>64.6</ele>
        <time>2019-07-11T10:24:36Z</time>
      </trkpt>
      <trkpt lat="48.77504" lon="-3.56081">
        <ele>64</ele>
        <time>2019-07-11T10:24:37Z</time>
      </trkpt>
      <trkpt lat="48.77506" lon="-3.56087">
        <ele>63.3</ele>
        <time>2019-07-11T10:24:38Z</time>
      </trkpt>
      <trkpt lat="48.77507" lon="-3.56096">
        <ele>62.7</ele>
        <time>2019-07-11T10:24:39Z</time>
      </trkpt>
      <trkpt lat="48.77509" lon="-3.56104">
        <ele>62</ele>
        <time>2019-07-11T10:24:40Z</time>
      </trkpt>
      <trkpt lat="48.7751" lon="-3.56112">
        <ele>61.2</ele>
        <time>2019-07-11T10:24:41Z</time>
      </trkpt>
      <trkpt lat="48.77511" lon="-3.5612">
        <ele>60.2</ele>
        <time>2019-07-11T10:24:42Z</time>
      </trkpt>
      <trkpt lat="48.77513" lon="-3.56125">
        <ele>59.5</ele>
        <time>2019-07-11T10:24:43Z</time>
      </trkpt>
      <trkpt lat="48.77514" lon="-3.5613">
        <ele>58.8</ele>
        <time>2019-07-11T10:24:44Z</time>
      </trkpt>
      <trkpt lat="48.77514" lon="-3.56135">
        <ele>58.3</ele>
        <time>2019-07-11T10:24:45Z</time>
      </trkpt>
      <trkpt lat="48.77515" lon="-3.5614">
        <ele>58.2</ele>
        <time>2019-07-11T10:24:46Z</time>
      </trkpt>
      <trkpt lat="48.77515" lon="-3.56145">
        <ele>58.1</ele>
        <time>2019-07-11T10:24:47Z</time>
      </trkpt>
      <trkpt lat="48.77515" lon="-3.5615">
        <ele>58</ele>
        <time>2019-07-11T10:24:48Z</time>
      </trkpt>
      <trkpt lat="48.77515" lon="-3.56156">
        <ele>57.9</ele>
        <time>2019-07-11T10:24:49Z</time>
      </trkpt>
      <trkpt lat="48.77516" lon="-3.56163">
        <ele>57.9</ele>
        <time>2019-07-11T10:24:50Z</time>
      </trkpt>
      <trkpt lat="48.77519" lon="-3.56171">
        <ele>57.4</ele>
        <time>2019-07-11T10:24:51Z</time>
      </trkpt>
      <trkpt lat="48.7752" lon="-3.56179">
        <ele>57.3</ele>
        <time>2019-07-11T10:24:52Z</time>
      </trkpt>
      <trkpt lat="48.77522" lon="-3.56186">
        <ele>57.3</ele>
        <time>2019-07-11T10:24:53Z</time>
      </trkpt>
      <trkpt lat="48.77523" lon="-3.56192">
        <ele>57.3</ele>
        <time>2019-07-11T10:24:54Z</time>
      </trkpt>
      <trkpt lat="48.77523" lon="-3.56196">
        <ele>57.5</ele>
        <time>2019-07-11T10:24:55Z</time>
      </trkpt>
      <trkpt lat="48.77524" lon="-3.56197">
        <ele>58.5</ele>
        <time>2019-07-11T10:24:56Z</time>
      </trkpt>
      <trkpt lat="48.77525" lon="-3.562">
        <ele>59</ele>
        <time>2019-07-11T10:24:57Z</time>
      </trkpt>
      <trkpt lat="48.77527" lon="-3.56203">
        <ele>59.5</ele>
        <time>2019-07-11T10:24:58Z</time>
      </trkpt>
      <trkpt lat="48.7753" lon="-3.56205">
        <ele>59.5</ele>
        <time>2019-07-11T10:24:59Z</time>
      </trkpt>
      <trkpt lat="48.77531" lon="-3.56207">
        <ele>59.8</ele>
        <time>2019-07-11T10:25:00Z</time>
      </trkpt>
      <trkpt lat="48.77533" lon="-3.56211">
        <ele>59.9</ele>
        <time>2019-07-11T10:25:01Z</time>
      </trkpt>
      <trkpt lat="48.77535" lon="-3.56215">
        <ele>60.3</ele>
        <time>2019-07-11T10:25:02Z</time>
      </trkpt>
      <trkpt lat="48.77536" lon="-3.56218">
        <ele>60.7</ele>
        <time>2019-07-11T10:25:03Z</time>
      </trkpt>
      <trkpt lat="48.77537" lon="-3.56221">
        <ele>61.1</ele>
        <time>2019-07-11T10:25:04Z</time>
      </trkpt>
      <trkpt lat="48.77538" lon="-3.56224">
        <ele>61.3</ele>
        <time>2019-07-11T10:25:05Z</time>
      </trkpt>
      <trkpt lat="48.77539" lon="-3.56227">
        <ele>61.6</ele>
        <time>2019-07-11T10:25:06Z</time>
      </trkpt>
      <trkpt lat="48.77539" lon="-3.5623">
        <ele>62</ele>
        <time>2019-07-11T10:25:07Z</time>
      </trkpt>
      <trkpt lat="48.7754" lon="-3.56233">
        <ele>62.4</ele>
        <time>2019-07-11T10:25:08Z</time>
      </trkpt>
      <trkpt lat="48.77541" lon="-3.56237">
        <ele>62.6</ele>
        <time>2019-07-11T10:25:09Z</time>
      </trkpt>
      <trkpt lat="48.77543" lon="-3.5624">
        <ele>62.7</ele>
        <time>2019-07-11T10:25:10Z</time>
      </trkpt>
      <trkpt lat="48.77543" lon="-3.56243">
        <ele>61.5</ele>
        <time>2019-07-11T10:25:11Z</time>
      </trkpt>
      <trkpt lat="48.77543" lon="-3.56246">
        <ele>60.9</ele>
        <time>2019-07-11T10:25:12Z</time>
      </trkpt>
      <trkpt lat="48.77543" lon="-3.56249">
        <ele>60.8</ele>
        <time>2019-07-11T10:25:13Z</time>
      </trkpt>
      <trkpt lat="48.77542" lon="-3.56252">
        <ele>60.7</ele>
        <time>2019-07-11T10:25:14Z</time>
      </trkpt>
      <trkpt lat="48.77541" lon="-3.56255">
        <ele>60.6</ele>
        <time>2019-07-11T10:25:15Z</time>
      </trkpt>
      <trkpt lat="48.77541" lon="-3.56258">
        <ele>60.6</ele>
        <time>2019-07-11T10:25:16Z</time>
      </trkpt>
      <trkpt lat="48.77541" lon="-3.56261">
        <ele>60.6</ele>
        <time>2019-07-11T10:25:17Z</time>
      </trkpt>
      <trkpt lat="48.77541" lon="-3.56264">
        <ele>60.9</ele>
        <time>2019-07-11T10:25:18Z</time>
      </trkpt>
      <trkpt lat="48.77541" lon="-3.56267">
        <ele>61.2</ele>
        <time>2019-07-11T10:25:19Z</time>
      </trkpt>
      <trkpt lat="48.77541" lon="-3.5627">
        <ele>61.6</ele>
        <time>2019-07-11T10:25:20Z</time>
      </trkpt>
      <trkpt lat="48.77541" lon="-3.56273">
        <ele>61.5</ele>
        <time>2019-07-11T10:25:21Z</time>
      </trkpt>
      <trkpt lat="48.77541" lon="-3.56277">
        <ele>61.5</ele>
        <time>2019-07-11T10:25:22Z</time>
      </trkpt>
      <trkpt lat="48.77541" lon="-3.56279">
        <ele>61.5</ele>
        <time>2019-07-11T10:25:23Z</time>
      </trkpt>
      <trkpt lat="48.7754" lon="-3.56282">
        <ele>61.4</ele>
        <time>2019-07-11T10:25:24Z</time>
      </trkpt>
      <trkpt lat="48.77539" lon="-3.56284">
        <ele>61.2</ele>
        <time>2019-07-11T10:25:25Z</time>
      </trkpt>
      <trkpt lat="48.77538" lon="-3.56287">
        <ele>60.7</ele>
        <time>2019-07-11T10:25:26Z</time>
      </trkpt>
      <trkpt lat="48.77537" lon="-3.5629">
        <ele>60.6</ele>
        <time>2019-07-11T10:25:27Z</time>
      </trkpt>
      <trkpt lat="48.77538" lon="-3.56293">
        <ele>60.7</ele>
        <time>2019-07-11T10:25:28Z</time>
      </trkpt>
      <trkpt lat="48.77538" lon="-3.56296">
        <ele>60.7</ele>
        <time>2019-07-11T10:25:29Z</time>
      </trkpt>
      <trkpt lat="48.77538" lon="-3.56299">
        <ele>60.6</ele>
        <time>2019-07-11T10:25:30Z</time>
      </trkpt>
      <trkpt lat="48.77538" lon="-3.56301">
        <ele>60.6</ele>
        <time>2019-07-11T10:25:31Z</time>
      </trkpt>
      <trkpt lat="48.77537" lon="-3.56304">
        <ele>60.5</ele>
        <time>2019-07-11T10:25:32Z</time>
      </trkpt>
      <trkpt lat="48.77536" lon="-3.56307">
        <ele>60.4</ele>
        <time>2019-07-11T10:25:33Z</time>
      </trkpt>
      <trkpt lat="48.77536" lon="-3.5631">
        <ele>60.4</ele>
        <time>2019-07-11T10:25:34Z</time>
      </trkpt>
      <trkpt lat="48.77535" lon="-3.56315">
        <ele>60.2</ele>
        <time>2019-07-11T10:25:35Z</time>
      </trkpt>
      <trkpt lat="48.77534" lon="-3.56319">
        <ele>60.3</ele>
        <time>2019-07-11T10:25:36Z</time>
      </trkpt>
      <trkpt lat="48.77533" lon="-3.56324">
        <ele>60.4</ele>
        <time>2019-07-11T10:25:37Z</time>
      </trkpt>
      <trkpt lat="48.77531" lon="-3.56329">
        <ele>60.2</ele>
        <time>2019-07-11T10:25:38Z</time>
      </trkpt>
      <trkpt lat="48.7753" lon="-3.56334">
        <ele>60</ele>
        <time>2019-07-11T10:25:39Z</time>
      </trkpt>
      <trkpt lat="48.77529" lon="-3.5634">
        <ele>60</ele>
        <time>2019-07-11T10:25:40Z</time>
      </trkpt>
      <trkpt lat="48.77528" lon="-3.56345">
        <ele>60</ele>
        <time>2019-07-11T10:25:41Z</time>
      </trkpt>
      <trkpt lat="48.77527" lon="-3.56351">
        <ele>59.7</ele>
        <time>2019-07-11T10:25:42Z</time>
      </trkpt>
      <trkpt lat="48.77525" lon="-3.56357">
        <ele>59.4</ele>
        <time>2019-07-11T10:25:43Z</time>
      </trkpt>
      <trkpt lat="48.77523" lon="-3.56364">
        <ele>59</ele>
        <time>2019-07-11T10:25:44Z</time>
      </trkpt>
      <trkpt lat="48.77522" lon="-3.5637">
        <ele>58.5</ele>
        <time>2019-07-11T10:25:45Z</time>
      </trkpt>
      <trkpt lat="48.7752" lon="-3.56375">
        <ele>58.1</ele>
        <time>2019-07-11T10:25:46Z</time>
      </trkpt>
      <trkpt lat="48.77519" lon="-3.56381">
        <ele>57.7</ele>
        <time>2019-07-11T10:25:47Z</time>
      </trkpt>
      <trkpt lat="48.77518" lon="-3.56388">
        <ele>57.3</ele>
        <time>2019-07-11T10:25:48Z</time>
      </trkpt>
      <trkpt lat="48.77517" lon="-3.56395">
        <ele>56.9</ele>
        <time>2019-07-11T10:25:49Z</time>
      </trkpt>
      <trkpt lat="48.77515" lon="-3.56402">
        <ele>56.5</ele>
        <time>2019-07-11T10:25:50Z</time>
      </trkpt>
      <trkpt lat="48.77514" lon="-3.56409">
        <ele>56.2</ele>
        <time>2019-07-11T10:25:51Z</time>
      </trkpt>
      <trkpt lat="48.77512" lon="-3.56416">
        <ele>55.7</ele>
        <time>2019-07-11T10:25:52Z</time>
      </trkpt>
      <trkpt lat="48.77509" lon="-3.56423">
        <ele>55.1</ele>
        <time>2019-07-11T10:25:53Z</time>
      </trkpt>
      <trkpt lat="48.77507" lon="-3.56429">
        <ele>54.6</ele>
        <time>2019-07-11T10:25:54Z</time>
      </trkpt>
      <trkpt lat="48.77507" lon="-3.56436">
        <ele>54.2</ele>
        <time>2019-07-11T10:25:55Z</time>
      </trkpt>
      <trkpt lat="48.77506" lon="-3.56442">
        <ele>53.6</ele>
        <time>2019-07-11T10:25:56Z</time>
      </trkpt>
      <trkpt lat="48.77507" lon="-3.56449">
        <ele>52.6</ele>
        <time>2019-07-11T10:25:57Z</time>
      </trkpt>
      <trkpt lat="48.77509" lon="-3.56456">
        <ele>52</ele>
        <time>2019-07-11T10:25:58Z</time>
      </trkpt>
      <trkpt lat="48.77513" lon="-3.56464">
        <ele>50.9</ele>
        <time>2019-07-11T10:25:59Z</time>
      </trkpt>
      <trkpt lat="48.77516" lon="-3.56471">
        <ele>50.9</ele>
        <time>2019-07-11T10:26:00Z</time>
      </trkpt>
      <trkpt lat="48.7752" lon="-3.56476">
        <ele>51</ele>
        <time>2019-07-11T10:26:01Z</time>
      </trkpt>
      <trkpt lat="48.77525" lon="-3.56481">
        <ele>51</ele>
        <time>2019-07-11T10:26:02Z</time>
      </trkpt>
      <trkpt lat="48.7753" lon="-3.56484">
        <ele>50.5</ele>
        <time>2019-07-11T10:26:03Z</time>
      </trkpt>
      <trkpt lat="48.77536" lon="-3.56486">
        <ele>50.2</ele>
        <time>2019-07-11T10:26:04Z</time>
      </trkpt>
      <trkpt lat="48.77541" lon="-3.56489">
        <ele>49.6</ele>
        <time>2019-07-11T10:26:05Z</time>
      </trkpt>
      <trkpt lat="48.77545" lon="-3.56492">
        <ele>49.3</ele>
        <time>2019-07-11T10:26:06Z</time>
      </trkpt>
      <trkpt lat="48.77549" lon="-3.56494">
        <ele>49.2</ele>
        <time>2019-07-11T10:26:07Z</time>
      </trkpt>
      <trkpt lat="48.77553" lon="-3.56497">
        <ele>49</ele>
        <time>2019-07-11T10:26:08Z</time>
      </trkpt>
      <trkpt lat="48.77557" lon="-3.56501">
        <ele>49</ele>
        <time>2019-07-11T10:26:09Z</time>
      </trkpt>
      <trkpt lat="48.77561" lon="-3.56505">
        <ele>48.6</ele>
        <time>2019-07-11T10:26:10Z</time>
      </trkpt>
      <trkpt lat="48.77565" lon="-3.56509">
        <ele>48.5</ele>
        <time>2019-07-11T10:26:11Z</time>
      </trkpt>
      <trkpt lat="48.77568" lon="-3.56513">
        <ele>48.2</ele>
        <time>2019-07-11T10:26:12Z</time>
      </trkpt>
      <trkpt lat="48.77572" lon="-3.56517">
        <ele>48</ele>
        <time>2019-07-11T10:26:13Z</time>
      </trkpt>
      <trkpt lat="48.77575" lon="-3.56521">
        <ele>47.7</ele>
        <time>2019-07-11T10:26:14Z</time>
      </trkpt>
      <trkpt lat="48.77578" lon="-3.56525">
        <ele>47.2</ele>
        <time>2019-07-11T10:26:15Z</time>
      </trkpt>
      <trkpt lat="48.77581" lon="-3.56529">
        <ele>46.9</ele>
        <time>2019-07-11T10:26:16Z</time>
      </trkpt>
      <trkpt lat="48.77584" lon="-3.56532">
        <ele>46.8</ele>
        <time>2019-07-11T10:26:17Z</time>
      </trkpt>
      <trkpt lat="48.77587" lon="-3.56536">
        <ele>46.5</ele>
        <time>2019-07-11T10:26:18Z</time>
      </trkpt>
      <trkpt lat="48.7759" lon="-3.56541">
        <ele>46.3</ele>
        <time>2019-07-11T10:26:19Z</time>
      </trkpt>
      <trkpt lat="48.77593" lon="-3.56545">
        <ele>46.1</ele>
        <time>2019-07-11T10:26:20Z</time>
      </trkpt>
      <trkpt lat="48.77595" lon="-3.56549">
        <ele>46.1</ele>
        <time>2019-07-11T10:26:21Z</time>
      </trkpt>
      <trkpt lat="48.77598" lon="-3.56553">
        <ele>46.1</ele>
        <time>2019-07-11T10:26:22Z</time>
      </trkpt>
      <trkpt lat="48.77601" lon="-3.56558">
        <ele>46.1</ele>
        <time>2019-07-11T10:26:23Z</time>
      </trkpt>
      <trkpt lat="48.77604" lon="-3.56563">
        <ele>46.3</ele>
        <time>2019-07-11T10:26:24Z</time>
      </trkpt>
      <trkpt lat="48.77607" lon="-3.56567">
        <ele>46.6</ele>
        <time>2019-07-11T10:26:25Z</time>
      </trkpt>
      <trkpt lat="48.77609" lon="-3.56571">
        <ele>46.6</ele>
        <time>2019-07-11T10:26:26Z</time>
      </trkpt>
      <trkpt lat="48.77612" lon="-3.56575">
        <ele>47.1</ele>
        <time>2019-07-11T10:26:27Z</time>
      </trkpt>
      <trkpt lat="48.77613" lon="-3.56579">
        <ele>47.3</ele>
        <time>2019-07-11T10:26:28Z</time>
      </trkpt>
      <trkpt lat="48.77614" lon="-3.56585">
        <ele>47.8</ele>
        <time>2019-07-11T10:26:29Z</time>
      </trkpt>
      <trkpt lat="48.77613" lon="-3.5659">
        <ele>48.6</ele>
        <time>2019-07-11T10:26:30Z</time>
      </trkpt>
      <trkpt lat="48.77613" lon="-3.56597">
        <ele>48.9</ele>
        <time>2019-07-11T10:26:31Z</time>
      </trkpt>
      <trkpt lat="48.77613" lon="-3.56604">
        <ele>49.1</ele>
        <time>2019-07-11T10:26:32Z</time>
      </trkpt>
      <trkpt lat="48.77612" lon="-3.56612">
        <ele>49</ele>
        <time>2019-07-11T10:26:33Z</time>
      </trkpt>
      <trkpt lat="48.77611" lon="-3.56621">
        <ele>48.9</ele>
        <time>2019-07-11T10:26:34Z</time>
      </trkpt>
      <trkpt lat="48.77611" lon="-3.56631">
        <ele>48.9</ele>
        <time>2019-07-11T10:26:35Z</time>
      </trkpt>
      <trkpt lat="48.77611" lon="-3.56641">
        <ele>49</ele>
        <time>2019-07-11T10:26:36Z</time>
      </trkpt>
      <trkpt lat="48.77612" lon="-3.56652">
        <ele>48.9</ele>
        <time>2019-07-11T10:26:37Z</time>
      </trkpt>
      <trkpt lat="48.77612" lon="-3.56662">
        <ele>48.9</ele>
        <time>2019-07-11T10:26:38Z</time>
      </trkpt>
      <trkpt lat="48.77612" lon="-3.56673">
        <ele>48.6</ele>
        <time>2019-07-11T10:26:39Z</time>
      </trkpt>
      <trkpt lat="48.77612" lon="-3.56684">
        <ele>48.7</ele>
        <time>2019-07-11T10:26:40Z</time>
      </trkpt>
      <trkpt lat="48.77611" lon="-3.56695">
        <ele>48.4</ele>
        <time>2019-07-11T10:26:41Z</time>
      </trkpt>
      <trkpt lat="48.77609" lon="-3.56706">
        <ele>48.2</ele>
        <time>2019-07-11T10:26:42Z</time>
      </trkpt>
      <trkpt lat="48.77607" lon="-3.56717">
        <ele>47.9</ele>
        <time>2019-07-11T10:26:43Z</time>
      </trkpt>
      <trkpt lat="48.77605" lon="-3.56728">
        <ele>47.6</ele>
        <time>2019-07-11T10:26:44Z</time>
      </trkpt>
      <trkpt lat="48.77602" lon="-3.56738">
        <ele>47.2</ele>
        <time>2019-07-11T10:26:45Z</time>
      </trkpt>
      <trkpt lat="48.77599" lon="-3.56748">
        <ele>46.9</ele>
        <time>2019-07-11T10:26:46Z</time>
      </trkpt>
      <trkpt lat="48.77597" lon="-3.56758">
        <ele>46.5</ele>
        <time>2019-07-11T10:26:47Z</time>
      </trkpt>
      <trkpt lat="48.77595" lon="-3.56768">
        <ele>46.1</ele>
        <time>2019-07-11T10:26:48Z</time>
      </trkpt>
      <trkpt lat="48.77593" lon="-3.56777">
        <ele>45.9</ele>
        <time>2019-07-11T10:26:49Z</time>
      </trkpt>
      <trkpt lat="48.77591" lon="-3.56785">
        <ele>46</ele>
        <time>2019-07-11T10:26:50Z</time>
      </trkpt>
      <trkpt lat="48.77589" lon="-3.56793">
        <ele>45.9</ele>
        <time>2019-07-11T10:26:51Z</time>
      </trkpt>
      <trkpt lat="48.77587" lon="-3.56801">
        <ele>45.6</ele>
        <time>2019-07-11T10:26:52Z</time>
      </trkpt>
      <trkpt lat="48.77585" lon="-3.56809">
        <ele>45.4</ele>
        <time>2019-07-11T10:26:53Z</time>
      </trkpt>
      <trkpt lat="48.77583" lon="-3.56818">
        <ele>45.3</ele>
        <time>2019-07-11T10:26:54Z</time>
      </trkpt>
      <trkpt lat="48.77581" lon="-3.56827">
        <ele>44.8</ele>
        <time>2019-07-11T10:26:55Z</time>
      </trkpt>
      <trkpt lat="48.77578" lon="-3.56837">
        <ele>44.5</ele>
        <time>2019-07-11T10:26:56Z</time>
      </trkpt>
      <trkpt lat="48.77576" lon="-3.56845">
        <ele>44.3</ele>
        <time>2019-07-11T10:26:57Z</time>
      </trkpt>
      <trkpt lat="48.77574" lon="-3.56854">
        <ele>44.2</ele>
        <time>2019-07-11T10:26:58Z</time>
      </trkpt>
      <trkpt lat="48.77572" lon="-3.56864">
        <ele>43.9</ele>
        <time>2019-07-11T10:26:59Z</time>
      </trkpt>
      <trkpt lat="48.7757" lon="-3.56873">
        <ele>43.7</ele>
        <time>2019-07-11T10:27:00Z</time>
      </trkpt>
      <trkpt lat="48.77567" lon="-3.56883">
        <ele>43.4</ele>
        <time>2019-07-11T10:27:01Z</time>
      </trkpt>
      <trkpt lat="48.77564" lon="-3.56893">
        <ele>43.4</ele>
        <time>2019-07-11T10:27:02Z</time>
      </trkpt>
      <trkpt lat="48.77559" lon="-3.56904">
        <ele>43.1</ele>
        <time>2019-07-11T10:27:03Z</time>
      </trkpt>
      <trkpt lat="48.77553" lon="-3.56914">
        <ele>42.6</ele>
        <time>2019-07-11T10:27:04Z</time>
      </trkpt>
      <trkpt lat="48.77547" lon="-3.56923">
        <ele>42</ele>
        <time>2019-07-11T10:27:05Z</time>
      </trkpt>
      <trkpt lat="48.77541" lon="-3.56932">
        <ele>41</ele>
        <time>2019-07-11T10:27:06Z</time>
      </trkpt>
      <trkpt lat="48.77536" lon="-3.56939">
        <ele>40.4</ele>
        <time>2019-07-11T10:27:07Z</time>
      </trkpt>
      <trkpt lat="48.77531" lon="-3.56945">
        <ele>39.8</ele>
        <time>2019-07-11T10:27:08Z</time>
      </trkpt>
      <trkpt lat="48.77526" lon="-3.56949">
        <ele>39.2</ele>
        <time>2019-07-11T10:27:09Z</time>
      </trkpt>
      <trkpt lat="48.77521" lon="-3.56952">
        <ele>39</ele>
        <time>2019-07-11T10:27:10Z</time>
      </trkpt>
      <trkpt lat="48.77516" lon="-3.56955">
        <ele>38.8</ele>
        <time>2019-07-11T10:27:11Z</time>
      </trkpt>
      <trkpt lat="48.77511" lon="-3.56957">
        <ele>38.6</ele>
        <time>2019-07-11T10:27:12Z</time>
      </trkpt>
      <trkpt lat="48.77505" lon="-3.56959">
        <ele>38.5</ele>
        <time>2019-07-11T10:27:13Z</time>
      </trkpt>
      <trkpt lat="48.77499" lon="-3.56961">
        <ele>38.3</ele>
        <time>2019-07-11T10:27:14Z</time>
      </trkpt>
      <trkpt lat="48.77494" lon="-3.56963">
        <ele>38.3</ele>
        <time>2019-07-11T10:27:15Z</time>
      </trkpt>
      <trkpt lat="48.77488" lon="-3.56966">
        <ele>38.1</ele>
        <time>2019-07-11T10:27:16Z</time>
      </trkpt>
      <trkpt lat="48.77482" lon="-3.56967">
        <ele>38.1</ele>
        <time>2019-07-11T10:27:17Z</time>
      </trkpt>
      <trkpt lat="48.77477" lon="-3.56969">
        <ele>38.2</ele>
        <time>2019-07-11T10:27:18Z</time>
      </trkpt>
      <trkpt lat="48.7747" lon="-3.56969">
        <ele>38.3</ele>
        <time>2019-07-11T10:27:19Z</time>
      </trkpt>
      <trkpt lat="48.77465" lon="-3.56971">
        <ele>38.4</ele>
        <time>2019-07-11T10:27:20Z</time>
      </trkpt>
      <trkpt lat="48.77459" lon="-3.56971">
        <ele>38.4</ele>
        <time>2019-07-11T10:27:21Z</time>
      </trkpt>
      <trkpt lat="48.77453" lon="-3.56971">
        <ele>38.5</ele>
        <time>2019-07-11T10:27:22Z</time>
      </trkpt>
      <trkpt lat="48.77449" lon="-3.56971">
        <ele>38.6</ele>
        <time>2019-07-11T10:27:23Z</time>
      </trkpt>
      <trkpt lat="48.77445" lon="-3.56972">
        <ele>38.6</ele>
        <time>2019-07-11T10:27:24Z</time>
      </trkpt>
      <trkpt lat="48.77441" lon="-3.56972">
        <ele>38.5</ele>
        <time>2019-07-11T10:27:25Z</time>
      </trkpt>
      <trkpt lat="48.77438" lon="-3.56972">
        <ele>38.4</ele>
        <time>2019-07-11T10:27:26Z</time>
      </trkpt>
      <trkpt lat="48.77435" lon="-3.56971">
        <ele>38.5</ele>
        <time>2019-07-11T10:27:27Z</time>
      </trkpt>
      <trkpt lat="48.77433" lon="-3.56972">
        <ele>38.5</ele>
        <time>2019-07-11T10:27:28Z</time>
      </trkpt>
      <trkpt lat="48.7743" lon="-3.56972">
        <ele>38.3</ele>
        <time>2019-07-11T10:27:29Z</time>
      </trkpt>
      <trkpt lat="48.77427" lon="-3.56972">
        <ele>38.2</ele>
        <time>2019-07-11T10:27:30Z</time>
      </trkpt>
      <trkpt lat="48.77425" lon="-3.56973">
        <ele>38.3</ele>
        <time>2019-07-11T10:27:31Z</time>
      </trkpt>
      <trkpt lat="48.77422" lon="-3.56974">
        <ele>38.5</ele>
        <time>2019-07-11T10:27:32Z</time>
      </trkpt>
      <trkpt lat="48.7742" lon="-3.56974">
        <ele>38.5</ele>
        <time>2019-07-11T10:27:33Z</time>
      </trkpt>
      <trkpt lat="48.77417" lon="-3.56974">
        <ele>38.4</ele>
        <time>2019-07-11T10:27:34Z</time>
      </trkpt>
      <trkpt lat="48.77413" lon="-3.56974">
        <ele>38.1</ele>
        <time>2019-07-11T10:27:35Z</time>
      </trkpt>
      <trkpt lat="48.7741" lon="-3.56976">
        <ele>37.9</ele>
        <time>2019-07-11T10:27:36Z</time>
      </trkpt>
      <trkpt lat="48.77407" lon="-3.56979">
        <ele>37.8</ele>
        <time>2019-07-11T10:27:37Z</time>
      </trkpt>
      <trkpt lat="48.77404" lon="-3.56982">
        <ele>37.5</ele>
        <time>2019-07-11T10:27:38Z</time>
      </trkpt>
      <trkpt lat="48.77402" lon="-3.56988">
        <ele>37.6</ele>
        <time>2019-07-11T10:27:39Z</time>
      </trkpt>
      <trkpt lat="48.77399" lon="-3.56994">
        <ele>37.4</ele>
        <time>2019-07-11T10:27:40Z</time>
      </trkpt>
      <trkpt lat="48.77396" lon="-3.57001">
        <ele>37.2</ele>
        <time>2019-07-11T10:27:41Z</time>
      </trkpt>
      <trkpt lat="48.77393" lon="-3.57008">
        <ele>37.1</ele>
        <time>2019-07-11T10:27:42Z</time>
      </trkpt>
      <trkpt lat="48.77391" lon="-3.57015">
        <ele>36.8</ele>
        <time>2019-07-11T10:27:43Z</time>
      </trkpt>
      <trkpt lat="48.7739" lon="-3.57022">
        <ele>36.7</ele>
        <time>2019-07-11T10:27:44Z</time>
      </trkpt>
      <trkpt lat="48.77387" lon="-3.57027">
        <ele>36.7</ele>
        <time>2019-07-11T10:27:45Z</time>
      </trkpt>
      <trkpt lat="48.77385" lon="-3.57033">
        <ele>36.5</ele>
        <time>2019-07-11T10:27:46Z</time>
      </trkpt>
      <trkpt lat="48.77383" lon="-3.57039">
        <ele>36.4</ele>
        <time>2019-07-11T10:27:47Z</time>
      </trkpt>
      <trkpt lat="48.77381" lon="-3.57045">
        <ele>36.2</ele>
        <time>2019-07-11T10:27:48Z</time>
      </trkpt>
      <trkpt lat="48.77378" lon="-3.57051">
        <ele>36.3</ele>
        <time>2019-07-11T10:27:49Z</time>
      </trkpt>
      <trkpt lat="48.77375" lon="-3.57056">
        <ele>36.1</ele>
        <time>2019-07-11T10:27:50Z</time>
      </trkpt>
      <trkpt lat="48.77371" lon="-3.57062">
        <ele>35.6</ele>
        <time>2019-07-11T10:27:51Z</time>
      </trkpt>
      <trkpt lat="48.77368" lon="-3.57068">
        <ele>35.2</ele>
        <time>2019-07-11T10:27:52Z</time>
      </trkpt>
      <trkpt lat="48.77364" lon="-3.57074">
        <ele>35</ele>
        <time>2019-07-11T10:27:53Z</time>
      </trkpt>
      <trkpt lat="48.7736" lon="-3.5708">
        <ele>34.6</ele>
        <time>2019-07-11T10:27:54Z</time>
      </trkpt>
      <trkpt lat="48.77356" lon="-3.57087">
        <ele>34.5</ele>
        <time>2019-07-11T10:27:55Z</time>
      </trkpt>
      <trkpt lat="48.77354" lon="-3.57093">
        <ele>34.3</ele>
        <time>2019-07-11T10:27:56Z</time>
      </trkpt>
      <trkpt lat="48.77351" lon="-3.57098">
        <ele>34</ele>
        <time>2019-07-11T10:27:57Z</time>
      </trkpt>
      <trkpt lat="48.7735" lon="-3.57102">
        <ele>33.9</ele>
        <time>2019-07-11T10:27:58Z</time>
      </trkpt>
      <trkpt lat="48.77348" lon="-3.57105">
        <ele>33.6</ele>
        <time>2019-07-11T10:27:59Z</time>
      </trkpt>
      <trkpt lat="48.77347" lon="-3.57109">
        <ele>33.6</ele>
        <time>2019-07-11T10:28:00Z</time>
      </trkpt>
      <trkpt lat="48.77347" lon="-3.57114">
        <ele>33.4</ele>
        <time>2019-07-11T10:28:01Z</time>
      </trkpt>
      <trkpt lat="48.77346" lon="-3.57119">
        <ele>33.1</ele>
        <time>2019-07-11T10:28:02Z</time>
      </trkpt>
      <trkpt lat="48.77346" lon="-3.57124">
        <ele>32.8</ele>
        <time>2019-07-11T10:28:03Z</time>
      </trkpt>
      <trkpt lat="48.77346" lon="-3.5713">
        <ele>32.6</ele>
        <time>2019-07-11T10:28:04Z</time>
      </trkpt>
      <trkpt lat="48.77346" lon="-3.57138">
        <ele>32.3</ele>
        <time>2019-07-11T10:28:05Z</time>
      </trkpt>
      <trkpt lat="48.77347" lon="-3.57145">
        <ele>32</ele>
        <time>2019-07-11T10:28:06Z</time>
      </trkpt>
      <trkpt lat="48.77348" lon="-3.57153">
        <ele>31.6</ele>
        <time>2019-07-11T10:28:07Z</time>
      </trkpt>
      <trkpt lat="48.77348" lon="-3.57162">
        <ele>31.1</ele>
        <time>2019-07-11T10:28:08Z</time>
      </trkpt>
      <trkpt lat="48.77349" lon="-3.5717">
        <ele>31.1</ele>
        <time>2019-07-11T10:28:09Z</time>
      </trkpt>
      <trkpt lat="48.77348" lon="-3.57179">
        <ele>30.9</ele>
        <time>2019-07-11T10:28:10Z</time>
      </trkpt>
      <trkpt lat="48.77348" lon="-3.57189">
        <ele>30.6</ele>
        <time>2019-07-11T10:28:11Z</time>
      </trkpt>
      <trkpt lat="48.77347" lon="-3.572">
        <ele>30.1</ele>
        <time>2019-07-11T10:28:12Z</time>
      </trkpt>
      <trkpt lat="48.77345" lon="-3.57211">
        <ele>29.5</ele>
        <time>2019-07-11T10:28:13Z</time>
      </trkpt>
      <trkpt lat="48.77344" lon="-3.57223">
        <ele>28.7</ele>
        <time>2019-07-11T10:28:14Z</time>
      </trkpt>
      <trkpt lat="48.77343" lon="-3.57235">
        <ele>27.9</ele>
        <time>2019-07-11T10:28:15Z</time>
      </trkpt>
      <trkpt lat="48.77342" lon="-3.57247">
        <ele>27.2</ele>
        <time>2019-07-11T10:28:16Z</time>
      </trkpt>
      <trkpt lat="48.77342" lon="-3.5726">
        <ele>26.7</ele>
        <time>2019-07-11T10:28:17Z</time>
      </trkpt>
      <trkpt lat="48.7734" lon="-3.57272">
        <ele>26.5</ele>
        <time>2019-07-11T10:28:18Z</time>
      </trkpt>
      <trkpt lat="48.7734" lon="-3.57286">
        <ele>25.4</ele>
        <time>2019-07-11T10:28:19Z</time>
      </trkpt>
      <trkpt lat="48.7734" lon="-3.57299">
        <ele>24.3</ele>
        <time>2019-07-11T10:28:20Z</time>
      </trkpt>
      <trkpt lat="48.77338" lon="-3.57312">
        <ele>23.4</ele>
        <time>2019-07-11T10:28:21Z</time>
      </trkpt>
      <trkpt lat="48.77338" lon="-3.57325">
        <ele>22.4</ele>
        <time>2019-07-11T10:28:22Z</time>
      </trkpt>
      <trkpt lat="48.77338" lon="-3.57337">
        <ele>21.7</ele>
        <time>2019-07-11T10:28:23Z</time>
      </trkpt>
      <trkpt lat="48.77339" lon="-3.57349">
        <ele>21.5</ele>
        <time>2019-07-11T10:28:24Z</time>
      </trkpt>
      <trkpt lat="48.77339" lon="-3.5736">
        <ele>21.1</ele>
        <time>2019-07-11T10:28:25Z</time>
      </trkpt>
      <trkpt lat="48.7734" lon="-3.5737">
        <ele>20.6</ele>
        <time>2019-07-11T10:28:26Z</time>
      </trkpt>
      <trkpt lat="48.7734" lon="-3.57381">
        <ele>20.1</ele>
        <time>2019-07-11T10:28:27Z</time>
      </trkpt>
      <trkpt lat="48.77341" lon="-3.5739">
        <ele>20.1</ele>
        <time>2019-07-11T10:28:28Z</time>
      </trkpt>
      <trkpt lat="48.77342" lon="-3.57399">
        <ele>19.7</ele>
        <time>2019-07-11T10:28:29Z</time>
      </trkpt>
      <trkpt lat="48.77342" lon="-3.57408">
        <ele>20</ele>
        <time>2019-07-11T10:28:30Z</time>
      </trkpt>
      <trkpt lat="48.77343" lon="-3.57417">
        <ele>19.9</ele>
        <time>2019-07-11T10:28:31Z</time>
      </trkpt>
      <trkpt lat="48.77345" lon="-3.57425">
        <ele>19.5</ele>
        <time>2019-07-11T10:28:32Z</time>
      </trkpt>
      <trkpt lat="48.77345" lon="-3.57434">
        <ele>19.1</ele>
        <time>2019-07-11T10:28:33Z</time>
      </trkpt>
      <trkpt lat="48.77346" lon="-3.57442">
        <ele>18.9</ele>
        <time>2019-07-11T10:28:34Z</time>
      </trkpt>
      <trkpt lat="48.77348" lon="-3.57449">
        <ele>18.6</ele>
        <time>2019-07-11T10:28:35Z</time>
      </trkpt>
      <trkpt lat="48.77349" lon="-3.57456">
        <ele>18.4</ele>
        <time>2019-07-11T10:28:36Z</time>
      </trkpt>
      <trkpt lat="48.77351" lon="-3.57462">
        <ele>18.4</ele>
        <time>2019-07-11T10:28:37Z</time>
      </trkpt>
      <trkpt lat="48.77353" lon="-3.57468">
        <ele>18.4</ele>
        <time>2019-07-11T10:28:38Z</time>
      </trkpt>
      <trkpt lat="48.77355" lon="-3.57474">
        <ele>18.5</ele>
        <time>2019-07-11T10:28:39Z</time>
      </trkpt>
      <trkpt lat="48.77358" lon="-3.57479">
        <ele>18.8</ele>
        <time>2019-07-11T10:28:40Z</time>
      </trkpt>
      <trkpt lat="48.77359" lon="-3.57484">
        <ele>19</ele>
        <time>2019-07-11T10:28:41Z</time>
      </trkpt>
      <trkpt lat="48.77362" lon="-3.57489">
        <ele>19.1</ele>
        <time>2019-07-11T10:28:42Z</time>
      </trkpt>
      <trkpt lat="48.77364" lon="-3.57493">
        <ele>19</ele>
        <time>2019-07-11T10:28:43Z</time>
      </trkpt>
      <trkpt lat="48.77366" lon="-3.57497">
        <ele>19.1</ele>
        <time>2019-07-11T10:28:44Z</time>
      </trkpt>
      <trkpt lat="48.77367" lon="-3.57501">
        <ele>19.1</ele>
        <time>2019-07-11T10:28:45Z</time>
      </trkpt>
      <trkpt lat="48.77369" lon="-3.57506">
        <ele>19.3</ele>
        <time>2019-07-11T10:28:46Z</time>
      </trkpt>
      <trkpt lat="48.77371" lon="-3.5751">
        <ele>19.7</ele>
        <time>2019-07-11T10:28:47Z</time>
      </trkpt>
      <trkpt lat="48.77373" lon="-3.57513">
        <ele>20.1</ele>
        <time>2019-07-11T10:28:48Z</time>
      </trkpt>
      <trkpt lat="48.77375" lon="-3.57517">
        <ele>20.4</ele>
        <time>2019-07-11T10:28:49Z</time>
      </trkpt>
      <trkpt lat="48.77378" lon="-3.57522">
        <ele>20.5</ele>
        <time>2019-07-11T10:28:50Z</time>
      </trkpt>
      <trkpt lat="48.7738" lon="-3.57526">
        <ele>20.9</ele>
        <time>2019-07-11T10:28:51Z</time>
      </trkpt>
      <trkpt lat="48.77382" lon="-3.5753">
        <ele>21.2</ele>
        <time>2019-07-11T10:28:52Z</time>
      </trkpt>
      <trkpt lat="48.77384" lon="-3.57535">
        <ele>21.7</ele>
        <time>2019-07-11T10:28:53Z</time>
      </trkpt>
      <trkpt lat="48.77387" lon="-3.57538">
        <ele>21.8</ele>
        <time>2019-07-11T10:28:54Z</time>
      </trkpt>
      <trkpt lat="48.77388" lon="-3.57543">
        <ele>22</ele>
        <time>2019-07-11T10:28:55Z</time>
      </trkpt>
      <trkpt lat="48.77391" lon="-3.57547">
        <ele>22</ele>
        <time>2019-07-11T10:28:56Z</time>
      </trkpt>
      <trkpt lat="48.77393" lon="-3.57551">
        <ele>22.2</ele>
        <time>2019-07-11T10:28:57Z</time>
      </trkpt>
      <trkpt lat="48.77395" lon="-3.57554">
        <ele>22.5</ele>
        <time>2019-07-11T10:28:58Z</time>
      </trkpt>
      <trkpt lat="48.77398" lon="-3.57557">
        <ele>23.4</ele>
        <time>2019-07-11T10:28:59Z</time>
      </trkpt>
      <trkpt lat="48.774" lon="-3.5756">
        <ele>24.1</ele>
        <time>2019-07-11T10:29:00Z</time>
      </trkpt>
      <trkpt lat="48.77401" lon="-3.57564">
        <ele>24.6</ele>
        <time>2019-07-11T10:29:01Z</time>
      </trkpt>
      <trkpt lat="48.77403" lon="-3.57568">
        <ele>24.8</ele>
        <time>2019-07-11T10:29:02Z</time>
      </trkpt>
      <trkpt lat="48.77404" lon="-3.57572">
        <ele>25</ele>
        <time>2019-07-11T10:29:03Z</time>
      </trkpt>
      <trkpt lat="48.77405" lon="-3.57575">
        <ele>25</ele>
        <time>2019-07-11T10:29:04Z</time>
      </trkpt>
      <trkpt lat="48.77406" lon="-3.57579">
        <ele>25</ele>
        <time>2019-07-11T10:29:05Z</time>
      </trkpt>
      <trkpt lat="48.77406" lon="-3.57582">
        <ele>25.2</ele>
        <time>2019-07-11T10:29:06Z</time>
      </trkpt>
      <trkpt lat="48.77408" lon="-3.57586">
        <ele>25.5</ele>
        <time>2019-07-11T10:29:07Z</time>
      </trkpt>
      <trkpt lat="48.77409" lon="-3.5759">
        <ele>25.6</ele>
        <time>2019-07-11T10:29:08Z</time>
      </trkpt>
      <trkpt lat="48.77411" lon="-3.57594">
        <ele>25.3</ele>
        <time>2019-07-11T10:29:09Z</time>
      </trkpt>
      <trkpt lat="48.77412" lon="-3.57598">
        <ele>24.8</ele>
        <time>2019-07-11T10:29:10Z</time>
      </trkpt>
      <trkpt lat="48.77413" lon="-3.57602">
        <ele>25.2</ele>
        <time>2019-07-11T10:29:11Z</time>
      </trkpt>
      <trkpt lat="48.77413" lon="-3.57605">
        <ele>25.3</ele>
        <time>2019-07-11T10:29:12Z</time>
      </trkpt>
      <trkpt lat="48.77414" lon="-3.57609">
        <ele>25.7</ele>
        <time>2019-07-11T10:29:13Z</time>
      </trkpt>
      <trkpt lat="48.77414" lon="-3.57612">
        <ele>25.8</ele>
        <time>2019-07-11T10:29:14Z</time>
      </trkpt>
      <trkpt lat="48.77416" lon="-3.57616">
        <ele>25.9</ele>
        <time>2019-07-11T10:29:15Z</time>
      </trkpt>
      <trkpt lat="48.77416" lon="-3.5762">
        <ele>26.3</ele>
        <time>2019-07-11T10:29:16Z</time>
      </trkpt>
      <trkpt lat="48.77416" lon="-3.57623">
        <ele>27.2</ele>
        <time>2019-07-11T10:29:17Z</time>
      </trkpt>
      <trkpt lat="48.77416" lon="-3.57627">
        <ele>27.5</ele>
        <time>2019-07-11T10:29:18Z</time>
      </trkpt>
      <trkpt lat="48.77416" lon="-3.57631">
        <ele>27.3</ele>
        <time>2019-07-11T10:29:19Z</time>
      </trkpt>
      <trkpt lat="48.77416" lon="-3.57635">
        <ele>27.3</ele>
        <time>2019-07-11T10:29:20Z</time>
      </trkpt>
      <trkpt lat="48.77417" lon="-3.57639">
        <ele>27.3</ele>
        <time>2019-07-11T10:29:21Z</time>
      </trkpt>
      <trkpt lat="48.77418" lon="-3.57643">
        <ele>27.6</ele>
        <time>2019-07-11T10:29:22Z</time>
      </trkpt>
      <trkpt lat="48.77419" lon="-3.57647">
        <ele>27.8</ele>
        <time>2019-07-11T10:29:23Z</time>
      </trkpt>
      <trkpt lat="48.77419" lon="-3.57651">
        <ele>28.1</ele>
        <time>2019-07-11T10:29:24Z</time>
      </trkpt>
      <trkpt lat="48.7742" lon="-3.57654">
        <ele>28.1</ele>
        <time>2019-07-11T10:29:25Z</time>
      </trkpt>
      <trkpt lat="48.7742" lon="-3.57658">
        <ele>28</ele>
        <time>2019-07-11T10:29:26Z</time>
      </trkpt>
      <trkpt lat="48.7742" lon="-3.57662">
        <ele>28.1</ele>
        <time>2019-07-11T10:29:27Z</time>
      </trkpt>
      <trkpt lat="48.77419" lon="-3.57665">
        <ele>28.1</ele>
        <time>2019-07-11T10:29:28Z</time>
      </trkpt>
      <trkpt lat="48.77419" lon="-3.57668">
        <ele>28.1</ele>
        <time>2019-07-11T10:29:29Z</time>
      </trkpt>
      <trkpt lat="48.77418" lon="-3.57671">
        <ele>27.8</ele>
        <time>2019-07-11T10:29:30Z</time>
      </trkpt>
      <trkpt lat="48.77417" lon="-3.57674">
        <ele>27.9</ele>
        <time>2019-07-11T10:29:31Z</time>
      </trkpt>
      <trkpt lat="48.77416" lon="-3.57677">
        <ele>28.1</ele>
        <time>2019-07-11T10:29:32Z</time>
      </trkpt>
      <trkpt lat="48.77414" lon="-3.5768">
        <ele>28.1</ele>
        <time>2019-07-11T10:29:33Z</time>
      </trkpt>
      <trkpt lat="48.77412" lon="-3.57683">
        <ele>28.4</ele>
        <time>2019-07-11T10:29:34Z</time>
      </trkpt>
      <trkpt lat="48.77411" lon="-3.57686">
        <ele>28.7</ele>
        <time>2019-07-11T10:29:35Z</time>
      </trkpt>
      <trkpt lat="48.7741" lon="-3.57689">
        <ele>28.6</ele>
        <time>2019-07-11T10:29:36Z</time>
      </trkpt>
      <trkpt lat="48.77409" lon="-3.57693">
        <ele>28.3</ele>
        <time>2019-07-11T10:29:37Z</time>
      </trkpt>
      <trkpt lat="48.77408" lon="-3.57696">
        <ele>28.3</ele>
        <time>2019-07-11T10:29:38Z</time>
      </trkpt>
      <trkpt lat="48.77406" lon="-3.57699">
        <ele>28.6</ele>
        <time>2019-07-11T10:29:39Z</time>
      </trkpt>
      <trkpt lat="48.77405" lon="-3.57702">
        <ele>28.8</ele>
        <time>2019-07-11T10:29:40Z</time>
      </trkpt>
      <trkpt lat="48.77404" lon="-3.57704">
        <ele>29.2</ele>
        <time>2019-07-11T10:29:41Z</time>
      </trkpt>
      <trkpt lat="48.77402" lon="-3.57706">
        <ele>29.4</ele>
        <time>2019-07-11T10:29:42Z</time>
      </trkpt>
      <trkpt lat="48.774" lon="-3.57709">
        <ele>29.5</ele>
        <time>2019-07-11T10:29:43Z</time>
      </trkpt>
      <trkpt lat="48.77399" lon="-3.57711">
        <ele>29.2</ele>
        <time>2019-07-11T10:29:44Z</time>
      </trkpt>
      <trkpt lat="48.77398" lon="-3.57714">
        <ele>28.9</ele>
        <time>2019-07-11T10:29:45Z</time>
      </trkpt>
      <trkpt lat="48.77396" lon="-3.57715">
        <ele>28.8</ele>
        <time>2019-07-11T10:29:46Z</time>
      </trkpt>
      <trkpt lat="48.77394" lon="-3.57717">
        <ele>28.8</ele>
        <time>2019-07-11T10:29:47Z</time>
      </trkpt>
      <trkpt lat="48.77393" lon="-3.57719">
        <ele>29</ele>
        <time>2019-07-11T10:29:48Z</time>
      </trkpt>
      <trkpt lat="48.77391" lon="-3.57721">
        <ele>29</ele>
        <time>2019-07-11T10:29:49Z</time>
      </trkpt>
      <trkpt lat="48.7739" lon="-3.57723">
        <ele>28.7</ele>
        <time>2019-07-11T10:29:50Z</time>
      </trkpt>
      <trkpt lat="48.77388" lon="-3.57724">
        <ele>28.9</ele>
        <time>2019-07-11T10:29:51Z</time>
      </trkpt>
      <trkpt lat="48.77386" lon="-3.57725">
        <ele>29.1</ele>
        <time>2019-07-11T10:29:52Z</time>
      </trkpt>
      <trkpt lat="48.77383" lon="-3.57726">
        <ele>29.1</ele>
        <time>2019-07-11T10:29:53Z</time>
      </trkpt>
      <trkpt lat="48.77381" lon="-3.57727">
        <ele>29.5</ele>
        <time>2019-07-11T10:29:54Z</time>
      </trkpt>
      <trkpt lat="48.77379" lon="-3.57728">
        <ele>29.9</ele>
        <time>2019-07-11T10:29:55Z</time>
      </trkpt>
      <trkpt lat="48.77376" lon="-3.57728">
        <ele>29.9</ele>
        <time>2019-07-11T10:29:56Z</time>
      </trkpt>
      <trkpt lat="48.77375" lon="-3.57729">
        <ele>29.9</ele>
        <time>2019-07-11T10:29:57Z</time>
      </trkpt>
      <trkpt lat="48.77374" lon="-3.5773">
        <ele>30</ele>
        <time>2019-07-11T10:29:58Z</time>
      </trkpt>
      <trkpt lat="48.77372" lon="-3.5773">
        <ele>30.1</ele>
        <time>2019-07-11T10:29:59Z</time>
      </trkpt>
      <trkpt lat="48.7737" lon="-3.57731">
        <ele>30</ele>
        <time>2019-07-11T10:30:00Z</time>
      </trkpt>
      <trkpt lat="48.77368" lon="-3.57732">
        <ele>30</ele>
        <time>2019-07-11T10:30:01Z</time>
      </trkpt>
      <trkpt lat="48.77365" lon="-3.57732">
        <ele>30</ele>
        <time>2019-07-11T10:30:02Z</time>
      </trkpt>
      <trkpt lat="48.77362" lon="-3.57732">
        <ele>30.2</ele>
        <time>2019-07-11T10:30:03Z</time>
      </trkpt>
      <trkpt lat="48.77359" lon="-3.57732">
        <ele>30.2</ele>
        <time>2019-07-11T10:30:04Z</time>
      </trkpt>
      <trkpt lat="48.77356" lon="-3.57732">
        <ele>30.4</ele>
        <time>2019-07-11T10:30:05Z</time>
      </trkpt>
      <trkpt lat="48.77353" lon="-3.57732">
        <ele>30.5</ele>
        <time>2019-07-11T10:30:06Z</time>
      </trkpt>
      <trkpt lat="48.77351" lon="-3.57732">
        <ele>30.6</ele>
        <time>2019-07-11T10:30:07Z</time>
      </trkpt>
      <trkpt lat="48.77348" lon="-3.57731">
        <ele>30.6</ele>
        <time>2019-07-11T10:30:08Z</time>
      </trkpt>
      <trkpt lat="48.77345" lon="-3.5773">
        <ele>30.5</ele>
        <time>2019-07-11T10:30:09Z</time>
      </trkpt>
      <trkpt lat="48.77342" lon="-3.5773">
        <ele>30.5</ele>
        <time>2019-07-11T10:30:10Z</time>
      </trkpt>
      <trkpt lat="48.7734" lon="-3.57729">
        <ele>30.5</ele>
        <time>2019-07-11T10:30:11Z</time>
      </trkpt>
      <trkpt lat="48.77337" lon="-3.57728">
        <ele>30.7</ele>
        <time>2019-07-11T10:30:12Z</time>
      </trkpt>
      <trkpt lat="48.77334" lon="-3.57728">
        <ele>30.7</ele>
        <time>2019-07-11T10:30:13Z</time>
      </trkpt>
      <trkpt lat="48.77332" lon="-3.57729">
        <ele>31.2</ele>
        <time>2019-07-11T10:30:14Z</time>
      </trkpt>
      <trkpt lat="48.7733" lon="-3.5773">
        <ele>31.3</ele>
        <time>2019-07-11T10:30:15Z</time>
      </trkpt>
      <trkpt lat="48.77327" lon="-3.5773">
        <ele>31.6</ele>
        <time>2019-07-11T10:30:16Z</time>
      </trkpt>
      <trkpt lat="48.77325" lon="-3.57731">
        <ele>32.1</ele>
        <time>2019-07-11T10:30:17Z</time>
      </trkpt>
      <trkpt lat="48.77323" lon="-3.57731">
        <ele>32.5</ele>
        <time>2019-07-11T10:30:18Z</time>
      </trkpt>
      <trkpt lat="48.77321" lon="-3.57732">
        <ele>32.7</ele>
        <time>2019-07-11T10:30:19Z</time>
      </trkpt>
      <trkpt lat="48.77318" lon="-3.57732">
        <ele>32.8</ele>
        <time>2019-07-11T10:30:20Z</time>
      </trkpt>
      <trkpt lat="48.77316" lon="-3.57733">
        <ele>33</ele>
        <time>2019-07-11T10:30:21Z</time>
      </trkpt>
      <trkpt lat="48.77314" lon="-3.57733">
        <ele>33.1</ele>
        <time>2019-07-11T10:30:22Z</time>
      </trkpt>
      <trkpt lat="48.77311" lon="-3.57732">
        <ele>33.3</ele>
        <time>2019-07-11T10:30:23Z</time>
      </trkpt>
      <trkpt lat="48.77309" lon="-3.57731">
        <ele>33.4</ele>
        <time>2019-07-11T10:30:24Z</time>
      </trkpt>
      <trkpt lat="48.77307" lon="-3.57731">
        <ele>33.5</ele>
        <time>2019-07-11T10:30:25Z</time>
      </trkpt>
      <trkpt lat="48.77305" lon="-3.57731">
        <ele>33.5</ele>
        <time>2019-07-11T10:30:26Z</time>
      </trkpt>
      <trkpt lat="48.77302" lon="-3.57731">
        <ele>34</ele>
        <time>2019-07-11T10:30:27Z</time>
      </trkpt>
      <trkpt lat="48.77301" lon="-3.57731">
        <ele>35</ele>
        <time>2019-07-11T10:30:28Z</time>
      </trkpt>
      <trkpt lat="48.77299" lon="-3.57731">
        <ele>35.9</ele>
        <time>2019-07-11T10:30:29Z</time>
      </trkpt>
      <trkpt lat="48.77296" lon="-3.57731">
        <ele>36.7</ele>
        <time>2019-07-11T10:30:30Z</time>
      </trkpt>
      <trkpt lat="48.77294" lon="-3.57731">
        <ele>37.5</ele>
        <time>2019-07-11T10:30:31Z</time>
      </trkpt>
      <trkpt lat="48.77292" lon="-3.57731">
        <ele>38</ele>
        <time>2019-07-11T10:30:32Z</time>
      </trkpt>
      <trkpt lat="48.77288" lon="-3.57731">
        <ele>38.3</ele>
        <time>2019-07-11T10:30:33Z</time>
      </trkpt>
      <trkpt lat="48.77285" lon="-3.57732">
        <ele>38.1</ele>
        <time>2019-07-11T10:30:34Z</time>
      </trkpt>
      <trkpt lat="48.77282" lon="-3.57733">
        <ele>38.1</ele>
        <time>2019-07-11T10:30:35Z</time>
      </trkpt>
      <trkpt lat="48.7728" lon="-3.57735">
        <ele>38.1</ele>
        <time>2019-07-11T10:30:36Z</time>
      </trkpt>
      <trkpt lat="48.77277" lon="-3.57738">
        <ele>38.1</ele>
        <time>2019-07-11T10:30:37Z</time>
      </trkpt>
      <trkpt lat="48.77275" lon="-3.57742">
        <ele>38.2</ele>
        <time>2019-07-11T10:30:38Z</time>
      </trkpt>
      <trkpt lat="48.77273" lon="-3.57745">
        <ele>38.1</ele>
        <time>2019-07-11T10:30:39Z</time>
      </trkpt>
      <trkpt lat="48.77271" lon="-3.57748">
        <ele>38.3</ele>
        <time>2019-07-11T10:30:40Z</time>
      </trkpt>
      <trkpt lat="48.7727" lon="-3.57751">
        <ele>38.6</ele>
        <time>2019-07-11T10:30:41Z</time>
      </trkpt>
      <trkpt lat="48.77268" lon="-3.57754">
        <ele>38.7</ele>
        <time>2019-07-11T10:30:42Z</time>
      </trkpt>
      <trkpt lat="48.77267" lon="-3.57757">
        <ele>38.9</ele>
        <time>2019-07-11T10:30:43Z</time>
      </trkpt>
      <trkpt lat="48.77265" lon="-3.5776">
        <ele>39.2</ele>
        <time>2019-07-11T10:30:44Z</time>
      </trkpt>
      <trkpt lat="48.77263" lon="-3.57763">
        <ele>39.3</ele>
        <time>2019-07-11T10:30:45Z</time>
      </trkpt>
      <trkpt lat="48.77262" lon="-3.57766">
        <ele>39.6</ele>
        <time>2019-07-11T10:30:46Z</time>
      </trkpt>
      <trkpt lat="48.7726" lon="-3.57769">
        <ele>39.9</ele>
        <time>2019-07-11T10:30:47Z</time>
      </trkpt>
      <trkpt lat="48.77259" lon="-3.57771">
        <ele>40.2</ele>
        <time>2019-07-11T10:30:48Z</time>
      </trkpt>
      <trkpt lat="48.77258" lon="-3.57774">
        <ele>40.3</ele>
        <time>2019-07-11T10:30:49Z</time>
      </trkpt>
      <trkpt lat="48.77256" lon="-3.57777">
        <ele>40.4</ele>
        <time>2019-07-11T10:30:50Z</time>
      </trkpt>
      <trkpt lat="48.77254" lon="-3.5778">
        <ele>40.3</ele>
        <time>2019-07-11T10:30:51Z</time>
      </trkpt>
      <trkpt lat="48.77253" lon="-3.57784">
        <ele>40.4</ele>
        <time>2019-07-11T10:30:52Z</time>
      </trkpt>
      <trkpt lat="48.77251" lon="-3.57786">
        <ele>40.3</ele>
        <time>2019-07-11T10:30:53Z</time>
      </trkpt>
      <trkpt lat="48.77249" lon="-3.57788">
        <ele>40.4</ele>
        <time>2019-07-11T10:30:54Z</time>
      </trkpt>
      <trkpt lat="48.77247" lon="-3.5779">
        <ele>40.4</ele>
        <time>2019-07-11T10:30:55Z</time>
      </trkpt>
      <trkpt lat="48.77246" lon="-3.57791">
        <ele>40.3</ele>
        <time>2019-07-11T10:30:56Z</time>
      </trkpt>
      <trkpt lat="48.77245" lon="-3.57792">
        <ele>40.3</ele>
        <time>2019-07-11T10:30:57Z</time>
      </trkpt>
      <trkpt lat="48.7724" lon="-3.57802">
        <ele>39.9</ele>
        <time>2019-07-11T10:31:57Z</time>
      </trkpt>
      <trkpt lat="48.77239" lon="-3.57803">
        <ele>40.1</ele>
        <time>2019-07-11T10:31:58Z</time>
      </trkpt>
      <trkpt lat="48.77237" lon="-3.57804">
        <ele>40.2</ele>
        <time>2019-07-11T10:31:59Z</time>
      </trkpt>
      <trkpt lat="48.77236" lon="-3.57805">
        <ele>40.3</ele>
        <time>2019-07-11T10:32:00Z</time>
      </trkpt>
      <trkpt lat="48.77234" lon="-3.57806">
        <ele>40.5</ele>
        <time>2019-07-11T10:32:01Z</time>
      </trkpt>
      <trkpt lat="48.77232" lon="-3.57807">
        <ele>40.4</ele>
        <time>2019-07-11T10:32:02Z</time>
      </trkpt>
      <trkpt lat="48.77231" lon="-3.57807">
        <ele>40.4</ele>
        <time>2019-07-11T10:32:03Z</time>
      </trkpt>
      <trkpt lat="48.7723" lon="-3.57807">
        <ele>40.4</ele>
        <time>2019-07-11T10:32:04Z</time>
      </trkpt>
      <trkpt lat="48.77229" lon="-3.57807">
        <ele>40.3</ele>
        <time>2019-07-11T10:32:05Z</time>
      </trkpt>
      <trkpt lat="48.77227" lon="-3.57807">
        <ele>40.4</ele>
        <time>2019-07-11T10:32:06Z</time>
      </trkpt>
      <trkpt lat="48.77224" lon="-3.57807">
        <ele>40.5</ele>
        <time>2019-07-11T10:32:07Z</time>
      </trkpt>
      <trkpt lat="48.77222" lon="-3.57807">
        <ele>40.5</ele>
        <time>2019-07-11T10:32:08Z</time>
      </trkpt>
      <trkpt lat="48.7722" lon="-3.57807">
        <ele>40.6</ele>
        <time>2019-07-11T10:32:09Z</time>
      </trkpt>
      <trkpt lat="48.77218" lon="-3.57806">
        <ele>40.6</ele>
        <time>2019-07-11T10:32:10Z</time>
      </trkpt>
      <trkpt lat="48.77216" lon="-3.57806">
        <ele>40.5</ele>
        <time>2019-07-11T10:32:11Z</time>
      </trkpt>
      <trkpt lat="48.77212" lon="-3.57804">
        <ele>40.3</ele>
        <time>2019-07-11T10:32:12Z</time>
      </trkpt>
      <trkpt lat="48.77209" lon="-3.57803">
        <ele>40.1</ele>
        <time>2019-07-11T10:32:13Z</time>
      </trkpt>
      <trkpt lat="48.77206" lon="-3.57803">
        <ele>39.9</ele>
        <time>2019-07-11T10:32:14Z</time>
      </trkpt>
      <trkpt lat="48.77204" lon="-3.57803">
        <ele>39.8</ele>
        <time>2019-07-11T10:32:15Z</time>
      </trkpt>
      <trkpt lat="48.77201" lon="-3.57802">
        <ele>39.9</ele>
        <time>2019-07-11T10:32:16Z</time>
      </trkpt>
      <trkpt lat="48.77199" lon="-3.57801">
        <ele>39.9</ele>
        <time>2019-07-11T10:32:17Z</time>
      </trkpt>
      <trkpt lat="48.77197" lon="-3.57801">
        <ele>39.7</ele>
        <time>2019-07-11T10:32:18Z</time>
      </trkpt>
      <trkpt lat="48.77194" lon="-3.57801">
        <ele>39.6</ele>
        <time>2019-07-11T10:32:19Z</time>
      </trkpt>
      <trkpt lat="48.77192" lon="-3.578">
        <ele>39.6</ele>
        <time>2019-07-11T10:32:20Z</time>
      </trkpt>
      <trkpt lat="48.77189" lon="-3.578">
        <ele>39.6</ele>
        <time>2019-07-11T10:32:21Z</time>
      </trkpt>
      <trkpt lat="48.77187" lon="-3.57798">
        <ele>39.8</ele>
        <time>2019-07-11T10:32:22Z</time>
      </trkpt>
      <trkpt lat="48.77185" lon="-3.57797">
        <ele>39.9</ele>
        <time>2019-07-11T10:32:23Z</time>
      </trkpt>
      <trkpt lat="48.77182" lon="-3.57797">
        <ele>40.1</ele>
        <time>2019-07-11T10:32:24Z</time>
      </trkpt>
      <trkpt lat="48.77179" lon="-3.57796">
        <ele>40.5</ele>
        <time>2019-07-11T10:32:25Z</time>
      </trkpt>
      <trkpt lat="48.77177" lon="-3.57794">
        <ele>41</ele>
        <time>2019-07-11T10:32:26Z</time>
      </trkpt>
      <trkpt lat="48.77175" lon="-3.57794">
        <ele>41.6</ele>
        <time>2019-07-11T10:32:27Z</time>
      </trkpt>
      <trkpt lat="48.77173" lon="-3.57793">
        <ele>41.9</ele>
        <time>2019-07-11T10:32:28Z</time>
      </trkpt>
      <trkpt lat="48.7717" lon="-3.57791">
        <ele>42.4</ele>
        <time>2019-07-11T10:32:29Z</time>
      </trkpt>
      <trkpt lat="48.77169" lon="-3.57791">
        <ele>43.1</ele>
        <time>2019-07-11T10:32:30Z</time>
      </trkpt>
      <trkpt lat="48.77167" lon="-3.57789">
        <ele>43.8</ele>
        <time>2019-07-11T10:32:31Z</time>
      </trkpt>
      <trkpt lat="48.77165" lon="-3.57789">
        <ele>44.8</ele>
        <time>2019-07-11T10:32:32Z</time>
      </trkpt>
      <trkpt lat="48.77163" lon="-3.57789">
        <ele>46.1</ele>
        <time>2019-07-11T10:32:33Z</time>
      </trkpt>
      <trkpt lat="48.77161" lon="-3.57788">
        <ele>46.7</ele>
        <time>2019-07-11T10:32:34Z</time>
      </trkpt>
      <trkpt lat="48.77158" lon="-3.57787">
        <ele>47.1</ele>
        <time>2019-07-11T10:32:35Z</time>
      </trkpt>
      <trkpt lat="48.77155" lon="-3.57786">
        <ele>47.5</ele>
        <time>2019-07-11T10:32:36Z</time>
      </trkpt>
      <trkpt lat="48.77152" lon="-3.57784">
        <ele>47.8</ele>
        <time>2019-07-11T10:32:37Z</time>
      </trkpt>
      <trkpt lat="48.77149" lon="-3.57785">
        <ele>47.6</ele>
        <time>2019-07-11T10:32:38Z</time>
      </trkpt>
      <trkpt lat="48.77146" lon="-3.57785">
        <ele>47.6</ele>
        <time>2019-07-11T10:32:39Z</time>
      </trkpt>
      <trkpt lat="48.77143" lon="-3.57785">
        <ele>47.8</ele>
        <time>2019-07-11T10:32:40Z</time>
      </trkpt>
      <trkpt lat="48.77138" lon="-3.57786">
        <ele>48.2</ele>
        <time>2019-07-11T10:32:42Z</time>
      </trkpt>
      <trkpt lat="48.77136" lon="-3.57786">
        <ele>47.7</ele>
        <time>2019-07-11T10:32:43Z</time>
      </trkpt>
      <trkpt lat="48.77132" lon="-3.57786">
        <ele>47.3</ele>
        <time>2019-07-11T10:32:44Z</time>
      </trkpt>
      <trkpt lat="48.77129" lon="-3.57785">
        <ele>46.3</ele>
        <time>2019-07-11T10:32:45Z</time>
      </trkpt>
      <trkpt lat="48.77126" lon="-3.57784">
        <ele>44.4</ele>
        <time>2019-07-11T10:32:46Z</time>
      </trkpt>
      <trkpt lat="48.77124" lon="-3.57782">
        <ele>42.9</ele>
        <time>2019-07-11T10:32:47Z</time>
      </trkpt>
      <trkpt lat="48.77123" lon="-3.5778">
        <ele>42.4</ele>
        <time>2019-07-11T10:32:48Z</time>
      </trkpt>
      <trkpt lat="48.77121" lon="-3.57779">
        <ele>42</ele>
        <time>2019-07-11T10:32:49Z</time>
      </trkpt>
      <trkpt lat="48.77119" lon="-3.57778">
        <ele>42.1</ele>
        <time>2019-07-11T10:32:50Z</time>
      </trkpt>
      <trkpt lat="48.77116" lon="-3.57777">
        <ele>42</ele>
        <time>2019-07-11T10:32:51Z</time>
      </trkpt>
      <trkpt lat="48.77114" lon="-3.57776">
        <ele>41.6</ele>
        <time>2019-07-11T10:32:52Z</time>
      </trkpt>
      <trkpt lat="48.77111" lon="-3.57775">
        <ele>41.3</ele>
        <time>2019-07-11T10:32:53Z</time>
      </trkpt>
      <trkpt lat="48.77109" lon="-3.57774">
        <ele>40.7</ele>
        <time>2019-07-11T10:32:54Z</time>
      </trkpt>
      <trkpt lat="48.77107" lon="-3.57773">
        <ele>40.4</ele>
        <time>2019-07-11T10:32:55Z</time>
      </trkpt>
      <trkpt lat="48.77104" lon="-3.57772">
        <ele>39.6</ele>
        <time>2019-07-11T10:32:56Z</time>
      </trkpt>
      <trkpt lat="48.77101" lon="-3.5777">
        <ele>39.5</ele>
        <time>2019-07-11T10:32:57Z</time>
      </trkpt>
      <trkpt lat="48.77099" lon="-3.57769">
        <ele>39.4</ele>
        <time>2019-07-11T10:32:58Z</time>
      </trkpt>
      <trkpt lat="48.77096" lon="-3.57768">
        <ele>39.3</ele>
        <time>2019-07-11T10:32:59Z</time>
      </trkpt>
      <trkpt lat="48.77094" lon="-3.57767">
        <ele>39.4</ele>
        <time>2019-07-11T10:33:00Z</time>
      </trkpt>
      <trkpt lat="48.77093" lon="-3.57767">
        <ele>40.3</ele>
        <time>2019-07-11T10:33:01Z</time>
      </trkpt>
      <trkpt lat="48.77092" lon="-3.57766">
        <ele>41.2</ele>
        <time>2019-07-11T10:33:02Z</time>
      </trkpt>
      <trkpt lat="48.77089" lon="-3.57765">
        <ele>41.4</ele>
        <time>2019-07-11T10:33:03Z</time>
      </trkpt>
      <trkpt lat="48.77087" lon="-3.57764">
        <ele>42.3</ele>
        <time>2019-07-11T10:33:04Z</time>
      </trkpt>
      <trkpt lat="48.77085" lon="-3.57763">
        <ele>43.2</ele>
        <time>2019-07-11T10:33:05Z</time>
      </trkpt>
      <trkpt lat="48.77083" lon="-3.57763">
        <ele>44.1</ele>
        <time>2019-07-11T10:33:06Z</time>
      </trkpt>
      <trkpt lat="48.77081" lon="-3.57762">
        <ele>44.8</ele>
        <time>2019-07-11T10:33:07Z</time>
      </trkpt>
      <trkpt lat="48.77079" lon="-3.57762">
        <ele>45.3</ele>
        <time>2019-07-11T10:33:08Z</time>
      </trkpt>
      <trkpt lat="48.77076" lon="-3.57763">
        <ele>46.2</ele>
        <time>2019-07-11T10:33:09Z</time>
      </trkpt>
      <trkpt lat="48.77074" lon="-3.57762">
        <ele>47.1</ele>
        <time>2019-07-11T10:33:10Z</time>
      </trkpt>
      <trkpt lat="48.77072" lon="-3.57762">
        <ele>47.9</ele>
        <time>2019-07-11T10:33:11Z</time>
      </trkpt>
      <trkpt lat="48.7707" lon="-3.57762">
        <ele>48.4</ele>
        <time>2019-07-11T10:33:12Z</time>
      </trkpt>
      <trkpt lat="48.77067" lon="-3.57763">
        <ele>48.8</ele>
        <time>2019-07-11T10:33:13Z</time>
      </trkpt>
      <trkpt lat="48.77064" lon="-3.57763">
        <ele>49</ele>
        <time>2019-07-11T10:33:14Z</time>
      </trkpt>
      <trkpt lat="48.77062" lon="-3.57763">
        <ele>48.8</ele>
        <time>2019-07-11T10:33:15Z</time>
      </trkpt>
      <trkpt lat="48.77059" lon="-3.57763">
        <ele>48.7</ele>
        <time>2019-07-11T10:33:16Z</time>
      </trkpt>
      <trkpt lat="48.77056" lon="-3.57763">
        <ele>48.8</ele>
        <time>2019-07-11T10:33:17Z</time>
      </trkpt>
      <trkpt lat="48.77054" lon="-3.57763">
        <ele>48.7</ele>
        <time>2019-07-11T10:33:18Z</time>
      </trkpt>
      <trkpt lat="48.77051" lon="-3.57762">
        <ele>48.9</ele>
        <time>2019-07-11T10:33:19Z</time>
      </trkpt>
      <trkpt lat="48.77049" lon="-3.57761">
        <ele>49.2</ele>
        <time>2019-07-11T10:33:20Z</time>
      </trkpt>
      <trkpt lat="48.77047" lon="-3.57761">
        <ele>49.6</ele>
        <time>2019-07-11T10:33:21Z</time>
      </trkpt>
      <trkpt lat="48.77045" lon="-3.57761">
        <ele>49.8</ele>
        <time>2019-07-11T10:33:22Z</time>
      </trkpt>
      <trkpt lat="48.77043" lon="-3.57761">
        <ele>50.4</ele>
        <time>2019-07-11T10:33:23Z</time>
      </trkpt>
      <trkpt lat="48.77041" lon="-3.57761">
        <ele>51</ele>
        <time>2019-07-11T10:33:24Z</time>
      </trkpt>
      <trkpt lat="48.77038" lon="-3.5776">
        <ele>51.3</ele>
        <time>2019-07-11T10:33:25Z</time>
      </trkpt>
      <trkpt lat="48.77036" lon="-3.5776">
        <ele>51.2</ele>
        <time>2019-07-11T10:33:26Z</time>
      </trkpt>
      <trkpt lat="48.77033" lon="-3.5776">
        <ele>50.9</ele>
        <time>2019-07-11T10:33:27Z</time>
      </trkpt>
      <trkpt lat="48.7703" lon="-3.5776">
        <ele>50.6</ele>
        <time>2019-07-11T10:33:28Z</time>
      </trkpt>
      <trkpt lat="48.77027" lon="-3.5776">
        <ele>50.5</ele>
        <time>2019-07-11T10:33:29Z</time>
      </trkpt>
      <trkpt lat="48.77024" lon="-3.5776">
        <ele>50.5</ele>
        <time>2019-07-11T10:33:30Z</time>
      </trkpt>
      <trkpt lat="48.77022" lon="-3.5776">
        <ele>50.6</ele>
        <time>2019-07-11T10:33:31Z</time>
      </trkpt>
      <trkpt lat="48.77019" lon="-3.57759">
        <ele>50.6</ele>
        <time>2019-07-11T10:33:32Z</time>
      </trkpt>
      <trkpt lat="48.77016" lon="-3.5776">
        <ele>50.5</ele>
        <time>2019-07-11T10:33:33Z</time>
      </trkpt>
      <trkpt lat="48.77013" lon="-3.57761">
        <ele>50.4</ele>
        <time>2019-07-11T10:33:34Z</time>
      </trkpt>
      <trkpt lat="48.7701" lon="-3.57761">
        <ele>50.5</ele>
        <time>2019-07-11T10:33:35Z</time>
      </trkpt>
      <trkpt lat="48.77008" lon="-3.57761">
        <ele>50.4</ele>
        <time>2019-07-11T10:33:36Z</time>
      </trkpt>
      <trkpt lat="48.77005" lon="-3.57761">
        <ele>50.3</ele>
        <time>2019-07-11T10:33:37Z</time>
      </trkpt>
      <trkpt lat="48.77003" lon="-3.57761">
        <ele>50.3</ele>
        <time>2019-07-11T10:33:38Z</time>
      </trkpt>
      <trkpt lat="48.77" lon="-3.57761">
        <ele>50.3</ele>
        <time>2019-07-11T10:33:39Z</time>
      </trkpt>
      <trkpt lat="48.76998" lon="-3.57762">
        <ele>50.4</ele>
        <time>2019-07-11T10:33:40Z</time>
      </trkpt>
      <trkpt lat="48.76996" lon="-3.57762">
        <ele>50.4</ele>
        <time>2019-07-11T10:33:41Z</time>
      </trkpt>
      <trkpt lat="48.76993" lon="-3.57762">
        <ele>50</ele>
        <time>2019-07-11T10:33:42Z</time>
      </trkpt>
      <trkpt lat="48.76991" lon="-3.57763">
        <ele>50.1</ele>
        <time>2019-07-11T10:33:43Z</time>
      </trkpt>
      <trkpt lat="48.76989" lon="-3.57764">
        <ele>50.1</ele>
        <time>2019-07-11T10:33:44Z</time>
      </trkpt>
      <trkpt lat="48.76986" lon="-3.57765">
        <ele>50.2</ele>
        <time>2019-07-11T10:33:45Z</time>
      </trkpt>
      <trkpt lat="48.76984" lon="-3.57766">
        <ele>50.1</ele>
        <time>2019-07-11T10:33:46Z</time>
      </trkpt>
      <trkpt lat="48.76981" lon="-3.57767">
        <ele>49.9</ele>
        <time>2019-07-11T10:33:47Z</time>
      </trkpt>
      <trkpt lat="48.76979" lon="-3.57768">
        <ele>50.1</ele>
        <time>2019-07-11T10:33:48Z</time>
      </trkpt>
      <trkpt lat="48.76976" lon="-3.57769">
        <ele>50</ele>
        <time>2019-07-11T10:33:49Z</time>
      </trkpt>
      <trkpt lat="48.76974" lon="-3.5777">
        <ele>49.9</ele>
        <time>2019-07-11T10:33:50Z</time>
      </trkpt>
      <trkpt lat="48.76971" lon="-3.57771">
        <ele>49.9</ele>
        <time>2019-07-11T10:33:51Z</time>
      </trkpt>
      <trkpt lat="48.76968" lon="-3.57773">
        <ele>50.2</ele>
        <time>2019-07-11T10:33:52Z</time>
      </trkpt>
      <trkpt lat="48.76966" lon="-3.57774">
        <ele>49.9</ele>
        <time>2019-07-11T10:33:53Z</time>
      </trkpt>
      <trkpt lat="48.76963" lon="-3.57775">
        <ele>49.9</ele>
        <time>2019-07-11T10:33:54Z</time>
      </trkpt>
      <trkpt lat="48.7696" lon="-3.57776">
        <ele>50</ele>
        <time>2019-07-11T10:33:55Z</time>
      </trkpt>
      <trkpt lat="48.76958" lon="-3.57777">
        <ele>50.3</ele>
        <time>2019-07-11T10:33:56Z</time>
      </trkpt>
      <trkpt lat="48.76955" lon="-3.57778">
        <ele>50.1</ele>
        <time>2019-07-11T10:33:57Z</time>
      </trkpt>
      <trkpt lat="48.76953" lon="-3.5778">
        <ele>50</ele>
        <time>2019-07-11T10:33:58Z</time>
      </trkpt>
      <trkpt lat="48.7695" lon="-3.57781">
        <ele>50.1</ele>
        <time>2019-07-11T10:33:59Z</time>
      </trkpt>
      <trkpt lat="48.76947" lon="-3.57782">
        <ele>49.5</ele>
        <time>2019-07-11T10:34:00Z</time>
      </trkpt>
      <trkpt lat="48.76945" lon="-3.57784">
        <ele>49.3</ele>
        <time>2019-07-11T10:34:01Z</time>
      </trkpt>
      <trkpt lat="48.76943" lon="-3.57785">
        <ele>49.2</ele>
        <time>2019-07-11T10:34:02Z</time>
      </trkpt>
      <trkpt lat="48.76941" lon="-3.57786">
        <ele>49.2</ele>
        <time>2019-07-11T10:34:03Z</time>
      </trkpt>
      <trkpt lat="48.76939" lon="-3.57787">
        <ele>48.9</ele>
        <time>2019-07-11T10:34:04Z</time>
      </trkpt>
      <trkpt lat="48.76937" lon="-3.57788">
        <ele>48.7</ele>
        <time>2019-07-11T10:34:05Z</time>
      </trkpt>
      <trkpt lat="48.76934" lon="-3.57789">
        <ele>48.4</ele>
        <time>2019-07-11T10:34:06Z</time>
      </trkpt>
      <trkpt lat="48.76932" lon="-3.57791">
        <ele>48.3</ele>
        <time>2019-07-11T10:34:07Z</time>
      </trkpt>
      <trkpt lat="48.7693" lon="-3.57792">
        <ele>48.1</ele>
        <time>2019-07-11T10:34:08Z</time>
      </trkpt>
      <trkpt lat="48.76928" lon="-3.57794">
        <ele>48.1</ele>
        <time>2019-07-11T10:34:09Z</time>
      </trkpt>
      <trkpt lat="48.76926" lon="-3.57795">
        <ele>48.1</ele>
        <time>2019-07-11T10:34:10Z</time>
      </trkpt>
      <trkpt lat="48.76923" lon="-3.57797">
        <ele>48.2</ele>
        <time>2019-07-11T10:34:11Z</time>
      </trkpt>
      <trkpt lat="48.76921" lon="-3.57798">
        <ele>48.3</ele>
        <time>2019-07-11T10:34:12Z</time>
      </trkpt>
      <trkpt lat="48.76918" lon="-3.57799">
        <ele>48.3</ele>
        <time>2019-07-11T10:34:13Z</time>
      </trkpt>
      <trkpt lat="48.76916" lon="-3.57801">
        <ele>48.1</ele>
        <time>2019-07-11T10:34:14Z</time>
      </trkpt>
      <trkpt lat="48.76914" lon="-3.57802">
        <ele>48.2</ele>
        <time>2019-07-11T10:34:15Z</time>
      </trkpt>
      <trkpt lat="48.76912" lon="-3.57803">
        <ele>48.3</ele>
        <time>2019-07-11T10:34:16Z</time>
      </trkpt>
      <trkpt lat="48.76909" lon="-3.57804">
        <ele>48.4</ele>
        <time>2019-07-11T10:34:17Z</time>
      </trkpt>
      <trkpt lat="48.76907" lon="-3.57805">
        <ele>48.5</ele>
        <time>2019-07-11T10:34:18Z</time>
      </trkpt>
      <trkpt lat="48.76904" lon="-3.57805">
        <ele>48.7</ele>
        <time>2019-07-11T10:34:19Z</time>
      </trkpt>
      <trkpt lat="48.76902" lon="-3.57806">
        <ele>48.7</ele>
        <time>2019-07-11T10:34:20Z</time>
      </trkpt>
      <trkpt lat="48.76899" lon="-3.57806">
        <ele>48.8</ele>
        <time>2019-07-11T10:34:21Z</time>
      </trkpt>
      <trkpt lat="48.76897" lon="-3.57807">
        <ele>49</ele>
        <time>2019-07-11T10:34:22Z</time>
      </trkpt>
      <trkpt lat="48.76896" lon="-3.57808">
        <ele>49.2</ele>
        <time>2019-07-11T10:34:23Z</time>
      </trkpt>
      <trkpt lat="48.76894" lon="-3.57809">
        <ele>49.6</ele>
        <time>2019-07-11T10:34:24Z</time>
      </trkpt>
      <trkpt lat="48.76893" lon="-3.5781">
        <ele>50.1</ele>
        <time>2019-07-11T10:34:25Z</time>
      </trkpt>
      <trkpt lat="48.76891" lon="-3.57811">
        <ele>50.4</ele>
        <time>2019-07-11T10:34:26Z</time>
      </trkpt>
      <trkpt lat="48.76888" lon="-3.57811">
        <ele>50.9</ele>
        <time>2019-07-11T10:34:27Z</time>
      </trkpt>
      <trkpt lat="48.76886" lon="-3.57812">
        <ele>51.2</ele>
        <time>2019-07-11T10:34:28Z</time>
      </trkpt>
      <trkpt lat="48.76884" lon="-3.57813">
        <ele>51.3</ele>
        <time>2019-07-11T10:34:29Z</time>
      </trkpt>
      <trkpt lat="48.76882" lon="-3.57813">
        <ele>51.1</ele>
        <time>2019-07-11T10:34:30Z</time>
      </trkpt>
      <trkpt lat="48.7688" lon="-3.57815">
        <ele>51</ele>
        <time>2019-07-11T10:34:31Z</time>
      </trkpt>
      <trkpt lat="48.76878" lon="-3.57816">
        <ele>50.7</ele>
        <time>2019-07-11T10:34:32Z</time>
      </trkpt>
      <trkpt lat="48.76877" lon="-3.57818">
        <ele>50.4</ele>
        <time>2019-07-11T10:34:33Z</time>
      </trkpt>
      <trkpt lat="48.76875" lon="-3.57819">
        <ele>50.2</ele>
        <time>2019-07-11T10:34:34Z</time>
      </trkpt>
      <trkpt lat="48.76872" lon="-3.57819">
        <ele>50.1</ele>
        <time>2019-07-11T10:34:35Z</time>
      </trkpt>
      <trkpt lat="48.76869" lon="-3.57819">
        <ele>50</ele>
        <time>2019-07-11T10:34:36Z</time>
      </trkpt>
      <trkpt lat="48.76866" lon="-3.57819">
        <ele>49.7</ele>
        <time>2019-07-11T10:34:37Z</time>
      </trkpt>
      <trkpt lat="48.76864" lon="-3.57819">
        <ele>49.6</ele>
        <time>2019-07-11T10:34:38Z</time>
      </trkpt>
      <trkpt lat="48.76861" lon="-3.57819">
        <ele>49.6</ele>
        <time>2019-07-11T10:34:39Z</time>
      </trkpt>
      <trkpt lat="48.76859" lon="-3.57819">
        <ele>49.6</ele>
        <time>2019-07-11T10:34:40Z</time>
      </trkpt>
      <trkpt lat="48.76857" lon="-3.57819">
        <ele>49.8</ele>
        <time>2019-07-11T10:34:41Z</time>
      </trkpt>
      <trkpt lat="48.76854" lon="-3.57819">
        <ele>49.9</ele>
        <time>2019-07-11T10:34:42Z</time>
      </trkpt>
      <trkpt lat="48.76852" lon="-3.57818">
        <ele>50.2</ele>
        <time>2019-07-11T10:34:43Z</time>
      </trkpt>
      <trkpt lat="48.76849" lon="-3.57818">
        <ele>50.6</ele>
        <time>2019-07-11T10:34:44Z</time>
      </trkpt>
      <trkpt lat="48.76847" lon="-3.57818">
        <ele>51</ele>
        <time>2019-07-11T10:34:45Z</time>
      </trkpt>
      <trkpt lat="48.76844" lon="-3.57817">
        <ele>51.3</ele>
        <time>2019-07-11T10:34:46Z</time>
      </trkpt>
      <trkpt lat="48.76842" lon="-3.57817">
        <ele>51.4</ele>
        <time>2019-07-11T10:34:47Z</time>
      </trkpt>
      <trkpt lat="48.7684" lon="-3.57817">
        <ele>51.5</ele>
        <time>2019-07-11T10:34:48Z</time>
      </trkpt>
      <trkpt lat="48.76838" lon="-3.57816">
        <ele>51.9</ele>
        <time>2019-07-11T10:34:49Z</time>
      </trkpt>
      <trkpt lat="48.76835" lon="-3.57816">
        <ele>52</ele>
        <time>2019-07-11T10:34:50Z</time>
      </trkpt>
      <trkpt lat="48.76833" lon="-3.57815">
        <ele>52.4</ele>
        <time>2019-07-11T10:34:51Z</time>
      </trkpt>
      <trkpt lat="48.76831" lon="-3.57813">
        <ele>54.4</ele>
        <time>2019-07-11T10:34:52Z</time>
      </trkpt>
      <trkpt lat="48.76829" lon="-3.57813">
        <ele>52</ele>
        <time>2019-07-11T10:34:53Z</time>
      </trkpt>
      <trkpt lat="48.76827" lon="-3.57812">
        <ele>52.3</ele>
        <time>2019-07-11T10:34:54Z</time>
      </trkpt>
      <trkpt lat="48.76824" lon="-3.57811">
        <ele>52.4</ele>
        <time>2019-07-11T10:34:55Z</time>
      </trkpt>
      <trkpt lat="48.76822" lon="-3.57811">
        <ele>52.9</ele>
        <time>2019-07-11T10:34:56Z</time>
      </trkpt>
      <trkpt lat="48.7682" lon="-3.5781">
        <ele>53.1</ele>
        <time>2019-07-11T10:34:57Z</time>
      </trkpt>
      <trkpt lat="48.76817" lon="-3.57809">
        <ele>53.3</ele>
        <time>2019-07-11T10:34:58Z</time>
      </trkpt>
      <trkpt lat="48.76815" lon="-3.57808">
        <ele>53.8</ele>
        <time>2019-07-11T10:34:59Z</time>
      </trkpt>
      <trkpt lat="48.76813" lon="-3.57807">
        <ele>54.2</ele>
        <time>2019-07-11T10:35:00Z</time>
      </trkpt>
      <trkpt lat="48.76811" lon="-3.57806">
        <ele>54.7</ele>
        <time>2019-07-11T10:35:01Z</time>
      </trkpt>
      <trkpt lat="48.76809" lon="-3.57805">
        <ele>55</ele>
        <time>2019-07-11T10:35:02Z</time>
      </trkpt>
      <trkpt lat="48.76807" lon="-3.57804">
        <ele>55.3</ele>
        <time>2019-07-11T10:35:03Z</time>
      </trkpt>
      <trkpt lat="48.76804" lon="-3.57803">
        <ele>55.4</ele>
        <time>2019-07-11T10:35:04Z</time>
      </trkpt>
      <trkpt lat="48.76802" lon="-3.57803">
        <ele>55.7</ele>
        <time>2019-07-11T10:35:05Z</time>
      </trkpt>
      <trkpt lat="48.768" lon="-3.57802">
        <ele>55.8</ele>
        <time>2019-07-11T10:35:06Z</time>
      </trkpt>
      <trkpt lat="48.76798" lon="-3.57801">
        <ele>55.6</ele>
        <time>2019-07-11T10:35:07Z</time>
      </trkpt>
      <trkpt lat="48.76796" lon="-3.578">
        <ele>55.5</ele>
        <time>2019-07-11T10:35:08Z</time>
      </trkpt>
      <trkpt lat="48.76794" lon="-3.57799">
        <ele>55.2</ele>
        <time>2019-07-11T10:35:09Z</time>
      </trkpt>
      <trkpt lat="48.76792" lon="-3.57798">
        <ele>55</ele>
        <time>2019-07-11T10:35:10Z</time>
      </trkpt>
      <trkpt lat="48.7679" lon="-3.57797">
        <ele>55.1</ele>
        <time>2019-07-11T10:35:11Z</time>
      </trkpt>
      <trkpt lat="48.76788" lon="-3.57796">
        <ele>55.1</ele>
        <time>2019-07-11T10:35:12Z</time>
      </trkpt>
      <trkpt lat="48.76787" lon="-3.57796">
        <ele>55.5</ele>
        <time>2019-07-11T10:35:13Z</time>
      </trkpt>
      <trkpt lat="48.76783" lon="-3.57794">
        <ele>55.8</ele>
        <time>2019-07-11T10:36:09Z</time>
      </trkpt>
      <trkpt lat="48.76781" lon="-3.57791">
        <ele>55.8</ele>
        <time>2019-07-11T10:36:10Z</time>
      </trkpt>
      <trkpt lat="48.76779" lon="-3.57789">
        <ele>55.8</ele>
        <time>2019-07-11T10:36:11Z</time>
      </trkpt>
      <trkpt lat="48.76777" lon="-3.57787">
        <ele>55.9</ele>
        <time>2019-07-11T10:36:12Z</time>
      </trkpt>
      <trkpt lat="48.76775" lon="-3.57786">
        <ele>55.7</ele>
        <time>2019-07-11T10:36:13Z</time>
      </trkpt>
      <trkpt lat="48.76774" lon="-3.57785">
        <ele>55.8</ele>
        <time>2019-07-11T10:36:14Z</time>
      </trkpt>
      <trkpt lat="48.76772" lon="-3.57783">
        <ele>55.9</ele>
        <time>2019-07-11T10:36:15Z</time>
      </trkpt>
      <trkpt lat="48.7677" lon="-3.57782">
        <ele>56</ele>
        <time>2019-07-11T10:36:16Z</time>
      </trkpt>
      <trkpt lat="48.76768" lon="-3.57782">
        <ele>55.8</ele>
        <time>2019-07-11T10:36:17Z</time>
      </trkpt>
      <trkpt lat="48.76766" lon="-3.57781">
        <ele>55.9</ele>
        <time>2019-07-11T10:36:18Z</time>
      </trkpt>
      <trkpt lat="48.76764" lon="-3.5778">
        <ele>55.8</ele>
        <time>2019-07-11T10:36:19Z</time>
      </trkpt>
      <trkpt lat="48.76761" lon="-3.57778">
        <ele>55.5</ele>
        <time>2019-07-11T10:36:20Z</time>
      </trkpt>
      <trkpt lat="48.76759" lon="-3.57776">
        <ele>55.5</ele>
        <time>2019-07-11T10:36:21Z</time>
      </trkpt>
      <trkpt lat="48.76756" lon="-3.57774">
        <ele>55.8</ele>
        <time>2019-07-11T10:36:22Z</time>
      </trkpt>
      <trkpt lat="48.76754" lon="-3.57773">
        <ele>55.7</ele>
        <time>2019-07-11T10:36:23Z</time>
      </trkpt>
      <trkpt lat="48.76751" lon="-3.5777">
        <ele>55.9</ele>
        <time>2019-07-11T10:36:24Z</time>
      </trkpt>
      <trkpt lat="48.76749" lon="-3.57768">
        <ele>56</ele>
        <time>2019-07-11T10:36:25Z</time>
      </trkpt>
      <trkpt lat="48.76747" lon="-3.57766">
        <ele>56.1</ele>
        <time>2019-07-11T10:36:26Z</time>
      </trkpt>
      <trkpt lat="48.76745" lon="-3.57764">
        <ele>56.3</ele>
        <time>2019-07-11T10:36:27Z</time>
      </trkpt>
      <trkpt lat="48.76743" lon="-3.57762">
        <ele>55.9</ele>
        <time>2019-07-11T10:36:28Z</time>
      </trkpt>
      <trkpt lat="48.76741" lon="-3.5776">
        <ele>55.8</ele>
        <time>2019-07-11T10:36:29Z</time>
      </trkpt>
      <trkpt lat="48.7674" lon="-3.57757">
        <ele>55.7</ele>
        <time>2019-07-11T10:36:30Z</time>
      </trkpt>
      <trkpt lat="48.76737" lon="-3.57754">
        <ele>56.2</ele>
        <time>2019-07-11T10:36:31Z</time>
      </trkpt>
      <trkpt lat="48.76735" lon="-3.57751">
        <ele>56.5</ele>
        <time>2019-07-11T10:36:32Z</time>
      </trkpt>
      <trkpt lat="48.76733" lon="-3.57749">
        <ele>56.4</ele>
        <time>2019-07-11T10:36:33Z</time>
      </trkpt>
      <trkpt lat="48.76731" lon="-3.57746">
        <ele>56.5</ele>
        <time>2019-07-11T10:36:34Z</time>
      </trkpt>
      <trkpt lat="48.76729" lon="-3.57743">
        <ele>56.7</ele>
        <time>2019-07-11T10:36:35Z</time>
      </trkpt>
      <trkpt lat="48.76727" lon="-3.57741">
        <ele>56.7</ele>
        <time>2019-07-11T10:36:36Z</time>
      </trkpt>
      <trkpt lat="48.76725" lon="-3.57739">
        <ele>56.8</ele>
        <time>2019-07-11T10:36:37Z</time>
      </trkpt>
      <trkpt lat="48.76723" lon="-3.57736">
        <ele>57</ele>
        <time>2019-07-11T10:36:38Z</time>
      </trkpt>
      <trkpt lat="48.76722" lon="-3.57733">
        <ele>57.7</ele>
        <time>2019-07-11T10:36:39Z</time>
      </trkpt>
      <trkpt lat="48.7672" lon="-3.5773">
        <ele>58.3</ele>
        <time>2019-07-11T10:36:40Z</time>
      </trkpt>
      <trkpt lat="48.76719" lon="-3.57727">
        <ele>58.3</ele>
        <time>2019-07-11T10:36:41Z</time>
      </trkpt>
      <trkpt lat="48.76717" lon="-3.57724">
        <ele>58.7</ele>
        <time>2019-07-11T10:36:42Z</time>
      </trkpt>
      <trkpt lat="48.76716" lon="-3.57721">
        <ele>58.7</ele>
        <time>2019-07-11T10:36:43Z</time>
      </trkpt>
      <trkpt lat="48.76714" lon="-3.57718">
        <ele>59</ele>
        <time>2019-07-11T10:36:44Z</time>
      </trkpt>
      <trkpt lat="48.76712" lon="-3.57715">
        <ele>59.6</ele>
        <time>2019-07-11T10:36:45Z</time>
      </trkpt>
      <trkpt lat="48.76711" lon="-3.57711">
        <ele>59.5</ele>
        <time>2019-07-11T10:36:46Z</time>
      </trkpt>
      <trkpt lat="48.76708" lon="-3.57708">
        <ele>59.5</ele>
        <time>2019-07-11T10:36:47Z</time>
      </trkpt>
      <trkpt lat="48.76706" lon="-3.57705">
        <ele>59.5</ele>
        <time>2019-07-11T10:36:48Z</time>
      </trkpt>
      <trkpt lat="48.76705" lon="-3.57702">
        <ele>59.2</ele>
        <time>2019-07-11T10:36:49Z</time>
      </trkpt>
      <trkpt lat="48.76703" lon="-3.57698">
        <ele>59</ele>
        <time>2019-07-11T10:36:50Z</time>
      </trkpt>
      <trkpt lat="48.767" lon="-3.57694">
        <ele>58.8</ele>
        <time>2019-07-11T10:36:51Z</time>
      </trkpt>
      <trkpt lat="48.76698" lon="-3.5769">
        <ele>59</ele>
        <time>2019-07-11T10:36:52Z</time>
      </trkpt>
      <trkpt lat="48.76696" lon="-3.57686">
        <ele>59.1</ele>
        <time>2019-07-11T10:36:53Z</time>
      </trkpt>
      <trkpt lat="48.76693" lon="-3.57682">
        <ele>59.3</ele>
        <time>2019-07-11T10:36:54Z</time>
      </trkpt>
      <trkpt lat="48.76691" lon="-3.57677">
        <ele>59.7</ele>
        <time>2019-07-11T10:36:55Z</time>
      </trkpt>
      <trkpt lat="48.76689" lon="-3.57672">
        <ele>60.4</ele>
        <time>2019-07-11T10:36:56Z</time>
      </trkpt>
      <trkpt lat="48.76686" lon="-3.57667">
        <ele>60.7</ele>
        <time>2019-07-11T10:36:57Z</time>
      </trkpt>
      <trkpt lat="48.76683" lon="-3.57662">
        <ele>60.7</ele>
        <time>2019-07-11T10:36:58Z</time>
      </trkpt>
      <trkpt lat="48.7668" lon="-3.57657">
        <ele>61</ele>
        <time>2019-07-11T10:36:59Z</time>
      </trkpt>
      <trkpt lat="48.76677" lon="-3.57651">
        <ele>61</ele>
        <time>2019-07-11T10:37:00Z</time>
      </trkpt>
      <trkpt lat="48.76674" lon="-3.57645">
        <ele>61.1</ele>
        <time>2019-07-11T10:37:01Z</time>
      </trkpt>
      <trkpt lat="48.76671" lon="-3.5764">
        <ele>61</ele>
        <time>2019-07-11T10:37:02Z</time>
      </trkpt>
      <trkpt lat="48.76668" lon="-3.57634">
        <ele>60.9</ele>
        <time>2019-07-11T10:37:03Z</time>
      </trkpt>
      <trkpt lat="48.76665" lon="-3.57629">
        <ele>60.7</ele>
        <time>2019-07-11T10:37:04Z</time>
      </trkpt>
      <trkpt lat="48.76662" lon="-3.57624">
        <ele>60.4</ele>
        <time>2019-07-11T10:37:05Z</time>
      </trkpt>
      <trkpt lat="48.76659" lon="-3.57619">
        <ele>59.6</ele>
        <time>2019-07-11T10:37:06Z</time>
      </trkpt>
      <trkpt lat="48.76656" lon="-3.57614">
        <ele>59.1</ele>
        <time>2019-07-11T10:37:07Z</time>
      </trkpt>
      <trkpt lat="48.76652" lon="-3.57609">
        <ele>58.6</ele>
        <time>2019-07-11T10:37:08Z</time>
      </trkpt>
      <trkpt lat="48.76649" lon="-3.57604">
        <ele>58.4</ele>
        <time>2019-07-11T10:37:09Z</time>
      </trkpt>
      <trkpt lat="48.76645" lon="-3.576">
        <ele>58.2</ele>
        <time>2019-07-11T10:37:10Z</time>
      </trkpt>
      <trkpt lat="48.76642" lon="-3.57597">
        <ele>58.2</ele>
        <time>2019-07-11T10:37:11Z</time>
      </trkpt>
      <trkpt lat="48.76638" lon="-3.57593">
        <ele>58</ele>
        <time>2019-07-11T10:37:12Z</time>
      </trkpt>
      <trkpt lat="48.76635" lon="-3.5759">
        <ele>57.9</ele>
        <time>2019-07-11T10:37:13Z</time>
      </trkpt>
      <trkpt lat="48.76632" lon="-3.57587">
        <ele>57.5</ele>
        <time>2019-07-11T10:37:14Z</time>
      </trkpt>
      <trkpt lat="48.76629" lon="-3.57585">
        <ele>57</ele>
        <time>2019-07-11T10:37:15Z</time>
      </trkpt>
      <trkpt lat="48.76625" lon="-3.57583">
        <ele>56.8</ele>
        <time>2019-07-11T10:37:16Z</time>
      </trkpt>
      <trkpt lat="48.76622" lon="-3.57581">
        <ele>56.5</ele>
        <time>2019-07-11T10:37:17Z</time>
      </trkpt>
      <trkpt lat="48.76618" lon="-3.57578">
        <ele>56.4</ele>
        <time>2019-07-11T10:37:18Z</time>
      </trkpt>
      <trkpt lat="48.76615" lon="-3.57576">
        <ele>56.2</ele>
        <time>2019-07-11T10:37:19Z</time>
      </trkpt>
      <trkpt lat="48.76612" lon="-3.57575">
        <ele>55.9</ele>
        <time>2019-07-11T10:37:20Z</time>
      </trkpt>
      <trkpt lat="48.76609" lon="-3.57574">
        <ele>55.7</ele>
        <time>2019-07-11T10:37:21Z</time>
      </trkpt>
      <trkpt lat="48.76606" lon="-3.57573">
        <ele>55.6</ele>
        <time>2019-07-11T10:37:22Z</time>
      </trkpt>
      <trkpt lat="48.76604" lon="-3.57572">
        <ele>55.9</ele>
        <time>2019-07-11T10:37:23Z</time>
      </trkpt>
      <trkpt lat="48.76601" lon="-3.57571">
        <ele>56.6</ele>
        <time>2019-07-11T10:37:24Z</time>
      </trkpt>
      <trkpt lat="48.76599" lon="-3.5757">
        <ele>56.8</ele>
        <time>2019-07-11T10:37:25Z</time>
      </trkpt>
      <trkpt lat="48.76597" lon="-3.57568">
        <ele>58</ele>
        <time>2019-07-11T10:37:26Z</time>
      </trkpt>
      <trkpt lat="48.76594" lon="-3.57568">
        <ele>57.6</ele>
        <time>2019-07-11T10:37:27Z</time>
      </trkpt>
      <trkpt lat="48.76592" lon="-3.57567">
        <ele>57.5</ele>
        <time>2019-07-11T10:37:28Z</time>
      </trkpt>
      <trkpt lat="48.76589" lon="-3.57567">
        <ele>57</ele>
        <time>2019-07-11T10:37:29Z</time>
      </trkpt>
      <trkpt lat="48.76586" lon="-3.57566">
        <ele>56.9</ele>
        <time>2019-07-11T10:37:30Z</time>
      </trkpt>
      <trkpt lat="48.76582" lon="-3.57565">
        <ele>56.7</ele>
        <time>2019-07-11T10:37:31Z</time>
      </trkpt>
      <trkpt lat="48.76579" lon="-3.57564">
        <ele>56.5</ele>
        <time>2019-07-11T10:37:32Z</time>
      </trkpt>
      <trkpt lat="48.76576" lon="-3.57563">
        <ele>57</ele>
        <time>2019-07-11T10:37:33Z</time>
      </trkpt>
      <trkpt lat="48.76574" lon="-3.57562">
        <ele>57.1</ele>
        <time>2019-07-11T10:37:34Z</time>
      </trkpt>
      <trkpt lat="48.76571" lon="-3.57561">
        <ele>57.6</ele>
        <time>2019-07-11T10:37:35Z</time>
      </trkpt>
      <trkpt lat="48.76569" lon="-3.57561">
        <ele>57.6</ele>
        <time>2019-07-11T10:37:36Z</time>
      </trkpt>
      <trkpt lat="48.76566" lon="-3.5756">
        <ele>57.9</ele>
        <time>2019-07-11T10:37:37Z</time>
      </trkpt>
      <trkpt lat="48.76564" lon="-3.5756">
        <ele>58.4</ele>
        <time>2019-07-11T10:37:38Z</time>
      </trkpt>
      <trkpt lat="48.76561" lon="-3.57559">
        <ele>58.9</ele>
        <time>2019-07-11T10:37:39Z</time>
      </trkpt>
      <trkpt lat="48.76559" lon="-3.57558">
        <ele>59.5</ele>
        <time>2019-07-11T10:37:40Z</time>
      </trkpt>
      <trkpt lat="48.76557" lon="-3.57558">
        <ele>60.1</ele>
        <time>2019-07-11T10:37:41Z</time>
      </trkpt>
      <trkpt lat="48.76554" lon="-3.57557">
        <ele>60.9</ele>
        <time>2019-07-11T10:37:42Z</time>
      </trkpt>
      <trkpt lat="48.76552" lon="-3.57557">
        <ele>62.1</ele>
        <time>2019-07-11T10:37:43Z</time>
      </trkpt>
      <trkpt lat="48.7655" lon="-3.57557">
        <ele>62.9</ele>
        <time>2019-07-11T10:37:44Z</time>
      </trkpt>
      <trkpt lat="48.76547" lon="-3.57557">
        <ele>63.6</ele>
        <time>2019-07-11T10:37:45Z</time>
      </trkpt>
      <trkpt lat="48.76544" lon="-3.57557">
        <ele>63.8</ele>
        <time>2019-07-11T10:37:46Z</time>
      </trkpt>
      <trkpt lat="48.76541" lon="-3.57556">
        <ele>64.1</ele>
        <time>2019-07-11T10:37:47Z</time>
      </trkpt>
      <trkpt lat="48.76537" lon="-3.57556">
        <ele>64.3</ele>
        <time>2019-07-11T10:37:48Z</time>
      </trkpt>
      <trkpt lat="48.76534" lon="-3.57555">
        <ele>64.3</ele>
        <time>2019-07-11T10:37:49Z</time>
      </trkpt>
      <trkpt lat="48.76531" lon="-3.57555">
        <ele>64.3</ele>
        <time>2019-07-11T10:37:50Z</time>
      </trkpt>
      <trkpt lat="48.76528" lon="-3.57556">
        <ele>63.6</ele>
        <time>2019-07-11T10:37:51Z</time>
      </trkpt>
      <trkpt lat="48.76525" lon="-3.57557">
        <ele>63.8</ele>
        <time>2019-07-11T10:37:52Z</time>
      </trkpt>
      <trkpt lat="48.76522" lon="-3.57557">
        <ele>63.7</ele>
        <time>2019-07-11T10:37:53Z</time>
      </trkpt>
      <trkpt lat="48.76519" lon="-3.57557">
        <ele>63.5</ele>
        <time>2019-07-11T10:37:54Z</time>
      </trkpt>
      <trkpt lat="48.76516" lon="-3.57556">
        <ele>63.5</ele>
        <time>2019-07-11T10:37:55Z</time>
      </trkpt>
      <trkpt lat="48.76514" lon="-3.57556">
        <ele>63.5</ele>
        <time>2019-07-11T10:37:56Z</time>
      </trkpt>
      <trkpt lat="48.7651" lon="-3.57556">
        <ele>63.7</ele>
        <time>2019-07-11T10:37:57Z</time>
      </trkpt>
      <trkpt lat="48.76507" lon="-3.57556">
        <ele>64.1</ele>
        <time>2019-07-11T10:37:58Z</time>
      </trkpt>
      <trkpt lat="48.76504" lon="-3.57556">
        <ele>64.1</ele>
        <time>2019-07-11T10:37:59Z</time>
      </trkpt>
      <trkpt lat="48.76501" lon="-3.57555">
        <ele>64.2</ele>
        <time>2019-07-11T10:38:00Z</time>
      </trkpt>
      <trkpt lat="48.76498" lon="-3.57555">
        <ele>64.2</ele>
        <time>2019-07-11T10:38:01Z</time>
      </trkpt>
      <trkpt lat="48.76494" lon="-3.57554">
        <ele>64.4</ele>
        <time>2019-07-11T10:38:02Z</time>
      </trkpt>
      <trkpt lat="48.76491" lon="-3.57554">
        <ele>64.7</ele>
        <time>2019-07-11T10:38:03Z</time>
      </trkpt>
      <trkpt lat="48.76487" lon="-3.57554">
        <ele>64.9</ele>
        <time>2019-07-11T10:38:04Z</time>
      </trkpt>
      <trkpt lat="48.76484" lon="-3.57554">
        <ele>65.1</ele>
        <time>2019-07-11T10:38:05Z</time>
      </trkpt>
      <trkpt lat="48.76481" lon="-3.57554">
        <ele>65.5</ele>
        <time>2019-07-11T10:38:06Z</time>
      </trkpt>
      <trkpt lat="48.76477" lon="-3.57555">
        <ele>65.5</ele>
        <time>2019-07-11T10:38:07Z</time>
      </trkpt>
      <trkpt lat="48.76474" lon="-3.57556">
        <ele>65.6</ele>
        <time>2019-07-11T10:38:08Z</time>
      </trkpt>
      <trkpt lat="48.76471" lon="-3.57556">
        <ele>65.6</ele>
        <time>2019-07-11T10:38:09Z</time>
      </trkpt>
      <trkpt lat="48.76468" lon="-3.57556">
        <ele>65.6</ele>
        <time>2019-07-11T10:38:10Z</time>
      </trkpt>
      <trkpt lat="48.76463" lon="-3.57555">
        <ele>65.4</ele>
        <time>2019-07-11T10:38:11Z</time>
      </trkpt>
      <trkpt lat="48.7646" lon="-3.57556">
        <ele>65.3</ele>
        <time>2019-07-11T10:38:12Z</time>
      </trkpt>
      <trkpt lat="48.76456" lon="-3.57556">
        <ele>65.2</ele>
        <time>2019-07-11T10:38:13Z</time>
      </trkpt>
      <trkpt lat="48.76453" lon="-3.57556">
        <ele>65.1</ele>
        <time>2019-07-11T10:38:14Z</time>
      </trkpt>
      <trkpt lat="48.76449" lon="-3.57556">
        <ele>65.1</ele>
        <time>2019-07-11T10:38:15Z</time>
      </trkpt>
      <trkpt lat="48.76445" lon="-3.57556">
        <ele>65</ele>
        <time>2019-07-11T10:38:16Z</time>
      </trkpt>
      <trkpt lat="48.76441" lon="-3.57557">
        <ele>65.1</ele>
        <time>2019-07-11T10:38:17Z</time>
      </trkpt>
      <trkpt lat="48.76437" lon="-3.57558">
        <ele>65.4</ele>
        <time>2019-07-11T10:38:18Z</time>
      </trkpt>
      <trkpt lat="48.76434" lon="-3.57557">
        <ele>65.5</ele>
        <time>2019-07-11T10:38:19Z</time>
      </trkpt>
      <trkpt lat="48.7643" lon="-3.57557">
        <ele>65.4</ele>
        <time>2019-07-11T10:38:20Z</time>
      </trkpt>
      <trkpt lat="48.76426" lon="-3.57557">
        <ele>65.6</ele>
        <time>2019-07-11T10:38:21Z</time>
      </trkpt>
      <trkpt lat="48.76423" lon="-3.57556">
        <ele>66</ele>
        <time>2019-07-11T10:38:22Z</time>
      </trkpt>
      <trkpt lat="48.7642" lon="-3.57556">
        <ele>66.1</ele>
        <time>2019-07-11T10:38:23Z</time>
      </trkpt>
      <trkpt lat="48.76416" lon="-3.57556">
        <ele>66.1</ele>
        <time>2019-07-11T10:38:24Z</time>
      </trkpt>
      <trkpt lat="48.76413" lon="-3.57556">
        <ele>66</ele>
        <time>2019-07-11T10:38:25Z</time>
      </trkpt>
      <trkpt lat="48.76409" lon="-3.57555">
        <ele>66</ele>
        <time>2019-07-11T10:38:26Z</time>
      </trkpt>
      <trkpt lat="48.76405" lon="-3.57555">
        <ele>66.4</ele>
        <time>2019-07-11T10:38:27Z</time>
      </trkpt>
      <trkpt lat="48.76402" lon="-3.57555">
        <ele>66.5</ele>
        <time>2019-07-11T10:38:28Z</time>
      </trkpt>
      <trkpt lat="48.76398" lon="-3.57554">
        <ele>66.3</ele>
        <time>2019-07-11T10:38:29Z</time>
      </trkpt>
      <trkpt lat="48.76394" lon="-3.57554">
        <ele>66.6</ele>
        <time>2019-07-11T10:38:30Z</time>
      </trkpt>
      <trkpt lat="48.76391" lon="-3.57553">
        <ele>67</ele>
        <time>2019-07-11T10:38:31Z</time>
      </trkpt>
      <trkpt lat="48.76386" lon="-3.57553">
        <ele>66.9</ele>
        <time>2019-07-11T10:38:32Z</time>
      </trkpt>
      <trkpt lat="48.76382" lon="-3.57553">
        <ele>66.8</ele>
        <time>2019-07-11T10:38:33Z</time>
      </trkpt>
      <trkpt lat="48.76379" lon="-3.57553">
        <ele>66.9</ele>
        <time>2019-07-11T10:38:34Z</time>
      </trkpt>
      <trkpt lat="48.76374" lon="-3.57553">
        <ele>67</ele>
        <time>2019-07-11T10:38:35Z</time>
      </trkpt>
      <trkpt lat="48.7637" lon="-3.57552">
        <ele>66.7</ele>
        <time>2019-07-11T10:38:36Z</time>
      </trkpt>
      <trkpt lat="48.76366" lon="-3.5755">
        <ele>66.9</ele>
        <time>2019-07-11T10:38:37Z</time>
      </trkpt>
      <trkpt lat="48.76363" lon="-3.57549">
        <ele>67.1</ele>
        <time>2019-07-11T10:38:38Z</time>
      </trkpt>
      <trkpt lat="48.76359" lon="-3.57548">
        <ele>67.5</ele>
        <time>2019-07-11T10:38:39Z</time>
      </trkpt>
      <trkpt lat="48.76356" lon="-3.57546">
        <ele>68.1</ele>
        <time>2019-07-11T10:38:40Z</time>
      </trkpt>
      <trkpt lat="48.76352" lon="-3.57546">
        <ele>68.3</ele>
        <time>2019-07-11T10:38:41Z</time>
      </trkpt>
      <trkpt lat="48.76349" lon="-3.57545">
        <ele>68.5</ele>
        <time>2019-07-11T10:38:42Z</time>
      </trkpt>
      <trkpt lat="48.76345" lon="-3.57543">
        <ele>68.6</ele>
        <time>2019-07-11T10:38:43Z</time>
      </trkpt>
      <trkpt lat="48.76342" lon="-3.57542">
        <ele>68.3</ele>
        <time>2019-07-11T10:38:44Z</time>
      </trkpt>
      <trkpt lat="48.76339" lon="-3.5754">
        <ele>68.3</ele>
        <time>2019-07-11T10:38:45Z</time>
      </trkpt>
      <trkpt lat="48.76336" lon="-3.57539">
        <ele>68.3</ele>
        <time>2019-07-11T10:38:46Z</time>
      </trkpt>
      <trkpt lat="48.76333" lon="-3.57538">
        <ele>68.4</ele>
        <time>2019-07-11T10:38:47Z</time>
      </trkpt>
      <trkpt lat="48.7633" lon="-3.57536">
        <ele>68.4</ele>
        <time>2019-07-11T10:38:48Z</time>
      </trkpt>
      <trkpt lat="48.76326" lon="-3.57535">
        <ele>68.6</ele>
        <time>2019-07-11T10:38:49Z</time>
      </trkpt>
      <trkpt lat="48.76323" lon="-3.57533">
        <ele>69.1</ele>
        <time>2019-07-11T10:38:50Z</time>
      </trkpt>
      <trkpt lat="48.7632" lon="-3.57532">
        <ele>69.4</ele>
        <time>2019-07-11T10:38:51Z</time>
      </trkpt>
      <trkpt lat="48.76317" lon="-3.57531">
        <ele>69.8</ele>
        <time>2019-07-11T10:38:52Z</time>
      </trkpt>
      <trkpt lat="48.76314" lon="-3.5753">
        <ele>70.3</ele>
        <time>2019-07-11T10:38:53Z</time>
      </trkpt>
      <trkpt lat="48.76311" lon="-3.57528">
        <ele>70.8</ele>
        <time>2019-07-11T10:38:54Z</time>
      </trkpt>
      <trkpt lat="48.76308" lon="-3.57527">
        <ele>71.1</ele>
        <time>2019-07-11T10:38:55Z</time>
      </trkpt>
      <trkpt lat="48.76305" lon="-3.57524">
        <ele>71.5</ele>
        <time>2019-07-11T10:38:56Z</time>
      </trkpt>
      <trkpt lat="48.76302" lon="-3.57522">
        <ele>71.8</ele>
        <time>2019-07-11T10:38:57Z</time>
      </trkpt>
      <trkpt lat="48.76299" lon="-3.5752">
        <ele>72.3</ele>
        <time>2019-07-11T10:38:58Z</time>
      </trkpt>
      <trkpt lat="48.76296" lon="-3.57518">
        <ele>72.7</ele>
        <time>2019-07-11T10:38:59Z</time>
      </trkpt>
      <trkpt lat="48.76292" lon="-3.57516">
        <ele>72.7</ele>
        <time>2019-07-11T10:39:00Z</time>
      </trkpt>
      <trkpt lat="48.76288" lon="-3.57514">
        <ele>73.2</ele>
        <time>2019-07-11T10:39:01Z</time>
      </trkpt>
      <trkpt lat="48.76284" lon="-3.57512">
        <ele>73.8</ele>
        <time>2019-07-11T10:39:02Z</time>
      </trkpt>
      <trkpt lat="48.7628" lon="-3.5751">
        <ele>74.3</ele>
        <time>2019-07-11T10:39:03Z</time>
      </trkpt>
      <trkpt lat="48.76276" lon="-3.57509">
        <ele>74.8</ele>
        <time>2019-07-11T10:39:04Z</time>
      </trkpt>
      <trkpt lat="48.76273" lon="-3.57507">
        <ele>75.4</ele>
        <time>2019-07-11T10:39:05Z</time>
      </trkpt>
      <trkpt lat="48.7627" lon="-3.57505">
        <ele>76</ele>
        <time>2019-07-11T10:39:06Z</time>
      </trkpt>
      <trkpt lat="48.76267" lon="-3.57503">
        <ele>76.6</ele>
        <time>2019-07-11T10:39:07Z</time>
      </trkpt>
      <trkpt lat="48.76264" lon="-3.57501">
        <ele>77.2</ele>
        <time>2019-07-11T10:39:08Z</time>
      </trkpt>
      <trkpt lat="48.7626" lon="-3.57499">
        <ele>78</ele>
        <time>2019-07-11T10:39:09Z</time>
      </trkpt>
      <trkpt lat="48.76257" lon="-3.57496">
        <ele>78.8</ele>
        <time>2019-07-11T10:39:10Z</time>
      </trkpt>
      <trkpt lat="48.76254" lon="-3.57494">
        <ele>79.1</ele>
        <time>2019-07-11T10:39:11Z</time>
      </trkpt>
      <trkpt lat="48.76249" lon="-3.57492">
        <ele>78.6</ele>
        <time>2019-07-11T10:39:12Z</time>
      </trkpt>
      <trkpt lat="48.76245" lon="-3.5749">
        <ele>77.9</ele>
        <time>2019-07-11T10:39:13Z</time>
      </trkpt>
      <trkpt lat="48.76241" lon="-3.57489">
        <ele>77.2</ele>
        <time>2019-07-11T10:39:14Z</time>
      </trkpt>
      <trkpt lat="48.76238" lon="-3.5749">
        <ele>76.6</ele>
        <time>2019-07-11T10:39:15Z</time>
      </trkpt>
      <trkpt lat="48.76235" lon="-3.57491">
        <ele>75.5</ele>
        <time>2019-07-11T10:39:16Z</time>
      </trkpt>
      <trkpt lat="48.76231" lon="-3.57492">
        <ele>74.4</ele>
        <time>2019-07-11T10:39:17Z</time>
      </trkpt>
      <trkpt lat="48.76227" lon="-3.57495">
        <ele>72.9</ele>
        <time>2019-07-11T10:39:18Z</time>
      </trkpt>
      <trkpt lat="48.76223" lon="-3.57499">
        <ele>71.9</ele>
        <time>2019-07-11T10:39:19Z</time>
      </trkpt>
      <trkpt lat="48.76221" lon="-3.57503">
        <ele>71.2</ele>
        <time>2019-07-11T10:39:20Z</time>
      </trkpt>
      <trkpt lat="48.76218" lon="-3.57507">
        <ele>70.6</ele>
        <time>2019-07-11T10:39:21Z</time>
      </trkpt>
      <trkpt lat="48.76214" lon="-3.5751">
        <ele>70</ele>
        <time>2019-07-11T10:39:22Z</time>
      </trkpt>
      <trkpt lat="48.7621" lon="-3.57514">
        <ele>69.6</ele>
        <time>2019-07-11T10:39:23Z</time>
      </trkpt>
      <trkpt lat="48.76206" lon="-3.57517">
        <ele>69.3</ele>
        <time>2019-07-11T10:39:24Z</time>
      </trkpt>
      <trkpt lat="48.76202" lon="-3.57521">
        <ele>69</ele>
        <time>2019-07-11T10:39:25Z</time>
      </trkpt>
      <trkpt lat="48.76197" lon="-3.57526">
        <ele>68.6</ele>
        <time>2019-07-11T10:39:26Z</time>
      </trkpt>
      <trkpt lat="48.76194" lon="-3.57532">
        <ele>68.1</ele>
        <time>2019-07-11T10:39:27Z</time>
      </trkpt>
      <trkpt lat="48.76189" lon="-3.57537">
        <ele>67.6</ele>
        <time>2019-07-11T10:39:28Z</time>
      </trkpt>
      <trkpt lat="48.76185" lon="-3.57542">
        <ele>67</ele>
        <time>2019-07-11T10:39:29Z</time>
      </trkpt>
      <trkpt lat="48.76181" lon="-3.57547">
        <ele>66.6</ele>
        <time>2019-07-11T10:39:30Z</time>
      </trkpt>
      <trkpt lat="48.76178" lon="-3.57551">
        <ele>65.9</ele>
        <time>2019-07-11T10:39:31Z</time>
      </trkpt>
      <trkpt lat="48.76174" lon="-3.57555">
        <ele>65.5</ele>
        <time>2019-07-11T10:39:32Z</time>
      </trkpt>
      <trkpt lat="48.76171" lon="-3.57559">
        <ele>65</ele>
        <time>2019-07-11T10:39:33Z</time>
      </trkpt>
      <trkpt lat="48.76168" lon="-3.57564">
        <ele>64.8</ele>
        <time>2019-07-11T10:39:34Z</time>
      </trkpt>
      <trkpt lat="48.76165" lon="-3.57568">
        <ele>64.6</ele>
        <time>2019-07-11T10:39:35Z</time>
      </trkpt>
      <trkpt lat="48.76162" lon="-3.57573">
        <ele>64.6</ele>
        <time>2019-07-11T10:39:36Z</time>
      </trkpt>
      <trkpt lat="48.7616" lon="-3.57578">
        <ele>64.5</ele>
        <time>2019-07-11T10:39:37Z</time>
      </trkpt>
      <trkpt lat="48.76157" lon="-3.57581">
        <ele>64.3</ele>
        <time>2019-07-11T10:39:38Z</time>
      </trkpt>
      <trkpt lat="48.76154" lon="-3.57585">
        <ele>64.2</ele>
        <time>2019-07-11T10:39:39Z</time>
      </trkpt>
      <trkpt lat="48.76152" lon="-3.57588">
        <ele>64.2</ele>
        <time>2019-07-11T10:39:40Z</time>
      </trkpt>
      <trkpt lat="48.76149" lon="-3.57592">
        <ele>64.2</ele>
        <time>2019-07-11T10:39:41Z</time>
      </trkpt>
      <trkpt lat="48.76147" lon="-3.57595">
        <ele>64.3</ele>
        <time>2019-07-11T10:39:42Z</time>
      </trkpt>
      <trkpt lat="48.76145" lon="-3.57598">
        <ele>64.5</ele>
        <time>2019-07-11T10:39:43Z</time>
      </trkpt>
      <trkpt lat="48.76143" lon="-3.57601">
        <ele>64.6</ele>
        <time>2019-07-11T10:39:44Z</time>
      </trkpt>
      <trkpt lat="48.7614" lon="-3.57604">
        <ele>64.6</ele>
        <time>2019-07-11T10:39:45Z</time>
      </trkpt>
      <trkpt lat="48.76138" lon="-3.57607">
        <ele>64.9</ele>
        <time>2019-07-11T10:39:46Z</time>
      </trkpt>
      <trkpt lat="48.76135" lon="-3.5761">
        <ele>65</ele>
        <time>2019-07-11T10:39:47Z</time>
      </trkpt>
      <trkpt lat="48.76133" lon="-3.57613">
        <ele>64.5</ele>
        <time>2019-07-11T10:39:48Z</time>
      </trkpt>
      <trkpt lat="48.76131" lon="-3.57616">
        <ele>64.4</ele>
        <time>2019-07-11T10:39:49Z</time>
      </trkpt>
      <trkpt lat="48.76128" lon="-3.57619">
        <ele>64</ele>
        <time>2019-07-11T10:39:50Z</time>
      </trkpt>
      <trkpt lat="48.76127" lon="-3.57622">
        <ele>63.8</ele>
        <time>2019-07-11T10:39:51Z</time>
      </trkpt>
      <trkpt lat="48.76124" lon="-3.57624">
        <ele>63.9</ele>
        <time>2019-07-11T10:39:52Z</time>
      </trkpt>
      <trkpt lat="48.76122" lon="-3.57627">
        <ele>63.9</ele>
        <time>2019-07-11T10:39:53Z</time>
      </trkpt>
      <trkpt lat="48.7612" lon="-3.57629">
        <ele>64</ele>
        <time>2019-07-11T10:39:54Z</time>
      </trkpt>
      <trkpt lat="48.76117" lon="-3.57632">
        <ele>64</ele>
        <time>2019-07-11T10:39:55Z</time>
      </trkpt>
      <trkpt lat="48.76114" lon="-3.57635">
        <ele>64.4</ele>
        <time>2019-07-11T10:39:56Z</time>
      </trkpt>
      <trkpt lat="48.76112" lon="-3.57637">
        <ele>64.5</ele>
        <time>2019-07-11T10:39:57Z</time>
      </trkpt>
      <trkpt lat="48.76109" lon="-3.57639">
        <ele>64.8</ele>
        <time>2019-07-11T10:39:58Z</time>
      </trkpt>
      <trkpt lat="48.76107" lon="-3.57642">
        <ele>65</ele>
        <time>2019-07-11T10:39:59Z</time>
      </trkpt>
      <trkpt lat="48.76105" lon="-3.57645">
        <ele>65.3</ele>
        <time>2019-07-11T10:40:00Z</time>
      </trkpt>
      <trkpt lat="48.76103" lon="-3.57648">
        <ele>65.4</ele>
        <time>2019-07-11T10:40:01Z</time>
      </trkpt>
      <trkpt lat="48.76101" lon="-3.57651">
        <ele>65.5</ele>
        <time>2019-07-11T10:40:02Z</time>
      </trkpt>
      <trkpt lat="48.76099" lon="-3.57653">
        <ele>65.6</ele>
        <time>2019-07-11T10:40:03Z</time>
      </trkpt>
      <trkpt lat="48.76096" lon="-3.57655">
        <ele>65.9</ele>
        <time>2019-07-11T10:40:04Z</time>
      </trkpt>
      <trkpt lat="48.76095" lon="-3.57657">
        <ele>66.4</ele>
        <time>2019-07-11T10:40:05Z</time>
      </trkpt>
      <trkpt lat="48.76093" lon="-3.5766">
        <ele>66.5</ele>
        <time>2019-07-11T10:40:06Z</time>
      </trkpt>
      <trkpt lat="48.7609" lon="-3.57662">
        <ele>66.4</ele>
        <time>2019-07-11T10:40:07Z</time>
      </trkpt>
      <trkpt lat="48.76088" lon="-3.57665">
        <ele>66.3</ele>
        <time>2019-07-11T10:40:08Z</time>
      </trkpt>
      <trkpt lat="48.76086" lon="-3.57667">
        <ele>66.2</ele>
        <time>2019-07-11T10:40:09Z</time>
      </trkpt>
      <trkpt lat="48.76083" lon="-3.57669">
        <ele>66.4</ele>
        <time>2019-07-11T10:40:10Z</time>
      </trkpt>
      <trkpt lat="48.76081" lon="-3.57672">
        <ele>66.2</ele>
        <time>2019-07-11T10:40:11Z</time>
      </trkpt>
      <trkpt lat="48.76079" lon="-3.57674">
        <ele>66.1</ele>
        <time>2019-07-11T10:40:12Z</time>
      </trkpt>
      <trkpt lat="48.76077" lon="-3.57677">
        <ele>66.1</ele>
        <time>2019-07-11T10:40:13Z</time>
      </trkpt>
      <trkpt lat="48.76075" lon="-3.57679">
        <ele>66.3</ele>
        <time>2019-07-11T10:40:14Z</time>
      </trkpt>
      <trkpt lat="48.76073" lon="-3.57681">
        <ele>66.5</ele>
        <time>2019-07-11T10:40:15Z</time>
      </trkpt>
      <trkpt lat="48.76071" lon="-3.57684">
        <ele>66.6</ele>
        <time>2019-07-11T10:40:16Z</time>
      </trkpt>
      <trkpt lat="48.76069" lon="-3.57686">
        <ele>66.7</ele>
        <time>2019-07-11T10:40:17Z</time>
      </trkpt>
      <trkpt lat="48.76066" lon="-3.57689">
        <ele>66.6</ele>
        <time>2019-07-11T10:40:18Z</time>
      </trkpt>
      <trkpt lat="48.76063" lon="-3.57692">
        <ele>66.4</ele>
        <time>2019-07-11T10:40:19Z</time>
      </trkpt>
      <trkpt lat="48.76061" lon="-3.57696">
        <ele>66.1</ele>
        <time>2019-07-11T10:40:20Z</time>
      </trkpt>
      <trkpt lat="48.76057" lon="-3.57699">
        <ele>66</ele>
        <time>2019-07-11T10:40:21Z</time>
      </trkpt>
      <trkpt lat="48.76053" lon="-3.57703">
        <ele>65.9</ele>
        <time>2019-07-11T10:40:22Z</time>
      </trkpt>
      <trkpt lat="48.7605" lon="-3.57706">
        <ele>66</ele>
        <time>2019-07-11T10:40:23Z</time>
      </trkpt>
      <trkpt lat="48.76046" lon="-3.57709">
        <ele>65.8</ele>
        <time>2019-07-11T10:40:24Z</time>
      </trkpt>
      <trkpt lat="48.76042" lon="-3.57712">
        <ele>65.6</ele>
        <time>2019-07-11T10:40:25Z</time>
      </trkpt>
      <trkpt lat="48.76039" lon="-3.57715">
        <ele>65.3</ele>
        <time>2019-07-11T10:40:26Z</time>
      </trkpt>
      <trkpt lat="48.76036" lon="-3.57717">
        <ele>65.3</ele>
        <time>2019-07-11T10:40:27Z</time>
      </trkpt>
      <trkpt lat="48.76033" lon="-3.57719">
        <ele>65.2</ele>
        <time>2019-07-11T10:40:28Z</time>
      </trkpt>
      <trkpt lat="48.76029" lon="-3.57723">
        <ele>65.1</ele>
        <time>2019-07-11T10:40:29Z</time>
      </trkpt>
      <trkpt lat="48.76027" lon="-3.57727">
        <ele>64.9</ele>
        <time>2019-07-11T10:40:30Z</time>
      </trkpt>
      <trkpt lat="48.76024" lon="-3.57732">
        <ele>65</ele>
        <time>2019-07-11T10:40:31Z</time>
      </trkpt>
      <trkpt lat="48.76022" lon="-3.57735">
        <ele>65.2</ele>
        <time>2019-07-11T10:40:32Z</time>
      </trkpt>
      <trkpt lat="48.76021" lon="-3.57737">
        <ele>65.4</ele>
        <time>2019-07-11T10:40:33Z</time>
      </trkpt>
      <trkpt lat="48.76019" lon="-3.57739">
        <ele>65.3</ele>
        <time>2019-07-11T10:40:34Z</time>
      </trkpt>
      <trkpt lat="48.76017" lon="-3.57733">
        <ele>66.2</ele>
        <time>2019-07-11T10:48:33Z</time>
      </trkpt>
      <trkpt lat="48.76018" lon="-3.57732">
        <ele>66.3</ele>
        <time>2019-07-11T10:48:34Z</time>
      </trkpt>
      <trkpt lat="48.76019" lon="-3.57731">
        <ele>66.4</ele>
        <time>2019-07-11T10:48:35Z</time>
      </trkpt>
      <trkpt lat="48.7602" lon="-3.5773">
        <ele>66.6</ele>
        <time>2019-07-11T10:48:36Z</time>
      </trkpt>
      <trkpt lat="48.76022" lon="-3.57728">
        <ele>66.8</ele>
        <time>2019-07-11T10:48:37Z</time>
      </trkpt>
      <trkpt lat="48.76023" lon="-3.57726">
        <ele>67.1</ele>
        <time>2019-07-11T10:48:38Z</time>
      </trkpt>
      <trkpt lat="48.76024" lon="-3.57725">
        <ele>67.1</ele>
        <time>2019-07-11T10:48:39Z</time>
      </trkpt>
      <trkpt lat="48.76026" lon="-3.57723">
        <ele>67.2</ele>
        <time>2019-07-11T10:48:40Z</time>
      </trkpt>
      <trkpt lat="48.76027" lon="-3.57722">
        <ele>67.2</ele>
        <time>2019-07-11T10:48:41Z</time>
      </trkpt>
      <trkpt lat="48.76029" lon="-3.5772">
        <ele>67.4</ele>
        <time>2019-07-11T10:48:42Z</time>
      </trkpt>
      <trkpt lat="48.7603" lon="-3.57718">
        <ele>67.5</ele>
        <time>2019-07-11T10:48:43Z</time>
      </trkpt>
      <trkpt lat="48.76032" lon="-3.57716">
        <ele>67.4</ele>
        <time>2019-07-11T10:48:44Z</time>
      </trkpt>
      <trkpt lat="48.76033" lon="-3.57713">
        <ele>67.7</ele>
        <time>2019-07-11T10:48:45Z</time>
      </trkpt>
      <trkpt lat="48.76035" lon="-3.57711">
        <ele>68.2</ele>
        <time>2019-07-11T10:48:46Z</time>
      </trkpt>
      <trkpt lat="48.76036" lon="-3.57709">
        <ele>68.3</ele>
        <time>2019-07-11T10:48:47Z</time>
      </trkpt>
      <trkpt lat="48.76037" lon="-3.57707">
        <ele>68.2</ele>
        <time>2019-07-11T10:48:48Z</time>
      </trkpt>
      <trkpt lat="48.76038" lon="-3.57705">
        <ele>68.1</ele>
        <time>2019-07-11T10:48:49Z</time>
      </trkpt>
      <trkpt lat="48.7604" lon="-3.57704">
        <ele>68.4</ele>
        <time>2019-07-11T10:48:50Z</time>
      </trkpt>
      <trkpt lat="48.76042" lon="-3.57701">
        <ele>68.8</ele>
        <time>2019-07-11T10:48:51Z</time>
      </trkpt>
      <trkpt lat="48.76044" lon="-3.57698">
        <ele>69</ele>
        <time>2019-07-11T10:48:52Z</time>
      </trkpt>
      <trkpt lat="48.76046" lon="-3.57696">
        <ele>69.1</ele>
        <time>2019-07-11T10:48:53Z</time>
      </trkpt>
      <trkpt lat="48.76048" lon="-3.57694">
        <ele>69.2</ele>
        <time>2019-07-11T10:48:54Z</time>
      </trkpt>
      <trkpt lat="48.76051" lon="-3.57692">
        <ele>69.3</ele>
        <time>2019-07-11T10:48:55Z</time>
      </trkpt>
      <trkpt lat="48.76053" lon="-3.57691">
        <ele>69.5</ele>
        <time>2019-07-11T10:48:56Z</time>
      </trkpt>
      <trkpt lat="48.76055" lon="-3.57689">
        <ele>69.9</ele>
        <time>2019-07-11T10:48:57Z</time>
      </trkpt>
      <trkpt lat="48.76057" lon="-3.57687">
        <ele>70.2</ele>
        <time>2019-07-11T10:48:58Z</time>
      </trkpt>
      <trkpt lat="48.76059" lon="-3.57685">
        <ele>70.7</ele>
        <time>2019-07-11T10:48:59Z</time>
      </trkpt>
      <trkpt lat="48.76061" lon="-3.57683">
        <ele>70.9</ele>
        <time>2019-07-11T10:49:00Z</time>
      </trkpt>
      <trkpt lat="48.76063" lon="-3.57682">
        <ele>71.3</ele>
        <time>2019-07-11T10:49:01Z</time>
      </trkpt>
      <trkpt lat="48.76065" lon="-3.57679">
        <ele>71.3</ele>
        <time>2019-07-11T10:49:02Z</time>
      </trkpt>
      <trkpt lat="48.76067" lon="-3.57677">
        <ele>71.6</ele>
        <time>2019-07-11T10:49:03Z</time>
      </trkpt>
      <trkpt lat="48.76069" lon="-3.57675">
        <ele>71.7</ele>
        <time>2019-07-11T10:49:04Z</time>
      </trkpt>
      <trkpt lat="48.76071" lon="-3.57673">
        <ele>71.4</ele>
        <time>2019-07-11T10:49:05Z</time>
      </trkpt>
      <trkpt lat="48.76074" lon="-3.5767">
        <ele>71.1</ele>
        <time>2019-07-11T10:49:06Z</time>
      </trkpt>
      <trkpt lat="48.76076" lon="-3.57668">
        <ele>70.6</ele>
        <time>2019-07-11T10:49:07Z</time>
      </trkpt>
      <trkpt lat="48.76078" lon="-3.57665">
        <ele>70.3</ele>
        <time>2019-07-11T10:49:08Z</time>
      </trkpt>
      <trkpt lat="48.76082" lon="-3.57663">
        <ele>70.5</ele>
        <time>2019-07-11T10:49:09Z</time>
      </trkpt>
      <trkpt lat="48.76084" lon="-3.5766">
        <ele>70.6</ele>
        <time>2019-07-11T10:49:10Z</time>
      </trkpt>
      <trkpt lat="48.76087" lon="-3.57657">
        <ele>70.4</ele>
        <time>2019-07-11T10:49:11Z</time>
      </trkpt>
      <trkpt lat="48.76091" lon="-3.57654">
        <ele>70.1</ele>
        <time>2019-07-11T10:49:12Z</time>
      </trkpt>
      <trkpt lat="48.76094" lon="-3.57651">
        <ele>70.2</ele>
        <time>2019-07-11T10:49:13Z</time>
      </trkpt>
      <trkpt lat="48.76098" lon="-3.57647">
        <ele>69.9</ele>
        <time>2019-07-11T10:49:14Z</time>
      </trkpt>
      <trkpt lat="48.76102" lon="-3.57643">
        <ele>69.5</ele>
        <time>2019-07-11T10:49:15Z</time>
      </trkpt>
      <trkpt lat="48.76106" lon="-3.57639">
        <ele>69</ele>
        <time>2019-07-11T10:49:16Z</time>
      </trkpt>
      <trkpt lat="48.7611" lon="-3.57634">
        <ele>68.3</ele>
        <time>2019-07-11T10:49:17Z</time>
      </trkpt>
      <trkpt lat="48.76114" lon="-3.57628">
        <ele>67.7</ele>
        <time>2019-07-11T10:49:18Z</time>
      </trkpt>
      <trkpt lat="48.76118" lon="-3.57623">
        <ele>67.3</ele>
        <time>2019-07-11T10:49:19Z</time>
      </trkpt>
      <trkpt lat="48.76122" lon="-3.57618">
        <ele>67.1</ele>
        <time>2019-07-11T10:49:20Z</time>
      </trkpt>
      <trkpt lat="48.76127" lon="-3.57613">
        <ele>67.1</ele>
        <time>2019-07-11T10:49:21Z</time>
      </trkpt>
      <trkpt lat="48.76131" lon="-3.57607">
        <ele>67</ele>
        <time>2019-07-11T10:49:22Z</time>
      </trkpt>
      <trkpt lat="48.76136" lon="-3.57602">
        <ele>67.2</ele>
        <time>2019-07-11T10:49:23Z</time>
      </trkpt>
      <trkpt lat="48.76141" lon="-3.57597">
        <ele>67.2</ele>
        <time>2019-07-11T10:49:24Z</time>
      </trkpt>
      <trkpt lat="48.76146" lon="-3.57591">
        <ele>67</ele>
        <time>2019-07-11T10:49:25Z</time>
      </trkpt>
      <trkpt lat="48.76151" lon="-3.57585">
        <ele>66.9</ele>
        <time>2019-07-11T10:49:26Z</time>
      </trkpt>
      <trkpt lat="48.76156" lon="-3.57579">
        <ele>66.5</ele>
        <time>2019-07-11T10:49:27Z</time>
      </trkpt>
      <trkpt lat="48.76161" lon="-3.57572">
        <ele>66.8</ele>
        <time>2019-07-11T10:49:28Z</time>
      </trkpt>
      <trkpt lat="48.76165" lon="-3.57566">
        <ele>66.8</ele>
        <time>2019-07-11T10:49:29Z</time>
      </trkpt>
      <trkpt lat="48.7617" lon="-3.57559">
        <ele>66.5</ele>
        <time>2019-07-11T10:49:30Z</time>
      </trkpt>
      <trkpt lat="48.76175" lon="-3.57552">
        <ele>65.8</ele>
        <time>2019-07-11T10:49:31Z</time>
      </trkpt>
      <trkpt lat="48.7618" lon="-3.57545">
        <ele>65.3</ele>
        <time>2019-07-11T10:49:32Z</time>
      </trkpt>
      <trkpt lat="48.76185" lon="-3.57538">
        <ele>65.4</ele>
        <time>2019-07-11T10:49:33Z</time>
      </trkpt>
      <trkpt lat="48.76189" lon="-3.57532">
        <ele>66</ele>
        <time>2019-07-11T10:49:34Z</time>
      </trkpt>
      <trkpt lat="48.76194" lon="-3.57526">
        <ele>65.9</ele>
        <time>2019-07-11T10:49:35Z</time>
      </trkpt>
      <trkpt lat="48.76197" lon="-3.57521">
        <ele>66.3</ele>
        <time>2019-07-11T10:49:36Z</time>
      </trkpt>
      <trkpt lat="48.76201" lon="-3.57515">
        <ele>66.4</ele>
        <time>2019-07-11T10:49:37Z</time>
      </trkpt>
      <trkpt lat="48.76204" lon="-3.5751">
        <ele>66.3</ele>
        <time>2019-07-11T10:49:38Z</time>
      </trkpt>
      <trkpt lat="48.76206" lon="-3.57505">
        <ele>66.2</ele>
        <time>2019-07-11T10:49:39Z</time>
      </trkpt>
      <trkpt lat="48.76209" lon="-3.57499">
        <ele>66.3</ele>
        <time>2019-07-11T10:49:40Z</time>
      </trkpt>
      <trkpt lat="48.76211" lon="-3.57495">
        <ele>66.8</ele>
        <time>2019-07-11T10:49:41Z</time>
      </trkpt>
      <trkpt lat="48.76214" lon="-3.57493">
        <ele>67.9</ele>
        <time>2019-07-11T10:49:42Z</time>
      </trkpt>
      <trkpt lat="48.76215" lon="-3.5749">
        <ele>68.7</ele>
        <time>2019-07-11T10:49:43Z</time>
      </trkpt>
      <trkpt lat="48.76217" lon="-3.57488">
        <ele>69.2</ele>
        <time>2019-07-11T10:49:44Z</time>
      </trkpt>
      <trkpt lat="48.76218" lon="-3.57485">
        <ele>69.3</ele>
        <time>2019-07-11T10:49:45Z</time>
      </trkpt>
      <trkpt lat="48.76219" lon="-3.57483">
        <ele>69.3</ele>
        <time>2019-07-11T10:49:46Z</time>
      </trkpt>
      <trkpt lat="48.7622" lon="-3.57481">
        <ele>69.5</ele>
        <time>2019-07-11T10:49:47Z</time>
      </trkpt>
      <trkpt lat="48.76219" lon="-3.57479">
        <ele>69.7</ele>
        <time>2019-07-11T10:49:48Z</time>
      </trkpt>
      <trkpt lat="48.76219" lon="-3.57478">
        <ele>69.7</ele>
        <time>2019-07-11T10:49:49Z</time>
      </trkpt>
      <trkpt lat="48.76218" lon="-3.57476">
        <ele>69.6</ele>
        <time>2019-07-11T10:49:50Z</time>
      </trkpt>
      <trkpt lat="48.76217" lon="-3.57475">
        <ele>70</ele>
        <time>2019-07-11T10:49:51Z</time>
      </trkpt>
      <trkpt lat="48.76215" lon="-3.57475">
        <ele>70</ele>
        <time>2019-07-11T10:49:52Z</time>
      </trkpt>
      <trkpt lat="48.76214" lon="-3.57476">
        <ele>69.8</ele>
        <time>2019-07-11T10:49:53Z</time>
      </trkpt>
      <trkpt lat="48.76212" lon="-3.57476">
        <ele>69.6</ele>
        <time>2019-07-11T10:49:54Z</time>
      </trkpt>
      <trkpt lat="48.7621" lon="-3.57477">
        <ele>69.1</ele>
        <time>2019-07-11T10:49:55Z</time>
      </trkpt>
      <trkpt lat="48.76207" lon="-3.57476">
        <ele>68.8</ele>
        <time>2019-07-11T10:49:56Z</time>
      </trkpt>
      <trkpt lat="48.76205" lon="-3.57475">
        <ele>68.3</ele>
        <time>2019-07-11T10:49:57Z</time>
      </trkpt>
      <trkpt lat="48.76202" lon="-3.57474">
        <ele>67.9</ele>
        <time>2019-07-11T10:49:58Z</time>
      </trkpt>
      <trkpt lat="48.76199" lon="-3.57472">
        <ele>67.7</ele>
        <time>2019-07-11T10:49:59Z</time>
      </trkpt>
      <trkpt lat="48.76196" lon="-3.57471">
        <ele>67.7</ele>
        <time>2019-07-11T10:50:00Z</time>
      </trkpt>
      <trkpt lat="48.76193" lon="-3.57469">
        <ele>67.8</ele>
        <time>2019-07-11T10:50:01Z</time>
      </trkpt>
      <trkpt lat="48.7619" lon="-3.57467">
        <ele>67.7</ele>
        <time>2019-07-11T10:50:02Z</time>
      </trkpt>
      <trkpt lat="48.76187" lon="-3.57465">
        <ele>67.7</ele>
        <time>2019-07-11T10:50:03Z</time>
      </trkpt>
      <trkpt lat="48.76184" lon="-3.57464">
        <ele>67.5</ele>
        <time>2019-07-11T10:50:04Z</time>
      </trkpt>
      <trkpt lat="48.76181" lon="-3.57462">
        <ele>67.2</ele>
        <time>2019-07-11T10:50:05Z</time>
      </trkpt>
      <trkpt lat="48.76177" lon="-3.57459">
        <ele>66.9</ele>
        <time>2019-07-11T10:50:06Z</time>
      </trkpt>
      <trkpt lat="48.76174" lon="-3.57456">
        <ele>66.3</ele>
        <time>2019-07-11T10:50:07Z</time>
      </trkpt>
      <trkpt lat="48.7617" lon="-3.57454">
        <ele>65.8</ele>
        <time>2019-07-11T10:50:08Z</time>
      </trkpt>
      <trkpt lat="48.76167" lon="-3.57451">
        <ele>65.5</ele>
        <time>2019-07-11T10:50:09Z</time>
      </trkpt>
      <trkpt lat="48.76163" lon="-3.57448">
        <ele>65.3</ele>
        <time>2019-07-11T10:50:10Z</time>
      </trkpt>
      <trkpt lat="48.7616" lon="-3.57445">
        <ele>64.8</ele>
        <time>2019-07-11T10:50:11Z</time>
      </trkpt>
      <trkpt lat="48.76157" lon="-3.57443">
        <ele>64.4</ele>
        <time>2019-07-11T10:50:12Z</time>
      </trkpt>
      <trkpt lat="48.76155" lon="-3.57442">
        <ele>64.1</ele>
        <time>2019-07-11T10:50:13Z</time>
      </trkpt>
      <trkpt lat="48.76154" lon="-3.57441">
        <ele>63.8</ele>
        <time>2019-07-11T10:50:14Z</time>
      </trkpt>
      <trkpt lat="48.76152" lon="-3.5744">
        <ele>63.7</ele>
        <time>2019-07-11T10:50:15Z</time>
      </trkpt>
      <trkpt lat="48.76151" lon="-3.57439">
        <ele>63.6</ele>
        <time>2019-07-11T10:50:16Z</time>
      </trkpt>
      <trkpt lat="48.76151" lon="-3.57437">
        <ele>63.9</ele>
        <time>2019-07-11T10:50:17Z</time>
      </trkpt>
      <trkpt lat="48.76152" lon="-3.57434">
        <ele>64.5</ele>
        <time>2019-07-11T10:50:18Z</time>
      </trkpt>
      <trkpt lat="48.76154" lon="-3.57433">
        <ele>64.8</ele>
        <time>2019-07-11T10:50:19Z</time>
      </trkpt>
      <trkpt lat="48.76156" lon="-3.57433">
        <ele>64.9</ele>
        <time>2019-07-11T10:50:20Z</time>
      </trkpt>
      <trkpt lat="48.76159" lon="-3.57435">
        <ele>64.8</ele>
        <time>2019-07-11T10:50:21Z</time>
      </trkpt>
      <trkpt lat="48.7616" lon="-3.57437">
        <ele>64.5</ele>
        <time>2019-07-11T10:50:22Z</time>
      </trkpt>
      <trkpt lat="48.76162" lon="-3.5744">
        <ele>64.5</ele>
        <time>2019-07-11T10:50:23Z</time>
      </trkpt>
      <trkpt lat="48.76164" lon="-3.57443">
        <ele>64.3</ele>
        <time>2019-07-11T10:50:24Z</time>
      </trkpt>
      <trkpt lat="48.76166" lon="-3.57445">
        <ele>64.3</ele>
        <time>2019-07-11T10:50:25Z</time>
      </trkpt>
      <trkpt lat="48.76169" lon="-3.57447">
        <ele>64.6</ele>
        <time>2019-07-11T10:50:26Z</time>
      </trkpt>
      <trkpt lat="48.76171" lon="-3.57449">
        <ele>64.9</ele>
        <time>2019-07-11T10:50:27Z</time>
      </trkpt>
      <trkpt lat="48.76173" lon="-3.57451">
        <ele>65.9</ele>
        <time>2019-07-11T10:50:28Z</time>
      </trkpt>
      <trkpt lat="48.76175" lon="-3.57453">
        <ele>66.4</ele>
        <time>2019-07-11T10:50:29Z</time>
      </trkpt>
      <trkpt lat="48.76177" lon="-3.57455">
        <ele>67</ele>
        <time>2019-07-11T10:50:30Z</time>
      </trkpt>
      <trkpt lat="48.76178" lon="-3.57457">
        <ele>67.6</ele>
        <time>2019-07-11T10:50:31Z</time>
      </trkpt>
      <trkpt lat="48.7618" lon="-3.57458">
        <ele>68.2</ele>
        <time>2019-07-11T10:50:32Z</time>
      </trkpt>
      <trkpt lat="48.76183" lon="-3.57459">
        <ele>68.8</ele>
        <time>2019-07-11T10:50:33Z</time>
      </trkpt>
      <trkpt lat="48.76185" lon="-3.57461">
        <ele>69.3</ele>
        <time>2019-07-11T10:50:34Z</time>
      </trkpt>
      <trkpt lat="48.76187" lon="-3.57463">
        <ele>69.9</ele>
        <time>2019-07-11T10:50:35Z</time>
      </trkpt>
      <trkpt lat="48.76189" lon="-3.57466">
        <ele>70.3</ele>
        <time>2019-07-11T10:50:36Z</time>
      </trkpt>
      <trkpt lat="48.76192" lon="-3.57468">
        <ele>70.6</ele>
        <time>2019-07-11T10:50:37Z</time>
      </trkpt>
      <trkpt lat="48.76194" lon="-3.57469">
        <ele>70.7</ele>
        <time>2019-07-11T10:50:38Z</time>
      </trkpt>
      <trkpt lat="48.76197" lon="-3.5747">
        <ele>70.7</ele>
        <time>2019-07-11T10:50:39Z</time>
      </trkpt>
      <trkpt lat="48.76201" lon="-3.57471">
        <ele>70.5</ele>
        <time>2019-07-11T10:50:40Z</time>
      </trkpt>
      <trkpt lat="48.76203" lon="-3.57472">
        <ele>70.7</ele>
        <time>2019-07-11T10:50:41Z</time>
      </trkpt>
      <trkpt lat="48.76206" lon="-3.57473">
        <ele>70.8</ele>
        <time>2019-07-11T10:50:42Z</time>
      </trkpt>
      <trkpt lat="48.76209" lon="-3.57474">
        <ele>71.1</ele>
        <time>2019-07-11T10:50:43Z</time>
      </trkpt>
      <trkpt lat="48.76212" lon="-3.57475">
        <ele>70.7</ele>
        <time>2019-07-11T10:50:44Z</time>
      </trkpt>
      <trkpt lat="48.76214" lon="-3.57476">
        <ele>70.5</ele>
        <time>2019-07-11T10:50:45Z</time>
      </trkpt>
      <trkpt lat="48.76217" lon="-3.57476">
        <ele>70.2</ele>
        <time>2019-07-11T10:50:46Z</time>
      </trkpt>
      <trkpt lat="48.7622" lon="-3.57476">
        <ele>70.2</ele>
        <time>2019-07-11T10:50:47Z</time>
      </trkpt>
      <trkpt lat="48.76222" lon="-3.57475">
        <ele>70.4</ele>
        <time>2019-07-11T10:50:48Z</time>
      </trkpt>
      <trkpt lat="48.76224" lon="-3.57475">
        <ele>70.7</ele>
        <time>2019-07-11T10:50:49Z</time>
      </trkpt>
      <trkpt lat="48.76225" lon="-3.57474">
        <ele>71.1</ele>
        <time>2019-07-11T10:50:50Z</time>
      </trkpt>
      <trkpt lat="48.76227" lon="-3.57472">
        <ele>71.2</ele>
        <time>2019-07-11T10:50:51Z</time>
      </trkpt>
      <trkpt lat="48.76229" lon="-3.5747">
        <ele>71.5</ele>
        <time>2019-07-11T10:50:52Z</time>
      </trkpt>
      <trkpt lat="48.7623" lon="-3.57468">
        <ele>72.2</ele>
        <time>2019-07-11T10:50:53Z</time>
      </trkpt>
      <trkpt lat="48.76231" lon="-3.57466">
        <ele>72.6</ele>
        <time>2019-07-11T10:50:54Z</time>
      </trkpt>
      <trkpt lat="48.76233" lon="-3.57464">
        <ele>72.8</ele>
        <time>2019-07-11T10:50:55Z</time>
      </trkpt>
      <trkpt lat="48.76236" lon="-3.57461">
        <ele>73.1</ele>
        <time>2019-07-11T10:50:56Z</time>
      </trkpt>
      <trkpt lat="48.76237" lon="-3.57457">
        <ele>73.9</ele>
        <time>2019-07-11T10:50:57Z</time>
      </trkpt>
      <trkpt lat="48.7624" lon="-3.57454">
        <ele>73.9</ele>
        <time>2019-07-11T10:50:58Z</time>
      </trkpt>
      <trkpt lat="48.76242" lon="-3.5745">
        <ele>74.3</ele>
        <time>2019-07-11T10:50:59Z</time>
      </trkpt>
      <trkpt lat="48.76244" lon="-3.57447">
        <ele>74.7</ele>
        <time>2019-07-11T10:51:00Z</time>
      </trkpt>
      <trkpt lat="48.76246" lon="-3.57444">
        <ele>75.3</ele>
        <time>2019-07-11T10:51:01Z</time>
      </trkpt>
      <trkpt lat="48.76249" lon="-3.57441">
        <ele>75.2</ele>
        <time>2019-07-11T10:51:02Z</time>
      </trkpt>
      <trkpt lat="48.76251" lon="-3.57438">
        <ele>74.8</ele>
        <time>2019-07-11T10:51:03Z</time>
      </trkpt>
      <trkpt lat="48.76254" lon="-3.57434">
        <ele>75.4</ele>
        <time>2019-07-11T10:51:04Z</time>
      </trkpt>
      <trkpt lat="48.76255" lon="-3.57431">
        <ele>75.5</ele>
        <time>2019-07-11T10:51:05Z</time>
      </trkpt>
      <trkpt lat="48.76257" lon="-3.57428">
        <ele>75.9</ele>
        <time>2019-07-11T10:51:06Z</time>
      </trkpt>
      <trkpt lat="48.76259" lon="-3.57424">
        <ele>76</ele>
        <time>2019-07-11T10:51:07Z</time>
      </trkpt>
      <trkpt lat="48.7626" lon="-3.57421">
        <ele>75.3</ele>
        <time>2019-07-11T10:51:08Z</time>
      </trkpt>
      <trkpt lat="48.76262" lon="-3.57417">
        <ele>74.3</ele>
        <time>2019-07-11T10:51:09Z</time>
      </trkpt>
      <trkpt lat="48.76263" lon="-3.57413">
        <ele>73.2</ele>
        <time>2019-07-11T10:51:10Z</time>
      </trkpt>
      <trkpt lat="48.76265" lon="-3.5741">
        <ele>72.5</ele>
        <time>2019-07-11T10:51:11Z</time>
      </trkpt>
      <trkpt lat="48.76267" lon="-3.57406">
        <ele>72.1</ele>
        <time>2019-07-11T10:51:12Z</time>
      </trkpt>
      <trkpt lat="48.7627" lon="-3.57402">
        <ele>71.6</ele>
        <time>2019-07-11T10:51:13Z</time>
      </trkpt>
      <trkpt lat="48.76272" lon="-3.57398">
        <ele>71.2</ele>
        <time>2019-07-11T10:51:14Z</time>
      </trkpt>
      <trkpt lat="48.76274" lon="-3.57394">
        <ele>70.9</ele>
        <time>2019-07-11T10:51:15Z</time>
      </trkpt>
      <trkpt lat="48.76276" lon="-3.5739">
        <ele>71.1</ele>
        <time>2019-07-11T10:51:16Z</time>
      </trkpt>
      <trkpt lat="48.76278" lon="-3.57386">
        <ele>70.6</ele>
        <time>2019-07-11T10:51:17Z</time>
      </trkpt>
      <trkpt lat="48.7628" lon="-3.57383">
        <ele>70.3</ele>
        <time>2019-07-11T10:51:18Z</time>
      </trkpt>
      <trkpt lat="48.76283" lon="-3.5738">
        <ele>70</ele>
        <time>2019-07-11T10:51:19Z</time>
      </trkpt>
      <trkpt lat="48.76284" lon="-3.57377">
        <ele>70.5</ele>
        <time>2019-07-11T10:51:20Z</time>
      </trkpt>
      <trkpt lat="48.76285" lon="-3.57374">
        <ele>71</ele>
        <time>2019-07-11T10:51:21Z</time>
      </trkpt>
      <trkpt lat="48.76287" lon="-3.57371">
        <ele>71.2</ele>
        <time>2019-07-11T10:51:22Z</time>
      </trkpt>
      <trkpt lat="48.76288" lon="-3.57368">
        <ele>71.5</ele>
        <time>2019-07-11T10:51:23Z</time>
      </trkpt>
      <trkpt lat="48.7629" lon="-3.57365">
        <ele>71.9</ele>
        <time>2019-07-11T10:51:24Z</time>
      </trkpt>
      <trkpt lat="48.76291" lon="-3.57362">
        <ele>72.2</ele>
        <time>2019-07-11T10:51:25Z</time>
      </trkpt>
      <trkpt lat="48.76293" lon="-3.57359">
        <ele>72.8</ele>
        <time>2019-07-11T10:51:26Z</time>
      </trkpt>
      <trkpt lat="48.76295" lon="-3.57357">
        <ele>73.5</ele>
        <time>2019-07-11T10:51:27Z</time>
      </trkpt>
      <trkpt lat="48.76297" lon="-3.57354">
        <ele>74.3</ele>
        <time>2019-07-11T10:51:28Z</time>
      </trkpt>
      <trkpt lat="48.76299" lon="-3.57352">
        <ele>74.8</ele>
        <time>2019-07-11T10:51:29Z</time>
      </trkpt>
      <trkpt lat="48.763" lon="-3.5735">
        <ele>75.7</ele>
        <time>2019-07-11T10:51:30Z</time>
      </trkpt>
      <trkpt lat="48.76302" lon="-3.57349">
        <ele>76.2</ele>
        <time>2019-07-11T10:51:31Z</time>
      </trkpt>
      <trkpt lat="48.76304" lon="-3.57346">
        <ele>75.8</ele>
        <time>2019-07-11T10:51:32Z</time>
      </trkpt>
      <trkpt lat="48.76306" lon="-3.57343">
        <ele>75.9</ele>
        <time>2019-07-11T10:51:33Z</time>
      </trkpt>
      <trkpt lat="48.76309" lon="-3.5734">
        <ele>76.2</ele>
        <time>2019-07-11T10:51:34Z</time>
      </trkpt>
      <trkpt lat="48.76312" lon="-3.57337">
        <ele>75.8</ele>
        <time>2019-07-11T10:51:35Z</time>
      </trkpt>
      <trkpt lat="48.76315" lon="-3.57334">
        <ele>75.7</ele>
        <time>2019-07-11T10:51:36Z</time>
      </trkpt>
      <trkpt lat="48.76317" lon="-3.57331">
        <ele>75.4</ele>
        <time>2019-07-11T10:51:37Z</time>
      </trkpt>
      <trkpt lat="48.7632" lon="-3.57328">
        <ele>75.6</ele>
        <time>2019-07-11T10:51:38Z</time>
      </trkpt>
      <trkpt lat="48.76322" lon="-3.57324">
        <ele>74.9</ele>
        <time>2019-07-11T10:51:39Z</time>
      </trkpt>
      <trkpt lat="48.76324" lon="-3.5732">
        <ele>74.1</ele>
        <time>2019-07-11T10:51:40Z</time>
      </trkpt>
      <trkpt lat="48.76326" lon="-3.57317">
        <ele>73.7</ele>
        <time>2019-07-11T10:51:41Z</time>
      </trkpt>
      <trkpt lat="48.76328" lon="-3.57314">
        <ele>73.2</ele>
        <time>2019-07-11T10:51:42Z</time>
      </trkpt>
      <trkpt lat="48.7633" lon="-3.57311">
        <ele>73</ele>
        <time>2019-07-11T10:51:43Z</time>
      </trkpt>
      <trkpt lat="48.76332" lon="-3.57308">
        <ele>73</ele>
        <time>2019-07-11T10:51:44Z</time>
      </trkpt>
      <trkpt lat="48.76334" lon="-3.57304">
        <ele>73.2</ele>
        <time>2019-07-11T10:51:45Z</time>
      </trkpt>
      <trkpt lat="48.76336" lon="-3.57301">
        <ele>73.4</ele>
        <time>2019-07-11T10:51:46Z</time>
      </trkpt>
      <trkpt lat="48.76338" lon="-3.57297">
        <ele>73.5</ele>
        <time>2019-07-11T10:51:47Z</time>
      </trkpt>
      <trkpt lat="48.7634" lon="-3.57294">
        <ele>73.4</ele>
        <time>2019-07-11T10:51:48Z</time>
      </trkpt>
      <trkpt lat="48.76342" lon="-3.5729">
        <ele>73.4</ele>
        <time>2019-07-11T10:51:49Z</time>
      </trkpt>
      <trkpt lat="48.76345" lon="-3.57286">
        <ele>73.3</ele>
        <time>2019-07-11T10:51:50Z</time>
      </trkpt>
      <trkpt lat="48.76347" lon="-3.57282">
        <ele>73.5</ele>
        <time>2019-07-11T10:51:51Z</time>
      </trkpt>
      <trkpt lat="48.76348" lon="-3.57278">
        <ele>73.6</ele>
        <time>2019-07-11T10:51:52Z</time>
      </trkpt>
      <trkpt lat="48.7635" lon="-3.57273">
        <ele>73.2</ele>
        <time>2019-07-11T10:51:53Z</time>
      </trkpt>
      <trkpt lat="48.76351" lon="-3.57269">
        <ele>72.8</ele>
        <time>2019-07-11T10:51:54Z</time>
      </trkpt>
      <trkpt lat="48.76352" lon="-3.57265">
        <ele>72.6</ele>
        <time>2019-07-11T10:51:55Z</time>
      </trkpt>
      <trkpt lat="48.76353" lon="-3.57262">
        <ele>72.8</ele>
        <time>2019-07-11T10:51:56Z</time>
      </trkpt>
      <trkpt lat="48.76354" lon="-3.57258">
        <ele>73.2</ele>
        <time>2019-07-11T10:51:57Z</time>
      </trkpt>
      <trkpt lat="48.76356" lon="-3.57254">
        <ele>73.3</ele>
        <time>2019-07-11T10:51:58Z</time>
      </trkpt>
      <trkpt lat="48.76358" lon="-3.5725">
        <ele>73.1</ele>
        <time>2019-07-11T10:51:59Z</time>
      </trkpt>
      <trkpt lat="48.76359" lon="-3.57246">
        <ele>73.5</ele>
        <time>2019-07-11T10:52:00Z</time>
      </trkpt>
      <trkpt lat="48.76361" lon="-3.57243">
        <ele>73.4</ele>
        <time>2019-07-11T10:52:01Z</time>
      </trkpt>
      <trkpt lat="48.76363" lon="-3.5724">
        <ele>73.4</ele>
        <time>2019-07-11T10:52:02Z</time>
      </trkpt>
      <trkpt lat="48.76364" lon="-3.57237">
        <ele>73.6</ele>
        <time>2019-07-11T10:52:03Z</time>
      </trkpt>
      <trkpt lat="48.76366" lon="-3.57234">
        <ele>73.9</ele>
        <time>2019-07-11T10:52:04Z</time>
      </trkpt>
      <trkpt lat="48.76367" lon="-3.57231">
        <ele>74.3</ele>
        <time>2019-07-11T10:52:05Z</time>
      </trkpt>
      <trkpt lat="48.76369" lon="-3.57229">
        <ele>74.2</ele>
        <time>2019-07-11T10:52:06Z</time>
      </trkpt>
      <trkpt lat="48.76371" lon="-3.57226">
        <ele>73.9</ele>
        <time>2019-07-11T10:52:07Z</time>
      </trkpt>
      <trkpt lat="48.76373" lon="-3.57224">
        <ele>74.1</ele>
        <time>2019-07-11T10:52:08Z</time>
      </trkpt>
      <trkpt lat="48.76375" lon="-3.57222">
        <ele>74</ele>
        <time>2019-07-11T10:52:09Z</time>
      </trkpt>
      <trkpt lat="48.76377" lon="-3.5722">
        <ele>73.8</ele>
        <time>2019-07-11T10:52:10Z</time>
      </trkpt>
      <trkpt lat="48.76379" lon="-3.57217">
        <ele>73.8</ele>
        <time>2019-07-11T10:52:11Z</time>
      </trkpt>
      <trkpt lat="48.76381" lon="-3.57215">
        <ele>73.8</ele>
        <time>2019-07-11T10:52:12Z</time>
      </trkpt>
      <trkpt lat="48.76383" lon="-3.57212">
        <ele>74</ele>
        <time>2019-07-11T10:52:13Z</time>
      </trkpt>
      <trkpt lat="48.76385" lon="-3.57209">
        <ele>74.1</ele>
        <time>2019-07-11T10:52:14Z</time>
      </trkpt>
      <trkpt lat="48.76387" lon="-3.57207">
        <ele>73.9</ele>
        <time>2019-07-11T10:52:15Z</time>
      </trkpt>
      <trkpt lat="48.76388" lon="-3.57204">
        <ele>74.2</ele>
        <time>2019-07-11T10:52:16Z</time>
      </trkpt>
      <trkpt lat="48.7639" lon="-3.57202">
        <ele>74.7</ele>
        <time>2019-07-11T10:52:17Z</time>
      </trkpt>
      <trkpt lat="48.76392" lon="-3.572">
        <ele>74.8</ele>
        <time>2019-07-11T10:52:18Z</time>
      </trkpt>
      <trkpt lat="48.76394" lon="-3.57198">
        <ele>75.5</ele>
        <time>2019-07-11T10:52:19Z</time>
      </trkpt>
      <trkpt lat="48.76396" lon="-3.57196">
        <ele>76.7</ele>
        <time>2019-07-11T10:52:20Z</time>
      </trkpt>
      <trkpt lat="48.76398" lon="-3.57194">
        <ele>77.2</ele>
        <time>2019-07-11T10:52:21Z</time>
      </trkpt>
      <trkpt lat="48.76399" lon="-3.57191">
        <ele>77.8</ele>
        <time>2019-07-11T10:52:22Z</time>
      </trkpt>
      <trkpt lat="48.764" lon="-3.57189">
        <ele>78.5</ele>
        <time>2019-07-11T10:52:23Z</time>
      </trkpt>
      <trkpt lat="48.76402" lon="-3.57186">
        <ele>79.2</ele>
        <time>2019-07-11T10:52:24Z</time>
      </trkpt>
      <trkpt lat="48.76403" lon="-3.57184">
        <ele>79.6</ele>
        <time>2019-07-11T10:52:25Z</time>
      </trkpt>
      <trkpt lat="48.76405" lon="-3.57181">
        <ele>79.6</ele>
        <time>2019-07-11T10:52:26Z</time>
      </trkpt>
      <trkpt lat="48.76406" lon="-3.57179">
        <ele>79.8</ele>
        <time>2019-07-11T10:52:27Z</time>
      </trkpt>
      <trkpt lat="48.76408" lon="-3.57176">
        <ele>79.7</ele>
        <time>2019-07-11T10:52:28Z</time>
      </trkpt>
      <trkpt lat="48.7641" lon="-3.57173">
        <ele>80.3</ele>
        <time>2019-07-11T10:52:29Z</time>
      </trkpt>
      <trkpt lat="48.76412" lon="-3.5717">
        <ele>80.4</ele>
        <time>2019-07-11T10:52:30Z</time>
      </trkpt>
      <trkpt lat="48.76413" lon="-3.57167">
        <ele>80.6</ele>
        <time>2019-07-11T10:52:31Z</time>
      </trkpt>
      <trkpt lat="48.76416" lon="-3.57163">
        <ele>79.8</ele>
        <time>2019-07-11T10:52:32Z</time>
      </trkpt>
      <trkpt lat="48.76419" lon="-3.5716">
        <ele>79.1</ele>
        <time>2019-07-11T10:52:33Z</time>
      </trkpt>
      <trkpt lat="48.76421" lon="-3.57157">
        <ele>78.8</ele>
        <time>2019-07-11T10:52:34Z</time>
      </trkpt>
      <trkpt lat="48.76423" lon="-3.57153">
        <ele>79</ele>
        <time>2019-07-11T10:52:35Z</time>
      </trkpt>
      <trkpt lat="48.76424" lon="-3.5715">
        <ele>79.2</ele>
        <time>2019-07-11T10:52:36Z</time>
      </trkpt>
      <trkpt lat="48.76426" lon="-3.57146">
        <ele>79</ele>
        <time>2019-07-11T10:52:37Z</time>
      </trkpt>
      <trkpt lat="48.76428" lon="-3.57142">
        <ele>78.7</ele>
        <time>2019-07-11T10:52:38Z</time>
      </trkpt>
      <trkpt lat="48.76429" lon="-3.57138">
        <ele>79</ele>
        <time>2019-07-11T10:52:39Z</time>
      </trkpt>
      <trkpt lat="48.7643" lon="-3.57134">
        <ele>79.2</ele>
        <time>2019-07-11T10:52:40Z</time>
      </trkpt>
      <trkpt lat="48.76431" lon="-3.5713">
        <ele>79.4</ele>
        <time>2019-07-11T10:52:41Z</time>
      </trkpt>
      <trkpt lat="48.76432" lon="-3.57126">
        <ele>79.6</ele>
        <time>2019-07-11T10:52:42Z</time>
      </trkpt>
      <trkpt lat="48.76432" lon="-3.57121">
        <ele>79.4</ele>
        <time>2019-07-11T10:52:43Z</time>
      </trkpt>
      <trkpt lat="48.76432" lon="-3.57117">
        <ele>78.9</ele>
        <time>2019-07-11T10:52:44Z</time>
      </trkpt>
      <trkpt lat="48.76433" lon="-3.57112">
        <ele>78.8</ele>
        <time>2019-07-11T10:52:45Z</time>
      </trkpt>
      <trkpt lat="48.76434" lon="-3.57108">
        <ele>78.4</ele>
        <time>2019-07-11T10:52:46Z</time>
      </trkpt>
      <trkpt lat="48.76434" lon="-3.57104">
        <ele>78.6</ele>
        <time>2019-07-11T10:52:47Z</time>
      </trkpt>
      <trkpt lat="48.76434" lon="-3.571">
        <ele>78.9</ele>
        <time>2019-07-11T10:52:48Z</time>
      </trkpt>
      <trkpt lat="48.76434" lon="-3.57096">
        <ele>79.5</ele>
        <time>2019-07-11T10:52:49Z</time>
      </trkpt>
      <trkpt lat="48.76434" lon="-3.57092">
        <ele>80.2</ele>
        <time>2019-07-11T10:52:50Z</time>
      </trkpt>
      <trkpt lat="48.76434" lon="-3.57088">
        <ele>80.6</ele>
        <time>2019-07-11T10:52:51Z</time>
      </trkpt>
      <trkpt lat="48.76434" lon="-3.57083">
        <ele>81.5</ele>
        <time>2019-07-11T10:52:52Z</time>
      </trkpt>
      <trkpt lat="48.76435" lon="-3.57079">
        <ele>82.1</ele>
        <time>2019-07-11T10:52:53Z</time>
      </trkpt>
      <trkpt lat="48.76435" lon="-3.57075">
        <ele>82.4</ele>
        <time>2019-07-11T10:52:54Z</time>
      </trkpt>
      <trkpt lat="48.76436" lon="-3.57071">
        <ele>82.4</ele>
        <time>2019-07-11T10:52:55Z</time>
      </trkpt>
      <trkpt lat="48.76436" lon="-3.57067">
        <ele>82.8</ele>
        <time>2019-07-11T10:52:56Z</time>
      </trkpt>
      <trkpt lat="48.76437" lon="-3.57063">
        <ele>83.1</ele>
        <time>2019-07-11T10:52:57Z</time>
      </trkpt>
      <trkpt lat="48.76437" lon="-3.57059">
        <ele>83.1</ele>
        <time>2019-07-11T10:52:58Z</time>
      </trkpt>
      <trkpt lat="48.76437" lon="-3.57055">
        <ele>83.1</ele>
        <time>2019-07-11T10:52:59Z</time>
      </trkpt>
      <trkpt lat="48.76438" lon="-3.57051">
        <ele>83.5</ele>
        <time>2019-07-11T10:53:00Z</time>
      </trkpt>
      <trkpt lat="48.76439" lon="-3.57047">
        <ele>83.8</ele>
        <time>2019-07-11T10:53:01Z</time>
      </trkpt>
      <trkpt lat="48.76439" lon="-3.57043">
        <ele>83.8</ele>
        <time>2019-07-11T10:53:02Z</time>
      </trkpt>
      <trkpt lat="48.76439" lon="-3.57039">
        <ele>84.3</ele>
        <time>2019-07-11T10:53:03Z</time>
      </trkpt>
      <trkpt lat="48.7644" lon="-3.57035">
        <ele>84.6</ele>
        <time>2019-07-11T10:53:04Z</time>
      </trkpt>
      <trkpt lat="48.7644" lon="-3.57031">
        <ele>84.7</ele>
        <time>2019-07-11T10:53:05Z</time>
      </trkpt>
      <trkpt lat="48.76441" lon="-3.57027">
        <ele>85</ele>
        <time>2019-07-11T10:53:06Z</time>
      </trkpt>
      <trkpt lat="48.76442" lon="-3.57024">
        <ele>85.5</ele>
        <time>2019-07-11T10:53:07Z</time>
      </trkpt>
      <trkpt lat="48.76442" lon="-3.57021">
        <ele>86.1</ele>
        <time>2019-07-11T10:53:08Z</time>
      </trkpt>
      <trkpt lat="48.76442" lon="-3.57017">
        <ele>86.8</ele>
        <time>2019-07-11T10:53:09Z</time>
      </trkpt>
      <trkpt lat="48.76444" lon="-3.57014">
        <ele>87.2</ele>
        <time>2019-07-11T10:53:10Z</time>
      </trkpt>
      <trkpt lat="48.76445" lon="-3.5701">
        <ele>87.8</ele>
        <time>2019-07-11T10:53:11Z</time>
      </trkpt>
      <trkpt lat="48.76445" lon="-3.57006">
        <ele>88.6</ele>
        <time>2019-07-11T10:53:12Z</time>
      </trkpt>
      <trkpt lat="48.76446" lon="-3.57002">
        <ele>88.7</ele>
        <time>2019-07-11T10:53:13Z</time>
      </trkpt>
      <trkpt lat="48.76447" lon="-3.56998">
        <ele>89</ele>
        <time>2019-07-11T10:53:14Z</time>
      </trkpt>
      <trkpt lat="48.76448" lon="-3.56994">
        <ele>89.5</ele>
        <time>2019-07-11T10:53:15Z</time>
      </trkpt>
      <trkpt lat="48.76449" lon="-3.5699">
        <ele>89.7</ele>
        <time>2019-07-11T10:53:16Z</time>
      </trkpt>
      <trkpt lat="48.7645" lon="-3.56985">
        <ele>89.2</ele>
        <time>2019-07-11T10:53:17Z</time>
      </trkpt>
      <trkpt lat="48.76451" lon="-3.56981">
        <ele>88.4</ele>
        <time>2019-07-11T10:53:18Z</time>
      </trkpt>
      <trkpt lat="48.76452" lon="-3.56977">
        <ele>87.4</ele>
        <time>2019-07-11T10:53:19Z</time>
      </trkpt>
      <trkpt lat="48.76453" lon="-3.56974">
        <ele>87.2</ele>
        <time>2019-07-11T10:53:20Z</time>
      </trkpt>
      <trkpt lat="48.76455" lon="-3.5697">
        <ele>87</ele>
        <time>2019-07-11T10:53:21Z</time>
      </trkpt>
      <trkpt lat="48.76456" lon="-3.56967">
        <ele>87.1</ele>
        <time>2019-07-11T10:53:22Z</time>
      </trkpt>
      <trkpt lat="48.76458" lon="-3.56964">
        <ele>87.1</ele>
        <time>2019-07-11T10:53:23Z</time>
      </trkpt>
      <trkpt lat="48.76459" lon="-3.56961">
        <ele>87.4</ele>
        <time>2019-07-11T10:53:24Z</time>
      </trkpt>
      <trkpt lat="48.7646" lon="-3.56958">
        <ele>87.6</ele>
        <time>2019-07-11T10:53:25Z</time>
      </trkpt>
      <trkpt lat="48.76461" lon="-3.56955">
        <ele>87.7</ele>
        <time>2019-07-11T10:53:26Z</time>
      </trkpt>
      <trkpt lat="48.76463" lon="-3.56952">
        <ele>87.6</ele>
        <time>2019-07-11T10:53:27Z</time>
      </trkpt>
      <trkpt lat="48.76465" lon="-3.56948">
        <ele>87.7</ele>
        <time>2019-07-11T10:53:28Z</time>
      </trkpt>
      <trkpt lat="48.76466" lon="-3.56944">
        <ele>87.8</ele>
        <time>2019-07-11T10:53:29Z</time>
      </trkpt>
      <trkpt lat="48.76468" lon="-3.56939">
        <ele>87.7</ele>
        <time>2019-07-11T10:53:30Z</time>
      </trkpt>
      <trkpt lat="48.76471" lon="-3.56934">
        <ele>88</ele>
        <time>2019-07-11T10:53:31Z</time>
      </trkpt>
      <trkpt lat="48.76473" lon="-3.56929">
        <ele>87.9</ele>
        <time>2019-07-11T10:53:32Z</time>
      </trkpt>
      <trkpt lat="48.76475" lon="-3.56924">
        <ele>87.5</ele>
        <time>2019-07-11T10:53:33Z</time>
      </trkpt>
      <trkpt lat="48.76479" lon="-3.56919">
        <ele>86.8</ele>
        <time>2019-07-11T10:53:34Z</time>
      </trkpt>
      <trkpt lat="48.76482" lon="-3.56915">
        <ele>86.2</ele>
        <time>2019-07-11T10:53:35Z</time>
      </trkpt>
      <trkpt lat="48.76486" lon="-3.56909">
        <ele>85.6</ele>
        <time>2019-07-11T10:53:36Z</time>
      </trkpt>
      <trkpt lat="48.7649" lon="-3.56904">
        <ele>85.1</ele>
        <time>2019-07-11T10:53:37Z</time>
      </trkpt>
      <trkpt lat="48.76494" lon="-3.56899">
        <ele>85</ele>
        <time>2019-07-11T10:53:38Z</time>
      </trkpt>
      <trkpt lat="48.76498" lon="-3.56894">
        <ele>84.7</ele>
        <time>2019-07-11T10:53:39Z</time>
      </trkpt>
      <trkpt lat="48.76503" lon="-3.56889">
        <ele>84.2</ele>
        <time>2019-07-11T10:53:40Z</time>
      </trkpt>
      <trkpt lat="48.76507" lon="-3.56884">
        <ele>83.9</ele>
        <time>2019-07-11T10:53:41Z</time>
      </trkpt>
      <trkpt lat="48.76512" lon="-3.56878">
        <ele>83.7</ele>
        <time>2019-07-11T10:53:42Z</time>
      </trkpt>
      <trkpt lat="48.76516" lon="-3.56873">
        <ele>83.5</ele>
        <time>2019-07-11T10:53:43Z</time>
      </trkpt>
      <trkpt lat="48.76521" lon="-3.56867">
        <ele>83.2</ele>
        <time>2019-07-11T10:53:44Z</time>
      </trkpt>
      <trkpt lat="48.76526" lon="-3.56862">
        <ele>82.9</ele>
        <time>2019-07-11T10:53:45Z</time>
      </trkpt>
      <trkpt lat="48.7653" lon="-3.56858">
        <ele>83.1</ele>
        <time>2019-07-11T10:53:46Z</time>
      </trkpt>
      <trkpt lat="48.76534" lon="-3.56853">
        <ele>82.5</ele>
        <time>2019-07-11T10:53:47Z</time>
      </trkpt>
      <trkpt lat="48.76539" lon="-3.56848">
        <ele>82.2</ele>
        <time>2019-07-11T10:53:48Z</time>
      </trkpt>
      <trkpt lat="48.76542" lon="-3.56843">
        <ele>81.9</ele>
        <time>2019-07-11T10:53:49Z</time>
      </trkpt>
      <trkpt lat="48.76543" lon="-3.56836">
        <ele>82.1</ele>
        <time>2019-07-11T10:53:50Z</time>
      </trkpt>
      <trkpt lat="48.76544" lon="-3.5683">
        <ele>82.7</ele>
        <time>2019-07-11T10:53:51Z</time>
      </trkpt>
      <trkpt lat="48.76543" lon="-3.56824">
        <ele>82.9</ele>
        <time>2019-07-11T10:53:52Z</time>
      </trkpt>
      <trkpt lat="48.76541" lon="-3.56816">
        <ele>83.1</ele>
        <time>2019-07-11T10:53:53Z</time>
      </trkpt>
      <trkpt lat="48.7654" lon="-3.56808">
        <ele>83.4</ele>
        <time>2019-07-11T10:53:54Z</time>
      </trkpt>
      <trkpt lat="48.7654" lon="-3.568">
        <ele>83.7</ele>
        <time>2019-07-11T10:53:55Z</time>
      </trkpt>
      <trkpt lat="48.7654" lon="-3.56791">
        <ele>83.8</ele>
        <time>2019-07-11T10:53:56Z</time>
      </trkpt>
      <trkpt lat="48.76539" lon="-3.56781">
        <ele>83.5</ele>
        <time>2019-07-11T10:53:57Z</time>
      </trkpt>
      <trkpt lat="48.7654" lon="-3.5677">
        <ele>83.2</ele>
        <time>2019-07-11T10:53:58Z</time>
      </trkpt>
      <trkpt lat="48.76539" lon="-3.56759">
        <ele>83.1</ele>
        <time>2019-07-11T10:53:59Z</time>
      </trkpt>
      <trkpt lat="48.76539" lon="-3.56747">
        <ele>82.6</ele>
        <time>2019-07-11T10:54:00Z</time>
      </trkpt>
      <trkpt lat="48.7654" lon="-3.56735">
        <ele>81.9</ele>
        <time>2019-07-11T10:54:01Z</time>
      </trkpt>
      <trkpt lat="48.76541" lon="-3.56723">
        <ele>81.7</ele>
        <time>2019-07-11T10:54:02Z</time>
      </trkpt>
      <trkpt lat="48.76542" lon="-3.56712">
        <ele>81.8</ele>
        <time>2019-07-11T10:54:03Z</time>
      </trkpt>
      <trkpt lat="48.76544" lon="-3.567">
        <ele>81.7</ele>
        <time>2019-07-11T10:54:04Z</time>
      </trkpt>
      <trkpt lat="48.76545" lon="-3.56688">
        <ele>81.5</ele>
        <time>2019-07-11T10:54:05Z</time>
      </trkpt>
      <trkpt lat="48.76547" lon="-3.56678">
        <ele>80.9</ele>
        <time>2019-07-11T10:54:06Z</time>
      </trkpt>
      <trkpt lat="48.76549" lon="-3.56667">
        <ele>80.3</ele>
        <time>2019-07-11T10:54:07Z</time>
      </trkpt>
      <trkpt lat="48.76552" lon="-3.56657">
        <ele>79.6</ele>
        <time>2019-07-11T10:54:08Z</time>
      </trkpt>
      <trkpt lat="48.76555" lon="-3.56647">
        <ele>79</ele>
        <time>2019-07-11T10:54:09Z</time>
      </trkpt>
      <trkpt lat="48.76559" lon="-3.56637">
        <ele>78.8</ele>
        <time>2019-07-11T10:54:10Z</time>
      </trkpt>
      <trkpt lat="48.76563" lon="-3.56628">
        <ele>78.5</ele>
        <time>2019-07-11T10:54:11Z</time>
      </trkpt>
      <trkpt lat="48.76567" lon="-3.5662">
        <ele>78</ele>
        <time>2019-07-11T10:54:12Z</time>
      </trkpt>
      <trkpt lat="48.76571" lon="-3.56613">
        <ele>77.5</ele>
        <time>2019-07-11T10:54:13Z</time>
      </trkpt>
      <trkpt lat="48.76574" lon="-3.56607">
        <ele>77.3</ele>
        <time>2019-07-11T10:54:14Z</time>
      </trkpt>
      <trkpt lat="48.76578" lon="-3.56602">
        <ele>77.3</ele>
        <time>2019-07-11T10:54:15Z</time>
      </trkpt>
      <trkpt lat="48.76581" lon="-3.56597">
        <ele>77.5</ele>
        <time>2019-07-11T10:54:16Z</time>
      </trkpt>
      <trkpt lat="48.76583" lon="-3.56593">
        <ele>77.6</ele>
        <time>2019-07-11T10:54:17Z</time>
      </trkpt>
      <trkpt lat="48.76586" lon="-3.56589">
        <ele>77.6</ele>
        <time>2019-07-11T10:54:18Z</time>
      </trkpt>
      <trkpt lat="48.76589" lon="-3.56586">
        <ele>77.4</ele>
        <time>2019-07-11T10:54:19Z</time>
      </trkpt>
      <trkpt lat="48.76591" lon="-3.56582">
        <ele>77.6</ele>
        <time>2019-07-11T10:54:20Z</time>
      </trkpt>
      <trkpt lat="48.76593" lon="-3.56579">
        <ele>77.6</ele>
        <time>2019-07-11T10:54:21Z</time>
      </trkpt>
      <trkpt lat="48.76594" lon="-3.56575">
        <ele>77.9</ele>
        <time>2019-07-11T10:54:22Z</time>
      </trkpt>
      <trkpt lat="48.76596" lon="-3.56572">
        <ele>77.9</ele>
        <time>2019-07-11T10:54:23Z</time>
      </trkpt>
      <trkpt lat="48.76598" lon="-3.56569">
        <ele>78.3</ele>
        <time>2019-07-11T10:54:24Z</time>
      </trkpt>
      <trkpt lat="48.76599" lon="-3.56565">
        <ele>78.5</ele>
        <time>2019-07-11T10:54:25Z</time>
      </trkpt>
      <trkpt lat="48.766" lon="-3.56562">
        <ele>78.6</ele>
        <time>2019-07-11T10:54:26Z</time>
      </trkpt>
      <trkpt lat="48.76602" lon="-3.56558">
        <ele>78.9</ele>
        <time>2019-07-11T10:54:27Z</time>
      </trkpt>
      <trkpt lat="48.76603" lon="-3.56554">
        <ele>79.2</ele>
        <time>2019-07-11T10:54:28Z</time>
      </trkpt>
      <trkpt lat="48.76605" lon="-3.56551">
        <ele>79.7</ele>
        <time>2019-07-11T10:54:29Z</time>
      </trkpt>
      <trkpt lat="48.76606" lon="-3.56547">
        <ele>80</ele>
        <time>2019-07-11T10:54:30Z</time>
      </trkpt>
      <trkpt lat="48.76608" lon="-3.56544">
        <ele>80.4</ele>
        <time>2019-07-11T10:54:31Z</time>
      </trkpt>
      <trkpt lat="48.76609" lon="-3.5654">
        <ele>80.6</ele>
        <time>2019-07-11T10:54:32Z</time>
      </trkpt>
      <trkpt lat="48.7661" lon="-3.56536">
        <ele>80.9</ele>
        <time>2019-07-11T10:54:33Z</time>
      </trkpt>
      <trkpt lat="48.76611" lon="-3.56531">
        <ele>81.1</ele>
        <time>2019-07-11T10:54:34Z</time>
      </trkpt>
      <trkpt lat="48.76611" lon="-3.56527">
        <ele>81.5</ele>
        <time>2019-07-11T10:54:35Z</time>
      </trkpt>
      <trkpt lat="48.76611" lon="-3.56523">
        <ele>81.9</ele>
        <time>2019-07-11T10:54:36Z</time>
      </trkpt>
      <trkpt lat="48.76612" lon="-3.56519">
        <ele>82.3</ele>
        <time>2019-07-11T10:54:37Z</time>
      </trkpt>
      <trkpt lat="48.76613" lon="-3.56516">
        <ele>82.7</ele>
        <time>2019-07-11T10:54:38Z</time>
      </trkpt>
      <trkpt lat="48.76614" lon="-3.56511">
        <ele>83</ele>
        <time>2019-07-11T10:54:39Z</time>
      </trkpt>
      <trkpt lat="48.76615" lon="-3.56507">
        <ele>82.9</ele>
        <time>2019-07-11T10:54:40Z</time>
      </trkpt>
      <trkpt lat="48.76616" lon="-3.56502">
        <ele>82.7</ele>
        <time>2019-07-11T10:54:41Z</time>
      </trkpt>
      <trkpt lat="48.76616" lon="-3.56498">
        <ele>82.6</ele>
        <time>2019-07-11T10:54:42Z</time>
      </trkpt>
      <trkpt lat="48.76617" lon="-3.56493">
        <ele>83</ele>
        <time>2019-07-11T10:54:43Z</time>
      </trkpt>
      <trkpt lat="48.76617" lon="-3.56488">
        <ele>83.2</ele>
        <time>2019-07-11T10:54:44Z</time>
      </trkpt>
      <trkpt lat="48.76616" lon="-3.56483">
        <ele>83.2</ele>
        <time>2019-07-11T10:54:45Z</time>
      </trkpt>
      <trkpt lat="48.76616" lon="-3.56477">
        <ele>83.1</ele>
        <time>2019-07-11T10:54:46Z</time>
      </trkpt>
      <trkpt lat="48.76616" lon="-3.5647">
        <ele>82.9</ele>
        <time>2019-07-11T10:54:47Z</time>
      </trkpt>
      <trkpt lat="48.76617" lon="-3.56462">
        <ele>82.7</ele>
        <time>2019-07-11T10:54:48Z</time>
      </trkpt>
      <trkpt lat="48.76617" lon="-3.56454">
        <ele>82.9</ele>
        <time>2019-07-11T10:54:49Z</time>
      </trkpt>
      <trkpt lat="48.76619" lon="-3.56446">
        <ele>83.4</ele>
        <time>2019-07-11T10:54:50Z</time>
      </trkpt>
      <trkpt lat="48.76622" lon="-3.56438">
        <ele>84.3</ele>
        <time>2019-07-11T10:54:51Z</time>
      </trkpt>
      <trkpt lat="48.76623" lon="-3.56429">
        <ele>84.3</ele>
        <time>2019-07-11T10:54:52Z</time>
      </trkpt>
      <trkpt lat="48.76624" lon="-3.5642">
        <ele>84.2</ele>
        <time>2019-07-11T10:54:53Z</time>
      </trkpt>
      <trkpt lat="48.76626" lon="-3.56412">
        <ele>84.4</ele>
        <time>2019-07-11T10:54:54Z</time>
      </trkpt>
      <trkpt lat="48.76627" lon="-3.56404">
        <ele>84</ele>
        <time>2019-07-11T10:54:55Z</time>
      </trkpt>
      <trkpt lat="48.76628" lon="-3.56395">
        <ele>83.6</ele>
        <time>2019-07-11T10:54:56Z</time>
      </trkpt>
      <trkpt lat="48.7663" lon="-3.56388">
        <ele>83.2</ele>
        <time>2019-07-11T10:54:57Z</time>
      </trkpt>
      <trkpt lat="48.76631" lon="-3.56381">
        <ele>82.7</ele>
        <time>2019-07-11T10:54:58Z</time>
      </trkpt>
      <trkpt lat="48.76633" lon="-3.56373">
        <ele>82.2</ele>
        <time>2019-07-11T10:54:59Z</time>
      </trkpt>
      <trkpt lat="48.76634" lon="-3.56366">
        <ele>81.9</ele>
        <time>2019-07-11T10:55:00Z</time>
      </trkpt>
      <trkpt lat="48.76636" lon="-3.56359">
        <ele>81.4</ele>
        <time>2019-07-11T10:55:01Z</time>
      </trkpt>
      <trkpt lat="48.76637" lon="-3.56353">
        <ele>81</ele>
        <time>2019-07-11T10:55:02Z</time>
      </trkpt>
      <trkpt lat="48.76638" lon="-3.56347">
        <ele>80.8</ele>
        <time>2019-07-11T10:55:03Z</time>
      </trkpt>
      <trkpt lat="48.7664" lon="-3.56341">
        <ele>80.7</ele>
        <time>2019-07-11T10:55:04Z</time>
      </trkpt>
      <trkpt lat="48.76641" lon="-3.56335">
        <ele>80.6</ele>
        <time>2019-07-11T10:55:05Z</time>
      </trkpt>
      <trkpt lat="48.76642" lon="-3.56331">
        <ele>80.6</ele>
        <time>2019-07-11T10:55:06Z</time>
      </trkpt>
      <trkpt lat="48.76644" lon="-3.56326">
        <ele>80.4</ele>
        <time>2019-07-11T10:55:07Z</time>
      </trkpt>
      <trkpt lat="48.76646" lon="-3.5632">
        <ele>79.9</ele>
        <time>2019-07-11T10:55:08Z</time>
      </trkpt>
      <trkpt lat="48.76647" lon="-3.56314">
        <ele>79.8</ele>
        <time>2019-07-11T10:55:09Z</time>
      </trkpt>
      <trkpt lat="48.76648" lon="-3.56309">
        <ele>79.5</ele>
        <time>2019-07-11T10:55:10Z</time>
      </trkpt>
      <trkpt lat="48.7665" lon="-3.56304">
        <ele>79.6</ele>
        <time>2019-07-11T10:55:11Z</time>
      </trkpt>
      <trkpt lat="48.7665" lon="-3.56299">
        <ele>79.8</ele>
        <time>2019-07-11T10:55:12Z</time>
      </trkpt>
      <trkpt lat="48.76651" lon="-3.56294">
        <ele>79.7</ele>
        <time>2019-07-11T10:55:13Z</time>
      </trkpt>
      <trkpt lat="48.76652" lon="-3.56289">
        <ele>79.9</ele>
        <time>2019-07-11T10:55:14Z</time>
      </trkpt>
      <trkpt lat="48.76653" lon="-3.56284">
        <ele>80</ele>
        <time>2019-07-11T10:55:15Z</time>
      </trkpt>
      <trkpt lat="48.76654" lon="-3.56279">
        <ele>80.1</ele>
        <time>2019-07-11T10:55:16Z</time>
      </trkpt>
      <trkpt lat="48.76656" lon="-3.56274">
        <ele>80.1</ele>
        <time>2019-07-11T10:55:17Z</time>
      </trkpt>
      <trkpt lat="48.76657" lon="-3.56269">
        <ele>80.2</ele>
        <time>2019-07-11T10:55:18Z</time>
      </trkpt>
      <trkpt lat="48.76658" lon="-3.56264">
        <ele>80.2</ele>
        <time>2019-07-11T10:55:19Z</time>
      </trkpt>
      <trkpt lat="48.7666" lon="-3.56259">
        <ele>80.7</ele>
        <time>2019-07-11T10:55:20Z</time>
      </trkpt>
      <trkpt lat="48.76661" lon="-3.56254">
        <ele>80.7</ele>
        <time>2019-07-11T10:55:21Z</time>
      </trkpt>
      <trkpt lat="48.76661" lon="-3.5625">
        <ele>80.5</ele>
        <time>2019-07-11T10:55:22Z</time>
      </trkpt>
      <trkpt lat="48.7666" lon="-3.56246">
        <ele>80.4</ele>
        <time>2019-07-11T10:55:23Z</time>
      </trkpt>
      <trkpt lat="48.76659" lon="-3.56243">
        <ele>81.2</ele>
        <time>2019-07-11T10:55:24Z</time>
      </trkpt>
      <trkpt lat="48.76659" lon="-3.56241">
        <ele>82.5</ele>
        <time>2019-07-11T10:55:25Z</time>
      </trkpt>
      <trkpt lat="48.76658" lon="-3.56239">
        <ele>83.3</ele>
        <time>2019-07-11T10:55:26Z</time>
      </trkpt>
      <trkpt lat="48.76658" lon="-3.56236">
        <ele>83.9</ele>
        <time>2019-07-11T10:55:27Z</time>
      </trkpt>
      <trkpt lat="48.76658" lon="-3.56233">
        <ele>84.4</ele>
        <time>2019-07-11T10:55:28Z</time>
      </trkpt>
      <trkpt lat="48.76659" lon="-3.56229">
        <ele>84.7</ele>
        <time>2019-07-11T10:55:29Z</time>
      </trkpt>
      <trkpt lat="48.76659" lon="-3.56224">
        <ele>85.1</ele>
        <time>2019-07-11T10:55:30Z</time>
      </trkpt>
      <trkpt lat="48.7666" lon="-3.56219">
        <ele>85.4</ele>
        <time>2019-07-11T10:55:31Z</time>
      </trkpt>
      <trkpt lat="48.7666" lon="-3.56213">
        <ele>85.6</ele>
        <time>2019-07-11T10:55:32Z</time>
      </trkpt>
      <trkpt lat="48.7666" lon="-3.56207">
        <ele>85.8</ele>
        <time>2019-07-11T10:55:33Z</time>
      </trkpt>
      <trkpt lat="48.7666" lon="-3.56202">
        <ele>85.9</ele>
        <time>2019-07-11T10:55:34Z</time>
      </trkpt>
      <trkpt lat="48.7666" lon="-3.56196">
        <ele>86</ele>
        <time>2019-07-11T10:55:35Z</time>
      </trkpt>
      <trkpt lat="48.7666" lon="-3.56191">
        <ele>86</ele>
        <time>2019-07-11T10:55:36Z</time>
      </trkpt>
      <trkpt lat="48.76658" lon="-3.56187">
        <ele>85.9</ele>
        <time>2019-07-11T10:55:37Z</time>
      </trkpt>
      <trkpt lat="48.76658" lon="-3.56181">
        <ele>85.6</ele>
        <time>2019-07-11T10:55:38Z</time>
      </trkpt>
      <trkpt lat="48.76658" lon="-3.56176">
        <ele>85.4</ele>
        <time>2019-07-11T10:55:39Z</time>
      </trkpt>
      <trkpt lat="48.76657" lon="-3.56172">
        <ele>85.4</ele>
        <time>2019-07-11T10:55:40Z</time>
      </trkpt>
      <trkpt lat="48.76657" lon="-3.56167">
        <ele>85.6</ele>
        <time>2019-07-11T10:55:41Z</time>
      </trkpt>
      <trkpt lat="48.76658" lon="-3.56162">
        <ele>85.6</ele>
        <time>2019-07-11T10:55:42Z</time>
      </trkpt>
      <trkpt lat="48.76658" lon="-3.56157">
        <ele>85.7</ele>
        <time>2019-07-11T10:55:43Z</time>
      </trkpt>
      <trkpt lat="48.76658" lon="-3.56152">
        <ele>85.8</ele>
        <time>2019-07-11T10:55:44Z</time>
      </trkpt>
      <trkpt lat="48.76658" lon="-3.56147">
        <ele>85.8</ele>
        <time>2019-07-11T10:55:45Z</time>
      </trkpt>
      <trkpt lat="48.76658" lon="-3.56142">
        <ele>85.9</ele>
        <time>2019-07-11T10:55:46Z</time>
      </trkpt>
      <trkpt lat="48.76657" lon="-3.56136">
        <ele>85.7</ele>
        <time>2019-07-11T10:55:47Z</time>
      </trkpt>
      <trkpt lat="48.76658" lon="-3.5613">
        <ele>85.7</ele>
        <time>2019-07-11T10:55:48Z</time>
      </trkpt>
      <trkpt lat="48.76659" lon="-3.56125">
        <ele>85.6</ele>
        <time>2019-07-11T10:55:49Z</time>
      </trkpt>
      <trkpt lat="48.76659" lon="-3.5612">
        <ele>85.6</ele>
        <time>2019-07-11T10:55:50Z</time>
      </trkpt>
      <trkpt lat="48.76658" lon="-3.56116">
        <ele>85.4</ele>
        <time>2019-07-11T10:55:51Z</time>
      </trkpt>
      <trkpt lat="48.76658" lon="-3.56111">
        <ele>85.2</ele>
        <time>2019-07-11T10:55:52Z</time>
      </trkpt>
      <trkpt lat="48.76658" lon="-3.56106">
        <ele>85.3</ele>
        <time>2019-07-11T10:55:53Z</time>
      </trkpt>
      <trkpt lat="48.76658" lon="-3.56101">
        <ele>85.2</ele>
        <time>2019-07-11T10:55:54Z</time>
      </trkpt>
      <trkpt lat="48.76657" lon="-3.56096">
        <ele>85.2</ele>
        <time>2019-07-11T10:55:55Z</time>
      </trkpt>
      <trkpt lat="48.76658" lon="-3.56091">
        <ele>85.3</ele>
        <time>2019-07-11T10:55:56Z</time>
      </trkpt>
      <trkpt lat="48.76658" lon="-3.56086">
        <ele>85.4</ele>
        <time>2019-07-11T10:55:57Z</time>
      </trkpt>
      <trkpt lat="48.76659" lon="-3.56081">
        <ele>85.4</ele>
        <time>2019-07-11T10:55:58Z</time>
      </trkpt>
      <trkpt lat="48.76658" lon="-3.56077">
        <ele>85.8</ele>
        <time>2019-07-11T10:55:59Z</time>
      </trkpt>
      <trkpt lat="48.76658" lon="-3.56073">
        <ele>86</ele>
        <time>2019-07-11T10:56:00Z</time>
      </trkpt>
      <trkpt lat="48.76657" lon="-3.56068">
        <ele>86.2</ele>
        <time>2019-07-11T10:56:01Z</time>
      </trkpt>
      <trkpt lat="48.76656" lon="-3.56064">
        <ele>86.4</ele>
        <time>2019-07-11T10:56:02Z</time>
      </trkpt>
      <trkpt lat="48.76655" lon="-3.56059">
        <ele>86.3</ele>
        <time>2019-07-11T10:56:03Z</time>
      </trkpt>
      <trkpt lat="48.76656" lon="-3.56055">
        <ele>86.1</ele>
        <time>2019-07-11T10:56:04Z</time>
      </trkpt>
      <trkpt lat="48.76655" lon="-3.56051">
        <ele>86.3</ele>
        <time>2019-07-11T10:56:05Z</time>
      </trkpt>
      <trkpt lat="48.76655" lon="-3.56047">
        <ele>86.5</ele>
        <time>2019-07-11T10:56:06Z</time>
      </trkpt>
      <trkpt lat="48.76655" lon="-3.56043">
        <ele>86.7</ele>
        <time>2019-07-11T10:56:07Z</time>
      </trkpt>
      <trkpt lat="48.76656" lon="-3.56038">
        <ele>86.9</ele>
        <time>2019-07-11T10:56:08Z</time>
      </trkpt>
      <trkpt lat="48.76656" lon="-3.56034">
        <ele>86.7</ele>
        <time>2019-07-11T10:56:09Z</time>
      </trkpt>
      <trkpt lat="48.76658" lon="-3.5603">
        <ele>86.3</ele>
        <time>2019-07-11T10:56:10Z</time>
      </trkpt>
      <trkpt lat="48.76658" lon="-3.56027">
        <ele>86.2</ele>
        <time>2019-07-11T10:56:11Z</time>
      </trkpt>
      <trkpt lat="48.76659" lon="-3.56024">
        <ele>86.2</ele>
        <time>2019-07-11T10:56:12Z</time>
      </trkpt>
      <trkpt lat="48.76659" lon="-3.5602">
        <ele>86.1</ele>
        <time>2019-07-11T10:56:13Z</time>
      </trkpt>
      <trkpt lat="48.76658" lon="-3.56015">
        <ele>85.4</ele>
        <time>2019-07-11T10:56:14Z</time>
      </trkpt>
      <trkpt lat="48.76658" lon="-3.56011">
        <ele>85.1</ele>
        <time>2019-07-11T10:56:15Z</time>
      </trkpt>
      <trkpt lat="48.76656" lon="-3.56007">
        <ele>84.9</ele>
        <time>2019-07-11T10:56:16Z</time>
      </trkpt>
      <trkpt lat="48.76656" lon="-3.56003">
        <ele>84.6</ele>
        <time>2019-07-11T10:56:17Z</time>
      </trkpt>
      <trkpt lat="48.76655" lon="-3.55999">
        <ele>84.3</ele>
        <time>2019-07-11T10:56:18Z</time>
      </trkpt>
      <trkpt lat="48.76654" lon="-3.55995">
        <ele>84.3</ele>
        <time>2019-07-11T10:56:19Z</time>
      </trkpt>
      <trkpt lat="48.76655" lon="-3.55991">
        <ele>84.9</ele>
        <time>2019-07-11T10:56:20Z</time>
      </trkpt>
      <trkpt lat="48.76655" lon="-3.55987">
        <ele>85.6</ele>
        <time>2019-07-11T10:56:21Z</time>
      </trkpt>
      <trkpt lat="48.76654" lon="-3.55984">
        <ele>86.6</ele>
        <time>2019-07-11T10:56:22Z</time>
      </trkpt>
      <trkpt lat="48.76654" lon="-3.5598">
        <ele>87.1</ele>
        <time>2019-07-11T10:56:23Z</time>
      </trkpt>
      <trkpt lat="48.76653" lon="-3.55975">
        <ele>87.3</ele>
        <time>2019-07-11T10:56:24Z</time>
      </trkpt>
      <trkpt lat="48.76653" lon="-3.55972">
        <ele>88</ele>
        <time>2019-07-11T10:56:25Z</time>
      </trkpt>
      <trkpt lat="48.76653" lon="-3.55968">
        <ele>88.3</ele>
        <time>2019-07-11T10:56:26Z</time>
      </trkpt>
      <trkpt lat="48.76653" lon="-3.55964">
        <ele>88.5</ele>
        <time>2019-07-11T10:56:27Z</time>
      </trkpt>
      <trkpt lat="48.76653" lon="-3.5596">
        <ele>88.8</ele>
        <time>2019-07-11T10:56:28Z</time>
      </trkpt>
      <trkpt lat="48.76654" lon="-3.55956">
        <ele>89.2</ele>
        <time>2019-07-11T10:56:29Z</time>
      </trkpt>
      <trkpt lat="48.76655" lon="-3.55952">
        <ele>88.6</ele>
        <time>2019-07-11T10:56:30Z</time>
      </trkpt>
      <trkpt lat="48.76655" lon="-3.55949">
        <ele>88.5</ele>
        <time>2019-07-11T10:56:31Z</time>
      </trkpt>
      <trkpt lat="48.76656" lon="-3.55946">
        <ele>88.5</ele>
        <time>2019-07-11T10:56:32Z</time>
      </trkpt>
      <trkpt lat="48.76658" lon="-3.55942">
        <ele>87.5</ele>
        <time>2019-07-11T10:56:33Z</time>
      </trkpt>
      <trkpt lat="48.76659" lon="-3.55937">
        <ele>86.9</ele>
        <time>2019-07-11T10:56:34Z</time>
      </trkpt>
      <trkpt lat="48.7666" lon="-3.55933">
        <ele>86.6</ele>
        <time>2019-07-11T10:56:35Z</time>
      </trkpt>
      <trkpt lat="48.76661" lon="-3.55929">
        <ele>86.7</ele>
        <time>2019-07-11T10:56:36Z</time>
      </trkpt>
      <trkpt lat="48.76661" lon="-3.55925">
        <ele>86.6</ele>
        <time>2019-07-11T10:56:37Z</time>
      </trkpt>
      <trkpt lat="48.76661" lon="-3.55922">
        <ele>86.5</ele>
        <time>2019-07-11T10:56:38Z</time>
      </trkpt>
      <trkpt lat="48.7666" lon="-3.55918">
        <ele>86.2</ele>
        <time>2019-07-11T10:56:39Z</time>
      </trkpt>
      <trkpt lat="48.76659" lon="-3.55914">
        <ele>86.2</ele>
        <time>2019-07-11T10:56:40Z</time>
      </trkpt>
      <trkpt lat="48.76659" lon="-3.55909">
        <ele>86.1</ele>
        <time>2019-07-11T10:56:41Z</time>
      </trkpt>
      <trkpt lat="48.76659" lon="-3.55904">
        <ele>86.1</ele>
        <time>2019-07-11T10:56:42Z</time>
      </trkpt>
      <trkpt lat="48.76659" lon="-3.55899">
        <ele>86.4</ele>
        <time>2019-07-11T10:56:43Z</time>
      </trkpt>
      <trkpt lat="48.76659" lon="-3.55894">
        <ele>86.5</ele>
        <time>2019-07-11T10:56:44Z</time>
      </trkpt>
      <trkpt lat="48.76659" lon="-3.55888">
        <ele>86.3</ele>
        <time>2019-07-11T10:56:45Z</time>
      </trkpt>
      <trkpt lat="48.76659" lon="-3.55882">
        <ele>86</ele>
        <time>2019-07-11T10:56:46Z</time>
      </trkpt>
      <trkpt lat="48.76658" lon="-3.55877">
        <ele>86.3</ele>
        <time>2019-07-11T10:56:47Z</time>
      </trkpt>
      <trkpt lat="48.76658" lon="-3.55872">
        <ele>86.8</ele>
        <time>2019-07-11T10:56:48Z</time>
      </trkpt>
      <trkpt lat="48.76657" lon="-3.55868">
        <ele>87.4</ele>
        <time>2019-07-11T10:56:49Z</time>
      </trkpt>
      <trkpt lat="48.76656" lon="-3.55864">
        <ele>87.6</ele>
        <time>2019-07-11T10:56:50Z</time>
      </trkpt>
      <trkpt lat="48.76656" lon="-3.55859">
        <ele>87.7</ele>
        <time>2019-07-11T10:56:51Z</time>
      </trkpt>
      <trkpt lat="48.76655" lon="-3.55854">
        <ele>87.4</ele>
        <time>2019-07-11T10:56:52Z</time>
      </trkpt>
      <trkpt lat="48.76655" lon="-3.55849">
        <ele>87.3</ele>
        <time>2019-07-11T10:56:53Z</time>
      </trkpt>
      <trkpt lat="48.76655" lon="-3.55844">
        <ele>87</ele>
        <time>2019-07-11T10:56:54Z</time>
      </trkpt>
      <trkpt lat="48.76654" lon="-3.55839">
        <ele>87</ele>
        <time>2019-07-11T10:56:55Z</time>
      </trkpt>
      <trkpt lat="48.76654" lon="-3.55834">
        <ele>86.9</ele>
        <time>2019-07-11T10:56:56Z</time>
      </trkpt>
      <trkpt lat="48.76654" lon="-3.55829">
        <ele>87.2</ele>
        <time>2019-07-11T10:56:57Z</time>
      </trkpt>
      <trkpt lat="48.76654" lon="-3.55825">
        <ele>87.8</ele>
        <time>2019-07-11T10:56:58Z</time>
      </trkpt>
      <trkpt lat="48.76653" lon="-3.5582">
        <ele>87.6</ele>
        <time>2019-07-11T10:56:59Z</time>
      </trkpt>
      <trkpt lat="48.76653" lon="-3.55816">
        <ele>87.8</ele>
        <time>2019-07-11T10:57:00Z</time>
      </trkpt>
      <trkpt lat="48.76652" lon="-3.55811">
        <ele>87.9</ele>
        <time>2019-07-11T10:57:01Z</time>
      </trkpt>
      <trkpt lat="48.76651" lon="-3.55806">
        <ele>88</ele>
        <time>2019-07-11T10:57:02Z</time>
      </trkpt>
      <trkpt lat="48.76651" lon="-3.55802">
        <ele>87.7</ele>
        <time>2019-07-11T10:57:03Z</time>
      </trkpt>
      <trkpt lat="48.7665" lon="-3.55797">
        <ele>87.3</ele>
        <time>2019-07-11T10:57:04Z</time>
      </trkpt>
      <trkpt lat="48.76649" lon="-3.55792">
        <ele>87.1</ele>
        <time>2019-07-11T10:57:05Z</time>
      </trkpt>
      <trkpt lat="48.76649" lon="-3.55788">
        <ele>87</ele>
        <time>2019-07-11T10:57:06Z</time>
      </trkpt>
      <trkpt lat="48.76648" lon="-3.55784">
        <ele>86.9</ele>
        <time>2019-07-11T10:57:07Z</time>
      </trkpt>
      <trkpt lat="48.76648" lon="-3.55779">
        <ele>86.8</ele>
        <time>2019-07-11T10:57:08Z</time>
      </trkpt>
      <trkpt lat="48.76647" lon="-3.55775">
        <ele>86.7</ele>
        <time>2019-07-11T10:57:09Z</time>
      </trkpt>
      <trkpt lat="48.76646" lon="-3.55771">
        <ele>86.4</ele>
        <time>2019-07-11T10:57:10Z</time>
      </trkpt>
      <trkpt lat="48.76646" lon="-3.55766">
        <ele>86.7</ele>
        <time>2019-07-11T10:57:11Z</time>
      </trkpt>
      <trkpt lat="48.76645" lon="-3.55762">
        <ele>87.1</ele>
        <time>2019-07-11T10:57:12Z</time>
      </trkpt>
      <trkpt lat="48.76643" lon="-3.55758">
        <ele>87.7</ele>
        <time>2019-07-11T10:57:13Z</time>
      </trkpt>
      <trkpt lat="48.76641" lon="-3.55754">
        <ele>88.7</ele>
        <time>2019-07-11T10:57:14Z</time>
      </trkpt>
      <trkpt lat="48.76639" lon="-3.55751">
        <ele>89.2</ele>
        <time>2019-07-11T10:57:15Z</time>
      </trkpt>
      <trkpt lat="48.76638" lon="-3.55747">
        <ele>89.6</ele>
        <time>2019-07-11T10:57:16Z</time>
      </trkpt>
      <trkpt lat="48.76636" lon="-3.55744">
        <ele>90</ele>
        <time>2019-07-11T10:57:17Z</time>
      </trkpt>
      <trkpt lat="48.76634" lon="-3.55741">
        <ele>90.4</ele>
        <time>2019-07-11T10:57:18Z</time>
      </trkpt>
      <trkpt lat="48.76632" lon="-3.55738">
        <ele>90.8</ele>
        <time>2019-07-11T10:57:19Z</time>
      </trkpt>
      <trkpt lat="48.7663" lon="-3.55734">
        <ele>91.3</ele>
        <time>2019-07-11T10:57:20Z</time>
      </trkpt>
      <trkpt lat="48.76629" lon="-3.55731">
        <ele>91.4</ele>
        <time>2019-07-11T10:57:21Z</time>
      </trkpt>
      <trkpt lat="48.76627" lon="-3.55728">
        <ele>91.9</ele>
        <time>2019-07-11T10:57:22Z</time>
      </trkpt>
      <trkpt lat="48.76625" lon="-3.55724">
        <ele>92.2</ele>
        <time>2019-07-11T10:57:23Z</time>
      </trkpt>
      <trkpt lat="48.76623" lon="-3.55721">
        <ele>92.2</ele>
        <time>2019-07-11T10:57:24Z</time>
      </trkpt>
      <trkpt lat="48.76622" lon="-3.55717">
        <ele>92.9</ele>
        <time>2019-07-11T10:57:25Z</time>
      </trkpt>
      <trkpt lat="48.7662" lon="-3.55713">
        <ele>93.3</ele>
        <time>2019-07-11T10:57:26Z</time>
      </trkpt>
      <trkpt lat="48.76618" lon="-3.5571">
        <ele>93.5</ele>
        <time>2019-07-11T10:57:27Z</time>
      </trkpt>
      <trkpt lat="48.76615" lon="-3.55707">
        <ele>92.6</ele>
        <time>2019-07-11T10:57:28Z</time>
      </trkpt>
      <trkpt lat="48.76613" lon="-3.55703">
        <ele>92.1</ele>
        <time>2019-07-11T10:57:29Z</time>
      </trkpt>
      <trkpt lat="48.76611" lon="-3.557">
        <ele>91.9</ele>
        <time>2019-07-11T10:57:30Z</time>
      </trkpt>
      <trkpt lat="48.76608" lon="-3.55697">
        <ele>91.1</ele>
        <time>2019-07-11T10:57:31Z</time>
      </trkpt>
      <trkpt lat="48.76606" lon="-3.55694">
        <ele>90.6</ele>
        <time>2019-07-11T10:57:32Z</time>
      </trkpt>
      <trkpt lat="48.76604" lon="-3.55691">
        <ele>90.3</ele>
        <time>2019-07-11T10:57:33Z</time>
      </trkpt>
      <trkpt lat="48.76602" lon="-3.55687">
        <ele>90</ele>
        <time>2019-07-11T10:57:34Z</time>
      </trkpt>
      <trkpt lat="48.766" lon="-3.55685">
        <ele>88.9</ele>
        <time>2019-07-11T10:57:35Z</time>
      </trkpt>
      <trkpt lat="48.76597" lon="-3.55682">
        <ele>88.4</ele>
        <time>2019-07-11T10:57:36Z</time>
      </trkpt>
      <trkpt lat="48.76595" lon="-3.55679">
        <ele>88.1</ele>
        <time>2019-07-11T10:57:37Z</time>
      </trkpt>
      <trkpt lat="48.76593" lon="-3.55677">
        <ele>88</ele>
        <time>2019-07-11T10:57:38Z</time>
      </trkpt>
      <trkpt lat="48.7659" lon="-3.55674">
        <ele>88.2</ele>
        <time>2019-07-11T10:57:39Z</time>
      </trkpt>
      <trkpt lat="48.76587" lon="-3.55671">
        <ele>87.3</ele>
        <time>2019-07-11T10:57:40Z</time>
      </trkpt>
      <trkpt lat="48.76584" lon="-3.55668">
        <ele>86.9</ele>
        <time>2019-07-11T10:57:41Z</time>
      </trkpt>
      <trkpt lat="48.76582" lon="-3.55664">
        <ele>86.9</ele>
        <time>2019-07-11T10:57:42Z</time>
      </trkpt>
      <trkpt lat="48.76579" lon="-3.55661">
        <ele>86.7</ele>
        <time>2019-07-11T10:57:43Z</time>
      </trkpt>
      <trkpt lat="48.76577" lon="-3.55658">
        <ele>86.6</ele>
        <time>2019-07-11T10:57:44Z</time>
      </trkpt>
      <trkpt lat="48.76574" lon="-3.55655">
        <ele>86.2</ele>
        <time>2019-07-11T10:57:45Z</time>
      </trkpt>
      <trkpt lat="48.76572" lon="-3.55652">
        <ele>85.5</ele>
        <time>2019-07-11T10:57:46Z</time>
      </trkpt>
      <trkpt lat="48.7657" lon="-3.5565">
        <ele>85.5</ele>
        <time>2019-07-11T10:57:47Z</time>
      </trkpt>
      <trkpt lat="48.76568" lon="-3.55647">
        <ele>85.3</ele>
        <time>2019-07-11T10:57:48Z</time>
      </trkpt>
      <trkpt lat="48.76566" lon="-3.55645">
        <ele>85.4</ele>
        <time>2019-07-11T10:57:49Z</time>
      </trkpt>
      <trkpt lat="48.76564" lon="-3.55642">
        <ele>85.3</ele>
        <time>2019-07-11T10:57:50Z</time>
      </trkpt>
      <trkpt lat="48.76562" lon="-3.55639">
        <ele>85.2</ele>
        <time>2019-07-11T10:57:51Z</time>
      </trkpt>
      <trkpt lat="48.7656" lon="-3.55636">
        <ele>85.2</ele>
        <time>2019-07-11T10:57:52Z</time>
      </trkpt>
      <trkpt lat="48.76558" lon="-3.55633">
        <ele>85.3</ele>
        <time>2019-07-11T10:57:53Z</time>
      </trkpt>
      <trkpt lat="48.76556" lon="-3.55629">
        <ele>85.3</ele>
        <time>2019-07-11T10:57:54Z</time>
      </trkpt>
      <trkpt lat="48.76554" lon="-3.55626">
        <ele>85.5</ele>
        <time>2019-07-11T10:57:55Z</time>
      </trkpt>
      <trkpt lat="48.76552" lon="-3.55622">
        <ele>85.6</ele>
        <time>2019-07-11T10:57:56Z</time>
      </trkpt>
      <trkpt lat="48.76549" lon="-3.5562">
        <ele>86</ele>
        <time>2019-07-11T10:57:57Z</time>
      </trkpt>
      <trkpt lat="48.76547" lon="-3.55616">
        <ele>86.3</ele>
        <time>2019-07-11T10:57:58Z</time>
      </trkpt>
      <trkpt lat="48.76545" lon="-3.55613">
        <ele>86.5</ele>
        <time>2019-07-11T10:57:59Z</time>
      </trkpt>
      <trkpt lat="48.76542" lon="-3.5561">
        <ele>86.7</ele>
        <time>2019-07-11T10:58:00Z</time>
      </trkpt>
      <trkpt lat="48.76539" lon="-3.55607">
        <ele>87.2</ele>
        <time>2019-07-11T10:58:01Z</time>
      </trkpt>
      <trkpt lat="48.76537" lon="-3.55604">
        <ele>88</ele>
        <time>2019-07-11T10:58:02Z</time>
      </trkpt>
      <trkpt lat="48.76535" lon="-3.55601">
        <ele>89.3</ele>
        <time>2019-07-11T10:58:03Z</time>
      </trkpt>
      <trkpt lat="48.76534" lon="-3.55598">
        <ele>90.8</ele>
        <time>2019-07-11T10:58:04Z</time>
      </trkpt>
      <trkpt lat="48.76531" lon="-3.55596">
        <ele>91.8</ele>
        <time>2019-07-11T10:58:05Z</time>
      </trkpt>
      <trkpt lat="48.76528" lon="-3.55593">
        <ele>92.3</ele>
        <time>2019-07-11T10:58:06Z</time>
      </trkpt>
      <trkpt lat="48.76525" lon="-3.55591">
        <ele>92.3</ele>
        <time>2019-07-11T10:58:07Z</time>
      </trkpt>
      <trkpt lat="48.76521" lon="-3.55588">
        <ele>92.2</ele>
        <time>2019-07-11T10:58:08Z</time>
      </trkpt>
      <trkpt lat="48.76518" lon="-3.55586">
        <ele>92.4</ele>
        <time>2019-07-11T10:58:09Z</time>
      </trkpt>
      <trkpt lat="48.76514" lon="-3.55583">
        <ele>92.4</ele>
        <time>2019-07-11T10:58:10Z</time>
      </trkpt>
      <trkpt lat="48.76511" lon="-3.5558">
        <ele>92.3</ele>
        <time>2019-07-11T10:58:11Z</time>
      </trkpt>
      <trkpt lat="48.76508" lon="-3.55577">
        <ele>92.2</ele>
        <time>2019-07-11T10:58:12Z</time>
      </trkpt>
      <trkpt lat="48.76506" lon="-3.55574">
        <ele>92</ele>
        <time>2019-07-11T10:58:13Z</time>
      </trkpt>
      <trkpt lat="48.76504" lon="-3.55571">
        <ele>91.8</ele>
        <time>2019-07-11T10:58:14Z</time>
      </trkpt>
      <trkpt lat="48.76502" lon="-3.55567">
        <ele>91.8</ele>
        <time>2019-07-11T10:58:15Z</time>
      </trkpt>
      <trkpt lat="48.765" lon="-3.55564">
        <ele>91.4</ele>
        <time>2019-07-11T10:58:16Z</time>
      </trkpt>
      <trkpt lat="48.76498" lon="-3.55561">
        <ele>91.1</ele>
        <time>2019-07-11T10:58:17Z</time>
      </trkpt>
      <trkpt lat="48.76496" lon="-3.55558">
        <ele>90.8</ele>
        <time>2019-07-11T10:58:18Z</time>
      </trkpt>
      <trkpt lat="48.76495" lon="-3.55554">
        <ele>90.7</ele>
        <time>2019-07-11T10:58:19Z</time>
      </trkpt>
      <trkpt lat="48.76493" lon="-3.5555">
        <ele>90.7</ele>
        <time>2019-07-11T10:58:20Z</time>
      </trkpt>
      <trkpt lat="48.76491" lon="-3.55548">
        <ele>90.9</ele>
        <time>2019-07-11T10:58:21Z</time>
      </trkpt>
      <trkpt lat="48.76489" lon="-3.55546">
        <ele>91.1</ele>
        <time>2019-07-11T10:58:22Z</time>
      </trkpt>
      <trkpt lat="48.76486" lon="-3.55543">
        <ele>91.5</ele>
        <time>2019-07-11T10:58:23Z</time>
      </trkpt>
      <trkpt lat="48.76484" lon="-3.5554">
        <ele>91.5</ele>
        <time>2019-07-11T10:58:24Z</time>
      </trkpt>
      <trkpt lat="48.76483" lon="-3.55535">
        <ele>91.5</ele>
        <time>2019-07-11T10:58:25Z</time>
      </trkpt>
      <trkpt lat="48.76482" lon="-3.55532">
        <ele>90.8</ele>
        <time>2019-07-11T10:58:26Z</time>
      </trkpt>
      <trkpt lat="48.76481" lon="-3.55529">
        <ele>89.6</ele>
        <time>2019-07-11T10:58:27Z</time>
      </trkpt>
      <trkpt lat="48.76479" lon="-3.55525">
        <ele>88.6</ele>
        <time>2019-07-11T10:58:28Z</time>
      </trkpt>
      <trkpt lat="48.76477" lon="-3.55521">
        <ele>88.3</ele>
        <time>2019-07-11T10:58:29Z</time>
      </trkpt>
      <trkpt lat="48.76475" lon="-3.55517">
        <ele>88.2</ele>
        <time>2019-07-11T10:58:30Z</time>
      </trkpt>
      <trkpt lat="48.76473" lon="-3.55513">
        <ele>88.2</ele>
        <time>2019-07-11T10:58:31Z</time>
      </trkpt>
      <trkpt lat="48.76471" lon="-3.55508">
        <ele>88.3</ele>
        <time>2019-07-11T10:58:32Z</time>
      </trkpt>
      <trkpt lat="48.7647" lon="-3.55504">
        <ele>88.6</ele>
        <time>2019-07-11T10:58:33Z</time>
      </trkpt>
      <trkpt lat="48.76469" lon="-3.55499">
        <ele>88.8</ele>
        <time>2019-07-11T10:58:34Z</time>
      </trkpt>
      <trkpt lat="48.76467" lon="-3.55494">
        <ele>88.4</ele>
        <time>2019-07-11T10:58:35Z</time>
      </trkpt>
      <trkpt lat="48.76465" lon="-3.5549">
        <ele>87.9</ele>
        <time>2019-07-11T10:58:36Z</time>
      </trkpt>
      <trkpt lat="48.76465" lon="-3.55485">
        <ele>87.7</ele>
        <time>2019-07-11T10:58:37Z</time>
      </trkpt>
      <trkpt lat="48.76463" lon="-3.5548">
        <ele>87.7</ele>
        <time>2019-07-11T10:58:38Z</time>
      </trkpt>
      <trkpt lat="48.76462" lon="-3.55474">
        <ele>87.8</ele>
        <time>2019-07-11T10:58:39Z</time>
      </trkpt>
      <trkpt lat="48.76461" lon="-3.55469">
        <ele>87.8</ele>
        <time>2019-07-11T10:58:40Z</time>
      </trkpt>
      <trkpt lat="48.7646" lon="-3.55464">
        <ele>87.9</ele>
        <time>2019-07-11T10:58:41Z</time>
      </trkpt>
      <trkpt lat="48.76459" lon="-3.55459">
        <ele>87.8</ele>
        <time>2019-07-11T10:58:42Z</time>
      </trkpt>
      <trkpt lat="48.76458" lon="-3.55455">
        <ele>87.8</ele>
        <time>2019-07-11T10:58:43Z</time>
      </trkpt>
      <trkpt lat="48.76457" lon="-3.55451">
        <ele>87.9</ele>
        <time>2019-07-11T10:58:44Z</time>
      </trkpt>
      <trkpt lat="48.76456" lon="-3.55447">
        <ele>88.2</ele>
        <time>2019-07-11T10:58:45Z</time>
      </trkpt>
      <trkpt lat="48.76454" lon="-3.55442">
        <ele>88.8</ele>
        <time>2019-07-11T10:58:46Z</time>
      </trkpt>
      <trkpt lat="48.76453" lon="-3.55438">
        <ele>89.3</ele>
        <time>2019-07-11T10:58:47Z</time>
      </trkpt>
      <trkpt lat="48.76451" lon="-3.55433">
        <ele>89.6</ele>
        <time>2019-07-11T10:58:48Z</time>
      </trkpt>
      <trkpt lat="48.7645" lon="-3.55428">
        <ele>89.6</ele>
        <time>2019-07-11T10:58:49Z</time>
      </trkpt>
      <trkpt lat="48.76448" lon="-3.55423">
        <ele>89.5</ele>
        <time>2019-07-11T10:58:50Z</time>
      </trkpt>
      <trkpt lat="48.76446" lon="-3.55419">
        <ele>89.6</ele>
        <time>2019-07-11T10:58:51Z</time>
      </trkpt>
      <trkpt lat="48.76444" lon="-3.55413">
        <ele>89.4</ele>
        <time>2019-07-11T10:58:52Z</time>
      </trkpt>
      <trkpt lat="48.76442" lon="-3.55408">
        <ele>89.5</ele>
        <time>2019-07-11T10:58:53Z</time>
      </trkpt>
      <trkpt lat="48.76439" lon="-3.55402">
        <ele>89</ele>
        <time>2019-07-11T10:58:54Z</time>
      </trkpt>
      <trkpt lat="48.76437" lon="-3.55396">
        <ele>89</ele>
        <time>2019-07-11T10:58:55Z</time>
      </trkpt>
      <trkpt lat="48.76434" lon="-3.55391">
        <ele>88.8</ele>
        <time>2019-07-11T10:58:56Z</time>
      </trkpt>
      <trkpt lat="48.76432" lon="-3.55387">
        <ele>88.3</ele>
        <time>2019-07-11T10:58:57Z</time>
      </trkpt>
      <trkpt lat="48.76429" lon="-3.55382">
        <ele>88.1</ele>
        <time>2019-07-11T10:58:58Z</time>
      </trkpt>
      <trkpt lat="48.76426" lon="-3.55378">
        <ele>87.7</ele>
        <time>2019-07-11T10:58:59Z</time>
      </trkpt>
      <trkpt lat="48.76424" lon="-3.55374">
        <ele>87.5</ele>
        <time>2019-07-11T10:59:00Z</time>
      </trkpt>
      <trkpt lat="48.76421" lon="-3.5537">
        <ele>87.6</ele>
        <time>2019-07-11T10:59:01Z</time>
      </trkpt>
      <trkpt lat="48.76419" lon="-3.55365">
        <ele>87.9</ele>
        <time>2019-07-11T10:59:02Z</time>
      </trkpt>
      <trkpt lat="48.76416" lon="-3.55359">
        <ele>88</ele>
        <time>2019-07-11T10:59:03Z</time>
      </trkpt>
      <trkpt lat="48.76414" lon="-3.55355">
        <ele>88.3</ele>
        <time>2019-07-11T10:59:04Z</time>
      </trkpt>
      <trkpt lat="48.76411" lon="-3.55351">
        <ele>88.5</ele>
        <time>2019-07-11T10:59:05Z</time>
      </trkpt>
      <trkpt lat="48.76409" lon="-3.55347">
        <ele>88.8</ele>
        <time>2019-07-11T10:59:06Z</time>
      </trkpt>
      <trkpt lat="48.76407" lon="-3.55343">
        <ele>89.1</ele>
        <time>2019-07-11T10:59:07Z</time>
      </trkpt>
      <trkpt lat="48.76403" lon="-3.5534">
        <ele>89.1</ele>
        <time>2019-07-11T10:59:08Z</time>
      </trkpt>
      <trkpt lat="48.76401" lon="-3.55336">
        <ele>89.4</ele>
        <time>2019-07-11T10:59:09Z</time>
      </trkpt>
      <trkpt lat="48.76398" lon="-3.55333">
        <ele>89.5</ele>
        <time>2019-07-11T10:59:10Z</time>
      </trkpt>
      <trkpt lat="48.76395" lon="-3.5533">
        <ele>89.9</ele>
        <time>2019-07-11T10:59:11Z</time>
      </trkpt>
      <trkpt lat="48.76392" lon="-3.55326">
        <ele>90.2</ele>
        <time>2019-07-11T10:59:12Z</time>
      </trkpt>
      <trkpt lat="48.76389" lon="-3.55322">
        <ele>90.7</ele>
        <time>2019-07-11T10:59:13Z</time>
      </trkpt>
      <trkpt lat="48.76386" lon="-3.55318">
        <ele>91.1</ele>
        <time>2019-07-11T10:59:14Z</time>
      </trkpt>
      <trkpt lat="48.76383" lon="-3.55315">
        <ele>91.9</ele>
        <time>2019-07-11T10:59:15Z</time>
      </trkpt>
      <trkpt lat="48.76379" lon="-3.55312">
        <ele>92.5</ele>
        <time>2019-07-11T10:59:16Z</time>
      </trkpt>
      <trkpt lat="48.76376" lon="-3.55308">
        <ele>92.9</ele>
        <time>2019-07-11T10:59:17Z</time>
      </trkpt>
      <trkpt lat="48.76372" lon="-3.55305">
        <ele>93</ele>
        <time>2019-07-11T10:59:18Z</time>
      </trkpt>
      <trkpt lat="48.76369" lon="-3.55301">
        <ele>93</ele>
        <time>2019-07-11T10:59:19Z</time>
      </trkpt>
      <trkpt lat="48.76366" lon="-3.55299">
        <ele>93.2</ele>
        <time>2019-07-11T10:59:20Z</time>
      </trkpt>
      <trkpt lat="48.76362" lon="-3.55296">
        <ele>93.4</ele>
        <time>2019-07-11T10:59:21Z</time>
      </trkpt>
      <trkpt lat="48.76359" lon="-3.55292">
        <ele>93.6</ele>
        <time>2019-07-11T10:59:22Z</time>
      </trkpt>
      <trkpt lat="48.76355" lon="-3.55288">
        <ele>94</ele>
        <time>2019-07-11T10:59:23Z</time>
      </trkpt>
      <trkpt lat="48.76352" lon="-3.55283">
        <ele>93.8</ele>
        <time>2019-07-11T10:59:24Z</time>
      </trkpt>
      <trkpt lat="48.76348" lon="-3.55279">
        <ele>93.7</ele>
        <time>2019-07-11T10:59:25Z</time>
      </trkpt>
      <trkpt lat="48.76345" lon="-3.55275">
        <ele>93.6</ele>
        <time>2019-07-11T10:59:26Z</time>
      </trkpt>
      <trkpt lat="48.76342" lon="-3.55272">
        <ele>93.7</ele>
        <time>2019-07-11T10:59:27Z</time>
      </trkpt>
      <trkpt lat="48.76339" lon="-3.55267">
        <ele>94.2</ele>
        <time>2019-07-11T10:59:28Z</time>
      </trkpt>
      <trkpt lat="48.76336" lon="-3.55263">
        <ele>94.4</ele>
        <time>2019-07-11T10:59:29Z</time>
      </trkpt>
      <trkpt lat="48.76334" lon="-3.55258">
        <ele>94.6</ele>
        <time>2019-07-11T10:59:30Z</time>
      </trkpt>
      <trkpt lat="48.76331" lon="-3.55253">
        <ele>95</ele>
        <time>2019-07-11T10:59:31Z</time>
      </trkpt>
      <trkpt lat="48.76329" lon="-3.55248">
        <ele>95.2</ele>
        <time>2019-07-11T10:59:32Z</time>
      </trkpt>
      <trkpt lat="48.76327" lon="-3.55244">
        <ele>95.4</ele>
        <time>2019-07-11T10:59:33Z</time>
      </trkpt>
      <trkpt lat="48.76325" lon="-3.55239">
        <ele>95.8</ele>
        <time>2019-07-11T10:59:34Z</time>
      </trkpt>
      <trkpt lat="48.76323" lon="-3.55235">
        <ele>95.6</ele>
        <time>2019-07-11T10:59:35Z</time>
      </trkpt>
      <trkpt lat="48.76322" lon="-3.5523">
        <ele>96</ele>
        <time>2019-07-11T10:59:36Z</time>
      </trkpt>
      <trkpt lat="48.76321" lon="-3.55226">
        <ele>96.4</ele>
        <time>2019-07-11T10:59:37Z</time>
      </trkpt>
      <trkpt lat="48.7632" lon="-3.55224">
        <ele>96.6</ele>
        <time>2019-07-11T10:59:38Z</time>
      </trkpt>
      <trkpt lat="48.7632" lon="-3.55222">
        <ele>96.7</ele>
        <time>2019-07-11T10:59:39Z</time>
      </trkpt>
      <trkpt lat="48.7632" lon="-3.5522">
        <ele>97</ele>
        <time>2019-07-11T10:59:40Z</time>
      </trkpt>
      <trkpt lat="48.76317" lon="-3.55215">
        <ele>97.6</ele>
        <time>2019-07-11T10:59:43Z</time>
      </trkpt>
      <trkpt lat="48.76316" lon="-3.55212">
        <ele>97.7</ele>
        <time>2019-07-11T10:59:44Z</time>
      </trkpt>
      <trkpt lat="48.76315" lon="-3.55207">
        <ele>97.5</ele>
        <time>2019-07-11T10:59:45Z</time>
      </trkpt>
      <trkpt lat="48.76314" lon="-3.55202">
        <ele>97.1</ele>
        <time>2019-07-11T10:59:46Z</time>
      </trkpt>
      <trkpt lat="48.76312" lon="-3.55197">
        <ele>96.5</ele>
        <time>2019-07-11T10:59:47Z</time>
      </trkpt>
      <trkpt lat="48.7631" lon="-3.55193">
        <ele>96</ele>
        <time>2019-07-11T10:59:48Z</time>
      </trkpt>
      <trkpt lat="48.76307" lon="-3.55191">
        <ele>95.9</ele>
        <time>2019-07-11T10:59:49Z</time>
      </trkpt>
      <trkpt lat="48.76304" lon="-3.55189">
        <ele>95.9</ele>
        <time>2019-07-11T10:59:50Z</time>
      </trkpt>
      <trkpt lat="48.76301" lon="-3.55187">
        <ele>96.1</ele>
        <time>2019-07-11T10:59:51Z</time>
      </trkpt>
      <trkpt lat="48.76299" lon="-3.55184">
        <ele>96</ele>
        <time>2019-07-11T10:59:52Z</time>
      </trkpt>
      <trkpt lat="48.76296" lon="-3.55183">
        <ele>95.9</ele>
        <time>2019-07-11T10:59:53Z</time>
      </trkpt>
      <trkpt lat="48.76292" lon="-3.55181">
        <ele>95.7</ele>
        <time>2019-07-11T10:59:54Z</time>
      </trkpt>
      <trkpt lat="48.76289" lon="-3.55179">
        <ele>95.6</ele>
        <time>2019-07-11T10:59:55Z</time>
      </trkpt>
      <trkpt lat="48.76286" lon="-3.55178">
        <ele>95.3</ele>
        <time>2019-07-11T10:59:56Z</time>
      </trkpt>
      <trkpt lat="48.76282" lon="-3.55177">
        <ele>94.9</ele>
        <time>2019-07-11T10:59:57Z</time>
      </trkpt>
      <trkpt lat="48.76279" lon="-3.55176">
        <ele>94.6</ele>
        <time>2019-07-11T10:59:58Z</time>
      </trkpt>
      <trkpt lat="48.76275" lon="-3.55175">
        <ele>94.4</ele>
        <time>2019-07-11T10:59:59Z</time>
      </trkpt>
      <trkpt lat="48.76272" lon="-3.55175">
        <ele>94</ele>
        <time>2019-07-11T11:00:00Z</time>
      </trkpt>
      <trkpt lat="48.76268" lon="-3.55175">
        <ele>93.7</ele>
        <time>2019-07-11T11:00:01Z</time>
      </trkpt>
      <trkpt lat="48.76265" lon="-3.55174">
        <ele>93.2</ele>
        <time>2019-07-11T11:00:02Z</time>
      </trkpt>
      <trkpt lat="48.76262" lon="-3.55173">
        <ele>92.9</ele>
        <time>2019-07-11T11:00:03Z</time>
      </trkpt>
      <trkpt lat="48.76258" lon="-3.55172">
        <ele>92.6</ele>
        <time>2019-07-11T11:00:04Z</time>
      </trkpt>
      <trkpt lat="48.76255" lon="-3.5517">
        <ele>92.4</ele>
        <time>2019-07-11T11:00:05Z</time>
      </trkpt>
      <trkpt lat="48.76252" lon="-3.55169">
        <ele>92.1</ele>
        <time>2019-07-11T11:00:06Z</time>
      </trkpt>
      <trkpt lat="48.76248" lon="-3.55168">
        <ele>91.9</ele>
        <time>2019-07-11T11:00:07Z</time>
      </trkpt>
      <trkpt lat="48.76244" lon="-3.55166">
        <ele>91.7</ele>
        <time>2019-07-11T11:00:08Z</time>
      </trkpt>
      <trkpt lat="48.76241" lon="-3.55165">
        <ele>91.6</ele>
        <time>2019-07-11T11:00:09Z</time>
      </trkpt>
      <trkpt lat="48.76238" lon="-3.55163">
        <ele>91.6</ele>
        <time>2019-07-11T11:00:10Z</time>
      </trkpt>
      <trkpt lat="48.76234" lon="-3.55162">
        <ele>91.4</ele>
        <time>2019-07-11T11:00:11Z</time>
      </trkpt>
      <trkpt lat="48.76231" lon="-3.5516">
        <ele>91.4</ele>
        <time>2019-07-11T11:00:12Z</time>
      </trkpt>
      <trkpt lat="48.76228" lon="-3.55159">
        <ele>91.4</ele>
        <time>2019-07-11T11:00:13Z</time>
      </trkpt>
      <trkpt lat="48.76225" lon="-3.55158">
        <ele>91.4</ele>
        <time>2019-07-11T11:00:14Z</time>
      </trkpt>
      <trkpt lat="48.76222" lon="-3.55156">
        <ele>91.1</ele>
        <time>2019-07-11T11:00:15Z</time>
      </trkpt>
      <trkpt lat="48.76218" lon="-3.55155">
        <ele>91.1</ele>
        <time>2019-07-11T11:00:16Z</time>
      </trkpt>
      <trkpt lat="48.76215" lon="-3.55153">
        <ele>91.2</ele>
        <time>2019-07-11T11:00:17Z</time>
      </trkpt>
      <trkpt lat="48.76212" lon="-3.55152">
        <ele>91.3</ele>
        <time>2019-07-11T11:00:18Z</time>
      </trkpt>
      <trkpt lat="48.76209" lon="-3.5515">
        <ele>91.3</ele>
        <time>2019-07-11T11:00:19Z</time>
      </trkpt>
      <trkpt lat="48.76206" lon="-3.55148">
        <ele>91.4</ele>
        <time>2019-07-11T11:00:20Z</time>
      </trkpt>
      <trkpt lat="48.76204" lon="-3.55146">
        <ele>91.5</ele>
        <time>2019-07-11T11:00:21Z</time>
      </trkpt>
      <trkpt lat="48.76201" lon="-3.55145">
        <ele>91.7</ele>
        <time>2019-07-11T11:00:22Z</time>
      </trkpt>
      <trkpt lat="48.76197" lon="-3.55143">
        <ele>91.9</ele>
        <time>2019-07-11T11:00:23Z</time>
      </trkpt>
      <trkpt lat="48.76194" lon="-3.55142">
        <ele>92.1</ele>
        <time>2019-07-11T11:00:24Z</time>
      </trkpt>
      <trkpt lat="48.76191" lon="-3.5514">
        <ele>92.1</ele>
        <time>2019-07-11T11:00:25Z</time>
      </trkpt>
      <trkpt lat="48.76188" lon="-3.55139">
        <ele>92.4</ele>
        <time>2019-07-11T11:00:26Z</time>
      </trkpt>
      <trkpt lat="48.76185" lon="-3.55138">
        <ele>92.9</ele>
        <time>2019-07-11T11:00:27Z</time>
      </trkpt>
      <trkpt lat="48.76182" lon="-3.55137">
        <ele>93</ele>
        <time>2019-07-11T11:00:28Z</time>
      </trkpt>
      <trkpt lat="48.76179" lon="-3.55136">
        <ele>92.8</ele>
        <time>2019-07-11T11:00:29Z</time>
      </trkpt>
      <trkpt lat="48.76175" lon="-3.55136">
        <ele>92.5</ele>
        <time>2019-07-11T11:00:30Z</time>
      </trkpt>
      <trkpt lat="48.76172" lon="-3.55135">
        <ele>92.6</ele>
        <time>2019-07-11T11:00:31Z</time>
      </trkpt>
      <trkpt lat="48.76169" lon="-3.55134">
        <ele>92.6</ele>
        <time>2019-07-11T11:00:32Z</time>
      </trkpt>
      <trkpt lat="48.76165" lon="-3.55133">
        <ele>92.4</ele>
        <time>2019-07-11T11:00:33Z</time>
      </trkpt>
      <trkpt lat="48.76162" lon="-3.55133">
        <ele>92.4</ele>
        <time>2019-07-11T11:00:34Z</time>
      </trkpt>
      <trkpt lat="48.76159" lon="-3.55132">
        <ele>92.3</ele>
        <time>2019-07-11T11:00:35Z</time>
      </trkpt>
      <trkpt lat="48.76156" lon="-3.55132">
        <ele>92</ele>
        <time>2019-07-11T11:00:36Z</time>
      </trkpt>
      <trkpt lat="48.76152" lon="-3.55132">
        <ele>91.5</ele>
        <time>2019-07-11T11:00:37Z</time>
      </trkpt>
      <trkpt lat="48.76149" lon="-3.55132">
        <ele>90.8</ele>
        <time>2019-07-11T11:00:38Z</time>
      </trkpt>
      <trkpt lat="48.76146" lon="-3.55132">
        <ele>90.5</ele>
        <time>2019-07-11T11:00:39Z</time>
      </trkpt>
      <trkpt lat="48.76142" lon="-3.55132">
        <ele>90.3</ele>
        <time>2019-07-11T11:00:40Z</time>
      </trkpt>
      <trkpt lat="48.76138" lon="-3.55132">
        <ele>90.3</ele>
        <time>2019-07-11T11:00:41Z</time>
      </trkpt>
      <trkpt lat="48.76134" lon="-3.55132">
        <ele>90.4</ele>
        <time>2019-07-11T11:00:42Z</time>
      </trkpt>
      <trkpt lat="48.76129" lon="-3.55133">
        <ele>91</ele>
        <time>2019-07-11T11:00:43Z</time>
      </trkpt>
      <trkpt lat="48.76125" lon="-3.55133">
        <ele>91.4</ele>
        <time>2019-07-11T11:00:44Z</time>
      </trkpt>
      <trkpt lat="48.7612" lon="-3.55132">
        <ele>91.8</ele>
        <time>2019-07-11T11:00:45Z</time>
      </trkpt>
      <trkpt lat="48.76116" lon="-3.55131">
        <ele>92.1</ele>
        <time>2019-07-11T11:00:46Z</time>
      </trkpt>
      <trkpt lat="48.76111" lon="-3.5513">
        <ele>92.2</ele>
        <time>2019-07-11T11:00:47Z</time>
      </trkpt>
      <trkpt lat="48.76107" lon="-3.55129">
        <ele>92</ele>
        <time>2019-07-11T11:00:48Z</time>
      </trkpt>
      <trkpt lat="48.76102" lon="-3.55128">
        <ele>91.8</ele>
        <time>2019-07-11T11:00:49Z</time>
      </trkpt>
      <trkpt lat="48.76098" lon="-3.55128">
        <ele>91.6</ele>
        <time>2019-07-11T11:00:50Z</time>
      </trkpt>
      <trkpt lat="48.76093" lon="-3.55127">
        <ele>91.1</ele>
        <time>2019-07-11T11:00:51Z</time>
      </trkpt>
      <trkpt lat="48.76089" lon="-3.55126">
        <ele>90.8</ele>
        <time>2019-07-11T11:00:52Z</time>
      </trkpt>
      <trkpt lat="48.76085" lon="-3.55125">
        <ele>91</ele>
        <time>2019-07-11T11:00:53Z</time>
      </trkpt>
      <trkpt lat="48.76082" lon="-3.55124">
        <ele>91.1</ele>
        <time>2019-07-11T11:00:54Z</time>
      </trkpt>
      <trkpt lat="48.76078" lon="-3.55123">
        <ele>91.2</ele>
        <time>2019-07-11T11:00:55Z</time>
      </trkpt>
      <trkpt lat="48.76074" lon="-3.55121">
        <ele>91.4</ele>
        <time>2019-07-11T11:00:56Z</time>
      </trkpt>
      <trkpt lat="48.7607" lon="-3.5512">
        <ele>91.6</ele>
        <time>2019-07-11T11:00:57Z</time>
      </trkpt>
      <trkpt lat="48.76067" lon="-3.55119">
        <ele>91.6</ele>
        <time>2019-07-11T11:00:58Z</time>
      </trkpt>
      <trkpt lat="48.76063" lon="-3.55119">
        <ele>91.5</ele>
        <time>2019-07-11T11:00:59Z</time>
      </trkpt>
      <trkpt lat="48.7606" lon="-3.55118">
        <ele>91.5</ele>
        <time>2019-07-11T11:01:00Z</time>
      </trkpt>
      <trkpt lat="48.76056" lon="-3.55117">
        <ele>91.5</ele>
        <time>2019-07-11T11:01:01Z</time>
      </trkpt>
      <trkpt lat="48.76052" lon="-3.55116">
        <ele>91.5</ele>
        <time>2019-07-11T11:01:02Z</time>
      </trkpt>
      <trkpt lat="48.76048" lon="-3.55115">
        <ele>91.6</ele>
        <time>2019-07-11T11:01:03Z</time>
      </trkpt>
      <trkpt lat="48.76045" lon="-3.55114">
        <ele>91.8</ele>
        <time>2019-07-11T11:01:04Z</time>
      </trkpt>
      <trkpt lat="48.7604" lon="-3.55114">
        <ele>92.5</ele>
        <time>2019-07-11T11:01:05Z</time>
      </trkpt>
      <trkpt lat="48.76037" lon="-3.55113">
        <ele>93</ele>
        <time>2019-07-11T11:01:06Z</time>
      </trkpt>
      <trkpt lat="48.76033" lon="-3.55112">
        <ele>93.5</ele>
        <time>2019-07-11T11:01:07Z</time>
      </trkpt>
      <trkpt lat="48.76029" lon="-3.55111">
        <ele>93.7</ele>
        <time>2019-07-11T11:01:08Z</time>
      </trkpt>
      <trkpt lat="48.76026" lon="-3.55109">
        <ele>94</ele>
        <time>2019-07-11T11:01:09Z</time>
      </trkpt>
      <trkpt lat="48.76022" lon="-3.55108">
        <ele>94.6</ele>
        <time>2019-07-11T11:01:10Z</time>
      </trkpt>
      <trkpt lat="48.76019" lon="-3.55107">
        <ele>95.2</ele>
        <time>2019-07-11T11:01:11Z</time>
      </trkpt>
      <trkpt lat="48.76015" lon="-3.55105">
        <ele>95.9</ele>
        <time>2019-07-11T11:01:12Z</time>
      </trkpt>
      <trkpt lat="48.76012" lon="-3.55104">
        <ele>97</ele>
        <time>2019-07-11T11:01:13Z</time>
      </trkpt>
      <trkpt lat="48.76009" lon="-3.55101">
        <ele>97.8</ele>
        <time>2019-07-11T11:01:14Z</time>
      </trkpt>
      <trkpt lat="48.76006" lon="-3.551">
        <ele>98.1</ele>
        <time>2019-07-11T11:01:15Z</time>
      </trkpt>
      <trkpt lat="48.76002" lon="-3.55097">
        <ele>98.3</ele>
        <time>2019-07-11T11:01:16Z</time>
      </trkpt>
      <trkpt lat="48.75998" lon="-3.55095">
        <ele>98.5</ele>
        <time>2019-07-11T11:01:17Z</time>
      </trkpt>
      <trkpt lat="48.75995" lon="-3.55093">
        <ele>98</ele>
        <time>2019-07-11T11:01:18Z</time>
      </trkpt>
      <trkpt lat="48.75991" lon="-3.55092">
        <ele>97.5</ele>
        <time>2019-07-11T11:01:19Z</time>
      </trkpt>
      <trkpt lat="48.75988" lon="-3.55091">
        <ele>97.3</ele>
        <time>2019-07-11T11:01:20Z</time>
      </trkpt>
      <trkpt lat="48.75985" lon="-3.5509">
        <ele>97.1</ele>
        <time>2019-07-11T11:01:21Z</time>
      </trkpt>
      <trkpt lat="48.75982" lon="-3.55089">
        <ele>96.9</ele>
        <time>2019-07-11T11:01:22Z</time>
      </trkpt>
      <trkpt lat="48.75979" lon="-3.55088">
        <ele>96.8</ele>
        <time>2019-07-11T11:01:23Z</time>
      </trkpt>
      <trkpt lat="48.75975" lon="-3.55087">
        <ele>96.9</ele>
        <time>2019-07-11T11:01:24Z</time>
      </trkpt>
      <trkpt lat="48.75972" lon="-3.55086">
        <ele>97</ele>
        <time>2019-07-11T11:01:25Z</time>
      </trkpt>
      <trkpt lat="48.75969" lon="-3.55085">
        <ele>97.4</ele>
        <time>2019-07-11T11:01:26Z</time>
      </trkpt>
      <trkpt lat="48.75967" lon="-3.55084">
        <ele>97.4</ele>
        <time>2019-07-11T11:01:27Z</time>
      </trkpt>
      <trkpt lat="48.75964" lon="-3.55084">
        <ele>97.6</ele>
        <time>2019-07-11T11:01:28Z</time>
      </trkpt>
      <trkpt lat="48.75961" lon="-3.55082">
        <ele>97.8</ele>
        <time>2019-07-11T11:01:29Z</time>
      </trkpt>
      <trkpt lat="48.75958" lon="-3.55081">
        <ele>97.5</ele>
        <time>2019-07-11T11:01:30Z</time>
      </trkpt>
      <trkpt lat="48.75955" lon="-3.55081">
        <ele>97.2</ele>
        <time>2019-07-11T11:01:31Z</time>
      </trkpt>
      <trkpt lat="48.75951" lon="-3.55082">
        <ele>96.2</ele>
        <time>2019-07-11T11:01:32Z</time>
      </trkpt>
      <trkpt lat="48.75948" lon="-3.55083">
        <ele>95.2</ele>
        <time>2019-07-11T11:01:33Z</time>
      </trkpt>
      <trkpt lat="48.75945" lon="-3.55084">
        <ele>94.3</ele>
        <time>2019-07-11T11:01:34Z</time>
      </trkpt>
      <trkpt lat="48.75942" lon="-3.55085">
        <ele>94.1</ele>
        <time>2019-07-11T11:01:35Z</time>
      </trkpt>
      <trkpt lat="48.75938" lon="-3.55085">
        <ele>94.3</ele>
        <time>2019-07-11T11:01:36Z</time>
      </trkpt>
      <trkpt lat="48.75935" lon="-3.55086">
        <ele>94.4</ele>
        <time>2019-07-11T11:01:37Z</time>
      </trkpt>
      <trkpt lat="48.75932" lon="-3.55085">
        <ele>94.8</ele>
        <time>2019-07-11T11:01:38Z</time>
      </trkpt>
      <trkpt lat="48.75929" lon="-3.55085">
        <ele>94.8</ele>
        <time>2019-07-11T11:01:39Z</time>
      </trkpt>
      <trkpt lat="48.75926" lon="-3.55086">
        <ele>95.1</ele>
        <time>2019-07-11T11:01:40Z</time>
      </trkpt>
      <trkpt lat="48.75923" lon="-3.55087">
        <ele>95.6</ele>
        <time>2019-07-11T11:01:41Z</time>
      </trkpt>
      <trkpt lat="48.75921" lon="-3.55088">
        <ele>96</ele>
        <time>2019-07-11T11:01:42Z</time>
      </trkpt>
      <trkpt lat="48.75917" lon="-3.55088">
        <ele>95.6</ele>
        <time>2019-07-11T11:01:43Z</time>
      </trkpt>
      <trkpt lat="48.75914" lon="-3.55088">
        <ele>95.5</ele>
        <time>2019-07-11T11:01:44Z</time>
      </trkpt>
      <trkpt lat="48.75911" lon="-3.55088">
        <ele>95.4</ele>
        <time>2019-07-11T11:01:45Z</time>
      </trkpt>
      <trkpt lat="48.75908" lon="-3.55088">
        <ele>95</ele>
        <time>2019-07-11T11:01:46Z</time>
      </trkpt>
      <trkpt lat="48.75906" lon="-3.55087">
        <ele>94.4</ele>
        <time>2019-07-11T11:01:47Z</time>
      </trkpt>
      <trkpt lat="48.75903" lon="-3.55085">
        <ele>94.1</ele>
        <time>2019-07-11T11:01:48Z</time>
      </trkpt>
      <trkpt lat="48.75902" lon="-3.55081">
        <ele>93.8</ele>
        <time>2019-07-11T11:01:49Z</time>
      </trkpt>
      <trkpt lat="48.759" lon="-3.55077">
        <ele>93.7</ele>
        <time>2019-07-11T11:01:50Z</time>
      </trkpt>
      <trkpt lat="48.759" lon="-3.55072">
        <ele>93.7</ele>
        <time>2019-07-11T11:01:51Z</time>
      </trkpt>
      <trkpt lat="48.75898" lon="-3.55067">
        <ele>93.9</ele>
        <time>2019-07-11T11:01:52Z</time>
      </trkpt>
      <trkpt lat="48.75898" lon="-3.55062">
        <ele>93.7</ele>
        <time>2019-07-11T11:01:53Z</time>
      </trkpt>
      <trkpt lat="48.75899" lon="-3.55058">
        <ele>93.5</ele>
        <time>2019-07-11T11:01:54Z</time>
      </trkpt>
      <trkpt lat="48.75899" lon="-3.55053">
        <ele>93.3</ele>
        <time>2019-07-11T11:01:55Z</time>
      </trkpt>
      <trkpt lat="48.75899" lon="-3.55048">
        <ele>93</ele>
        <time>2019-07-11T11:01:56Z</time>
      </trkpt>
      <trkpt lat="48.75899" lon="-3.55043">
        <ele>92.9</ele>
        <time>2019-07-11T11:01:57Z</time>
      </trkpt>
      <trkpt lat="48.759" lon="-3.55039">
        <ele>92.8</ele>
        <time>2019-07-11T11:01:58Z</time>
      </trkpt>
      <trkpt lat="48.759" lon="-3.55034">
        <ele>92.5</ele>
        <time>2019-07-11T11:01:59Z</time>
      </trkpt>
      <trkpt lat="48.75901" lon="-3.55028">
        <ele>91.7</ele>
        <time>2019-07-11T11:02:00Z</time>
      </trkpt>
      <trkpt lat="48.75901" lon="-3.55023">
        <ele>91.5</ele>
        <time>2019-07-11T11:02:01Z</time>
      </trkpt>
      <trkpt lat="48.75901" lon="-3.55018">
        <ele>91</ele>
        <time>2019-07-11T11:02:02Z</time>
      </trkpt>
      <trkpt lat="48.75901" lon="-3.55013">
        <ele>90.6</ele>
        <time>2019-07-11T11:02:03Z</time>
      </trkpt>
      <trkpt lat="48.759" lon="-3.55008">
        <ele>90.5</ele>
        <time>2019-07-11T11:02:04Z</time>
      </trkpt>
      <trkpt lat="48.759" lon="-3.55003">
        <ele>90.4</ele>
        <time>2019-07-11T11:02:05Z</time>
      </trkpt>
      <trkpt lat="48.75899" lon="-3.54998">
        <ele>90.4</ele>
        <time>2019-07-11T11:02:06Z</time>
      </trkpt>
      <trkpt lat="48.75899" lon="-3.54993">
        <ele>90.8</ele>
        <time>2019-07-11T11:02:07Z</time>
      </trkpt>
      <trkpt lat="48.75898" lon="-3.54988">
        <ele>90.9</ele>
        <time>2019-07-11T11:02:08Z</time>
      </trkpt>
      <trkpt lat="48.75898" lon="-3.54983">
        <ele>91</ele>
        <time>2019-07-11T11:02:09Z</time>
      </trkpt>
      <trkpt lat="48.75898" lon="-3.54978">
        <ele>91</ele>
        <time>2019-07-11T11:02:10Z</time>
      </trkpt>
      <trkpt lat="48.75898" lon="-3.54973">
        <ele>90.8</ele>
        <time>2019-07-11T11:02:11Z</time>
      </trkpt>
      <trkpt lat="48.75897" lon="-3.54969">
        <ele>91</ele>
        <time>2019-07-11T11:02:12Z</time>
      </trkpt>
      <trkpt lat="48.75897" lon="-3.54965">
        <ele>91.5</ele>
        <time>2019-07-11T11:02:13Z</time>
      </trkpt>
      <trkpt lat="48.75896" lon="-3.5496">
        <ele>91.9</ele>
        <time>2019-07-11T11:02:14Z</time>
      </trkpt>
      <trkpt lat="48.75896" lon="-3.54956">
        <ele>92.1</ele>
        <time>2019-07-11T11:02:15Z</time>
      </trkpt>
      <trkpt lat="48.75895" lon="-3.54952">
        <ele>92.3</ele>
        <time>2019-07-11T11:02:16Z</time>
      </trkpt>
      <trkpt lat="48.75895" lon="-3.54948">
        <ele>92.6</ele>
        <time>2019-07-11T11:02:17Z</time>
      </trkpt>
      <trkpt lat="48.75895" lon="-3.54943">
        <ele>92.5</ele>
        <time>2019-07-11T11:02:18Z</time>
      </trkpt>
      <trkpt lat="48.75895" lon="-3.54938">
        <ele>92.9</ele>
        <time>2019-07-11T11:02:19Z</time>
      </trkpt>
      <trkpt lat="48.75894" lon="-3.54934">
        <ele>93.5</ele>
        <time>2019-07-11T11:02:20Z</time>
      </trkpt>
      <trkpt lat="48.75893" lon="-3.5493">
        <ele>94.4</ele>
        <time>2019-07-11T11:02:21Z</time>
      </trkpt>
      <trkpt lat="48.75893" lon="-3.54925">
        <ele>94.8</ele>
        <time>2019-07-11T11:02:22Z</time>
      </trkpt>
      <trkpt lat="48.75893" lon="-3.54921">
        <ele>94.5</ele>
        <time>2019-07-11T11:02:23Z</time>
      </trkpt>
      <trkpt lat="48.75893" lon="-3.54916">
        <ele>94.6</ele>
        <time>2019-07-11T11:02:24Z</time>
      </trkpt>
      <trkpt lat="48.75892" lon="-3.54911">
        <ele>95</ele>
        <time>2019-07-11T11:02:25Z</time>
      </trkpt>
      <trkpt lat="48.75892" lon="-3.54907">
        <ele>95.2</ele>
        <time>2019-07-11T11:02:26Z</time>
      </trkpt>
      <trkpt lat="48.75892" lon="-3.54902">
        <ele>95.6</ele>
        <time>2019-07-11T11:02:27Z</time>
      </trkpt>
      <trkpt lat="48.75892" lon="-3.54898">
        <ele>96</ele>
        <time>2019-07-11T11:02:28Z</time>
      </trkpt>
      <trkpt lat="48.75892" lon="-3.54893">
        <ele>96.5</ele>
        <time>2019-07-11T11:02:29Z</time>
      </trkpt>
      <trkpt lat="48.75892" lon="-3.54889">
        <ele>97.2</ele>
        <time>2019-07-11T11:02:30Z</time>
      </trkpt>
      <trkpt lat="48.75891" lon="-3.54884">
        <ele>97.8</ele>
        <time>2019-07-11T11:02:31Z</time>
      </trkpt>
      <trkpt lat="48.75892" lon="-3.54879">
        <ele>98.6</ele>
        <time>2019-07-11T11:02:32Z</time>
      </trkpt>
      <trkpt lat="48.75891" lon="-3.54873">
        <ele>99.2</ele>
        <time>2019-07-11T11:02:33Z</time>
      </trkpt>
      <trkpt lat="48.75891" lon="-3.54869">
        <ele>99.6</ele>
        <time>2019-07-11T11:02:34Z</time>
      </trkpt>
      <trkpt lat="48.7589" lon="-3.54863">
        <ele>100.2</ele>
        <time>2019-07-11T11:02:35Z</time>
      </trkpt>
      <trkpt lat="48.7589" lon="-3.54859">
        <ele>100.8</ele>
        <time>2019-07-11T11:02:36Z</time>
      </trkpt>
      <trkpt lat="48.75889" lon="-3.54854">
        <ele>101.1</ele>
        <time>2019-07-11T11:02:37Z</time>
      </trkpt>
      <trkpt lat="48.75888" lon="-3.54849">
        <ele>101.4</ele>
        <time>2019-07-11T11:02:38Z</time>
      </trkpt>
      <trkpt lat="48.75888" lon="-3.54845">
        <ele>101.6</ele>
        <time>2019-07-11T11:02:39Z</time>
      </trkpt>
      <trkpt lat="48.75887" lon="-3.5484">
        <ele>101.2</ele>
        <time>2019-07-11T11:02:40Z</time>
      </trkpt>
      <trkpt lat="48.75887" lon="-3.54836">
        <ele>100.8</ele>
        <time>2019-07-11T11:02:41Z</time>
      </trkpt>
      <trkpt lat="48.75886" lon="-3.54832">
        <ele>100.6</ele>
        <time>2019-07-11T11:02:42Z</time>
      </trkpt>
      <trkpt lat="48.75885" lon="-3.54827">
        <ele>100.1</ele>
        <time>2019-07-11T11:02:43Z</time>
      </trkpt>
      <trkpt lat="48.75884" lon="-3.54823">
        <ele>99.5</ele>
        <time>2019-07-11T11:02:44Z</time>
      </trkpt>
      <trkpt lat="48.75884" lon="-3.54818">
        <ele>99</ele>
        <time>2019-07-11T11:02:45Z</time>
      </trkpt>
      <trkpt lat="48.75883" lon="-3.54813">
        <ele>98.2</ele>
        <time>2019-07-11T11:02:46Z</time>
      </trkpt>
      <trkpt lat="48.75882" lon="-3.54809">
        <ele>96.8</ele>
        <time>2019-07-11T11:02:47Z</time>
      </trkpt>
      <trkpt lat="48.75881" lon="-3.54804">
        <ele>95.4</ele>
        <time>2019-07-11T11:02:48Z</time>
      </trkpt>
      <trkpt lat="48.7588" lon="-3.548">
        <ele>94.6</ele>
        <time>2019-07-11T11:02:49Z</time>
      </trkpt>
      <trkpt lat="48.75879" lon="-3.54795">
        <ele>94.1</ele>
        <time>2019-07-11T11:02:50Z</time>
      </trkpt>
      <trkpt lat="48.75878" lon="-3.54791">
        <ele>93.4</ele>
        <time>2019-07-11T11:02:51Z</time>
      </trkpt>
      <trkpt lat="48.75877" lon="-3.54787">
        <ele>93</ele>
        <time>2019-07-11T11:02:52Z</time>
      </trkpt>
      <trkpt lat="48.75876" lon="-3.54782">
        <ele>92.6</ele>
        <time>2019-07-11T11:02:53Z</time>
      </trkpt>
      <trkpt lat="48.75875" lon="-3.54779">
        <ele>93</ele>
        <time>2019-07-11T11:02:54Z</time>
      </trkpt>
      <trkpt lat="48.75874" lon="-3.54774">
        <ele>93.3</ele>
        <time>2019-07-11T11:02:55Z</time>
      </trkpt>
      <trkpt lat="48.75874" lon="-3.5477">
        <ele>93.6</ele>
        <time>2019-07-11T11:02:56Z</time>
      </trkpt>
      <trkpt lat="48.75874" lon="-3.54766">
        <ele>94</ele>
        <time>2019-07-11T11:02:57Z</time>
      </trkpt>
      <trkpt lat="48.75874" lon="-3.54761">
        <ele>94</ele>
        <time>2019-07-11T11:02:58Z</time>
      </trkpt>
      <trkpt lat="48.75873" lon="-3.54757">
        <ele>94.2</ele>
        <time>2019-07-11T11:02:59Z</time>
      </trkpt>
      <trkpt lat="48.75873" lon="-3.54752">
        <ele>95</ele>
        <time>2019-07-11T11:03:00Z</time>
      </trkpt>
      <trkpt lat="48.75873" lon="-3.54747">
        <ele>95</ele>
        <time>2019-07-11T11:03:01Z</time>
      </trkpt>
      <trkpt lat="48.75873" lon="-3.54742">
        <ele>95.2</ele>
        <time>2019-07-11T11:03:02Z</time>
      </trkpt>
      <trkpt lat="48.75873" lon="-3.54737">
        <ele>95.5</ele>
        <time>2019-07-11T11:03:03Z</time>
      </trkpt>
      <trkpt lat="48.75873" lon="-3.54732">
        <ele>95.2</ele>
        <time>2019-07-11T11:03:04Z</time>
      </trkpt>
      <trkpt lat="48.75872" lon="-3.54726">
        <ele>94.7</ele>
        <time>2019-07-11T11:03:05Z</time>
      </trkpt>
      <trkpt lat="48.75871" lon="-3.54721">
        <ele>94.5</ele>
        <time>2019-07-11T11:03:06Z</time>
      </trkpt>
      <trkpt lat="48.7587" lon="-3.54716">
        <ele>94</ele>
        <time>2019-07-11T11:03:07Z</time>
      </trkpt>
      <trkpt lat="48.75868" lon="-3.54711">
        <ele>93.8</ele>
        <time>2019-07-11T11:03:08Z</time>
      </trkpt>
      <trkpt lat="48.75867" lon="-3.54706">
        <ele>93.6</ele>
        <time>2019-07-11T11:03:09Z</time>
      </trkpt>
      <trkpt lat="48.75865" lon="-3.54701">
        <ele>93.2</ele>
        <time>2019-07-11T11:03:10Z</time>
      </trkpt>
      <trkpt lat="48.75863" lon="-3.54697">
        <ele>93</ele>
        <time>2019-07-11T11:03:11Z</time>
      </trkpt>
      <trkpt lat="48.75861" lon="-3.54693">
        <ele>92.5</ele>
        <time>2019-07-11T11:03:12Z</time>
      </trkpt>
      <trkpt lat="48.75859" lon="-3.5469">
        <ele>92.9</ele>
        <time>2019-07-11T11:03:13Z</time>
      </trkpt>
      <trkpt lat="48.75856" lon="-3.54686">
        <ele>93.2</ele>
        <time>2019-07-11T11:03:14Z</time>
      </trkpt>
      <trkpt lat="48.75854" lon="-3.54684">
        <ele>93.8</ele>
        <time>2019-07-11T11:03:15Z</time>
      </trkpt>
      <trkpt lat="48.75851" lon="-3.54681">
        <ele>93.7</ele>
        <time>2019-07-11T11:03:16Z</time>
      </trkpt>
      <trkpt lat="48.75849" lon="-3.54678">
        <ele>93.5</ele>
        <time>2019-07-11T11:03:17Z</time>
      </trkpt>
      <trkpt lat="48.75846" lon="-3.54675">
        <ele>93.9</ele>
        <time>2019-07-11T11:03:18Z</time>
      </trkpt>
      <trkpt lat="48.75844" lon="-3.54671">
        <ele>94.3</ele>
        <time>2019-07-11T11:03:19Z</time>
      </trkpt>
      <trkpt lat="48.75841" lon="-3.54667">
        <ele>94.6</ele>
        <time>2019-07-11T11:03:20Z</time>
      </trkpt>
      <trkpt lat="48.75839" lon="-3.54664">
        <ele>95.3</ele>
        <time>2019-07-11T11:03:21Z</time>
      </trkpt>
      <trkpt lat="48.75836" lon="-3.5466">
        <ele>95.6</ele>
        <time>2019-07-11T11:03:22Z</time>
      </trkpt>
      <trkpt lat="48.75834" lon="-3.54656">
        <ele>95.8</ele>
        <time>2019-07-11T11:03:23Z</time>
      </trkpt>
      <trkpt lat="48.75831" lon="-3.54653">
        <ele>96</ele>
        <time>2019-07-11T11:03:24Z</time>
      </trkpt>
      <trkpt lat="48.75828" lon="-3.54651">
        <ele>96.2</ele>
        <time>2019-07-11T11:03:25Z</time>
      </trkpt>
      <trkpt lat="48.75825" lon="-3.54649">
        <ele>96.4</ele>
        <time>2019-07-11T11:03:26Z</time>
      </trkpt>
      <trkpt lat="48.75821" lon="-3.54647">
        <ele>96.5</ele>
        <time>2019-07-11T11:03:27Z</time>
      </trkpt>
      <trkpt lat="48.75818" lon="-3.54645">
        <ele>96.7</ele>
        <time>2019-07-11T11:03:28Z</time>
      </trkpt>
      <trkpt lat="48.75814" lon="-3.54644">
        <ele>96.9</ele>
        <time>2019-07-11T11:03:29Z</time>
      </trkpt>
      <trkpt lat="48.7581" lon="-3.54643">
        <ele>97.2</ele>
        <time>2019-07-11T11:03:30Z</time>
      </trkpt>
      <trkpt lat="48.75807" lon="-3.54641">
        <ele>97.8</ele>
        <time>2019-07-11T11:03:31Z</time>
      </trkpt>
      <trkpt lat="48.75803" lon="-3.5464">
        <ele>98.3</ele>
        <time>2019-07-11T11:03:32Z</time>
      </trkpt>
      <trkpt lat="48.758" lon="-3.54639">
        <ele>98.9</ele>
        <time>2019-07-11T11:03:33Z</time>
      </trkpt>
      <trkpt lat="48.75796" lon="-3.54638">
        <ele>99.4</ele>
        <time>2019-07-11T11:03:34Z</time>
      </trkpt>
      <trkpt lat="48.75792" lon="-3.54637">
        <ele>99.7</ele>
        <time>2019-07-11T11:03:35Z</time>
      </trkpt>
      <trkpt lat="48.75789" lon="-3.54635">
        <ele>99.9</ele>
        <time>2019-07-11T11:03:36Z</time>
      </trkpt>
      <trkpt lat="48.75785" lon="-3.54633">
        <ele>100.2</ele>
        <time>2019-07-11T11:03:37Z</time>
      </trkpt>
      <trkpt lat="48.75782" lon="-3.54631">
        <ele>100.2</ele>
        <time>2019-07-11T11:03:38Z</time>
      </trkpt>
      <trkpt lat="48.75778" lon="-3.54629">
        <ele>100.3</ele>
        <time>2019-07-11T11:03:39Z</time>
      </trkpt>
      <trkpt lat="48.75775" lon="-3.54628">
        <ele>100.8</ele>
        <time>2019-07-11T11:03:40Z</time>
      </trkpt>
      <trkpt lat="48.75771" lon="-3.54628">
        <ele>101.1</ele>
        <time>2019-07-11T11:03:41Z</time>
      </trkpt>
      <trkpt lat="48.75767" lon="-3.54628">
        <ele>100.9</ele>
        <time>2019-07-11T11:03:42Z</time>
      </trkpt>
      <trkpt lat="48.75763" lon="-3.54629">
        <ele>100.2</ele>
        <time>2019-07-11T11:03:43Z</time>
      </trkpt>
      <trkpt lat="48.75758" lon="-3.54629">
        <ele>99.6</ele>
        <time>2019-07-11T11:03:44Z</time>
      </trkpt>
      <trkpt lat="48.75755" lon="-3.54627">
        <ele>99.1</ele>
        <time>2019-07-11T11:03:45Z</time>
      </trkpt>
      <trkpt lat="48.75751" lon="-3.54626">
        <ele>98.9</ele>
        <time>2019-07-11T11:03:46Z</time>
      </trkpt>
      <trkpt lat="48.75748" lon="-3.54625">
        <ele>98.6</ele>
        <time>2019-07-11T11:03:47Z</time>
      </trkpt>
      <trkpt lat="48.75744" lon="-3.54624">
        <ele>98.6</ele>
        <time>2019-07-11T11:03:48Z</time>
      </trkpt>
      <trkpt lat="48.75741" lon="-3.54624">
        <ele>98.4</ele>
        <time>2019-07-11T11:03:49Z</time>
      </trkpt>
      <trkpt lat="48.75738" lon="-3.54624">
        <ele>98.3</ele>
        <time>2019-07-11T11:03:50Z</time>
      </trkpt>
      <trkpt lat="48.75735" lon="-3.54623">
        <ele>98.6</ele>
        <time>2019-07-11T11:03:51Z</time>
      </trkpt>
      <trkpt lat="48.75732" lon="-3.54622">
        <ele>98.9</ele>
        <time>2019-07-11T11:03:52Z</time>
      </trkpt>
      <trkpt lat="48.75729" lon="-3.54621">
        <ele>99.5</ele>
        <time>2019-07-11T11:03:53Z</time>
      </trkpt>
      <trkpt lat="48.75727" lon="-3.54621">
        <ele>100.5</ele>
        <time>2019-07-11T11:03:54Z</time>
      </trkpt>
      <trkpt lat="48.75724" lon="-3.5462">
        <ele>101.3</ele>
        <time>2019-07-11T11:03:55Z</time>
      </trkpt>
      <trkpt lat="48.75721" lon="-3.54618">
        <ele>102.2</ele>
        <time>2019-07-11T11:03:56Z</time>
      </trkpt>
      <trkpt lat="48.75718" lon="-3.54617">
        <ele>102.8</ele>
        <time>2019-07-11T11:03:57Z</time>
      </trkpt>
      <trkpt lat="48.75713" lon="-3.54617">
        <ele>103.2</ele>
        <time>2019-07-11T11:03:58Z</time>
      </trkpt>
      <trkpt lat="48.75709" lon="-3.54616">
        <ele>103.8</ele>
        <time>2019-07-11T11:03:59Z</time>
      </trkpt>
      <trkpt lat="48.75705" lon="-3.54614">
        <ele>104.8</ele>
        <time>2019-07-11T11:04:00Z</time>
      </trkpt>
      <trkpt lat="48.75702" lon="-3.54614">
        <ele>105.3</ele>
        <time>2019-07-11T11:04:01Z</time>
      </trkpt>
      <trkpt lat="48.75698" lon="-3.54613">
        <ele>104.9</ele>
        <time>2019-07-11T11:04:02Z</time>
      </trkpt>
      <trkpt lat="48.75695" lon="-3.54611">
        <ele>104.6</ele>
        <time>2019-07-11T11:04:03Z</time>
      </trkpt>
      <trkpt lat="48.75692" lon="-3.54608">
        <ele>104.2</ele>
        <time>2019-07-11T11:04:04Z</time>
      </trkpt>
      <trkpt lat="48.75689" lon="-3.54605">
        <ele>103.9</ele>
        <time>2019-07-11T11:04:05Z</time>
      </trkpt>
      <trkpt lat="48.75686" lon="-3.54602">
        <ele>103.8</ele>
        <time>2019-07-11T11:04:06Z</time>
      </trkpt>
      <trkpt lat="48.75683" lon="-3.54599">
        <ele>104</ele>
        <time>2019-07-11T11:04:07Z</time>
      </trkpt>
      <trkpt lat="48.7568" lon="-3.54596">
        <ele>104.2</ele>
        <time>2019-07-11T11:04:08Z</time>
      </trkpt>
      <trkpt lat="48.75678" lon="-3.54593">
        <ele>104.1</ele>
        <time>2019-07-11T11:04:09Z</time>
      </trkpt>
      <trkpt lat="48.75675" lon="-3.54589">
        <ele>104.1</ele>
        <time>2019-07-11T11:04:10Z</time>
      </trkpt>
      <trkpt lat="48.75671" lon="-3.54585">
        <ele>104.1</ele>
        <time>2019-07-11T11:04:11Z</time>
      </trkpt>
      <trkpt lat="48.75668" lon="-3.54581">
        <ele>103.9</ele>
        <time>2019-07-11T11:04:12Z</time>
      </trkpt>
      <trkpt lat="48.75664" lon="-3.54577">
        <ele>103.7</ele>
        <time>2019-07-11T11:04:13Z</time>
      </trkpt>
      <trkpt lat="48.7566" lon="-3.54572">
        <ele>103.5</ele>
        <time>2019-07-11T11:04:14Z</time>
      </trkpt>
      <trkpt lat="48.75656" lon="-3.54569">
        <ele>103</ele>
        <time>2019-07-11T11:04:15Z</time>
      </trkpt>
      <trkpt lat="48.75652" lon="-3.54564">
        <ele>102.6</ele>
        <time>2019-07-11T11:04:16Z</time>
      </trkpt>
      <trkpt lat="48.75649" lon="-3.54561">
        <ele>102.6</ele>
        <time>2019-07-11T11:04:17Z</time>
      </trkpt>
      <trkpt lat="48.75646" lon="-3.54556">
        <ele>102.6</ele>
        <time>2019-07-11T11:04:18Z</time>
      </trkpt>
      <trkpt lat="48.75644" lon="-3.54552">
        <ele>102.8</ele>
        <time>2019-07-11T11:04:19Z</time>
      </trkpt>
      <trkpt lat="48.75642" lon="-3.54548">
        <ele>103.2</ele>
        <time>2019-07-11T11:04:20Z</time>
      </trkpt>
      <trkpt lat="48.75638" lon="-3.54544">
        <ele>102.1</ele>
        <time>2019-07-11T11:04:21Z</time>
      </trkpt>
      <trkpt lat="48.75631" lon="-3.54542">
        <ele>98.1</ele>
        <time>2019-07-11T11:04:22Z</time>
      </trkpt>
      <trkpt lat="48.75628" lon="-3.5454">
        <ele>97.4</ele>
        <time>2019-07-11T11:04:23Z</time>
      </trkpt>
      <trkpt lat="48.75624" lon="-3.54539">
        <ele>97.5</ele>
        <time>2019-07-11T11:04:24Z</time>
      </trkpt>
      <trkpt lat="48.7562" lon="-3.54541">
        <ele>97.2</ele>
        <time>2019-07-11T11:04:25Z</time>
      </trkpt>
      <trkpt lat="48.75617" lon="-3.54544">
        <ele>96.9</ele>
        <time>2019-07-11T11:04:26Z</time>
      </trkpt>
      <trkpt lat="48.75615" lon="-3.54548">
        <ele>96.7</ele>
        <time>2019-07-11T11:04:27Z</time>
      </trkpt>
      <trkpt lat="48.75613" lon="-3.54551">
        <ele>96.2</ele>
        <time>2019-07-11T11:04:28Z</time>
      </trkpt>
      <trkpt lat="48.75611" lon="-3.54555">
        <ele>95.6</ele>
        <time>2019-07-11T11:04:29Z</time>
      </trkpt>
      <trkpt lat="48.75609" lon="-3.54559">
        <ele>95.2</ele>
        <time>2019-07-11T11:04:30Z</time>
      </trkpt>
      <trkpt lat="48.75606" lon="-3.54563">
        <ele>94.8</ele>
        <time>2019-07-11T11:04:31Z</time>
      </trkpt>
      <trkpt lat="48.75604" lon="-3.54568">
        <ele>94.2</ele>
        <time>2019-07-11T11:04:32Z</time>
      </trkpt>
      <trkpt lat="48.75601" lon="-3.54572">
        <ele>93.8</ele>
        <time>2019-07-11T11:04:33Z</time>
      </trkpt>
      <trkpt lat="48.75598" lon="-3.54574">
        <ele>95</ele>
        <time>2019-07-11T11:04:34Z</time>
      </trkpt>
      <trkpt lat="48.75594" lon="-3.54576">
        <ele>96.2</ele>
        <time>2019-07-11T11:04:35Z</time>
      </trkpt>
      <trkpt lat="48.75591" lon="-3.54579">
        <ele>97.4</ele>
        <time>2019-07-11T11:04:36Z</time>
      </trkpt>
      <trkpt lat="48.75588" lon="-3.54583">
        <ele>98.1</ele>
        <time>2019-07-11T11:04:37Z</time>
      </trkpt>
      <trkpt lat="48.75585" lon="-3.54588">
        <ele>98</ele>
        <time>2019-07-11T11:04:38Z</time>
      </trkpt>
      <trkpt lat="48.75581" lon="-3.54592">
        <ele>97.9</ele>
        <time>2019-07-11T11:04:39Z</time>
      </trkpt>
      <trkpt lat="48.75578" lon="-3.54596">
        <ele>97.6</ele>
        <time>2019-07-11T11:04:40Z</time>
      </trkpt>
      <trkpt lat="48.75575" lon="-3.546">
        <ele>97.5</ele>
        <time>2019-07-11T11:04:41Z</time>
      </trkpt>
      <trkpt lat="48.75571" lon="-3.54604">
        <ele>97.1</ele>
        <time>2019-07-11T11:04:42Z</time>
      </trkpt>
      <trkpt lat="48.75568" lon="-3.54608">
        <ele>97</ele>
        <time>2019-07-11T11:04:43Z</time>
      </trkpt>
      <trkpt lat="48.75565" lon="-3.54613">
        <ele>97</ele>
        <time>2019-07-11T11:04:44Z</time>
      </trkpt>
      <trkpt lat="48.75562" lon="-3.54616">
        <ele>97.6</ele>
        <time>2019-07-11T11:04:45Z</time>
      </trkpt>
      <trkpt lat="48.75559" lon="-3.5462">
        <ele>97.3</ele>
        <time>2019-07-11T11:04:46Z</time>
      </trkpt>
      <trkpt lat="48.75557" lon="-3.54623">
        <ele>97.1</ele>
        <time>2019-07-11T11:04:47Z</time>
      </trkpt>
      <trkpt lat="48.75553" lon="-3.54626">
        <ele>97.3</ele>
        <time>2019-07-11T11:04:48Z</time>
      </trkpt>
      <trkpt lat="48.75549" lon="-3.54629">
        <ele>96.7</ele>
        <time>2019-07-11T11:04:49Z</time>
      </trkpt>
      <trkpt lat="48.75546" lon="-3.54632">
        <ele>96.3</ele>
        <time>2019-07-11T11:04:50Z</time>
      </trkpt>
      <trkpt lat="48.75543" lon="-3.54635">
        <ele>96</ele>
        <time>2019-07-11T11:04:51Z</time>
      </trkpt>
      <trkpt lat="48.7554" lon="-3.54637">
        <ele>96</ele>
        <time>2019-07-11T11:04:52Z</time>
      </trkpt>
      <trkpt lat="48.75537" lon="-3.5464">
        <ele>96</ele>
        <time>2019-07-11T11:04:53Z</time>
      </trkpt>
      <trkpt lat="48.75534" lon="-3.54643">
        <ele>95.7</ele>
        <time>2019-07-11T11:04:54Z</time>
      </trkpt>
      <trkpt lat="48.75531" lon="-3.54645">
        <ele>95.4</ele>
        <time>2019-07-11T11:04:55Z</time>
      </trkpt>
      <trkpt lat="48.75528" lon="-3.54648">
        <ele>94.9</ele>
        <time>2019-07-11T11:04:56Z</time>
      </trkpt>
      <trkpt lat="48.75525" lon="-3.54651">
        <ele>94.6</ele>
        <time>2019-07-11T11:04:57Z</time>
      </trkpt>
      <trkpt lat="48.75521" lon="-3.54655">
        <ele>93.9</ele>
        <time>2019-07-11T11:04:58Z</time>
      </trkpt>
      <trkpt lat="48.75518" lon="-3.54659">
        <ele>93.4</ele>
        <time>2019-07-11T11:04:59Z</time>
      </trkpt>
      <trkpt lat="48.75514" lon="-3.54663">
        <ele>93.2</ele>
        <time>2019-07-11T11:05:00Z</time>
      </trkpt>
      <trkpt lat="48.75511" lon="-3.54668">
        <ele>92.9</ele>
        <time>2019-07-11T11:05:01Z</time>
      </trkpt>
      <trkpt lat="48.75509" lon="-3.54673">
        <ele>92.9</ele>
        <time>2019-07-11T11:05:02Z</time>
      </trkpt>
      <trkpt lat="48.75506" lon="-3.54678">
        <ele>92.9</ele>
        <time>2019-07-11T11:05:03Z</time>
      </trkpt>
      <trkpt lat="48.75503" lon="-3.54683">
        <ele>93.1</ele>
        <time>2019-07-11T11:05:04Z</time>
      </trkpt>
      <trkpt lat="48.75501" lon="-3.54688">
        <ele>93.5</ele>
        <time>2019-07-11T11:05:05Z</time>
      </trkpt>
      <trkpt lat="48.75499" lon="-3.54693">
        <ele>93.7</ele>
        <time>2019-07-11T11:05:06Z</time>
      </trkpt>
      <trkpt lat="48.75497" lon="-3.54698">
        <ele>93.8</ele>
        <time>2019-07-11T11:05:07Z</time>
      </trkpt>
      <trkpt lat="48.75495" lon="-3.54703">
        <ele>94.2</ele>
        <time>2019-07-11T11:05:08Z</time>
      </trkpt>
      <trkpt lat="48.75493" lon="-3.54709">
        <ele>94.2</ele>
        <time>2019-07-11T11:05:09Z</time>
      </trkpt>
      <trkpt lat="48.75492" lon="-3.54715">
        <ele>94.4</ele>
        <time>2019-07-11T11:05:10Z</time>
      </trkpt>
      <trkpt lat="48.75491" lon="-3.5472">
        <ele>94.2</ele>
        <time>2019-07-11T11:05:11Z</time>
      </trkpt>
      <trkpt lat="48.7549" lon="-3.54726">
        <ele>94.2</ele>
        <time>2019-07-11T11:05:12Z</time>
      </trkpt>
      <trkpt lat="48.7549" lon="-3.54731">
        <ele>94.1</ele>
        <time>2019-07-11T11:05:13Z</time>
      </trkpt>
      <trkpt lat="48.75489" lon="-3.54736">
        <ele>94.6</ele>
        <time>2019-07-11T11:05:14Z</time>
      </trkpt>
      <trkpt lat="48.75489" lon="-3.5474">
        <ele>96.7</ele>
        <time>2019-07-11T11:05:15Z</time>
      </trkpt>
      <trkpt lat="48.75489" lon="-3.54745">
        <ele>97.8</ele>
        <time>2019-07-11T11:05:16Z</time>
      </trkpt>
      <trkpt lat="48.75488" lon="-3.5475">
        <ele>98.8</ele>
        <time>2019-07-11T11:05:17Z</time>
      </trkpt>
      <trkpt lat="48.75487" lon="-3.54756">
        <ele>98.9</ele>
        <time>2019-07-11T11:05:18Z</time>
      </trkpt>
      <trkpt lat="48.75485" lon="-3.54762">
        <ele>98.8</ele>
        <time>2019-07-11T11:05:19Z</time>
      </trkpt>
      <trkpt lat="48.75484" lon="-3.54768">
        <ele>98.2</ele>
        <time>2019-07-11T11:05:20Z</time>
      </trkpt>
      <trkpt lat="48.75482" lon="-3.54772">
        <ele>97.9</ele>
        <time>2019-07-11T11:05:21Z</time>
      </trkpt>
      <trkpt lat="48.75481" lon="-3.54777">
        <ele>98</ele>
        <time>2019-07-11T11:05:22Z</time>
      </trkpt>
      <trkpt lat="48.7548" lon="-3.54783">
        <ele>98.2</ele>
        <time>2019-07-11T11:05:23Z</time>
      </trkpt>
      <trkpt lat="48.75479" lon="-3.54789">
        <ele>98.2</ele>
        <time>2019-07-11T11:05:24Z</time>
      </trkpt>
      <trkpt lat="48.75478" lon="-3.54795">
        <ele>98.6</ele>
        <time>2019-07-11T11:05:25Z</time>
      </trkpt>
      <trkpt lat="48.75477" lon="-3.54799">
        <ele>99.7</ele>
        <time>2019-07-11T11:05:26Z</time>
      </trkpt>
      <trkpt lat="48.75475" lon="-3.54804">
        <ele>100.2</ele>
        <time>2019-07-11T11:05:27Z</time>
      </trkpt>
      <trkpt lat="48.75473" lon="-3.54809">
        <ele>100.4</ele>
        <time>2019-07-11T11:05:28Z</time>
      </trkpt>
      <trkpt lat="48.7547" lon="-3.54813">
        <ele>100.7</ele>
        <time>2019-07-11T11:05:29Z</time>
      </trkpt>
      <trkpt lat="48.75468" lon="-3.54818">
        <ele>100.9</ele>
        <time>2019-07-11T11:05:30Z</time>
      </trkpt>
      <trkpt lat="48.75464" lon="-3.54822">
        <ele>100.6</ele>
        <time>2019-07-11T11:05:31Z</time>
      </trkpt>
      <trkpt lat="48.75461" lon="-3.54827">
        <ele>100.6</ele>
        <time>2019-07-11T11:05:32Z</time>
      </trkpt>
      <trkpt lat="48.75457" lon="-3.54831">
        <ele>99.5</ele>
        <time>2019-07-11T11:05:33Z</time>
      </trkpt>
      <trkpt lat="48.75453" lon="-3.54837">
        <ele>99</ele>
        <time>2019-07-11T11:05:34Z</time>
      </trkpt>
      <trkpt lat="48.7545" lon="-3.54842">
        <ele>99</ele>
        <time>2019-07-11T11:05:35Z</time>
      </trkpt>
      <trkpt lat="48.75447" lon="-3.54847">
        <ele>99.1</ele>
        <time>2019-07-11T11:05:36Z</time>
      </trkpt>
      <trkpt lat="48.75444" lon="-3.54851">
        <ele>99</ele>
        <time>2019-07-11T11:05:37Z</time>
      </trkpt>
      <trkpt lat="48.75441" lon="-3.54856">
        <ele>98.7</ele>
        <time>2019-07-11T11:05:38Z</time>
      </trkpt>
      <trkpt lat="48.7544" lon="-3.54862">
        <ele>99</ele>
        <time>2019-07-11T11:05:39Z</time>
      </trkpt>
      <trkpt lat="48.75437" lon="-3.54867">
        <ele>99</ele>
        <time>2019-07-11T11:05:40Z</time>
      </trkpt>
      <trkpt lat="48.75435" lon="-3.54872">
        <ele>99</ele>
        <time>2019-07-11T11:05:41Z</time>
      </trkpt>
      <trkpt lat="48.75432" lon="-3.54876">
        <ele>99.4</ele>
        <time>2019-07-11T11:05:42Z</time>
      </trkpt>
      <trkpt lat="48.7543" lon="-3.5488">
        <ele>99.6</ele>
        <time>2019-07-11T11:05:43Z</time>
      </trkpt>
      <trkpt lat="48.75427" lon="-3.54884">
        <ele>100.1</ele>
        <time>2019-07-11T11:05:44Z</time>
      </trkpt>
      <trkpt lat="48.75423" lon="-3.54888">
        <ele>100.4</ele>
        <time>2019-07-11T11:05:45Z</time>
      </trkpt>
      <trkpt lat="48.75421" lon="-3.54893">
        <ele>100.4</ele>
        <time>2019-07-11T11:05:46Z</time>
      </trkpt>
      <trkpt lat="48.75417" lon="-3.54898">
        <ele>98.9</ele>
        <time>2019-07-11T11:05:47Z</time>
      </trkpt>
      <trkpt lat="48.75414" lon="-3.54903">
        <ele>96.1</ele>
        <time>2019-07-11T11:05:48Z</time>
      </trkpt>
      <trkpt lat="48.75411" lon="-3.54908">
        <ele>94.1</ele>
        <time>2019-07-11T11:05:49Z</time>
      </trkpt>
      <trkpt lat="48.75409" lon="-3.54914">
        <ele>93.2</ele>
        <time>2019-07-11T11:05:50Z</time>
      </trkpt>
      <trkpt lat="48.75406" lon="-3.54919">
        <ele>92.7</ele>
        <time>2019-07-11T11:05:51Z</time>
      </trkpt>
      <trkpt lat="48.75403" lon="-3.54922">
        <ele>92.2</ele>
        <time>2019-07-11T11:05:52Z</time>
      </trkpt>
      <trkpt lat="48.75401" lon="-3.54926">
        <ele>92.4</ele>
        <time>2019-07-11T11:05:53Z</time>
      </trkpt>
      <trkpt lat="48.75399" lon="-3.54929">
        <ele>93.4</ele>
        <time>2019-07-11T11:05:54Z</time>
      </trkpt>
      <trkpt lat="48.75396" lon="-3.5493">
        <ele>94.2</ele>
        <time>2019-07-11T11:05:55Z</time>
      </trkpt>
      <trkpt lat="48.75393" lon="-3.54931">
        <ele>94.4</ele>
        <time>2019-07-11T11:05:56Z</time>
      </trkpt>
      <trkpt lat="48.7539" lon="-3.54929">
        <ele>93.8</ele>
        <time>2019-07-11T11:05:57Z</time>
      </trkpt>
      <trkpt lat="48.75387" lon="-3.54928">
        <ele>93.2</ele>
        <time>2019-07-11T11:05:58Z</time>
      </trkpt>
      <trkpt lat="48.75385" lon="-3.54926">
        <ele>93</ele>
        <time>2019-07-11T11:05:59Z</time>
      </trkpt>
      <trkpt lat="48.75382" lon="-3.54924">
        <ele>92.9</ele>
        <time>2019-07-11T11:06:00Z</time>
      </trkpt>
      <trkpt lat="48.7538" lon="-3.54921">
        <ele>93.1</ele>
        <time>2019-07-11T11:06:01Z</time>
      </trkpt>
      <trkpt lat="48.75377" lon="-3.54917">
        <ele>93.4</ele>
        <time>2019-07-11T11:06:02Z</time>
      </trkpt>
      <trkpt lat="48.75375" lon="-3.54913">
        <ele>93.6</ele>
        <time>2019-07-11T11:06:03Z</time>
      </trkpt>
      <trkpt lat="48.75372" lon="-3.54908">
        <ele>93.5</ele>
        <time>2019-07-11T11:06:04Z</time>
      </trkpt>
      <trkpt lat="48.7537" lon="-3.54904">
        <ele>93.8</ele>
        <time>2019-07-11T11:06:05Z</time>
      </trkpt>
      <trkpt lat="48.75367" lon="-3.549">
        <ele>94.2</ele>
        <time>2019-07-11T11:06:06Z</time>
      </trkpt>
      <trkpt lat="48.75365" lon="-3.54895">
        <ele>94.6</ele>
        <time>2019-07-11T11:06:07Z</time>
      </trkpt>
      <trkpt lat="48.75363" lon="-3.5489">
        <ele>95</ele>
        <time>2019-07-11T11:06:08Z</time>
      </trkpt>
      <trkpt lat="48.75361" lon="-3.54886">
        <ele>95.4</ele>
        <time>2019-07-11T11:06:09Z</time>
      </trkpt>
      <trkpt lat="48.75358" lon="-3.54881">
        <ele>95.6</ele>
        <time>2019-07-11T11:06:10Z</time>
      </trkpt>
      <trkpt lat="48.75356" lon="-3.54875">
        <ele>95.9</ele>
        <time>2019-07-11T11:06:11Z</time>
      </trkpt>
      <trkpt lat="48.75353" lon="-3.5487">
        <ele>96.1</ele>
        <time>2019-07-11T11:06:12Z</time>
      </trkpt>
      <trkpt lat="48.75351" lon="-3.54864">
        <ele>96.5</ele>
        <time>2019-07-11T11:06:13Z</time>
      </trkpt>
      <trkpt lat="48.75349" lon="-3.54857">
        <ele>96.8</ele>
        <time>2019-07-11T11:06:14Z</time>
      </trkpt>
      <trkpt lat="48.75346" lon="-3.54851">
        <ele>96.5</ele>
        <time>2019-07-11T11:06:15Z</time>
      </trkpt>
      <trkpt lat="48.75345" lon="-3.54844">
        <ele>96.4</ele>
        <time>2019-07-11T11:06:16Z</time>
      </trkpt>
      <trkpt lat="48.75343" lon="-3.54837">
        <ele>96.6</ele>
        <time>2019-07-11T11:06:17Z</time>
      </trkpt>
      <trkpt lat="48.75341" lon="-3.54829">
        <ele>96.7</ele>
        <time>2019-07-11T11:06:18Z</time>
      </trkpt>
      <trkpt lat="48.7534" lon="-3.54821">
        <ele>96.8</ele>
        <time>2019-07-11T11:06:19Z</time>
      </trkpt>
      <trkpt lat="48.75338" lon="-3.54813">
        <ele>96.8</ele>
        <time>2019-07-11T11:06:20Z</time>
      </trkpt>
      <trkpt lat="48.75337" lon="-3.54804">
        <ele>96.7</ele>
        <time>2019-07-11T11:06:21Z</time>
      </trkpt>
      <trkpt lat="48.75336" lon="-3.54796">
        <ele>96.4</ele>
        <time>2019-07-11T11:06:22Z</time>
      </trkpt>
      <trkpt lat="48.75335" lon="-3.54787">
        <ele>96.3</ele>
        <time>2019-07-11T11:06:23Z</time>
      </trkpt>
      <trkpt lat="48.75333" lon="-3.54778">
        <ele>96.3</ele>
        <time>2019-07-11T11:06:24Z</time>
      </trkpt>
      <trkpt lat="48.75332" lon="-3.54769">
        <ele>95.5</ele>
        <time>2019-07-11T11:06:25Z</time>
      </trkpt>
      <trkpt lat="48.75331" lon="-3.54761">
        <ele>94.9</ele>
        <time>2019-07-11T11:06:26Z</time>
      </trkpt>
      <trkpt lat="48.75329" lon="-3.54753">
        <ele>94.9</ele>
        <time>2019-07-11T11:06:27Z</time>
      </trkpt>
      <trkpt lat="48.75328" lon="-3.54746">
        <ele>95.1</ele>
        <time>2019-07-11T11:06:28Z</time>
      </trkpt>
      <trkpt lat="48.75328" lon="-3.54738">
        <ele>95.3</ele>
        <time>2019-07-11T11:06:29Z</time>
      </trkpt>
      <trkpt lat="48.75326" lon="-3.54731">
        <ele>95</ele>
        <time>2019-07-11T11:06:30Z</time>
      </trkpt>
      <trkpt lat="48.75324" lon="-3.54724">
        <ele>94.8</ele>
        <time>2019-07-11T11:06:31Z</time>
      </trkpt>
      <trkpt lat="48.75322" lon="-3.54717">
        <ele>94.4</ele>
        <time>2019-07-11T11:06:32Z</time>
      </trkpt>
      <trkpt lat="48.75321" lon="-3.54709">
        <ele>94</ele>
        <time>2019-07-11T11:06:33Z</time>
      </trkpt>
      <trkpt lat="48.7532" lon="-3.54703">
        <ele>93.7</ele>
        <time>2019-07-11T11:06:34Z</time>
      </trkpt>
      <trkpt lat="48.75319" lon="-3.54696">
        <ele>93.5</ele>
        <time>2019-07-11T11:06:35Z</time>
      </trkpt>
      <trkpt lat="48.75318" lon="-3.5469">
        <ele>93.3</ele>
        <time>2019-07-11T11:06:36Z</time>
      </trkpt>
      <trkpt lat="48.75318" lon="-3.54684">
        <ele>92.9</ele>
        <time>2019-07-11T11:06:37Z</time>
      </trkpt>
      <trkpt lat="48.75317" lon="-3.54678">
        <ele>92.4</ele>
        <time>2019-07-11T11:06:38Z</time>
      </trkpt>
      <trkpt lat="48.75316" lon="-3.54671">
        <ele>92.1</ele>
        <time>2019-07-11T11:06:39Z</time>
      </trkpt>
      <trkpt lat="48.75316" lon="-3.54663">
        <ele>91.3</ele>
        <time>2019-07-11T11:06:40Z</time>
      </trkpt>
      <trkpt lat="48.75314" lon="-3.54656">
        <ele>90.5</ele>
        <time>2019-07-11T11:06:41Z</time>
      </trkpt>
      <trkpt lat="48.75313" lon="-3.54649">
        <ele>90.2</ele>
        <time>2019-07-11T11:06:42Z</time>
      </trkpt>
      <trkpt lat="48.75312" lon="-3.54641">
        <ele>90.2</ele>
        <time>2019-07-11T11:06:43Z</time>
      </trkpt>
      <trkpt lat="48.75311" lon="-3.54634">
        <ele>90.1</ele>
        <time>2019-07-11T11:06:44Z</time>
      </trkpt>
      <trkpt lat="48.75311" lon="-3.54627">
        <ele>90.2</ele>
        <time>2019-07-11T11:06:45Z</time>
      </trkpt>
      <trkpt lat="48.7531" lon="-3.54619">
        <ele>90</ele>
        <time>2019-07-11T11:06:46Z</time>
      </trkpt>
      <trkpt lat="48.75309" lon="-3.54612">
        <ele>89.9</ele>
        <time>2019-07-11T11:06:47Z</time>
      </trkpt>
      <trkpt lat="48.75309" lon="-3.54605">
        <ele>89.7</ele>
        <time>2019-07-11T11:06:48Z</time>
      </trkpt>
      <trkpt lat="48.75309" lon="-3.54597">
        <ele>89.8</ele>
        <time>2019-07-11T11:06:49Z</time>
      </trkpt>
      <trkpt lat="48.75309" lon="-3.5459">
        <ele>89.8</ele>
        <time>2019-07-11T11:06:50Z</time>
      </trkpt>
      <trkpt lat="48.75309" lon="-3.54583">
        <ele>89.7</ele>
        <time>2019-07-11T11:06:51Z</time>
      </trkpt>
      <trkpt lat="48.7531" lon="-3.54576">
        <ele>89.8</ele>
        <time>2019-07-11T11:06:52Z</time>
      </trkpt>
      <trkpt lat="48.75311" lon="-3.54568">
        <ele>89.5</ele>
        <time>2019-07-11T11:06:53Z</time>
      </trkpt>
      <trkpt lat="48.75312" lon="-3.54558">
        <ele>89.3</ele>
        <time>2019-07-11T11:06:54Z</time>
      </trkpt>
      <trkpt lat="48.75314" lon="-3.54548">
        <ele>89</ele>
        <time>2019-07-11T11:06:55Z</time>
      </trkpt>
      <trkpt lat="48.75316" lon="-3.54537">
        <ele>88.5</ele>
        <time>2019-07-11T11:06:56Z</time>
      </trkpt>
      <trkpt lat="48.75318" lon="-3.54526">
        <ele>88</ele>
        <time>2019-07-11T11:06:57Z</time>
      </trkpt>
      <trkpt lat="48.75321" lon="-3.54516">
        <ele>88.2</ele>
        <time>2019-07-11T11:06:58Z</time>
      </trkpt>
      <trkpt lat="48.75325" lon="-3.54504">
        <ele>87.8</ele>
        <time>2019-07-11T11:06:59Z</time>
      </trkpt>
      <trkpt lat="48.75328" lon="-3.54493">
        <ele>87.6</ele>
        <time>2019-07-11T11:07:00Z</time>
      </trkpt>
      <trkpt lat="48.7533" lon="-3.5448">
        <ele>87.5</ele>
        <time>2019-07-11T11:07:01Z</time>
      </trkpt>
      <trkpt lat="48.75331" lon="-3.54468">
        <ele>87.3</ele>
        <time>2019-07-11T11:07:02Z</time>
      </trkpt>
      <trkpt lat="48.7533" lon="-3.54456">
        <ele>87.1</ele>
        <time>2019-07-11T11:07:03Z</time>
      </trkpt>
      <trkpt lat="48.75329" lon="-3.54443">
        <ele>87</ele>
        <time>2019-07-11T11:07:04Z</time>
      </trkpt>
      <trkpt lat="48.75328" lon="-3.54429">
        <ele>85.9</ele>
        <time>2019-07-11T11:07:05Z</time>
      </trkpt>
      <trkpt lat="48.75329" lon="-3.54415">
        <ele>84.8</ele>
        <time>2019-07-11T11:07:06Z</time>
      </trkpt>
      <trkpt lat="48.75328" lon="-3.54399">
        <ele>81</ele>
        <time>2019-07-11T11:07:07Z</time>
      </trkpt>
      <trkpt lat="48.7533" lon="-3.54383">
        <ele>79.3</ele>
        <time>2019-07-11T11:07:08Z</time>
      </trkpt>
      <trkpt lat="48.75332" lon="-3.54371">
        <ele>78.9</ele>
        <time>2019-07-11T11:07:09Z</time>
      </trkpt>
      <trkpt lat="48.75334" lon="-3.54359">
        <ele>79</ele>
        <time>2019-07-11T11:07:10Z</time>
      </trkpt>
      <trkpt lat="48.75335" lon="-3.54347">
        <ele>78.6</ele>
        <time>2019-07-11T11:07:11Z</time>
      </trkpt>
      <trkpt lat="48.75337" lon="-3.54334">
        <ele>77.2</ele>
        <time>2019-07-11T11:07:12Z</time>
      </trkpt>
      <trkpt lat="48.75336" lon="-3.54322">
        <ele>76.7</ele>
        <time>2019-07-11T11:07:13Z</time>
      </trkpt>
      <trkpt lat="48.75333" lon="-3.54311">
        <ele>76.6</ele>
        <time>2019-07-11T11:07:14Z</time>
      </trkpt>
      <trkpt lat="48.7533" lon="-3.543">
        <ele>76.6</ele>
        <time>2019-07-11T11:07:15Z</time>
      </trkpt>
      <trkpt lat="48.75328" lon="-3.54289">
        <ele>76.8</ele>
        <time>2019-07-11T11:07:16Z</time>
      </trkpt>
      <trkpt lat="48.75325" lon="-3.54278">
        <ele>77</ele>
        <time>2019-07-11T11:07:17Z</time>
      </trkpt>
      <trkpt lat="48.75322" lon="-3.54267">
        <ele>77.5</ele>
        <time>2019-07-11T11:07:18Z</time>
      </trkpt>
      <trkpt lat="48.7532" lon="-3.54257">
        <ele>78.1</ele>
        <time>2019-07-11T11:07:19Z</time>
      </trkpt>
      <trkpt lat="48.75318" lon="-3.54247">
        <ele>77.8</ele>
        <time>2019-07-11T11:07:20Z</time>
      </trkpt>
      <trkpt lat="48.75317" lon="-3.54236">
        <ele>77.5</ele>
        <time>2019-07-11T11:07:21Z</time>
      </trkpt>
      <trkpt lat="48.75316" lon="-3.54226">
        <ele>77</ele>
        <time>2019-07-11T11:07:22Z</time>
      </trkpt>
      <trkpt lat="48.75313" lon="-3.54215">
        <ele>76.2</ele>
        <time>2019-07-11T11:07:23Z</time>
      </trkpt>
      <trkpt lat="48.75311" lon="-3.54205">
        <ele>75.7</ele>
        <time>2019-07-11T11:07:24Z</time>
      </trkpt>
      <trkpt lat="48.75307" lon="-3.54194">
        <ele>75</ele>
        <time>2019-07-11T11:07:25Z</time>
      </trkpt>
      <trkpt lat="48.75303" lon="-3.54184">
        <ele>74.7</ele>
        <time>2019-07-11T11:07:26Z</time>
      </trkpt>
      <trkpt lat="48.75298" lon="-3.54172">
        <ele>74.3</ele>
        <time>2019-07-11T11:07:27Z</time>
      </trkpt>
      <trkpt lat="48.75295" lon="-3.54161">
        <ele>73.6</ele>
        <time>2019-07-11T11:07:28Z</time>
      </trkpt>
      <trkpt lat="48.75291" lon="-3.54151">
        <ele>72.5</ele>
        <time>2019-07-11T11:07:29Z</time>
      </trkpt>
      <trkpt lat="48.75287" lon="-3.5414">
        <ele>71.8</ele>
        <time>2019-07-11T11:07:30Z</time>
      </trkpt>
      <trkpt lat="48.75285" lon="-3.54128">
        <ele>71.5</ele>
        <time>2019-07-11T11:07:31Z</time>
      </trkpt>
      <trkpt lat="48.75285" lon="-3.54117">
        <ele>71.2</ele>
        <time>2019-07-11T11:07:32Z</time>
      </trkpt>
      <trkpt lat="48.75286" lon="-3.54106">
        <ele>70.8</ele>
        <time>2019-07-11T11:07:33Z</time>
      </trkpt>
      <trkpt lat="48.75289" lon="-3.54096">
        <ele>70.3</ele>
        <time>2019-07-11T11:07:34Z</time>
      </trkpt>
      <trkpt lat="48.75293" lon="-3.54089">
        <ele>69.9</ele>
        <time>2019-07-11T11:07:35Z</time>
      </trkpt>
      <trkpt lat="48.75299" lon="-3.54083">
        <ele>69.9</ele>
        <time>2019-07-11T11:07:36Z</time>
      </trkpt>
      <trkpt lat="48.75304" lon="-3.54077">
        <ele>69.8</ele>
        <time>2019-07-11T11:07:37Z</time>
      </trkpt>
      <trkpt lat="48.75308" lon="-3.54072">
        <ele>69.7</ele>
        <time>2019-07-11T11:07:38Z</time>
      </trkpt>
      <trkpt lat="48.75312" lon="-3.54066">
        <ele>69.6</ele>
        <time>2019-07-11T11:07:39Z</time>
      </trkpt>
      <trkpt lat="48.75315" lon="-3.54061">
        <ele>69.6</ele>
        <time>2019-07-11T11:07:40Z</time>
      </trkpt>
      <trkpt lat="48.75317" lon="-3.54057">
        <ele>69.6</ele>
        <time>2019-07-11T11:07:41Z</time>
      </trkpt>
      <trkpt lat="48.7532" lon="-3.54053">
        <ele>69.8</ele>
        <time>2019-07-11T11:07:42Z</time>
      </trkpt>
      <trkpt lat="48.75322" lon="-3.54048">
        <ele>70.3</ele>
        <time>2019-07-11T11:07:43Z</time>
      </trkpt>
      <trkpt lat="48.75324" lon="-3.54042">
        <ele>71</ele>
        <time>2019-07-11T11:07:44Z</time>
      </trkpt>
      <trkpt lat="48.75325" lon="-3.54037">
        <ele>71.5</ele>
        <time>2019-07-11T11:07:45Z</time>
      </trkpt>
      <trkpt lat="48.75327" lon="-3.54032">
        <ele>72.4</ele>
        <time>2019-07-11T11:07:46Z</time>
      </trkpt>
      <trkpt lat="48.75328" lon="-3.54027">
        <ele>73</ele>
        <time>2019-07-11T11:07:47Z</time>
      </trkpt>
      <trkpt lat="48.7533" lon="-3.54022">
        <ele>73.8</ele>
        <time>2019-07-11T11:07:48Z</time>
      </trkpt>
      <trkpt lat="48.75332" lon="-3.54018">
        <ele>75.7</ele>
        <time>2019-07-11T11:07:49Z</time>
      </trkpt>
      <trkpt lat="48.75334" lon="-3.54014">
        <ele>76.6</ele>
        <time>2019-07-11T11:07:50Z</time>
      </trkpt>
      <trkpt lat="48.75335" lon="-3.54011">
        <ele>77.8</ele>
        <time>2019-07-11T11:07:51Z</time>
      </trkpt>
      <trkpt lat="48.75337" lon="-3.54007">
        <ele>79</ele>
        <time>2019-07-11T11:07:52Z</time>
      </trkpt>
      <trkpt lat="48.75339" lon="-3.54003">
        <ele>80.3</ele>
        <time>2019-07-11T11:07:53Z</time>
      </trkpt>
      <trkpt lat="48.75341" lon="-3.54">
        <ele>81.5</ele>
        <time>2019-07-11T11:07:54Z</time>
      </trkpt>
      <trkpt lat="48.75342" lon="-3.53997">
        <ele>82.4</ele>
        <time>2019-07-11T11:07:55Z</time>
      </trkpt>
      <trkpt lat="48.75344" lon="-3.53994">
        <ele>83.2</ele>
        <time>2019-07-11T11:07:56Z</time>
      </trkpt>
      <trkpt lat="48.75345" lon="-3.5399">
        <ele>84</ele>
        <time>2019-07-11T11:07:57Z</time>
      </trkpt>
      <trkpt lat="48.75347" lon="-3.53984">
        <ele>83.8</ele>
        <time>2019-07-11T11:07:58Z</time>
      </trkpt>
      <trkpt lat="48.75349" lon="-3.53979">
        <ele>83.5</ele>
        <time>2019-07-11T11:07:59Z</time>
      </trkpt>
      <trkpt lat="48.75352" lon="-3.53974">
        <ele>83.3</ele>
        <time>2019-07-11T11:08:00Z</time>
      </trkpt>
      <trkpt lat="48.75354" lon="-3.5397">
        <ele>83.2</ele>
        <time>2019-07-11T11:08:01Z</time>
      </trkpt>
      <trkpt lat="48.75356" lon="-3.53967">
        <ele>83.1</ele>
        <time>2019-07-11T11:08:02Z</time>
      </trkpt>
      <trkpt lat="48.75358" lon="-3.53963">
        <ele>82.7</ele>
        <time>2019-07-11T11:08:03Z</time>
      </trkpt>
      <trkpt lat="48.75361" lon="-3.53959">
        <ele>82.1</ele>
        <time>2019-07-11T11:08:04Z</time>
      </trkpt>
      <trkpt lat="48.75364" lon="-3.53954">
        <ele>81.6</ele>
        <time>2019-07-11T11:08:05Z</time>
      </trkpt>
      <trkpt lat="48.75367" lon="-3.53949">
        <ele>81</ele>
        <time>2019-07-11T11:08:06Z</time>
      </trkpt>
      <trkpt lat="48.7537" lon="-3.53945">
        <ele>80.2</ele>
        <time>2019-07-11T11:08:07Z</time>
      </trkpt>
      <trkpt lat="48.75372" lon="-3.5394">
        <ele>79.4</ele>
        <time>2019-07-11T11:08:08Z</time>
      </trkpt>
      <trkpt lat="48.75375" lon="-3.53934">
        <ele>78.3</ele>
        <time>2019-07-11T11:08:09Z</time>
      </trkpt>
      <trkpt lat="48.75379" lon="-3.5393">
        <ele>77.3</ele>
        <time>2019-07-11T11:08:10Z</time>
      </trkpt>
      <trkpt lat="48.75384" lon="-3.53924">
        <ele>76.3</ele>
        <time>2019-07-11T11:08:11Z</time>
      </trkpt>
      <trkpt lat="48.75388" lon="-3.53919">
        <ele>76</ele>
        <time>2019-07-11T11:08:12Z</time>
      </trkpt>
      <trkpt lat="48.75394" lon="-3.53914">
        <ele>75.8</ele>
        <time>2019-07-11T11:08:13Z</time>
      </trkpt>
      <trkpt lat="48.75399" lon="-3.5391">
        <ele>75.9</ele>
        <time>2019-07-11T11:08:14Z</time>
      </trkpt>
      <trkpt lat="48.75404" lon="-3.53907">
        <ele>75.7</ele>
        <time>2019-07-11T11:08:15Z</time>
      </trkpt>
      <trkpt lat="48.75409" lon="-3.53904">
        <ele>75.6</ele>
        <time>2019-07-11T11:08:16Z</time>
      </trkpt>
      <trkpt lat="48.75413" lon="-3.53902">
        <ele>75.5</ele>
        <time>2019-07-11T11:08:17Z</time>
      </trkpt>
      <trkpt lat="48.75418" lon="-3.53899">
        <ele>75.7</ele>
        <time>2019-07-11T11:08:18Z</time>
      </trkpt>
      <trkpt lat="48.75422" lon="-3.53896">
        <ele>75.9</ele>
        <time>2019-07-11T11:08:19Z</time>
      </trkpt>
      <trkpt lat="48.75427" lon="-3.53894">
        <ele>76.1</ele>
        <time>2019-07-11T11:08:20Z</time>
      </trkpt>
      <trkpt lat="48.75429" lon="-3.5389">
        <ele>76.2</ele>
        <time>2019-07-11T11:08:21Z</time>
      </trkpt>
      <trkpt lat="48.75431" lon="-3.53886">
        <ele>76.5</ele>
        <time>2019-07-11T11:08:22Z</time>
      </trkpt>
      <trkpt lat="48.75434" lon="-3.53881">
        <ele>76.2</ele>
        <time>2019-07-11T11:08:23Z</time>
      </trkpt>
      <trkpt lat="48.75438" lon="-3.53877">
        <ele>75.9</ele>
        <time>2019-07-11T11:08:24Z</time>
      </trkpt>
      <trkpt lat="48.7544" lon="-3.53872">
        <ele>75.9</ele>
        <time>2019-07-11T11:08:25Z</time>
      </trkpt>
      <trkpt lat="48.75443" lon="-3.53869">
        <ele>76.1</ele>
        <time>2019-07-11T11:08:26Z</time>
      </trkpt>
      <trkpt lat="48.75444" lon="-3.53866">
        <ele>76.1</ele>
        <time>2019-07-11T11:08:27Z</time>
      </trkpt>
      <trkpt lat="48.75446" lon="-3.53862">
        <ele>76.1</ele>
        <time>2019-07-11T11:08:28Z</time>
      </trkpt>
      <trkpt lat="48.75448" lon="-3.53859">
        <ele>76.2</ele>
        <time>2019-07-11T11:08:29Z</time>
      </trkpt>
      <trkpt lat="48.75451" lon="-3.53855">
        <ele>76.2</ele>
        <time>2019-07-11T11:08:30Z</time>
      </trkpt>
      <trkpt lat="48.75453" lon="-3.53851">
        <ele>76.6</ele>
        <time>2019-07-11T11:08:31Z</time>
      </trkpt>
      <trkpt lat="48.75456" lon="-3.53848">
        <ele>77</ele>
        <time>2019-07-11T11:08:32Z</time>
      </trkpt>
      <trkpt lat="48.75459" lon="-3.53844">
        <ele>77.4</ele>
        <time>2019-07-11T11:08:33Z</time>
      </trkpt>
      <trkpt lat="48.75462" lon="-3.53841">
        <ele>78.5</ele>
        <time>2019-07-11T11:08:34Z</time>
      </trkpt>
      <trkpt lat="48.75464" lon="-3.53837">
        <ele>79.4</ele>
        <time>2019-07-11T11:08:35Z</time>
      </trkpt>
      <trkpt lat="48.75467" lon="-3.53833">
        <ele>80.3</ele>
        <time>2019-07-11T11:08:36Z</time>
      </trkpt>
      <trkpt lat="48.75471" lon="-3.53829">
        <ele>80.9</ele>
        <time>2019-07-11T11:08:37Z</time>
      </trkpt>
      <trkpt lat="48.75474" lon="-3.53826">
        <ele>81.4</ele>
        <time>2019-07-11T11:08:38Z</time>
      </trkpt>
      <trkpt lat="48.75477" lon="-3.53823">
        <ele>81.5</ele>
        <time>2019-07-11T11:08:39Z</time>
      </trkpt>
      <trkpt lat="48.7548" lon="-3.53819">
        <ele>81.8</ele>
        <time>2019-07-11T11:08:40Z</time>
      </trkpt>
      <trkpt lat="48.75482" lon="-3.53816">
        <ele>82</ele>
        <time>2019-07-11T11:08:41Z</time>
      </trkpt>
      <trkpt lat="48.75485" lon="-3.53815">
        <ele>82.3</ele>
        <time>2019-07-11T11:08:42Z</time>
      </trkpt>
      <trkpt lat="48.75487" lon="-3.53813">
        <ele>82.5</ele>
        <time>2019-07-11T11:08:43Z</time>
      </trkpt>
      <trkpt lat="48.75488" lon="-3.53811">
        <ele>82.2</ele>
        <time>2019-07-11T11:08:44Z</time>
      </trkpt>
      <trkpt lat="48.75491" lon="-3.5381">
        <ele>82.2</ele>
        <time>2019-07-11T11:08:45Z</time>
      </trkpt>
      <trkpt lat="48.75493" lon="-3.53806">
        <ele>81.4</ele>
        <time>2019-07-11T11:08:46Z</time>
      </trkpt>
      <trkpt lat="48.75496" lon="-3.53803">
        <ele>81.4</ele>
        <time>2019-07-11T11:08:47Z</time>
      </trkpt>
      <trkpt lat="48.75498" lon="-3.538">
        <ele>81.3</ele>
        <time>2019-07-11T11:08:48Z</time>
      </trkpt>
      <trkpt lat="48.75501" lon="-3.53796">
        <ele>81.4</ele>
        <time>2019-07-11T11:08:49Z</time>
      </trkpt>
      <trkpt lat="48.75504" lon="-3.53793">
        <ele>80.9</ele>
        <time>2019-07-11T11:08:50Z</time>
      </trkpt>
      <trkpt lat="48.75507" lon="-3.53789">
        <ele>81.1</ele>
        <time>2019-07-11T11:08:51Z</time>
      </trkpt>
      <trkpt lat="48.7551" lon="-3.53785">
        <ele>81</ele>
        <time>2019-07-11T11:08:52Z</time>
      </trkpt>
      <trkpt lat="48.75514" lon="-3.53781">
        <ele>81.2</ele>
        <time>2019-07-11T11:08:53Z</time>
      </trkpt>
      <trkpt lat="48.75518" lon="-3.53776">
        <ele>81.4</ele>
        <time>2019-07-11T11:08:54Z</time>
      </trkpt>
      <trkpt lat="48.75521" lon="-3.53769">
        <ele>81.3</ele>
        <time>2019-07-11T11:08:55Z</time>
      </trkpt>
      <trkpt lat="48.75524" lon="-3.53763">
        <ele>81.8</ele>
        <time>2019-07-11T11:08:56Z</time>
      </trkpt>
      <trkpt lat="48.75528" lon="-3.53756">
        <ele>82.1</ele>
        <time>2019-07-11T11:08:57Z</time>
      </trkpt>
      <trkpt lat="48.75531" lon="-3.53749">
        <ele>81.8</ele>
        <time>2019-07-11T11:08:58Z</time>
      </trkpt>
      <trkpt lat="48.75535" lon="-3.53744">
        <ele>82.1</ele>
        <time>2019-07-11T11:08:59Z</time>
      </trkpt>
      <trkpt lat="48.75539" lon="-3.53738">
        <ele>82.4</ele>
        <time>2019-07-11T11:09:00Z</time>
      </trkpt>
      <trkpt lat="48.75543" lon="-3.53733">
        <ele>82.6</ele>
        <time>2019-07-11T11:09:01Z</time>
      </trkpt>
      <trkpt lat="48.75547" lon="-3.53729">
        <ele>83.2</ele>
        <time>2019-07-11T11:09:02Z</time>
      </trkpt>
      <trkpt lat="48.75552" lon="-3.53724">
        <ele>83.5</ele>
        <time>2019-07-11T11:09:03Z</time>
      </trkpt>
      <trkpt lat="48.75556" lon="-3.5372">
        <ele>83.7</ele>
        <time>2019-07-11T11:09:04Z</time>
      </trkpt>
      <trkpt lat="48.75561" lon="-3.53713">
        <ele>83.1</ele>
        <time>2019-07-11T11:09:05Z</time>
      </trkpt>
      <trkpt lat="48.75564" lon="-3.53709">
        <ele>82.9</ele>
        <time>2019-07-11T11:09:06Z</time>
      </trkpt>
      <trkpt lat="48.75568" lon="-3.53702">
        <ele>82.5</ele>
        <time>2019-07-11T11:09:07Z</time>
      </trkpt>
      <trkpt lat="48.75572" lon="-3.53698">
        <ele>82.5</ele>
        <time>2019-07-11T11:09:08Z</time>
      </trkpt>
      <trkpt lat="48.75575" lon="-3.53693">
        <ele>81.7</ele>
        <time>2019-07-11T11:09:09Z</time>
      </trkpt>
      <trkpt lat="48.75577" lon="-3.53688">
        <ele>81.4</ele>
        <time>2019-07-11T11:09:10Z</time>
      </trkpt>
      <trkpt lat="48.75579" lon="-3.53682">
        <ele>80.8</ele>
        <time>2019-07-11T11:09:11Z</time>
      </trkpt>
      <trkpt lat="48.75581" lon="-3.53675">
        <ele>80.9</ele>
        <time>2019-07-11T11:09:12Z</time>
      </trkpt>
      <trkpt lat="48.75584" lon="-3.53668">
        <ele>80.2</ele>
        <time>2019-07-11T11:09:13Z</time>
      </trkpt>
      <trkpt lat="48.75586" lon="-3.53663">
        <ele>79.8</ele>
        <time>2019-07-11T11:09:14Z</time>
      </trkpt>
      <trkpt lat="48.75588" lon="-3.53656">
        <ele>79.3</ele>
        <time>2019-07-11T11:09:15Z</time>
      </trkpt>
      <trkpt lat="48.75588" lon="-3.5365">
        <ele>78.8</ele>
        <time>2019-07-11T11:09:16Z</time>
      </trkpt>
      <trkpt lat="48.7559" lon="-3.53645">
        <ele>77.3</ele>
        <time>2019-07-11T11:09:17Z</time>
      </trkpt>
      <trkpt lat="48.75591" lon="-3.53638">
        <ele>76.3</ele>
        <time>2019-07-11T11:09:18Z</time>
      </trkpt>
      <trkpt lat="48.75593" lon="-3.53632">
        <ele>75.4</ele>
        <time>2019-07-11T11:09:19Z</time>
      </trkpt>
      <trkpt lat="48.75596" lon="-3.53627">
        <ele>74.9</ele>
        <time>2019-07-11T11:09:20Z</time>
      </trkpt>
      <trkpt lat="48.75598" lon="-3.53623">
        <ele>74.4</ele>
        <time>2019-07-11T11:09:21Z</time>
      </trkpt>
      <trkpt lat="48.756" lon="-3.53618">
        <ele>74.2</ele>
        <time>2019-07-11T11:09:22Z</time>
      </trkpt>
      <trkpt lat="48.75603" lon="-3.53614">
        <ele>74.5</ele>
        <time>2019-07-11T11:09:23Z</time>
      </trkpt>
      <trkpt lat="48.75605" lon="-3.53609">
        <ele>74.6</ele>
        <time>2019-07-11T11:09:24Z</time>
      </trkpt>
      <trkpt lat="48.75607" lon="-3.53603">
        <ele>75.3</ele>
        <time>2019-07-11T11:09:25Z</time>
      </trkpt>
      <trkpt lat="48.75609" lon="-3.53597">
        <ele>75.5</ele>
        <time>2019-07-11T11:09:26Z</time>
      </trkpt>
      <trkpt lat="48.75612" lon="-3.53592">
        <ele>75.5</ele>
        <time>2019-07-11T11:09:27Z</time>
      </trkpt>
      <trkpt lat="48.75614" lon="-3.53587">
        <ele>75.1</ele>
        <time>2019-07-11T11:09:28Z</time>
      </trkpt>
      <trkpt lat="48.75617" lon="-3.53582">
        <ele>74.8</ele>
        <time>2019-07-11T11:09:29Z</time>
      </trkpt>
      <trkpt lat="48.75619" lon="-3.53577">
        <ele>74.8</ele>
        <time>2019-07-11T11:09:30Z</time>
      </trkpt>
      <trkpt lat="48.75621" lon="-3.53573">
        <ele>74.6</ele>
        <time>2019-07-11T11:09:31Z</time>
      </trkpt>
      <trkpt lat="48.75622" lon="-3.53568">
        <ele>74.4</ele>
        <time>2019-07-11T11:09:32Z</time>
      </trkpt>
      <trkpt lat="48.75625" lon="-3.53563">
        <ele>74.2</ele>
        <time>2019-07-11T11:09:33Z</time>
      </trkpt>
      <trkpt lat="48.75627" lon="-3.53558">
        <ele>74.1</ele>
        <time>2019-07-11T11:09:34Z</time>
      </trkpt>
      <trkpt lat="48.75629" lon="-3.53554">
        <ele>74</ele>
        <time>2019-07-11T11:09:35Z</time>
      </trkpt>
      <trkpt lat="48.75631" lon="-3.5355">
        <ele>74.1</ele>
        <time>2019-07-11T11:09:36Z</time>
      </trkpt>
      <trkpt lat="48.75633" lon="-3.53545">
        <ele>74.3</ele>
        <time>2019-07-11T11:09:37Z</time>
      </trkpt>
      <trkpt lat="48.75634" lon="-3.53541">
        <ele>74.6</ele>
        <time>2019-07-11T11:09:38Z</time>
      </trkpt>
      <trkpt lat="48.75636" lon="-3.53537">
        <ele>74.8</ele>
        <time>2019-07-11T11:09:39Z</time>
      </trkpt>
      <trkpt lat="48.75638" lon="-3.53532">
        <ele>75.1</ele>
        <time>2019-07-11T11:09:40Z</time>
      </trkpt>
      <trkpt lat="48.75639" lon="-3.53529">
        <ele>75.5</ele>
        <time>2019-07-11T11:09:41Z</time>
      </trkpt>
      <trkpt lat="48.75641" lon="-3.53525">
        <ele>75.9</ele>
        <time>2019-07-11T11:09:42Z</time>
      </trkpt>
      <trkpt lat="48.75643" lon="-3.53522">
        <ele>76.3</ele>
        <time>2019-07-11T11:09:43Z</time>
      </trkpt>
      <trkpt lat="48.75644" lon="-3.53518">
        <ele>76.6</ele>
        <time>2019-07-11T11:09:44Z</time>
      </trkpt>
      <trkpt lat="48.75646" lon="-3.53514">
        <ele>77</ele>
        <time>2019-07-11T11:09:45Z</time>
      </trkpt>
      <trkpt lat="48.75648" lon="-3.5351">
        <ele>77.6</ele>
        <time>2019-07-11T11:09:46Z</time>
      </trkpt>
      <trkpt lat="48.75649" lon="-3.53507">
        <ele>78.3</ele>
        <time>2019-07-11T11:09:47Z</time>
      </trkpt>
      <trkpt lat="48.75651" lon="-3.53503">
        <ele>78.4</ele>
        <time>2019-07-11T11:09:48Z</time>
      </trkpt>
      <trkpt lat="48.75652" lon="-3.53499">
        <ele>79.5</ele>
        <time>2019-07-11T11:09:49Z</time>
      </trkpt>
      <trkpt lat="48.75653" lon="-3.53495">
        <ele>80.1</ele>
        <time>2019-07-11T11:09:50Z</time>
      </trkpt>
      <trkpt lat="48.75655" lon="-3.53492">
        <ele>80.3</ele>
        <time>2019-07-11T11:09:51Z</time>
      </trkpt>
      <trkpt lat="48.75655" lon="-3.53488">
        <ele>81.1</ele>
        <time>2019-07-11T11:09:52Z</time>
      </trkpt>
      <trkpt lat="48.75656" lon="-3.53484">
        <ele>81.3</ele>
        <time>2019-07-11T11:09:53Z</time>
      </trkpt>
      <trkpt lat="48.75657" lon="-3.53481">
        <ele>81.5</ele>
        <time>2019-07-11T11:09:54Z</time>
      </trkpt>
      <trkpt lat="48.7566" lon="-3.53477">
        <ele>80.6</ele>
        <time>2019-07-11T11:09:55Z</time>
      </trkpt>
      <trkpt lat="48.75662" lon="-3.53474">
        <ele>80.1</ele>
        <time>2019-07-11T11:09:56Z</time>
      </trkpt>
      <trkpt lat="48.75663" lon="-3.5347">
        <ele>80.8</ele>
        <time>2019-07-11T11:09:57Z</time>
      </trkpt>
      <trkpt lat="48.75664" lon="-3.53467">
        <ele>81.5</ele>
        <time>2019-07-11T11:09:58Z</time>
      </trkpt>
      <trkpt lat="48.75666" lon="-3.53464">
        <ele>81.6</ele>
        <time>2019-07-11T11:09:59Z</time>
      </trkpt>
      <trkpt lat="48.75668" lon="-3.53462">
        <ele>82.1</ele>
        <time>2019-07-11T11:10:00Z</time>
      </trkpt>
      <trkpt lat="48.7567" lon="-3.53459">
        <ele>81.3</ele>
        <time>2019-07-11T11:10:01Z</time>
      </trkpt>
      <trkpt lat="48.75672" lon="-3.53456">
        <ele>81.4</ele>
        <time>2019-07-11T11:10:02Z</time>
      </trkpt>
      <trkpt lat="48.75673" lon="-3.53453">
        <ele>81.2</ele>
        <time>2019-07-11T11:10:03Z</time>
      </trkpt>
      <trkpt lat="48.75675" lon="-3.53449">
        <ele>81.3</ele>
        <time>2019-07-11T11:10:04Z</time>
      </trkpt>
      <trkpt lat="48.75676" lon="-3.53446">
        <ele>81.2</ele>
        <time>2019-07-11T11:10:05Z</time>
      </trkpt>
      <trkpt lat="48.75678" lon="-3.53442">
        <ele>81.4</ele>
        <time>2019-07-11T11:10:06Z</time>
      </trkpt>
      <trkpt lat="48.75679" lon="-3.53439">
        <ele>81.6</ele>
        <time>2019-07-11T11:10:07Z</time>
      </trkpt>
      <trkpt lat="48.7568" lon="-3.53436">
        <ele>82</ele>
        <time>2019-07-11T11:10:08Z</time>
      </trkpt>
      <trkpt lat="48.75681" lon="-3.53434">
        <ele>82.5</ele>
        <time>2019-07-11T11:10:09Z</time>
      </trkpt>
      <trkpt lat="48.75683" lon="-3.53431">
        <ele>82.3</ele>
        <time>2019-07-11T11:10:10Z</time>
      </trkpt>
      <trkpt lat="48.75684" lon="-3.53428">
        <ele>82.4</ele>
        <time>2019-07-11T11:10:11Z</time>
      </trkpt>
      <trkpt lat="48.75684" lon="-3.53425">
        <ele>82.3</ele>
        <time>2019-07-11T11:10:12Z</time>
      </trkpt>
      <trkpt lat="48.75686" lon="-3.53422">
        <ele>82.6</ele>
        <time>2019-07-11T11:10:13Z</time>
      </trkpt>
      <trkpt lat="48.75687" lon="-3.53418">
        <ele>83.2</ele>
        <time>2019-07-11T11:10:14Z</time>
      </trkpt>
      <trkpt lat="48.75688" lon="-3.53415">
        <ele>83.8</ele>
        <time>2019-07-11T11:10:15Z</time>
      </trkpt>
      <trkpt lat="48.7569" lon="-3.53411">
        <ele>84</ele>
        <time>2019-07-11T11:10:16Z</time>
      </trkpt>
      <trkpt lat="48.75691" lon="-3.53406">
        <ele>85</ele>
        <time>2019-07-11T11:10:17Z</time>
      </trkpt>
      <trkpt lat="48.75692" lon="-3.534">
        <ele>86</ele>
        <time>2019-07-11T11:10:18Z</time>
      </trkpt>
      <trkpt lat="48.75694" lon="-3.53395">
        <ele>86.8</ele>
        <time>2019-07-11T11:10:19Z</time>
      </trkpt>
      <trkpt lat="48.75695" lon="-3.53392">
        <ele>88</ele>
        <time>2019-07-11T11:10:20Z</time>
      </trkpt>
      <trkpt lat="48.75695" lon="-3.53388">
        <ele>89.1</ele>
        <time>2019-07-11T11:10:21Z</time>
      </trkpt>
      <trkpt lat="48.75697" lon="-3.53384">
        <ele>89.7</ele>
        <time>2019-07-11T11:10:22Z</time>
      </trkpt>
      <trkpt lat="48.75698" lon="-3.5338">
        <ele>90.1</ele>
        <time>2019-07-11T11:10:23Z</time>
      </trkpt>
      <trkpt lat="48.757" lon="-3.53376">
        <ele>90.6</ele>
        <time>2019-07-11T11:10:24Z</time>
      </trkpt>
      <trkpt lat="48.757" lon="-3.53372">
        <ele>91</ele>
        <time>2019-07-11T11:10:25Z</time>
      </trkpt>
      <trkpt lat="48.75703" lon="-3.53366">
        <ele>91.1</ele>
        <time>2019-07-11T11:10:26Z</time>
      </trkpt>
      <trkpt lat="48.75704" lon="-3.53362">
        <ele>91.1</ele>
        <time>2019-07-11T11:10:27Z</time>
      </trkpt>
      <trkpt lat="48.75704" lon="-3.53359">
        <ele>91.6</ele>
        <time>2019-07-11T11:10:28Z</time>
      </trkpt>
      <trkpt lat="48.75705" lon="-3.53351">
        <ele>91.3</ele>
        <time>2019-07-11T11:10:29Z</time>
      </trkpt>
      <trkpt lat="48.75706" lon="-3.53346">
        <ele>91.3</ele>
        <time>2019-07-11T11:10:30Z</time>
      </trkpt>
      <trkpt lat="48.75707" lon="-3.53341">
        <ele>91.3</ele>
        <time>2019-07-11T11:10:31Z</time>
      </trkpt>
      <trkpt lat="48.75708" lon="-3.53337">
        <ele>91.2</ele>
        <time>2019-07-11T11:10:32Z</time>
      </trkpt>
      <trkpt lat="48.75708" lon="-3.53333">
        <ele>91.6</ele>
        <time>2019-07-11T11:10:33Z</time>
      </trkpt>
      <trkpt lat="48.7571" lon="-3.5333">
        <ele>92.1</ele>
        <time>2019-07-11T11:10:34Z</time>
      </trkpt>
      <trkpt lat="48.75713" lon="-3.53325">
        <ele>91.8</ele>
        <time>2019-07-11T11:10:35Z</time>
      </trkpt>
      <trkpt lat="48.75715" lon="-3.5332">
        <ele>91.8</ele>
        <time>2019-07-11T11:10:36Z</time>
      </trkpt>
      <trkpt lat="48.75716" lon="-3.53317">
        <ele>91.8</ele>
        <time>2019-07-11T11:10:37Z</time>
      </trkpt>
      <trkpt lat="48.75718" lon="-3.53314">
        <ele>91.9</ele>
        <time>2019-07-11T11:10:38Z</time>
      </trkpt>
      <trkpt lat="48.7572" lon="-3.53312">
        <ele>92</ele>
        <time>2019-07-11T11:10:39Z</time>
      </trkpt>
      <trkpt lat="48.75722" lon="-3.53309">
        <ele>92.2</ele>
        <time>2019-07-11T11:10:40Z</time>
      </trkpt>
      <trkpt lat="48.75724" lon="-3.53307">
        <ele>92.3</ele>
        <time>2019-07-11T11:10:41Z</time>
      </trkpt>
      <trkpt lat="48.75727" lon="-3.53305">
        <ele>92.9</ele>
        <time>2019-07-11T11:10:42Z</time>
      </trkpt>
      <trkpt lat="48.7573" lon="-3.53303">
        <ele>93.3</ele>
        <time>2019-07-11T11:10:43Z</time>
      </trkpt>
      <trkpt lat="48.75732" lon="-3.53302">
        <ele>93.2</ele>
        <time>2019-07-11T11:10:44Z</time>
      </trkpt>
      <trkpt lat="48.75735" lon="-3.533">
        <ele>93.2</ele>
        <time>2019-07-11T11:10:45Z</time>
      </trkpt>
      <trkpt lat="48.75737" lon="-3.53298">
        <ele>92.9</ele>
        <time>2019-07-11T11:10:46Z</time>
      </trkpt>
      <trkpt lat="48.75741" lon="-3.53295">
        <ele>92.6</ele>
        <time>2019-07-11T11:10:47Z</time>
      </trkpt>
      <trkpt lat="48.75744" lon="-3.53292">
        <ele>92.8</ele>
        <time>2019-07-11T11:10:48Z</time>
      </trkpt>
      <trkpt lat="48.75746" lon="-3.53289">
        <ele>92.4</ele>
        <time>2019-07-11T11:10:49Z</time>
      </trkpt>
      <trkpt lat="48.75749" lon="-3.53286">
        <ele>91.9</ele>
        <time>2019-07-11T11:10:50Z</time>
      </trkpt>
      <trkpt lat="48.75751" lon="-3.53284">
        <ele>92.1</ele>
        <time>2019-07-11T11:10:51Z</time>
      </trkpt>
      <trkpt lat="48.75754" lon="-3.53282">
        <ele>92.7</ele>
        <time>2019-07-11T11:10:52Z</time>
      </trkpt>
      <trkpt lat="48.75756" lon="-3.5328">
        <ele>93.1</ele>
        <time>2019-07-11T11:10:53Z</time>
      </trkpt>
      <trkpt lat="48.75758" lon="-3.53278">
        <ele>93.4</ele>
        <time>2019-07-11T11:10:54Z</time>
      </trkpt>
      <trkpt lat="48.75761" lon="-3.53276">
        <ele>93.8</ele>
        <time>2019-07-11T11:10:55Z</time>
      </trkpt>
      <trkpt lat="48.75762" lon="-3.53273">
        <ele>93.8</ele>
        <time>2019-07-11T11:10:56Z</time>
      </trkpt>
      <trkpt lat="48.75764" lon="-3.53271">
        <ele>94.3</ele>
        <time>2019-07-11T11:10:57Z</time>
      </trkpt>
      <trkpt lat="48.75765" lon="-3.53268">
        <ele>94.7</ele>
        <time>2019-07-11T11:10:58Z</time>
      </trkpt>
      <trkpt lat="48.75766" lon="-3.53265">
        <ele>95.2</ele>
        <time>2019-07-11T11:10:59Z</time>
      </trkpt>
      <trkpt lat="48.75766" lon="-3.53264">
        <ele>95.9</ele>
        <time>2019-07-11T11:11:00Z</time>
      </trkpt>
      <trkpt lat="48.75767" lon="-3.53262">
        <ele>96.7</ele>
        <time>2019-07-11T11:11:01Z</time>
      </trkpt>
      <trkpt lat="48.75768" lon="-3.53258">
        <ele>95.4</ele>
        <time>2019-07-11T11:11:02Z</time>
      </trkpt>
      <trkpt lat="48.75769" lon="-3.53255">
        <ele>94.9</ele>
        <time>2019-07-11T11:11:03Z</time>
      </trkpt>
      <trkpt lat="48.7577" lon="-3.53252">
        <ele>94.3</ele>
        <time>2019-07-11T11:11:04Z</time>
      </trkpt>
      <trkpt lat="48.75771" lon="-3.53249">
        <ele>93.8</ele>
        <time>2019-07-11T11:11:05Z</time>
      </trkpt>
      <trkpt lat="48.75771" lon="-3.53246">
        <ele>94.3</ele>
        <time>2019-07-11T11:11:06Z</time>
      </trkpt>
      <trkpt lat="48.75771" lon="-3.53243">
        <ele>94.4</ele>
        <time>2019-07-11T11:11:07Z</time>
      </trkpt>
      <trkpt lat="48.75771" lon="-3.5324">
        <ele>94.6</ele>
        <time>2019-07-11T11:11:08Z</time>
      </trkpt>
      <trkpt lat="48.75771" lon="-3.53237">
        <ele>94.8</ele>
        <time>2019-07-11T11:11:09Z</time>
      </trkpt>
      <trkpt lat="48.75772" lon="-3.53233">
        <ele>94.6</ele>
        <time>2019-07-11T11:11:10Z</time>
      </trkpt>
      <trkpt lat="48.75772" lon="-3.53229">
        <ele>94.4</ele>
        <time>2019-07-11T11:11:11Z</time>
      </trkpt>
      <trkpt lat="48.75772" lon="-3.53226">
        <ele>94.3</ele>
        <time>2019-07-11T11:11:12Z</time>
      </trkpt>
      <trkpt lat="48.75773" lon="-3.53223">
        <ele>94.3</ele>
        <time>2019-07-11T11:11:13Z</time>
      </trkpt>
      <trkpt lat="48.75773" lon="-3.5322">
        <ele>94.6</ele>
        <time>2019-07-11T11:11:14Z</time>
      </trkpt>
      <trkpt lat="48.75774" lon="-3.53217">
        <ele>94.5</ele>
        <time>2019-07-11T11:11:15Z</time>
      </trkpt>
      <trkpt lat="48.75774" lon="-3.53214">
        <ele>94.6</ele>
        <time>2019-07-11T11:11:16Z</time>
      </trkpt>
      <trkpt lat="48.75775" lon="-3.53212">
        <ele>94.8</ele>
        <time>2019-07-11T11:11:17Z</time>
      </trkpt>
      <trkpt lat="48.75775" lon="-3.5321">
        <ele>95.1</ele>
        <time>2019-07-11T11:11:18Z</time>
      </trkpt>
      <trkpt lat="48.75775" lon="-3.53206">
        <ele>95.1</ele>
        <time>2019-07-11T11:11:19Z</time>
      </trkpt>
      <trkpt lat="48.75774" lon="-3.53203">
        <ele>95.2</ele>
        <time>2019-07-11T11:11:20Z</time>
      </trkpt>
      <trkpt lat="48.75774" lon="-3.532">
        <ele>95.4</ele>
        <time>2019-07-11T11:11:21Z</time>
      </trkpt>
      <trkpt lat="48.75774" lon="-3.53197">
        <ele>95.4</ele>
        <time>2019-07-11T11:11:22Z</time>
      </trkpt>
      <trkpt lat="48.75774" lon="-3.53194">
        <ele>95.4</ele>
        <time>2019-07-11T11:11:23Z</time>
      </trkpt>
      <trkpt lat="48.75774" lon="-3.5319">
        <ele>95.3</ele>
        <time>2019-07-11T11:11:24Z</time>
      </trkpt>
      <trkpt lat="48.75774" lon="-3.53187">
        <ele>95.3</ele>
        <time>2019-07-11T11:11:25Z</time>
      </trkpt>
      <trkpt lat="48.75774" lon="-3.53183">
        <ele>95.4</ele>
        <time>2019-07-11T11:11:26Z</time>
      </trkpt>
      <trkpt lat="48.75774" lon="-3.53179">
        <ele>95.2</ele>
        <time>2019-07-11T11:11:27Z</time>
      </trkpt>
      <trkpt lat="48.75773" lon="-3.53176">
        <ele>95.2</ele>
        <time>2019-07-11T11:11:28Z</time>
      </trkpt>
      <trkpt lat="48.75773" lon="-3.53173">
        <ele>95.3</ele>
        <time>2019-07-11T11:11:29Z</time>
      </trkpt>
      <trkpt lat="48.75773" lon="-3.5317">
        <ele>95.1</ele>
        <time>2019-07-11T11:11:30Z</time>
      </trkpt>
      <trkpt lat="48.75772" lon="-3.53167">
        <ele>95.1</ele>
        <time>2019-07-11T11:11:31Z</time>
      </trkpt>
      <trkpt lat="48.75772" lon="-3.53164">
        <ele>95.3</ele>
        <time>2019-07-11T11:11:32Z</time>
      </trkpt>
      <trkpt lat="48.75772" lon="-3.53161">
        <ele>95.4</ele>
        <time>2019-07-11T11:11:33Z</time>
      </trkpt>
      <trkpt lat="48.75773" lon="-3.53158">
        <ele>95.4</ele>
        <time>2019-07-11T11:11:34Z</time>
      </trkpt>
      <trkpt lat="48.75772" lon="-3.53154">
        <ele>95.1</ele>
        <time>2019-07-11T11:11:35Z</time>
      </trkpt>
      <trkpt lat="48.75772" lon="-3.53151">
        <ele>95.2</ele>
        <time>2019-07-11T11:11:36Z</time>
      </trkpt>
      <trkpt lat="48.75771" lon="-3.53147">
        <ele>95.1</ele>
        <time>2019-07-11T11:11:37Z</time>
      </trkpt>
      <trkpt lat="48.7577" lon="-3.53144">
        <ele>94.8</ele>
        <time>2019-07-11T11:11:38Z</time>
      </trkpt>
      <trkpt lat="48.75769" lon="-3.53141">
        <ele>94.7</ele>
        <time>2019-07-11T11:11:39Z</time>
      </trkpt>
      <trkpt lat="48.75769" lon="-3.53138">
        <ele>94.6</ele>
        <time>2019-07-11T11:11:40Z</time>
      </trkpt>
      <trkpt lat="48.75769" lon="-3.53134">
        <ele>94.4</ele>
        <time>2019-07-11T11:11:41Z</time>
      </trkpt>
      <trkpt lat="48.75769" lon="-3.53131">
        <ele>94.6</ele>
        <time>2019-07-11T11:11:42Z</time>
      </trkpt>
      <trkpt lat="48.75768" lon="-3.53129">
        <ele>95.2</ele>
        <time>2019-07-11T11:11:43Z</time>
      </trkpt>
      <trkpt lat="48.75768" lon="-3.53126">
        <ele>95</ele>
        <time>2019-07-11T11:11:44Z</time>
      </trkpt>
      <trkpt lat="48.75768" lon="-3.53123">
        <ele>95.4</ele>
        <time>2019-07-11T11:11:45Z</time>
      </trkpt>
      <trkpt lat="48.75768" lon="-3.5312">
        <ele>95.5</ele>
        <time>2019-07-11T11:11:46Z</time>
      </trkpt>
      <trkpt lat="48.75768" lon="-3.53118">
        <ele>95.5</ele>
        <time>2019-07-11T11:11:47Z</time>
      </trkpt>
      <trkpt lat="48.75768" lon="-3.53115">
        <ele>95.7</ele>
        <time>2019-07-11T11:11:48Z</time>
      </trkpt>
      <trkpt lat="48.75767" lon="-3.53112">
        <ele>95.9</ele>
        <time>2019-07-11T11:11:49Z</time>
      </trkpt>
      <trkpt lat="48.75767" lon="-3.53109">
        <ele>96.2</ele>
        <time>2019-07-11T11:11:50Z</time>
      </trkpt>
      <trkpt lat="48.75767" lon="-3.53106">
        <ele>96.6</ele>
        <time>2019-07-11T11:11:51Z</time>
      </trkpt>
      <trkpt lat="48.75768" lon="-3.53103">
        <ele>96.6</ele>
        <time>2019-07-11T11:11:52Z</time>
      </trkpt>
      <trkpt lat="48.75768" lon="-3.53101">
        <ele>97</ele>
        <time>2019-07-11T11:11:53Z</time>
      </trkpt>
      <trkpt lat="48.75768" lon="-3.53097">
        <ele>97.2</ele>
        <time>2019-07-11T11:11:54Z</time>
      </trkpt>
      <trkpt lat="48.75769" lon="-3.53093">
        <ele>97.4</ele>
        <time>2019-07-11T11:11:55Z</time>
      </trkpt>
      <trkpt lat="48.75769" lon="-3.53089">
        <ele>97.4</ele>
        <time>2019-07-11T11:11:56Z</time>
      </trkpt>
      <trkpt lat="48.7577" lon="-3.53085">
        <ele>97.6</ele>
        <time>2019-07-11T11:11:57Z</time>
      </trkpt>
      <trkpt lat="48.7577" lon="-3.53081">
        <ele>97.8</ele>
        <time>2019-07-11T11:11:58Z</time>
      </trkpt>
      <trkpt lat="48.7577" lon="-3.53078">
        <ele>97.8</ele>
        <time>2019-07-11T11:11:59Z</time>
      </trkpt>
      <trkpt lat="48.7577" lon="-3.53075">
        <ele>97.7</ele>
        <time>2019-07-11T11:12:00Z</time>
      </trkpt>
      <trkpt lat="48.75769" lon="-3.53073">
        <ele>97.7</ele>
        <time>2019-07-11T11:12:01Z</time>
      </trkpt>
      <trkpt lat="48.75769" lon="-3.5307">
        <ele>97.9</ele>
        <time>2019-07-11T11:12:02Z</time>
      </trkpt>
      <trkpt lat="48.75768" lon="-3.53068">
        <ele>98.3</ele>
        <time>2019-07-11T11:12:03Z</time>
      </trkpt>
      <trkpt lat="48.75766" lon="-3.53067">
        <ele>97.9</ele>
        <time>2019-07-11T11:12:04Z</time>
      </trkpt>
      <trkpt lat="48.75764" lon="-3.53067">
        <ele>98</ele>
        <time>2019-07-11T11:12:05Z</time>
      </trkpt>
      <trkpt lat="48.75763" lon="-3.53068">
        <ele>97.7</ele>
        <time>2019-07-11T11:12:06Z</time>
      </trkpt>
      <trkpt lat="48.75761" lon="-3.53068">
        <ele>97.8</ele>
        <time>2019-07-11T11:12:07Z</time>
      </trkpt>
      <trkpt lat="48.75759" lon="-3.53069">
        <ele>98</ele>
        <time>2019-07-11T11:12:08Z</time>
      </trkpt>
      <trkpt lat="48.75757" lon="-3.5307">
        <ele>98.3</ele>
        <time>2019-07-11T11:12:09Z</time>
      </trkpt>
      <trkpt lat="48.75754" lon="-3.53071">
        <ele>98.3</ele>
        <time>2019-07-11T11:12:10Z</time>
      </trkpt>
      <trkpt lat="48.75752" lon="-3.53072">
        <ele>98.5</ele>
        <time>2019-07-11T11:12:11Z</time>
      </trkpt>
      <trkpt lat="48.7575" lon="-3.53073">
        <ele>98.7</ele>
        <time>2019-07-11T11:12:12Z</time>
      </trkpt>
      <trkpt lat="48.75748" lon="-3.53073">
        <ele>98.7</ele>
        <time>2019-07-11T11:12:13Z</time>
      </trkpt>
      <trkpt lat="48.75746" lon="-3.53075">
        <ele>98.9</ele>
        <time>2019-07-11T11:12:14Z</time>
      </trkpt>
      <trkpt lat="48.75744" lon="-3.53076">
        <ele>99.1</ele>
        <time>2019-07-11T11:12:15Z</time>
      </trkpt>
      <trkpt lat="48.75741" lon="-3.53077">
        <ele>99.3</ele>
        <time>2019-07-11T11:12:16Z</time>
      </trkpt>
      <trkpt lat="48.75739" lon="-3.53078">
        <ele>99.7</ele>
        <time>2019-07-11T11:12:17Z</time>
      </trkpt>
      <trkpt lat="48.75737" lon="-3.53079">
        <ele>100</ele>
        <time>2019-07-11T11:12:18Z</time>
      </trkpt>
      <trkpt lat="48.75735" lon="-3.53079">
        <ele>100.3</ele>
        <time>2019-07-11T11:12:19Z</time>
      </trkpt>
      <trkpt lat="48.75733" lon="-3.5308">
        <ele>100.6</ele>
        <time>2019-07-11T11:12:20Z</time>
      </trkpt>
      <trkpt lat="48.75731" lon="-3.5308">
        <ele>100.8</ele>
        <time>2019-07-11T11:12:21Z</time>
      </trkpt>
      <trkpt lat="48.75729" lon="-3.5308">
        <ele>101</ele>
        <time>2019-07-11T11:12:22Z</time>
      </trkpt>
      <trkpt lat="48.75726" lon="-3.5308">
        <ele>101.1</ele>
        <time>2019-07-11T11:12:23Z</time>
      </trkpt>
      <trkpt lat="48.75724" lon="-3.53081">
        <ele>101.1</ele>
        <time>2019-07-11T11:12:24Z</time>
      </trkpt>
      <trkpt lat="48.75722" lon="-3.53082">
        <ele>101.2</ele>
        <time>2019-07-11T11:12:25Z</time>
      </trkpt>
      <trkpt lat="48.7572" lon="-3.53084">
        <ele>101.1</ele>
        <time>2019-07-11T11:12:26Z</time>
      </trkpt>
      <trkpt lat="48.75717" lon="-3.53085">
        <ele>101.2</ele>
        <time>2019-07-11T11:12:27Z</time>
      </trkpt>
      <trkpt lat="48.75715" lon="-3.53087">
        <ele>101.1</ele>
        <time>2019-07-11T11:12:28Z</time>
      </trkpt>
      <trkpt lat="48.75712" lon="-3.53088">
        <ele>101.2</ele>
        <time>2019-07-11T11:12:29Z</time>
      </trkpt>
      <trkpt lat="48.7571" lon="-3.5309">
        <ele>101</ele>
        <time>2019-07-11T11:12:30Z</time>
      </trkpt>
      <trkpt lat="48.75707" lon="-3.53091">
        <ele>100.6</ele>
        <time>2019-07-11T11:12:31Z</time>
      </trkpt>
      <trkpt lat="48.75704" lon="-3.53092">
        <ele>100.6</ele>
        <time>2019-07-11T11:12:32Z</time>
      </trkpt>
      <trkpt lat="48.75702" lon="-3.53094">
        <ele>100.3</ele>
        <time>2019-07-11T11:12:33Z</time>
      </trkpt>
      <trkpt lat="48.75699" lon="-3.53095">
        <ele>100.5</ele>
        <time>2019-07-11T11:12:34Z</time>
      </trkpt>
      <trkpt lat="48.75697" lon="-3.53096">
        <ele>100.6</ele>
        <time>2019-07-11T11:12:35Z</time>
      </trkpt>
      <trkpt lat="48.75694" lon="-3.53098">
        <ele>100.5</ele>
        <time>2019-07-11T11:12:36Z</time>
      </trkpt>
      <trkpt lat="48.75691" lon="-3.53099">
        <ele>100.7</ele>
        <time>2019-07-11T11:12:37Z</time>
      </trkpt>
      <trkpt lat="48.75687" lon="-3.531">
        <ele>101.3</ele>
        <time>2019-07-11T11:12:38Z</time>
      </trkpt>
      <trkpt lat="48.75684" lon="-3.53101">
        <ele>101.7</ele>
        <time>2019-07-11T11:12:39Z</time>
      </trkpt>
      <trkpt lat="48.75681" lon="-3.53102">
        <ele>102.1</ele>
        <time>2019-07-11T11:12:40Z</time>
      </trkpt>
      <trkpt lat="48.75679" lon="-3.53103">
        <ele>102.3</ele>
        <time>2019-07-11T11:12:41Z</time>
      </trkpt>
      <trkpt lat="48.75677" lon="-3.53103">
        <ele>102.8</ele>
        <time>2019-07-11T11:12:42Z</time>
      </trkpt>
      <trkpt lat="48.75674" lon="-3.53104">
        <ele>102.8</ele>
        <time>2019-07-11T11:12:43Z</time>
      </trkpt>
      <trkpt lat="48.75672" lon="-3.53103">
        <ele>102.7</ele>
        <time>2019-07-11T11:12:44Z</time>
      </trkpt>
      <trkpt lat="48.7567" lon="-3.53101">
        <ele>102.1</ele>
        <time>2019-07-11T11:12:45Z</time>
      </trkpt>
      <trkpt lat="48.75667" lon="-3.53099">
        <ele>101.6</ele>
        <time>2019-07-11T11:12:46Z</time>
      </trkpt>
      <trkpt lat="48.75665" lon="-3.53096">
        <ele>101.3</ele>
        <time>2019-07-11T11:12:47Z</time>
      </trkpt>
      <trkpt lat="48.75664" lon="-3.53093">
        <ele>101</ele>
        <time>2019-07-11T11:12:48Z</time>
      </trkpt>
      <trkpt lat="48.75663" lon="-3.5309">
        <ele>100.9</ele>
        <time>2019-07-11T11:12:49Z</time>
      </trkpt>
      <trkpt lat="48.75662" lon="-3.53087">
        <ele>101.2</ele>
        <time>2019-07-11T11:12:50Z</time>
      </trkpt>
      <trkpt lat="48.7566" lon="-3.53083">
        <ele>101.3</ele>
        <time>2019-07-11T11:12:51Z</time>
      </trkpt>
      <trkpt lat="48.75658" lon="-3.53079">
        <ele>101.6</ele>
        <time>2019-07-11T11:12:52Z</time>
      </trkpt>
      <trkpt lat="48.75657" lon="-3.53076">
        <ele>101.9</ele>
        <time>2019-07-11T11:12:53Z</time>
      </trkpt>
      <trkpt lat="48.75656" lon="-3.53073">
        <ele>102.2</ele>
        <time>2019-07-11T11:12:54Z</time>
      </trkpt>
      <trkpt lat="48.75654" lon="-3.5307">
        <ele>102.5</ele>
        <time>2019-07-11T11:12:55Z</time>
      </trkpt>
      <trkpt lat="48.75652" lon="-3.53067">
        <ele>102.7</ele>
        <time>2019-07-11T11:12:56Z</time>
      </trkpt>
      <trkpt lat="48.75651" lon="-3.53063">
        <ele>103</ele>
        <time>2019-07-11T11:12:57Z</time>
      </trkpt>
      <trkpt lat="48.7565" lon="-3.53059">
        <ele>103.2</ele>
        <time>2019-07-11T11:12:58Z</time>
      </trkpt>
      <trkpt lat="48.75649" lon="-3.53056">
        <ele>103.4</ele>
        <time>2019-07-11T11:12:59Z</time>
      </trkpt>
      <trkpt lat="48.75647" lon="-3.53052">
        <ele>103.3</ele>
        <time>2019-07-11T11:13:00Z</time>
      </trkpt>
      <trkpt lat="48.75646" lon="-3.53047">
        <ele>103.2</ele>
        <time>2019-07-11T11:13:01Z</time>
      </trkpt>
      <trkpt lat="48.75644" lon="-3.53043">
        <ele>103.3</ele>
        <time>2019-07-11T11:13:02Z</time>
      </trkpt>
      <trkpt lat="48.75642" lon="-3.53039">
        <ele>103</ele>
        <time>2019-07-11T11:13:03Z</time>
      </trkpt>
      <trkpt lat="48.75639" lon="-3.53034">
        <ele>103.3</ele>
        <time>2019-07-11T11:13:04Z</time>
      </trkpt>
      <trkpt lat="48.75638" lon="-3.5303">
        <ele>103.3</ele>
        <time>2019-07-11T11:13:05Z</time>
      </trkpt>
      <trkpt lat="48.75636" lon="-3.53026">
        <ele>103.4</ele>
        <time>2019-07-11T11:13:06Z</time>
      </trkpt>
      <trkpt lat="48.75635" lon="-3.5302">
        <ele>102.3</ele>
        <time>2019-07-11T11:13:07Z</time>
      </trkpt>
      <trkpt lat="48.75633" lon="-3.53014">
        <ele>101.2</ele>
        <time>2019-07-11T11:13:08Z</time>
      </trkpt>
      <trkpt lat="48.75631" lon="-3.53011">
        <ele>100.9</ele>
        <time>2019-07-11T11:13:09Z</time>
      </trkpt>
      <trkpt lat="48.75628" lon="-3.5301">
        <ele>101.3</ele>
        <time>2019-07-11T11:13:10Z</time>
      </trkpt>
      <trkpt lat="48.75624" lon="-3.53008">
        <ele>100.7</ele>
        <time>2019-07-11T11:13:11Z</time>
      </trkpt>
      <trkpt lat="48.7562" lon="-3.53008">
        <ele>100.4</ele>
        <time>2019-07-11T11:13:12Z</time>
      </trkpt>
      <trkpt lat="48.75617" lon="-3.53007">
        <ele>100.4</ele>
        <time>2019-07-11T11:13:13Z</time>
      </trkpt>
      <trkpt lat="48.75614" lon="-3.53007">
        <ele>100.9</ele>
        <time>2019-07-11T11:13:14Z</time>
      </trkpt>
      <trkpt lat="48.75612" lon="-3.53006">
        <ele>101.5</ele>
        <time>2019-07-11T11:13:15Z</time>
      </trkpt>
      <trkpt lat="48.75609" lon="-3.53006">
        <ele>102.1</ele>
        <time>2019-07-11T11:13:16Z</time>
      </trkpt>
      <trkpt lat="48.75605" lon="-3.53004">
        <ele>102.4</ele>
        <time>2019-07-11T11:13:17Z</time>
      </trkpt>
      <trkpt lat="48.75602" lon="-3.53003">
        <ele>102.6</ele>
        <time>2019-07-11T11:13:18Z</time>
      </trkpt>
      <trkpt lat="48.75599" lon="-3.53002">
        <ele>102.9</ele>
        <time>2019-07-11T11:13:19Z</time>
      </trkpt>
      <trkpt lat="48.75597" lon="-3.53002">
        <ele>103.3</ele>
        <time>2019-07-11T11:13:20Z</time>
      </trkpt>
      <trkpt lat="48.75594" lon="-3.53001">
        <ele>103.7</ele>
        <time>2019-07-11T11:13:21Z</time>
      </trkpt>
      <trkpt lat="48.75591" lon="-3.53">
        <ele>104.1</ele>
        <time>2019-07-11T11:13:22Z</time>
      </trkpt>
      <trkpt lat="48.75588" lon="-3.52999">
        <ele>104.6</ele>
        <time>2019-07-11T11:13:23Z</time>
      </trkpt>
      <trkpt lat="48.75586" lon="-3.52997">
        <ele>105.1</ele>
        <time>2019-07-11T11:13:24Z</time>
      </trkpt>
      <trkpt lat="48.75583" lon="-3.52995">
        <ele>105.6</ele>
        <time>2019-07-11T11:13:25Z</time>
      </trkpt>
      <trkpt lat="48.7558" lon="-3.52993">
        <ele>106.5</ele>
        <time>2019-07-11T11:13:26Z</time>
      </trkpt>
      <trkpt lat="48.75578" lon="-3.52991">
        <ele>107.3</ele>
        <time>2019-07-11T11:13:27Z</time>
      </trkpt>
      <trkpt lat="48.75575" lon="-3.5299">
        <ele>108.2</ele>
        <time>2019-07-11T11:13:28Z</time>
      </trkpt>
      <trkpt lat="48.75571" lon="-3.5299">
        <ele>108.9</ele>
        <time>2019-07-11T11:13:29Z</time>
      </trkpt>
      <trkpt lat="48.75568" lon="-3.52989">
        <ele>109.1</ele>
        <time>2019-07-11T11:13:30Z</time>
      </trkpt>
      <trkpt lat="48.75563" lon="-3.52988">
        <ele>108.4</ele>
        <time>2019-07-11T11:13:31Z</time>
      </trkpt>
      <trkpt lat="48.75559" lon="-3.52986">
        <ele>107.5</ele>
        <time>2019-07-11T11:13:32Z</time>
      </trkpt>
      <trkpt lat="48.75555" lon="-3.52986">
        <ele>106.7</ele>
        <time>2019-07-11T11:13:33Z</time>
      </trkpt>
      <trkpt lat="48.75552" lon="-3.52985">
        <ele>106</ele>
        <time>2019-07-11T11:13:34Z</time>
      </trkpt>
      <trkpt lat="48.75548" lon="-3.52984">
        <ele>105.6</ele>
        <time>2019-07-11T11:13:35Z</time>
      </trkpt>
      <trkpt lat="48.75545" lon="-3.52983">
        <ele>105.1</ele>
        <time>2019-07-11T11:13:36Z</time>
      </trkpt>
      <trkpt lat="48.75541" lon="-3.52982">
        <ele>104.1</ele>
        <time>2019-07-11T11:13:37Z</time>
      </trkpt>
      <trkpt lat="48.75538" lon="-3.52982">
        <ele>103.7</ele>
        <time>2019-07-11T11:13:38Z</time>
      </trkpt>
      <trkpt lat="48.75535" lon="-3.52981">
        <ele>103.4</ele>
        <time>2019-07-11T11:13:39Z</time>
      </trkpt>
      <trkpt lat="48.75532" lon="-3.52981">
        <ele>103.5</ele>
        <time>2019-07-11T11:13:40Z</time>
      </trkpt>
      <trkpt lat="48.7553" lon="-3.52981">
        <ele>104</ele>
        <time>2019-07-11T11:13:41Z</time>
      </trkpt>
      <trkpt lat="48.75526" lon="-3.5298">
        <ele>104.5</ele>
        <time>2019-07-11T11:13:42Z</time>
      </trkpt>
      <trkpt lat="48.75523" lon="-3.52978">
        <ele>105.3</ele>
        <time>2019-07-11T11:13:43Z</time>
      </trkpt>
      <trkpt lat="48.7552" lon="-3.52976">
        <ele>106.4</ele>
        <time>2019-07-11T11:13:44Z</time>
      </trkpt>
      <trkpt lat="48.75517" lon="-3.52975">
        <ele>107.5</ele>
        <time>2019-07-11T11:13:45Z</time>
      </trkpt>
      <trkpt lat="48.75513" lon="-3.52974">
        <ele>108.6</ele>
        <time>2019-07-11T11:13:46Z</time>
      </trkpt>
      <trkpt lat="48.75509" lon="-3.52973">
        <ele>109.9</ele>
        <time>2019-07-11T11:13:47Z</time>
      </trkpt>
      <trkpt lat="48.75506" lon="-3.52972">
        <ele>111.1</ele>
        <time>2019-07-11T11:13:48Z</time>
      </trkpt>
      <trkpt lat="48.75503" lon="-3.52971">
        <ele>112.3</ele>
        <time>2019-07-11T11:13:49Z</time>
      </trkpt>
      <trkpt lat="48.75501" lon="-3.52969">
        <ele>113.2</ele>
        <time>2019-07-11T11:13:50Z</time>
      </trkpt>
      <trkpt lat="48.75498" lon="-3.52968">
        <ele>114</ele>
        <time>2019-07-11T11:13:51Z</time>
      </trkpt>
      <trkpt lat="48.75496" lon="-3.52967">
        <ele>114.8</ele>
        <time>2019-07-11T11:13:52Z</time>
      </trkpt>
      <trkpt lat="48.75493" lon="-3.52966">
        <ele>115.9</ele>
        <time>2019-07-11T11:13:53Z</time>
      </trkpt>
      <trkpt lat="48.75491" lon="-3.52966">
        <ele>116.7</ele>
        <time>2019-07-11T11:13:54Z</time>
      </trkpt>
      <trkpt lat="48.75489" lon="-3.52967">
        <ele>117.8</ele>
        <time>2019-07-11T11:13:55Z</time>
      </trkpt>
      <trkpt lat="48.75486" lon="-3.52967">
        <ele>117.9</ele>
        <time>2019-07-11T11:13:56Z</time>
      </trkpt>
      <trkpt lat="48.75482" lon="-3.52967">
        <ele>117.6</ele>
        <time>2019-07-11T11:13:57Z</time>
      </trkpt>
      <trkpt lat="48.75477" lon="-3.52968">
        <ele>116.7</ele>
        <time>2019-07-11T11:13:58Z</time>
      </trkpt>
      <trkpt lat="48.75473" lon="-3.52967">
        <ele>115.3</ele>
        <time>2019-07-11T11:13:59Z</time>
      </trkpt>
      <trkpt lat="48.7547" lon="-3.52965">
        <ele>114</ele>
        <time>2019-07-11T11:14:00Z</time>
      </trkpt>
      <trkpt lat="48.75468" lon="-3.52962">
        <ele>113.3</ele>
        <time>2019-07-11T11:14:01Z</time>
      </trkpt>
      <trkpt lat="48.75467" lon="-3.52959">
        <ele>112.9</ele>
        <time>2019-07-11T11:14:02Z</time>
      </trkpt>
      <trkpt lat="48.75465" lon="-3.52955">
        <ele>112.1</ele>
        <time>2019-07-11T11:14:03Z</time>
      </trkpt>
      <trkpt lat="48.75464" lon="-3.52951">
        <ele>111.2</ele>
        <time>2019-07-11T11:14:04Z</time>
      </trkpt>
      <trkpt lat="48.75463" lon="-3.52945">
        <ele>110.3</ele>
        <time>2019-07-11T11:14:05Z</time>
      </trkpt>
      <trkpt lat="48.75462" lon="-3.5294">
        <ele>109.5</ele>
        <time>2019-07-11T11:14:06Z</time>
      </trkpt>
      <trkpt lat="48.75462" lon="-3.52935">
        <ele>109.1</ele>
        <time>2019-07-11T11:14:07Z</time>
      </trkpt>
      <trkpt lat="48.75461" lon="-3.52931">
        <ele>108.6</ele>
        <time>2019-07-11T11:14:08Z</time>
      </trkpt>
      <trkpt lat="48.75462" lon="-3.52926">
        <ele>108.5</ele>
        <time>2019-07-11T11:14:09Z</time>
      </trkpt>
      <trkpt lat="48.75462" lon="-3.52921">
        <ele>108.3</ele>
        <time>2019-07-11T11:14:10Z</time>
      </trkpt>
      <trkpt lat="48.75461" lon="-3.52916">
        <ele>107.9</ele>
        <time>2019-07-11T11:14:11Z</time>
      </trkpt>
      <trkpt lat="48.75461" lon="-3.52912">
        <ele>107.7</ele>
        <time>2019-07-11T11:14:12Z</time>
      </trkpt>
      <trkpt lat="48.75462" lon="-3.52907">
        <ele>107.7</ele>
        <time>2019-07-11T11:14:13Z</time>
      </trkpt>
      <trkpt lat="48.75462" lon="-3.52902">
        <ele>107.8</ele>
        <time>2019-07-11T11:14:14Z</time>
      </trkpt>
      <trkpt lat="48.75462" lon="-3.52898">
        <ele>107.9</ele>
        <time>2019-07-11T11:14:15Z</time>
      </trkpt>
      <trkpt lat="48.75463" lon="-3.52893">
        <ele>107.8</ele>
        <time>2019-07-11T11:14:16Z</time>
      </trkpt>
      <trkpt lat="48.75462" lon="-3.52889">
        <ele>107.8</ele>
        <time>2019-07-11T11:14:17Z</time>
      </trkpt>
      <trkpt lat="48.75463" lon="-3.52884">
        <ele>107.8</ele>
        <time>2019-07-11T11:14:18Z</time>
      </trkpt>
      <trkpt lat="48.75463" lon="-3.52879">
        <ele>107.9</ele>
        <time>2019-07-11T11:14:19Z</time>
      </trkpt>
      <trkpt lat="48.75464" lon="-3.52875">
        <ele>107.9</ele>
        <time>2019-07-11T11:14:20Z</time>
      </trkpt>
      <trkpt lat="48.75465" lon="-3.52871">
        <ele>108.3</ele>
        <time>2019-07-11T11:14:21Z</time>
      </trkpt>
      <trkpt lat="48.75465" lon="-3.52865">
        <ele>108.5</ele>
        <time>2019-07-11T11:14:22Z</time>
      </trkpt>
      <trkpt lat="48.75465" lon="-3.5286">
        <ele>108.7</ele>
        <time>2019-07-11T11:14:23Z</time>
      </trkpt>
      <trkpt lat="48.75464" lon="-3.52855">
        <ele>108.7</ele>
        <time>2019-07-11T11:14:24Z</time>
      </trkpt>
      <trkpt lat="48.75463" lon="-3.5285">
        <ele>108.9</ele>
        <time>2019-07-11T11:14:25Z</time>
      </trkpt>
      <trkpt lat="48.75462" lon="-3.52844">
        <ele>108.6</ele>
        <time>2019-07-11T11:14:26Z</time>
      </trkpt>
      <trkpt lat="48.75462" lon="-3.52838">
        <ele>108.1</ele>
        <time>2019-07-11T11:14:27Z</time>
      </trkpt>
      <trkpt lat="48.75462" lon="-3.52832">
        <ele>107.8</ele>
        <time>2019-07-11T11:14:28Z</time>
      </trkpt>
      <trkpt lat="48.75461" lon="-3.52826">
        <ele>107.3</ele>
        <time>2019-07-11T11:14:29Z</time>
      </trkpt>
      <trkpt lat="48.75461" lon="-3.52821">
        <ele>107.3</ele>
        <time>2019-07-11T11:14:30Z</time>
      </trkpt>
      <trkpt lat="48.75462" lon="-3.52815">
        <ele>107</ele>
        <time>2019-07-11T11:14:31Z</time>
      </trkpt>
      <trkpt lat="48.75462" lon="-3.52809">
        <ele>107.1</ele>
        <time>2019-07-11T11:14:32Z</time>
      </trkpt>
      <trkpt lat="48.75463" lon="-3.52804">
        <ele>107.1</ele>
        <time>2019-07-11T11:14:33Z</time>
      </trkpt>
      <trkpt lat="48.75463" lon="-3.52799">
        <ele>107.1</ele>
        <time>2019-07-11T11:14:34Z</time>
      </trkpt>
      <trkpt lat="48.75464" lon="-3.52794">
        <ele>106.6</ele>
        <time>2019-07-11T11:14:35Z</time>
      </trkpt>
      <trkpt lat="48.75464" lon="-3.52789">
        <ele>106.7</ele>
        <time>2019-07-11T11:14:36Z</time>
      </trkpt>
      <trkpt lat="48.75464" lon="-3.52784">
        <ele>106.7</ele>
        <time>2019-07-11T11:14:37Z</time>
      </trkpt>
      <trkpt lat="48.75464" lon="-3.52778">
        <ele>106.6</ele>
        <time>2019-07-11T11:14:38Z</time>
      </trkpt>
      <trkpt lat="48.75465" lon="-3.52773">
        <ele>106.3</ele>
        <time>2019-07-11T11:14:39Z</time>
      </trkpt>
      <trkpt lat="48.75465" lon="-3.52768">
        <ele>105.9</ele>
        <time>2019-07-11T11:14:40Z</time>
      </trkpt>
      <trkpt lat="48.75465" lon="-3.52763">
        <ele>106</ele>
        <time>2019-07-11T11:14:41Z</time>
      </trkpt>
      <trkpt lat="48.75466" lon="-3.52757">
        <ele>106.1</ele>
        <time>2019-07-11T11:14:42Z</time>
      </trkpt>
      <trkpt lat="48.75466" lon="-3.52752">
        <ele>106</ele>
        <time>2019-07-11T11:14:43Z</time>
      </trkpt>
      <trkpt lat="48.75467" lon="-3.52747">
        <ele>106.4</ele>
        <time>2019-07-11T11:14:44Z</time>
      </trkpt>
      <trkpt lat="48.75467" lon="-3.52742">
        <ele>106.5</ele>
        <time>2019-07-11T11:14:45Z</time>
      </trkpt>
      <trkpt lat="48.75467" lon="-3.52736">
        <ele>106.6</ele>
        <time>2019-07-11T11:14:46Z</time>
      </trkpt>
      <trkpt lat="48.75467" lon="-3.52731">
        <ele>106.6</ele>
        <time>2019-07-11T11:14:47Z</time>
      </trkpt>
      <trkpt lat="48.75468" lon="-3.52726">
        <ele>106.4</ele>
        <time>2019-07-11T11:14:48Z</time>
      </trkpt>
      <trkpt lat="48.75468" lon="-3.5272">
        <ele>106.2</ele>
        <time>2019-07-11T11:14:49Z</time>
      </trkpt>
      <trkpt lat="48.75468" lon="-3.52715">
        <ele>106.3</ele>
        <time>2019-07-11T11:14:50Z</time>
      </trkpt>
      <trkpt lat="48.75468" lon="-3.52709">
        <ele>106.4</ele>
        <time>2019-07-11T11:14:51Z</time>
      </trkpt>
      <trkpt lat="48.75468" lon="-3.52704">
        <ele>106.5</ele>
        <time>2019-07-11T11:14:52Z</time>
      </trkpt>
      <trkpt lat="48.75468" lon="-3.527">
        <ele>106.8</ele>
        <time>2019-07-11T11:14:53Z</time>
      </trkpt>
      <trkpt lat="48.75468" lon="-3.52694">
        <ele>106.4</ele>
        <time>2019-07-11T11:14:54Z</time>
      </trkpt>
      <trkpt lat="48.75468" lon="-3.52689">
        <ele>105.6</ele>
        <time>2019-07-11T11:14:55Z</time>
      </trkpt>
      <trkpt lat="48.75468" lon="-3.52684">
        <ele>104.9</ele>
        <time>2019-07-11T11:14:56Z</time>
      </trkpt>
      <trkpt lat="48.75467" lon="-3.52678">
        <ele>105</ele>
        <time>2019-07-11T11:14:57Z</time>
      </trkpt>
      <trkpt lat="48.75467" lon="-3.52673">
        <ele>105</ele>
        <time>2019-07-11T11:14:58Z</time>
      </trkpt>
      <trkpt lat="48.75466" lon="-3.52668">
        <ele>105.3</ele>
        <time>2019-07-11T11:14:59Z</time>
      </trkpt>
      <trkpt lat="48.75465" lon="-3.52663">
        <ele>105.7</ele>
        <time>2019-07-11T11:15:00Z</time>
      </trkpt>
      <trkpt lat="48.75464" lon="-3.52658">
        <ele>105.9</ele>
        <time>2019-07-11T11:15:01Z</time>
      </trkpt>
      <trkpt lat="48.75462" lon="-3.52653">
        <ele>105.9</ele>
        <time>2019-07-11T11:15:02Z</time>
      </trkpt>
      <trkpt lat="48.7546" lon="-3.52648">
        <ele>105.6</ele>
        <time>2019-07-11T11:15:03Z</time>
      </trkpt>
      <trkpt lat="48.75457" lon="-3.52643">
        <ele>105.5</ele>
        <time>2019-07-11T11:15:04Z</time>
      </trkpt>
      <trkpt lat="48.75454" lon="-3.52639">
        <ele>105.3</ele>
        <time>2019-07-11T11:15:05Z</time>
      </trkpt>
      <trkpt lat="48.75451" lon="-3.52637">
        <ele>105.7</ele>
        <time>2019-07-11T11:15:06Z</time>
      </trkpt>
      <trkpt lat="48.75448" lon="-3.52634">
        <ele>105.5</ele>
        <time>2019-07-11T11:15:07Z</time>
      </trkpt>
      <trkpt lat="48.75444" lon="-3.52633">
        <ele>105.2</ele>
        <time>2019-07-11T11:15:08Z</time>
      </trkpt>
      <trkpt lat="48.75441" lon="-3.52631">
        <ele>104.9</ele>
        <time>2019-07-11T11:15:09Z</time>
      </trkpt>
      <trkpt lat="48.75436" lon="-3.52628">
        <ele>104.3</ele>
        <time>2019-07-11T11:15:10Z</time>
      </trkpt>
      <trkpt lat="48.75433" lon="-3.52626">
        <ele>104.2</ele>
        <time>2019-07-11T11:15:11Z</time>
      </trkpt>
      <trkpt lat="48.75429" lon="-3.52623">
        <ele>103.8</ele>
        <time>2019-07-11T11:15:12Z</time>
      </trkpt>
      <trkpt lat="48.75426" lon="-3.52621">
        <ele>103.5</ele>
        <time>2019-07-11T11:15:13Z</time>
      </trkpt>
      <trkpt lat="48.75422" lon="-3.52619">
        <ele>103.3</ele>
        <time>2019-07-11T11:15:14Z</time>
      </trkpt>
      <trkpt lat="48.75419" lon="-3.52616">
        <ele>103.1</ele>
        <time>2019-07-11T11:15:15Z</time>
      </trkpt>
      <trkpt lat="48.75415" lon="-3.52614">
        <ele>103.2</ele>
        <time>2019-07-11T11:15:16Z</time>
      </trkpt>
      <trkpt lat="48.75411" lon="-3.52612">
        <ele>103.1</ele>
        <time>2019-07-11T11:15:17Z</time>
      </trkpt>
      <trkpt lat="48.75407" lon="-3.5261">
        <ele>103.2</ele>
        <time>2019-07-11T11:15:18Z</time>
      </trkpt>
      <trkpt lat="48.75404" lon="-3.52607">
        <ele>103.5</ele>
        <time>2019-07-11T11:15:19Z</time>
      </trkpt>
      <trkpt lat="48.754" lon="-3.52605">
        <ele>103.6</ele>
        <time>2019-07-11T11:15:20Z</time>
      </trkpt>
      <trkpt lat="48.75397" lon="-3.52602">
        <ele>103.8</ele>
        <time>2019-07-11T11:15:21Z</time>
      </trkpt>
      <trkpt lat="48.75393" lon="-3.526">
        <ele>103.9</ele>
        <time>2019-07-11T11:15:22Z</time>
      </trkpt>
      <trkpt lat="48.7539" lon="-3.52597">
        <ele>104.2</ele>
        <time>2019-07-11T11:15:23Z</time>
      </trkpt>
      <trkpt lat="48.75386" lon="-3.52594">
        <ele>104.4</ele>
        <time>2019-07-11T11:15:24Z</time>
      </trkpt>
      <trkpt lat="48.75383" lon="-3.52592">
        <ele>104.8</ele>
        <time>2019-07-11T11:15:25Z</time>
      </trkpt>
      <trkpt lat="48.75378" lon="-3.5259">
        <ele>104.8</ele>
        <time>2019-07-11T11:15:26Z</time>
      </trkpt>
      <trkpt lat="48.75375" lon="-3.52588">
        <ele>104.7</ele>
        <time>2019-07-11T11:15:27Z</time>
      </trkpt>
      <trkpt lat="48.75371" lon="-3.52586">
        <ele>104.6</ele>
        <time>2019-07-11T11:15:28Z</time>
      </trkpt>
      <trkpt lat="48.75367" lon="-3.52584">
        <ele>104.6</ele>
        <time>2019-07-11T11:15:29Z</time>
      </trkpt>
      <trkpt lat="48.75364" lon="-3.52582">
        <ele>104.5</ele>
        <time>2019-07-11T11:15:30Z</time>
      </trkpt>
      <trkpt lat="48.7536" lon="-3.5258">
        <ele>104.5</ele>
        <time>2019-07-11T11:15:31Z</time>
      </trkpt>
      <trkpt lat="48.75357" lon="-3.52577">
        <ele>104.6</ele>
        <time>2019-07-11T11:15:32Z</time>
      </trkpt>
      <trkpt lat="48.75353" lon="-3.52575">
        <ele>104.9</ele>
        <time>2019-07-11T11:15:33Z</time>
      </trkpt>
      <trkpt lat="48.75349" lon="-3.52572">
        <ele>105</ele>
        <time>2019-07-11T11:15:34Z</time>
      </trkpt>
      <trkpt lat="48.75345" lon="-3.5257">
        <ele>105.3</ele>
        <time>2019-07-11T11:15:35Z</time>
      </trkpt>
      <trkpt lat="48.75341" lon="-3.52567">
        <ele>105.5</ele>
        <time>2019-07-11T11:15:36Z</time>
      </trkpt>
      <trkpt lat="48.75337" lon="-3.52564">
        <ele>105.6</ele>
        <time>2019-07-11T11:15:37Z</time>
      </trkpt>
      <trkpt lat="48.75332" lon="-3.52561">
        <ele>105.6</ele>
        <time>2019-07-11T11:15:38Z</time>
      </trkpt>
      <trkpt lat="48.75328" lon="-3.52558">
        <ele>105.8</ele>
        <time>2019-07-11T11:15:39Z</time>
      </trkpt>
      <trkpt lat="48.75324" lon="-3.52556">
        <ele>106.3</ele>
        <time>2019-07-11T11:15:40Z</time>
      </trkpt>
      <trkpt lat="48.7532" lon="-3.52553">
        <ele>106.9</ele>
        <time>2019-07-11T11:15:41Z</time>
      </trkpt>
      <trkpt lat="48.75316" lon="-3.52551">
        <ele>107.4</ele>
        <time>2019-07-11T11:15:42Z</time>
      </trkpt>
      <trkpt lat="48.75311" lon="-3.52549">
        <ele>107.4</ele>
        <time>2019-07-11T11:15:43Z</time>
      </trkpt>
      <trkpt lat="48.75307" lon="-3.52546">
        <ele>107.5</ele>
        <time>2019-07-11T11:15:44Z</time>
      </trkpt>
      <trkpt lat="48.75303" lon="-3.52543">
        <ele>108.1</ele>
        <time>2019-07-11T11:15:45Z</time>
      </trkpt>
      <trkpt lat="48.75299" lon="-3.52541">
        <ele>108.2</ele>
        <time>2019-07-11T11:15:46Z</time>
      </trkpt>
      <trkpt lat="48.75296" lon="-3.52538">
        <ele>108.7</ele>
        <time>2019-07-11T11:15:47Z</time>
      </trkpt>
      <trkpt lat="48.75291" lon="-3.52536">
        <ele>107.6</ele>
        <time>2019-07-11T11:15:48Z</time>
      </trkpt>
      <trkpt lat="48.75286" lon="-3.52534">
        <ele>105.7</ele>
        <time>2019-07-11T11:15:49Z</time>
      </trkpt>
      <trkpt lat="48.75281" lon="-3.52531">
        <ele>103.8</ele>
        <time>2019-07-11T11:15:50Z</time>
      </trkpt>
      <trkpt lat="48.75276" lon="-3.52527">
        <ele>103.3</ele>
        <time>2019-07-11T11:15:51Z</time>
      </trkpt>
      <trkpt lat="48.75272" lon="-3.52524">
        <ele>102.6</ele>
        <time>2019-07-11T11:15:52Z</time>
      </trkpt>
      <trkpt lat="48.75267" lon="-3.52521">
        <ele>101.8</ele>
        <time>2019-07-11T11:15:53Z</time>
      </trkpt>
      <trkpt lat="48.75263" lon="-3.52518">
        <ele>101.3</ele>
        <time>2019-07-11T11:15:54Z</time>
      </trkpt>
      <trkpt lat="48.75259" lon="-3.52515">
        <ele>100.8</ele>
        <time>2019-07-11T11:15:55Z</time>
      </trkpt>
      <trkpt lat="48.75255" lon="-3.52512">
        <ele>100.3</ele>
        <time>2019-07-11T11:15:56Z</time>
      </trkpt>
      <trkpt lat="48.75251" lon="-3.5251">
        <ele>99.9</ele>
        <time>2019-07-11T11:15:57Z</time>
      </trkpt>
      <trkpt lat="48.75247" lon="-3.52507">
        <ele>99.5</ele>
        <time>2019-07-11T11:15:58Z</time>
      </trkpt>
      <trkpt lat="48.75244" lon="-3.52504">
        <ele>99.4</ele>
        <time>2019-07-11T11:15:59Z</time>
      </trkpt>
      <trkpt lat="48.7524" lon="-3.52501">
        <ele>99.1</ele>
        <time>2019-07-11T11:16:00Z</time>
      </trkpt>
      <trkpt lat="48.75237" lon="-3.52499">
        <ele>98.6</ele>
        <time>2019-07-11T11:16:01Z</time>
      </trkpt>
      <trkpt lat="48.75234" lon="-3.52496">
        <ele>98.2</ele>
        <time>2019-07-11T11:16:02Z</time>
      </trkpt>
      <trkpt lat="48.7523" lon="-3.52494">
        <ele>97.9</ele>
        <time>2019-07-11T11:16:03Z</time>
      </trkpt>
      <trkpt lat="48.75227" lon="-3.52491">
        <ele>98.2</ele>
        <time>2019-07-11T11:16:04Z</time>
      </trkpt>
      <trkpt lat="48.75223" lon="-3.52488">
        <ele>98.3</ele>
        <time>2019-07-11T11:16:05Z</time>
      </trkpt>
      <trkpt lat="48.7522" lon="-3.52486">
        <ele>98.6</ele>
        <time>2019-07-11T11:16:06Z</time>
      </trkpt>
      <trkpt lat="48.75217" lon="-3.52483">
        <ele>98.5</ele>
        <time>2019-07-11T11:16:07Z</time>
      </trkpt>
      <trkpt lat="48.75213" lon="-3.52481">
        <ele>97.9</ele>
        <time>2019-07-11T11:16:08Z</time>
      </trkpt>
      <trkpt lat="48.75209" lon="-3.52478">
        <ele>97.5</ele>
        <time>2019-07-11T11:16:09Z</time>
      </trkpt>
      <trkpt lat="48.75206" lon="-3.52476">
        <ele>97.6</ele>
        <time>2019-07-11T11:16:10Z</time>
      </trkpt>
      <trkpt lat="48.75203" lon="-3.52473">
        <ele>97.9</ele>
        <time>2019-07-11T11:16:11Z</time>
      </trkpt>
      <trkpt lat="48.752" lon="-3.5247">
        <ele>98.8</ele>
        <time>2019-07-11T11:16:12Z</time>
      </trkpt>
      <trkpt lat="48.75196" lon="-3.52468">
        <ele>99.3</ele>
        <time>2019-07-11T11:16:13Z</time>
      </trkpt>
      <trkpt lat="48.75193" lon="-3.52465">
        <ele>99.7</ele>
        <time>2019-07-11T11:16:14Z</time>
      </trkpt>
      <trkpt lat="48.75189" lon="-3.52463">
        <ele>99.6</ele>
        <time>2019-07-11T11:16:15Z</time>
      </trkpt>
      <trkpt lat="48.75185" lon="-3.5246">
        <ele>99.1</ele>
        <time>2019-07-11T11:16:16Z</time>
      </trkpt>
      <trkpt lat="48.7518" lon="-3.52458">
        <ele>98.4</ele>
        <time>2019-07-11T11:16:17Z</time>
      </trkpt>
      <trkpt lat="48.75176" lon="-3.52456">
        <ele>98.2</ele>
        <time>2019-07-11T11:16:18Z</time>
      </trkpt>
      <trkpt lat="48.75172" lon="-3.52455">
        <ele>97.8</ele>
        <time>2019-07-11T11:16:19Z</time>
      </trkpt>
      <trkpt lat="48.75169" lon="-3.52453">
        <ele>97.5</ele>
        <time>2019-07-11T11:16:20Z</time>
      </trkpt>
      <trkpt lat="48.75165" lon="-3.5245">
        <ele>97.8</ele>
        <time>2019-07-11T11:16:21Z</time>
      </trkpt>
      <trkpt lat="48.75161" lon="-3.52448">
        <ele>97.9</ele>
        <time>2019-07-11T11:16:22Z</time>
      </trkpt>
      <trkpt lat="48.75158" lon="-3.52445">
        <ele>98.2</ele>
        <time>2019-07-11T11:16:23Z</time>
      </trkpt>
      <trkpt lat="48.75153" lon="-3.52443">
        <ele>98.2</ele>
        <time>2019-07-11T11:16:24Z</time>
      </trkpt>
      <trkpt lat="48.7515" lon="-3.52443">
        <ele>98</ele>
        <time>2019-07-11T11:16:25Z</time>
      </trkpt>
      <trkpt lat="48.75146" lon="-3.52443">
        <ele>98.2</ele>
        <time>2019-07-11T11:16:26Z</time>
      </trkpt>
      <trkpt lat="48.75143" lon="-3.52444">
        <ele>98.7</ele>
        <time>2019-07-11T11:16:27Z</time>
      </trkpt>
      <trkpt lat="48.75139" lon="-3.52445">
        <ele>98.9</ele>
        <time>2019-07-11T11:16:28Z</time>
      </trkpt>
      <trkpt lat="48.75135" lon="-3.52446">
        <ele>99.3</ele>
        <time>2019-07-11T11:16:29Z</time>
      </trkpt>
      <trkpt lat="48.75132" lon="-3.52448">
        <ele>99.6</ele>
        <time>2019-07-11T11:16:30Z</time>
      </trkpt>
      <trkpt lat="48.75128" lon="-3.5245">
        <ele>100.3</ele>
        <time>2019-07-11T11:16:31Z</time>
      </trkpt>
      <trkpt lat="48.75124" lon="-3.52452">
        <ele>100.6</ele>
        <time>2019-07-11T11:16:32Z</time>
      </trkpt>
      <trkpt lat="48.75122" lon="-3.52455">
        <ele>101.6</ele>
        <time>2019-07-11T11:16:33Z</time>
      </trkpt>
      <trkpt lat="48.75119" lon="-3.52458">
        <ele>102.2</ele>
        <time>2019-07-11T11:16:34Z</time>
      </trkpt>
      <trkpt lat="48.75116" lon="-3.52461">
        <ele>102.3</ele>
        <time>2019-07-11T11:16:35Z</time>
      </trkpt>
      <trkpt lat="48.75112" lon="-3.52464">
        <ele>101.7</ele>
        <time>2019-07-11T11:16:36Z</time>
      </trkpt>
      <trkpt lat="48.75108" lon="-3.52467">
        <ele>101.3</ele>
        <time>2019-07-11T11:16:37Z</time>
      </trkpt>
      <trkpt lat="48.75104" lon="-3.5247">
        <ele>101.3</ele>
        <time>2019-07-11T11:16:38Z</time>
      </trkpt>
      <trkpt lat="48.751" lon="-3.52473">
        <ele>101.2</ele>
        <time>2019-07-11T11:16:39Z</time>
      </trkpt>
      <trkpt lat="48.75096" lon="-3.52476">
        <ele>101.2</ele>
        <time>2019-07-11T11:16:40Z</time>
      </trkpt>
      <trkpt lat="48.75092" lon="-3.5248">
        <ele>101.2</ele>
        <time>2019-07-11T11:16:41Z</time>
      </trkpt>
      <trkpt lat="48.75087" lon="-3.52484">
        <ele>101.2</ele>
        <time>2019-07-11T11:16:42Z</time>
      </trkpt>
      <trkpt lat="48.75083" lon="-3.52488">
        <ele>101.1</ele>
        <time>2019-07-11T11:16:43Z</time>
      </trkpt>
      <trkpt lat="48.75079" lon="-3.52491">
        <ele>101</ele>
        <time>2019-07-11T11:16:44Z</time>
      </trkpt>
      <trkpt lat="48.75075" lon="-3.52493">
        <ele>100.5</ele>
        <time>2019-07-11T11:16:45Z</time>
      </trkpt>
      <trkpt lat="48.75071" lon="-3.52495">
        <ele>100.1</ele>
        <time>2019-07-11T11:16:46Z</time>
      </trkpt>
      <trkpt lat="48.75067" lon="-3.52495">
        <ele>99.7</ele>
        <time>2019-07-11T11:16:47Z</time>
      </trkpt>
      <trkpt lat="48.75063" lon="-3.52493">
        <ele>99.6</ele>
        <time>2019-07-11T11:16:48Z</time>
      </trkpt>
      <trkpt lat="48.7506" lon="-3.5249">
        <ele>99.3</ele>
        <time>2019-07-11T11:16:49Z</time>
      </trkpt>
      <trkpt lat="48.75058" lon="-3.52486">
        <ele>98.8</ele>
        <time>2019-07-11T11:16:50Z</time>
      </trkpt>
      <trkpt lat="48.75056" lon="-3.52483">
        <ele>98.5</ele>
        <time>2019-07-11T11:16:51Z</time>
      </trkpt>
      <trkpt lat="48.75054" lon="-3.52479">
        <ele>97.9</ele>
        <time>2019-07-11T11:16:52Z</time>
      </trkpt>
      <trkpt lat="48.75051" lon="-3.52477">
        <ele>97</ele>
        <time>2019-07-11T11:16:53Z</time>
      </trkpt>
      <trkpt lat="48.75048" lon="-3.52475">
        <ele>96.4</ele>
        <time>2019-07-11T11:16:54Z</time>
      </trkpt>
      <trkpt lat="48.75046" lon="-3.52472">
        <ele>96.1</ele>
        <time>2019-07-11T11:16:55Z</time>
      </trkpt>
      <trkpt lat="48.75044" lon="-3.5247">
        <ele>96</ele>
        <time>2019-07-11T11:16:56Z</time>
      </trkpt>
      <trkpt lat="48.75041" lon="-3.52466">
        <ele>96.5</ele>
        <time>2019-07-11T11:16:57Z</time>
      </trkpt>
      <trkpt lat="48.75039" lon="-3.52463">
        <ele>96.5</ele>
        <time>2019-07-11T11:16:58Z</time>
      </trkpt>
      <trkpt lat="48.75036" lon="-3.52461">
        <ele>97</ele>
        <time>2019-07-11T11:16:59Z</time>
      </trkpt>
      <trkpt lat="48.75033" lon="-3.52458">
        <ele>97.3</ele>
        <time>2019-07-11T11:17:00Z</time>
      </trkpt>
      <trkpt lat="48.7503" lon="-3.52456">
        <ele>97.3</ele>
        <time>2019-07-11T11:17:01Z</time>
      </trkpt>
      <trkpt lat="48.75027" lon="-3.52455">
        <ele>97.9</ele>
        <time>2019-07-11T11:17:02Z</time>
      </trkpt>
      <trkpt lat="48.75024" lon="-3.52451">
        <ele>98.5</ele>
        <time>2019-07-11T11:17:03Z</time>
      </trkpt>
      <trkpt lat="48.75023" lon="-3.52448">
        <ele>98.7</ele>
        <time>2019-07-11T11:17:04Z</time>
      </trkpt>
      <trkpt lat="48.7502" lon="-3.52445">
        <ele>98.9</ele>
        <time>2019-07-11T11:17:05Z</time>
      </trkpt>
      <trkpt lat="48.75018" lon="-3.52442">
        <ele>98.9</ele>
        <time>2019-07-11T11:17:06Z</time>
      </trkpt>
      <trkpt lat="48.75016" lon="-3.52441">
        <ele>99.4</ele>
        <time>2019-07-11T11:17:07Z</time>
      </trkpt>
      <trkpt lat="48.75014" lon="-3.5244">
        <ele>99.8</ele>
        <time>2019-07-11T11:17:08Z</time>
      </trkpt>
      <trkpt lat="48.75013" lon="-3.52439">
        <ele>99.6</ele>
        <time>2019-07-11T11:17:09Z</time>
      </trkpt>
      <trkpt lat="48.75011" lon="-3.52438">
        <ele>99.2</ele>
        <time>2019-07-11T11:17:27Z</time>
      </trkpt>
      <trkpt lat="48.7501" lon="-3.52436">
        <ele>99.3</ele>
        <time>2019-07-11T11:17:28Z</time>
      </trkpt>
      <trkpt lat="48.7501" lon="-3.52434">
        <ele>99.5</ele>
        <time>2019-07-11T11:17:29Z</time>
      </trkpt>
      <trkpt lat="48.7501" lon="-3.5243">
        <ele>99.7</ele>
        <time>2019-07-11T11:17:30Z</time>
      </trkpt>
      <trkpt lat="48.7501" lon="-3.52426">
        <ele>100</ele>
        <time>2019-07-11T11:17:31Z</time>
      </trkpt>
      <trkpt lat="48.75011" lon="-3.52422">
        <ele>100.2</ele>
        <time>2019-07-11T11:17:32Z</time>
      </trkpt>
      <trkpt lat="48.75011" lon="-3.52419">
        <ele>100.5</ele>
        <time>2019-07-11T11:17:33Z</time>
      </trkpt>
      <trkpt lat="48.75011" lon="-3.52415">
        <ele>100.6</ele>
        <time>2019-07-11T11:17:34Z</time>
      </trkpt>
      <trkpt lat="48.75012" lon="-3.52412">
        <ele>100.8</ele>
        <time>2019-07-11T11:17:35Z</time>
      </trkpt>
      <trkpt lat="48.75013" lon="-3.52408">
        <ele>100.7</ele>
        <time>2019-07-11T11:17:36Z</time>
      </trkpt>
      <trkpt lat="48.75013" lon="-3.52404">
        <ele>100.6</ele>
        <time>2019-07-11T11:17:37Z</time>
      </trkpt>
      <trkpt lat="48.75014" lon="-3.52401">
        <ele>100.8</ele>
        <time>2019-07-11T11:17:38Z</time>
      </trkpt>
      <trkpt lat="48.75015" lon="-3.52397">
        <ele>101.3</ele>
        <time>2019-07-11T11:17:39Z</time>
      </trkpt>
      <trkpt lat="48.75015" lon="-3.52392">
        <ele>101.3</ele>
        <time>2019-07-11T11:17:40Z</time>
      </trkpt>
      <trkpt lat="48.75016" lon="-3.52388">
        <ele>101.6</ele>
        <time>2019-07-11T11:17:41Z</time>
      </trkpt>
      <trkpt lat="48.75017" lon="-3.52384">
        <ele>102</ele>
        <time>2019-07-11T11:17:42Z</time>
      </trkpt>
      <trkpt lat="48.75018" lon="-3.52379">
        <ele>102.3</ele>
        <time>2019-07-11T11:17:43Z</time>
      </trkpt>
      <trkpt lat="48.75018" lon="-3.52375">
        <ele>102.5</ele>
        <time>2019-07-11T11:17:44Z</time>
      </trkpt>
      <trkpt lat="48.7502" lon="-3.5237">
        <ele>102.4</ele>
        <time>2019-07-11T11:17:45Z</time>
      </trkpt>
      <trkpt lat="48.75021" lon="-3.52366">
        <ele>102.3</ele>
        <time>2019-07-11T11:17:46Z</time>
      </trkpt>
      <trkpt lat="48.75022" lon="-3.52361">
        <ele>102.2</ele>
        <time>2019-07-11T11:17:47Z</time>
      </trkpt>
      <trkpt lat="48.75023" lon="-3.52357">
        <ele>102.1</ele>
        <time>2019-07-11T11:17:48Z</time>
      </trkpt>
      <trkpt lat="48.75024" lon="-3.52353">
        <ele>102</ele>
        <time>2019-07-11T11:17:49Z</time>
      </trkpt>
      <trkpt lat="48.75025" lon="-3.52349">
        <ele>102.3</ele>
        <time>2019-07-11T11:17:50Z</time>
      </trkpt>
      <trkpt lat="48.75026" lon="-3.52344">
        <ele>103</ele>
        <time>2019-07-11T11:17:51Z</time>
      </trkpt>
      <trkpt lat="48.75027" lon="-3.5234">
        <ele>103.6</ele>
        <time>2019-07-11T11:17:52Z</time>
      </trkpt>
      <trkpt lat="48.75028" lon="-3.52336">
        <ele>104.3</ele>
        <time>2019-07-11T11:17:53Z</time>
      </trkpt>
      <trkpt lat="48.75029" lon="-3.52331">
        <ele>104.7</ele>
        <time>2019-07-11T11:17:54Z</time>
      </trkpt>
      <trkpt lat="48.7503" lon="-3.52326">
        <ele>104.6</ele>
        <time>2019-07-11T11:17:55Z</time>
      </trkpt>
      <trkpt lat="48.75031" lon="-3.52322">
        <ele>105.3</ele>
        <time>2019-07-11T11:17:56Z</time>
      </trkpt>
      <trkpt lat="48.75032" lon="-3.52318">
        <ele>105.4</ele>
        <time>2019-07-11T11:17:57Z</time>
      </trkpt>
      <trkpt lat="48.75033" lon="-3.52313">
        <ele>105.7</ele>
        <time>2019-07-11T11:17:58Z</time>
      </trkpt>
      <trkpt lat="48.75034" lon="-3.52309">
        <ele>105.1</ele>
        <time>2019-07-11T11:17:59Z</time>
      </trkpt>
      <trkpt lat="48.75034" lon="-3.52304">
        <ele>104.5</ele>
        <time>2019-07-11T11:18:00Z</time>
      </trkpt>
      <trkpt lat="48.75035" lon="-3.523">
        <ele>103.9</ele>
        <time>2019-07-11T11:18:01Z</time>
      </trkpt>
      <trkpt lat="48.75036" lon="-3.52295">
        <ele>103.8</ele>
        <time>2019-07-11T11:18:02Z</time>
      </trkpt>
      <trkpt lat="48.75036" lon="-3.52291">
        <ele>103.3</ele>
        <time>2019-07-11T11:18:03Z</time>
      </trkpt>
      <trkpt lat="48.75036" lon="-3.52286">
        <ele>102.5</ele>
        <time>2019-07-11T11:18:04Z</time>
      </trkpt>
      <trkpt lat="48.75037" lon="-3.52282">
        <ele>102.7</ele>
        <time>2019-07-11T11:18:05Z</time>
      </trkpt>
      <trkpt lat="48.75037" lon="-3.52278">
        <ele>102.7</ele>
        <time>2019-07-11T11:18:06Z</time>
      </trkpt>
      <trkpt lat="48.75037" lon="-3.52273">
        <ele>102.7</ele>
        <time>2019-07-11T11:18:07Z</time>
      </trkpt>
      <trkpt lat="48.75036" lon="-3.52269">
        <ele>102.5</ele>
        <time>2019-07-11T11:18:08Z</time>
      </trkpt>
      <trkpt lat="48.75036" lon="-3.52264">
        <ele>102.4</ele>
        <time>2019-07-11T11:18:09Z</time>
      </trkpt>
      <trkpt lat="48.75036" lon="-3.5226">
        <ele>101.9</ele>
        <time>2019-07-11T11:18:10Z</time>
      </trkpt>
      <trkpt lat="48.75035" lon="-3.52255">
        <ele>100.9</ele>
        <time>2019-07-11T11:18:11Z</time>
      </trkpt>
      <trkpt lat="48.75034" lon="-3.5225">
        <ele>99.9</ele>
        <time>2019-07-11T11:18:12Z</time>
      </trkpt>
      <trkpt lat="48.75033" lon="-3.52246">
        <ele>99.6</ele>
        <time>2019-07-11T11:18:13Z</time>
      </trkpt>
      <trkpt lat="48.75032" lon="-3.52241">
        <ele>99.5</ele>
        <time>2019-07-11T11:18:14Z</time>
      </trkpt>
      <trkpt lat="48.75032" lon="-3.52235">
        <ele>100</ele>
        <time>2019-07-11T11:18:15Z</time>
      </trkpt>
      <trkpt lat="48.75031" lon="-3.5223">
        <ele>100.5</ele>
        <time>2019-07-11T11:18:16Z</time>
      </trkpt>
      <trkpt lat="48.75031" lon="-3.52225">
        <ele>101.1</ele>
        <time>2019-07-11T11:18:17Z</time>
      </trkpt>
      <trkpt lat="48.75031" lon="-3.5222">
        <ele>101.9</ele>
        <time>2019-07-11T11:18:18Z</time>
      </trkpt>
      <trkpt lat="48.75029" lon="-3.52215">
        <ele>102.4</ele>
        <time>2019-07-11T11:18:19Z</time>
      </trkpt>
      <trkpt lat="48.75029" lon="-3.52209">
        <ele>102.8</ele>
        <time>2019-07-11T11:18:20Z</time>
      </trkpt>
      <trkpt lat="48.75028" lon="-3.52204">
        <ele>103</ele>
        <time>2019-07-11T11:18:21Z</time>
      </trkpt>
      <trkpt lat="48.75028" lon="-3.52198">
        <ele>103.4</ele>
        <time>2019-07-11T11:18:22Z</time>
      </trkpt>
      <trkpt lat="48.75027" lon="-3.52192">
        <ele>103.7</ele>
        <time>2019-07-11T11:18:23Z</time>
      </trkpt>
      <trkpt lat="48.75026" lon="-3.52187">
        <ele>104.1</ele>
        <time>2019-07-11T11:18:24Z</time>
      </trkpt>
      <trkpt lat="48.75026" lon="-3.52181">
        <ele>104.7</ele>
        <time>2019-07-11T11:18:25Z</time>
      </trkpt>
      <trkpt lat="48.75025" lon="-3.52177">
        <ele>105.3</ele>
        <time>2019-07-11T11:18:26Z</time>
      </trkpt>
      <trkpt lat="48.75025" lon="-3.52172">
        <ele>106</ele>
        <time>2019-07-11T11:18:27Z</time>
      </trkpt>
      <trkpt lat="48.75024" lon="-3.52168">
        <ele>106.7</ele>
        <time>2019-07-11T11:18:28Z</time>
      </trkpt>
      <trkpt lat="48.75023" lon="-3.52164">
        <ele>106.5</ele>
        <time>2019-07-11T11:18:29Z</time>
      </trkpt>
      <trkpt lat="48.75023" lon="-3.5216">
        <ele>107</ele>
        <time>2019-07-11T11:18:30Z</time>
      </trkpt>
      <trkpt lat="48.75022" lon="-3.52156">
        <ele>107.7</ele>
        <time>2019-07-11T11:18:31Z</time>
      </trkpt>
      <trkpt lat="48.75022" lon="-3.52151">
        <ele>108.2</ele>
        <time>2019-07-11T11:18:32Z</time>
      </trkpt>
      <trkpt lat="48.75021" lon="-3.52146">
        <ele>108.5</ele>
        <time>2019-07-11T11:18:33Z</time>
      </trkpt>
      <trkpt lat="48.75021" lon="-3.52142">
        <ele>108.8</ele>
        <time>2019-07-11T11:18:34Z</time>
      </trkpt>
      <trkpt lat="48.7502" lon="-3.52137">
        <ele>109</ele>
        <time>2019-07-11T11:18:35Z</time>
      </trkpt>
      <trkpt lat="48.7502" lon="-3.52132">
        <ele>109.2</ele>
        <time>2019-07-11T11:18:36Z</time>
      </trkpt>
      <trkpt lat="48.7502" lon="-3.52127">
        <ele>109.6</ele>
        <time>2019-07-11T11:18:37Z</time>
      </trkpt>
      <trkpt lat="48.75019" lon="-3.52122">
        <ele>110</ele>
        <time>2019-07-11T11:18:38Z</time>
      </trkpt>
      <trkpt lat="48.75018" lon="-3.52118">
        <ele>110.5</ele>
        <time>2019-07-11T11:18:39Z</time>
      </trkpt>
      <trkpt lat="48.75016" lon="-3.52114">
        <ele>110.4</ele>
        <time>2019-07-11T11:18:40Z</time>
      </trkpt>
      <trkpt lat="48.75015" lon="-3.52111">
        <ele>110.2</ele>
        <time>2019-07-11T11:18:41Z</time>
      </trkpt>
      <trkpt lat="48.75013" lon="-3.52109">
        <ele>108.6</ele>
        <time>2019-07-11T11:18:42Z</time>
      </trkpt>
      <trkpt lat="48.75012" lon="-3.52105">
        <ele>108.3</ele>
        <time>2019-07-11T11:18:43Z</time>
      </trkpt>
      <trkpt lat="48.75011" lon="-3.521">
        <ele>108.2</ele>
        <time>2019-07-11T11:18:44Z</time>
      </trkpt>
      <trkpt lat="48.7501" lon="-3.52095">
        <ele>107.8</ele>
        <time>2019-07-11T11:18:45Z</time>
      </trkpt>
      <trkpt lat="48.75009" lon="-3.5209">
        <ele>107.6</ele>
        <time>2019-07-11T11:18:46Z</time>
      </trkpt>
      <trkpt lat="48.75008" lon="-3.52085">
        <ele>107.1</ele>
        <time>2019-07-11T11:18:47Z</time>
      </trkpt>
      <trkpt lat="48.75007" lon="-3.5208">
        <ele>106.2</ele>
        <time>2019-07-11T11:18:48Z</time>
      </trkpt>
      <trkpt lat="48.75007" lon="-3.52075">
        <ele>105.5</ele>
        <time>2019-07-11T11:18:49Z</time>
      </trkpt>
      <trkpt lat="48.75005" lon="-3.52069">
        <ele>105</ele>
        <time>2019-07-11T11:18:50Z</time>
      </trkpt>
      <trkpt lat="48.75005" lon="-3.52064">
        <ele>104.7</ele>
        <time>2019-07-11T11:18:51Z</time>
      </trkpt>
      <trkpt lat="48.75004" lon="-3.52059">
        <ele>104.2</ele>
        <time>2019-07-11T11:18:52Z</time>
      </trkpt>
      <trkpt lat="48.75003" lon="-3.52053">
        <ele>104.2</ele>
        <time>2019-07-11T11:18:53Z</time>
      </trkpt>
      <trkpt lat="48.75003" lon="-3.52048">
        <ele>104.7</ele>
        <time>2019-07-11T11:18:54Z</time>
      </trkpt>
      <trkpt lat="48.75003" lon="-3.52044">
        <ele>104.9</ele>
        <time>2019-07-11T11:18:55Z</time>
      </trkpt>
      <trkpt lat="48.75002" lon="-3.52039">
        <ele>105.1</ele>
        <time>2019-07-11T11:18:56Z</time>
      </trkpt>
      <trkpt lat="48.75002" lon="-3.52034">
        <ele>105.2</ele>
        <time>2019-07-11T11:18:57Z</time>
      </trkpt>
      <trkpt lat="48.75001" lon="-3.52029">
        <ele>105.4</ele>
        <time>2019-07-11T11:18:58Z</time>
      </trkpt>
      <trkpt lat="48.75001" lon="-3.52024">
        <ele>105.8</ele>
        <time>2019-07-11T11:18:59Z</time>
      </trkpt>
      <trkpt lat="48.75" lon="-3.52018">
        <ele>106.2</ele>
        <time>2019-07-11T11:19:00Z</time>
      </trkpt>
      <trkpt lat="48.75" lon="-3.52012">
        <ele>106.3</ele>
        <time>2019-07-11T11:19:01Z</time>
      </trkpt>
      <trkpt lat="48.75" lon="-3.52007">
        <ele>106.3</ele>
        <time>2019-07-11T11:19:02Z</time>
      </trkpt>
      <trkpt lat="48.75" lon="-3.52001">
        <ele>106.3</ele>
        <time>2019-07-11T11:19:03Z</time>
      </trkpt>
      <trkpt lat="48.75" lon="-3.51995">
        <ele>106.5</ele>
        <time>2019-07-11T11:19:04Z</time>
      </trkpt>
      <trkpt lat="48.75" lon="-3.5199">
        <ele>106.7</ele>
        <time>2019-07-11T11:19:05Z</time>
      </trkpt>
      <trkpt lat="48.74999" lon="-3.51984">
        <ele>106.9</ele>
        <time>2019-07-11T11:19:06Z</time>
      </trkpt>
      <trkpt lat="48.74997" lon="-3.51978">
        <ele>107.1</ele>
        <time>2019-07-11T11:19:07Z</time>
      </trkpt>
      <trkpt lat="48.74996" lon="-3.51973">
        <ele>107.2</ele>
        <time>2019-07-11T11:19:08Z</time>
      </trkpt>
      <trkpt lat="48.74994" lon="-3.51967">
        <ele>106.8</ele>
        <time>2019-07-11T11:19:09Z</time>
      </trkpt>
      <trkpt lat="48.74992" lon="-3.51962">
        <ele>106.5</ele>
        <time>2019-07-11T11:19:10Z</time>
      </trkpt>
      <trkpt lat="48.7499" lon="-3.51956">
        <ele>106.7</ele>
        <time>2019-07-11T11:19:11Z</time>
      </trkpt>
      <trkpt lat="48.74988" lon="-3.51951">
        <ele>107</ele>
        <time>2019-07-11T11:19:12Z</time>
      </trkpt>
      <trkpt lat="48.74986" lon="-3.51946">
        <ele>106.8</ele>
        <time>2019-07-11T11:19:13Z</time>
      </trkpt>
      <trkpt lat="48.74984" lon="-3.5194">
        <ele>106.5</ele>
        <time>2019-07-11T11:19:14Z</time>
      </trkpt>
      <trkpt lat="48.74982" lon="-3.51935">
        <ele>106.6</ele>
        <time>2019-07-11T11:19:15Z</time>
      </trkpt>
      <trkpt lat="48.7498" lon="-3.51929">
        <ele>106.6</ele>
        <time>2019-07-11T11:19:16Z</time>
      </trkpt>
      <trkpt lat="48.74978" lon="-3.51923">
        <ele>106.7</ele>
        <time>2019-07-11T11:19:17Z</time>
      </trkpt>
      <trkpt lat="48.74975" lon="-3.51918">
        <ele>106.9</ele>
        <time>2019-07-11T11:19:18Z</time>
      </trkpt>
      <trkpt lat="48.74973" lon="-3.51914">
        <ele>107.3</ele>
        <time>2019-07-11T11:19:19Z</time>
      </trkpt>
      <trkpt lat="48.7497" lon="-3.51908">
        <ele>107.1</ele>
        <time>2019-07-11T11:19:20Z</time>
      </trkpt>
      <trkpt lat="48.74969" lon="-3.51902">
        <ele>107.1</ele>
        <time>2019-07-11T11:19:21Z</time>
      </trkpt>
      <trkpt lat="48.74966" lon="-3.51897">
        <ele>107</ele>
        <time>2019-07-11T11:19:22Z</time>
      </trkpt>
      <trkpt lat="48.74965" lon="-3.51891">
        <ele>106.7</ele>
        <time>2019-07-11T11:19:23Z</time>
      </trkpt>
      <trkpt lat="48.74962" lon="-3.51885">
        <ele>106.4</ele>
        <time>2019-07-11T11:19:24Z</time>
      </trkpt>
      <trkpt lat="48.7496" lon="-3.51879">
        <ele>106.3</ele>
        <time>2019-07-11T11:19:25Z</time>
      </trkpt>
      <trkpt lat="48.74958" lon="-3.51873">
        <ele>106.4</ele>
        <time>2019-07-11T11:19:26Z</time>
      </trkpt>
      <trkpt lat="48.74955" lon="-3.51867">
        <ele>106.6</ele>
        <time>2019-07-11T11:19:27Z</time>
      </trkpt>
      <trkpt lat="48.74953" lon="-3.51861">
        <ele>106.5</ele>
        <time>2019-07-11T11:19:28Z</time>
      </trkpt>
      <trkpt lat="48.74951" lon="-3.51855">
        <ele>106.4</ele>
        <time>2019-07-11T11:19:29Z</time>
      </trkpt>
      <trkpt lat="48.74949" lon="-3.51849">
        <ele>106.2</ele>
        <time>2019-07-11T11:19:30Z</time>
      </trkpt>
      <trkpt lat="48.74947" lon="-3.51843">
        <ele>106.4</ele>
        <time>2019-07-11T11:19:31Z</time>
      </trkpt>
      <trkpt lat="48.74946" lon="-3.51837">
        <ele>106.7</ele>
        <time>2019-07-11T11:19:32Z</time>
      </trkpt>
      <trkpt lat="48.74944" lon="-3.51831">
        <ele>106.9</ele>
        <time>2019-07-11T11:19:33Z</time>
      </trkpt>
      <trkpt lat="48.74942" lon="-3.51825">
        <ele>107.2</ele>
        <time>2019-07-11T11:19:34Z</time>
      </trkpt>
      <trkpt lat="48.7494" lon="-3.51819">
        <ele>107.7</ele>
        <time>2019-07-11T11:19:35Z</time>
      </trkpt>
      <trkpt lat="48.74939" lon="-3.51813">
        <ele>108.3</ele>
        <time>2019-07-11T11:19:36Z</time>
      </trkpt>
      <trkpt lat="48.74937" lon="-3.51806">
        <ele>108.4</ele>
        <time>2019-07-11T11:19:37Z</time>
      </trkpt>
      <trkpt lat="48.74936" lon="-3.518">
        <ele>108.2</ele>
        <time>2019-07-11T11:19:38Z</time>
      </trkpt>
      <trkpt lat="48.74934" lon="-3.51792">
        <ele>107.2</ele>
        <time>2019-07-11T11:19:39Z</time>
      </trkpt>
      <trkpt lat="48.74933" lon="-3.51785">
        <ele>106.7</ele>
        <time>2019-07-11T11:19:40Z</time>
      </trkpt>
      <trkpt lat="48.74933" lon="-3.51778">
        <ele>106.5</ele>
        <time>2019-07-11T11:19:41Z</time>
      </trkpt>
      <trkpt lat="48.74932" lon="-3.5177">
        <ele>106.4</ele>
        <time>2019-07-11T11:19:42Z</time>
      </trkpt>
      <trkpt lat="48.74931" lon="-3.51763">
        <ele>106.2</ele>
        <time>2019-07-11T11:19:43Z</time>
      </trkpt>
      <trkpt lat="48.7493" lon="-3.51755">
        <ele>106</ele>
        <time>2019-07-11T11:19:44Z</time>
      </trkpt>
      <trkpt lat="48.74929" lon="-3.51747">
        <ele>105.2</ele>
        <time>2019-07-11T11:19:45Z</time>
      </trkpt>
      <trkpt lat="48.74929" lon="-3.5174">
        <ele>105</ele>
        <time>2019-07-11T11:19:46Z</time>
      </trkpt>
      <trkpt lat="48.74928" lon="-3.51732">
        <ele>104.5</ele>
        <time>2019-07-11T11:19:47Z</time>
      </trkpt>
      <trkpt lat="48.74927" lon="-3.51724">
        <ele>104.1</ele>
        <time>2019-07-11T11:19:48Z</time>
      </trkpt>
      <trkpt lat="48.74926" lon="-3.51717">
        <ele>104.2</ele>
        <time>2019-07-11T11:19:49Z</time>
      </trkpt>
      <trkpt lat="48.74926" lon="-3.5171">
        <ele>103.9</ele>
        <time>2019-07-11T11:19:50Z</time>
      </trkpt>
      <trkpt lat="48.74926" lon="-3.51704">
        <ele>104.5</ele>
        <time>2019-07-11T11:19:51Z</time>
      </trkpt>
      <trkpt lat="48.74925" lon="-3.51697">
        <ele>104.7</ele>
        <time>2019-07-11T11:19:52Z</time>
      </trkpt>
      <trkpt lat="48.74924" lon="-3.51689">
        <ele>104.6</ele>
        <time>2019-07-11T11:19:53Z</time>
      </trkpt>
      <trkpt lat="48.74923" lon="-3.51682">
        <ele>104.7</ele>
        <time>2019-07-11T11:19:54Z</time>
      </trkpt>
      <trkpt lat="48.74923" lon="-3.51675">
        <ele>104.9</ele>
        <time>2019-07-11T11:19:55Z</time>
      </trkpt>
      <trkpt lat="48.74922" lon="-3.51667">
        <ele>105.2</ele>
        <time>2019-07-11T11:19:56Z</time>
      </trkpt>
      <trkpt lat="48.74921" lon="-3.51659">
        <ele>105.6</ele>
        <time>2019-07-11T11:19:57Z</time>
      </trkpt>
      <trkpt lat="48.7492" lon="-3.51652">
        <ele>105.6</ele>
        <time>2019-07-11T11:19:58Z</time>
      </trkpt>
      <trkpt lat="48.74918" lon="-3.51644">
        <ele>105.1</ele>
        <time>2019-07-11T11:19:59Z</time>
      </trkpt>
      <trkpt lat="48.74917" lon="-3.51636">
        <ele>105</ele>
        <time>2019-07-11T11:20:00Z</time>
      </trkpt>
      <trkpt lat="48.74916" lon="-3.51629">
        <ele>105</ele>
        <time>2019-07-11T11:20:01Z</time>
      </trkpt>
      <trkpt lat="48.74914" lon="-3.51622">
        <ele>104.3</ele>
        <time>2019-07-11T11:20:02Z</time>
      </trkpt>
      <trkpt lat="48.74913" lon="-3.51615">
        <ele>103.9</ele>
        <time>2019-07-11T11:20:03Z</time>
      </trkpt>
      <trkpt lat="48.74912" lon="-3.51608">
        <ele>103.6</ele>
        <time>2019-07-11T11:20:04Z</time>
      </trkpt>
      <trkpt lat="48.7491" lon="-3.51601">
        <ele>103.3</ele>
        <time>2019-07-11T11:20:05Z</time>
      </trkpt>
      <trkpt lat="48.74909" lon="-3.51593">
        <ele>102.9</ele>
        <time>2019-07-11T11:20:06Z</time>
      </trkpt>
      <trkpt lat="48.74908" lon="-3.51586">
        <ele>102.6</ele>
        <time>2019-07-11T11:20:07Z</time>
      </trkpt>
      <trkpt lat="48.74906" lon="-3.51578">
        <ele>102.5</ele>
        <time>2019-07-11T11:20:08Z</time>
      </trkpt>
      <trkpt lat="48.74905" lon="-3.5157">
        <ele>102.5</ele>
        <time>2019-07-11T11:20:09Z</time>
      </trkpt>
      <trkpt lat="48.74904" lon="-3.51562">
        <ele>102.7</ele>
        <time>2019-07-11T11:20:10Z</time>
      </trkpt>
      <trkpt lat="48.74904" lon="-3.51554">
        <ele>102.8</ele>
        <time>2019-07-11T11:20:11Z</time>
      </trkpt>
      <trkpt lat="48.74903" lon="-3.51546">
        <ele>102.9</ele>
        <time>2019-07-11T11:20:12Z</time>
      </trkpt>
      <trkpt lat="48.74902" lon="-3.51538">
        <ele>103.1</ele>
        <time>2019-07-11T11:20:13Z</time>
      </trkpt>
      <trkpt lat="48.74902" lon="-3.5153">
        <ele>103.3</ele>
        <time>2019-07-11T11:20:14Z</time>
      </trkpt>
      <trkpt lat="48.74902" lon="-3.51523">
        <ele>103.3</ele>
        <time>2019-07-11T11:20:15Z</time>
      </trkpt>
      <trkpt lat="48.74901" lon="-3.51515">
        <ele>103.6</ele>
        <time>2019-07-11T11:20:16Z</time>
      </trkpt>
      <trkpt lat="48.74901" lon="-3.51507">
        <ele>103.4</ele>
        <time>2019-07-11T11:20:17Z</time>
      </trkpt>
      <trkpt lat="48.74901" lon="-3.515">
        <ele>103.7</ele>
        <time>2019-07-11T11:20:18Z</time>
      </trkpt>
      <trkpt lat="48.74901" lon="-3.51492">
        <ele>103.6</ele>
        <time>2019-07-11T11:20:19Z</time>
      </trkpt>
      <trkpt lat="48.74901" lon="-3.51485">
        <ele>103.7</ele>
        <time>2019-07-11T11:20:20Z</time>
      </trkpt>
      <trkpt lat="48.74901" lon="-3.51478">
        <ele>103.7</ele>
        <time>2019-07-11T11:20:21Z</time>
      </trkpt>
      <trkpt lat="48.749" lon="-3.51471">
        <ele>104</ele>
        <time>2019-07-11T11:20:22Z</time>
      </trkpt>
      <trkpt lat="48.74899" lon="-3.51464">
        <ele>104.1</ele>
        <time>2019-07-11T11:20:23Z</time>
      </trkpt>
      <trkpt lat="48.74898" lon="-3.51457">
        <ele>104.3</ele>
        <time>2019-07-11T11:20:24Z</time>
      </trkpt>
      <trkpt lat="48.74897" lon="-3.5145">
        <ele>104.5</ele>
        <time>2019-07-11T11:20:25Z</time>
      </trkpt>
      <trkpt lat="48.74896" lon="-3.51444">
        <ele>104.8</ele>
        <time>2019-07-11T11:20:26Z</time>
      </trkpt>
      <trkpt lat="48.74894" lon="-3.51438">
        <ele>105</ele>
        <time>2019-07-11T11:20:27Z</time>
      </trkpt>
      <trkpt lat="48.74893" lon="-3.51432">
        <ele>105.7</ele>
        <time>2019-07-11T11:20:28Z</time>
      </trkpt>
      <trkpt lat="48.74891" lon="-3.51427">
        <ele>106.3</ele>
        <time>2019-07-11T11:20:29Z</time>
      </trkpt>
      <trkpt lat="48.74889" lon="-3.51421">
        <ele>106.7</ele>
        <time>2019-07-11T11:20:30Z</time>
      </trkpt>
      <trkpt lat="48.74888" lon="-3.51415">
        <ele>107.1</ele>
        <time>2019-07-11T11:20:31Z</time>
      </trkpt>
      <trkpt lat="48.74886" lon="-3.51408">
        <ele>107.7</ele>
        <time>2019-07-11T11:20:32Z</time>
      </trkpt>
      <trkpt lat="48.74884" lon="-3.51401">
        <ele>108.2</ele>
        <time>2019-07-11T11:20:33Z</time>
      </trkpt>
      <trkpt lat="48.74882" lon="-3.51394">
        <ele>108.6</ele>
        <time>2019-07-11T11:20:34Z</time>
      </trkpt>
      <trkpt lat="48.74881" lon="-3.51388">
        <ele>109.1</ele>
        <time>2019-07-11T11:20:35Z</time>
      </trkpt>
      <trkpt lat="48.7488" lon="-3.51382">
        <ele>109.5</ele>
        <time>2019-07-11T11:20:36Z</time>
      </trkpt>
      <trkpt lat="48.74878" lon="-3.51375">
        <ele>109.9</ele>
        <time>2019-07-11T11:20:37Z</time>
      </trkpt>
      <trkpt lat="48.74877" lon="-3.51368">
        <ele>110</ele>
        <time>2019-07-11T11:20:38Z</time>
      </trkpt>
      <trkpt lat="48.74875" lon="-3.51361">
        <ele>109.1</ele>
        <time>2019-07-11T11:20:39Z</time>
      </trkpt>
      <trkpt lat="48.74873" lon="-3.51353">
        <ele>107.9</ele>
        <time>2019-07-11T11:20:40Z</time>
      </trkpt>
      <trkpt lat="48.74871" lon="-3.51346">
        <ele>106.8</ele>
        <time>2019-07-11T11:20:41Z</time>
      </trkpt>
      <trkpt lat="48.74869" lon="-3.51339">
        <ele>104.8</ele>
        <time>2019-07-11T11:20:42Z</time>
      </trkpt>
      <trkpt lat="48.74868" lon="-3.51331">
        <ele>103.6</ele>
        <time>2019-07-11T11:20:43Z</time>
      </trkpt>
      <trkpt lat="48.74866" lon="-3.51324">
        <ele>102.1</ele>
        <time>2019-07-11T11:20:44Z</time>
      </trkpt>
      <trkpt lat="48.74865" lon="-3.51318">
        <ele>101.2</ele>
        <time>2019-07-11T11:20:45Z</time>
      </trkpt>
      <trkpt lat="48.74863" lon="-3.5131">
        <ele>100.7</ele>
        <time>2019-07-11T11:20:46Z</time>
      </trkpt>
      <trkpt lat="48.74862" lon="-3.51303">
        <ele>100.5</ele>
        <time>2019-07-11T11:20:47Z</time>
      </trkpt>
      <trkpt lat="48.7486" lon="-3.51296">
        <ele>100.1</ele>
        <time>2019-07-11T11:20:48Z</time>
      </trkpt>
      <trkpt lat="48.74859" lon="-3.51289">
        <ele>99.8</ele>
        <time>2019-07-11T11:20:49Z</time>
      </trkpt>
      <trkpt lat="48.74858" lon="-3.51281">
        <ele>99.7</ele>
        <time>2019-07-11T11:20:50Z</time>
      </trkpt>
      <trkpt lat="48.74857" lon="-3.51272">
        <ele>99.2</ele>
        <time>2019-07-11T11:20:51Z</time>
      </trkpt>
      <trkpt lat="48.74856" lon="-3.51264">
        <ele>99</ele>
        <time>2019-07-11T11:20:52Z</time>
      </trkpt>
      <trkpt lat="48.74855" lon="-3.51256">
        <ele>98.8</ele>
        <time>2019-07-11T11:20:53Z</time>
      </trkpt>
      <trkpt lat="48.74853" lon="-3.51248">
        <ele>98.5</ele>
        <time>2019-07-11T11:20:54Z</time>
      </trkpt>
      <trkpt lat="48.74852" lon="-3.51239">
        <ele>98.4</ele>
        <time>2019-07-11T11:20:55Z</time>
      </trkpt>
      <trkpt lat="48.74851" lon="-3.51231">
        <ele>98.4</ele>
        <time>2019-07-11T11:20:56Z</time>
      </trkpt>
      <trkpt lat="48.7485" lon="-3.51222">
        <ele>98.3</ele>
        <time>2019-07-11T11:20:57Z</time>
      </trkpt>
      <trkpt lat="48.74849" lon="-3.51213">
        <ele>98.6</ele>
        <time>2019-07-11T11:20:58Z</time>
      </trkpt>
      <trkpt lat="48.74849" lon="-3.51205">
        <ele>98.6</ele>
        <time>2019-07-11T11:20:59Z</time>
      </trkpt>
      <trkpt lat="48.74848" lon="-3.51196">
        <ele>99</ele>
        <time>2019-07-11T11:21:00Z</time>
      </trkpt>
      <trkpt lat="48.74848" lon="-3.51187">
        <ele>99.3</ele>
        <time>2019-07-11T11:21:01Z</time>
      </trkpt>
      <trkpt lat="48.74849" lon="-3.51179">
        <ele>99.7</ele>
        <time>2019-07-11T11:21:02Z</time>
      </trkpt>
      <trkpt lat="48.74849" lon="-3.51171">
        <ele>100</ele>
        <time>2019-07-11T11:21:03Z</time>
      </trkpt>
      <trkpt lat="48.74849" lon="-3.51165">
        <ele>100.3</ele>
        <time>2019-07-11T11:21:04Z</time>
      </trkpt>
      <trkpt lat="48.74849" lon="-3.51158">
        <ele>100.5</ele>
        <time>2019-07-11T11:21:05Z</time>
      </trkpt>
      <trkpt lat="48.74849" lon="-3.51151">
        <ele>100.9</ele>
        <time>2019-07-11T11:21:06Z</time>
      </trkpt>
      <trkpt lat="48.74849" lon="-3.51144">
        <ele>101.3</ele>
        <time>2019-07-11T11:21:07Z</time>
      </trkpt>
      <trkpt lat="48.74849" lon="-3.51137">
        <ele>101.6</ele>
        <time>2019-07-11T11:21:08Z</time>
      </trkpt>
      <trkpt lat="48.74848" lon="-3.5113">
        <ele>101.7</ele>
        <time>2019-07-11T11:21:09Z</time>
      </trkpt>
      <trkpt lat="48.74848" lon="-3.51122">
        <ele>101.7</ele>
        <time>2019-07-11T11:21:10Z</time>
      </trkpt>
      <trkpt lat="48.74848" lon="-3.51115">
        <ele>101.6</ele>
        <time>2019-07-11T11:21:11Z</time>
      </trkpt>
      <trkpt lat="48.74849" lon="-3.51108">
        <ele>101.8</ele>
        <time>2019-07-11T11:21:12Z</time>
      </trkpt>
      <trkpt lat="48.74849" lon="-3.51101">
        <ele>101.8</ele>
        <time>2019-07-11T11:21:13Z</time>
      </trkpt>
      <trkpt lat="48.74849" lon="-3.51094">
        <ele>102.1</ele>
        <time>2019-07-11T11:21:14Z</time>
      </trkpt>
      <trkpt lat="48.74849" lon="-3.51087">
        <ele>102.4</ele>
        <time>2019-07-11T11:21:15Z</time>
      </trkpt>
      <trkpt lat="48.7485" lon="-3.51081">
        <ele>102.7</ele>
        <time>2019-07-11T11:21:16Z</time>
      </trkpt>
      <trkpt lat="48.7485" lon="-3.51074">
        <ele>102.8</ele>
        <time>2019-07-11T11:21:17Z</time>
      </trkpt>
      <trkpt lat="48.74851" lon="-3.51067">
        <ele>102.8</ele>
        <time>2019-07-11T11:21:18Z</time>
      </trkpt>
      <trkpt lat="48.74851" lon="-3.5106">
        <ele>102.6</ele>
        <time>2019-07-11T11:21:19Z</time>
      </trkpt>
      <trkpt lat="48.74851" lon="-3.51054">
        <ele>102.2</ele>
        <time>2019-07-11T11:21:20Z</time>
      </trkpt>
      <trkpt lat="48.74851" lon="-3.51047">
        <ele>101.7</ele>
        <time>2019-07-11T11:21:21Z</time>
      </trkpt>
      <trkpt lat="48.74851" lon="-3.51039">
        <ele>101.3</ele>
        <time>2019-07-11T11:21:22Z</time>
      </trkpt>
      <trkpt lat="48.74852" lon="-3.51032">
        <ele>101.2</ele>
        <time>2019-07-11T11:21:23Z</time>
      </trkpt>
      <trkpt lat="48.74852" lon="-3.51024">
        <ele>101</ele>
        <time>2019-07-11T11:21:24Z</time>
      </trkpt>
      <trkpt lat="48.74852" lon="-3.51016">
        <ele>100.2</ele>
        <time>2019-07-11T11:21:25Z</time>
      </trkpt>
      <trkpt lat="48.74852" lon="-3.51008">
        <ele>99.7</ele>
        <time>2019-07-11T11:21:26Z</time>
      </trkpt>
      <trkpt lat="48.74851" lon="-3.51001">
        <ele>99.3</ele>
        <time>2019-07-11T11:21:27Z</time>
      </trkpt>
      <trkpt lat="48.74851" lon="-3.50993">
        <ele>99</ele>
        <time>2019-07-11T11:21:28Z</time>
      </trkpt>
      <trkpt lat="48.74852" lon="-3.50987">
        <ele>99</ele>
        <time>2019-07-11T11:21:29Z</time>
      </trkpt>
      <trkpt lat="48.74852" lon="-3.5098">
        <ele>99.2</ele>
        <time>2019-07-11T11:21:30Z</time>
      </trkpt>
      <trkpt lat="48.74852" lon="-3.50973">
        <ele>99.2</ele>
        <time>2019-07-11T11:21:31Z</time>
      </trkpt>
      <trkpt lat="48.74851" lon="-3.50967">
        <ele>99.3</ele>
        <time>2019-07-11T11:21:32Z</time>
      </trkpt>
      <trkpt lat="48.74851" lon="-3.5096">
        <ele>99.5</ele>
        <time>2019-07-11T11:21:33Z</time>
      </trkpt>
      <trkpt lat="48.74849" lon="-3.50954">
        <ele>99.7</ele>
        <time>2019-07-11T11:21:34Z</time>
      </trkpt>
      <trkpt lat="48.74849" lon="-3.50948">
        <ele>100.1</ele>
        <time>2019-07-11T11:21:35Z</time>
      </trkpt>
      <trkpt lat="48.74848" lon="-3.50941">
        <ele>100.3</ele>
        <time>2019-07-11T11:21:36Z</time>
      </trkpt>
      <trkpt lat="48.74847" lon="-3.50935">
        <ele>100.9</ele>
        <time>2019-07-11T11:21:37Z</time>
      </trkpt>
      <trkpt lat="48.74845" lon="-3.50928">
        <ele>101.5</ele>
        <time>2019-07-11T11:21:38Z</time>
      </trkpt>
      <trkpt lat="48.74843" lon="-3.50922">
        <ele>102</ele>
        <time>2019-07-11T11:21:39Z</time>
      </trkpt>
      <trkpt lat="48.74841" lon="-3.50917">
        <ele>102.6</ele>
        <time>2019-07-11T11:21:40Z</time>
      </trkpt>
      <trkpt lat="48.74839" lon="-3.50913">
        <ele>103.2</ele>
        <time>2019-07-11T11:21:41Z</time>
      </trkpt>
      <trkpt lat="48.74836" lon="-3.50909">
        <ele>103.4</ele>
        <time>2019-07-11T11:21:42Z</time>
      </trkpt>
      <trkpt lat="48.74834" lon="-3.50905">
        <ele>103.5</ele>
        <time>2019-07-11T11:21:43Z</time>
      </trkpt>
      <trkpt lat="48.74831" lon="-3.509">
        <ele>103.6</ele>
        <time>2019-07-11T11:21:44Z</time>
      </trkpt>
      <trkpt lat="48.74828" lon="-3.50896">
        <ele>103.4</ele>
        <time>2019-07-11T11:21:45Z</time>
      </trkpt>
      <trkpt lat="48.74826" lon="-3.50892">
        <ele>103.9</ele>
        <time>2019-07-11T11:21:46Z</time>
      </trkpt>
      <trkpt lat="48.74823" lon="-3.50887">
        <ele>103.8</ele>
        <time>2019-07-11T11:21:47Z</time>
      </trkpt>
      <trkpt lat="48.74821" lon="-3.50882">
        <ele>104</ele>
        <time>2019-07-11T11:21:48Z</time>
      </trkpt>
      <trkpt lat="48.74819" lon="-3.50877">
        <ele>104.3</ele>
        <time>2019-07-11T11:21:49Z</time>
      </trkpt>
      <trkpt lat="48.74818" lon="-3.50872">
        <ele>105</ele>
        <time>2019-07-11T11:21:50Z</time>
      </trkpt>
      <trkpt lat="48.74816" lon="-3.50868">
        <ele>105.2</ele>
        <time>2019-07-11T11:21:51Z</time>
      </trkpt>
      <trkpt lat="48.74813" lon="-3.50863">
        <ele>105.4</ele>
        <time>2019-07-11T11:21:52Z</time>
      </trkpt>
      <trkpt lat="48.7481" lon="-3.50858">
        <ele>105.9</ele>
        <time>2019-07-11T11:21:53Z</time>
      </trkpt>
      <trkpt lat="48.74809" lon="-3.50854">
        <ele>106.6</ele>
        <time>2019-07-11T11:21:54Z</time>
      </trkpt>
      <trkpt lat="48.74807" lon="-3.5085">
        <ele>107.4</ele>
        <time>2019-07-11T11:21:55Z</time>
      </trkpt>
      <trkpt lat="48.74806" lon="-3.50845">
        <ele>108.1</ele>
        <time>2019-07-11T11:21:56Z</time>
      </trkpt>
      <trkpt lat="48.74805" lon="-3.50839">
        <ele>108.7</ele>
        <time>2019-07-11T11:21:57Z</time>
      </trkpt>
      <trkpt lat="48.74804" lon="-3.50833">
        <ele>110.3</ele>
        <time>2019-07-11T11:21:58Z</time>
      </trkpt>
      <trkpt lat="48.74804" lon="-3.50827">
        <ele>110.8</ele>
        <time>2019-07-11T11:21:59Z</time>
      </trkpt>
      <trkpt lat="48.74803" lon="-3.5082">
        <ele>110.4</ele>
        <time>2019-07-11T11:22:00Z</time>
      </trkpt>
      <trkpt lat="48.74802" lon="-3.50814">
        <ele>110</ele>
        <time>2019-07-11T11:22:01Z</time>
      </trkpt>
      <trkpt lat="48.74801" lon="-3.50807">
        <ele>109.2</ele>
        <time>2019-07-11T11:22:02Z</time>
      </trkpt>
      <trkpt lat="48.74801" lon="-3.50801">
        <ele>108</ele>
        <time>2019-07-11T11:22:03Z</time>
      </trkpt>
      <trkpt lat="48.748" lon="-3.50795">
        <ele>107</ele>
        <time>2019-07-11T11:22:04Z</time>
      </trkpt>
      <trkpt lat="48.74799" lon="-3.50788">
        <ele>106.1</ele>
        <time>2019-07-11T11:22:05Z</time>
      </trkpt>
      <trkpt lat="48.74799" lon="-3.50782">
        <ele>105.7</ele>
        <time>2019-07-11T11:22:06Z</time>
      </trkpt>
      <trkpt lat="48.74799" lon="-3.50775">
        <ele>104.9</ele>
        <time>2019-07-11T11:22:07Z</time>
      </trkpt>
      <trkpt lat="48.74799" lon="-3.50769">
        <ele>104.2</ele>
        <time>2019-07-11T11:22:08Z</time>
      </trkpt>
      <trkpt lat="48.74799" lon="-3.50762">
        <ele>103.4</ele>
        <time>2019-07-11T11:22:09Z</time>
      </trkpt>
      <trkpt lat="48.74799" lon="-3.50754">
        <ele>102.4</ele>
        <time>2019-07-11T11:22:10Z</time>
      </trkpt>
      <trkpt lat="48.74799" lon="-3.50747">
        <ele>102.2</ele>
        <time>2019-07-11T11:22:11Z</time>
      </trkpt>
      <trkpt lat="48.74799" lon="-3.5074">
        <ele>101.7</ele>
        <time>2019-07-11T11:22:12Z</time>
      </trkpt>
      <trkpt lat="48.74799" lon="-3.50733">
        <ele>101.3</ele>
        <time>2019-07-11T11:22:13Z</time>
      </trkpt>
      <trkpt lat="48.74799" lon="-3.50727">
        <ele>101.2</ele>
        <time>2019-07-11T11:22:14Z</time>
      </trkpt>
      <trkpt lat="48.74798" lon="-3.50719">
        <ele>100.9</ele>
        <time>2019-07-11T11:22:15Z</time>
      </trkpt>
      <trkpt lat="48.74798" lon="-3.50712">
        <ele>101.1</ele>
        <time>2019-07-11T11:22:16Z</time>
      </trkpt>
      <trkpt lat="48.74797" lon="-3.50705">
        <ele>101.3</ele>
        <time>2019-07-11T11:22:17Z</time>
      </trkpt>
      <trkpt lat="48.74797" lon="-3.50698">
        <ele>101.4</ele>
        <time>2019-07-11T11:22:18Z</time>
      </trkpt>
      <trkpt lat="48.74797" lon="-3.50691">
        <ele>101.8</ele>
        <time>2019-07-11T11:22:19Z</time>
      </trkpt>
      <trkpt lat="48.74797" lon="-3.50684">
        <ele>101.9</ele>
        <time>2019-07-11T11:22:20Z</time>
      </trkpt>
      <trkpt lat="48.74796" lon="-3.50678">
        <ele>102.1</ele>
        <time>2019-07-11T11:22:21Z</time>
      </trkpt>
      <trkpt lat="48.74796" lon="-3.50671">
        <ele>102.3</ele>
        <time>2019-07-11T11:22:22Z</time>
      </trkpt>
      <trkpt lat="48.74796" lon="-3.50664">
        <ele>102.4</ele>
        <time>2019-07-11T11:22:23Z</time>
      </trkpt>
      <trkpt lat="48.74795" lon="-3.50657">
        <ele>102.6</ele>
        <time>2019-07-11T11:22:24Z</time>
      </trkpt>
      <trkpt lat="48.74795" lon="-3.5065">
        <ele>102.8</ele>
        <time>2019-07-11T11:22:25Z</time>
      </trkpt>
      <trkpt lat="48.74795" lon="-3.50643">
        <ele>102.9</ele>
        <time>2019-07-11T11:22:26Z</time>
      </trkpt>
      <trkpt lat="48.74794" lon="-3.50636">
        <ele>103.2</ele>
        <time>2019-07-11T11:22:27Z</time>
      </trkpt>
      <trkpt lat="48.74794" lon="-3.50629">
        <ele>103.9</ele>
        <time>2019-07-11T11:22:28Z</time>
      </trkpt>
      <trkpt lat="48.74793" lon="-3.50622">
        <ele>104.3</ele>
        <time>2019-07-11T11:22:29Z</time>
      </trkpt>
      <trkpt lat="48.74792" lon="-3.50615">
        <ele>104.5</ele>
        <time>2019-07-11T11:22:30Z</time>
      </trkpt>
      <trkpt lat="48.74791" lon="-3.50608">
        <ele>104.6</ele>
        <time>2019-07-11T11:22:31Z</time>
      </trkpt>
      <trkpt lat="48.74789" lon="-3.50602">
        <ele>104.8</ele>
        <time>2019-07-11T11:22:32Z</time>
      </trkpt>
      <trkpt lat="48.74786" lon="-3.50596">
        <ele>105.4</ele>
        <time>2019-07-11T11:22:33Z</time>
      </trkpt>
      <trkpt lat="48.74784" lon="-3.50591">
        <ele>106</ele>
        <time>2019-07-11T11:22:34Z</time>
      </trkpt>
      <trkpt lat="48.74781" lon="-3.50585">
        <ele>106.2</ele>
        <time>2019-07-11T11:22:35Z</time>
      </trkpt>
      <trkpt lat="48.74778" lon="-3.50579">
        <ele>106.9</ele>
        <time>2019-07-11T11:22:36Z</time>
      </trkpt>
      <trkpt lat="48.74775" lon="-3.50574">
        <ele>107.6</ele>
        <time>2019-07-11T11:22:37Z</time>
      </trkpt>
      <trkpt lat="48.74773" lon="-3.50569">
        <ele>108.2</ele>
        <time>2019-07-11T11:22:38Z</time>
      </trkpt>
      <trkpt lat="48.74768" lon="-3.50563">
        <ele>107.7</ele>
        <time>2019-07-11T11:22:39Z</time>
      </trkpt>
      <trkpt lat="48.74762" lon="-3.50558">
        <ele>106.6</ele>
        <time>2019-07-11T11:22:40Z</time>
      </trkpt>
      <trkpt lat="48.74757" lon="-3.50553">
        <ele>104.7</ele>
        <time>2019-07-11T11:22:41Z</time>
      </trkpt>
      <trkpt lat="48.74752" lon="-3.50547">
        <ele>103.5</ele>
        <time>2019-07-11T11:22:42Z</time>
      </trkpt>
      <trkpt lat="48.74748" lon="-3.5054">
        <ele>102.4</ele>
        <time>2019-07-11T11:22:43Z</time>
      </trkpt>
      <trkpt lat="48.74743" lon="-3.50534">
        <ele>101.9</ele>
        <time>2019-07-11T11:22:44Z</time>
      </trkpt>
      <trkpt lat="48.74738" lon="-3.5053">
        <ele>101.8</ele>
        <time>2019-07-11T11:22:45Z</time>
      </trkpt>
      <trkpt lat="48.74734" lon="-3.50523">
        <ele>101.4</ele>
        <time>2019-07-11T11:22:46Z</time>
      </trkpt>
      <trkpt lat="48.74731" lon="-3.50515">
        <ele>100.9</ele>
        <time>2019-07-11T11:22:47Z</time>
      </trkpt>
      <trkpt lat="48.74727" lon="-3.50508">
        <ele>100.4</ele>
        <time>2019-07-11T11:22:48Z</time>
      </trkpt>
      <trkpt lat="48.74723" lon="-3.50501">
        <ele>99.5</ele>
        <time>2019-07-11T11:22:49Z</time>
      </trkpt>
      <trkpt lat="48.74719" lon="-3.50494">
        <ele>99.2</ele>
        <time>2019-07-11T11:22:50Z</time>
      </trkpt>
      <trkpt lat="48.74714" lon="-3.50485">
        <ele>97.6</ele>
        <time>2019-07-11T11:22:51Z</time>
      </trkpt>
      <trkpt lat="48.74711" lon="-3.50477">
        <ele>97.5</ele>
        <time>2019-07-11T11:22:52Z</time>
      </trkpt>
      <trkpt lat="48.74707" lon="-3.5047">
        <ele>97.3</ele>
        <time>2019-07-11T11:22:53Z</time>
      </trkpt>
      <trkpt lat="48.74703" lon="-3.50463">
        <ele>97.1</ele>
        <time>2019-07-11T11:22:54Z</time>
      </trkpt>
      <trkpt lat="48.74699" lon="-3.50457">
        <ele>97</ele>
        <time>2019-07-11T11:22:55Z</time>
      </trkpt>
      <trkpt lat="48.74696" lon="-3.5045">
        <ele>97.3</ele>
        <time>2019-07-11T11:22:56Z</time>
      </trkpt>
      <trkpt lat="48.74692" lon="-3.50444">
        <ele>97.9</ele>
        <time>2019-07-11T11:22:57Z</time>
      </trkpt>
      <trkpt lat="48.74688" lon="-3.50438">
        <ele>98.9</ele>
        <time>2019-07-11T11:22:58Z</time>
      </trkpt>
      <trkpt lat="48.74685" lon="-3.50433">
        <ele>99.4</ele>
        <time>2019-07-11T11:22:59Z</time>
      </trkpt>
      <trkpt lat="48.74682" lon="-3.50427">
        <ele>99.5</ele>
        <time>2019-07-11T11:23:00Z</time>
      </trkpt>
      <trkpt lat="48.74678" lon="-3.50421">
        <ele>99.8</ele>
        <time>2019-07-11T11:23:01Z</time>
      </trkpt>
      <trkpt lat="48.74675" lon="-3.50415">
        <ele>100</ele>
        <time>2019-07-11T11:23:02Z</time>
      </trkpt>
      <trkpt lat="48.74671" lon="-3.50409">
        <ele>100.6</ele>
        <time>2019-07-11T11:23:03Z</time>
      </trkpt>
      <trkpt lat="48.74668" lon="-3.50404">
        <ele>100.9</ele>
        <time>2019-07-11T11:23:04Z</time>
      </trkpt>
      <trkpt lat="48.74665" lon="-3.50398">
        <ele>101.2</ele>
        <time>2019-07-11T11:23:05Z</time>
      </trkpt>
      <trkpt lat="48.74661" lon="-3.50394">
        <ele>101.8</ele>
        <time>2019-07-11T11:23:06Z</time>
      </trkpt>
      <trkpt lat="48.74658" lon="-3.50388">
        <ele>102.4</ele>
        <time>2019-07-11T11:23:07Z</time>
      </trkpt>
      <trkpt lat="48.74654" lon="-3.50383">
        <ele>102.8</ele>
        <time>2019-07-11T11:23:08Z</time>
      </trkpt>
      <trkpt lat="48.74652" lon="-3.50376">
        <ele>104.2</ele>
        <time>2019-07-11T11:23:09Z</time>
      </trkpt>
      <trkpt lat="48.74649" lon="-3.5037">
        <ele>104.5</ele>
        <time>2019-07-11T11:23:10Z</time>
      </trkpt>
      <trkpt lat="48.74645" lon="-3.50365">
        <ele>104</ele>
        <time>2019-07-11T11:23:11Z</time>
      </trkpt>
      <trkpt lat="48.74641" lon="-3.5036">
        <ele>103.7</ele>
        <time>2019-07-11T11:23:12Z</time>
      </trkpt>
      <trkpt lat="48.74637" lon="-3.50354">
        <ele>103.4</ele>
        <time>2019-07-11T11:23:13Z</time>
      </trkpt>
      <trkpt lat="48.74633" lon="-3.50348">
        <ele>102.8</ele>
        <time>2019-07-11T11:23:14Z</time>
      </trkpt>
      <trkpt lat="48.74629" lon="-3.50342">
        <ele>102</ele>
        <time>2019-07-11T11:23:15Z</time>
      </trkpt>
      <trkpt lat="48.74626" lon="-3.50336">
        <ele>102.2</ele>
        <time>2019-07-11T11:23:16Z</time>
      </trkpt>
      <trkpt lat="48.74622" lon="-3.5033">
        <ele>102.1</ele>
        <time>2019-07-11T11:23:17Z</time>
      </trkpt>
      <trkpt lat="48.74618" lon="-3.50325">
        <ele>102.5</ele>
        <time>2019-07-11T11:23:18Z</time>
      </trkpt>
      <trkpt lat="48.74614" lon="-3.50319">
        <ele>102.4</ele>
        <time>2019-07-11T11:23:19Z</time>
      </trkpt>
      <trkpt lat="48.7461" lon="-3.50313">
        <ele>101.8</ele>
        <time>2019-07-11T11:23:20Z</time>
      </trkpt>
      <trkpt lat="48.74607" lon="-3.50307">
        <ele>100.6</ele>
        <time>2019-07-11T11:23:21Z</time>
      </trkpt>
      <trkpt lat="48.74603" lon="-3.50301">
        <ele>99.6</ele>
        <time>2019-07-11T11:23:22Z</time>
      </trkpt>
      <trkpt lat="48.74599" lon="-3.50294">
        <ele>98.7</ele>
        <time>2019-07-11T11:23:23Z</time>
      </trkpt>
      <trkpt lat="48.74595" lon="-3.50288">
        <ele>97.9</ele>
        <time>2019-07-11T11:23:24Z</time>
      </trkpt>
      <trkpt lat="48.74591" lon="-3.50282">
        <ele>97.1</ele>
        <time>2019-07-11T11:23:25Z</time>
      </trkpt>
      <trkpt lat="48.74587" lon="-3.50276">
        <ele>96.3</ele>
        <time>2019-07-11T11:23:26Z</time>
      </trkpt>
      <trkpt lat="48.74583" lon="-3.5027">
        <ele>95.8</ele>
        <time>2019-07-11T11:23:27Z</time>
      </trkpt>
      <trkpt lat="48.7458" lon="-3.50263">
        <ele>95.7</ele>
        <time>2019-07-11T11:23:28Z</time>
      </trkpt>
      <trkpt lat="48.74576" lon="-3.50257">
        <ele>95.8</ele>
        <time>2019-07-11T11:23:29Z</time>
      </trkpt>
      <trkpt lat="48.74572" lon="-3.5025">
        <ele>95.2</ele>
        <time>2019-07-11T11:23:30Z</time>
      </trkpt>
      <trkpt lat="48.74567" lon="-3.50244">
        <ele>94.8</ele>
        <time>2019-07-11T11:23:31Z</time>
      </trkpt>
      <trkpt lat="48.74563" lon="-3.50237">
        <ele>94.1</ele>
        <time>2019-07-11T11:23:32Z</time>
      </trkpt>
      <trkpt lat="48.74559" lon="-3.5023">
        <ele>93.5</ele>
        <time>2019-07-11T11:23:33Z</time>
      </trkpt>
      <trkpt lat="48.74554" lon="-3.50223">
        <ele>93.2</ele>
        <time>2019-07-11T11:23:34Z</time>
      </trkpt>
      <trkpt lat="48.7455" lon="-3.50217">
        <ele>92.9</ele>
        <time>2019-07-11T11:23:35Z</time>
      </trkpt>
      <trkpt lat="48.74546" lon="-3.50209">
        <ele>92.7</ele>
        <time>2019-07-11T11:23:36Z</time>
      </trkpt>
      <trkpt lat="48.74542" lon="-3.50202">
        <ele>92.6</ele>
        <time>2019-07-11T11:23:37Z</time>
      </trkpt>
      <trkpt lat="48.74537" lon="-3.50194">
        <ele>92.4</ele>
        <time>2019-07-11T11:23:38Z</time>
      </trkpt>
      <trkpt lat="48.74532" lon="-3.50187">
        <ele>92.1</ele>
        <time>2019-07-11T11:23:39Z</time>
      </trkpt>
      <trkpt lat="48.74528" lon="-3.50179">
        <ele>91.9</ele>
        <time>2019-07-11T11:23:40Z</time>
      </trkpt>
      <trkpt lat="48.74524" lon="-3.50172">
        <ele>91.8</ele>
        <time>2019-07-11T11:23:41Z</time>
      </trkpt>
      <trkpt lat="48.74519" lon="-3.50165">
        <ele>91.7</ele>
        <time>2019-07-11T11:23:42Z</time>
      </trkpt>
      <trkpt lat="48.74515" lon="-3.50157">
        <ele>91.5</ele>
        <time>2019-07-11T11:23:43Z</time>
      </trkpt>
      <trkpt lat="48.7451" lon="-3.5015">
        <ele>91.5</ele>
        <time>2019-07-11T11:23:44Z</time>
      </trkpt>
      <trkpt lat="48.74506" lon="-3.50143">
        <ele>91.6</ele>
        <time>2019-07-11T11:23:45Z</time>
      </trkpt>
      <trkpt lat="48.74502" lon="-3.50135">
        <ele>91.9</ele>
        <time>2019-07-11T11:23:46Z</time>
      </trkpt>
      <trkpt lat="48.74497" lon="-3.50127">
        <ele>92.2</ele>
        <time>2019-07-11T11:23:47Z</time>
      </trkpt>
      <trkpt lat="48.74492" lon="-3.50121">
        <ele>92.2</ele>
        <time>2019-07-11T11:23:48Z</time>
      </trkpt>
      <trkpt lat="48.74487" lon="-3.50114">
        <ele>92.3</ele>
        <time>2019-07-11T11:23:49Z</time>
      </trkpt>
      <trkpt lat="48.74482" lon="-3.50106">
        <ele>92.4</ele>
        <time>2019-07-11T11:23:50Z</time>
      </trkpt>
      <trkpt lat="48.74477" lon="-3.50099">
        <ele>92.7</ele>
        <time>2019-07-11T11:23:51Z</time>
      </trkpt>
      <trkpt lat="48.74472" lon="-3.50094">
        <ele>92.9</ele>
        <time>2019-07-11T11:23:52Z</time>
      </trkpt>
      <trkpt lat="48.74468" lon="-3.5009">
        <ele>93</ele>
        <time>2019-07-11T11:23:53Z</time>
      </trkpt>
      <trkpt lat="48.74464" lon="-3.50087">
        <ele>92.8</ele>
        <time>2019-07-11T11:23:54Z</time>
      </trkpt>
      <trkpt lat="48.74461" lon="-3.50085">
        <ele>92.8</ele>
        <time>2019-07-11T11:23:55Z</time>
      </trkpt>
      <trkpt lat="48.74458" lon="-3.50083">
        <ele>92.7</ele>
        <time>2019-07-11T11:23:56Z</time>
      </trkpt>
      <trkpt lat="48.74456" lon="-3.5008">
        <ele>92.3</ele>
        <time>2019-07-11T11:23:57Z</time>
      </trkpt>
      <trkpt lat="48.74454" lon="-3.50076">
        <ele>92.1</ele>
        <time>2019-07-11T11:23:58Z</time>
      </trkpt>
      <trkpt lat="48.74453" lon="-3.50071">
        <ele>92.1</ele>
        <time>2019-07-11T11:23:59Z</time>
      </trkpt>
      <trkpt lat="48.74452" lon="-3.50067">
        <ele>91.8</ele>
        <time>2019-07-11T11:24:00Z</time>
      </trkpt>
      <trkpt lat="48.74451" lon="-3.50062">
        <ele>91.4</ele>
        <time>2019-07-11T11:24:01Z</time>
      </trkpt>
      <trkpt lat="48.74451" lon="-3.50056">
        <ele>91.4</ele>
        <time>2019-07-11T11:24:02Z</time>
      </trkpt>
      <trkpt lat="48.74451" lon="-3.5005">
        <ele>91.3</ele>
        <time>2019-07-11T11:24:03Z</time>
      </trkpt>
      <trkpt lat="48.74452" lon="-3.50043">
        <ele>91.4</ele>
        <time>2019-07-11T11:24:04Z</time>
      </trkpt>
      <trkpt lat="48.74452" lon="-3.50036">
        <ele>91.3</ele>
        <time>2019-07-11T11:24:05Z</time>
      </trkpt>
      <trkpt lat="48.74452" lon="-3.50029">
        <ele>91.5</ele>
        <time>2019-07-11T11:24:06Z</time>
      </trkpt>
      <trkpt lat="48.74453" lon="-3.50022">
        <ele>91.6</ele>
        <time>2019-07-11T11:24:07Z</time>
      </trkpt>
      <trkpt lat="48.74455" lon="-3.50014">
        <ele>91.6</ele>
        <time>2019-07-11T11:24:08Z</time>
      </trkpt>
      <trkpt lat="48.74455" lon="-3.50006">
        <ele>91.7</ele>
        <time>2019-07-11T11:24:09Z</time>
      </trkpt>
      <trkpt lat="48.74456" lon="-3.49998">
        <ele>91.6</ele>
        <time>2019-07-11T11:24:10Z</time>
      </trkpt>
      <trkpt lat="48.74458" lon="-3.4999">
        <ele>91.7</ele>
        <time>2019-07-11T11:24:11Z</time>
      </trkpt>
      <trkpt lat="48.7446" lon="-3.49982">
        <ele>91.6</ele>
        <time>2019-07-11T11:24:12Z</time>
      </trkpt>
      <trkpt lat="48.74461" lon="-3.49973">
        <ele>91.8</ele>
        <time>2019-07-11T11:24:13Z</time>
      </trkpt>
      <trkpt lat="48.74463" lon="-3.49965">
        <ele>91.6</ele>
        <time>2019-07-11T11:24:14Z</time>
      </trkpt>
      <trkpt lat="48.74465" lon="-3.49957">
        <ele>91.7</ele>
        <time>2019-07-11T11:24:15Z</time>
      </trkpt>
      <trkpt lat="48.74467" lon="-3.49948">
        <ele>91.6</ele>
        <time>2019-07-11T11:24:16Z</time>
      </trkpt>
      <trkpt lat="48.74469" lon="-3.49939">
        <ele>91.8</ele>
        <time>2019-07-11T11:24:17Z</time>
      </trkpt>
      <trkpt lat="48.74472" lon="-3.49931">
        <ele>92</ele>
        <time>2019-07-11T11:24:18Z</time>
      </trkpt>
      <trkpt lat="48.74474" lon="-3.49922">
        <ele>92.1</ele>
        <time>2019-07-11T11:24:19Z</time>
      </trkpt>
      <trkpt lat="48.74476" lon="-3.49913">
        <ele>92.1</ele>
        <time>2019-07-11T11:24:20Z</time>
      </trkpt>
      <trkpt lat="48.74478" lon="-3.49905">
        <ele>91.9</ele>
        <time>2019-07-11T11:24:21Z</time>
      </trkpt>
      <trkpt lat="48.7448" lon="-3.49896">
        <ele>91.9</ele>
        <time>2019-07-11T11:24:22Z</time>
      </trkpt>
      <trkpt lat="48.74483" lon="-3.49888">
        <ele>91.9</ele>
        <time>2019-07-11T11:24:23Z</time>
      </trkpt>
      <trkpt lat="48.74486" lon="-3.49879">
        <ele>91.9</ele>
        <time>2019-07-11T11:24:24Z</time>
      </trkpt>
      <trkpt lat="48.74488" lon="-3.49869">
        <ele>91.8</ele>
        <time>2019-07-11T11:24:25Z</time>
      </trkpt>
      <trkpt lat="48.7449" lon="-3.4986">
        <ele>91.8</ele>
        <time>2019-07-11T11:24:26Z</time>
      </trkpt>
      <trkpt lat="48.74493" lon="-3.49849">
        <ele>91.4</ele>
        <time>2019-07-11T11:24:27Z</time>
      </trkpt>
      <trkpt lat="48.74494" lon="-3.49838">
        <ele>91.2</ele>
        <time>2019-07-11T11:24:28Z</time>
      </trkpt>
      <trkpt lat="48.74496" lon="-3.49826">
        <ele>90.7</ele>
        <time>2019-07-11T11:24:29Z</time>
      </trkpt>
      <trkpt lat="48.74498" lon="-3.49815">
        <ele>90.5</ele>
        <time>2019-07-11T11:24:30Z</time>
      </trkpt>
      <trkpt lat="48.745" lon="-3.49804">
        <ele>90.7</ele>
        <time>2019-07-11T11:24:31Z</time>
      </trkpt>
      <trkpt lat="48.74502" lon="-3.49793">
        <ele>90.9</ele>
        <time>2019-07-11T11:24:32Z</time>
      </trkpt>
      <trkpt lat="48.74503" lon="-3.49781">
        <ele>91</ele>
        <time>2019-07-11T11:24:33Z</time>
      </trkpt>
      <trkpt lat="48.74505" lon="-3.49772">
        <ele>91.4</ele>
        <time>2019-07-11T11:24:34Z</time>
      </trkpt>
      <trkpt lat="48.74506" lon="-3.49761">
        <ele>91.9</ele>
        <time>2019-07-11T11:24:35Z</time>
      </trkpt>
      <trkpt lat="48.74508" lon="-3.49751">
        <ele>92.1</ele>
        <time>2019-07-11T11:24:36Z</time>
      </trkpt>
      <trkpt lat="48.74509" lon="-3.4974">
        <ele>92.2</ele>
        <time>2019-07-11T11:24:37Z</time>
      </trkpt>
      <trkpt lat="48.74511" lon="-3.49731">
        <ele>92.3</ele>
        <time>2019-07-11T11:24:38Z</time>
      </trkpt>
      <trkpt lat="48.74512" lon="-3.49721">
        <ele>92.4</ele>
        <time>2019-07-11T11:24:39Z</time>
      </trkpt>
      <trkpt lat="48.74514" lon="-3.49711">
        <ele>92.2</ele>
        <time>2019-07-11T11:24:40Z</time>
      </trkpt>
      <trkpt lat="48.74514" lon="-3.49702">
        <ele>92</ele>
        <time>2019-07-11T11:24:41Z</time>
      </trkpt>
      <trkpt lat="48.74516" lon="-3.49693">
        <ele>91.5</ele>
        <time>2019-07-11T11:24:42Z</time>
      </trkpt>
      <trkpt lat="48.74517" lon="-3.49683">
        <ele>90.9</ele>
        <time>2019-07-11T11:24:43Z</time>
      </trkpt>
      <trkpt lat="48.74518" lon="-3.49673">
        <ele>90</ele>
        <time>2019-07-11T11:24:44Z</time>
      </trkpt>
      <trkpt lat="48.74518" lon="-3.49666">
        <ele>88.7</ele>
        <time>2019-07-11T11:24:45Z</time>
      </trkpt>
      <trkpt lat="48.74518" lon="-3.49658">
        <ele>88</ele>
        <time>2019-07-11T11:24:46Z</time>
      </trkpt>
      <trkpt lat="48.74518" lon="-3.49649">
        <ele>87.3</ele>
        <time>2019-07-11T11:24:47Z</time>
      </trkpt>
      <trkpt lat="48.74518" lon="-3.49641">
        <ele>86.9</ele>
        <time>2019-07-11T11:24:48Z</time>
      </trkpt>
      <trkpt lat="48.74517" lon="-3.49634">
        <ele>86.2</ele>
        <time>2019-07-11T11:24:49Z</time>
      </trkpt>
      <trkpt lat="48.74517" lon="-3.49627">
        <ele>85.7</ele>
        <time>2019-07-11T11:24:50Z</time>
      </trkpt>
      <trkpt lat="48.74516" lon="-3.4962">
        <ele>85.4</ele>
        <time>2019-07-11T11:24:51Z</time>
      </trkpt>
      <trkpt lat="48.74516" lon="-3.49613">
        <ele>85</ele>
        <time>2019-07-11T11:24:52Z</time>
      </trkpt>
      <trkpt lat="48.74515" lon="-3.49607">
        <ele>84.8</ele>
        <time>2019-07-11T11:24:53Z</time>
      </trkpt>
      <trkpt lat="48.74514" lon="-3.49601">
        <ele>85.1</ele>
        <time>2019-07-11T11:24:54Z</time>
      </trkpt>
      <trkpt lat="48.74514" lon="-3.49595">
        <ele>85.6</ele>
        <time>2019-07-11T11:24:55Z</time>
      </trkpt>
      <trkpt lat="48.74514" lon="-3.4959">
        <ele>86.1</ele>
        <time>2019-07-11T11:24:56Z</time>
      </trkpt>
      <trkpt lat="48.74514" lon="-3.49585">
        <ele>86.8</ele>
        <time>2019-07-11T11:24:57Z</time>
      </trkpt>
      <trkpt lat="48.74514" lon="-3.4958">
        <ele>86.8</ele>
        <time>2019-07-11T11:24:58Z</time>
      </trkpt>
      <trkpt lat="48.74513" lon="-3.49575">
        <ele>86.9</ele>
        <time>2019-07-11T11:24:59Z</time>
      </trkpt>
      <trkpt lat="48.74513" lon="-3.4957">
        <ele>86.8</ele>
        <time>2019-07-11T11:25:00Z</time>
      </trkpt>
      <trkpt lat="48.74512" lon="-3.49565">
        <ele>86.9</ele>
        <time>2019-07-11T11:25:01Z</time>
      </trkpt>
      <trkpt lat="48.74512" lon="-3.4956">
        <ele>87.1</ele>
        <time>2019-07-11T11:25:02Z</time>
      </trkpt>
      <trkpt lat="48.74512" lon="-3.49554">
        <ele>87.4</ele>
        <time>2019-07-11T11:25:03Z</time>
      </trkpt>
      <trkpt lat="48.74511" lon="-3.49548">
        <ele>87.7</ele>
        <time>2019-07-11T11:25:04Z</time>
      </trkpt>
      <trkpt lat="48.74511" lon="-3.49543">
        <ele>88.2</ele>
        <time>2019-07-11T11:25:05Z</time>
      </trkpt>
      <trkpt lat="48.74511" lon="-3.49537">
        <ele>88.6</ele>
        <time>2019-07-11T11:25:06Z</time>
      </trkpt>
      <trkpt lat="48.74512" lon="-3.49532">
        <ele>88.9</ele>
        <time>2019-07-11T11:25:07Z</time>
      </trkpt>
      <trkpt lat="48.74512" lon="-3.49528">
        <ele>89</ele>
        <time>2019-07-11T11:25:08Z</time>
      </trkpt>
      <trkpt lat="48.74513" lon="-3.49523">
        <ele>89.3</ele>
        <time>2019-07-11T11:25:09Z</time>
      </trkpt>
      <trkpt lat="48.74513" lon="-3.49518">
        <ele>89.7</ele>
        <time>2019-07-11T11:25:10Z</time>
      </trkpt>
      <trkpt lat="48.74514" lon="-3.49513">
        <ele>89.9</ele>
        <time>2019-07-11T11:25:11Z</time>
      </trkpt>
      <trkpt lat="48.74514" lon="-3.49509">
        <ele>90</ele>
        <time>2019-07-11T11:25:12Z</time>
      </trkpt>
      <trkpt lat="48.74515" lon="-3.49504">
        <ele>90.4</ele>
        <time>2019-07-11T11:25:13Z</time>
      </trkpt>
      <trkpt lat="48.74516" lon="-3.495">
        <ele>91.1</ele>
        <time>2019-07-11T11:25:14Z</time>
      </trkpt>
      <trkpt lat="48.74517" lon="-3.49496">
        <ele>90.8</ele>
        <time>2019-07-11T11:25:15Z</time>
      </trkpt>
      <trkpt lat="48.74517" lon="-3.49491">
        <ele>90.8</ele>
        <time>2019-07-11T11:25:16Z</time>
      </trkpt>
      <trkpt lat="48.74518" lon="-3.49487">
        <ele>91</ele>
        <time>2019-07-11T11:25:17Z</time>
      </trkpt>
      <trkpt lat="48.74519" lon="-3.49483">
        <ele>91.2</ele>
        <time>2019-07-11T11:25:18Z</time>
      </trkpt>
      <trkpt lat="48.7452" lon="-3.49479">
        <ele>91.6</ele>
        <time>2019-07-11T11:25:19Z</time>
      </trkpt>
      <trkpt lat="48.74521" lon="-3.49476">
        <ele>92.1</ele>
        <time>2019-07-11T11:25:20Z</time>
      </trkpt>
      <trkpt lat="48.74522" lon="-3.49472">
        <ele>92.6</ele>
        <time>2019-07-11T11:25:21Z</time>
      </trkpt>
      <trkpt lat="48.74524" lon="-3.49468">
        <ele>93.4</ele>
        <time>2019-07-11T11:25:22Z</time>
      </trkpt>
      <trkpt lat="48.74526" lon="-3.49464">
        <ele>93.6</ele>
        <time>2019-07-11T11:25:23Z</time>
      </trkpt>
      <trkpt lat="48.74527" lon="-3.49461">
        <ele>93.7</ele>
        <time>2019-07-11T11:25:24Z</time>
      </trkpt>
      <trkpt lat="48.74528" lon="-3.49457">
        <ele>93.7</ele>
        <time>2019-07-11T11:25:25Z</time>
      </trkpt>
      <trkpt lat="48.74529" lon="-3.49454">
        <ele>93.9</ele>
        <time>2019-07-11T11:25:26Z</time>
      </trkpt>
      <trkpt lat="48.7453" lon="-3.49451">
        <ele>94.3</ele>
        <time>2019-07-11T11:25:27Z</time>
      </trkpt>
      <trkpt lat="48.74532" lon="-3.49448">
        <ele>94.4</ele>
        <time>2019-07-11T11:25:28Z</time>
      </trkpt>
      <trkpt lat="48.74533" lon="-3.49445">
        <ele>94.5</ele>
        <time>2019-07-11T11:25:29Z</time>
      </trkpt>
      <trkpt lat="48.74534" lon="-3.49441">
        <ele>94.7</ele>
        <time>2019-07-11T11:25:30Z</time>
      </trkpt>
      <trkpt lat="48.74536" lon="-3.49438">
        <ele>95.1</ele>
        <time>2019-07-11T11:25:31Z</time>
      </trkpt>
      <trkpt lat="48.74538" lon="-3.49437">
        <ele>97.1</ele>
        <time>2019-07-11T11:25:32Z</time>
      </trkpt>
      <trkpt lat="48.7454" lon="-3.49433">
        <ele>97.6</ele>
        <time>2019-07-11T11:25:33Z</time>
      </trkpt>
      <trkpt lat="48.74542" lon="-3.49431">
        <ele>98.1</ele>
        <time>2019-07-11T11:25:34Z</time>
      </trkpt>
      <trkpt lat="48.74544" lon="-3.49428">
        <ele>98.2</ele>
        <time>2019-07-11T11:25:35Z</time>
      </trkpt>
      <trkpt lat="48.74545" lon="-3.49425">
        <ele>98.5</ele>
        <time>2019-07-11T11:25:36Z</time>
      </trkpt>
      <trkpt lat="48.74547" lon="-3.49422">
        <ele>98.6</ele>
        <time>2019-07-11T11:25:37Z</time>
      </trkpt>
      <trkpt lat="48.74548" lon="-3.49418">
        <ele>98.6</ele>
        <time>2019-07-11T11:25:38Z</time>
      </trkpt>
      <trkpt lat="48.7455" lon="-3.49415">
        <ele>98.8</ele>
        <time>2019-07-11T11:25:39Z</time>
      </trkpt>
      <trkpt lat="48.74552" lon="-3.49411">
        <ele>98.9</ele>
        <time>2019-07-11T11:25:40Z</time>
      </trkpt>
      <trkpt lat="48.74554" lon="-3.49408">
        <ele>98.7</ele>
        <time>2019-07-11T11:25:41Z</time>
      </trkpt>
      <trkpt lat="48.74555" lon="-3.49405">
        <ele>98.4</ele>
        <time>2019-07-11T11:25:42Z</time>
      </trkpt>
      <trkpt lat="48.74557" lon="-3.49402">
        <ele>98.3</ele>
        <time>2019-07-11T11:25:43Z</time>
      </trkpt>
      <trkpt lat="48.74558" lon="-3.49399">
        <ele>98.9</ele>
        <time>2019-07-11T11:25:44Z</time>
      </trkpt>
      <trkpt lat="48.74559" lon="-3.49397">
        <ele>98.7</ele>
        <time>2019-07-11T11:25:45Z</time>
      </trkpt>
      <trkpt lat="48.74559" lon="-3.49396">
        <ele>98.7</ele>
        <time>2019-07-11T11:25:46Z</time>
      </trkpt>
      <trkpt lat="48.74559" lon="-3.49394">
        <ele>98.9</ele>
        <time>2019-07-11T11:25:47Z</time>
      </trkpt>
      <trkpt lat="48.74559" lon="-3.49392">
        <ele>98.7</ele>
        <time>2019-07-11T11:25:48Z</time>
      </trkpt>
      <trkpt lat="48.74559" lon="-3.49391">
        <ele>98.8</ele>
        <time>2019-07-11T11:25:49Z</time>
      </trkpt>
      <trkpt lat="48.7456" lon="-3.49382">
        <ele>100.3</ele>
        <time>2019-07-11T11:26:29Z</time>
      </trkpt>
      <trkpt lat="48.74562" lon="-3.4938">
        <ele>100.8</ele>
        <time>2019-07-11T11:26:30Z</time>
      </trkpt>
      <trkpt lat="48.74564" lon="-3.49376">
        <ele>101.4</ele>
        <time>2019-07-11T11:26:31Z</time>
      </trkpt>
      <trkpt lat="48.74566" lon="-3.49372">
        <ele>102.1</ele>
        <time>2019-07-11T11:26:32Z</time>
      </trkpt>
      <trkpt lat="48.74567" lon="-3.49369">
        <ele>102.8</ele>
        <time>2019-07-11T11:26:33Z</time>
      </trkpt>
      <trkpt lat="48.74569" lon="-3.49365">
        <ele>103.4</ele>
        <time>2019-07-11T11:26:34Z</time>
      </trkpt>
      <trkpt lat="48.7457" lon="-3.4936">
        <ele>103.6</ele>
        <time>2019-07-11T11:26:35Z</time>
      </trkpt>
      <trkpt lat="48.74572" lon="-3.49356">
        <ele>103.5</ele>
        <time>2019-07-11T11:26:36Z</time>
      </trkpt>
      <trkpt lat="48.74573" lon="-3.49353">
        <ele>103.5</ele>
        <time>2019-07-11T11:26:37Z</time>
      </trkpt>
      <trkpt lat="48.74574" lon="-3.49348">
        <ele>103.1</ele>
        <time>2019-07-11T11:26:38Z</time>
      </trkpt>
      <trkpt lat="48.74575" lon="-3.49344">
        <ele>102.4</ele>
        <time>2019-07-11T11:26:39Z</time>
      </trkpt>
      <trkpt lat="48.74577" lon="-3.4934">
        <ele>101.6</ele>
        <time>2019-07-11T11:26:40Z</time>
      </trkpt>
      <trkpt lat="48.74578" lon="-3.49335">
        <ele>100.8</ele>
        <time>2019-07-11T11:26:41Z</time>
      </trkpt>
      <trkpt lat="48.74579" lon="-3.49331">
        <ele>100.3</ele>
        <time>2019-07-11T11:26:42Z</time>
      </trkpt>
      <trkpt lat="48.7458" lon="-3.49326">
        <ele>100.1</ele>
        <time>2019-07-11T11:26:43Z</time>
      </trkpt>
      <trkpt lat="48.7458" lon="-3.49322">
        <ele>99.7</ele>
        <time>2019-07-11T11:26:44Z</time>
      </trkpt>
      <trkpt lat="48.74581" lon="-3.49317">
        <ele>99.4</ele>
        <time>2019-07-11T11:26:45Z</time>
      </trkpt>
      <trkpt lat="48.74582" lon="-3.49313">
        <ele>99.4</ele>
        <time>2019-07-11T11:26:46Z</time>
      </trkpt>
      <trkpt lat="48.74582" lon="-3.49308">
        <ele>98.8</ele>
        <time>2019-07-11T11:26:47Z</time>
      </trkpt>
      <trkpt lat="48.74583" lon="-3.49304">
        <ele>99.6</ele>
        <time>2019-07-11T11:26:48Z</time>
      </trkpt>
      <trkpt lat="48.74583" lon="-3.49298">
        <ele>99.3</ele>
        <time>2019-07-11T11:26:49Z</time>
      </trkpt>
      <trkpt lat="48.74583" lon="-3.49293">
        <ele>99.6</ele>
        <time>2019-07-11T11:26:50Z</time>
      </trkpt>
      <trkpt lat="48.74583" lon="-3.49287">
        <ele>99.6</ele>
        <time>2019-07-11T11:26:51Z</time>
      </trkpt>
      <trkpt lat="48.74582" lon="-3.49281">
        <ele>99.1</ele>
        <time>2019-07-11T11:26:52Z</time>
      </trkpt>
      <trkpt lat="48.74581" lon="-3.49274">
        <ele>98.7</ele>
        <time>2019-07-11T11:26:53Z</time>
      </trkpt>
      <trkpt lat="48.74581" lon="-3.49268">
        <ele>99.1</ele>
        <time>2019-07-11T11:26:54Z</time>
      </trkpt>
      <trkpt lat="48.74581" lon="-3.49261">
        <ele>99.2</ele>
        <time>2019-07-11T11:26:55Z</time>
      </trkpt>
      <trkpt lat="48.74582" lon="-3.49255">
        <ele>98.9</ele>
        <time>2019-07-11T11:26:56Z</time>
      </trkpt>
      <trkpt lat="48.74582" lon="-3.49248">
        <ele>98.5</ele>
        <time>2019-07-11T11:26:57Z</time>
      </trkpt>
      <trkpt lat="48.74583" lon="-3.49241">
        <ele>98.3</ele>
        <time>2019-07-11T11:26:58Z</time>
      </trkpt>
      <trkpt lat="48.74583" lon="-3.49234">
        <ele>98.5</ele>
        <time>2019-07-11T11:26:59Z</time>
      </trkpt>
      <trkpt lat="48.74584" lon="-3.49227">
        <ele>99</ele>
        <time>2019-07-11T11:27:00Z</time>
      </trkpt>
      <trkpt lat="48.74585" lon="-3.4922">
        <ele>99.6</ele>
        <time>2019-07-11T11:27:01Z</time>
      </trkpt>
      <trkpt lat="48.74585" lon="-3.49212">
        <ele>99.3</ele>
        <time>2019-07-11T11:27:02Z</time>
      </trkpt>
      <trkpt lat="48.74585" lon="-3.49205">
        <ele>99.1</ele>
        <time>2019-07-11T11:27:03Z</time>
      </trkpt>
      <trkpt lat="48.74585" lon="-3.49197">
        <ele>99</ele>
        <time>2019-07-11T11:27:04Z</time>
      </trkpt>
      <trkpt lat="48.74586" lon="-3.4919">
        <ele>98.7</ele>
        <time>2019-07-11T11:27:05Z</time>
      </trkpt>
      <trkpt lat="48.74587" lon="-3.49183">
        <ele>98.6</ele>
        <time>2019-07-11T11:27:06Z</time>
      </trkpt>
      <trkpt lat="48.74587" lon="-3.49177">
        <ele>98.4</ele>
        <time>2019-07-11T11:27:07Z</time>
      </trkpt>
      <trkpt lat="48.74588" lon="-3.49171">
        <ele>98.8</ele>
        <time>2019-07-11T11:27:08Z</time>
      </trkpt>
      <trkpt lat="48.74588" lon="-3.49166">
        <ele>98.8</ele>
        <time>2019-07-11T11:27:09Z</time>
      </trkpt>
      <trkpt lat="48.7459" lon="-3.4916">
        <ele>99.7</ele>
        <time>2019-07-11T11:27:10Z</time>
      </trkpt>
      <trkpt lat="48.7459" lon="-3.49155">
        <ele>99.9</ele>
        <time>2019-07-11T11:27:11Z</time>
      </trkpt>
      <trkpt lat="48.74589" lon="-3.49149">
        <ele>99.4</ele>
        <time>2019-07-11T11:27:12Z</time>
      </trkpt>
      <trkpt lat="48.7459" lon="-3.49144">
        <ele>99</ele>
        <time>2019-07-11T11:27:13Z</time>
      </trkpt>
      <trkpt lat="48.7459" lon="-3.49139">
        <ele>99.2</ele>
        <time>2019-07-11T11:27:14Z</time>
      </trkpt>
      <trkpt lat="48.7459" lon="-3.49134">
        <ele>98.9</ele>
        <time>2019-07-11T11:27:15Z</time>
      </trkpt>
      <trkpt lat="48.74591" lon="-3.49128">
        <ele>98.8</ele>
        <time>2019-07-11T11:27:16Z</time>
      </trkpt>
      <trkpt lat="48.74591" lon="-3.49122">
        <ele>98.1</ele>
        <time>2019-07-11T11:27:17Z</time>
      </trkpt>
      <trkpt lat="48.74591" lon="-3.49115">
        <ele>98</ele>
        <time>2019-07-11T11:27:18Z</time>
      </trkpt>
      <trkpt lat="48.74591" lon="-3.49109">
        <ele>97.7</ele>
        <time>2019-07-11T11:27:19Z</time>
      </trkpt>
      <trkpt lat="48.7459" lon="-3.49102">
        <ele>97.7</ele>
        <time>2019-07-11T11:27:20Z</time>
      </trkpt>
      <trkpt lat="48.74591" lon="-3.49096">
        <ele>97.9</ele>
        <time>2019-07-11T11:27:21Z</time>
      </trkpt>
      <trkpt lat="48.74591" lon="-3.4909">
        <ele>98.2</ele>
        <time>2019-07-11T11:27:22Z</time>
      </trkpt>
      <trkpt lat="48.74591" lon="-3.49084">
        <ele>98.4</ele>
        <time>2019-07-11T11:27:23Z</time>
      </trkpt>
      <trkpt lat="48.74591" lon="-3.49078">
        <ele>98.6</ele>
        <time>2019-07-11T11:27:24Z</time>
      </trkpt>
      <trkpt lat="48.74592" lon="-3.49071">
        <ele>98.9</ele>
        <time>2019-07-11T11:27:25Z</time>
      </trkpt>
      <trkpt lat="48.74592" lon="-3.49065">
        <ele>99.1</ele>
        <time>2019-07-11T11:27:26Z</time>
      </trkpt>
      <trkpt lat="48.74593" lon="-3.49058">
        <ele>99.1</ele>
        <time>2019-07-11T11:27:27Z</time>
      </trkpt>
      <trkpt lat="48.74593" lon="-3.49052">
        <ele>99.8</ele>
        <time>2019-07-11T11:27:28Z</time>
      </trkpt>
      <trkpt lat="48.74594" lon="-3.49046">
        <ele>100</ele>
        <time>2019-07-11T11:27:29Z</time>
      </trkpt>
      <trkpt lat="48.74594" lon="-3.49039">
        <ele>100</ele>
        <time>2019-07-11T11:27:30Z</time>
      </trkpt>
      <trkpt lat="48.74594" lon="-3.49033">
        <ele>100.5</ele>
        <time>2019-07-11T11:27:31Z</time>
      </trkpt>
      <trkpt lat="48.74595" lon="-3.49027">
        <ele>101.3</ele>
        <time>2019-07-11T11:27:32Z</time>
      </trkpt>
      <trkpt lat="48.74594" lon="-3.4902">
        <ele>101.7</ele>
        <time>2019-07-11T11:27:33Z</time>
      </trkpt>
      <trkpt lat="48.74595" lon="-3.49014">
        <ele>102</ele>
        <time>2019-07-11T11:27:34Z</time>
      </trkpt>
      <trkpt lat="48.74595" lon="-3.49008">
        <ele>102.5</ele>
        <time>2019-07-11T11:27:35Z</time>
      </trkpt>
      <trkpt lat="48.74595" lon="-3.49003">
        <ele>102.9</ele>
        <time>2019-07-11T11:27:36Z</time>
      </trkpt>
      <trkpt lat="48.74595" lon="-3.48997">
        <ele>102.8</ele>
        <time>2019-07-11T11:27:37Z</time>
      </trkpt>
      <trkpt lat="48.74593" lon="-3.48992">
        <ele>102.8</ele>
        <time>2019-07-11T11:27:38Z</time>
      </trkpt>
      <trkpt lat="48.74593" lon="-3.48986">
        <ele>102.6</ele>
        <time>2019-07-11T11:27:39Z</time>
      </trkpt>
      <trkpt lat="48.74593" lon="-3.4898">
        <ele>101.7</ele>
        <time>2019-07-11T11:27:40Z</time>
      </trkpt>
      <trkpt lat="48.74593" lon="-3.48975">
        <ele>101</ele>
        <time>2019-07-11T11:27:41Z</time>
      </trkpt>
      <trkpt lat="48.74593" lon="-3.48971">
        <ele>100.1</ele>
        <time>2019-07-11T11:27:42Z</time>
      </trkpt>
      <trkpt lat="48.74593" lon="-3.48968">
        <ele>99.4</ele>
        <time>2019-07-11T11:27:43Z</time>
      </trkpt>
      <trkpt lat="48.74592" lon="-3.48967">
        <ele>99</ele>
        <time>2019-07-11T11:27:44Z</time>
      </trkpt>
      <trkpt lat="48.74591" lon="-3.48965">
        <ele>98.6</ele>
        <time>2019-07-11T11:27:45Z</time>
      </trkpt>
      <trkpt lat="48.7459" lon="-3.4896">
        <ele>97.6</ele>
        <time>2019-07-11T11:28:10Z</time>
      </trkpt>
      <trkpt lat="48.7459" lon="-3.48959">
        <ele>97.8</ele>
        <time>2019-07-11T11:28:11Z</time>
      </trkpt>
      <trkpt lat="48.7459" lon="-3.48956">
        <ele>98</ele>
        <time>2019-07-11T11:28:12Z</time>
      </trkpt>
      <trkpt lat="48.74589" lon="-3.48954">
        <ele>98.2</ele>
        <time>2019-07-11T11:28:13Z</time>
      </trkpt>
      <trkpt lat="48.74589" lon="-3.48953">
        <ele>98.5</ele>
        <time>2019-07-11T11:28:14Z</time>
      </trkpt>
      <trkpt lat="48.7459" lon="-3.48953">
        <ele>98.8</ele>
        <time>2019-07-11T11:28:15Z</time>
      </trkpt>
      <trkpt lat="48.74589" lon="-3.4895">
        <ele>99</ele>
        <time>2019-07-11T11:28:16Z</time>
      </trkpt>
      <trkpt lat="48.74588" lon="-3.48946">
        <ele>99.4</ele>
        <time>2019-07-11T11:28:17Z</time>
      </trkpt>
      <trkpt lat="48.74588" lon="-3.48942">
        <ele>99.9</ele>
        <time>2019-07-11T11:28:18Z</time>
      </trkpt>
      <trkpt lat="48.74588" lon="-3.48938">
        <ele>100.3</ele>
        <time>2019-07-11T11:28:19Z</time>
      </trkpt>
      <trkpt lat="48.74588" lon="-3.48933">
        <ele>100.9</ele>
        <time>2019-07-11T11:28:20Z</time>
      </trkpt>
      <trkpt lat="48.74588" lon="-3.4893">
        <ele>101.5</ele>
        <time>2019-07-11T11:28:21Z</time>
      </trkpt>
      <trkpt lat="48.74588" lon="-3.48926">
        <ele>102.1</ele>
        <time>2019-07-11T11:28:22Z</time>
      </trkpt>
      <trkpt lat="48.74588" lon="-3.48922">
        <ele>102.8</ele>
        <time>2019-07-11T11:28:23Z</time>
      </trkpt>
      <trkpt lat="48.74588" lon="-3.48919">
        <ele>103.5</ele>
        <time>2019-07-11T11:28:24Z</time>
      </trkpt>
      <trkpt lat="48.74587" lon="-3.48916">
        <ele>103.8</ele>
        <time>2019-07-11T11:28:25Z</time>
      </trkpt>
      <trkpt lat="48.74587" lon="-3.48912">
        <ele>104.1</ele>
        <time>2019-07-11T11:28:26Z</time>
      </trkpt>
      <trkpt lat="48.74587" lon="-3.48909">
        <ele>104.2</ele>
        <time>2019-07-11T11:28:27Z</time>
      </trkpt>
      <trkpt lat="48.74587" lon="-3.48906">
        <ele>105.1</ele>
        <time>2019-07-11T11:28:28Z</time>
      </trkpt>
      <trkpt lat="48.74587" lon="-3.48904">
        <ele>106.6</ele>
        <time>2019-07-11T11:28:29Z</time>
      </trkpt>
      <trkpt lat="48.74587" lon="-3.48902">
        <ele>107.4</ele>
        <time>2019-07-11T11:28:30Z</time>
      </trkpt>
      <trkpt lat="48.74586" lon="-3.48899">
        <ele>108.6</ele>
        <time>2019-07-11T11:28:31Z</time>
      </trkpt>
      <trkpt lat="48.74585" lon="-3.48897">
        <ele>108.8</ele>
        <time>2019-07-11T11:28:32Z</time>
      </trkpt>
      <trkpt lat="48.74584" lon="-3.48894">
        <ele>108.5</ele>
        <time>2019-07-11T11:28:33Z</time>
      </trkpt>
      <trkpt lat="48.74583" lon="-3.48892">
        <ele>108.4</ele>
        <time>2019-07-11T11:28:34Z</time>
      </trkpt>
      <trkpt lat="48.74581" lon="-3.4889">
        <ele>107.8</ele>
        <time>2019-07-11T11:28:35Z</time>
      </trkpt>
      <trkpt lat="48.74579" lon="-3.48887">
        <ele>107</ele>
        <time>2019-07-11T11:28:36Z</time>
      </trkpt>
      <trkpt lat="48.74577" lon="-3.48884">
        <ele>106</ele>
        <time>2019-07-11T11:28:37Z</time>
      </trkpt>
      <trkpt lat="48.74575" lon="-3.48881">
        <ele>104.5</ele>
        <time>2019-07-11T11:28:38Z</time>
      </trkpt>
      <trkpt lat="48.74574" lon="-3.48877">
        <ele>103.2</ele>
        <time>2019-07-11T11:28:39Z</time>
      </trkpt>
      <trkpt lat="48.74571" lon="-3.48873">
        <ele>100.4</ele>
        <time>2019-07-11T11:28:40Z</time>
      </trkpt>
      <trkpt lat="48.74569" lon="-3.4887">
        <ele>100</ele>
        <time>2019-07-11T11:28:41Z</time>
      </trkpt>
      <trkpt lat="48.74568" lon="-3.48867">
        <ele>100.6</ele>
        <time>2019-07-11T11:28:42Z</time>
      </trkpt>
      <trkpt lat="48.74567" lon="-3.48864">
        <ele>99.9</ele>
        <time>2019-07-11T11:28:43Z</time>
      </trkpt>
      <trkpt lat="48.74565" lon="-3.48861">
        <ele>100.1</ele>
        <time>2019-07-11T11:28:44Z</time>
      </trkpt>
      <trkpt lat="48.74564" lon="-3.48857">
        <ele>100.1</ele>
        <time>2019-07-11T11:28:45Z</time>
      </trkpt>
      <trkpt lat="48.74566" lon="-3.48853">
        <ele>100.2</ele>
        <time>2019-07-11T11:28:46Z</time>
      </trkpt>
      <trkpt lat="48.74567" lon="-3.48847">
        <ele>102.3</ele>
        <time>2019-07-11T11:28:47Z</time>
      </trkpt>
      <trkpt lat="48.74567" lon="-3.48842">
        <ele>103.1</ele>
        <time>2019-07-11T11:28:48Z</time>
      </trkpt>
      <trkpt lat="48.74567" lon="-3.48835">
        <ele>103.1</ele>
        <time>2019-07-11T11:28:49Z</time>
      </trkpt>
      <trkpt lat="48.74568" lon="-3.48831">
        <ele>102.7</ele>
        <time>2019-07-11T11:28:50Z</time>
      </trkpt>
      <trkpt lat="48.7457" lon="-3.48827">
        <ele>103.1</ele>
        <time>2019-07-11T11:28:51Z</time>
      </trkpt>
      <trkpt lat="48.74572" lon="-3.48824">
        <ele>103</ele>
        <time>2019-07-11T11:28:52Z</time>
      </trkpt>
      <trkpt lat="48.74575" lon="-3.48821">
        <ele>103.3</ele>
        <time>2019-07-11T11:28:53Z</time>
      </trkpt>
      <trkpt lat="48.74579" lon="-3.48819">
        <ele>103</ele>
        <time>2019-07-11T11:28:54Z</time>
      </trkpt>
      <trkpt lat="48.74583" lon="-3.48818">
        <ele>102.1</ele>
        <time>2019-07-11T11:28:55Z</time>
      </trkpt>
      <trkpt lat="48.74587" lon="-3.48816">
        <ele>102.3</ele>
        <time>2019-07-11T11:28:56Z</time>
      </trkpt>
      <trkpt lat="48.7459" lon="-3.48814">
        <ele>102.2</ele>
        <time>2019-07-11T11:28:57Z</time>
      </trkpt>
      <trkpt lat="48.74592" lon="-3.48812">
        <ele>102.1</ele>
        <time>2019-07-11T11:28:58Z</time>
      </trkpt>
      <trkpt lat="48.74595" lon="-3.48808">
        <ele>101</ele>
        <time>2019-07-11T11:28:59Z</time>
      </trkpt>
      <trkpt lat="48.74597" lon="-3.48805">
        <ele>101.5</ele>
        <time>2019-07-11T11:29:00Z</time>
      </trkpt>
      <trkpt lat="48.74598" lon="-3.48803">
        <ele>102.6</ele>
        <time>2019-07-11T11:29:01Z</time>
      </trkpt>
      <trkpt lat="48.74599" lon="-3.48801">
        <ele>103.6</ele>
        <time>2019-07-11T11:29:02Z</time>
      </trkpt>
      <trkpt lat="48.746" lon="-3.48799">
        <ele>104.5</ele>
        <time>2019-07-11T11:29:03Z</time>
      </trkpt>
      <trkpt lat="48.74602" lon="-3.48794">
        <ele>105</ele>
        <time>2019-07-11T11:29:30Z</time>
      </trkpt>
      <trkpt lat="48.74603" lon="-3.48792">
        <ele>104.8</ele>
        <time>2019-07-11T11:29:31Z</time>
      </trkpt>
      <trkpt lat="48.74605" lon="-3.48791">
        <ele>104.4</ele>
        <time>2019-07-11T11:29:32Z</time>
      </trkpt>
      <trkpt lat="48.74606" lon="-3.48792">
        <ele>104</ele>
        <time>2019-07-11T11:29:33Z</time>
      </trkpt>
      <trkpt lat="48.74606" lon="-3.48792">
        <ele>103.7</ele>
        <time>2019-07-11T11:29:34Z</time>
      </trkpt>
      <trkpt lat="48.74605" lon="-3.48793">
        <ele>103.3</ele>
        <time>2019-07-11T11:29:35Z</time>
      </trkpt>
      <trkpt lat="48.74604" lon="-3.48795">
        <ele>103</ele>
        <time>2019-07-11T11:29:36Z</time>
      </trkpt>
      <trkpt lat="48.74604" lon="-3.48797">
        <ele>102.7</ele>
        <time>2019-07-11T11:29:37Z</time>
      </trkpt>
      <trkpt lat="48.74603" lon="-3.48798">
        <ele>102.7</ele>
        <time>2019-07-11T11:29:38Z</time>
      </trkpt>
      <trkpt lat="48.746" lon="-3.488">
        <ele>102.6</ele>
        <time>2019-07-11T11:29:41Z</time>
      </trkpt>
      <trkpt lat="48.74598" lon="-3.48799">
        <ele>102.4</ele>
        <time>2019-07-11T11:29:42Z</time>
      </trkpt>
      <trkpt lat="48.74604" lon="-3.48792">
        <ele>101.7</ele>
        <time>2019-07-11T11:31:45Z</time>
      </trkpt>
      <trkpt lat="48.74604" lon="-3.48789">
        <ele>101.9</ele>
        <time>2019-07-11T11:31:46Z</time>
      </trkpt>
      <trkpt lat="48.74604" lon="-3.48784">
        <ele>102.1</ele>
        <time>2019-07-11T11:31:47Z</time>
      </trkpt>
      <trkpt lat="48.74605" lon="-3.48779">
        <ele>102.4</ele>
        <time>2019-07-11T11:31:48Z</time>
      </trkpt>
      <trkpt lat="48.74605" lon="-3.48773">
        <ele>102.6</ele>
        <time>2019-07-11T11:31:49Z</time>
      </trkpt>
      <trkpt lat="48.74607" lon="-3.48767">
        <ele>102.8</ele>
        <time>2019-07-11T11:31:50Z</time>
      </trkpt>
      <trkpt lat="48.74608" lon="-3.4876">
        <ele>102.9</ele>
        <time>2019-07-11T11:31:51Z</time>
      </trkpt>
      <trkpt lat="48.74609" lon="-3.48752">
        <ele>102.9</ele>
        <time>2019-07-11T11:31:52Z</time>
      </trkpt>
      <trkpt lat="48.74611" lon="-3.48744">
        <ele>103.3</ele>
        <time>2019-07-11T11:31:53Z</time>
      </trkpt>
      <trkpt lat="48.74611" lon="-3.48735">
        <ele>102.9</ele>
        <time>2019-07-11T11:31:54Z</time>
      </trkpt>
      <trkpt lat="48.7461" lon="-3.48726">
        <ele>102.6</ele>
        <time>2019-07-11T11:31:55Z</time>
      </trkpt>
      <trkpt lat="48.7461" lon="-3.48716">
        <ele>102.2</ele>
        <time>2019-07-11T11:31:56Z</time>
      </trkpt>
      <trkpt lat="48.7461" lon="-3.48706">
        <ele>101.7</ele>
        <time>2019-07-11T11:31:57Z</time>
      </trkpt>
      <trkpt lat="48.74609" lon="-3.48695">
        <ele>100.9</ele>
        <time>2019-07-11T11:31:58Z</time>
      </trkpt>
      <trkpt lat="48.74607" lon="-3.48685">
        <ele>99.2</ele>
        <time>2019-07-11T11:31:59Z</time>
      </trkpt>
      <trkpt lat="48.74606" lon="-3.48674">
        <ele>98</ele>
        <time>2019-07-11T11:32:00Z</time>
      </trkpt>
      <trkpt lat="48.74604" lon="-3.48662">
        <ele>97</ele>
        <time>2019-07-11T11:32:01Z</time>
      </trkpt>
      <trkpt lat="48.74603" lon="-3.48651">
        <ele>96.4</ele>
        <time>2019-07-11T11:32:02Z</time>
      </trkpt>
      <trkpt lat="48.74602" lon="-3.48639">
        <ele>95.9</ele>
        <time>2019-07-11T11:32:03Z</time>
      </trkpt>
      <trkpt lat="48.746" lon="-3.48627">
        <ele>94.5</ele>
        <time>2019-07-11T11:32:04Z</time>
      </trkpt>
      <trkpt lat="48.74598" lon="-3.48614">
        <ele>93</ele>
        <time>2019-07-11T11:32:05Z</time>
      </trkpt>
      <trkpt lat="48.74596" lon="-3.48601">
        <ele>92</ele>
        <time>2019-07-11T11:32:06Z</time>
      </trkpt>
      <trkpt lat="48.74594" lon="-3.48588">
        <ele>91.2</ele>
        <time>2019-07-11T11:32:07Z</time>
      </trkpt>
      <trkpt lat="48.74592" lon="-3.48575">
        <ele>90.1</ele>
        <time>2019-07-11T11:32:08Z</time>
      </trkpt>
      <trkpt lat="48.74591" lon="-3.48561">
        <ele>90.2</ele>
        <time>2019-07-11T11:32:09Z</time>
      </trkpt>
      <trkpt lat="48.7459" lon="-3.48545">
        <ele>88.7</ele>
        <time>2019-07-11T11:32:10Z</time>
      </trkpt>
      <trkpt lat="48.74591" lon="-3.48529">
        <ele>86.3</ele>
        <time>2019-07-11T11:32:11Z</time>
      </trkpt>
      <trkpt lat="48.74593" lon="-3.48513">
        <ele>83.5</ele>
        <time>2019-07-11T11:32:12Z</time>
      </trkpt>
      <trkpt lat="48.74595" lon="-3.48496">
        <ele>82.3</ele>
        <time>2019-07-11T11:32:13Z</time>
      </trkpt>
      <trkpt lat="48.74593" lon="-3.4848">
        <ele>80.4</ele>
        <time>2019-07-11T11:32:14Z</time>
      </trkpt>
      <trkpt lat="48.74593" lon="-3.48462">
        <ele>79.1</ele>
        <time>2019-07-11T11:32:15Z</time>
      </trkpt>
      <trkpt lat="48.74593" lon="-3.48448">
        <ele>78.3</ele>
        <time>2019-07-11T11:32:16Z</time>
      </trkpt>
      <trkpt lat="48.74593" lon="-3.48431">
        <ele>79.8</ele>
        <time>2019-07-11T11:32:17Z</time>
      </trkpt>
      <trkpt lat="48.74591" lon="-3.48415">
        <ele>79</ele>
        <time>2019-07-11T11:32:18Z</time>
      </trkpt>
      <trkpt lat="48.74592" lon="-3.48401">
        <ele>77.8</ele>
        <time>2019-07-11T11:32:19Z</time>
      </trkpt>
      <trkpt lat="48.74593" lon="-3.48389">
        <ele>77.7</ele>
        <time>2019-07-11T11:32:20Z</time>
      </trkpt>
      <trkpt lat="48.74595" lon="-3.48376">
        <ele>76.7</ele>
        <time>2019-07-11T11:32:21Z</time>
      </trkpt>
      <trkpt lat="48.74596" lon="-3.48363">
        <ele>76.5</ele>
        <time>2019-07-11T11:32:22Z</time>
      </trkpt>
      <trkpt lat="48.74597" lon="-3.48351">
        <ele>76.3</ele>
        <time>2019-07-11T11:32:23Z</time>
      </trkpt>
      <trkpt lat="48.74598" lon="-3.4834">
        <ele>76.1</ele>
        <time>2019-07-11T11:32:24Z</time>
      </trkpt>
      <trkpt lat="48.746" lon="-3.48331">
        <ele>77.2</ele>
        <time>2019-07-11T11:32:25Z</time>
      </trkpt>
      <trkpt lat="48.74601" lon="-3.48325">
        <ele>77.5</ele>
        <time>2019-07-11T11:32:26Z</time>
      </trkpt>
      <trkpt lat="48.74601" lon="-3.48321">
        <ele>77.7</ele>
        <time>2019-07-11T11:32:27Z</time>
      </trkpt>
      <trkpt lat="48.74601" lon="-3.48318">
        <ele>78.6</ele>
        <time>2019-07-11T11:32:28Z</time>
      </trkpt>
      <trkpt lat="48.74601" lon="-3.48314">
        <ele>80.4</ele>
        <time>2019-07-11T11:32:29Z</time>
      </trkpt>
      <trkpt lat="48.74601" lon="-3.4831">
        <ele>81</ele>
        <time>2019-07-11T11:32:30Z</time>
      </trkpt>
      <trkpt lat="48.74601" lon="-3.48306">
        <ele>81.5</ele>
        <time>2019-07-11T11:32:31Z</time>
      </trkpt>
      <trkpt lat="48.746" lon="-3.48302">
        <ele>82.1</ele>
        <time>2019-07-11T11:32:32Z</time>
      </trkpt>
      <trkpt lat="48.74598" lon="-3.48299">
        <ele>82</ele>
        <time>2019-07-11T11:32:33Z</time>
      </trkpt>
      <trkpt lat="48.74596" lon="-3.48296">
        <ele>81.4</ele>
        <time>2019-07-11T11:32:34Z</time>
      </trkpt>
      <trkpt lat="48.74593" lon="-3.48294">
        <ele>81.3</ele>
        <time>2019-07-11T11:32:35Z</time>
      </trkpt>
      <trkpt lat="48.74589" lon="-3.48292">
        <ele>81</ele>
        <time>2019-07-11T11:32:36Z</time>
      </trkpt>
      <trkpt lat="48.74586" lon="-3.48289">
        <ele>80.2</ele>
        <time>2019-07-11T11:32:37Z</time>
      </trkpt>
      <trkpt lat="48.74582" lon="-3.48287">
        <ele>79.5</ele>
        <time>2019-07-11T11:32:38Z</time>
      </trkpt>
      <trkpt lat="48.74577" lon="-3.48285">
        <ele>78.8</ele>
        <time>2019-07-11T11:32:39Z</time>
      </trkpt>
      <trkpt lat="48.74573" lon="-3.48283">
        <ele>78.4</ele>
        <time>2019-07-11T11:32:40Z</time>
      </trkpt>
      <trkpt lat="48.74568" lon="-3.4828">
        <ele>78.2</ele>
        <time>2019-07-11T11:32:41Z</time>
      </trkpt>
      <trkpt lat="48.74562" lon="-3.48278">
        <ele>77.5</ele>
        <time>2019-07-11T11:32:42Z</time>
      </trkpt>
      <trkpt lat="48.74556" lon="-3.48276">
        <ele>77.2</ele>
        <time>2019-07-11T11:32:43Z</time>
      </trkpt>
      <trkpt lat="48.74551" lon="-3.48273">
        <ele>77.7</ele>
        <time>2019-07-11T11:32:44Z</time>
      </trkpt>
      <trkpt lat="48.74546" lon="-3.48272">
        <ele>77.9</ele>
        <time>2019-07-11T11:32:45Z</time>
      </trkpt>
      <trkpt lat="48.74541" lon="-3.48271">
        <ele>78.2</ele>
        <time>2019-07-11T11:32:46Z</time>
      </trkpt>
      <trkpt lat="48.74536" lon="-3.48269">
        <ele>78.2</ele>
        <time>2019-07-11T11:32:47Z</time>
      </trkpt>
      <trkpt lat="48.74531" lon="-3.48268">
        <ele>78.3</ele>
        <time>2019-07-11T11:32:48Z</time>
      </trkpt>
      <trkpt lat="48.74526" lon="-3.48266">
        <ele>78.4</ele>
        <time>2019-07-11T11:32:49Z</time>
      </trkpt>
      <trkpt lat="48.74521" lon="-3.48265">
        <ele>78.2</ele>
        <time>2019-07-11T11:32:50Z</time>
      </trkpt>
      <trkpt lat="48.74515" lon="-3.48264">
        <ele>78</ele>
        <time>2019-07-11T11:32:51Z</time>
      </trkpt>
      <trkpt lat="48.7451" lon="-3.48262">
        <ele>77.5</ele>
        <time>2019-07-11T11:32:52Z</time>
      </trkpt>
      <trkpt lat="48.74506" lon="-3.48261">
        <ele>77.3</ele>
        <time>2019-07-11T11:32:53Z</time>
      </trkpt>
      <trkpt lat="48.74502" lon="-3.4826">
        <ele>77.3</ele>
        <time>2019-07-11T11:32:54Z</time>
      </trkpt>
      <trkpt lat="48.74498" lon="-3.48259">
        <ele>77.2</ele>
        <time>2019-07-11T11:32:55Z</time>
      </trkpt>
      <trkpt lat="48.74495" lon="-3.48257">
        <ele>77</ele>
        <time>2019-07-11T11:32:56Z</time>
      </trkpt>
      <trkpt lat="48.74491" lon="-3.48257">
        <ele>76.7</ele>
        <time>2019-07-11T11:32:57Z</time>
      </trkpt>
      <trkpt lat="48.74487" lon="-3.48258">
        <ele>76.4</ele>
        <time>2019-07-11T11:32:58Z</time>
      </trkpt>
      <trkpt lat="48.74484" lon="-3.48259">
        <ele>76.4</ele>
        <time>2019-07-11T11:32:59Z</time>
      </trkpt>
      <trkpt lat="48.74481" lon="-3.4826">
        <ele>76.3</ele>
        <time>2019-07-11T11:33:00Z</time>
      </trkpt>
      <trkpt lat="48.74478" lon="-3.48261">
        <ele>76.3</ele>
        <time>2019-07-11T11:33:01Z</time>
      </trkpt>
      <trkpt lat="48.74474" lon="-3.48262">
        <ele>76.4</ele>
        <time>2019-07-11T11:33:02Z</time>
      </trkpt>
      <trkpt lat="48.74471" lon="-3.48264">
        <ele>75.9</ele>
        <time>2019-07-11T11:33:03Z</time>
      </trkpt>
      <trkpt lat="48.74467" lon="-3.48265">
        <ele>75.5</ele>
        <time>2019-07-11T11:33:04Z</time>
      </trkpt>
      <trkpt lat="48.74464" lon="-3.48267">
        <ele>74.9</ele>
        <time>2019-07-11T11:33:05Z</time>
      </trkpt>
      <trkpt lat="48.74461" lon="-3.48268">
        <ele>74.5</ele>
        <time>2019-07-11T11:33:06Z</time>
      </trkpt>
      <trkpt lat="48.74457" lon="-3.48269">
        <ele>74</ele>
        <time>2019-07-11T11:33:07Z</time>
      </trkpt>
      <trkpt lat="48.74453" lon="-3.48271">
        <ele>74</ele>
        <time>2019-07-11T11:33:08Z</time>
      </trkpt>
      <trkpt lat="48.74449" lon="-3.48272">
        <ele>75</ele>
        <time>2019-07-11T11:33:09Z</time>
      </trkpt>
      <trkpt lat="48.74444" lon="-3.4827">
        <ele>75.7</ele>
        <time>2019-07-11T11:33:10Z</time>
      </trkpt>
      <trkpt lat="48.74439" lon="-3.48268">
        <ele>76.5</ele>
        <time>2019-07-11T11:33:11Z</time>
      </trkpt>
      <trkpt lat="48.74434" lon="-3.48265">
        <ele>76.7</ele>
        <time>2019-07-11T11:33:12Z</time>
      </trkpt>
      <trkpt lat="48.74429" lon="-3.48262">
        <ele>77</ele>
        <time>2019-07-11T11:33:13Z</time>
      </trkpt>
      <trkpt lat="48.74425" lon="-3.4826">
        <ele>76.9</ele>
        <time>2019-07-11T11:33:14Z</time>
      </trkpt>
      <trkpt lat="48.74419" lon="-3.48257">
        <ele>76.9</ele>
        <time>2019-07-11T11:33:15Z</time>
      </trkpt>
      <trkpt lat="48.74414" lon="-3.48253">
        <ele>77</ele>
        <time>2019-07-11T11:33:16Z</time>
      </trkpt>
      <trkpt lat="48.7441" lon="-3.48248">
        <ele>77.2</ele>
        <time>2019-07-11T11:33:17Z</time>
      </trkpt>
      <trkpt lat="48.74405" lon="-3.48243">
        <ele>77.2</ele>
        <time>2019-07-11T11:33:18Z</time>
      </trkpt>
      <trkpt lat="48.74401" lon="-3.48238">
        <ele>77.1</ele>
        <time>2019-07-11T11:33:19Z</time>
      </trkpt>
      <trkpt lat="48.74397" lon="-3.48233">
        <ele>77.1</ele>
        <time>2019-07-11T11:33:20Z</time>
      </trkpt>
      <trkpt lat="48.74394" lon="-3.48229">
        <ele>77</ele>
        <time>2019-07-11T11:33:21Z</time>
      </trkpt>
      <trkpt lat="48.74389" lon="-3.48226">
        <ele>76.8</ele>
        <time>2019-07-11T11:33:22Z</time>
      </trkpt>
      <trkpt lat="48.74386" lon="-3.48225">
        <ele>76.7</ele>
        <time>2019-07-11T11:33:23Z</time>
      </trkpt>
      <trkpt lat="48.74382" lon="-3.48223">
        <ele>76.4</ele>
        <time>2019-07-11T11:33:24Z</time>
      </trkpt>
      <trkpt lat="48.74379" lon="-3.4822">
        <ele>76.3</ele>
        <time>2019-07-11T11:33:25Z</time>
      </trkpt>
      <trkpt lat="48.74375" lon="-3.48219">
        <ele>76.3</ele>
        <time>2019-07-11T11:33:26Z</time>
      </trkpt>
      <trkpt lat="48.74374" lon="-3.48218">
        <ele>76.1</ele>
        <time>2019-07-11T11:33:27Z</time>
      </trkpt>
      <trkpt lat="48.7437" lon="-3.48218">
        <ele>76.3</ele>
        <time>2019-07-11T11:33:28Z</time>
      </trkpt>
      <trkpt lat="48.74367" lon="-3.48218">
        <ele>76.6</ele>
        <time>2019-07-11T11:33:29Z</time>
      </trkpt>
      <trkpt lat="48.74365" lon="-3.48219">
        <ele>76.9</ele>
        <time>2019-07-11T11:33:30Z</time>
      </trkpt>
      <trkpt lat="48.74363" lon="-3.4822">
        <ele>77.3</ele>
        <time>2019-07-11T11:33:31Z</time>
      </trkpt>
      <trkpt lat="48.74361" lon="-3.48222">
        <ele>77.6</ele>
        <time>2019-07-11T11:33:32Z</time>
      </trkpt>
      <trkpt lat="48.74358" lon="-3.48223">
        <ele>77.9</ele>
        <time>2019-07-11T11:33:33Z</time>
      </trkpt>
      <trkpt lat="48.74356" lon="-3.48225">
        <ele>78.3</ele>
        <time>2019-07-11T11:33:34Z</time>
      </trkpt>
      <trkpt lat="48.74354" lon="-3.48226">
        <ele>78.7</ele>
        <time>2019-07-11T11:33:35Z</time>
      </trkpt>
      <trkpt lat="48.74353" lon="-3.48225">
        <ele>78.8</ele>
        <time>2019-07-11T11:33:36Z</time>
      </trkpt>
      <trkpt lat="48.74351" lon="-3.48225">
        <ele>78.9</ele>
        <time>2019-07-11T11:33:37Z</time>
      </trkpt>
      <trkpt lat="48.74349" lon="-3.48225">
        <ele>78.8</ele>
        <time>2019-07-11T11:33:38Z</time>
      </trkpt>
      <trkpt lat="48.74344" lon="-3.48225">
        <ele>78.9</ele>
        <time>2019-07-11T11:33:41Z</time>
      </trkpt>
      <trkpt lat="48.74341" lon="-3.48225">
        <ele>78.6</ele>
        <time>2019-07-11T11:33:42Z</time>
      </trkpt>
      <trkpt lat="48.74339" lon="-3.48225">
        <ele>78.6</ele>
        <time>2019-07-11T11:33:43Z</time>
      </trkpt>
      <trkpt lat="48.74336" lon="-3.48224">
        <ele>78.7</ele>
        <time>2019-07-11T11:33:44Z</time>
      </trkpt>
      <trkpt lat="48.74333" lon="-3.48223">
        <ele>79</ele>
        <time>2019-07-11T11:33:45Z</time>
      </trkpt>
      <trkpt lat="48.74331" lon="-3.48222">
        <ele>79.2</ele>
        <time>2019-07-11T11:33:46Z</time>
      </trkpt>
      <trkpt lat="48.74328" lon="-3.48221">
        <ele>79.3</ele>
        <time>2019-07-11T11:33:47Z</time>
      </trkpt>
      <trkpt lat="48.74325" lon="-3.48219">
        <ele>79.1</ele>
        <time>2019-07-11T11:33:48Z</time>
      </trkpt>
      <trkpt lat="48.74323" lon="-3.48217">
        <ele>79.2</ele>
        <time>2019-07-11T11:33:49Z</time>
      </trkpt>
      <trkpt lat="48.74322" lon="-3.48216">
        <ele>79.6</ele>
        <time>2019-07-11T11:33:50Z</time>
      </trkpt>
      <trkpt lat="48.7432" lon="-3.48215">
        <ele>80</ele>
        <time>2019-07-11T11:33:51Z</time>
      </trkpt>
      <trkpt lat="48.74319" lon="-3.48214">
        <ele>80.3</ele>
        <time>2019-07-11T11:33:52Z</time>
      </trkpt>
      <trkpt lat="48.74317" lon="-3.48213">
        <ele>81.1</ele>
        <time>2019-07-11T11:33:53Z</time>
      </trkpt>
      <trkpt lat="48.74316" lon="-3.48211">
        <ele>81.4</ele>
        <time>2019-07-11T11:33:54Z</time>
      </trkpt>
      <trkpt lat="48.74315" lon="-3.48208">
        <ele>81.7</ele>
        <time>2019-07-11T11:33:55Z</time>
      </trkpt>
      <trkpt lat="48.74309" lon="-3.48204">
        <ele>82.7</ele>
        <time>2019-07-11T11:33:58Z</time>
      </trkpt>
      <trkpt lat="48.74308" lon="-3.48202">
        <ele>82.9</ele>
        <time>2019-07-11T11:33:59Z</time>
      </trkpt>
      <trkpt lat="48.74307" lon="-3.482">
        <ele>83</ele>
        <time>2019-07-11T11:34:00Z</time>
      </trkpt>
      <trkpt lat="48.74304" lon="-3.48198">
        <ele>83.1</ele>
        <time>2019-07-11T11:34:01Z</time>
      </trkpt>
      <trkpt lat="48.74303" lon="-3.48195">
        <ele>83</ele>
        <time>2019-07-11T11:34:02Z</time>
      </trkpt>
      <trkpt lat="48.74302" lon="-3.48193">
        <ele>82.9</ele>
        <time>2019-07-11T11:34:03Z</time>
      </trkpt>
      <trkpt lat="48.74301" lon="-3.48191">
        <ele>82.6</ele>
        <time>2019-07-11T11:34:04Z</time>
      </trkpt>
      <trkpt lat="48.74297" lon="-3.48189">
        <ele>81.6</ele>
        <time>2019-07-11T11:34:05Z</time>
      </trkpt>
      <trkpt lat="48.74296" lon="-3.48188">
        <ele>81.3</ele>
        <time>2019-07-11T11:34:06Z</time>
      </trkpt>
      <trkpt lat="48.74294" lon="-3.48185">
        <ele>81.1</ele>
        <time>2019-07-11T11:34:07Z</time>
      </trkpt>
      <trkpt lat="48.74292" lon="-3.48182">
        <ele>80.9</ele>
        <time>2019-07-11T11:34:08Z</time>
      </trkpt>
      <trkpt lat="48.7429" lon="-3.4818">
        <ele>80.2</ele>
        <time>2019-07-11T11:34:09Z</time>
      </trkpt>
      <trkpt lat="48.74289" lon="-3.48177">
        <ele>79.8</ele>
        <time>2019-07-11T11:34:10Z</time>
      </trkpt>
      <trkpt lat="48.74287" lon="-3.48173">
        <ele>79</ele>
        <time>2019-07-11T11:34:11Z</time>
      </trkpt>
      <trkpt lat="48.74284" lon="-3.4817">
        <ele>78.4</ele>
        <time>2019-07-11T11:34:12Z</time>
      </trkpt>
      <trkpt lat="48.74283" lon="-3.48167">
        <ele>78.1</ele>
        <time>2019-07-11T11:34:13Z</time>
      </trkpt>
      <trkpt lat="48.74281" lon="-3.48164">
        <ele>77.8</ele>
        <time>2019-07-11T11:34:14Z</time>
      </trkpt>
      <trkpt lat="48.7428" lon="-3.48159">
        <ele>76.8</ele>
        <time>2019-07-11T11:34:15Z</time>
      </trkpt>
      <trkpt lat="48.74279" lon="-3.48157">
        <ele>75.7</ele>
        <time>2019-07-11T11:34:16Z</time>
      </trkpt>
      <trkpt lat="48.7428" lon="-3.48153">
        <ele>74.7</ele>
        <time>2019-07-11T11:34:17Z</time>
      </trkpt>
      <trkpt lat="48.74279" lon="-3.48147">
        <ele>74.1</ele>
        <time>2019-07-11T11:34:18Z</time>
      </trkpt>
      <trkpt lat="48.74278" lon="-3.48143">
        <ele>73.8</ele>
        <time>2019-07-11T11:34:19Z</time>
      </trkpt>
      <trkpt lat="48.74278" lon="-3.48138">
        <ele>73.3</ele>
        <time>2019-07-11T11:34:20Z</time>
      </trkpt>
      <trkpt lat="48.74279" lon="-3.48133">
        <ele>73.3</ele>
        <time>2019-07-11T11:34:21Z</time>
      </trkpt>
      <trkpt lat="48.74279" lon="-3.48129">
        <ele>73</ele>
        <time>2019-07-11T11:34:22Z</time>
      </trkpt>
      <trkpt lat="48.74279" lon="-3.48125">
        <ele>72.6</ele>
        <time>2019-07-11T11:34:23Z</time>
      </trkpt>
      <trkpt lat="48.7428" lon="-3.48121">
        <ele>72.4</ele>
        <time>2019-07-11T11:34:24Z</time>
      </trkpt>
      <trkpt lat="48.74281" lon="-3.48117">
        <ele>72.2</ele>
        <time>2019-07-11T11:34:25Z</time>
      </trkpt>
      <trkpt lat="48.74281" lon="-3.48114">
        <ele>72.1</ele>
        <time>2019-07-11T11:34:26Z</time>
      </trkpt>
      <trkpt lat="48.74282" lon="-3.48112">
        <ele>72.1</ele>
        <time>2019-07-11T11:34:27Z</time>
      </trkpt>
      <trkpt lat="48.74282" lon="-3.48109">
        <ele>72</ele>
        <time>2019-07-11T11:34:28Z</time>
      </trkpt>
      <trkpt lat="48.74283" lon="-3.48108">
        <ele>72.2</ele>
        <time>2019-07-11T11:34:29Z</time>
      </trkpt>
      <trkpt lat="48.74284" lon="-3.48101">
        <ele>72.4</ele>
        <time>2019-07-11T11:34:32Z</time>
      </trkpt>
      <trkpt lat="48.74285" lon="-3.48098">
        <ele>72.2</ele>
        <time>2019-07-11T11:34:33Z</time>
      </trkpt>
      <trkpt lat="48.74287" lon="-3.48095">
        <ele>72.2</ele>
        <time>2019-07-11T11:34:34Z</time>
      </trkpt>
      <trkpt lat="48.74287" lon="-3.48092">
        <ele>72.2</ele>
        <time>2019-07-11T11:34:35Z</time>
      </trkpt>
      <trkpt lat="48.74292" lon="-3.48081">
        <ele>72.9</ele>
        <time>2019-07-11T11:34:40Z</time>
      </trkpt>
      <trkpt lat="48.74292" lon="-3.48077">
        <ele>72.8</ele>
        <time>2019-07-11T11:34:41Z</time>
      </trkpt>
      <trkpt lat="48.74292" lon="-3.48074">
        <ele>72.7</ele>
        <time>2019-07-11T11:34:42Z</time>
      </trkpt>
      <trkpt lat="48.74294" lon="-3.48071">
        <ele>72.6</ele>
        <time>2019-07-11T11:34:43Z</time>
      </trkpt>
      <trkpt lat="48.74294" lon="-3.48068">
        <ele>72.5</ele>
        <time>2019-07-11T11:34:44Z</time>
      </trkpt>
      <trkpt lat="48.74295" lon="-3.48066">
        <ele>72.9</ele>
        <time>2019-07-11T11:34:45Z</time>
      </trkpt>
      <trkpt lat="48.74295" lon="-3.48063">
        <ele>73.1</ele>
        <time>2019-07-11T11:34:46Z</time>
      </trkpt>
      <trkpt lat="48.74296" lon="-3.4806">
        <ele>73.4</ele>
        <time>2019-07-11T11:34:47Z</time>
      </trkpt>
      <trkpt lat="48.74298" lon="-3.48057">
        <ele>73.8</ele>
        <time>2019-07-11T11:34:48Z</time>
      </trkpt>
      <trkpt lat="48.743" lon="-3.48054">
        <ele>74.1</ele>
        <time>2019-07-11T11:34:49Z</time>
      </trkpt>
      <trkpt lat="48.74302" lon="-3.48051">
        <ele>74.6</ele>
        <time>2019-07-11T11:34:50Z</time>
      </trkpt>
      <trkpt lat="48.74304" lon="-3.48047">
        <ele>75.2</ele>
        <time>2019-07-11T11:34:51Z</time>
      </trkpt>
      <trkpt lat="48.74305" lon="-3.48045">
        <ele>75.8</ele>
        <time>2019-07-11T11:34:52Z</time>
      </trkpt>
      <trkpt lat="48.74306" lon="-3.48043">
        <ele>76.3</ele>
        <time>2019-07-11T11:34:53Z</time>
      </trkpt>
      <trkpt lat="48.74307" lon="-3.4804">
        <ele>76.5</ele>
        <time>2019-07-11T11:34:54Z</time>
      </trkpt>
      <trkpt lat="48.74308" lon="-3.48037">
        <ele>76.8</ele>
        <time>2019-07-11T11:34:55Z</time>
      </trkpt>
      <trkpt lat="48.74309" lon="-3.48035">
        <ele>76.9</ele>
        <time>2019-07-11T11:34:56Z</time>
      </trkpt>
      <trkpt lat="48.7431" lon="-3.48034">
        <ele>77.3</ele>
        <time>2019-07-11T11:34:57Z</time>
      </trkpt>
      <trkpt lat="48.7431" lon="-3.48031">
        <ele>77.5</ele>
        <time>2019-07-11T11:34:58Z</time>
      </trkpt>
      <trkpt lat="48.74311" lon="-3.48029">
        <ele>77.9</ele>
        <time>2019-07-11T11:34:59Z</time>
      </trkpt>
      <trkpt lat="48.74311" lon="-3.48027">
        <ele>78.4</ele>
        <time>2019-07-11T11:35:00Z</time>
      </trkpt>
      <trkpt lat="48.74312" lon="-3.48024">
        <ele>78.9</ele>
        <time>2019-07-11T11:35:01Z</time>
      </trkpt>
      <trkpt lat="48.74311" lon="-3.4802">
        <ele>78.9</ele>
        <time>2019-07-11T11:35:02Z</time>
      </trkpt>
      <trkpt lat="48.74311" lon="-3.48016">
        <ele>79.3</ele>
        <time>2019-07-11T11:35:03Z</time>
      </trkpt>
      <trkpt lat="48.74312" lon="-3.48013">
        <ele>79</ele>
        <time>2019-07-11T11:35:04Z</time>
      </trkpt>
      <trkpt lat="48.74312" lon="-3.4801">
        <ele>78.6</ele>
        <time>2019-07-11T11:35:05Z</time>
      </trkpt>
      <trkpt lat="48.74311" lon="-3.48006">
        <ele>76.5</ele>
        <time>2019-07-11T11:35:06Z</time>
      </trkpt>
      <trkpt lat="48.74312" lon="-3.48001">
        <ele>75</ele>
        <time>2019-07-11T11:35:07Z</time>
      </trkpt>
      <trkpt lat="48.74313" lon="-3.47997">
        <ele>73.8</ele>
        <time>2019-07-11T11:35:08Z</time>
      </trkpt>
      <trkpt lat="48.74315" lon="-3.47993">
        <ele>72.6</ele>
        <time>2019-07-11T11:35:09Z</time>
      </trkpt>
      <trkpt lat="48.74316" lon="-3.47988">
        <ele>71.8</ele>
        <time>2019-07-11T11:35:10Z</time>
      </trkpt>
      <trkpt lat="48.74316" lon="-3.47984">
        <ele>71</ele>
        <time>2019-07-11T11:35:11Z</time>
      </trkpt>
      <trkpt lat="48.74317" lon="-3.47979">
        <ele>70.4</ele>
        <time>2019-07-11T11:35:12Z</time>
      </trkpt>
      <trkpt lat="48.74318" lon="-3.47976">
        <ele>69.7</ele>
        <time>2019-07-11T11:35:13Z</time>
      </trkpt>
      <trkpt lat="48.74318" lon="-3.47973">
        <ele>69.2</ele>
        <time>2019-07-11T11:35:14Z</time>
      </trkpt>
      <trkpt lat="48.74318" lon="-3.4797">
        <ele>68.3</ele>
        <time>2019-07-11T11:35:15Z</time>
      </trkpt>
      <trkpt lat="48.74319" lon="-3.47967">
        <ele>68.2</ele>
        <time>2019-07-11T11:35:16Z</time>
      </trkpt>
      <trkpt lat="48.7432" lon="-3.47963">
        <ele>68</ele>
        <time>2019-07-11T11:35:17Z</time>
      </trkpt>
      <trkpt lat="48.7432" lon="-3.47959">
        <ele>67.7</ele>
        <time>2019-07-11T11:35:18Z</time>
      </trkpt>
      <trkpt lat="48.74321" lon="-3.47954">
        <ele>67</ele>
        <time>2019-07-11T11:35:19Z</time>
      </trkpt>
      <trkpt lat="48.74321" lon="-3.4795">
        <ele>66.4</ele>
        <time>2019-07-11T11:35:20Z</time>
      </trkpt>
      <trkpt lat="48.74322" lon="-3.47946">
        <ele>66.3</ele>
        <time>2019-07-11T11:35:21Z</time>
      </trkpt>
      <trkpt lat="48.74322" lon="-3.47942">
        <ele>66.1</ele>
        <time>2019-07-11T11:35:22Z</time>
      </trkpt>
      <trkpt lat="48.74322" lon="-3.47938">
        <ele>66.1</ele>
        <time>2019-07-11T11:35:23Z</time>
      </trkpt>
      <trkpt lat="48.74322" lon="-3.47934">
        <ele>66.1</ele>
        <time>2019-07-11T11:35:24Z</time>
      </trkpt>
      <trkpt lat="48.74323" lon="-3.47931">
        <ele>66.1</ele>
        <time>2019-07-11T11:35:25Z</time>
      </trkpt>
      <trkpt lat="48.74323" lon="-3.47928">
        <ele>66.1</ele>
        <time>2019-07-11T11:35:26Z</time>
      </trkpt>
      <trkpt lat="48.74323" lon="-3.47925">
        <ele>66.2</ele>
        <time>2019-07-11T11:35:27Z</time>
      </trkpt>
      <trkpt lat="48.74324" lon="-3.47922">
        <ele>66.7</ele>
        <time>2019-07-11T11:35:28Z</time>
      </trkpt>
      <trkpt lat="48.74324" lon="-3.47919">
        <ele>67</ele>
        <time>2019-07-11T11:35:29Z</time>
      </trkpt>
      <trkpt lat="48.74325" lon="-3.47916">
        <ele>66.4</ele>
        <time>2019-07-11T11:35:30Z</time>
      </trkpt>
      <trkpt lat="48.74325" lon="-3.47913">
        <ele>66.2</ele>
        <time>2019-07-11T11:35:31Z</time>
      </trkpt>
      <trkpt lat="48.74325" lon="-3.4791">
        <ele>66.1</ele>
        <time>2019-07-11T11:35:32Z</time>
      </trkpt>
      <trkpt lat="48.74325" lon="-3.47907">
        <ele>66</ele>
        <time>2019-07-11T11:35:33Z</time>
      </trkpt>
      <trkpt lat="48.74325" lon="-3.47903">
        <ele>66</ele>
        <time>2019-07-11T11:35:34Z</time>
      </trkpt>
      <trkpt lat="48.74324" lon="-3.47899">
        <ele>65.4</ele>
        <time>2019-07-11T11:35:35Z</time>
      </trkpt>
      <trkpt lat="48.74322" lon="-3.47896">
        <ele>65.3</ele>
        <time>2019-07-11T11:35:36Z</time>
      </trkpt>
      <trkpt lat="48.7432" lon="-3.47893">
        <ele>64.9</ele>
        <time>2019-07-11T11:35:37Z</time>
      </trkpt>
      <trkpt lat="48.7432" lon="-3.47891">
        <ele>64.6</ele>
        <time>2019-07-11T11:35:38Z</time>
      </trkpt>
      <trkpt lat="48.74319" lon="-3.47888">
        <ele>64.8</ele>
        <time>2019-07-11T11:35:39Z</time>
      </trkpt>
      <trkpt lat="48.7431" lon="-3.47881">
        <ele>65.1</ele>
        <time>2019-07-11T11:36:29Z</time>
      </trkpt>
      <trkpt lat="48.74309" lon="-3.47882">
        <ele>65.2</ele>
        <time>2019-07-11T11:36:30Z</time>
      </trkpt>
      <trkpt lat="48.74308" lon="-3.47884">
        <ele>65.4</ele>
        <time>2019-07-11T11:36:31Z</time>
      </trkpt>
      <trkpt lat="48.74305" lon="-3.47886">
        <ele>65.6</ele>
        <time>2019-07-11T11:36:32Z</time>
      </trkpt>
      <trkpt lat="48.74303" lon="-3.47888">
        <ele>65.9</ele>
        <time>2019-07-11T11:36:33Z</time>
      </trkpt>
      <trkpt lat="48.74301" lon="-3.4789">
        <ele>66</ele>
        <time>2019-07-11T11:36:34Z</time>
      </trkpt>
      <trkpt lat="48.74299" lon="-3.47891">
        <ele>66.1</ele>
        <time>2019-07-11T11:36:35Z</time>
      </trkpt>
      <trkpt lat="48.74296" lon="-3.47892">
        <ele>66.1</ele>
        <time>2019-07-11T11:36:36Z</time>
      </trkpt>
      <trkpt lat="48.74294" lon="-3.47893">
        <ele>66.1</ele>
        <time>2019-07-11T11:36:37Z</time>
      </trkpt>
      <trkpt lat="48.74292" lon="-3.47896">
        <ele>65.9</ele>
        <time>2019-07-11T11:36:38Z</time>
      </trkpt>
      <trkpt lat="48.7429" lon="-3.47899">
        <ele>65.6</ele>
        <time>2019-07-11T11:36:39Z</time>
      </trkpt>
      <trkpt lat="48.74288" lon="-3.47902">
        <ele>66.1</ele>
        <time>2019-07-11T11:36:40Z</time>
      </trkpt>
      <trkpt lat="48.74287" lon="-3.47906">
        <ele>66.1</ele>
        <time>2019-07-11T11:36:41Z</time>
      </trkpt>
      <trkpt lat="48.74286" lon="-3.47908">
        <ele>66.3</ele>
        <time>2019-07-11T11:36:42Z</time>
      </trkpt>
      <trkpt lat="48.74284" lon="-3.4791">
        <ele>66.6</ele>
        <time>2019-07-11T11:36:43Z</time>
      </trkpt>
      <trkpt lat="48.74283" lon="-3.47912">
        <ele>66.8</ele>
        <time>2019-07-11T11:36:44Z</time>
      </trkpt>
      <trkpt lat="48.74283" lon="-3.47914">
        <ele>67</ele>
        <time>2019-07-11T11:36:45Z</time>
      </trkpt>
      <trkpt lat="48.74283" lon="-3.47916">
        <ele>67.1</ele>
        <time>2019-07-11T11:36:46Z</time>
      </trkpt>
      <trkpt lat="48.74286" lon="-3.47917">
        <ele>71.1</ele>
        <time>2019-07-11T12:11:34Z</time>
      </trkpt>
      <trkpt lat="48.74284" lon="-3.47913">
        <ele>70.8</ele>
        <time>2019-07-11T12:11:37Z</time>
      </trkpt>
      <trkpt lat="48.74283" lon="-3.47911">
        <ele>70.5</ele>
        <time>2019-07-11T12:11:38Z</time>
      </trkpt>
      <trkpt lat="48.74284" lon="-3.4791">
        <ele>70.3</ele>
        <time>2019-07-11T12:11:39Z</time>
      </trkpt>
      <trkpt lat="48.74286" lon="-3.47909">
        <ele>70</ele>
        <time>2019-07-11T12:11:42Z</time>
      </trkpt>
      <trkpt lat="48.74287" lon="-3.47907">
        <ele>69.9</ele>
        <time>2019-07-11T12:11:43Z</time>
      </trkpt>
      <trkpt lat="48.74288" lon="-3.47907">
        <ele>69.7</ele>
        <time>2019-07-11T12:11:44Z</time>
      </trkpt>
      <trkpt lat="48.74297" lon="-3.47904">
        <ele>71.3</ele>
        <time>2019-07-11T12:11:54Z</time>
      </trkpt>
      <trkpt lat="48.74299" lon="-3.47903">
        <ele>71.7</ele>
        <time>2019-07-11T12:11:57Z</time>
      </trkpt>
      <trkpt lat="48.74301" lon="-3.47893">
        <ele>72</ele>
        <time>2019-07-11T12:12:15Z</time>
      </trkpt>
      <trkpt lat="48.743" lon="-3.47891">
        <ele>71.9</ele>
        <time>2019-07-11T12:12:16Z</time>
      </trkpt>
      <trkpt lat="48.743" lon="-3.4789">
        <ele>71.8</ele>
        <time>2019-07-11T12:12:17Z</time>
      </trkpt>
      <trkpt lat="48.74307" lon="-3.47878">
        <ele>70.1</ele>
        <time>2019-07-11T12:12:33Z</time>
      </trkpt>
      <trkpt lat="48.74311" lon="-3.47867">
        <ele>69.5</ele>
        <time>2019-07-11T12:12:55Z</time>
      </trkpt>
      <trkpt lat="48.74311" lon="-3.47865">
        <ele>69.5</ele>
        <time>2019-07-11T12:12:56Z</time>
      </trkpt>
      <trkpt lat="48.74311" lon="-3.47863">
        <ele>69.5</ele>
        <time>2019-07-11T12:12:57Z</time>
      </trkpt>
      <trkpt lat="48.74311" lon="-3.47862">
        <ele>69.5</ele>
        <time>2019-07-11T12:12:58Z</time>
      </trkpt>
      <trkpt lat="48.74311" lon="-3.47859">
        <ele>69.5</ele>
        <time>2019-07-11T12:12:59Z</time>
      </trkpt>
      <trkpt lat="48.7431" lon="-3.47857">
        <ele>69.7</ele>
        <time>2019-07-11T12:13:00Z</time>
      </trkpt>
      <trkpt lat="48.74309" lon="-3.47856">
        <ele>69.5</ele>
        <time>2019-07-11T12:13:01Z</time>
      </trkpt>
      <trkpt lat="48.74306" lon="-3.47854">
        <ele>69.2</ele>
        <time>2019-07-11T12:13:02Z</time>
      </trkpt>
      <trkpt lat="48.74304" lon="-3.47852">
        <ele>69</ele>
        <time>2019-07-11T12:13:03Z</time>
      </trkpt>
      <trkpt lat="48.74303" lon="-3.4785">
        <ele>68.9</ele>
        <time>2019-07-11T12:13:04Z</time>
      </trkpt>
      <trkpt lat="48.74301" lon="-3.47848">
        <ele>68.7</ele>
        <time>2019-07-11T12:13:05Z</time>
      </trkpt>
      <trkpt lat="48.743" lon="-3.47843">
        <ele>68.6</ele>
        <time>2019-07-11T12:13:06Z</time>
      </trkpt>
      <trkpt lat="48.743" lon="-3.47839">
        <ele>68.6</ele>
        <time>2019-07-11T12:13:07Z</time>
      </trkpt>
      <trkpt lat="48.74299" lon="-3.47836">
        <ele>68.7</ele>
        <time>2019-07-11T12:13:08Z</time>
      </trkpt>
      <trkpt lat="48.74297" lon="-3.47833">
        <ele>68.8</ele>
        <time>2019-07-11T12:13:09Z</time>
      </trkpt>
      <trkpt lat="48.74296" lon="-3.47829">
        <ele>68.9</ele>
        <time>2019-07-11T12:13:10Z</time>
      </trkpt>
      <trkpt lat="48.74295" lon="-3.47825">
        <ele>68.9</ele>
        <time>2019-07-11T12:13:11Z</time>
      </trkpt>
      <trkpt lat="48.74291" lon="-3.47821">
        <ele>68.2</ele>
        <time>2019-07-11T12:13:12Z</time>
      </trkpt>
      <trkpt lat="48.74288" lon="-3.47816">
        <ele>67.3</ele>
        <time>2019-07-11T12:13:13Z</time>
      </trkpt>
      <trkpt lat="48.74286" lon="-3.47811">
        <ele>66.5</ele>
        <time>2019-07-11T12:13:14Z</time>
      </trkpt>
      <trkpt lat="48.74283" lon="-3.47807">
        <ele>66.1</ele>
        <time>2019-07-11T12:13:15Z</time>
      </trkpt>
      <trkpt lat="48.7428" lon="-3.47802">
        <ele>65.6</ele>
        <time>2019-07-11T12:13:16Z</time>
      </trkpt>
      <trkpt lat="48.74278" lon="-3.47798">
        <ele>65.3</ele>
        <time>2019-07-11T12:13:17Z</time>
      </trkpt>
      <trkpt lat="48.74275" lon="-3.47793">
        <ele>64.9</ele>
        <time>2019-07-11T12:13:18Z</time>
      </trkpt>
      <trkpt lat="48.74273" lon="-3.47788">
        <ele>64.4</ele>
        <time>2019-07-11T12:13:19Z</time>
      </trkpt>
      <trkpt lat="48.7427" lon="-3.47784">
        <ele>63.9</ele>
        <time>2019-07-11T12:13:20Z</time>
      </trkpt>
      <trkpt lat="48.74268" lon="-3.47779">
        <ele>63.5</ele>
        <time>2019-07-11T12:13:21Z</time>
      </trkpt>
      <trkpt lat="48.74266" lon="-3.47773">
        <ele>63.5</ele>
        <time>2019-07-11T12:13:22Z</time>
      </trkpt>
      <trkpt lat="48.74264" lon="-3.4777">
        <ele>63.7</ele>
        <time>2019-07-11T12:13:23Z</time>
      </trkpt>
      <trkpt lat="48.74262" lon="-3.47768">
        <ele>63.8</ele>
        <time>2019-07-11T12:13:24Z</time>
      </trkpt>
      <trkpt lat="48.74259" lon="-3.47765">
        <ele>63.8</ele>
        <time>2019-07-11T12:13:25Z</time>
      </trkpt>
      <trkpt lat="48.74257" lon="-3.47762">
        <ele>64.2</ele>
        <time>2019-07-11T12:13:26Z</time>
      </trkpt>
      <trkpt lat="48.74254" lon="-3.47757">
        <ele>64.9</ele>
        <time>2019-07-11T12:13:27Z</time>
      </trkpt>
      <trkpt lat="48.74252" lon="-3.47753">
        <ele>66</ele>
        <time>2019-07-11T12:13:28Z</time>
      </trkpt>
      <trkpt lat="48.74251" lon="-3.47749">
        <ele>66.7</ele>
        <time>2019-07-11T12:13:29Z</time>
      </trkpt>
      <trkpt lat="48.74249" lon="-3.47746">
        <ele>67.8</ele>
        <time>2019-07-11T12:13:30Z</time>
      </trkpt>
      <trkpt lat="48.74249" lon="-3.47742">
        <ele>68.9</ele>
        <time>2019-07-11T12:13:31Z</time>
      </trkpt>
      <trkpt lat="48.74248" lon="-3.47738">
        <ele>69.9</ele>
        <time>2019-07-11T12:13:32Z</time>
      </trkpt>
      <trkpt lat="48.74247" lon="-3.47734">
        <ele>70.9</ele>
        <time>2019-07-11T12:13:33Z</time>
      </trkpt>
      <trkpt lat="48.74247" lon="-3.47731">
        <ele>71.1</ele>
        <time>2019-07-11T12:13:34Z</time>
      </trkpt>
      <trkpt lat="48.74245" lon="-3.47728">
        <ele>70.7</ele>
        <time>2019-07-11T12:13:35Z</time>
      </trkpt>
      <trkpt lat="48.74243" lon="-3.47725">
        <ele>70.5</ele>
        <time>2019-07-11T12:13:36Z</time>
      </trkpt>
      <trkpt lat="48.7424" lon="-3.47723">
        <ele>70.8</ele>
        <time>2019-07-11T12:13:37Z</time>
      </trkpt>
      <trkpt lat="48.74237" lon="-3.47721">
        <ele>71.2</ele>
        <time>2019-07-11T12:13:38Z</time>
      </trkpt>
      <trkpt lat="48.74235" lon="-3.47718">
        <ele>71.7</ele>
        <time>2019-07-11T12:13:39Z</time>
      </trkpt>
      <trkpt lat="48.74232" lon="-3.47716">
        <ele>72.1</ele>
        <time>2019-07-11T12:13:40Z</time>
      </trkpt>
      <trkpt lat="48.7423" lon="-3.47712">
        <ele>72.2</ele>
        <time>2019-07-11T12:13:41Z</time>
      </trkpt>
      <trkpt lat="48.74228" lon="-3.47709">
        <ele>72.3</ele>
        <time>2019-07-11T12:13:42Z</time>
      </trkpt>
      <trkpt lat="48.74227" lon="-3.47706">
        <ele>72.4</ele>
        <time>2019-07-11T12:13:43Z</time>
      </trkpt>
      <trkpt lat="48.74225" lon="-3.47703">
        <ele>72.3</ele>
        <time>2019-07-11T12:13:44Z</time>
      </trkpt>
      <trkpt lat="48.74223" lon="-3.47701">
        <ele>70.4</ele>
        <time>2019-07-11T12:13:45Z</time>
      </trkpt>
      <trkpt lat="48.74221" lon="-3.477">
        <ele>69.4</ele>
        <time>2019-07-11T12:13:46Z</time>
      </trkpt>
      <trkpt lat="48.74219" lon="-3.47698">
        <ele>68.6</ele>
        <time>2019-07-11T12:13:47Z</time>
      </trkpt>
      <trkpt lat="48.74217" lon="-3.47696">
        <ele>67.9</ele>
        <time>2019-07-11T12:13:48Z</time>
      </trkpt>
      <trkpt lat="48.74215" lon="-3.47694">
        <ele>67.8</ele>
        <time>2019-07-11T12:13:49Z</time>
      </trkpt>
      <trkpt lat="48.74213" lon="-3.47689">
        <ele>67.3</ele>
        <time>2019-07-11T12:13:52Z</time>
      </trkpt>
      <trkpt lat="48.74213" lon="-3.47686">
        <ele>67.5</ele>
        <time>2019-07-11T12:13:53Z</time>
      </trkpt>
      <trkpt lat="48.74214" lon="-3.47683">
        <ele>67.8</ele>
        <time>2019-07-11T12:13:54Z</time>
      </trkpt>
      <trkpt lat="48.74215" lon="-3.47681">
        <ele>68.3</ele>
        <time>2019-07-11T12:13:55Z</time>
      </trkpt>
      <trkpt lat="48.74216" lon="-3.47679">
        <ele>68.8</ele>
        <time>2019-07-11T12:13:56Z</time>
      </trkpt>
      <trkpt lat="48.74218" lon="-3.47677">
        <ele>69.4</ele>
        <time>2019-07-11T12:13:57Z</time>
      </trkpt>
      <trkpt lat="48.74219" lon="-3.47675">
        <ele>70</ele>
        <time>2019-07-11T12:13:58Z</time>
      </trkpt>
      <trkpt lat="48.7422" lon="-3.47673">
        <ele>70.5</ele>
        <time>2019-07-11T12:13:59Z</time>
      </trkpt>
      <trkpt lat="48.74222" lon="-3.47671">
        <ele>70.8</ele>
        <time>2019-07-11T12:14:00Z</time>
      </trkpt>
      <trkpt lat="48.74224" lon="-3.47669">
        <ele>70.6</ele>
        <time>2019-07-11T12:14:01Z</time>
      </trkpt>
      <trkpt lat="48.74225" lon="-3.47666">
        <ele>70.6</ele>
        <time>2019-07-11T12:14:02Z</time>
      </trkpt>
      <trkpt lat="48.74225" lon="-3.47662">
        <ele>70.5</ele>
        <time>2019-07-11T12:14:03Z</time>
      </trkpt>
      <trkpt lat="48.74226" lon="-3.47658">
        <ele>70.1</ele>
        <time>2019-07-11T12:14:04Z</time>
      </trkpt>
      <trkpt lat="48.74226" lon="-3.47654">
        <ele>69.9</ele>
        <time>2019-07-11T12:14:05Z</time>
      </trkpt>
      <trkpt lat="48.74226" lon="-3.47649">
        <ele>69.6</ele>
        <time>2019-07-11T12:14:06Z</time>
      </trkpt>
      <trkpt lat="48.74226" lon="-3.47644">
        <ele>69.3</ele>
        <time>2019-07-11T12:14:07Z</time>
      </trkpt>
      <trkpt lat="48.74226" lon="-3.4764">
        <ele>68.8</ele>
        <time>2019-07-11T12:14:08Z</time>
      </trkpt>
      <trkpt lat="48.74225" lon="-3.47636">
        <ele>69</ele>
        <time>2019-07-11T12:14:09Z</time>
      </trkpt>
      <trkpt lat="48.74224" lon="-3.47632">
        <ele>69.4</ele>
        <time>2019-07-11T12:14:10Z</time>
      </trkpt>
      <trkpt lat="48.74223" lon="-3.47628">
        <ele>69.4</ele>
        <time>2019-07-11T12:14:11Z</time>
      </trkpt>
      <trkpt lat="48.74222" lon="-3.47624">
        <ele>69.7</ele>
        <time>2019-07-11T12:14:12Z</time>
      </trkpt>
      <trkpt lat="48.74221" lon="-3.4762">
        <ele>70</ele>
        <time>2019-07-11T12:14:13Z</time>
      </trkpt>
      <trkpt lat="48.7422" lon="-3.47616">
        <ele>69.9</ele>
        <time>2019-07-11T12:14:14Z</time>
      </trkpt>
      <trkpt lat="48.7422" lon="-3.47613">
        <ele>70.2</ele>
        <time>2019-07-11T12:14:15Z</time>
      </trkpt>
      <trkpt lat="48.74219" lon="-3.47609">
        <ele>70.6</ele>
        <time>2019-07-11T12:14:16Z</time>
      </trkpt>
      <trkpt lat="48.74218" lon="-3.47606">
        <ele>70.1</ele>
        <time>2019-07-11T12:14:17Z</time>
      </trkpt>
      <trkpt lat="48.74218" lon="-3.47602">
        <ele>70</ele>
        <time>2019-07-11T12:14:18Z</time>
      </trkpt>
      <trkpt lat="48.74217" lon="-3.47599">
        <ele>69.7</ele>
        <time>2019-07-11T12:14:19Z</time>
      </trkpt>
      <trkpt lat="48.74216" lon="-3.47595">
        <ele>69.8</ele>
        <time>2019-07-11T12:14:20Z</time>
      </trkpt>
      <trkpt lat="48.74215" lon="-3.47592">
        <ele>69.5</ele>
        <time>2019-07-11T12:14:21Z</time>
      </trkpt>
      <trkpt lat="48.74215" lon="-3.47588">
        <ele>69.5</ele>
        <time>2019-07-11T12:14:22Z</time>
      </trkpt>
      <trkpt lat="48.74214" lon="-3.47585">
        <ele>69.8</ele>
        <time>2019-07-11T12:14:23Z</time>
      </trkpt>
      <trkpt lat="48.74214" lon="-3.47581">
        <ele>70.4</ele>
        <time>2019-07-11T12:14:24Z</time>
      </trkpt>
      <trkpt lat="48.74213" lon="-3.47578">
        <ele>71</ele>
        <time>2019-07-11T12:14:25Z</time>
      </trkpt>
      <trkpt lat="48.74213" lon="-3.47574">
        <ele>70.9</ele>
        <time>2019-07-11T12:14:26Z</time>
      </trkpt>
      <trkpt lat="48.74213" lon="-3.47571">
        <ele>71.7</ele>
        <time>2019-07-11T12:14:27Z</time>
      </trkpt>
      <trkpt lat="48.74212" lon="-3.47567">
        <ele>72.4</ele>
        <time>2019-07-11T12:14:28Z</time>
      </trkpt>
      <trkpt lat="48.74212" lon="-3.47563">
        <ele>72.5</ele>
        <time>2019-07-11T12:14:29Z</time>
      </trkpt>
      <trkpt lat="48.74211" lon="-3.47559">
        <ele>72.9</ele>
        <time>2019-07-11T12:14:30Z</time>
      </trkpt>
      <trkpt lat="48.7421" lon="-3.47556">
        <ele>72.8</ele>
        <time>2019-07-11T12:14:31Z</time>
      </trkpt>
      <trkpt lat="48.7421" lon="-3.47553">
        <ele>73.4</ele>
        <time>2019-07-11T12:14:32Z</time>
      </trkpt>
      <trkpt lat="48.74209" lon="-3.4755">
        <ele>73.2</ele>
        <time>2019-07-11T12:14:33Z</time>
      </trkpt>
      <trkpt lat="48.74208" lon="-3.47546">
        <ele>72.4</ele>
        <time>2019-07-11T12:14:34Z</time>
      </trkpt>
      <trkpt lat="48.74207" lon="-3.47543">
        <ele>70.8</ele>
        <time>2019-07-11T12:14:35Z</time>
      </trkpt>
      <trkpt lat="48.74206" lon="-3.4754">
        <ele>70.1</ele>
        <time>2019-07-11T12:14:36Z</time>
      </trkpt>
      <trkpt lat="48.74205" lon="-3.47537">
        <ele>69.4</ele>
        <time>2019-07-11T12:14:37Z</time>
      </trkpt>
      <trkpt lat="48.74205" lon="-3.47534">
        <ele>68.9</ele>
        <time>2019-07-11T12:14:38Z</time>
      </trkpt>
      <trkpt lat="48.74204" lon="-3.4753">
        <ele>68.4</ele>
        <time>2019-07-11T12:14:39Z</time>
      </trkpt>
      <trkpt lat="48.74203" lon="-3.47527">
        <ele>68.7</ele>
        <time>2019-07-11T12:14:40Z</time>
      </trkpt>
      <trkpt lat="48.74202" lon="-3.47524">
        <ele>69.3</ele>
        <time>2019-07-11T12:14:41Z</time>
      </trkpt>
      <trkpt lat="48.74201" lon="-3.47521">
        <ele>70.1</ele>
        <time>2019-07-11T12:14:42Z</time>
      </trkpt>
      <trkpt lat="48.74201" lon="-3.47518">
        <ele>70.1</ele>
        <time>2019-07-11T12:14:43Z</time>
      </trkpt>
      <trkpt lat="48.742" lon="-3.47514">
        <ele>70.9</ele>
        <time>2019-07-11T12:14:44Z</time>
      </trkpt>
      <trkpt lat="48.742" lon="-3.47511">
        <ele>71.1</ele>
        <time>2019-07-11T12:14:45Z</time>
      </trkpt>
      <trkpt lat="48.742" lon="-3.47507">
        <ele>71.5</ele>
        <time>2019-07-11T12:14:46Z</time>
      </trkpt>
      <trkpt lat="48.74199" lon="-3.47504">
        <ele>71.7</ele>
        <time>2019-07-11T12:14:47Z</time>
      </trkpt>
      <trkpt lat="48.74199" lon="-3.475">
        <ele>72.4</ele>
        <time>2019-07-11T12:14:48Z</time>
      </trkpt>
      <trkpt lat="48.74199" lon="-3.47496">
        <ele>72.4</ele>
        <time>2019-07-11T12:14:49Z</time>
      </trkpt>
      <trkpt lat="48.74199" lon="-3.47492">
        <ele>72.4</ele>
        <time>2019-07-11T12:14:50Z</time>
      </trkpt>
      <trkpt lat="48.74198" lon="-3.47488">
        <ele>72.2</ele>
        <time>2019-07-11T12:14:51Z</time>
      </trkpt>
      <trkpt lat="48.74197" lon="-3.47485">
        <ele>72.5</ele>
        <time>2019-07-11T12:14:52Z</time>
      </trkpt>
      <trkpt lat="48.74197" lon="-3.47481">
        <ele>72.3</ele>
        <time>2019-07-11T12:14:53Z</time>
      </trkpt>
      <trkpt lat="48.74197" lon="-3.47477">
        <ele>72.3</ele>
        <time>2019-07-11T12:14:54Z</time>
      </trkpt>
      <trkpt lat="48.74197" lon="-3.47473">
        <ele>72.5</ele>
        <time>2019-07-11T12:14:55Z</time>
      </trkpt>
      <trkpt lat="48.74197" lon="-3.47469">
        <ele>71.9</ele>
        <time>2019-07-11T12:14:56Z</time>
      </trkpt>
      <trkpt lat="48.74197" lon="-3.47466">
        <ele>71.7</ele>
        <time>2019-07-11T12:14:57Z</time>
      </trkpt>
      <trkpt lat="48.74197" lon="-3.47462">
        <ele>71.9</ele>
        <time>2019-07-11T12:14:58Z</time>
      </trkpt>
      <trkpt lat="48.74198" lon="-3.47459">
        <ele>72.1</ele>
        <time>2019-07-11T12:14:59Z</time>
      </trkpt>
      <trkpt lat="48.74198" lon="-3.47456">
        <ele>73</ele>
        <time>2019-07-11T12:15:00Z</time>
      </trkpt>
      <trkpt lat="48.74198" lon="-3.47452">
        <ele>73.3</ele>
        <time>2019-07-11T12:15:01Z</time>
      </trkpt>
      <trkpt lat="48.74198" lon="-3.47449">
        <ele>73.7</ele>
        <time>2019-07-11T12:15:02Z</time>
      </trkpt>
      <trkpt lat="48.74198" lon="-3.47446">
        <ele>74.6</ele>
        <time>2019-07-11T12:15:03Z</time>
      </trkpt>
      <trkpt lat="48.74198" lon="-3.47442">
        <ele>75.3</ele>
        <time>2019-07-11T12:15:04Z</time>
      </trkpt>
      <trkpt lat="48.74199" lon="-3.47439">
        <ele>75.5</ele>
        <time>2019-07-11T12:15:05Z</time>
      </trkpt>
      <trkpt lat="48.74199" lon="-3.47435">
        <ele>76</ele>
        <time>2019-07-11T12:15:06Z</time>
      </trkpt>
      <trkpt lat="48.742" lon="-3.47432">
        <ele>75.8</ele>
        <time>2019-07-11T12:15:07Z</time>
      </trkpt>
      <trkpt lat="48.742" lon="-3.47429">
        <ele>75.5</ele>
        <time>2019-07-11T12:15:08Z</time>
      </trkpt>
      <trkpt lat="48.742" lon="-3.47426">
        <ele>74.8</ele>
        <time>2019-07-11T12:15:09Z</time>
      </trkpt>
      <trkpt lat="48.74202" lon="-3.47422">
        <ele>74.4</ele>
        <time>2019-07-11T12:15:10Z</time>
      </trkpt>
      <trkpt lat="48.74202" lon="-3.47419">
        <ele>74.6</ele>
        <time>2019-07-11T12:15:11Z</time>
      </trkpt>
      <trkpt lat="48.74203" lon="-3.47416">
        <ele>74.4</ele>
        <time>2019-07-11T12:15:12Z</time>
      </trkpt>
      <trkpt lat="48.74204" lon="-3.47413">
        <ele>74.9</ele>
        <time>2019-07-11T12:15:13Z</time>
      </trkpt>
      <trkpt lat="48.74204" lon="-3.4741">
        <ele>75.3</ele>
        <time>2019-07-11T12:15:14Z</time>
      </trkpt>
      <trkpt lat="48.74204" lon="-3.47408">
        <ele>75.7</ele>
        <time>2019-07-11T12:15:15Z</time>
      </trkpt>
      <trkpt lat="48.74205" lon="-3.47404">
        <ele>75.7</ele>
        <time>2019-07-11T12:15:16Z</time>
      </trkpt>
      <trkpt lat="48.74206" lon="-3.47401">
        <ele>75.2</ele>
        <time>2019-07-11T12:15:17Z</time>
      </trkpt>
      <trkpt lat="48.74208" lon="-3.47398">
        <ele>74.9</ele>
        <time>2019-07-11T12:15:18Z</time>
      </trkpt>
      <trkpt lat="48.74209" lon="-3.47395">
        <ele>75</ele>
        <time>2019-07-11T12:15:19Z</time>
      </trkpt>
      <trkpt lat="48.7421" lon="-3.47393">
        <ele>75.1</ele>
        <time>2019-07-11T12:15:20Z</time>
      </trkpt>
      <trkpt lat="48.74212" lon="-3.47391">
        <ele>75.3</ele>
        <time>2019-07-11T12:15:21Z</time>
      </trkpt>
      <trkpt lat="48.74213" lon="-3.47388">
        <ele>75.4</ele>
        <time>2019-07-11T12:15:22Z</time>
      </trkpt>
      <trkpt lat="48.74215" lon="-3.47386">
        <ele>75.2</ele>
        <time>2019-07-11T12:15:23Z</time>
      </trkpt>
      <trkpt lat="48.74217" lon="-3.47383">
        <ele>74.7</ele>
        <time>2019-07-11T12:15:24Z</time>
      </trkpt>
      <trkpt lat="48.74218" lon="-3.47381">
        <ele>74.4</ele>
        <time>2019-07-11T12:15:25Z</time>
      </trkpt>
      <trkpt lat="48.7422" lon="-3.47378">
        <ele>73.6</ele>
        <time>2019-07-11T12:15:26Z</time>
      </trkpt>
      <trkpt lat="48.74221" lon="-3.47375">
        <ele>73.1</ele>
        <time>2019-07-11T12:15:27Z</time>
      </trkpt>
      <trkpt lat="48.74222" lon="-3.47373">
        <ele>73.2</ele>
        <time>2019-07-11T12:15:28Z</time>
      </trkpt>
      <trkpt lat="48.74224" lon="-3.47371">
        <ele>73.3</ele>
        <time>2019-07-11T12:15:29Z</time>
      </trkpt>
      <trkpt lat="48.74225" lon="-3.47368">
        <ele>73.4</ele>
        <time>2019-07-11T12:15:30Z</time>
      </trkpt>
      <trkpt lat="48.74227" lon="-3.47366">
        <ele>73.5</ele>
        <time>2019-07-11T12:15:31Z</time>
      </trkpt>
      <trkpt lat="48.74229" lon="-3.47365">
        <ele>73.5</ele>
        <time>2019-07-11T12:15:32Z</time>
      </trkpt>
      <trkpt lat="48.74231" lon="-3.47363">
        <ele>73.6</ele>
        <time>2019-07-11T12:15:33Z</time>
      </trkpt>
      <trkpt lat="48.74233" lon="-3.47361">
        <ele>73.9</ele>
        <time>2019-07-11T12:15:34Z</time>
      </trkpt>
      <trkpt lat="48.74234" lon="-3.4736">
        <ele>74.2</ele>
        <time>2019-07-11T12:15:35Z</time>
      </trkpt>
      <trkpt lat="48.74236" lon="-3.47358">
        <ele>74.5</ele>
        <time>2019-07-11T12:15:36Z</time>
      </trkpt>
      <trkpt lat="48.74237" lon="-3.47357">
        <ele>74.9</ele>
        <time>2019-07-11T12:15:37Z</time>
      </trkpt>
      <trkpt lat="48.74239" lon="-3.47356">
        <ele>75.1</ele>
        <time>2019-07-11T12:15:38Z</time>
      </trkpt>
      <trkpt lat="48.7424" lon="-3.47355">
        <ele>75.5</ele>
        <time>2019-07-11T12:15:39Z</time>
      </trkpt>
      <trkpt lat="48.74242" lon="-3.47353">
        <ele>75.9</ele>
        <time>2019-07-11T12:15:40Z</time>
      </trkpt>
      <trkpt lat="48.74245" lon="-3.47351">
        <ele>75.8</ele>
        <time>2019-07-11T12:15:41Z</time>
      </trkpt>
      <trkpt lat="48.74247" lon="-3.47348">
        <ele>75.4</ele>
        <time>2019-07-11T12:15:42Z</time>
      </trkpt>
      <trkpt lat="48.74249" lon="-3.47346">
        <ele>75.3</ele>
        <time>2019-07-11T12:15:43Z</time>
      </trkpt>
      <trkpt lat="48.74251" lon="-3.47344">
        <ele>75.2</ele>
        <time>2019-07-11T12:15:44Z</time>
      </trkpt>
      <trkpt lat="48.74254" lon="-3.47342">
        <ele>74.8</ele>
        <time>2019-07-11T12:15:45Z</time>
      </trkpt>
      <trkpt lat="48.74255" lon="-3.4734">
        <ele>74.8</ele>
        <time>2019-07-11T12:15:46Z</time>
      </trkpt>
      <trkpt lat="48.74257" lon="-3.47338">
        <ele>74.7</ele>
        <time>2019-07-11T12:15:47Z</time>
      </trkpt>
      <trkpt lat="48.74258" lon="-3.47335">
        <ele>74.5</ele>
        <time>2019-07-11T12:15:48Z</time>
      </trkpt>
      <trkpt lat="48.74259" lon="-3.47331">
        <ele>74.4</ele>
        <time>2019-07-11T12:15:49Z</time>
      </trkpt>
      <trkpt lat="48.7426" lon="-3.47328">
        <ele>74.3</ele>
        <time>2019-07-11T12:15:50Z</time>
      </trkpt>
      <trkpt lat="48.7426" lon="-3.47325">
        <ele>74.1</ele>
        <time>2019-07-11T12:15:51Z</time>
      </trkpt>
      <trkpt lat="48.74261" lon="-3.47321">
        <ele>74.1</ele>
        <time>2019-07-11T12:15:52Z</time>
      </trkpt>
      <trkpt lat="48.74261" lon="-3.47318">
        <ele>74</ele>
        <time>2019-07-11T12:15:53Z</time>
      </trkpt>
      <trkpt lat="48.74262" lon="-3.47315">
        <ele>74</ele>
        <time>2019-07-11T12:15:54Z</time>
      </trkpt>
      <trkpt lat="48.74264" lon="-3.47311">
        <ele>74</ele>
        <time>2019-07-11T12:15:55Z</time>
      </trkpt>
      <trkpt lat="48.74266" lon="-3.47308">
        <ele>73.9</ele>
        <time>2019-07-11T12:15:56Z</time>
      </trkpt>
      <trkpt lat="48.74268" lon="-3.47305">
        <ele>73.3</ele>
        <time>2019-07-11T12:15:57Z</time>
      </trkpt>
      <trkpt lat="48.7427" lon="-3.47303">
        <ele>72.8</ele>
        <time>2019-07-11T12:15:58Z</time>
      </trkpt>
      <trkpt lat="48.74272" lon="-3.47302">
        <ele>72.5</ele>
        <time>2019-07-11T12:15:59Z</time>
      </trkpt>
      <trkpt lat="48.74274" lon="-3.47301">
        <ele>71.9</ele>
        <time>2019-07-11T12:16:00Z</time>
      </trkpt>
      <trkpt lat="48.74277" lon="-3.47301">
        <ele>71.7</ele>
        <time>2019-07-11T12:16:01Z</time>
      </trkpt>
      <trkpt lat="48.74279" lon="-3.47301">
        <ele>71.1</ele>
        <time>2019-07-11T12:16:02Z</time>
      </trkpt>
      <trkpt lat="48.74281" lon="-3.47301">
        <ele>70.1</ele>
        <time>2019-07-11T12:16:03Z</time>
      </trkpt>
      <trkpt lat="48.74284" lon="-3.47301">
        <ele>69.2</ele>
        <time>2019-07-11T12:16:04Z</time>
      </trkpt>
      <trkpt lat="48.74286" lon="-3.47302">
        <ele>68.6</ele>
        <time>2019-07-11T12:16:05Z</time>
      </trkpt>
      <trkpt lat="48.74287" lon="-3.47302">
        <ele>68.6</ele>
        <time>2019-07-11T12:16:06Z</time>
      </trkpt>
      <trkpt lat="48.7429" lon="-3.47301">
        <ele>68.2</ele>
        <time>2019-07-11T12:16:07Z</time>
      </trkpt>
      <trkpt lat="48.74292" lon="-3.473">
        <ele>68.2</ele>
        <time>2019-07-11T12:16:08Z</time>
      </trkpt>
      <trkpt lat="48.74294" lon="-3.47298">
        <ele>68.8</ele>
        <time>2019-07-11T12:16:09Z</time>
      </trkpt>
      <trkpt lat="48.74296" lon="-3.47297">
        <ele>69</ele>
        <time>2019-07-11T12:16:10Z</time>
      </trkpt>
      <trkpt lat="48.74298" lon="-3.47295">
        <ele>69.6</ele>
        <time>2019-07-11T12:16:11Z</time>
      </trkpt>
      <trkpt lat="48.743" lon="-3.47293">
        <ele>70.2</ele>
        <time>2019-07-11T12:16:12Z</time>
      </trkpt>
      <trkpt lat="48.74302" lon="-3.47291">
        <ele>69.8</ele>
        <time>2019-07-11T12:16:13Z</time>
      </trkpt>
      <trkpt lat="48.74304" lon="-3.47289">
        <ele>69.6</ele>
        <time>2019-07-11T12:16:14Z</time>
      </trkpt>
      <trkpt lat="48.74306" lon="-3.47286">
        <ele>69.8</ele>
        <time>2019-07-11T12:16:15Z</time>
      </trkpt>
      <trkpt lat="48.74309" lon="-3.47284">
        <ele>70.7</ele>
        <time>2019-07-11T12:16:16Z</time>
      </trkpt>
      <trkpt lat="48.74311" lon="-3.47282">
        <ele>72.2</ele>
        <time>2019-07-11T12:16:17Z</time>
      </trkpt>
      <trkpt lat="48.74313" lon="-3.4728">
        <ele>73.8</ele>
        <time>2019-07-11T12:16:18Z</time>
      </trkpt>
      <trkpt lat="48.74316" lon="-3.47277">
        <ele>74.7</ele>
        <time>2019-07-11T12:16:19Z</time>
      </trkpt>
      <trkpt lat="48.74319" lon="-3.47275">
        <ele>75.3</ele>
        <time>2019-07-11T12:16:20Z</time>
      </trkpt>
      <trkpt lat="48.74323" lon="-3.47273">
        <ele>74.9</ele>
        <time>2019-07-11T12:16:21Z</time>
      </trkpt>
      <trkpt lat="48.74326" lon="-3.47271">
        <ele>74.6</ele>
        <time>2019-07-11T12:16:22Z</time>
      </trkpt>
      <trkpt lat="48.74329" lon="-3.47268">
        <ele>74.4</ele>
        <time>2019-07-11T12:16:23Z</time>
      </trkpt>
      <trkpt lat="48.74332" lon="-3.47266">
        <ele>74.4</ele>
        <time>2019-07-11T12:16:24Z</time>
      </trkpt>
      <trkpt lat="48.74334" lon="-3.47263">
        <ele>75.2</ele>
        <time>2019-07-11T12:16:25Z</time>
      </trkpt>
      <trkpt lat="48.74337" lon="-3.4726">
        <ele>75.7</ele>
        <time>2019-07-11T12:16:26Z</time>
      </trkpt>
      <trkpt lat="48.7434" lon="-3.47257">
        <ele>76.2</ele>
        <time>2019-07-11T12:16:27Z</time>
      </trkpt>
      <trkpt lat="48.74343" lon="-3.47254">
        <ele>77</ele>
        <time>2019-07-11T12:16:28Z</time>
      </trkpt>
      <trkpt lat="48.74346" lon="-3.47252">
        <ele>77.5</ele>
        <time>2019-07-11T12:16:29Z</time>
      </trkpt>
      <trkpt lat="48.74349" lon="-3.47249">
        <ele>78.2</ele>
        <time>2019-07-11T12:16:30Z</time>
      </trkpt>
      <trkpt lat="48.74352" lon="-3.47246">
        <ele>79.1</ele>
        <time>2019-07-11T12:16:31Z</time>
      </trkpt>
      <trkpt lat="48.74354" lon="-3.47244">
        <ele>79.7</ele>
        <time>2019-07-11T12:16:32Z</time>
      </trkpt>
      <trkpt lat="48.74357" lon="-3.47242">
        <ele>80.1</ele>
        <time>2019-07-11T12:16:33Z</time>
      </trkpt>
      <trkpt lat="48.74359" lon="-3.47239">
        <ele>80.9</ele>
        <time>2019-07-11T12:16:34Z</time>
      </trkpt>
      <trkpt lat="48.74361" lon="-3.47236">
        <ele>81.8</ele>
        <time>2019-07-11T12:16:35Z</time>
      </trkpt>
      <trkpt lat="48.74365" lon="-3.47233">
        <ele>82.6</ele>
        <time>2019-07-11T12:16:36Z</time>
      </trkpt>
      <trkpt lat="48.74367" lon="-3.4723">
        <ele>83.4</ele>
        <time>2019-07-11T12:16:37Z</time>
      </trkpt>
      <trkpt lat="48.74369" lon="-3.47227">
        <ele>84.7</ele>
        <time>2019-07-11T12:16:38Z</time>
      </trkpt>
      <trkpt lat="48.74373" lon="-3.47224">
        <ele>85.6</ele>
        <time>2019-07-11T12:16:39Z</time>
      </trkpt>
      <trkpt lat="48.74375" lon="-3.47221">
        <ele>86.3</ele>
        <time>2019-07-11T12:16:40Z</time>
      </trkpt>
      <trkpt lat="48.74378" lon="-3.47217">
        <ele>86.9</ele>
        <time>2019-07-11T12:16:41Z</time>
      </trkpt>
      <trkpt lat="48.74381" lon="-3.47215">
        <ele>86.7</ele>
        <time>2019-07-11T12:16:42Z</time>
      </trkpt>
      <trkpt lat="48.74384" lon="-3.47213">
        <ele>86.4</ele>
        <time>2019-07-11T12:16:43Z</time>
      </trkpt>
      <trkpt lat="48.74386" lon="-3.47211">
        <ele>86.7</ele>
        <time>2019-07-11T12:16:44Z</time>
      </trkpt>
      <trkpt lat="48.74389" lon="-3.47209">
        <ele>87</ele>
        <time>2019-07-11T12:16:45Z</time>
      </trkpt>
      <trkpt lat="48.74391" lon="-3.47207">
        <ele>86.8</ele>
        <time>2019-07-11T12:16:46Z</time>
      </trkpt>
      <trkpt lat="48.74394" lon="-3.47206">
        <ele>86.7</ele>
        <time>2019-07-11T12:16:47Z</time>
      </trkpt>
      <trkpt lat="48.74395" lon="-3.47204">
        <ele>86</ele>
        <time>2019-07-11T12:16:48Z</time>
      </trkpt>
      <trkpt lat="48.74398" lon="-3.47202">
        <ele>86.2</ele>
        <time>2019-07-11T12:16:49Z</time>
      </trkpt>
      <trkpt lat="48.74401" lon="-3.472">
        <ele>85.9</ele>
        <time>2019-07-11T12:16:50Z</time>
      </trkpt>
      <trkpt lat="48.74403" lon="-3.47198">
        <ele>85.8</ele>
        <time>2019-07-11T12:16:51Z</time>
      </trkpt>
      <trkpt lat="48.74406" lon="-3.47195">
        <ele>86.3</ele>
        <time>2019-07-11T12:16:52Z</time>
      </trkpt>
      <trkpt lat="48.74409" lon="-3.47192">
        <ele>86.3</ele>
        <time>2019-07-11T12:16:53Z</time>
      </trkpt>
      <trkpt lat="48.74411" lon="-3.4719">
        <ele>86</ele>
        <time>2019-07-11T12:16:54Z</time>
      </trkpt>
      <trkpt lat="48.74414" lon="-3.47187">
        <ele>86.6</ele>
        <time>2019-07-11T12:16:55Z</time>
      </trkpt>
      <trkpt lat="48.74417" lon="-3.47184">
        <ele>86.1</ele>
        <time>2019-07-11T12:16:56Z</time>
      </trkpt>
      <trkpt lat="48.7442" lon="-3.47182">
        <ele>85.8</ele>
        <time>2019-07-11T12:16:57Z</time>
      </trkpt>
      <trkpt lat="48.74423" lon="-3.47179">
        <ele>86</ele>
        <time>2019-07-11T12:16:58Z</time>
      </trkpt>
      <trkpt lat="48.74425" lon="-3.47177">
        <ele>86.1</ele>
        <time>2019-07-11T12:16:59Z</time>
      </trkpt>
      <trkpt lat="48.74427" lon="-3.47175">
        <ele>86</ele>
        <time>2019-07-11T12:17:00Z</time>
      </trkpt>
      <trkpt lat="48.7443" lon="-3.47173">
        <ele>86.3</ele>
        <time>2019-07-11T12:17:01Z</time>
      </trkpt>
      <trkpt lat="48.74432" lon="-3.4717">
        <ele>86.3</ele>
        <time>2019-07-11T12:17:02Z</time>
      </trkpt>
      <trkpt lat="48.74435" lon="-3.47168">
        <ele>86.9</ele>
        <time>2019-07-11T12:17:03Z</time>
      </trkpt>
      <trkpt lat="48.74438" lon="-3.47166">
        <ele>87.1</ele>
        <time>2019-07-11T12:17:04Z</time>
      </trkpt>
      <trkpt lat="48.7444" lon="-3.47165">
        <ele>87.1</ele>
        <time>2019-07-11T12:17:05Z</time>
      </trkpt>
      <trkpt lat="48.74443" lon="-3.47163">
        <ele>87.1</ele>
        <time>2019-07-11T12:17:06Z</time>
      </trkpt>
      <trkpt lat="48.74445" lon="-3.47161">
        <ele>87.1</ele>
        <time>2019-07-11T12:17:07Z</time>
      </trkpt>
      <trkpt lat="48.74447" lon="-3.47159">
        <ele>87.1</ele>
        <time>2019-07-11T12:17:08Z</time>
      </trkpt>
      <trkpt lat="48.74448" lon="-3.47157">
        <ele>87.4</ele>
        <time>2019-07-11T12:17:09Z</time>
      </trkpt>
      <trkpt lat="48.74451" lon="-3.47155">
        <ele>87.8</ele>
        <time>2019-07-11T12:17:10Z</time>
      </trkpt>
      <trkpt lat="48.74453" lon="-3.47153">
        <ele>88</ele>
        <time>2019-07-11T12:17:11Z</time>
      </trkpt>
      <trkpt lat="48.74455" lon="-3.4715">
        <ele>87.9</ele>
        <time>2019-07-11T12:17:12Z</time>
      </trkpt>
      <trkpt lat="48.74457" lon="-3.47148">
        <ele>88</ele>
        <time>2019-07-11T12:17:13Z</time>
      </trkpt>
      <trkpt lat="48.74458" lon="-3.47146">
        <ele>88.2</ele>
        <time>2019-07-11T12:17:14Z</time>
      </trkpt>
      <trkpt lat="48.7446" lon="-3.47144">
        <ele>88.4</ele>
        <time>2019-07-11T12:17:15Z</time>
      </trkpt>
      <trkpt lat="48.74462" lon="-3.47142">
        <ele>88.4</ele>
        <time>2019-07-11T12:17:16Z</time>
      </trkpt>
      <trkpt lat="48.74464" lon="-3.4714">
        <ele>88</ele>
        <time>2019-07-11T12:17:17Z</time>
      </trkpt>
      <trkpt lat="48.74466" lon="-3.47139">
        <ele>87.5</ele>
        <time>2019-07-11T12:17:18Z</time>
      </trkpt>
      <trkpt lat="48.74468" lon="-3.47137">
        <ele>86.9</ele>
        <time>2019-07-11T12:17:19Z</time>
      </trkpt>
      <trkpt lat="48.74469" lon="-3.47134">
        <ele>86.2</ele>
        <time>2019-07-11T12:17:20Z</time>
      </trkpt>
      <trkpt lat="48.7447" lon="-3.47131">
        <ele>86.2</ele>
        <time>2019-07-11T12:17:21Z</time>
      </trkpt>
      <trkpt lat="48.74471" lon="-3.47128">
        <ele>86.1</ele>
        <time>2019-07-11T12:17:22Z</time>
      </trkpt>
      <trkpt lat="48.74473" lon="-3.47125">
        <ele>85.9</ele>
        <time>2019-07-11T12:17:23Z</time>
      </trkpt>
      <trkpt lat="48.74476" lon="-3.47123">
        <ele>86.1</ele>
        <time>2019-07-11T12:17:24Z</time>
      </trkpt>
      <trkpt lat="48.74478" lon="-3.47121">
        <ele>86.4</ele>
        <time>2019-07-11T12:17:25Z</time>
      </trkpt>
      <trkpt lat="48.7448" lon="-3.47118">
        <ele>86.9</ele>
        <time>2019-07-11T12:17:26Z</time>
      </trkpt>
      <trkpt lat="48.74482" lon="-3.47117">
        <ele>87.9</ele>
        <time>2019-07-11T12:17:27Z</time>
      </trkpt>
      <trkpt lat="48.74484" lon="-3.47115">
        <ele>88.8</ele>
        <time>2019-07-11T12:17:28Z</time>
      </trkpt>
      <trkpt lat="48.74486" lon="-3.47114">
        <ele>89.7</ele>
        <time>2019-07-11T12:17:29Z</time>
      </trkpt>
      <trkpt lat="48.74488" lon="-3.47112">
        <ele>90.5</ele>
        <time>2019-07-11T12:17:30Z</time>
      </trkpt>
      <trkpt lat="48.74489" lon="-3.47111">
        <ele>91.6</ele>
        <time>2019-07-11T12:17:31Z</time>
      </trkpt>
      <trkpt lat="48.74491" lon="-3.47108">
        <ele>92.3</ele>
        <time>2019-07-11T12:17:32Z</time>
      </trkpt>
      <trkpt lat="48.74493" lon="-3.47106">
        <ele>92.5</ele>
        <time>2019-07-11T12:17:33Z</time>
      </trkpt>
      <trkpt lat="48.74495" lon="-3.47103">
        <ele>92.9</ele>
        <time>2019-07-11T12:17:34Z</time>
      </trkpt>
      <trkpt lat="48.74498" lon="-3.471">
        <ele>93.4</ele>
        <time>2019-07-11T12:17:35Z</time>
      </trkpt>
      <trkpt lat="48.74499" lon="-3.47098">
        <ele>93.8</ele>
        <time>2019-07-11T12:17:36Z</time>
      </trkpt>
      <trkpt lat="48.74501" lon="-3.47097">
        <ele>94.3</ele>
        <time>2019-07-11T12:17:37Z</time>
      </trkpt>
      <trkpt lat="48.74503" lon="-3.47097">
        <ele>94.1</ele>
        <time>2019-07-11T12:17:38Z</time>
      </trkpt>
      <trkpt lat="48.74505" lon="-3.47096">
        <ele>94.9</ele>
        <time>2019-07-11T12:17:39Z</time>
      </trkpt>
      <trkpt lat="48.74508" lon="-3.47094">
        <ele>95.3</ele>
        <time>2019-07-11T12:17:40Z</time>
      </trkpt>
      <trkpt lat="48.7451" lon="-3.47093">
        <ele>95.4</ele>
        <time>2019-07-11T12:17:41Z</time>
      </trkpt>
      <trkpt lat="48.74512" lon="-3.47091">
        <ele>95.4</ele>
        <time>2019-07-11T12:17:42Z</time>
      </trkpt>
      <trkpt lat="48.74515" lon="-3.47087">
        <ele>94.9</ele>
        <time>2019-07-11T12:17:43Z</time>
      </trkpt>
      <trkpt lat="48.74518" lon="-3.47084">
        <ele>95.2</ele>
        <time>2019-07-11T12:17:44Z</time>
      </trkpt>
      <trkpt lat="48.74521" lon="-3.47082">
        <ele>95.2</ele>
        <time>2019-07-11T12:17:45Z</time>
      </trkpt>
      <trkpt lat="48.74523" lon="-3.47079">
        <ele>95.1</ele>
        <time>2019-07-11T12:17:46Z</time>
      </trkpt>
      <trkpt lat="48.74525" lon="-3.47077">
        <ele>94.8</ele>
        <time>2019-07-11T12:17:47Z</time>
      </trkpt>
      <trkpt lat="48.74528" lon="-3.47075">
        <ele>94.9</ele>
        <time>2019-07-11T12:17:48Z</time>
      </trkpt>
      <trkpt lat="48.7453" lon="-3.47074">
        <ele>95</ele>
        <time>2019-07-11T12:17:49Z</time>
      </trkpt>
      <trkpt lat="48.74533" lon="-3.47071">
        <ele>95.3</ele>
        <time>2019-07-11T12:17:50Z</time>
      </trkpt>
      <trkpt lat="48.74535" lon="-3.47069">
        <ele>95.7</ele>
        <time>2019-07-11T12:17:51Z</time>
      </trkpt>
      <trkpt lat="48.74538" lon="-3.47064">
        <ele>95.8</ele>
        <time>2019-07-11T12:17:52Z</time>
      </trkpt>
      <trkpt lat="48.7454" lon="-3.47059">
        <ele>95.5</ele>
        <time>2019-07-11T12:17:53Z</time>
      </trkpt>
      <trkpt lat="48.74542" lon="-3.47055">
        <ele>95</ele>
        <time>2019-07-11T12:17:54Z</time>
      </trkpt>
      <trkpt lat="48.74543" lon="-3.47051">
        <ele>95</ele>
        <time>2019-07-11T12:17:55Z</time>
      </trkpt>
      <trkpt lat="48.74546" lon="-3.47049">
        <ele>95</ele>
        <time>2019-07-11T12:17:56Z</time>
      </trkpt>
      <trkpt lat="48.74547" lon="-3.47046">
        <ele>95.1</ele>
        <time>2019-07-11T12:17:57Z</time>
      </trkpt>
      <trkpt lat="48.74549" lon="-3.47044">
        <ele>94.9</ele>
        <time>2019-07-11T12:17:58Z</time>
      </trkpt>
      <trkpt lat="48.74551" lon="-3.47041">
        <ele>94.5</ele>
        <time>2019-07-11T12:17:59Z</time>
      </trkpt>
      <trkpt lat="48.74554" lon="-3.47038">
        <ele>94.2</ele>
        <time>2019-07-11T12:18:00Z</time>
      </trkpt>
      <trkpt lat="48.74555" lon="-3.47036">
        <ele>94.2</ele>
        <time>2019-07-11T12:18:01Z</time>
      </trkpt>
      <trkpt lat="48.74558" lon="-3.47033">
        <ele>93.9</ele>
        <time>2019-07-11T12:18:02Z</time>
      </trkpt>
      <trkpt lat="48.74559" lon="-3.47028">
        <ele>92.8</ele>
        <time>2019-07-11T12:18:03Z</time>
      </trkpt>
      <trkpt lat="48.74561" lon="-3.47024">
        <ele>92.3</ele>
        <time>2019-07-11T12:18:04Z</time>
      </trkpt>
      <trkpt lat="48.74563" lon="-3.4702">
        <ele>91.6</ele>
        <time>2019-07-11T12:18:05Z</time>
      </trkpt>
      <trkpt lat="48.74566" lon="-3.47015">
        <ele>90.2</ele>
        <time>2019-07-11T12:18:06Z</time>
      </trkpt>
      <trkpt lat="48.74567" lon="-3.4701">
        <ele>90</ele>
        <time>2019-07-11T12:18:07Z</time>
      </trkpt>
      <trkpt lat="48.74569" lon="-3.47007">
        <ele>90.7</ele>
        <time>2019-07-11T12:18:08Z</time>
      </trkpt>
      <trkpt lat="48.7457" lon="-3.47005">
        <ele>91.2</ele>
        <time>2019-07-11T12:18:09Z</time>
      </trkpt>
      <trkpt lat="48.74572" lon="-3.47002">
        <ele>91.8</ele>
        <time>2019-07-11T12:18:10Z</time>
      </trkpt>
      <trkpt lat="48.74574" lon="-3.46998">
        <ele>92.2</ele>
        <time>2019-07-11T12:18:11Z</time>
      </trkpt>
      <trkpt lat="48.74577" lon="-3.46995">
        <ele>92.3</ele>
        <time>2019-07-11T12:18:12Z</time>
      </trkpt>
      <trkpt lat="48.7458" lon="-3.46992">
        <ele>93.2</ele>
        <time>2019-07-11T12:18:13Z</time>
      </trkpt>
      <trkpt lat="48.74582" lon="-3.46988">
        <ele>93</ele>
        <time>2019-07-11T12:18:14Z</time>
      </trkpt>
      <trkpt lat="48.74584" lon="-3.46983">
        <ele>92.5</ele>
        <time>2019-07-11T12:18:15Z</time>
      </trkpt>
      <trkpt lat="48.74587" lon="-3.46979">
        <ele>92.2</ele>
        <time>2019-07-11T12:18:16Z</time>
      </trkpt>
      <trkpt lat="48.74589" lon="-3.46974">
        <ele>91.7</ele>
        <time>2019-07-11T12:18:17Z</time>
      </trkpt>
      <trkpt lat="48.74591" lon="-3.4697">
        <ele>90.9</ele>
        <time>2019-07-11T12:18:18Z</time>
      </trkpt>
      <trkpt lat="48.74593" lon="-3.46965">
        <ele>90.4</ele>
        <time>2019-07-11T12:18:19Z</time>
      </trkpt>
      <trkpt lat="48.74594" lon="-3.46961">
        <ele>90.2</ele>
        <time>2019-07-11T12:18:20Z</time>
      </trkpt>
      <trkpt lat="48.74595" lon="-3.46957">
        <ele>89.9</ele>
        <time>2019-07-11T12:18:21Z</time>
      </trkpt>
      <trkpt lat="48.74596" lon="-3.46953">
        <ele>89.7</ele>
        <time>2019-07-11T12:18:22Z</time>
      </trkpt>
      <trkpt lat="48.74597" lon="-3.46948">
        <ele>89.5</ele>
        <time>2019-07-11T12:18:23Z</time>
      </trkpt>
      <trkpt lat="48.74599" lon="-3.46944">
        <ele>89.2</ele>
        <time>2019-07-11T12:18:24Z</time>
      </trkpt>
      <trkpt lat="48.74601" lon="-3.4694">
        <ele>88.1</ele>
        <time>2019-07-11T12:18:25Z</time>
      </trkpt>
      <trkpt lat="48.74603" lon="-3.46935">
        <ele>87.3</ele>
        <time>2019-07-11T12:18:26Z</time>
      </trkpt>
      <trkpt lat="48.74604" lon="-3.4693">
        <ele>86.8</ele>
        <time>2019-07-11T12:18:27Z</time>
      </trkpt>
      <trkpt lat="48.74605" lon="-3.46926">
        <ele>86.9</ele>
        <time>2019-07-11T12:18:28Z</time>
      </trkpt>
      <trkpt lat="48.74607" lon="-3.46921">
        <ele>86.8</ele>
        <time>2019-07-11T12:18:29Z</time>
      </trkpt>
      <trkpt lat="48.74608" lon="-3.46917">
        <ele>86.4</ele>
        <time>2019-07-11T12:18:30Z</time>
      </trkpt>
      <trkpt lat="48.74608" lon="-3.46913">
        <ele>86.2</ele>
        <time>2019-07-11T12:18:31Z</time>
      </trkpt>
      <trkpt lat="48.74609" lon="-3.46908">
        <ele>86.4</ele>
        <time>2019-07-11T12:18:32Z</time>
      </trkpt>
      <trkpt lat="48.74609" lon="-3.46903">
        <ele>86.7</ele>
        <time>2019-07-11T12:18:33Z</time>
      </trkpt>
      <trkpt lat="48.7461" lon="-3.46897">
        <ele>87.3</ele>
        <time>2019-07-11T12:18:34Z</time>
      </trkpt>
      <trkpt lat="48.74611" lon="-3.46891">
        <ele>88.2</ele>
        <time>2019-07-11T12:18:35Z</time>
      </trkpt>
      <trkpt lat="48.74611" lon="-3.46886">
        <ele>88.9</ele>
        <time>2019-07-11T12:18:36Z</time>
      </trkpt>
      <trkpt lat="48.74612" lon="-3.4688">
        <ele>89.4</ele>
        <time>2019-07-11T12:18:37Z</time>
      </trkpt>
      <trkpt lat="48.74613" lon="-3.46875">
        <ele>90.1</ele>
        <time>2019-07-11T12:18:38Z</time>
      </trkpt>
      <trkpt lat="48.74614" lon="-3.46869">
        <ele>90.9</ele>
        <time>2019-07-11T12:18:39Z</time>
      </trkpt>
      <trkpt lat="48.74615" lon="-3.46863">
        <ele>91.5</ele>
        <time>2019-07-11T12:18:40Z</time>
      </trkpt>
      <trkpt lat="48.74616" lon="-3.46857">
        <ele>91.2</ele>
        <time>2019-07-11T12:18:41Z</time>
      </trkpt>
      <trkpt lat="48.74617" lon="-3.46851">
        <ele>90.9</ele>
        <time>2019-07-11T12:18:42Z</time>
      </trkpt>
      <trkpt lat="48.74618" lon="-3.46845">
        <ele>90.5</ele>
        <time>2019-07-11T12:18:43Z</time>
      </trkpt>
      <trkpt lat="48.7462" lon="-3.46839">
        <ele>90.8</ele>
        <time>2019-07-11T12:18:44Z</time>
      </trkpt>
      <trkpt lat="48.74621" lon="-3.46834">
        <ele>91.4</ele>
        <time>2019-07-11T12:18:45Z</time>
      </trkpt>
      <trkpt lat="48.74622" lon="-3.46829">
        <ele>91.6</ele>
        <time>2019-07-11T12:18:46Z</time>
      </trkpt>
      <trkpt lat="48.74623" lon="-3.46823">
        <ele>91.1</ele>
        <time>2019-07-11T12:18:47Z</time>
      </trkpt>
      <trkpt lat="48.74624" lon="-3.46818">
        <ele>90.5</ele>
        <time>2019-07-11T12:18:48Z</time>
      </trkpt>
      <trkpt lat="48.74624" lon="-3.46813">
        <ele>90.6</ele>
        <time>2019-07-11T12:18:49Z</time>
      </trkpt>
      <trkpt lat="48.74625" lon="-3.4681">
        <ele>91.9</ele>
        <time>2019-07-11T12:18:50Z</time>
      </trkpt>
      <trkpt lat="48.74627" lon="-3.46805">
        <ele>91.7</ele>
        <time>2019-07-11T12:18:51Z</time>
      </trkpt>
      <trkpt lat="48.74628" lon="-3.46799">
        <ele>91.9</ele>
        <time>2019-07-11T12:18:52Z</time>
      </trkpt>
      <trkpt lat="48.74628" lon="-3.46792">
        <ele>91.3</ele>
        <time>2019-07-11T12:18:53Z</time>
      </trkpt>
      <trkpt lat="48.74629" lon="-3.46785">
        <ele>91</ele>
        <time>2019-07-11T12:18:54Z</time>
      </trkpt>
      <trkpt lat="48.7463" lon="-3.46778">
        <ele>91</ele>
        <time>2019-07-11T12:18:55Z</time>
      </trkpt>
      <trkpt lat="48.7463" lon="-3.46772">
        <ele>90.8</ele>
        <time>2019-07-11T12:18:56Z</time>
      </trkpt>
      <trkpt lat="48.74631" lon="-3.46766">
        <ele>90.2</ele>
        <time>2019-07-11T12:18:57Z</time>
      </trkpt>
      <trkpt lat="48.74633" lon="-3.4676">
        <ele>90.5</ele>
        <time>2019-07-11T12:18:58Z</time>
      </trkpt>
      <trkpt lat="48.74633" lon="-3.46753">
        <ele>90.2</ele>
        <time>2019-07-11T12:18:59Z</time>
      </trkpt>
      <trkpt lat="48.74633" lon="-3.46745">
        <ele>89.5</ele>
        <time>2019-07-11T12:19:00Z</time>
      </trkpt>
      <trkpt lat="48.74633" lon="-3.46738">
        <ele>89.6</ele>
        <time>2019-07-11T12:19:01Z</time>
      </trkpt>
      <trkpt lat="48.74634" lon="-3.4673">
        <ele>89.6</ele>
        <time>2019-07-11T12:19:02Z</time>
      </trkpt>
      <trkpt lat="48.74634" lon="-3.46723">
        <ele>90</ele>
        <time>2019-07-11T12:19:03Z</time>
      </trkpt>
      <trkpt lat="48.74634" lon="-3.46716">
        <ele>90.2</ele>
        <time>2019-07-11T12:19:04Z</time>
      </trkpt>
      <trkpt lat="48.74634" lon="-3.46707">
        <ele>89.3</ele>
        <time>2019-07-11T12:19:05Z</time>
      </trkpt>
      <trkpt lat="48.74635" lon="-3.46698">
        <ele>88.3</ele>
        <time>2019-07-11T12:19:06Z</time>
      </trkpt>
      <trkpt lat="48.74635" lon="-3.46692">
        <ele>88</ele>
        <time>2019-07-11T12:19:07Z</time>
      </trkpt>
      <trkpt lat="48.74634" lon="-3.46685">
        <ele>87.6</ele>
        <time>2019-07-11T12:19:08Z</time>
      </trkpt>
      <trkpt lat="48.74633" lon="-3.4668">
        <ele>87.4</ele>
        <time>2019-07-11T12:19:09Z</time>
      </trkpt>
      <trkpt lat="48.74632" lon="-3.46677">
        <ele>86.8</ele>
        <time>2019-07-11T12:19:10Z</time>
      </trkpt>
      <trkpt lat="48.7463" lon="-3.46674">
        <ele>86.5</ele>
        <time>2019-07-11T12:19:11Z</time>
      </trkpt>
      <trkpt lat="48.74628" lon="-3.46671">
        <ele>86.3</ele>
        <time>2019-07-11T12:19:12Z</time>
      </trkpt>
      <trkpt lat="48.74628" lon="-3.46668">
        <ele>86.1</ele>
        <time>2019-07-11T12:19:13Z</time>
      </trkpt>
      <trkpt lat="48.74625" lon="-3.46665">
        <ele>85.8</ele>
        <time>2019-07-11T12:19:14Z</time>
      </trkpt>
      <trkpt lat="48.74622" lon="-3.46663">
        <ele>86</ele>
        <time>2019-07-11T12:19:15Z</time>
      </trkpt>
      <trkpt lat="48.74619" lon="-3.46661">
        <ele>85.9</ele>
        <time>2019-07-11T12:19:16Z</time>
      </trkpt>
      <trkpt lat="48.74617" lon="-3.46659">
        <ele>85.8</ele>
        <time>2019-07-11T12:19:17Z</time>
      </trkpt>
      <trkpt lat="48.74614" lon="-3.46657">
        <ele>85.7</ele>
        <time>2019-07-11T12:19:18Z</time>
      </trkpt>
      <trkpt lat="48.74609" lon="-3.46654">
        <ele>85.8</ele>
        <time>2019-07-11T12:19:19Z</time>
      </trkpt>
      <trkpt lat="48.74604" lon="-3.46652">
        <ele>85.8</ele>
        <time>2019-07-11T12:19:20Z</time>
      </trkpt>
      <trkpt lat="48.74599" lon="-3.46649">
        <ele>85.6</ele>
        <time>2019-07-11T12:19:21Z</time>
      </trkpt>
      <trkpt lat="48.74593" lon="-3.46645">
        <ele>85.3</ele>
        <time>2019-07-11T12:19:22Z</time>
      </trkpt>
      <trkpt lat="48.74589" lon="-3.4664">
        <ele>84.7</ele>
        <time>2019-07-11T12:19:23Z</time>
      </trkpt>
      <trkpt lat="48.74584" lon="-3.46635">
        <ele>84.5</ele>
        <time>2019-07-11T12:19:24Z</time>
      </trkpt>
      <trkpt lat="48.74579" lon="-3.4663">
        <ele>83.8</ele>
        <time>2019-07-11T12:19:25Z</time>
      </trkpt>
      <trkpt lat="48.74574" lon="-3.46625">
        <ele>82.5</ele>
        <time>2019-07-11T12:19:26Z</time>
      </trkpt>
      <trkpt lat="48.74569" lon="-3.46621">
        <ele>81.6</ele>
        <time>2019-07-11T12:19:27Z</time>
      </trkpt>
      <trkpt lat="48.74564" lon="-3.46616">
        <ele>81.1</ele>
        <time>2019-07-11T12:19:28Z</time>
      </trkpt>
      <trkpt lat="48.74558" lon="-3.46611">
        <ele>80.9</ele>
        <time>2019-07-11T12:19:29Z</time>
      </trkpt>
      <trkpt lat="48.74553" lon="-3.46606">
        <ele>80.6</ele>
        <time>2019-07-11T12:19:30Z</time>
      </trkpt>
      <trkpt lat="48.74546" lon="-3.46602">
        <ele>79.9</ele>
        <time>2019-07-11T12:19:31Z</time>
      </trkpt>
      <trkpt lat="48.7454" lon="-3.46597">
        <ele>79.6</ele>
        <time>2019-07-11T12:19:32Z</time>
      </trkpt>
      <trkpt lat="48.74534" lon="-3.46592">
        <ele>79.1</ele>
        <time>2019-07-11T12:19:33Z</time>
      </trkpt>
      <trkpt lat="48.74527" lon="-3.46588">
        <ele>78.6</ele>
        <time>2019-07-11T12:19:34Z</time>
      </trkpt>
      <trkpt lat="48.74521" lon="-3.46583">
        <ele>78.3</ele>
        <time>2019-07-11T12:19:35Z</time>
      </trkpt>
      <trkpt lat="48.74514" lon="-3.46579">
        <ele>77.9</ele>
        <time>2019-07-11T12:19:36Z</time>
      </trkpt>
      <trkpt lat="48.74508" lon="-3.46576">
        <ele>77.3</ele>
        <time>2019-07-11T12:19:37Z</time>
      </trkpt>
      <trkpt lat="48.745" lon="-3.46572">
        <ele>76.8</ele>
        <time>2019-07-11T12:19:38Z</time>
      </trkpt>
      <trkpt lat="48.74494" lon="-3.46569">
        <ele>76.3</ele>
        <time>2019-07-11T12:19:39Z</time>
      </trkpt>
      <trkpt lat="48.74487" lon="-3.46566">
        <ele>76</ele>
        <time>2019-07-11T12:19:40Z</time>
      </trkpt>
      <trkpt lat="48.7448" lon="-3.46562">
        <ele>75.5</ele>
        <time>2019-07-11T12:19:41Z</time>
      </trkpt>
      <trkpt lat="48.74474" lon="-3.46559">
        <ele>75.1</ele>
        <time>2019-07-11T12:19:42Z</time>
      </trkpt>
      <trkpt lat="48.74468" lon="-3.46556">
        <ele>74.8</ele>
        <time>2019-07-11T12:19:43Z</time>
      </trkpt>
      <trkpt lat="48.74461" lon="-3.46553">
        <ele>74.2</ele>
        <time>2019-07-11T12:19:44Z</time>
      </trkpt>
      <trkpt lat="48.74455" lon="-3.4655">
        <ele>73.5</ele>
        <time>2019-07-11T12:19:45Z</time>
      </trkpt>
      <trkpt lat="48.74448" lon="-3.46547">
        <ele>72.5</ele>
        <time>2019-07-11T12:19:46Z</time>
      </trkpt>
      <trkpt lat="48.74442" lon="-3.46544">
        <ele>71.8</ele>
        <time>2019-07-11T12:19:47Z</time>
      </trkpt>
      <trkpt lat="48.74435" lon="-3.46542">
        <ele>71.2</ele>
        <time>2019-07-11T12:19:48Z</time>
      </trkpt>
      <trkpt lat="48.74428" lon="-3.46538">
        <ele>70.6</ele>
        <time>2019-07-11T12:19:49Z</time>
      </trkpt>
      <trkpt lat="48.74421" lon="-3.46535">
        <ele>69.9</ele>
        <time>2019-07-11T12:19:50Z</time>
      </trkpt>
      <trkpt lat="48.74413" lon="-3.46532">
        <ele>69.3</ele>
        <time>2019-07-11T12:19:51Z</time>
      </trkpt>
      <trkpt lat="48.74406" lon="-3.46529">
        <ele>68.7</ele>
        <time>2019-07-11T12:19:52Z</time>
      </trkpt>
      <trkpt lat="48.74398" lon="-3.46526">
        <ele>68.1</ele>
        <time>2019-07-11T12:19:53Z</time>
      </trkpt>
      <trkpt lat="48.74392" lon="-3.46523">
        <ele>67.5</ele>
        <time>2019-07-11T12:19:54Z</time>
      </trkpt>
      <trkpt lat="48.74385" lon="-3.46521">
        <ele>67</ele>
        <time>2019-07-11T12:19:55Z</time>
      </trkpt>
      <trkpt lat="48.74377" lon="-3.46517">
        <ele>66.3</ele>
        <time>2019-07-11T12:19:56Z</time>
      </trkpt>
      <trkpt lat="48.7437" lon="-3.46514">
        <ele>65.9</ele>
        <time>2019-07-11T12:19:57Z</time>
      </trkpt>
      <trkpt lat="48.74363" lon="-3.46511">
        <ele>65.6</ele>
        <time>2019-07-11T12:19:58Z</time>
      </trkpt>
      <trkpt lat="48.74356" lon="-3.46508">
        <ele>65.5</ele>
        <time>2019-07-11T12:19:59Z</time>
      </trkpt>
      <trkpt lat="48.74349" lon="-3.46505">
        <ele>65.4</ele>
        <time>2019-07-11T12:20:00Z</time>
      </trkpt>
      <trkpt lat="48.74342" lon="-3.46503">
        <ele>65.5</ele>
        <time>2019-07-11T12:20:01Z</time>
      </trkpt>
      <trkpt lat="48.74334" lon="-3.46502">
        <ele>65.6</ele>
        <time>2019-07-11T12:20:02Z</time>
      </trkpt>
      <trkpt lat="48.74328" lon="-3.465">
        <ele>65.6</ele>
        <time>2019-07-11T12:20:03Z</time>
      </trkpt>
      <trkpt lat="48.74321" lon="-3.46499">
        <ele>65.8</ele>
        <time>2019-07-11T12:20:04Z</time>
      </trkpt>
      <trkpt lat="48.74315" lon="-3.46497">
        <ele>66.3</ele>
        <time>2019-07-11T12:20:05Z</time>
      </trkpt>
      <trkpt lat="48.74308" lon="-3.46495">
        <ele>66.3</ele>
        <time>2019-07-11T12:20:06Z</time>
      </trkpt>
      <trkpt lat="48.74301" lon="-3.46494">
        <ele>66.3</ele>
        <time>2019-07-11T12:20:07Z</time>
      </trkpt>
      <trkpt lat="48.74294" lon="-3.46493">
        <ele>66.7</ele>
        <time>2019-07-11T12:20:08Z</time>
      </trkpt>
      <trkpt lat="48.74287" lon="-3.46491">
        <ele>66.4</ele>
        <time>2019-07-11T12:20:09Z</time>
      </trkpt>
      <trkpt lat="48.7428" lon="-3.46489">
        <ele>65.8</ele>
        <time>2019-07-11T12:20:10Z</time>
      </trkpt>
      <trkpt lat="48.74272" lon="-3.46488">
        <ele>65.2</ele>
        <time>2019-07-11T12:20:11Z</time>
      </trkpt>
      <trkpt lat="48.74264" lon="-3.46487">
        <ele>64.7</ele>
        <time>2019-07-11T12:20:12Z</time>
      </trkpt>
      <trkpt lat="48.74257" lon="-3.46485">
        <ele>64.2</ele>
        <time>2019-07-11T12:20:13Z</time>
      </trkpt>
      <trkpt lat="48.74249" lon="-3.46484">
        <ele>63.9</ele>
        <time>2019-07-11T12:20:14Z</time>
      </trkpt>
      <trkpt lat="48.74241" lon="-3.46482">
        <ele>63.1</ele>
        <time>2019-07-11T12:20:15Z</time>
      </trkpt>
      <trkpt lat="48.74234" lon="-3.4648">
        <ele>62.4</ele>
        <time>2019-07-11T12:20:16Z</time>
      </trkpt>
      <trkpt lat="48.74227" lon="-3.46478">
        <ele>62.1</ele>
        <time>2019-07-11T12:20:17Z</time>
      </trkpt>
      <trkpt lat="48.7422" lon="-3.46476">
        <ele>61.5</ele>
        <time>2019-07-11T12:20:18Z</time>
      </trkpt>
      <trkpt lat="48.74212" lon="-3.46473">
        <ele>60.6</ele>
        <time>2019-07-11T12:20:19Z</time>
      </trkpt>
      <trkpt lat="48.74204" lon="-3.46471">
        <ele>60.3</ele>
        <time>2019-07-11T12:20:20Z</time>
      </trkpt>
      <trkpt lat="48.74196" lon="-3.4647">
        <ele>59.7</ele>
        <time>2019-07-11T12:20:21Z</time>
      </trkpt>
      <trkpt lat="48.74187" lon="-3.46468">
        <ele>59.2</ele>
        <time>2019-07-11T12:20:22Z</time>
      </trkpt>
      <trkpt lat="48.74178" lon="-3.46465">
        <ele>58.7</ele>
        <time>2019-07-11T12:20:23Z</time>
      </trkpt>
      <trkpt lat="48.7417" lon="-3.46463">
        <ele>58.3</ele>
        <time>2019-07-11T12:20:24Z</time>
      </trkpt>
      <trkpt lat="48.7416" lon="-3.46461">
        <ele>58.2</ele>
        <time>2019-07-11T12:20:25Z</time>
      </trkpt>
      <trkpt lat="48.74152" lon="-3.46459">
        <ele>57.9</ele>
        <time>2019-07-11T12:20:26Z</time>
      </trkpt>
      <trkpt lat="48.74143" lon="-3.46457">
        <ele>57.5</ele>
        <time>2019-07-11T12:20:27Z</time>
      </trkpt>
      <trkpt lat="48.74134" lon="-3.46455">
        <ele>57.3</ele>
        <time>2019-07-11T12:20:28Z</time>
      </trkpt>
      <trkpt lat="48.74126" lon="-3.46453">
        <ele>56.9</ele>
        <time>2019-07-11T12:20:29Z</time>
      </trkpt>
      <trkpt lat="48.74118" lon="-3.4645">
        <ele>56.9</ele>
        <time>2019-07-11T12:20:30Z</time>
      </trkpt>
      <trkpt lat="48.74109" lon="-3.46448">
        <ele>56.6</ele>
        <time>2019-07-11T12:20:31Z</time>
      </trkpt>
      <trkpt lat="48.74101" lon="-3.46445">
        <ele>56.2</ele>
        <time>2019-07-11T12:20:32Z</time>
      </trkpt>
      <trkpt lat="48.74093" lon="-3.46443">
        <ele>55.8</ele>
        <time>2019-07-11T12:20:33Z</time>
      </trkpt>
      <trkpt lat="48.74084" lon="-3.46442">
        <ele>55.6</ele>
        <time>2019-07-11T12:20:34Z</time>
      </trkpt>
      <trkpt lat="48.74075" lon="-3.4644">
        <ele>54.1</ele>
        <time>2019-07-11T12:20:35Z</time>
      </trkpt>
      <trkpt lat="48.74066" lon="-3.46438">
        <ele>53.3</ele>
        <time>2019-07-11T12:20:36Z</time>
      </trkpt>
      <trkpt lat="48.74057" lon="-3.46436">
        <ele>52.3</ele>
        <time>2019-07-11T12:20:37Z</time>
      </trkpt>
      <trkpt lat="48.74048" lon="-3.46435">
        <ele>51.3</ele>
        <time>2019-07-11T12:20:38Z</time>
      </trkpt>
      <trkpt lat="48.7404" lon="-3.46433">
        <ele>50.6</ele>
        <time>2019-07-11T12:20:39Z</time>
      </trkpt>
      <trkpt lat="48.74031" lon="-3.4643">
        <ele>49.9</ele>
        <time>2019-07-11T12:20:40Z</time>
      </trkpt>
      <trkpt lat="48.74022" lon="-3.46428">
        <ele>49.1</ele>
        <time>2019-07-11T12:20:41Z</time>
      </trkpt>
      <trkpt lat="48.74014" lon="-3.46427">
        <ele>48.2</ele>
        <time>2019-07-11T12:20:42Z</time>
      </trkpt>
      <trkpt lat="48.74005" lon="-3.46424">
        <ele>47.7</ele>
        <time>2019-07-11T12:20:43Z</time>
      </trkpt>
      <trkpt lat="48.73997" lon="-3.46422">
        <ele>47.4</ele>
        <time>2019-07-11T12:20:44Z</time>
      </trkpt>
      <trkpt lat="48.73988" lon="-3.46421">
        <ele>46.9</ele>
        <time>2019-07-11T12:20:45Z</time>
      </trkpt>
      <trkpt lat="48.7398" lon="-3.46418">
        <ele>46.8</ele>
        <time>2019-07-11T12:20:46Z</time>
      </trkpt>
      <trkpt lat="48.73973" lon="-3.46414">
        <ele>46.8</ele>
        <time>2019-07-11T12:20:47Z</time>
      </trkpt>
      <trkpt lat="48.73966" lon="-3.46411">
        <ele>46.5</ele>
        <time>2019-07-11T12:20:48Z</time>
      </trkpt>
      <trkpt lat="48.73959" lon="-3.46407">
        <ele>46.4</ele>
        <time>2019-07-11T12:20:49Z</time>
      </trkpt>
      <trkpt lat="48.73953" lon="-3.46403">
        <ele>46.9</ele>
        <time>2019-07-11T12:20:50Z</time>
      </trkpt>
      <trkpt lat="48.73947" lon="-3.46398">
        <ele>47.2</ele>
        <time>2019-07-11T12:20:51Z</time>
      </trkpt>
      <trkpt lat="48.73941" lon="-3.46395">
        <ele>47.2</ele>
        <time>2019-07-11T12:20:52Z</time>
      </trkpt>
      <trkpt lat="48.73936" lon="-3.46391">
        <ele>47.1</ele>
        <time>2019-07-11T12:20:53Z</time>
      </trkpt>
      <trkpt lat="48.73932" lon="-3.46388">
        <ele>47</ele>
        <time>2019-07-11T12:20:54Z</time>
      </trkpt>
      <trkpt lat="48.73927" lon="-3.46386">
        <ele>47.2</ele>
        <time>2019-07-11T12:20:55Z</time>
      </trkpt>
      <trkpt lat="48.73922" lon="-3.46384">
        <ele>47.3</ele>
        <time>2019-07-11T12:20:56Z</time>
      </trkpt>
      <trkpt lat="48.73918" lon="-3.46382">
        <ele>47.5</ele>
        <time>2019-07-11T12:20:57Z</time>
      </trkpt>
      <trkpt lat="48.73913" lon="-3.4638">
        <ele>47.6</ele>
        <time>2019-07-11T12:20:58Z</time>
      </trkpt>
      <trkpt lat="48.73909" lon="-3.46378">
        <ele>47.6</ele>
        <time>2019-07-11T12:20:59Z</time>
      </trkpt>
      <trkpt lat="48.73905" lon="-3.46376">
        <ele>47.8</ele>
        <time>2019-07-11T12:21:00Z</time>
      </trkpt>
      <trkpt lat="48.73901" lon="-3.46375">
        <ele>48.4</ele>
        <time>2019-07-11T12:21:01Z</time>
      </trkpt>
      <trkpt lat="48.73899" lon="-3.46374">
        <ele>48.7</ele>
        <time>2019-07-11T12:21:02Z</time>
      </trkpt>
      <trkpt lat="48.73897" lon="-3.46372">
        <ele>49.2</ele>
        <time>2019-07-11T12:21:03Z</time>
      </trkpt>
      <trkpt lat="48.73896" lon="-3.46371">
        <ele>48.5</ele>
        <time>2019-07-11T12:21:04Z</time>
      </trkpt>
      <trkpt lat="48.73895" lon="-3.46369">
        <ele>47.8</ele>
        <time>2019-07-11T12:21:05Z</time>
      </trkpt>
      <trkpt lat="48.73895" lon="-3.46362">
        <ele>48.1</ele>
        <time>2019-07-11T12:21:16Z</time>
      </trkpt>
      <trkpt lat="48.73896" lon="-3.4636">
        <ele>48.4</ele>
        <time>2019-07-11T12:21:17Z</time>
      </trkpt>
      <trkpt lat="48.73898" lon="-3.46357">
        <ele>48.7</ele>
        <time>2019-07-11T12:21:18Z</time>
      </trkpt>
      <trkpt lat="48.73899" lon="-3.46355">
        <ele>48.9</ele>
        <time>2019-07-11T12:21:19Z</time>
      </trkpt>
      <trkpt lat="48.73901" lon="-3.46353">
        <ele>49.2</ele>
        <time>2019-07-11T12:21:20Z</time>
      </trkpt>
      <trkpt lat="48.73903" lon="-3.46352">
        <ele>49.3</ele>
        <time>2019-07-11T12:21:21Z</time>
      </trkpt>
      <trkpt lat="48.73904" lon="-3.4635">
        <ele>49.5</ele>
        <time>2019-07-11T12:21:22Z</time>
      </trkpt>
      <trkpt lat="48.73906" lon="-3.46348">
        <ele>49.6</ele>
        <time>2019-07-11T12:21:23Z</time>
      </trkpt>
      <trkpt lat="48.73908" lon="-3.46347">
        <ele>49.8</ele>
        <time>2019-07-11T12:21:24Z</time>
      </trkpt>
      <trkpt lat="48.73909" lon="-3.46345">
        <ele>49.7</ele>
        <time>2019-07-11T12:21:25Z</time>
      </trkpt>
      <trkpt lat="48.73911" lon="-3.46344">
        <ele>49.5</ele>
        <time>2019-07-11T12:21:26Z</time>
      </trkpt>
      <trkpt lat="48.73913" lon="-3.46344">
        <ele>49.3</ele>
        <time>2019-07-11T12:21:27Z</time>
      </trkpt>
      <trkpt lat="48.73915" lon="-3.46344">
        <ele>49.2</ele>
        <time>2019-07-11T12:21:28Z</time>
      </trkpt>
      <trkpt lat="48.73917" lon="-3.46344">
        <ele>49.4</ele>
        <time>2019-07-11T12:21:29Z</time>
      </trkpt>
      <trkpt lat="48.73919" lon="-3.46343">
        <ele>49.6</ele>
        <time>2019-07-11T12:21:30Z</time>
      </trkpt>
      <trkpt lat="48.7392" lon="-3.46341">
        <ele>50</ele>
        <time>2019-07-11T12:21:31Z</time>
      </trkpt>
      <trkpt lat="48.73922" lon="-3.46339">
        <ele>50.3</ele>
        <time>2019-07-11T12:21:32Z</time>
      </trkpt>
      <trkpt lat="48.73925" lon="-3.46338">
        <ele>50.7</ele>
        <time>2019-07-11T12:21:33Z</time>
      </trkpt>
      <trkpt lat="48.73927" lon="-3.46337">
        <ele>51.4</ele>
        <time>2019-07-11T12:21:34Z</time>
      </trkpt>
      <trkpt lat="48.73929" lon="-3.46335">
        <ele>52</ele>
        <time>2019-07-11T12:21:35Z</time>
      </trkpt>
      <trkpt lat="48.73931" lon="-3.46332">
        <ele>52.5</ele>
        <time>2019-07-11T12:21:36Z</time>
      </trkpt>
      <trkpt lat="48.73932" lon="-3.46329">
        <ele>53.2</ele>
        <time>2019-07-11T12:21:37Z</time>
      </trkpt>
      <trkpt lat="48.73933" lon="-3.46324">
        <ele>54.3</ele>
        <time>2019-07-11T12:21:38Z</time>
      </trkpt>
      <trkpt lat="48.73932" lon="-3.46321">
        <ele>55.5</ele>
        <time>2019-07-11T12:21:39Z</time>
      </trkpt>
      <trkpt lat="48.73931" lon="-3.46317">
        <ele>56</ele>
        <time>2019-07-11T12:21:40Z</time>
      </trkpt>
      <trkpt lat="48.7393" lon="-3.46314">
        <ele>56.8</ele>
        <time>2019-07-11T12:21:41Z</time>
      </trkpt>
      <trkpt lat="48.73929" lon="-3.4631">
        <ele>57.8</ele>
        <time>2019-07-11T12:21:42Z</time>
      </trkpt>
      <trkpt lat="48.73927" lon="-3.46308">
        <ele>59</ele>
        <time>2019-07-11T12:21:43Z</time>
      </trkpt>
      <trkpt lat="48.73925" lon="-3.46306">
        <ele>60.2</ele>
        <time>2019-07-11T12:21:44Z</time>
      </trkpt>
      <trkpt lat="48.73922" lon="-3.46304">
        <ele>60.4</ele>
        <time>2019-07-11T12:21:45Z</time>
      </trkpt>
      <trkpt lat="48.73919" lon="-3.46301">
        <ele>60.3</ele>
        <time>2019-07-11T12:21:46Z</time>
      </trkpt>
      <trkpt lat="48.73916" lon="-3.46298">
        <ele>59.9</ele>
        <time>2019-07-11T12:21:47Z</time>
      </trkpt>
      <trkpt lat="48.73913" lon="-3.46295">
        <ele>60.2</ele>
        <time>2019-07-11T12:21:48Z</time>
      </trkpt>
      <trkpt lat="48.7391" lon="-3.46292">
        <ele>60</ele>
        <time>2019-07-11T12:21:49Z</time>
      </trkpt>
      <trkpt lat="48.73907" lon="-3.46289">
        <ele>59.9</ele>
        <time>2019-07-11T12:21:50Z</time>
      </trkpt>
      <trkpt lat="48.73904" lon="-3.46287">
        <ele>60.6</ele>
        <time>2019-07-11T12:21:51Z</time>
      </trkpt>
      <trkpt lat="48.739" lon="-3.46284">
        <ele>61</ele>
        <time>2019-07-11T12:21:52Z</time>
      </trkpt>
      <trkpt lat="48.73897" lon="-3.46282">
        <ele>60.8</ele>
        <time>2019-07-11T12:21:53Z</time>
      </trkpt>
      <trkpt lat="48.73893" lon="-3.4628">
        <ele>60.5</ele>
        <time>2019-07-11T12:21:54Z</time>
      </trkpt>
      <trkpt lat="48.7389" lon="-3.46277">
        <ele>60.1</ele>
        <time>2019-07-11T12:21:55Z</time>
      </trkpt>
      <trkpt lat="48.73887" lon="-3.46275">
        <ele>59</ele>
        <time>2019-07-11T12:21:56Z</time>
      </trkpt>
      <trkpt lat="48.73883" lon="-3.46273">
        <ele>58.3</ele>
        <time>2019-07-11T12:21:57Z</time>
      </trkpt>
      <trkpt lat="48.73879" lon="-3.46271">
        <ele>57.5</ele>
        <time>2019-07-11T12:21:58Z</time>
      </trkpt>
      <trkpt lat="48.73875" lon="-3.46268">
        <ele>56.5</ele>
        <time>2019-07-11T12:21:59Z</time>
      </trkpt>
      <trkpt lat="48.73872" lon="-3.46266">
        <ele>55.8</ele>
        <time>2019-07-11T12:22:00Z</time>
      </trkpt>
      <trkpt lat="48.73869" lon="-3.46264">
        <ele>55.1</ele>
        <time>2019-07-11T12:22:01Z</time>
      </trkpt>
      <trkpt lat="48.73866" lon="-3.46262">
        <ele>54.6</ele>
        <time>2019-07-11T12:22:02Z</time>
      </trkpt>
      <trkpt lat="48.73863" lon="-3.4626">
        <ele>54.4</ele>
        <time>2019-07-11T12:22:03Z</time>
      </trkpt>
      <trkpt lat="48.7386" lon="-3.46259">
        <ele>54.5</ele>
        <time>2019-07-11T12:22:04Z</time>
      </trkpt>
      <trkpt lat="48.73858" lon="-3.46257">
        <ele>54.6</ele>
        <time>2019-07-11T12:22:05Z</time>
      </trkpt>
      <trkpt lat="48.73855" lon="-3.46255">
        <ele>55</ele>
        <time>2019-07-11T12:22:06Z</time>
      </trkpt>
      <trkpt lat="48.73851" lon="-3.46252">
        <ele>54.9</ele>
        <time>2019-07-11T12:22:07Z</time>
      </trkpt>
      <trkpt lat="48.73848" lon="-3.4625">
        <ele>54.1</ele>
        <time>2019-07-11T12:22:08Z</time>
      </trkpt>
      <trkpt lat="48.73844" lon="-3.46248">
        <ele>53.4</ele>
        <time>2019-07-11T12:22:09Z</time>
      </trkpt>
      <trkpt lat="48.73841" lon="-3.46247">
        <ele>53</ele>
        <time>2019-07-11T12:22:10Z</time>
      </trkpt>
      <trkpt lat="48.73838" lon="-3.46246">
        <ele>53</ele>
        <time>2019-07-11T12:22:11Z</time>
      </trkpt>
      <trkpt lat="48.73835" lon="-3.46245">
        <ele>53</ele>
        <time>2019-07-11T12:22:12Z</time>
      </trkpt>
      <trkpt lat="48.73831" lon="-3.46243">
        <ele>53</ele>
        <time>2019-07-11T12:22:13Z</time>
      </trkpt>
      <trkpt lat="48.73827" lon="-3.46241">
        <ele>52.8</ele>
        <time>2019-07-11T12:22:14Z</time>
      </trkpt>
      <trkpt lat="48.73823" lon="-3.4624">
        <ele>52.7</ele>
        <time>2019-07-11T12:22:15Z</time>
      </trkpt>
      <trkpt lat="48.73819" lon="-3.46238">
        <ele>52.2</ele>
        <time>2019-07-11T12:22:16Z</time>
      </trkpt>
      <trkpt lat="48.73816" lon="-3.46236">
        <ele>52.1</ele>
        <time>2019-07-11T12:22:17Z</time>
      </trkpt>
      <trkpt lat="48.73812" lon="-3.46234">
        <ele>52.1</ele>
        <time>2019-07-11T12:22:18Z</time>
      </trkpt>
      <trkpt lat="48.73808" lon="-3.46232">
        <ele>51.9</ele>
        <time>2019-07-11T12:22:19Z</time>
      </trkpt>
      <trkpt lat="48.73805" lon="-3.4623">
        <ele>52.1</ele>
        <time>2019-07-11T12:22:20Z</time>
      </trkpt>
      <trkpt lat="48.73801" lon="-3.46228">
        <ele>51.8</ele>
        <time>2019-07-11T12:22:21Z</time>
      </trkpt>
      <trkpt lat="48.73797" lon="-3.46226">
        <ele>52</ele>
        <time>2019-07-11T12:22:22Z</time>
      </trkpt>
      <trkpt lat="48.73794" lon="-3.46224">
        <ele>52.1</ele>
        <time>2019-07-11T12:22:23Z</time>
      </trkpt>
      <trkpt lat="48.7379" lon="-3.46221">
        <ele>52.3</ele>
        <time>2019-07-11T12:22:24Z</time>
      </trkpt>
      <trkpt lat="48.73787" lon="-3.4622">
        <ele>52.1</ele>
        <time>2019-07-11T12:22:25Z</time>
      </trkpt>
      <trkpt lat="48.73783" lon="-3.46218">
        <ele>52</ele>
        <time>2019-07-11T12:22:26Z</time>
      </trkpt>
      <trkpt lat="48.7378" lon="-3.46216">
        <ele>51.8</ele>
        <time>2019-07-11T12:22:27Z</time>
      </trkpt>
      <trkpt lat="48.73776" lon="-3.46214">
        <ele>51.8</ele>
        <time>2019-07-11T12:22:28Z</time>
      </trkpt>
      <trkpt lat="48.73772" lon="-3.46212">
        <ele>51.7</ele>
        <time>2019-07-11T12:22:29Z</time>
      </trkpt>
      <trkpt lat="48.73769" lon="-3.4621">
        <ele>51.5</ele>
        <time>2019-07-11T12:22:30Z</time>
      </trkpt>
      <trkpt lat="48.73766" lon="-3.46208">
        <ele>51.3</ele>
        <time>2019-07-11T12:22:31Z</time>
      </trkpt>
      <trkpt lat="48.73763" lon="-3.46206">
        <ele>50.7</ele>
        <time>2019-07-11T12:22:32Z</time>
      </trkpt>
      <trkpt lat="48.7376" lon="-3.46204">
        <ele>51.4</ele>
        <time>2019-07-11T12:22:33Z</time>
      </trkpt>
      <trkpt lat="48.73757" lon="-3.46202">
        <ele>52.1</ele>
        <time>2019-07-11T12:22:34Z</time>
      </trkpt>
      <trkpt lat="48.73755" lon="-3.462">
        <ele>52.3</ele>
        <time>2019-07-11T12:22:35Z</time>
      </trkpt>
      <trkpt lat="48.73752" lon="-3.46198">
        <ele>52.9</ele>
        <time>2019-07-11T12:22:36Z</time>
      </trkpt>
      <trkpt lat="48.73749" lon="-3.46197">
        <ele>54.2</ele>
        <time>2019-07-11T12:22:37Z</time>
      </trkpt>
      <trkpt lat="48.73747" lon="-3.46195">
        <ele>55.3</ele>
        <time>2019-07-11T12:22:38Z</time>
      </trkpt>
      <trkpt lat="48.73743" lon="-3.46193">
        <ele>55.7</ele>
        <time>2019-07-11T12:22:39Z</time>
      </trkpt>
      <trkpt lat="48.7374" lon="-3.46192">
        <ele>55.3</ele>
        <time>2019-07-11T12:22:40Z</time>
      </trkpt>
      <trkpt lat="48.73736" lon="-3.4619">
        <ele>54.5</ele>
        <time>2019-07-11T12:22:41Z</time>
      </trkpt>
      <trkpt lat="48.73733" lon="-3.46189">
        <ele>54.4</ele>
        <time>2019-07-11T12:22:42Z</time>
      </trkpt>
      <trkpt lat="48.73729" lon="-3.46187">
        <ele>54.4</ele>
        <time>2019-07-11T12:22:43Z</time>
      </trkpt>
      <trkpt lat="48.73726" lon="-3.46185">
        <ele>54.6</ele>
        <time>2019-07-11T12:22:44Z</time>
      </trkpt>
      <trkpt lat="48.73723" lon="-3.46183">
        <ele>54.5</ele>
        <time>2019-07-11T12:22:45Z</time>
      </trkpt>
      <trkpt lat="48.7372" lon="-3.46181">
        <ele>54.1</ele>
        <time>2019-07-11T12:22:46Z</time>
      </trkpt>
      <trkpt lat="48.73717" lon="-3.46179">
        <ele>54.2</ele>
        <time>2019-07-11T12:22:47Z</time>
      </trkpt>
      <trkpt lat="48.73714" lon="-3.46177">
        <ele>54.3</ele>
        <time>2019-07-11T12:22:48Z</time>
      </trkpt>
      <trkpt lat="48.73711" lon="-3.46175">
        <ele>54.3</ele>
        <time>2019-07-11T12:22:49Z</time>
      </trkpt>
      <trkpt lat="48.73709" lon="-3.46173">
        <ele>54.9</ele>
        <time>2019-07-11T12:22:50Z</time>
      </trkpt>
      <trkpt lat="48.73706" lon="-3.46171">
        <ele>55.5</ele>
        <time>2019-07-11T12:22:51Z</time>
      </trkpt>
      <trkpt lat="48.73703" lon="-3.46169">
        <ele>56</ele>
        <time>2019-07-11T12:22:52Z</time>
      </trkpt>
      <trkpt lat="48.73701" lon="-3.46167">
        <ele>56.4</ele>
        <time>2019-07-11T12:22:53Z</time>
      </trkpt>
      <trkpt lat="48.73698" lon="-3.46165">
        <ele>56.9</ele>
        <time>2019-07-11T12:22:54Z</time>
      </trkpt>
      <trkpt lat="48.73695" lon="-3.46164">
        <ele>57.5</ele>
        <time>2019-07-11T12:22:55Z</time>
      </trkpt>
      <trkpt lat="48.73692" lon="-3.46162">
        <ele>57.1</ele>
        <time>2019-07-11T12:22:56Z</time>
      </trkpt>
      <trkpt lat="48.73689" lon="-3.4616">
        <ele>56.5</ele>
        <time>2019-07-11T12:22:57Z</time>
      </trkpt>
      <trkpt lat="48.73686" lon="-3.46158">
        <ele>55.9</ele>
        <time>2019-07-11T12:22:58Z</time>
      </trkpt>
      <trkpt lat="48.73683" lon="-3.46157">
        <ele>55.3</ele>
        <time>2019-07-11T12:22:59Z</time>
      </trkpt>
      <trkpt lat="48.73681" lon="-3.46155">
        <ele>54.7</ele>
        <time>2019-07-11T12:23:00Z</time>
      </trkpt>
      <trkpt lat="48.73679" lon="-3.46153">
        <ele>54.1</ele>
        <time>2019-07-11T12:23:01Z</time>
      </trkpt>
      <trkpt lat="48.73676" lon="-3.46151">
        <ele>53.1</ele>
        <time>2019-07-11T12:23:02Z</time>
      </trkpt>
      <trkpt lat="48.73674" lon="-3.4615">
        <ele>52.9</ele>
        <time>2019-07-11T12:23:03Z</time>
      </trkpt>
      <trkpt lat="48.73673" lon="-3.46149">
        <ele>52.4</ele>
        <time>2019-07-11T12:23:04Z</time>
      </trkpt>
      <trkpt lat="48.73671" lon="-3.46148">
        <ele>52.4</ele>
        <time>2019-07-11T12:23:05Z</time>
      </trkpt>
      <trkpt lat="48.7367" lon="-3.46148">
        <ele>52.3</ele>
        <time>2019-07-11T12:23:06Z</time>
      </trkpt>
      <trkpt lat="48.7367" lon="-3.46147">
        <ele>52.3</ele>
        <time>2019-07-11T12:23:07Z</time>
      </trkpt>
      <trkpt lat="48.73667" lon="-3.46145">
        <ele>52.6</ele>
        <time>2019-07-11T12:23:10Z</time>
      </trkpt>
      <trkpt lat="48.73665" lon="-3.46144">
        <ele>52.8</ele>
        <time>2019-07-11T12:23:11Z</time>
      </trkpt>
      <trkpt lat="48.73663" lon="-3.46143">
        <ele>53</ele>
        <time>2019-07-11T12:23:12Z</time>
      </trkpt>
      <trkpt lat="48.73661" lon="-3.46142">
        <ele>53.3</ele>
        <time>2019-07-11T12:23:13Z</time>
      </trkpt>
      <trkpt lat="48.73659" lon="-3.46141">
        <ele>53.4</ele>
        <time>2019-07-11T12:23:14Z</time>
      </trkpt>
      <trkpt lat="48.73657" lon="-3.4614">
        <ele>53.5</ele>
        <time>2019-07-11T12:23:15Z</time>
      </trkpt>
      <trkpt lat="48.73654" lon="-3.46138">
        <ele>53.5</ele>
        <time>2019-07-11T12:23:16Z</time>
      </trkpt>
      <trkpt lat="48.73652" lon="-3.46136">
        <ele>53.6</ele>
        <time>2019-07-11T12:23:17Z</time>
      </trkpt>
      <trkpt lat="48.7365" lon="-3.46134">
        <ele>53.6</ele>
        <time>2019-07-11T12:23:18Z</time>
      </trkpt>
      <trkpt lat="48.73648" lon="-3.46132">
        <ele>53.7</ele>
        <time>2019-07-11T12:23:19Z</time>
      </trkpt>
      <trkpt lat="48.73645" lon="-3.4613">
        <ele>54</ele>
        <time>2019-07-11T12:23:20Z</time>
      </trkpt>
      <trkpt lat="48.73643" lon="-3.46129">
        <ele>54.2</ele>
        <time>2019-07-11T12:23:21Z</time>
      </trkpt>
      <trkpt lat="48.7364" lon="-3.46128">
        <ele>54.4</ele>
        <time>2019-07-11T12:23:22Z</time>
      </trkpt>
      <trkpt lat="48.73638" lon="-3.46126">
        <ele>54.5</ele>
        <time>2019-07-11T12:23:23Z</time>
      </trkpt>
      <trkpt lat="48.73636" lon="-3.46125">
        <ele>54.4</ele>
        <time>2019-07-11T12:23:24Z</time>
      </trkpt>
      <trkpt lat="48.73633" lon="-3.46124">
        <ele>54.6</ele>
        <time>2019-07-11T12:23:25Z</time>
      </trkpt>
      <trkpt lat="48.73631" lon="-3.46124">
        <ele>54.9</ele>
        <time>2019-07-11T12:23:26Z</time>
      </trkpt>
      <trkpt lat="48.73628" lon="-3.46123">
        <ele>55.1</ele>
        <time>2019-07-11T12:23:27Z</time>
      </trkpt>
      <trkpt lat="48.73626" lon="-3.46121">
        <ele>55.1</ele>
        <time>2019-07-11T12:23:28Z</time>
      </trkpt>
      <trkpt lat="48.73624" lon="-3.4612">
        <ele>55</ele>
        <time>2019-07-11T12:23:29Z</time>
      </trkpt>
      <trkpt lat="48.73621" lon="-3.46118">
        <ele>54.9</ele>
        <time>2019-07-11T12:23:30Z</time>
      </trkpt>
      <trkpt lat="48.73619" lon="-3.46117">
        <ele>55</ele>
        <time>2019-07-11T12:23:31Z</time>
      </trkpt>
      <trkpt lat="48.73616" lon="-3.46117">
        <ele>55.1</ele>
        <time>2019-07-11T12:23:32Z</time>
      </trkpt>
      <trkpt lat="48.73613" lon="-3.46117">
        <ele>55.3</ele>
        <time>2019-07-11T12:23:33Z</time>
      </trkpt>
      <trkpt lat="48.7361" lon="-3.46117">
        <ele>55.1</ele>
        <time>2019-07-11T12:23:34Z</time>
      </trkpt>
      <trkpt lat="48.73607" lon="-3.46116">
        <ele>55.2</ele>
        <time>2019-07-11T12:23:35Z</time>
      </trkpt>
      <trkpt lat="48.73603" lon="-3.46115">
        <ele>54.8</ele>
        <time>2019-07-11T12:23:36Z</time>
      </trkpt>
      <trkpt lat="48.736" lon="-3.46114">
        <ele>54.5</ele>
        <time>2019-07-11T12:23:37Z</time>
      </trkpt>
      <trkpt lat="48.73596" lon="-3.46112">
        <ele>54.3</ele>
        <time>2019-07-11T12:23:38Z</time>
      </trkpt>
      <trkpt lat="48.73594" lon="-3.46109">
        <ele>54.4</ele>
        <time>2019-07-11T12:23:39Z</time>
      </trkpt>
      <trkpt lat="48.73591" lon="-3.46106">
        <ele>54.9</ele>
        <time>2019-07-11T12:23:40Z</time>
      </trkpt>
      <trkpt lat="48.73589" lon="-3.46103">
        <ele>55.2</ele>
        <time>2019-07-11T12:23:41Z</time>
      </trkpt>
      <trkpt lat="48.73588" lon="-3.461">
        <ele>55.4</ele>
        <time>2019-07-11T12:23:42Z</time>
      </trkpt>
      <trkpt lat="48.73586" lon="-3.46096">
        <ele>55.2</ele>
        <time>2019-07-11T12:23:43Z</time>
      </trkpt>
      <trkpt lat="48.73585" lon="-3.46091">
        <ele>55.3</ele>
        <time>2019-07-11T12:23:44Z</time>
      </trkpt>
      <trkpt lat="48.73584" lon="-3.46087">
        <ele>55.4</ele>
        <time>2019-07-11T12:23:45Z</time>
      </trkpt>
      <trkpt lat="48.73584" lon="-3.46081">
        <ele>55.6</ele>
        <time>2019-07-11T12:23:46Z</time>
      </trkpt>
      <trkpt lat="48.73585" lon="-3.46076">
        <ele>55.3</ele>
        <time>2019-07-11T12:23:47Z</time>
      </trkpt>
      <trkpt lat="48.73587" lon="-3.4607">
        <ele>55</ele>
        <time>2019-07-11T12:23:48Z</time>
      </trkpt>
      <trkpt lat="48.73587" lon="-3.46064">
        <ele>54.8</ele>
        <time>2019-07-11T12:23:49Z</time>
      </trkpt>
      <trkpt lat="48.73587" lon="-3.46057">
        <ele>54.7</ele>
        <time>2019-07-11T12:23:50Z</time>
      </trkpt>
      <trkpt lat="48.73586" lon="-3.46051">
        <ele>54.8</ele>
        <time>2019-07-11T12:23:51Z</time>
      </trkpt>
      <trkpt lat="48.73586" lon="-3.46044">
        <ele>54.5</ele>
        <time>2019-07-11T12:23:52Z</time>
      </trkpt>
      <trkpt lat="48.73586" lon="-3.46037">
        <ele>54.1</ele>
        <time>2019-07-11T12:23:53Z</time>
      </trkpt>
      <trkpt lat="48.73587" lon="-3.46031">
        <ele>54</ele>
        <time>2019-07-11T12:23:54Z</time>
      </trkpt>
      <trkpt lat="48.73587" lon="-3.46025">
        <ele>53.8</ele>
        <time>2019-07-11T12:23:55Z</time>
      </trkpt>
      <trkpt lat="48.73587" lon="-3.46018">
        <ele>53.7</ele>
        <time>2019-07-11T12:23:56Z</time>
      </trkpt>
      <trkpt lat="48.73588" lon="-3.46011">
        <ele>53.3</ele>
        <time>2019-07-11T12:23:57Z</time>
      </trkpt>
      <trkpt lat="48.7359" lon="-3.46005">
        <ele>53.2</ele>
        <time>2019-07-11T12:23:58Z</time>
      </trkpt>
      <trkpt lat="48.73591" lon="-3.46">
        <ele>53.2</ele>
        <time>2019-07-11T12:23:59Z</time>
      </trkpt>
      <trkpt lat="48.73594" lon="-3.45995">
        <ele>53.4</ele>
        <time>2019-07-11T12:24:00Z</time>
      </trkpt>
      <trkpt lat="48.73595" lon="-3.4599">
        <ele>53.6</ele>
        <time>2019-07-11T12:24:01Z</time>
      </trkpt>
      <trkpt lat="48.73598" lon="-3.45985">
        <ele>54</ele>
        <time>2019-07-11T12:24:02Z</time>
      </trkpt>
      <trkpt lat="48.736" lon="-3.45981">
        <ele>54.5</ele>
        <time>2019-07-11T12:24:03Z</time>
      </trkpt>
      <trkpt lat="48.73602" lon="-3.45977">
        <ele>55.1</ele>
        <time>2019-07-11T12:24:04Z</time>
      </trkpt>
      <trkpt lat="48.73604" lon="-3.45974">
        <ele>56.2</ele>
        <time>2019-07-11T12:24:05Z</time>
      </trkpt>
      <trkpt lat="48.73606" lon="-3.4597">
        <ele>56.7</ele>
        <time>2019-07-11T12:24:06Z</time>
      </trkpt>
      <trkpt lat="48.73607" lon="-3.45966">
        <ele>57.4</ele>
        <time>2019-07-11T12:24:07Z</time>
      </trkpt>
      <trkpt lat="48.73608" lon="-3.45961">
        <ele>58.4</ele>
        <time>2019-07-11T12:24:08Z</time>
      </trkpt>
      <trkpt lat="48.73608" lon="-3.45957">
        <ele>59.6</ele>
        <time>2019-07-11T12:24:09Z</time>
      </trkpt>
      <trkpt lat="48.73608" lon="-3.45952">
        <ele>60.2</ele>
        <time>2019-07-11T12:24:10Z</time>
      </trkpt>
      <trkpt lat="48.73609" lon="-3.45947">
        <ele>60.8</ele>
        <time>2019-07-11T12:24:11Z</time>
      </trkpt>
      <trkpt lat="48.73611" lon="-3.45941">
        <ele>60.3</ele>
        <time>2019-07-11T12:24:12Z</time>
      </trkpt>
      <trkpt lat="48.73612" lon="-3.45935">
        <ele>60.1</ele>
        <time>2019-07-11T12:24:13Z</time>
      </trkpt>
      <trkpt lat="48.73612" lon="-3.4593">
        <ele>59.4</ele>
        <time>2019-07-11T12:24:14Z</time>
      </trkpt>
      <trkpt lat="48.73613" lon="-3.45924">
        <ele>58.8</ele>
        <time>2019-07-11T12:24:15Z</time>
      </trkpt>
      <trkpt lat="48.73614" lon="-3.45919">
        <ele>58.5</ele>
        <time>2019-07-11T12:24:16Z</time>
      </trkpt>
      <trkpt lat="48.73615" lon="-3.45913">
        <ele>57.2</ele>
        <time>2019-07-11T12:24:17Z</time>
      </trkpt>
      <trkpt lat="48.73616" lon="-3.45907">
        <ele>57</ele>
        <time>2019-07-11T12:24:18Z</time>
      </trkpt>
      <trkpt lat="48.73617" lon="-3.45901">
        <ele>56.7</ele>
        <time>2019-07-11T12:24:19Z</time>
      </trkpt>
      <trkpt lat="48.73619" lon="-3.45896">
        <ele>56.3</ele>
        <time>2019-07-11T12:24:20Z</time>
      </trkpt>
      <trkpt lat="48.73621" lon="-3.45892">
        <ele>56.3</ele>
        <time>2019-07-11T12:24:21Z</time>
      </trkpt>
      <trkpt lat="48.73623" lon="-3.45887">
        <ele>56</ele>
        <time>2019-07-11T12:24:22Z</time>
      </trkpt>
      <trkpt lat="48.73624" lon="-3.45883">
        <ele>56.5</ele>
        <time>2019-07-11T12:24:23Z</time>
      </trkpt>
      <trkpt lat="48.73626" lon="-3.45879">
        <ele>56.9</ele>
        <time>2019-07-11T12:24:24Z</time>
      </trkpt>
      <trkpt lat="48.73629" lon="-3.45875">
        <ele>56.8</ele>
        <time>2019-07-11T12:24:25Z</time>
      </trkpt>
      <trkpt lat="48.73631" lon="-3.4587">
        <ele>57.3</ele>
        <time>2019-07-11T12:24:26Z</time>
      </trkpt>
      <trkpt lat="48.73632" lon="-3.45864">
        <ele>57.7</ele>
        <time>2019-07-11T12:24:27Z</time>
      </trkpt>
      <trkpt lat="48.73634" lon="-3.45859">
        <ele>58.2</ele>
        <time>2019-07-11T12:24:28Z</time>
      </trkpt>
      <trkpt lat="48.73637" lon="-3.45852">
        <ele>58.8</ele>
        <time>2019-07-11T12:24:29Z</time>
      </trkpt>
      <trkpt lat="48.73639" lon="-3.45846">
        <ele>58.6</ele>
        <time>2019-07-11T12:24:30Z</time>
      </trkpt>
      <trkpt lat="48.73642" lon="-3.45838">
        <ele>58.2</ele>
        <time>2019-07-11T12:24:31Z</time>
      </trkpt>
      <trkpt lat="48.73644" lon="-3.45831">
        <ele>58</ele>
        <time>2019-07-11T12:24:32Z</time>
      </trkpt>
      <trkpt lat="48.73648" lon="-3.45825">
        <ele>57.9</ele>
        <time>2019-07-11T12:24:33Z</time>
      </trkpt>
      <trkpt lat="48.73652" lon="-3.4582">
        <ele>57.3</ele>
        <time>2019-07-11T12:24:34Z</time>
      </trkpt>
      <trkpt lat="48.73656" lon="-3.45816">
        <ele>57.1</ele>
        <time>2019-07-11T12:24:35Z</time>
      </trkpt>
      <trkpt lat="48.7366" lon="-3.4581">
        <ele>56.9</ele>
        <time>2019-07-11T12:24:36Z</time>
      </trkpt>
      <trkpt lat="48.73663" lon="-3.45803">
        <ele>56.6</ele>
        <time>2019-07-11T12:24:37Z</time>
      </trkpt>
      <trkpt lat="48.73666" lon="-3.45797">
        <ele>56.5</ele>
        <time>2019-07-11T12:24:38Z</time>
      </trkpt>
      <trkpt lat="48.7367" lon="-3.45791">
        <ele>55.7</ele>
        <time>2019-07-11T12:24:39Z</time>
      </trkpt>
      <trkpt lat="48.73674" lon="-3.45784">
        <ele>55.2</ele>
        <time>2019-07-11T12:24:40Z</time>
      </trkpt>
      <trkpt lat="48.73677" lon="-3.45776">
        <ele>54.8</ele>
        <time>2019-07-11T12:24:41Z</time>
      </trkpt>
      <trkpt lat="48.73679" lon="-3.45768">
        <ele>54.2</ele>
        <time>2019-07-11T12:24:42Z</time>
      </trkpt>
      <trkpt lat="48.73682" lon="-3.45759">
        <ele>53.2</ele>
        <time>2019-07-11T12:24:43Z</time>
      </trkpt>
      <trkpt lat="48.73686" lon="-3.4575">
        <ele>52.2</ele>
        <time>2019-07-11T12:24:44Z</time>
      </trkpt>
      <trkpt lat="48.73689" lon="-3.45741">
        <ele>51.4</ele>
        <time>2019-07-11T12:24:45Z</time>
      </trkpt>
      <trkpt lat="48.73691" lon="-3.45733">
        <ele>50.3</ele>
        <time>2019-07-11T12:24:46Z</time>
      </trkpt>
      <trkpt lat="48.73694" lon="-3.45725">
        <ele>49.6</ele>
        <time>2019-07-11T12:24:47Z</time>
      </trkpt>
      <trkpt lat="48.73697" lon="-3.45718">
        <ele>48.3</ele>
        <time>2019-07-11T12:24:48Z</time>
      </trkpt>
      <trkpt lat="48.737" lon="-3.4571">
        <ele>46.5</ele>
        <time>2019-07-11T12:24:49Z</time>
      </trkpt>
      <trkpt lat="48.73703" lon="-3.45703">
        <ele>45.1</ele>
        <time>2019-07-11T12:24:50Z</time>
      </trkpt>
      <trkpt lat="48.73707" lon="-3.45694">
        <ele>44.2</ele>
        <time>2019-07-11T12:24:51Z</time>
      </trkpt>
      <trkpt lat="48.73711" lon="-3.45685">
        <ele>43.2</ele>
        <time>2019-07-11T12:24:52Z</time>
      </trkpt>
      <trkpt lat="48.73714" lon="-3.45676">
        <ele>41.6</ele>
        <time>2019-07-11T12:24:53Z</time>
      </trkpt>
      <trkpt lat="48.73717" lon="-3.45668">
        <ele>40.4</ele>
        <time>2019-07-11T12:24:54Z</time>
      </trkpt>
      <trkpt lat="48.73719" lon="-3.4566">
        <ele>39.4</ele>
        <time>2019-07-11T12:24:55Z</time>
      </trkpt>
      <trkpt lat="48.7372" lon="-3.45652">
        <ele>38.7</ele>
        <time>2019-07-11T12:24:56Z</time>
      </trkpt>
      <trkpt lat="48.73721" lon="-3.45644">
        <ele>38.1</ele>
        <time>2019-07-11T12:24:57Z</time>
      </trkpt>
      <trkpt lat="48.73723" lon="-3.45637">
        <ele>37.2</ele>
        <time>2019-07-11T12:24:58Z</time>
      </trkpt>
      <trkpt lat="48.73723" lon="-3.4563">
        <ele>36.6</ele>
        <time>2019-07-11T12:24:59Z</time>
      </trkpt>
      <trkpt lat="48.73724" lon="-3.45623">
        <ele>36.2</ele>
        <time>2019-07-11T12:25:00Z</time>
      </trkpt>
      <trkpt lat="48.73726" lon="-3.45618">
        <ele>35.6</ele>
        <time>2019-07-11T12:25:01Z</time>
      </trkpt>
      <trkpt lat="48.73726" lon="-3.45614">
        <ele>35.1</ele>
        <time>2019-07-11T12:25:02Z</time>
      </trkpt>
      <trkpt lat="48.73727" lon="-3.45612">
        <ele>34.7</ele>
        <time>2019-07-11T12:25:03Z</time>
      </trkpt>
      <trkpt lat="48.73727" lon="-3.4561">
        <ele>34.5</ele>
        <time>2019-07-11T12:25:04Z</time>
      </trkpt>
      <trkpt lat="48.73728" lon="-3.45608">
        <ele>34.8</ele>
        <time>2019-07-11T12:25:05Z</time>
      </trkpt>
      <trkpt lat="48.73729" lon="-3.45606">
        <ele>34.9</ele>
        <time>2019-07-11T12:25:06Z</time>
      </trkpt>
      <trkpt lat="48.73727" lon="-3.456">
        <ele>34.9</ele>
        <time>2019-07-11T12:25:33Z</time>
      </trkpt>
      <trkpt lat="48.73726" lon="-3.45596">
        <ele>35.1</ele>
        <time>2019-07-11T12:25:34Z</time>
      </trkpt>
      <trkpt lat="48.73724" lon="-3.45591">
        <ele>35.2</ele>
        <time>2019-07-11T12:25:35Z</time>
      </trkpt>
      <trkpt lat="48.73721" lon="-3.45585">
        <ele>35.2</ele>
        <time>2019-07-11T12:25:36Z</time>
      </trkpt>
      <trkpt lat="48.73718" lon="-3.45579">
        <ele>35.3</ele>
        <time>2019-07-11T12:25:37Z</time>
      </trkpt>
      <trkpt lat="48.73716" lon="-3.45572">
        <ele>35.2</ele>
        <time>2019-07-11T12:25:38Z</time>
      </trkpt>
      <trkpt lat="48.73714" lon="-3.45564">
        <ele>34.7</ele>
        <time>2019-07-11T12:25:39Z</time>
      </trkpt>
      <trkpt lat="48.73711" lon="-3.45556">
        <ele>34.5</ele>
        <time>2019-07-11T12:25:40Z</time>
      </trkpt>
      <trkpt lat="48.7371" lon="-3.45549">
        <ele>34.2</ele>
        <time>2019-07-11T12:25:41Z</time>
      </trkpt>
      <trkpt lat="48.7371" lon="-3.45542">
        <ele>33.7</ele>
        <time>2019-07-11T12:25:42Z</time>
      </trkpt>
      <trkpt lat="48.73709" lon="-3.45537">
        <ele>33</ele>
        <time>2019-07-11T12:25:43Z</time>
      </trkpt>
      <trkpt lat="48.73709" lon="-3.45533">
        <ele>31.9</ele>
        <time>2019-07-11T12:25:44Z</time>
      </trkpt>
      <trkpt lat="48.73708" lon="-3.45531">
        <ele>31.1</ele>
        <time>2019-07-11T12:25:45Z</time>
      </trkpt>
      <trkpt lat="48.73706" lon="-3.45529">
        <ele>31.4</ele>
        <time>2019-07-11T12:26:00Z</time>
      </trkpt>
      <trkpt lat="48.73704" lon="-3.45528">
        <ele>31.5</ele>
        <time>2019-07-11T12:26:01Z</time>
      </trkpt>
      <trkpt lat="48.73702" lon="-3.45528">
        <ele>31.6</ele>
        <time>2019-07-11T12:26:02Z</time>
      </trkpt>
      <trkpt lat="48.73699" lon="-3.45528">
        <ele>31.4</ele>
        <time>2019-07-11T12:26:03Z</time>
      </trkpt>
      <trkpt lat="48.73697" lon="-3.4553">
        <ele>31.2</ele>
        <time>2019-07-11T12:26:04Z</time>
      </trkpt>
      <trkpt lat="48.73692" lon="-3.45529">
        <ele>30.8</ele>
        <time>2019-07-11T12:26:05Z</time>
      </trkpt>
      <trkpt lat="48.73688" lon="-3.45529">
        <ele>30.6</ele>
        <time>2019-07-11T12:26:06Z</time>
      </trkpt>
      <trkpt lat="48.73683" lon="-3.45528">
        <ele>30.4</ele>
        <time>2019-07-11T12:26:07Z</time>
      </trkpt>
      <trkpt lat="48.73677" lon="-3.45528">
        <ele>30</ele>
        <time>2019-07-11T12:26:08Z</time>
      </trkpt>
      <trkpt lat="48.73671" lon="-3.45527">
        <ele>29.6</ele>
        <time>2019-07-11T12:26:09Z</time>
      </trkpt>
      <trkpt lat="48.73665" lon="-3.45525">
        <ele>28.9</ele>
        <time>2019-07-11T12:26:10Z</time>
      </trkpt>
      <trkpt lat="48.73658" lon="-3.45524">
        <ele>28.5</ele>
        <time>2019-07-11T12:26:11Z</time>
      </trkpt>
      <trkpt lat="48.73652" lon="-3.45522">
        <ele>27.8</ele>
        <time>2019-07-11T12:26:12Z</time>
      </trkpt>
      <trkpt lat="48.73645" lon="-3.45519">
        <ele>27.1</ele>
        <time>2019-07-11T12:26:13Z</time>
      </trkpt>
      <trkpt lat="48.73638" lon="-3.45517">
        <ele>26.3</ele>
        <time>2019-07-11T12:26:14Z</time>
      </trkpt>
      <trkpt lat="48.73632" lon="-3.45514">
        <ele>25.9</ele>
        <time>2019-07-11T12:26:15Z</time>
      </trkpt>
      <trkpt lat="48.73625" lon="-3.45511">
        <ele>25.7</ele>
        <time>2019-07-11T12:26:16Z</time>
      </trkpt>
      <trkpt lat="48.73619" lon="-3.45507">
        <ele>25.4</ele>
        <time>2019-07-11T12:26:17Z</time>
      </trkpt>
      <trkpt lat="48.73613" lon="-3.45505">
        <ele>25</ele>
        <time>2019-07-11T12:26:18Z</time>
      </trkpt>
      <trkpt lat="48.73607" lon="-3.45504">
        <ele>24.5</ele>
        <time>2019-07-11T12:26:19Z</time>
      </trkpt>
      <trkpt lat="48.736" lon="-3.45504">
        <ele>24.1</ele>
        <time>2019-07-11T12:26:20Z</time>
      </trkpt>
      <trkpt lat="48.73594" lon="-3.45505">
        <ele>23.7</ele>
        <time>2019-07-11T12:26:21Z</time>
      </trkpt>
      <trkpt lat="48.73588" lon="-3.45505">
        <ele>23.4</ele>
        <time>2019-07-11T12:26:22Z</time>
      </trkpt>
      <trkpt lat="48.73581" lon="-3.45505">
        <ele>23.5</ele>
        <time>2019-07-11T12:26:23Z</time>
      </trkpt>
      <trkpt lat="48.73575" lon="-3.45505">
        <ele>23.8</ele>
        <time>2019-07-11T12:26:24Z</time>
      </trkpt>
      <trkpt lat="48.7357" lon="-3.45508">
        <ele>24</ele>
        <time>2019-07-11T12:26:25Z</time>
      </trkpt>
      <trkpt lat="48.73564" lon="-3.45512">
        <ele>24</ele>
        <time>2019-07-11T12:26:26Z</time>
      </trkpt>
      <trkpt lat="48.73559" lon="-3.45515">
        <ele>24.2</ele>
        <time>2019-07-11T12:26:27Z</time>
      </trkpt>
      <trkpt lat="48.73555" lon="-3.45517">
        <ele>24.5</ele>
        <time>2019-07-11T12:26:28Z</time>
      </trkpt>
      <trkpt lat="48.7355" lon="-3.45518">
        <ele>25.6</ele>
        <time>2019-07-11T12:26:29Z</time>
      </trkpt>
      <trkpt lat="48.73546" lon="-3.45519">
        <ele>26.4</ele>
        <time>2019-07-11T12:26:30Z</time>
      </trkpt>
      <trkpt lat="48.7354" lon="-3.4552">
        <ele>27.3</ele>
        <time>2019-07-11T12:26:31Z</time>
      </trkpt>
      <trkpt lat="48.73534" lon="-3.4552">
        <ele>28.3</ele>
        <time>2019-07-11T12:26:32Z</time>
      </trkpt>
      <trkpt lat="48.73528" lon="-3.4552">
        <ele>29.1</ele>
        <time>2019-07-11T12:26:33Z</time>
      </trkpt>
      <trkpt lat="48.73523" lon="-3.45521">
        <ele>29.6</ele>
        <time>2019-07-11T12:26:34Z</time>
      </trkpt>
      <trkpt lat="48.73518" lon="-3.45521">
        <ele>29.3</ele>
        <time>2019-07-11T12:26:35Z</time>
      </trkpt>
      <trkpt lat="48.73515" lon="-3.45523">
        <ele>29</ele>
        <time>2019-07-11T12:26:36Z</time>
      </trkpt>
      <trkpt lat="48.73513" lon="-3.45525">
        <ele>29.2</ele>
        <time>2019-07-11T12:26:37Z</time>
      </trkpt>
      <trkpt lat="48.73511" lon="-3.45528">
        <ele>29.3</ele>
        <time>2019-07-11T12:26:38Z</time>
      </trkpt>
      <trkpt lat="48.73509" lon="-3.45531">
        <ele>29.2</ele>
        <time>2019-07-11T12:26:39Z</time>
      </trkpt>
      <trkpt lat="48.73509" lon="-3.45534">
        <ele>29.4</ele>
        <time>2019-07-11T12:26:40Z</time>
      </trkpt>
      <trkpt lat="48.73507" lon="-3.45537">
        <ele>29.6</ele>
        <time>2019-07-11T12:26:41Z</time>
      </trkpt>
      <trkpt lat="48.73506" lon="-3.45538">
        <ele>30.5</ele>
        <time>2019-07-11T12:26:42Z</time>
      </trkpt>
      <trkpt lat="48.73505" lon="-3.4554">
        <ele>30.9</ele>
        <time>2019-07-11T12:26:43Z</time>
      </trkpt>
      <trkpt lat="48.73502" lon="-3.45543">
        <ele>31.7</ele>
        <time>2019-07-11T12:27:04Z</time>
      </trkpt>
      <trkpt lat="48.73501" lon="-3.45544">
        <ele>31.9</ele>
        <time>2019-07-11T12:27:05Z</time>
      </trkpt>
      <trkpt lat="48.735" lon="-3.45545">
        <ele>32</ele>
        <time>2019-07-11T12:27:06Z</time>
      </trkpt>
      <trkpt lat="48.73498" lon="-3.45547">
        <ele>32.1</ele>
        <time>2019-07-11T12:27:07Z</time>
      </trkpt>
      <trkpt lat="48.73497" lon="-3.45549">
        <ele>32.7</ele>
        <time>2019-07-11T12:27:08Z</time>
      </trkpt>
      <trkpt lat="48.73496" lon="-3.45552">
        <ele>33.3</ele>
        <time>2019-07-11T12:27:09Z</time>
      </trkpt>
      <trkpt lat="48.73494" lon="-3.45556">
        <ele>33.5</ele>
        <time>2019-07-11T12:27:10Z</time>
      </trkpt>
      <trkpt lat="48.73493" lon="-3.45561">
        <ele>33.4</ele>
        <time>2019-07-11T12:27:11Z</time>
      </trkpt>
      <trkpt lat="48.73492" lon="-3.45566">
        <ele>33.3</ele>
        <time>2019-07-11T12:27:12Z</time>
      </trkpt>
      <trkpt lat="48.7349" lon="-3.45572">
        <ele>32.3</ele>
        <time>2019-07-11T12:27:13Z</time>
      </trkpt>
      <trkpt lat="48.73489" lon="-3.45578">
        <ele>31.1</ele>
        <time>2019-07-11T12:27:14Z</time>
      </trkpt>
      <trkpt lat="48.73487" lon="-3.45584">
        <ele>29.5</ele>
        <time>2019-07-11T12:27:15Z</time>
      </trkpt>
      <trkpt lat="48.73485" lon="-3.45591">
        <ele>27.8</ele>
        <time>2019-07-11T12:27:16Z</time>
      </trkpt>
      <trkpt lat="48.73484" lon="-3.45597">
        <ele>26.7</ele>
        <time>2019-07-11T12:27:17Z</time>
      </trkpt>
      <trkpt lat="48.73482" lon="-3.45603">
        <ele>25.6</ele>
        <time>2019-07-11T12:27:18Z</time>
      </trkpt>
      <trkpt lat="48.73481" lon="-3.45609">
        <ele>25.3</ele>
        <time>2019-07-11T12:27:19Z</time>
      </trkpt>
      <trkpt lat="48.7348" lon="-3.45615">
        <ele>25</ele>
        <time>2019-07-11T12:27:20Z</time>
      </trkpt>
      <trkpt lat="48.73479" lon="-3.4562">
        <ele>25</ele>
        <time>2019-07-11T12:27:21Z</time>
      </trkpt>
      <trkpt lat="48.73479" lon="-3.45626">
        <ele>25.2</ele>
        <time>2019-07-11T12:27:22Z</time>
      </trkpt>
      <trkpt lat="48.73478" lon="-3.45631">
        <ele>25.1</ele>
        <time>2019-07-11T12:27:23Z</time>
      </trkpt>
      <trkpt lat="48.73478" lon="-3.45636">
        <ele>24.2</ele>
        <time>2019-07-11T12:27:24Z</time>
      </trkpt>
      <trkpt lat="48.73477" lon="-3.45641">
        <ele>22.9</ele>
        <time>2019-07-11T12:27:25Z</time>
      </trkpt>
      <trkpt lat="48.73475" lon="-3.45645">
        <ele>22.2</ele>
        <time>2019-07-11T12:27:26Z</time>
      </trkpt>
      <trkpt lat="48.73474" lon="-3.45649">
        <ele>21.1</ele>
        <time>2019-07-11T12:27:27Z</time>
      </trkpt>
      <trkpt lat="48.73473" lon="-3.45653">
        <ele>20.4</ele>
        <time>2019-07-11T12:27:28Z</time>
      </trkpt>
      <trkpt lat="48.73472" lon="-3.45657">
        <ele>19.4</ele>
        <time>2019-07-11T12:27:29Z</time>
      </trkpt>
      <trkpt lat="48.7347" lon="-3.45661">
        <ele>19.2</ele>
        <time>2019-07-11T12:27:30Z</time>
      </trkpt>
      <trkpt lat="48.7347" lon="-3.45665">
        <ele>19.6</ele>
        <time>2019-07-11T12:27:31Z</time>
      </trkpt>
      <trkpt lat="48.73469" lon="-3.45669">
        <ele>19.2</ele>
        <time>2019-07-11T12:27:32Z</time>
      </trkpt>
      <trkpt lat="48.73468" lon="-3.45673">
        <ele>19.1</ele>
        <time>2019-07-11T12:27:33Z</time>
      </trkpt>
      <trkpt lat="48.73467" lon="-3.45677">
        <ele>19.5</ele>
        <time>2019-07-11T12:27:34Z</time>
      </trkpt>
      <trkpt lat="48.73465" lon="-3.45681">
        <ele>19.6</ele>
        <time>2019-07-11T12:27:35Z</time>
      </trkpt>
      <trkpt lat="48.73463" lon="-3.45683">
        <ele>19</ele>
        <time>2019-07-11T12:27:36Z</time>
      </trkpt>
      <trkpt lat="48.7346" lon="-3.45684">
        <ele>18</ele>
        <time>2019-07-11T12:27:37Z</time>
      </trkpt>
      <trkpt lat="48.73457" lon="-3.45685">
        <ele>17.5</ele>
        <time>2019-07-11T12:27:38Z</time>
      </trkpt>
      <trkpt lat="48.73456" lon="-3.45686">
        <ele>18.4</ele>
        <time>2019-07-11T12:27:39Z</time>
      </trkpt>
      <trkpt lat="48.73454" lon="-3.45687">
        <ele>18.4</ele>
        <time>2019-07-11T12:27:40Z</time>
      </trkpt>
      <trkpt lat="48.73452" lon="-3.4569">
        <ele>18.2</ele>
        <time>2019-07-11T12:27:41Z</time>
      </trkpt>
      <trkpt lat="48.7345" lon="-3.45693">
        <ele>17.9</ele>
        <time>2019-07-11T12:27:42Z</time>
      </trkpt>
      <trkpt lat="48.73448" lon="-3.45696">
        <ele>17.9</ele>
        <time>2019-07-11T12:27:43Z</time>
      </trkpt>
      <trkpt lat="48.73445" lon="-3.457">
        <ele>17.5</ele>
        <time>2019-07-11T12:27:44Z</time>
      </trkpt>
      <trkpt lat="48.73443" lon="-3.45703">
        <ele>17.9</ele>
        <time>2019-07-11T12:27:45Z</time>
      </trkpt>
      <trkpt lat="48.73441" lon="-3.45706">
        <ele>18.3</ele>
        <time>2019-07-11T12:27:46Z</time>
      </trkpt>
      <trkpt lat="48.7344" lon="-3.4571">
        <ele>18.9</ele>
        <time>2019-07-11T12:27:47Z</time>
      </trkpt>
      <trkpt lat="48.73439" lon="-3.45713">
        <ele>19.5</ele>
        <time>2019-07-11T12:27:48Z</time>
      </trkpt>
      <trkpt lat="48.73439" lon="-3.45717">
        <ele>19.9</ele>
        <time>2019-07-11T12:27:49Z</time>
      </trkpt>
      <trkpt lat="48.73439" lon="-3.45722">
        <ele>20.3</ele>
        <time>2019-07-11T12:27:50Z</time>
      </trkpt>
      <trkpt lat="48.73438" lon="-3.45728">
        <ele>20.7</ele>
        <time>2019-07-11T12:27:51Z</time>
      </trkpt>
      <trkpt lat="48.73439" lon="-3.45733">
        <ele>20.9</ele>
        <time>2019-07-11T12:27:52Z</time>
      </trkpt>
      <trkpt lat="48.73442" lon="-3.45738">
        <ele>21.4</ele>
        <time>2019-07-11T12:27:53Z</time>
      </trkpt>
      <trkpt lat="48.73444" lon="-3.45742">
        <ele>21.7</ele>
        <time>2019-07-11T12:27:54Z</time>
      </trkpt>
      <trkpt lat="48.73446" lon="-3.45747">
        <ele>21.9</ele>
        <time>2019-07-11T12:27:55Z</time>
      </trkpt>
      <trkpt lat="48.73448" lon="-3.45752">
        <ele>22</ele>
        <time>2019-07-11T12:27:56Z</time>
      </trkpt>
      <trkpt lat="48.73451" lon="-3.45757">
        <ele>22.3</ele>
        <time>2019-07-11T12:27:57Z</time>
      </trkpt>
      <trkpt lat="48.73452" lon="-3.45764">
        <ele>21.8</ele>
        <time>2019-07-11T12:27:58Z</time>
      </trkpt>
      <trkpt lat="48.73454" lon="-3.45769">
        <ele>21.1</ele>
        <time>2019-07-11T12:27:59Z</time>
      </trkpt>
      <trkpt lat="48.73454" lon="-3.45775">
        <ele>20.6</ele>
        <time>2019-07-11T12:28:00Z</time>
      </trkpt>
      <trkpt lat="48.73455" lon="-3.45781">
        <ele>20</ele>
        <time>2019-07-11T12:28:01Z</time>
      </trkpt>
      <trkpt lat="48.73455" lon="-3.45786">
        <ele>19.3</ele>
        <time>2019-07-11T12:28:02Z</time>
      </trkpt>
      <trkpt lat="48.73455" lon="-3.45792">
        <ele>18.7</ele>
        <time>2019-07-11T12:28:03Z</time>
      </trkpt>
      <trkpt lat="48.73455" lon="-3.45797">
        <ele>17.8</ele>
        <time>2019-07-11T12:28:04Z</time>
      </trkpt>
      <trkpt lat="48.73457" lon="-3.45801">
        <ele>17.3</ele>
        <time>2019-07-11T12:28:05Z</time>
      </trkpt>
      <trkpt lat="48.73458" lon="-3.45806">
        <ele>16.8</ele>
        <time>2019-07-11T12:28:06Z</time>
      </trkpt>
      <trkpt lat="48.73459" lon="-3.45812">
        <ele>16.3</ele>
        <time>2019-07-11T12:28:07Z</time>
      </trkpt>
      <trkpt lat="48.73459" lon="-3.45818">
        <ele>15.8</ele>
        <time>2019-07-11T12:28:08Z</time>
      </trkpt>
      <trkpt lat="48.7346" lon="-3.45823">
        <ele>15.5</ele>
        <time>2019-07-11T12:28:09Z</time>
      </trkpt>
      <trkpt lat="48.7346" lon="-3.45828">
        <ele>15.1</ele>
        <time>2019-07-11T12:28:10Z</time>
      </trkpt>
      <trkpt lat="48.7346" lon="-3.45834">
        <ele>14.7</ele>
        <time>2019-07-11T12:28:11Z</time>
      </trkpt>
      <trkpt lat="48.7346" lon="-3.45839">
        <ele>14.2</ele>
        <time>2019-07-11T12:28:12Z</time>
      </trkpt>
      <trkpt lat="48.73459" lon="-3.45844">
        <ele>13.6</ele>
        <time>2019-07-11T12:28:13Z</time>
      </trkpt>
      <trkpt lat="48.73459" lon="-3.4585">
        <ele>13</ele>
        <time>2019-07-11T12:28:14Z</time>
      </trkpt>
      <trkpt lat="48.73459" lon="-3.45855">
        <ele>12.4</ele>
        <time>2019-07-11T12:28:15Z</time>
      </trkpt>
      <trkpt lat="48.73458" lon="-3.4586">
        <ele>11.8</ele>
        <time>2019-07-11T12:28:16Z</time>
      </trkpt>
      <trkpt lat="48.73457" lon="-3.45865">
        <ele>10.9</ele>
        <time>2019-07-11T12:28:17Z</time>
      </trkpt>
      <trkpt lat="48.73455" lon="-3.4587">
        <ele>10.2</ele>
        <time>2019-07-11T12:28:18Z</time>
      </trkpt>
      <trkpt lat="48.73453" lon="-3.45876">
        <ele>9.8</ele>
        <time>2019-07-11T12:28:19Z</time>
      </trkpt>
      <trkpt lat="48.73451" lon="-3.45881">
        <ele>9.7</ele>
        <time>2019-07-11T12:28:20Z</time>
      </trkpt>
      <trkpt lat="48.73452" lon="-3.45886">
        <ele>10.6</ele>
        <time>2019-07-11T12:28:21Z</time>
      </trkpt>
      <trkpt lat="48.73452" lon="-3.45891">
        <ele>10.8</ele>
        <time>2019-07-11T12:28:22Z</time>
      </trkpt>
      <trkpt lat="48.73452" lon="-3.45895">
        <ele>11</ele>
        <time>2019-07-11T12:28:23Z</time>
      </trkpt>
      <trkpt lat="48.73454" lon="-3.45898">
        <ele>12.3</ele>
        <time>2019-07-11T12:28:24Z</time>
      </trkpt>
      <trkpt lat="48.73456" lon="-3.45901">
        <ele>13.2</ele>
        <time>2019-07-11T12:28:25Z</time>
      </trkpt>
      <trkpt lat="48.73457" lon="-3.45903">
        <ele>12.9</ele>
        <time>2019-07-11T12:28:26Z</time>
      </trkpt>
      <trkpt lat="48.73459" lon="-3.45906">
        <ele>13.3</ele>
        <time>2019-07-11T12:28:27Z</time>
      </trkpt>
      <trkpt lat="48.7346" lon="-3.45909">
        <ele>14</ele>
        <time>2019-07-11T12:28:28Z</time>
      </trkpt>
      <trkpt lat="48.73462" lon="-3.45912">
        <ele>14.7</ele>
        <time>2019-07-11T12:28:29Z</time>
      </trkpt>
      <trkpt lat="48.73463" lon="-3.45915">
        <ele>15.2</ele>
        <time>2019-07-11T12:28:30Z</time>
      </trkpt>
      <trkpt lat="48.73465" lon="-3.45916">
        <ele>15.9</ele>
        <time>2019-07-11T12:28:31Z</time>
      </trkpt>
      <trkpt lat="48.73467" lon="-3.45918">
        <ele>16.8</ele>
        <time>2019-07-11T12:28:32Z</time>
      </trkpt>
      <trkpt lat="48.73468" lon="-3.4592">
        <ele>17.7</ele>
        <time>2019-07-11T12:28:33Z</time>
      </trkpt>
      <trkpt lat="48.7347" lon="-3.45922">
        <ele>18.1</ele>
        <time>2019-07-11T12:28:34Z</time>
      </trkpt>
      <trkpt lat="48.73471" lon="-3.45924">
        <ele>18.7</ele>
        <time>2019-07-11T12:28:35Z</time>
      </trkpt>
      <trkpt lat="48.73473" lon="-3.45926">
        <ele>18.9</ele>
        <time>2019-07-11T12:28:36Z</time>
      </trkpt>
      <trkpt lat="48.73475" lon="-3.45928">
        <ele>19.6</ele>
        <time>2019-07-11T12:28:37Z</time>
      </trkpt>
      <trkpt lat="48.73476" lon="-3.45931">
        <ele>20</ele>
        <time>2019-07-11T12:28:38Z</time>
      </trkpt>
      <trkpt lat="48.73476" lon="-3.45934">
        <ele>20.3</ele>
        <time>2019-07-11T12:28:39Z</time>
      </trkpt>
      <trkpt lat="48.73476" lon="-3.45937">
        <ele>20.9</ele>
        <time>2019-07-11T12:28:40Z</time>
      </trkpt>
      <trkpt lat="48.73475" lon="-3.4594">
        <ele>21.4</ele>
        <time>2019-07-11T12:28:41Z</time>
      </trkpt>
      <trkpt lat="48.73473" lon="-3.45943">
        <ele>21.8</ele>
        <time>2019-07-11T12:28:42Z</time>
      </trkpt>
      <trkpt lat="48.73469" lon="-3.45947">
        <ele>22.3</ele>
        <time>2019-07-11T12:28:43Z</time>
      </trkpt>
      <trkpt lat="48.73465" lon="-3.45949">
        <ele>22.5</ele>
        <time>2019-07-11T12:28:44Z</time>
      </trkpt>
      <trkpt lat="48.73462" lon="-3.45951">
        <ele>22.8</ele>
        <time>2019-07-11T12:28:45Z</time>
      </trkpt>
      <trkpt lat="48.73459" lon="-3.45952">
        <ele>23</ele>
        <time>2019-07-11T12:28:46Z</time>
      </trkpt>
      <trkpt lat="48.73455" lon="-3.45953">
        <ele>23.2</ele>
        <time>2019-07-11T12:28:47Z</time>
      </trkpt>
      <trkpt lat="48.73452" lon="-3.45955">
        <ele>23.4</ele>
        <time>2019-07-11T12:28:48Z</time>
      </trkpt>
      <trkpt lat="48.73449" lon="-3.45955">
        <ele>23.5</ele>
        <time>2019-07-11T12:28:49Z</time>
      </trkpt>
      <trkpt lat="48.73447" lon="-3.45955">
        <ele>23.6</ele>
        <time>2019-07-11T12:28:50Z</time>
      </trkpt>
      <trkpt lat="48.73444" lon="-3.45954">
        <ele>23.5</ele>
        <time>2019-07-11T12:28:51Z</time>
      </trkpt>
      <trkpt lat="48.73443" lon="-3.45956">
        <ele>23.9</ele>
        <time>2019-07-11T12:28:52Z</time>
      </trkpt>
      <trkpt lat="48.7344" lon="-3.45958">
        <ele>24</ele>
        <time>2019-07-11T12:28:53Z</time>
      </trkpt>
      <trkpt lat="48.73437" lon="-3.4596">
        <ele>24.2</ele>
        <time>2019-07-11T12:28:54Z</time>
      </trkpt>
      <trkpt lat="48.73434" lon="-3.45961">
        <ele>24.4</ele>
        <time>2019-07-11T12:28:55Z</time>
      </trkpt>
      <trkpt lat="48.73431" lon="-3.45961">
        <ele>24</ele>
        <time>2019-07-11T12:28:56Z</time>
      </trkpt>
      <trkpt lat="48.73429" lon="-3.45966">
        <ele>24.1</ele>
        <time>2019-07-11T12:28:57Z</time>
      </trkpt>
      <trkpt lat="48.73427" lon="-3.4597">
        <ele>23.7</ele>
        <time>2019-07-11T12:28:58Z</time>
      </trkpt>
      <trkpt lat="48.73425" lon="-3.45974">
        <ele>22.9</ele>
        <time>2019-07-11T12:28:59Z</time>
      </trkpt>
      <trkpt lat="48.73423" lon="-3.45977">
        <ele>22.5</ele>
        <time>2019-07-11T12:29:00Z</time>
      </trkpt>
      <trkpt lat="48.73421" lon="-3.45979">
        <ele>21.8</ele>
        <time>2019-07-11T12:29:01Z</time>
      </trkpt>
      <trkpt lat="48.73418" lon="-3.45982">
        <ele>21</ele>
        <time>2019-07-11T12:29:02Z</time>
      </trkpt>
      <trkpt lat="48.73415" lon="-3.45985">
        <ele>20.4</ele>
        <time>2019-07-11T12:29:03Z</time>
      </trkpt>
      <trkpt lat="48.73412" lon="-3.45988">
        <ele>20.3</ele>
        <time>2019-07-11T12:29:04Z</time>
      </trkpt>
      <trkpt lat="48.73409" lon="-3.4599">
        <ele>20.1</ele>
        <time>2019-07-11T12:29:05Z</time>
      </trkpt>
      <trkpt lat="48.73406" lon="-3.45993">
        <ele>20.2</ele>
        <time>2019-07-11T12:29:06Z</time>
      </trkpt>
      <trkpt lat="48.73403" lon="-3.45997">
        <ele>20.6</ele>
        <time>2019-07-11T12:29:07Z</time>
      </trkpt>
      <trkpt lat="48.734" lon="-3.46001">
        <ele>20.9</ele>
        <time>2019-07-11T12:29:08Z</time>
      </trkpt>
      <trkpt lat="48.73397" lon="-3.46004">
        <ele>20.9</ele>
        <time>2019-07-11T12:29:09Z</time>
      </trkpt>
      <trkpt lat="48.73394" lon="-3.46007">
        <ele>21</ele>
        <time>2019-07-11T12:29:10Z</time>
      </trkpt>
      <trkpt lat="48.73391" lon="-3.46011">
        <ele>21.3</ele>
        <time>2019-07-11T12:29:11Z</time>
      </trkpt>
      <trkpt lat="48.73388" lon="-3.46014">
        <ele>21.6</ele>
        <time>2019-07-11T12:29:12Z</time>
      </trkpt>
      <trkpt lat="48.73385" lon="-3.46017">
        <ele>21.8</ele>
        <time>2019-07-11T12:29:13Z</time>
      </trkpt>
      <trkpt lat="48.73382" lon="-3.46016">
        <ele>22.1</ele>
        <time>2019-07-11T12:29:14Z</time>
      </trkpt>
      <trkpt lat="48.73379" lon="-3.46018">
        <ele>22.4</ele>
        <time>2019-07-11T12:29:15Z</time>
      </trkpt>
      <trkpt lat="48.73376" lon="-3.46018">
        <ele>23.1</ele>
        <time>2019-07-11T12:29:16Z</time>
      </trkpt>
      <trkpt lat="48.73372" lon="-3.46019">
        <ele>23.8</ele>
        <time>2019-07-11T12:29:17Z</time>
      </trkpt>
      <trkpt lat="48.73368" lon="-3.46017">
        <ele>23.9</ele>
        <time>2019-07-11T12:29:18Z</time>
      </trkpt>
      <trkpt lat="48.73366" lon="-3.46013">
        <ele>23.4</ele>
        <time>2019-07-11T12:29:19Z</time>
      </trkpt>
      <trkpt lat="48.73367" lon="-3.46005">
        <ele>21.9</ele>
        <time>2019-07-11T12:29:20Z</time>
      </trkpt>
      <trkpt lat="48.73366" lon="-3.46">
        <ele>22</ele>
        <time>2019-07-11T12:29:21Z</time>
      </trkpt>
      <trkpt lat="48.73366" lon="-3.45993">
        <ele>21.6</ele>
        <time>2019-07-11T12:29:22Z</time>
      </trkpt>
      <trkpt lat="48.73364" lon="-3.45987">
        <ele>21.4</ele>
        <time>2019-07-11T12:29:23Z</time>
      </trkpt>
      <trkpt lat="48.73362" lon="-3.45982">
        <ele>21.1</ele>
        <time>2019-07-11T12:29:24Z</time>
      </trkpt>
      <trkpt lat="48.73361" lon="-3.45977">
        <ele>20.6</ele>
        <time>2019-07-11T12:29:25Z</time>
      </trkpt>
      <trkpt lat="48.7336" lon="-3.45971">
        <ele>20.4</ele>
        <time>2019-07-11T12:29:26Z</time>
      </trkpt>
      <trkpt lat="48.7336" lon="-3.45967">
        <ele>20.5</ele>
        <time>2019-07-11T12:29:27Z</time>
      </trkpt>
      <trkpt lat="48.73358" lon="-3.45964">
        <ele>20.3</ele>
        <time>2019-07-11T12:29:28Z</time>
      </trkpt>
      <trkpt lat="48.73357" lon="-3.45962">
        <ele>19.6</ele>
        <time>2019-07-11T12:29:29Z</time>
      </trkpt>
      <trkpt lat="48.73354" lon="-3.45962">
        <ele>19.1</ele>
        <time>2019-07-11T12:29:30Z</time>
      </trkpt>
      <trkpt lat="48.73352" lon="-3.45961">
        <ele>18.3</ele>
        <time>2019-07-11T12:29:31Z</time>
      </trkpt>
      <trkpt lat="48.73349" lon="-3.4596">
        <ele>17.7</ele>
        <time>2019-07-11T12:29:32Z</time>
      </trkpt>
      <trkpt lat="48.73347" lon="-3.45958">
        <ele>17</ele>
        <time>2019-07-11T12:29:33Z</time>
      </trkpt>
      <trkpt lat="48.73345" lon="-3.45956">
        <ele>16.6</ele>
        <time>2019-07-11T12:29:34Z</time>
      </trkpt>
      <trkpt lat="48.73343" lon="-3.45955">
        <ele>15.7</ele>
        <time>2019-07-11T12:29:35Z</time>
      </trkpt>
      <trkpt lat="48.73341" lon="-3.45954">
        <ele>15.1</ele>
        <time>2019-07-11T12:29:36Z</time>
      </trkpt>
      <trkpt lat="48.73339" lon="-3.45954">
        <ele>14.5</ele>
        <time>2019-07-11T12:29:37Z</time>
      </trkpt>
      <trkpt lat="48.73339" lon="-3.45953">
        <ele>13.1</ele>
        <time>2019-07-11T12:29:38Z</time>
      </trkpt>
      <trkpt lat="48.73338" lon="-3.45954">
        <ele>11.5</ele>
        <time>2019-07-11T12:29:39Z</time>
      </trkpt>
      <trkpt lat="48.73336" lon="-3.45953">
        <ele>10.3</ele>
        <time>2019-07-11T12:29:40Z</time>
      </trkpt>
      <trkpt lat="48.73334" lon="-3.45953">
        <ele>9.2</ele>
        <time>2019-07-11T12:29:41Z</time>
      </trkpt>
      <trkpt lat="48.73332" lon="-3.45953">
        <ele>8.8</ele>
        <time>2019-07-11T12:29:42Z</time>
      </trkpt>
      <trkpt lat="48.73331" lon="-3.45954">
        <ele>8.8</ele>
        <time>2019-07-11T12:29:43Z</time>
      </trkpt>
      <trkpt lat="48.73329" lon="-3.45954">
        <ele>9.2</ele>
        <time>2019-07-11T12:29:44Z</time>
      </trkpt>
      <trkpt lat="48.73327" lon="-3.45955">
        <ele>9.3</ele>
        <time>2019-07-11T12:29:45Z</time>
      </trkpt>
      <trkpt lat="48.73327" lon="-3.45955">
        <ele>9.7</ele>
        <time>2019-07-11T12:29:46Z</time>
      </trkpt>
      <trkpt lat="48.73326" lon="-3.45955">
        <ele>10</ele>
        <time>2019-07-11T12:29:47Z</time>
      </trkpt>
      <trkpt lat="48.73324" lon="-3.45956">
        <ele>10.2</ele>
        <time>2019-07-11T12:29:48Z</time>
      </trkpt>
      <trkpt lat="48.73321" lon="-3.45957">
        <ele>10.6</ele>
        <time>2019-07-11T12:29:49Z</time>
      </trkpt>
      <trkpt lat="48.73319" lon="-3.45958">
        <ele>10.9</ele>
        <time>2019-07-11T12:29:50Z</time>
      </trkpt>
      <trkpt lat="48.73317" lon="-3.45959">
        <ele>10.9</ele>
        <time>2019-07-11T12:29:51Z</time>
      </trkpt>
      <trkpt lat="48.73315" lon="-3.45961">
        <ele>10.6</ele>
        <time>2019-07-11T12:29:52Z</time>
      </trkpt>
      <trkpt lat="48.73314" lon="-3.45962">
        <ele>10.2</ele>
        <time>2019-07-11T12:29:53Z</time>
      </trkpt>
      <trkpt lat="48.73313" lon="-3.45965">
        <ele>9.4</ele>
        <time>2019-07-11T12:29:54Z</time>
      </trkpt>
      <trkpt lat="48.73311" lon="-3.45968">
        <ele>9.1</ele>
        <time>2019-07-11T12:29:55Z</time>
      </trkpt>
      <trkpt lat="48.73309" lon="-3.45971">
        <ele>8.8</ele>
        <time>2019-07-11T12:29:56Z</time>
      </trkpt>
      <trkpt lat="48.73307" lon="-3.45973">
        <ele>8.5</ele>
        <time>2019-07-11T12:29:57Z</time>
      </trkpt>
      <trkpt lat="48.73305" lon="-3.45976">
        <ele>8.4</ele>
        <time>2019-07-11T12:29:58Z</time>
      </trkpt>
      <trkpt lat="48.73303" lon="-3.45977">
        <ele>8.3</ele>
        <time>2019-07-11T12:29:59Z</time>
      </trkpt>
      <trkpt lat="48.73302" lon="-3.45978">
        <ele>8.1</ele>
        <time>2019-07-11T12:30:00Z</time>
      </trkpt>
      <trkpt lat="48.733" lon="-3.45979">
        <ele>8.2</ele>
        <time>2019-07-11T12:30:01Z</time>
      </trkpt>
      <trkpt lat="48.73298" lon="-3.45986">
        <ele>9.6</ele>
        <time>2019-07-11T12:30:22Z</time>
      </trkpt>
      <trkpt lat="48.73296" lon="-3.45984">
        <ele>11.6</ele>
        <time>2019-07-11T12:30:32Z</time>
      </trkpt>
      <trkpt lat="48.73295" lon="-3.45981">
        <ele>12.4</ele>
        <time>2019-07-11T12:30:33Z</time>
      </trkpt>
      <trkpt lat="48.73294" lon="-3.4598">
        <ele>13.2</ele>
        <time>2019-07-11T12:30:34Z</time>
      </trkpt>
      <trkpt lat="48.73293" lon="-3.45979">
        <ele>14.3</ele>
        <time>2019-07-11T12:30:35Z</time>
      </trkpt>
      <trkpt lat="48.73291" lon="-3.45978">
        <ele>15.5</ele>
        <time>2019-07-11T12:30:36Z</time>
      </trkpt>
      <trkpt lat="48.7329" lon="-3.45976">
        <ele>16.9</ele>
        <time>2019-07-11T12:30:37Z</time>
      </trkpt>
      <trkpt lat="48.73287" lon="-3.45975">
        <ele>18</ele>
        <time>2019-07-11T12:30:38Z</time>
      </trkpt>
      <trkpt lat="48.73285" lon="-3.45975">
        <ele>19.4</ele>
        <time>2019-07-11T12:30:39Z</time>
      </trkpt>
      <trkpt lat="48.73283" lon="-3.45975">
        <ele>20.5</ele>
        <time>2019-07-11T12:30:40Z</time>
      </trkpt>
      <trkpt lat="48.7328" lon="-3.45975">
        <ele>21.3</ele>
        <time>2019-07-11T12:30:41Z</time>
      </trkpt>
      <trkpt lat="48.73277" lon="-3.45976">
        <ele>22.5</ele>
        <time>2019-07-11T12:30:42Z</time>
      </trkpt>
      <trkpt lat="48.73275" lon="-3.45977">
        <ele>22.8</ele>
        <time>2019-07-11T12:30:43Z</time>
      </trkpt>
      <trkpt lat="48.73269" lon="-3.45978">
        <ele>24.2</ele>
        <time>2019-07-11T12:30:46Z</time>
      </trkpt>
      <trkpt lat="48.73265" lon="-3.45977">
        <ele>25.7</ele>
        <time>2019-07-11T12:30:47Z</time>
      </trkpt>
      <trkpt lat="48.73262" lon="-3.45975">
        <ele>26.9</ele>
        <time>2019-07-11T12:30:48Z</time>
      </trkpt>
      <trkpt lat="48.73259" lon="-3.45974">
        <ele>28.3</ele>
        <time>2019-07-11T12:30:49Z</time>
      </trkpt>
      <trkpt lat="48.73256" lon="-3.45973">
        <ele>29.3</ele>
        <time>2019-07-11T12:30:50Z</time>
      </trkpt>
      <trkpt lat="48.73253" lon="-3.45972">
        <ele>30.2</ele>
        <time>2019-07-11T12:30:51Z</time>
      </trkpt>
      <trkpt lat="48.73251" lon="-3.45971">
        <ele>30.4</ele>
        <time>2019-07-11T12:30:52Z</time>
      </trkpt>
      <trkpt lat="48.73249" lon="-3.45971">
        <ele>30.6</ele>
        <time>2019-07-11T12:30:53Z</time>
      </trkpt>
      <trkpt lat="48.73249" lon="-3.4597">
        <ele>30.7</ele>
        <time>2019-07-11T12:30:54Z</time>
      </trkpt>
      <trkpt lat="48.73249" lon="-3.45969">
        <ele>31</ele>
        <time>2019-07-11T12:30:55Z</time>
      </trkpt>
      <trkpt lat="48.73249" lon="-3.45965">
        <ele>31.3</ele>
        <time>2019-07-11T12:30:56Z</time>
      </trkpt>
      <trkpt lat="48.73248" lon="-3.4596">
        <ele>31.5</ele>
        <time>2019-07-11T12:30:57Z</time>
      </trkpt>
      <trkpt lat="48.73248" lon="-3.45956">
        <ele>31.4</ele>
        <time>2019-07-11T12:30:58Z</time>
      </trkpt>
      <trkpt lat="48.73244" lon="-3.45953">
        <ele>31.4</ele>
        <time>2019-07-11T12:30:59Z</time>
      </trkpt>
      <trkpt lat="48.73241" lon="-3.45951">
        <ele>31.7</ele>
        <time>2019-07-11T12:31:00Z</time>
      </trkpt>
      <trkpt lat="48.7324" lon="-3.45948">
        <ele>31.6</ele>
        <time>2019-07-11T12:31:01Z</time>
      </trkpt>
      <trkpt lat="48.7324" lon="-3.45945">
        <ele>31.6</ele>
        <time>2019-07-11T12:31:02Z</time>
      </trkpt>
      <trkpt lat="48.7324" lon="-3.45943">
        <ele>31.6</ele>
        <time>2019-07-11T12:31:03Z</time>
      </trkpt>
      <trkpt lat="48.73239" lon="-3.4594">
        <ele>31.9</ele>
        <time>2019-07-11T12:31:04Z</time>
      </trkpt>
      <trkpt lat="48.73237" lon="-3.45938">
        <ele>32.3</ele>
        <time>2019-07-11T12:31:05Z</time>
      </trkpt>
      <trkpt lat="48.73237" lon="-3.45935">
        <ele>32.8</ele>
        <time>2019-07-11T12:31:06Z</time>
      </trkpt>
      <trkpt lat="48.73235" lon="-3.45933">
        <ele>33.1</ele>
        <time>2019-07-11T12:31:07Z</time>
      </trkpt>
      <trkpt lat="48.73235" lon="-3.4593">
        <ele>33.5</ele>
        <time>2019-07-11T12:31:08Z</time>
      </trkpt>
      <trkpt lat="48.73235" lon="-3.45928">
        <ele>33.6</ele>
        <time>2019-07-11T12:31:09Z</time>
      </trkpt>
      <trkpt lat="48.73234" lon="-3.45925">
        <ele>33.7</ele>
        <time>2019-07-11T12:31:10Z</time>
      </trkpt>
      <trkpt lat="48.73235" lon="-3.45922">
        <ele>34.1</ele>
        <time>2019-07-11T12:31:11Z</time>
      </trkpt>
      <trkpt lat="48.73234" lon="-3.45919">
        <ele>34.2</ele>
        <time>2019-07-11T12:31:12Z</time>
      </trkpt>
      <trkpt lat="48.73233" lon="-3.45915">
        <ele>34.5</ele>
        <time>2019-07-11T12:31:13Z</time>
      </trkpt>
      <trkpt lat="48.73232" lon="-3.45912">
        <ele>34.7</ele>
        <time>2019-07-11T12:31:14Z</time>
      </trkpt>
      <trkpt lat="48.73231" lon="-3.45908">
        <ele>34.7</ele>
        <time>2019-07-11T12:31:15Z</time>
      </trkpt>
      <trkpt lat="48.73229" lon="-3.45905">
        <ele>34.7</ele>
        <time>2019-07-11T12:31:16Z</time>
      </trkpt>
      <trkpt lat="48.73227" lon="-3.45902">
        <ele>34.8</ele>
        <time>2019-07-11T12:31:17Z</time>
      </trkpt>
      <trkpt lat="48.73224" lon="-3.45898">
        <ele>35.4</ele>
        <time>2019-07-11T12:31:18Z</time>
      </trkpt>
      <trkpt lat="48.73222" lon="-3.45895">
        <ele>35.9</ele>
        <time>2019-07-11T12:31:19Z</time>
      </trkpt>
      <trkpt lat="48.73221" lon="-3.45893">
        <ele>36.2</ele>
        <time>2019-07-11T12:31:20Z</time>
      </trkpt>
      <trkpt lat="48.73219" lon="-3.4589">
        <ele>36.7</ele>
        <time>2019-07-11T12:31:21Z</time>
      </trkpt>
      <trkpt lat="48.73217" lon="-3.45887">
        <ele>36.9</ele>
        <time>2019-07-11T12:31:22Z</time>
      </trkpt>
      <trkpt lat="48.73214" lon="-3.45886">
        <ele>36.9</ele>
        <time>2019-07-11T12:31:23Z</time>
      </trkpt>
      <trkpt lat="48.73213" lon="-3.45884">
        <ele>37.2</ele>
        <time>2019-07-11T12:31:24Z</time>
      </trkpt>
      <trkpt lat="48.73211" lon="-3.45882">
        <ele>37.3</ele>
        <time>2019-07-11T12:31:25Z</time>
      </trkpt>
      <trkpt lat="48.7321" lon="-3.45878">
        <ele>37.2</ele>
        <time>2019-07-11T12:31:26Z</time>
      </trkpt>
      <trkpt lat="48.73208" lon="-3.45876">
        <ele>37.2</ele>
        <time>2019-07-11T12:31:27Z</time>
      </trkpt>
      <trkpt lat="48.73206" lon="-3.45873">
        <ele>37.5</ele>
        <time>2019-07-11T12:31:28Z</time>
      </trkpt>
      <trkpt lat="48.73205" lon="-3.4587">
        <ele>37.8</ele>
        <time>2019-07-11T12:31:29Z</time>
      </trkpt>
      <trkpt lat="48.73204" lon="-3.45866">
        <ele>38</ele>
        <time>2019-07-11T12:31:30Z</time>
      </trkpt>
      <trkpt lat="48.73203" lon="-3.45862">
        <ele>38</ele>
        <time>2019-07-11T12:31:31Z</time>
      </trkpt>
      <trkpt lat="48.73201" lon="-3.45859">
        <ele>37.9</ele>
        <time>2019-07-11T12:31:32Z</time>
      </trkpt>
      <trkpt lat="48.732" lon="-3.45856">
        <ele>37.4</ele>
        <time>2019-07-11T12:31:33Z</time>
      </trkpt>
      <trkpt lat="48.73198" lon="-3.45853">
        <ele>37.5</ele>
        <time>2019-07-11T12:31:34Z</time>
      </trkpt>
      <trkpt lat="48.73197" lon="-3.4585">
        <ele>37</ele>
        <time>2019-07-11T12:31:35Z</time>
      </trkpt>
      <trkpt lat="48.73197" lon="-3.45847">
        <ele>37.7</ele>
        <time>2019-07-11T12:31:36Z</time>
      </trkpt>
      <trkpt lat="48.73196" lon="-3.45844">
        <ele>37.5</ele>
        <time>2019-07-11T12:31:37Z</time>
      </trkpt>
      <trkpt lat="48.73199" lon="-3.45827">
        <ele>31.6</ele>
        <time>2019-07-11T12:51:32Z</time>
      </trkpt>
      <trkpt lat="48.73198" lon="-3.45826">
        <ele>31.6</ele>
        <time>2019-07-11T12:51:33Z</time>
      </trkpt>
      <trkpt lat="48.73197" lon="-3.45825">
        <ele>31.3</ele>
        <time>2019-07-11T12:51:34Z</time>
      </trkpt>
      <trkpt lat="48.73196" lon="-3.45824">
        <ele>31.1</ele>
        <time>2019-07-11T12:51:35Z</time>
      </trkpt>
      <trkpt lat="48.73192" lon="-3.45821">
        <ele>31.1</ele>
        <time>2019-07-11T12:51:40Z</time>
      </trkpt>
      <trkpt lat="48.7319" lon="-3.4582">
        <ele>31.2</ele>
        <time>2019-07-11T12:51:41Z</time>
      </trkpt>
      <trkpt lat="48.73189" lon="-3.45819">
        <ele>31.2</ele>
        <time>2019-07-11T12:51:42Z</time>
      </trkpt>
      <trkpt lat="48.73188" lon="-3.45818">
        <ele>31.1</ele>
        <time>2019-07-11T12:51:43Z</time>
      </trkpt>
      <trkpt lat="48.73186" lon="-3.45816">
        <ele>31.1</ele>
        <time>2019-07-11T12:51:44Z</time>
      </trkpt>
      <trkpt lat="48.73185" lon="-3.45815">
        <ele>31</ele>
        <time>2019-07-11T12:51:45Z</time>
      </trkpt>
      <trkpt lat="48.73184" lon="-3.45814">
        <ele>31</ele>
        <time>2019-07-11T12:51:46Z</time>
      </trkpt>
      <trkpt lat="48.73183" lon="-3.45813">
        <ele>31</ele>
        <time>2019-07-11T12:51:47Z</time>
      </trkpt>
      <trkpt lat="48.73182" lon="-3.45812">
        <ele>30.9</ele>
        <time>2019-07-11T12:51:48Z</time>
      </trkpt>
      <trkpt lat="48.73182" lon="-3.4581">
        <ele>30.9</ele>
        <time>2019-07-11T12:51:49Z</time>
      </trkpt>
      <trkpt lat="48.73182" lon="-3.45807">
        <ele>30.9</ele>
        <time>2019-07-11T12:51:50Z</time>
      </trkpt>
      <trkpt lat="48.73182" lon="-3.45804">
        <ele>30.9</ele>
        <time>2019-07-11T12:51:51Z</time>
      </trkpt>
      <trkpt lat="48.73181" lon="-3.45801">
        <ele>30.9</ele>
        <time>2019-07-11T12:51:52Z</time>
      </trkpt>
      <trkpt lat="48.7318" lon="-3.45799">
        <ele>31</ele>
        <time>2019-07-11T12:51:53Z</time>
      </trkpt>
      <trkpt lat="48.73179" lon="-3.45795">
        <ele>31.1</ele>
        <time>2019-07-11T12:51:54Z</time>
      </trkpt>
      <trkpt lat="48.73179" lon="-3.45792">
        <ele>31</ele>
        <time>2019-07-11T12:51:55Z</time>
      </trkpt>
      <trkpt lat="48.73178" lon="-3.45788">
        <ele>30.5</ele>
        <time>2019-07-11T12:51:56Z</time>
      </trkpt>
      <trkpt lat="48.73177" lon="-3.45785">
        <ele>30.2</ele>
        <time>2019-07-11T12:51:57Z</time>
      </trkpt>
      <trkpt lat="48.73176" lon="-3.45783">
        <ele>30</ele>
        <time>2019-07-11T12:51:58Z</time>
      </trkpt>
      <trkpt lat="48.73175" lon="-3.45781">
        <ele>30</ele>
        <time>2019-07-11T12:51:59Z</time>
      </trkpt>
      <trkpt lat="48.73175" lon="-3.45779">
        <ele>30.1</ele>
        <time>2019-07-11T12:52:00Z</time>
      </trkpt>
      <trkpt lat="48.73174" lon="-3.45777">
        <ele>29.7</ele>
        <time>2019-07-11T12:52:01Z</time>
      </trkpt>
      <trkpt lat="48.73174" lon="-3.45775">
        <ele>29.5</ele>
        <time>2019-07-11T12:52:02Z</time>
      </trkpt>
      <trkpt lat="48.73173" lon="-3.45773">
        <ele>29.1</ele>
        <time>2019-07-11T12:52:03Z</time>
      </trkpt>
      <trkpt lat="48.73172" lon="-3.4577">
        <ele>28.8</ele>
        <time>2019-07-11T12:52:04Z</time>
      </trkpt>
      <trkpt lat="48.73172" lon="-3.45767">
        <ele>28.6</ele>
        <time>2019-07-11T12:52:05Z</time>
      </trkpt>
      <trkpt lat="48.73171" lon="-3.45763">
        <ele>28.3</ele>
        <time>2019-07-11T12:52:06Z</time>
      </trkpt>
      <trkpt lat="48.73171" lon="-3.45761">
        <ele>28.5</ele>
        <time>2019-07-11T12:52:07Z</time>
      </trkpt>
      <trkpt lat="48.73166" lon="-3.45758">
        <ele>28.1</ele>
        <time>2019-07-11T12:52:08Z</time>
      </trkpt>
      <trkpt lat="48.73165" lon="-3.45755">
        <ele>28.2</ele>
        <time>2019-07-11T12:52:09Z</time>
      </trkpt>
      <trkpt lat="48.73163" lon="-3.45753">
        <ele>28.1</ele>
        <time>2019-07-11T12:52:10Z</time>
      </trkpt>
      <trkpt lat="48.7316" lon="-3.45752">
        <ele>27.9</ele>
        <time>2019-07-11T12:52:11Z</time>
      </trkpt>
      <trkpt lat="48.73158" lon="-3.4575">
        <ele>27.9</ele>
        <time>2019-07-11T12:52:12Z</time>
      </trkpt>
      <trkpt lat="48.73157" lon="-3.4575">
        <ele>28.2</ele>
        <time>2019-07-11T12:52:13Z</time>
      </trkpt>
      <trkpt lat="48.73155" lon="-3.45749">
        <ele>28.4</ele>
        <time>2019-07-11T12:52:14Z</time>
      </trkpt>
      <trkpt lat="48.73155" lon="-3.45748">
        <ele>28.5</ele>
        <time>2019-07-11T12:52:15Z</time>
      </trkpt>
      <trkpt lat="48.73151" lon="-3.45751">
        <ele>29.5</ele>
        <time>2019-07-11T12:52:20Z</time>
      </trkpt>
      <trkpt lat="48.73149" lon="-3.45752">
        <ele>29.5</ele>
        <time>2019-07-11T12:52:21Z</time>
      </trkpt>
      <trkpt lat="48.73147" lon="-3.45755">
        <ele>29.8</ele>
        <time>2019-07-11T12:52:22Z</time>
      </trkpt>
      <trkpt lat="48.73145" lon="-3.45758">
        <ele>29.9</ele>
        <time>2019-07-11T12:52:23Z</time>
      </trkpt>
      <trkpt lat="48.73144" lon="-3.45761">
        <ele>30.1</ele>
        <time>2019-07-11T12:52:24Z</time>
      </trkpt>
      <trkpt lat="48.73142" lon="-3.45764">
        <ele>30.4</ele>
        <time>2019-07-11T12:52:25Z</time>
      </trkpt>
      <trkpt lat="48.73141" lon="-3.45766">
        <ele>30.9</ele>
        <time>2019-07-11T12:52:26Z</time>
      </trkpt>
      <trkpt lat="48.73139" lon="-3.45768">
        <ele>31.3</ele>
        <time>2019-07-11T12:52:27Z</time>
      </trkpt>
      <trkpt lat="48.73137" lon="-3.4577">
        <ele>31.6</ele>
        <time>2019-07-11T12:52:28Z</time>
      </trkpt>
      <trkpt lat="48.73135" lon="-3.45772">
        <ele>32.2</ele>
        <time>2019-07-11T12:52:29Z</time>
      </trkpt>
      <trkpt lat="48.73132" lon="-3.45773">
        <ele>32.4</ele>
        <time>2019-07-11T12:52:30Z</time>
      </trkpt>
      <trkpt lat="48.73129" lon="-3.45777">
        <ele>32.2</ele>
        <time>2019-07-11T12:52:31Z</time>
      </trkpt>
      <trkpt lat="48.73126" lon="-3.45781">
        <ele>31.6</ele>
        <time>2019-07-11T12:52:32Z</time>
      </trkpt>
      <trkpt lat="48.73124" lon="-3.45786">
        <ele>31.3</ele>
        <time>2019-07-11T12:52:33Z</time>
      </trkpt>
      <trkpt lat="48.73121" lon="-3.4579">
        <ele>31.3</ele>
        <time>2019-07-11T12:52:34Z</time>
      </trkpt>
      <trkpt lat="48.73119" lon="-3.45793">
        <ele>31.3</ele>
        <time>2019-07-11T12:52:35Z</time>
      </trkpt>
      <trkpt lat="48.73117" lon="-3.45794">
        <ele>31.1</ele>
        <time>2019-07-11T12:52:36Z</time>
      </trkpt>
      <trkpt lat="48.73116" lon="-3.45797">
        <ele>30.4</ele>
        <time>2019-07-11T12:52:37Z</time>
      </trkpt>
      <trkpt lat="48.73114" lon="-3.458">
        <ele>29.9</ele>
        <time>2019-07-11T12:52:38Z</time>
      </trkpt>
      <trkpt lat="48.73111" lon="-3.45809">
        <ele>27</ele>
        <time>2019-07-11T12:52:43Z</time>
      </trkpt>
      <trkpt lat="48.73109" lon="-3.4581">
        <ele>27</ele>
        <time>2019-07-11T12:52:44Z</time>
      </trkpt>
      <trkpt lat="48.73106" lon="-3.45809">
        <ele>26.9</ele>
        <time>2019-07-11T12:52:45Z</time>
      </trkpt>
      <trkpt lat="48.73102" lon="-3.45808">
        <ele>26.8</ele>
        <time>2019-07-11T12:52:46Z</time>
      </trkpt>
      <trkpt lat="48.73098" lon="-3.45806">
        <ele>26.6</ele>
        <time>2019-07-11T12:52:47Z</time>
      </trkpt>
      <trkpt lat="48.73095" lon="-3.45805">
        <ele>25.7</ele>
        <time>2019-07-11T12:52:48Z</time>
      </trkpt>
      <trkpt lat="48.7309" lon="-3.45803">
        <ele>25.4</ele>
        <time>2019-07-11T12:52:49Z</time>
      </trkpt>
      <trkpt lat="48.73086" lon="-3.45801">
        <ele>25</ele>
        <time>2019-07-11T12:52:50Z</time>
      </trkpt>
      <trkpt lat="48.73081" lon="-3.45801">
        <ele>24.7</ele>
        <time>2019-07-11T12:52:51Z</time>
      </trkpt>
      <trkpt lat="48.73077" lon="-3.45801">
        <ele>24.4</ele>
        <time>2019-07-11T12:52:52Z</time>
      </trkpt>
      <trkpt lat="48.73073" lon="-3.45798">
        <ele>24.2</ele>
        <time>2019-07-11T12:52:53Z</time>
      </trkpt>
      <trkpt lat="48.7307" lon="-3.45796">
        <ele>23.7</ele>
        <time>2019-07-11T12:52:54Z</time>
      </trkpt>
      <trkpt lat="48.73068" lon="-3.45794">
        <ele>23.6</ele>
        <time>2019-07-11T12:52:55Z</time>
      </trkpt>
      <trkpt lat="48.73066" lon="-3.45794">
        <ele>23.8</ele>
        <time>2019-07-11T12:52:56Z</time>
      </trkpt>
      <trkpt lat="48.73064" lon="-3.45794">
        <ele>24</ele>
        <time>2019-07-11T12:52:57Z</time>
      </trkpt>
      <trkpt lat="48.73063" lon="-3.45794">
        <ele>23.8</ele>
        <time>2019-07-11T12:52:58Z</time>
      </trkpt>
      <trkpt lat="48.73061" lon="-3.45794">
        <ele>23.5</ele>
        <time>2019-07-11T12:52:59Z</time>
      </trkpt>
      <trkpt lat="48.7306" lon="-3.45792">
        <ele>23.3</ele>
        <time>2019-07-11T12:53:00Z</time>
      </trkpt>
      <trkpt lat="48.73058" lon="-3.45791">
        <ele>23.2</ele>
        <time>2019-07-11T12:53:01Z</time>
      </trkpt>
      <trkpt lat="48.73056" lon="-3.45791">
        <ele>23.2</ele>
        <time>2019-07-11T12:53:02Z</time>
      </trkpt>
      <trkpt lat="48.73053" lon="-3.4579">
        <ele>22.9</ele>
        <time>2019-07-11T12:53:03Z</time>
      </trkpt>
      <trkpt lat="48.73052" lon="-3.45789">
        <ele>22.6</ele>
        <time>2019-07-11T12:53:04Z</time>
      </trkpt>
      <trkpt lat="48.73049" lon="-3.45788">
        <ele>22.9</ele>
        <time>2019-07-11T12:53:05Z</time>
      </trkpt>
      <trkpt lat="48.73047" lon="-3.45788">
        <ele>23.1</ele>
        <time>2019-07-11T12:53:06Z</time>
      </trkpt>
      <trkpt lat="48.73044" lon="-3.45788">
        <ele>22.7</ele>
        <time>2019-07-11T12:53:07Z</time>
      </trkpt>
      <trkpt lat="48.73042" lon="-3.45787">
        <ele>22.6</ele>
        <time>2019-07-11T12:53:08Z</time>
      </trkpt>
      <trkpt lat="48.7304" lon="-3.45787">
        <ele>22.6</ele>
        <time>2019-07-11T12:53:09Z</time>
      </trkpt>
      <trkpt lat="48.73038" lon="-3.45787">
        <ele>22.7</ele>
        <time>2019-07-11T12:53:10Z</time>
      </trkpt>
      <trkpt lat="48.73036" lon="-3.45786">
        <ele>22.7</ele>
        <time>2019-07-11T12:53:11Z</time>
      </trkpt>
      <trkpt lat="48.73034" lon="-3.45785">
        <ele>22.4</ele>
        <time>2019-07-11T12:53:12Z</time>
      </trkpt>
      <trkpt lat="48.73031" lon="-3.45785">
        <ele>22.1</ele>
        <time>2019-07-11T12:53:13Z</time>
      </trkpt>
      <trkpt lat="48.73029" lon="-3.45785">
        <ele>22</ele>
        <time>2019-07-11T12:53:14Z</time>
      </trkpt>
      <trkpt lat="48.73026" lon="-3.45785">
        <ele>21.5</ele>
        <time>2019-07-11T12:53:15Z</time>
      </trkpt>
      <trkpt lat="48.73023" lon="-3.45782">
        <ele>21</ele>
        <time>2019-07-11T12:53:16Z</time>
      </trkpt>
      <trkpt lat="48.7302" lon="-3.45781">
        <ele>20.8</ele>
        <time>2019-07-11T12:53:17Z</time>
      </trkpt>
      <trkpt lat="48.73019" lon="-3.4578">
        <ele>21</ele>
        <time>2019-07-11T12:53:18Z</time>
      </trkpt>
      <trkpt lat="48.73017" lon="-3.45779">
        <ele>21.2</ele>
        <time>2019-07-11T12:53:19Z</time>
      </trkpt>
      <trkpt lat="48.73015" lon="-3.4578">
        <ele>21.6</ele>
        <time>2019-07-11T12:53:20Z</time>
      </trkpt>
      <trkpt lat="48.73013" lon="-3.4578">
        <ele>22.2</ele>
        <time>2019-07-11T12:53:21Z</time>
      </trkpt>
      <trkpt lat="48.73011" lon="-3.45781">
        <ele>22.7</ele>
        <time>2019-07-11T12:53:22Z</time>
      </trkpt>
      <trkpt lat="48.73008" lon="-3.45781">
        <ele>23</ele>
        <time>2019-07-11T12:53:23Z</time>
      </trkpt>
      <trkpt lat="48.73006" lon="-3.4578">
        <ele>23.3</ele>
        <time>2019-07-11T12:53:24Z</time>
      </trkpt>
      <trkpt lat="48.73004" lon="-3.4578">
        <ele>23.7</ele>
        <time>2019-07-11T12:53:25Z</time>
      </trkpt>
      <trkpt lat="48.73002" lon="-3.45779">
        <ele>23.7</ele>
        <time>2019-07-11T12:53:26Z</time>
      </trkpt>
      <trkpt lat="48.72999" lon="-3.45779">
        <ele>24</ele>
        <time>2019-07-11T12:53:27Z</time>
      </trkpt>
      <trkpt lat="48.72997" lon="-3.45778">
        <ele>24.1</ele>
        <time>2019-07-11T12:53:28Z</time>
      </trkpt>
      <trkpt lat="48.72995" lon="-3.45777">
        <ele>24.5</ele>
        <time>2019-07-11T12:53:29Z</time>
      </trkpt>
      <trkpt lat="48.72993" lon="-3.45775">
        <ele>24.7</ele>
        <time>2019-07-11T12:53:30Z</time>
      </trkpt>
      <trkpt lat="48.72991" lon="-3.45774">
        <ele>24.9</ele>
        <time>2019-07-11T12:53:31Z</time>
      </trkpt>
      <trkpt lat="48.7299" lon="-3.45771">
        <ele>25.5</ele>
        <time>2019-07-11T12:53:32Z</time>
      </trkpt>
      <trkpt lat="48.72987" lon="-3.4577">
        <ele>25.8</ele>
        <time>2019-07-11T12:53:33Z</time>
      </trkpt>
      <trkpt lat="48.72985" lon="-3.45768">
        <ele>26.1</ele>
        <time>2019-07-11T12:53:34Z</time>
      </trkpt>
      <trkpt lat="48.72982" lon="-3.45768">
        <ele>26.6</ele>
        <time>2019-07-11T12:53:35Z</time>
      </trkpt>
      <trkpt lat="48.72981" lon="-3.45766">
        <ele>27.1</ele>
        <time>2019-07-11T12:53:36Z</time>
      </trkpt>
      <trkpt lat="48.72979" lon="-3.45765">
        <ele>27.7</ele>
        <time>2019-07-11T12:53:37Z</time>
      </trkpt>
      <trkpt lat="48.72977" lon="-3.45764">
        <ele>27.9</ele>
        <time>2019-07-11T12:53:38Z</time>
      </trkpt>
      <trkpt lat="48.72976" lon="-3.45762">
        <ele>27.9</ele>
        <time>2019-07-11T12:53:39Z</time>
      </trkpt>
      <trkpt lat="48.72974" lon="-3.45761">
        <ele>28.2</ele>
        <time>2019-07-11T12:53:40Z</time>
      </trkpt>
      <trkpt lat="48.72972" lon="-3.4576">
        <ele>28.5</ele>
        <time>2019-07-11T12:53:41Z</time>
      </trkpt>
      <trkpt lat="48.7297" lon="-3.4576">
        <ele>29.3</ele>
        <time>2019-07-11T12:53:42Z</time>
      </trkpt>
      <trkpt lat="48.72968" lon="-3.45759">
        <ele>29.6</ele>
        <time>2019-07-11T12:53:43Z</time>
      </trkpt>
      <trkpt lat="48.72966" lon="-3.45758">
        <ele>30.1</ele>
        <time>2019-07-11T12:53:44Z</time>
      </trkpt>
      <trkpt lat="48.72963" lon="-3.45757">
        <ele>30.3</ele>
        <time>2019-07-11T12:53:45Z</time>
      </trkpt>
      <trkpt lat="48.7296" lon="-3.45757">
        <ele>30.8</ele>
        <time>2019-07-11T12:53:46Z</time>
      </trkpt>
      <trkpt lat="48.72957" lon="-3.45756">
        <ele>31.3</ele>
        <time>2019-07-11T12:53:47Z</time>
      </trkpt>
      <trkpt lat="48.72954" lon="-3.45756">
        <ele>32</ele>
        <time>2019-07-11T12:53:48Z</time>
      </trkpt>
      <trkpt lat="48.72952" lon="-3.45754">
        <ele>32.2</ele>
        <time>2019-07-11T12:53:49Z</time>
      </trkpt>
      <trkpt lat="48.7295" lon="-3.45751">
        <ele>32.2</ele>
        <time>2019-07-11T12:53:50Z</time>
      </trkpt>
      <trkpt lat="48.72948" lon="-3.45748">
        <ele>32.2</ele>
        <time>2019-07-11T12:53:51Z</time>
      </trkpt>
      <trkpt lat="48.72946" lon="-3.45744">
        <ele>32.3</ele>
        <time>2019-07-11T12:53:52Z</time>
      </trkpt>
      <trkpt lat="48.72944" lon="-3.4574">
        <ele>32.7</ele>
        <time>2019-07-11T12:53:53Z</time>
      </trkpt>
      <trkpt lat="48.72943" lon="-3.45737">
        <ele>33.3</ele>
        <time>2019-07-11T12:53:54Z</time>
      </trkpt>
      <trkpt lat="48.7294" lon="-3.45734">
        <ele>33</ele>
        <time>2019-07-11T12:53:55Z</time>
      </trkpt>
      <trkpt lat="48.72936" lon="-3.4573">
        <ele>32.6</ele>
        <time>2019-07-11T12:53:56Z</time>
      </trkpt>
      <trkpt lat="48.72933" lon="-3.45727">
        <ele>32.3</ele>
        <time>2019-07-11T12:53:57Z</time>
      </trkpt>
      <trkpt lat="48.7293" lon="-3.45723">
        <ele>32.1</ele>
        <time>2019-07-11T12:53:58Z</time>
      </trkpt>
      <trkpt lat="48.72928" lon="-3.4572">
        <ele>31.6</ele>
        <time>2019-07-11T12:53:59Z</time>
      </trkpt>
      <trkpt lat="48.72925" lon="-3.45715">
        <ele>31.1</ele>
        <time>2019-07-11T12:54:00Z</time>
      </trkpt>
      <trkpt lat="48.72922" lon="-3.45711">
        <ele>31.3</ele>
        <time>2019-07-11T12:54:01Z</time>
      </trkpt>
      <trkpt lat="48.72919" lon="-3.45707">
        <ele>31.2</ele>
        <time>2019-07-11T12:54:02Z</time>
      </trkpt>
      <trkpt lat="48.72915" lon="-3.45703">
        <ele>31.3</ele>
        <time>2019-07-11T12:54:03Z</time>
      </trkpt>
      <trkpt lat="48.72912" lon="-3.45699">
        <ele>30.6</ele>
        <time>2019-07-11T12:54:04Z</time>
      </trkpt>
      <trkpt lat="48.72908" lon="-3.45695">
        <ele>29.8</ele>
        <time>2019-07-11T12:54:05Z</time>
      </trkpt>
      <trkpt lat="48.72904" lon="-3.45691">
        <ele>29.8</ele>
        <time>2019-07-11T12:54:06Z</time>
      </trkpt>
      <trkpt lat="48.729" lon="-3.45689">
        <ele>29.2</ele>
        <time>2019-07-11T12:54:07Z</time>
      </trkpt>
      <trkpt lat="48.72896" lon="-3.45687">
        <ele>28.5</ele>
        <time>2019-07-11T12:54:08Z</time>
      </trkpt>
      <trkpt lat="48.72891" lon="-3.45686">
        <ele>27.8</ele>
        <time>2019-07-11T12:54:09Z</time>
      </trkpt>
      <trkpt lat="48.72888" lon="-3.45684">
        <ele>26.8</ele>
        <time>2019-07-11T12:54:10Z</time>
      </trkpt>
      <trkpt lat="48.72886" lon="-3.45683">
        <ele>25.8</ele>
        <time>2019-07-11T12:54:11Z</time>
      </trkpt>
      <trkpt lat="48.72883" lon="-3.45682">
        <ele>24.7</ele>
        <time>2019-07-11T12:54:12Z</time>
      </trkpt>
      <trkpt lat="48.72882" lon="-3.4568">
        <ele>24</ele>
        <time>2019-07-11T12:54:13Z</time>
      </trkpt>
      <trkpt lat="48.72881" lon="-3.45679">
        <ele>23.1</ele>
        <time>2019-07-11T12:54:14Z</time>
      </trkpt>
      <trkpt lat="48.72879" lon="-3.45678">
        <ele>22.6</ele>
        <time>2019-07-11T12:54:15Z</time>
      </trkpt>
      <trkpt lat="48.72878" lon="-3.45677">
        <ele>22.6</ele>
        <time>2019-07-11T12:54:16Z</time>
      </trkpt>
      <trkpt lat="48.72876" lon="-3.45676">
        <ele>21.8</ele>
        <time>2019-07-11T12:54:17Z</time>
      </trkpt>
      <trkpt lat="48.72875" lon="-3.45675">
        <ele>21.4</ele>
        <time>2019-07-11T12:54:18Z</time>
      </trkpt>
      <trkpt lat="48.72873" lon="-3.45674">
        <ele>20.3</ele>
        <time>2019-07-11T12:54:19Z</time>
      </trkpt>
      <trkpt lat="48.7287" lon="-3.45671">
        <ele>18.4</ele>
        <time>2019-07-11T12:54:22Z</time>
      </trkpt>
      <trkpt lat="48.72868" lon="-3.45671">
        <ele>18.2</ele>
        <time>2019-07-11T12:54:23Z</time>
      </trkpt>
      <trkpt lat="48.72866" lon="-3.45671">
        <ele>18</ele>
        <time>2019-07-11T12:54:24Z</time>
      </trkpt>
      <trkpt lat="48.72865" lon="-3.45671">
        <ele>17.6</ele>
        <time>2019-07-11T12:54:25Z</time>
      </trkpt>
      <trkpt lat="48.72863" lon="-3.45672">
        <ele>17.5</ele>
        <time>2019-07-11T12:54:26Z</time>
      </trkpt>
      <trkpt lat="48.7286" lon="-3.45673">
        <ele>17.3</ele>
        <time>2019-07-11T12:54:27Z</time>
      </trkpt>
      <trkpt lat="48.72858" lon="-3.45674">
        <ele>17.4</ele>
        <time>2019-07-11T12:54:28Z</time>
      </trkpt>
      <trkpt lat="48.72855" lon="-3.45675">
        <ele>17.9</ele>
        <time>2019-07-11T12:54:29Z</time>
      </trkpt>
      <trkpt lat="48.72853" lon="-3.45676">
        <ele>18.2</ele>
        <time>2019-07-11T12:54:30Z</time>
      </trkpt>
      <trkpt lat="48.7285" lon="-3.45677">
        <ele>18.2</ele>
        <time>2019-07-11T12:54:31Z</time>
      </trkpt>
      <trkpt lat="48.72849" lon="-3.45678">
        <ele>18.4</ele>
        <time>2019-07-11T12:54:32Z</time>
      </trkpt>
      <trkpt lat="48.72846" lon="-3.45679">
        <ele>18.6</ele>
        <time>2019-07-11T12:54:33Z</time>
      </trkpt>
      <trkpt lat="48.72845" lon="-3.4568">
        <ele>18.4</ele>
        <time>2019-07-11T12:54:34Z</time>
      </trkpt>
      <trkpt lat="48.72844" lon="-3.4568">
        <ele>19.7</ele>
        <time>2019-07-11T12:54:35Z</time>
      </trkpt>
      <trkpt lat="48.7284" lon="-3.45683">
        <ele>19.7</ele>
        <time>2019-07-11T12:54:50Z</time>
      </trkpt>
      <trkpt lat="48.72838" lon="-3.45685">
        <ele>19.5</ele>
        <time>2019-07-11T12:54:51Z</time>
      </trkpt>
      <trkpt lat="48.72836" lon="-3.45687">
        <ele>19.4</ele>
        <time>2019-07-11T12:54:52Z</time>
      </trkpt>
      <trkpt lat="48.72834" lon="-3.4569">
        <ele>19</ele>
        <time>2019-07-11T12:54:53Z</time>
      </trkpt>
      <trkpt lat="48.72832" lon="-3.45693">
        <ele>19.1</ele>
        <time>2019-07-11T12:54:54Z</time>
      </trkpt>
      <trkpt lat="48.7283" lon="-3.45696">
        <ele>19.3</ele>
        <time>2019-07-11T12:54:55Z</time>
      </trkpt>
      <trkpt lat="48.72829" lon="-3.457">
        <ele>19.5</ele>
        <time>2019-07-11T12:54:56Z</time>
      </trkpt>
      <trkpt lat="48.72827" lon="-3.45703">
        <ele>19.6</ele>
        <time>2019-07-11T12:54:57Z</time>
      </trkpt>
      <trkpt lat="48.72825" lon="-3.45706">
        <ele>19.6</ele>
        <time>2019-07-11T12:54:58Z</time>
      </trkpt>
      <trkpt lat="48.72824" lon="-3.45709">
        <ele>19.7</ele>
        <time>2019-07-11T12:54:59Z</time>
      </trkpt>
      <trkpt lat="48.72823" lon="-3.45711">
        <ele>19.5</ele>
        <time>2019-07-11T12:55:00Z</time>
      </trkpt>
      <trkpt lat="48.72822" lon="-3.45714">
        <ele>19.6</ele>
        <time>2019-07-11T12:55:01Z</time>
      </trkpt>
      <trkpt lat="48.72822" lon="-3.45717">
        <ele>20</ele>
        <time>2019-07-11T12:55:02Z</time>
      </trkpt>
      <trkpt lat="48.72821" lon="-3.45721">
        <ele>20</ele>
        <time>2019-07-11T12:55:03Z</time>
      </trkpt>
      <trkpt lat="48.72821" lon="-3.45725">
        <ele>19.8</ele>
        <time>2019-07-11T12:55:04Z</time>
      </trkpt>
      <trkpt lat="48.7282" lon="-3.45729">
        <ele>19.6</ele>
        <time>2019-07-11T12:55:05Z</time>
      </trkpt>
      <trkpt lat="48.72818" lon="-3.45733">
        <ele>19.5</ele>
        <time>2019-07-11T12:55:06Z</time>
      </trkpt>
      <trkpt lat="48.72817" lon="-3.45736">
        <ele>19.6</ele>
        <time>2019-07-11T12:55:07Z</time>
      </trkpt>
      <trkpt lat="48.72816" lon="-3.45739">
        <ele>19.2</ele>
        <time>2019-07-11T12:55:08Z</time>
      </trkpt>
      <trkpt lat="48.72815" lon="-3.45742">
        <ele>19.1</ele>
        <time>2019-07-11T12:55:09Z</time>
      </trkpt>
      <trkpt lat="48.72814" lon="-3.45745">
        <ele>18.6</ele>
        <time>2019-07-11T12:55:10Z</time>
      </trkpt>
      <trkpt lat="48.72813" lon="-3.45748">
        <ele>18</ele>
        <time>2019-07-11T12:55:11Z</time>
      </trkpt>
      <trkpt lat="48.72812" lon="-3.45751">
        <ele>17.6</ele>
        <time>2019-07-11T12:55:12Z</time>
      </trkpt>
      <trkpt lat="48.72811" lon="-3.45754">
        <ele>16</ele>
        <time>2019-07-11T12:55:13Z</time>
      </trkpt>
      <trkpt lat="48.72811" lon="-3.45758">
        <ele>15.3</ele>
        <time>2019-07-11T12:55:14Z</time>
      </trkpt>
      <trkpt lat="48.7281" lon="-3.45762">
        <ele>15.4</ele>
        <time>2019-07-11T12:55:15Z</time>
      </trkpt>
      <trkpt lat="48.72809" lon="-3.45766">
        <ele>14</ele>
        <time>2019-07-11T12:55:16Z</time>
      </trkpt>
      <trkpt lat="48.72809" lon="-3.4577">
        <ele>12.3</ele>
        <time>2019-07-11T12:55:17Z</time>
      </trkpt>
      <trkpt lat="48.72807" lon="-3.45773">
        <ele>10.7</ele>
        <time>2019-07-11T12:55:18Z</time>
      </trkpt>
      <trkpt lat="48.72807" lon="-3.45778">
        <ele>8.8</ele>
        <time>2019-07-11T12:55:19Z</time>
      </trkpt>
      <trkpt lat="48.72806" lon="-3.45783">
        <ele>7.6</ele>
        <time>2019-07-11T12:55:20Z</time>
      </trkpt>
      <trkpt lat="48.72805" lon="-3.45787">
        <ele>6.8</ele>
        <time>2019-07-11T12:55:21Z</time>
      </trkpt>
      <trkpt lat="48.72804" lon="-3.45792">
        <ele>6.2</ele>
        <time>2019-07-11T12:55:22Z</time>
      </trkpt>
      <trkpt lat="48.72803" lon="-3.45797">
        <ele>5.4</ele>
        <time>2019-07-11T12:55:23Z</time>
      </trkpt>
      <trkpt lat="48.72802" lon="-3.45802">
        <ele>4.7</ele>
        <time>2019-07-11T12:55:24Z</time>
      </trkpt>
      <trkpt lat="48.728" lon="-3.45807">
        <ele>4.3</ele>
        <time>2019-07-11T12:55:25Z</time>
      </trkpt>
      <trkpt lat="48.72799" lon="-3.45812">
        <ele>4.2</ele>
        <time>2019-07-11T12:55:26Z</time>
      </trkpt>
      <trkpt lat="48.72797" lon="-3.45817">
        <ele>3.6</ele>
        <time>2019-07-11T12:55:27Z</time>
      </trkpt>
      <trkpt lat="48.72795" lon="-3.45822">
        <ele>3.2</ele>
        <time>2019-07-11T12:55:28Z</time>
      </trkpt>
      <trkpt lat="48.72793" lon="-3.45827">
        <ele>3.3</ele>
        <time>2019-07-11T12:55:29Z</time>
      </trkpt>
      <trkpt lat="48.72792" lon="-3.45832">
        <ele>3.8</ele>
        <time>2019-07-11T12:55:30Z</time>
      </trkpt>
      <trkpt lat="48.72792" lon="-3.45837">
        <ele>4</ele>
        <time>2019-07-11T12:55:31Z</time>
      </trkpt>
      <trkpt lat="48.72791" lon="-3.45842">
        <ele>4.2</ele>
        <time>2019-07-11T12:55:32Z</time>
      </trkpt>
      <trkpt lat="48.7279" lon="-3.45847">
        <ele>4.5</ele>
        <time>2019-07-11T12:55:33Z</time>
      </trkpt>
      <trkpt lat="48.72789" lon="-3.45851">
        <ele>5</ele>
        <time>2019-07-11T12:55:34Z</time>
      </trkpt>
      <trkpt lat="48.72786" lon="-3.45855">
        <ele>5.7</ele>
        <time>2019-07-11T12:55:35Z</time>
      </trkpt>
      <trkpt lat="48.72784" lon="-3.45858">
        <ele>6</ele>
        <time>2019-07-11T12:55:36Z</time>
      </trkpt>
      <trkpt lat="48.72782" lon="-3.4586">
        <ele>6.7</ele>
        <time>2019-07-11T12:55:37Z</time>
      </trkpt>
      <trkpt lat="48.7278" lon="-3.4586">
        <ele>7.2</ele>
        <time>2019-07-11T12:55:38Z</time>
      </trkpt>
      <trkpt lat="48.72778" lon="-3.4586">
        <ele>7.4</ele>
        <time>2019-07-11T12:55:39Z</time>
      </trkpt>
      <trkpt lat="48.72776" lon="-3.45859">
        <ele>7.7</ele>
        <time>2019-07-11T12:55:40Z</time>
      </trkpt>
      <trkpt lat="48.72772" lon="-3.45858">
        <ele>7.8</ele>
        <time>2019-07-11T12:55:41Z</time>
      </trkpt>
      <trkpt lat="48.72769" lon="-3.45857">
        <ele>8.2</ele>
        <time>2019-07-11T12:55:42Z</time>
      </trkpt>
      <trkpt lat="48.72765" lon="-3.45856">
        <ele>8.2</ele>
        <time>2019-07-11T12:55:43Z</time>
      </trkpt>
      <trkpt lat="48.72762" lon="-3.45854">
        <ele>8.2</ele>
        <time>2019-07-11T12:55:44Z</time>
      </trkpt>
      <trkpt lat="48.72759" lon="-3.45852">
        <ele>8</ele>
        <time>2019-07-11T12:55:45Z</time>
      </trkpt>
      <trkpt lat="48.72756" lon="-3.45849">
        <ele>7.9</ele>
        <time>2019-07-11T12:55:46Z</time>
      </trkpt>
      <trkpt lat="48.72753" lon="-3.45847">
        <ele>8.1</ele>
        <time>2019-07-11T12:55:47Z</time>
      </trkpt>
      <trkpt lat="48.7275" lon="-3.45844">
        <ele>8</ele>
        <time>2019-07-11T12:55:48Z</time>
      </trkpt>
      <trkpt lat="48.72747" lon="-3.45841">
        <ele>7.6</ele>
        <time>2019-07-11T12:55:49Z</time>
      </trkpt>
      <trkpt lat="48.72744" lon="-3.45839">
        <ele>7.8</ele>
        <time>2019-07-11T12:55:50Z</time>
      </trkpt>
      <trkpt lat="48.72741" lon="-3.45837">
        <ele>8.1</ele>
        <time>2019-07-11T12:55:51Z</time>
      </trkpt>
      <trkpt lat="48.72738" lon="-3.45834">
        <ele>8.6</ele>
        <time>2019-07-11T12:55:52Z</time>
      </trkpt>
      <trkpt lat="48.72735" lon="-3.45832">
        <ele>8.8</ele>
        <time>2019-07-11T12:55:53Z</time>
      </trkpt>
      <trkpt lat="48.72731" lon="-3.45829">
        <ele>9</ele>
        <time>2019-07-11T12:55:54Z</time>
      </trkpt>
      <trkpt lat="48.72728" lon="-3.45826">
        <ele>9.1</ele>
        <time>2019-07-11T12:55:55Z</time>
      </trkpt>
      <trkpt lat="48.72726" lon="-3.45823">
        <ele>8.9</ele>
        <time>2019-07-11T12:55:56Z</time>
      </trkpt>
      <trkpt lat="48.72724" lon="-3.45821">
        <ele>9.2</ele>
        <time>2019-07-11T12:55:57Z</time>
      </trkpt>
      <trkpt lat="48.72721" lon="-3.45818">
        <ele>9.5</ele>
        <time>2019-07-11T12:55:58Z</time>
      </trkpt>
      <trkpt lat="48.72719" lon="-3.45814">
        <ele>9.8</ele>
        <time>2019-07-11T12:55:59Z</time>
      </trkpt>
      <trkpt lat="48.72717" lon="-3.4581">
        <ele>10.1</ele>
        <time>2019-07-11T12:56:00Z</time>
      </trkpt>
      <trkpt lat="48.72715" lon="-3.45807">
        <ele>10.1</ele>
        <time>2019-07-11T12:56:01Z</time>
      </trkpt>
      <trkpt lat="48.72713" lon="-3.45804">
        <ele>10.5</ele>
        <time>2019-07-11T12:56:02Z</time>
      </trkpt>
      <trkpt lat="48.72711" lon="-3.45801">
        <ele>10.9</ele>
        <time>2019-07-11T12:56:03Z</time>
      </trkpt>
      <trkpt lat="48.72708" lon="-3.45798">
        <ele>10.3</ele>
        <time>2019-07-11T12:56:04Z</time>
      </trkpt>
      <trkpt lat="48.72705" lon="-3.45795">
        <ele>10.1</ele>
        <time>2019-07-11T12:56:05Z</time>
      </trkpt>
      <trkpt lat="48.72702" lon="-3.45792">
        <ele>9.9</ele>
        <time>2019-07-11T12:56:06Z</time>
      </trkpt>
      <trkpt lat="48.727" lon="-3.45789">
        <ele>9.9</ele>
        <time>2019-07-11T12:56:07Z</time>
      </trkpt>
      <trkpt lat="48.72698" lon="-3.45787">
        <ele>10.2</ele>
        <time>2019-07-11T12:56:08Z</time>
      </trkpt>
      <trkpt lat="48.72696" lon="-3.45784">
        <ele>10.1</ele>
        <time>2019-07-11T12:56:09Z</time>
      </trkpt>
      <trkpt lat="48.72695" lon="-3.4578">
        <ele>10</ele>
        <time>2019-07-11T12:56:10Z</time>
      </trkpt>
      <trkpt lat="48.72694" lon="-3.45777">
        <ele>9.8</ele>
        <time>2019-07-11T12:56:11Z</time>
      </trkpt>
      <trkpt lat="48.72692" lon="-3.45774">
        <ele>9.6</ele>
        <time>2019-07-11T12:56:12Z</time>
      </trkpt>
      <trkpt lat="48.72689" lon="-3.45771">
        <ele>9.1</ele>
        <time>2019-07-11T12:56:13Z</time>
      </trkpt>
      <trkpt lat="48.72686" lon="-3.45768">
        <ele>8.7</ele>
        <time>2019-07-11T12:56:14Z</time>
      </trkpt>
      <trkpt lat="48.72685" lon="-3.45765">
        <ele>8.5</ele>
        <time>2019-07-11T12:56:15Z</time>
      </trkpt>
      <trkpt lat="48.72683" lon="-3.45761">
        <ele>8.3</ele>
        <time>2019-07-11T12:56:16Z</time>
      </trkpt>
      <trkpt lat="48.72681" lon="-3.45759">
        <ele>8.1</ele>
        <time>2019-07-11T12:56:17Z</time>
      </trkpt>
      <trkpt lat="48.72678" lon="-3.45756">
        <ele>7.9</ele>
        <time>2019-07-11T12:56:18Z</time>
      </trkpt>
      <trkpt lat="48.72677" lon="-3.45753">
        <ele>7.8</ele>
        <time>2019-07-11T12:56:19Z</time>
      </trkpt>
      <trkpt lat="48.72674" lon="-3.45751">
        <ele>7.5</ele>
        <time>2019-07-11T12:56:20Z</time>
      </trkpt>
      <trkpt lat="48.72672" lon="-3.45748">
        <ele>7.1</ele>
        <time>2019-07-11T12:56:21Z</time>
      </trkpt>
      <trkpt lat="48.72671" lon="-3.45745">
        <ele>7</ele>
        <time>2019-07-11T12:56:22Z</time>
      </trkpt>
      <trkpt lat="48.72669" lon="-3.45743">
        <ele>6.8</ele>
        <time>2019-07-11T12:56:23Z</time>
      </trkpt>
      <trkpt lat="48.72666" lon="-3.4574">
        <ele>6.8</ele>
        <time>2019-07-11T12:56:24Z</time>
      </trkpt>
      <trkpt lat="48.72664" lon="-3.45737">
        <ele>6.6</ele>
        <time>2019-07-11T12:56:25Z</time>
      </trkpt>
      <trkpt lat="48.72662" lon="-3.45734">
        <ele>6.7</ele>
        <time>2019-07-11T12:56:26Z</time>
      </trkpt>
      <trkpt lat="48.72661" lon="-3.45732">
        <ele>7</ele>
        <time>2019-07-11T12:56:27Z</time>
      </trkpt>
      <trkpt lat="48.72658" lon="-3.4573">
        <ele>7.2</ele>
        <time>2019-07-11T12:56:28Z</time>
      </trkpt>
      <trkpt lat="48.72656" lon="-3.45728">
        <ele>7.8</ele>
        <time>2019-07-11T12:56:29Z</time>
      </trkpt>
      <trkpt lat="48.72654" lon="-3.45725">
        <ele>7.6</ele>
        <time>2019-07-11T12:56:30Z</time>
      </trkpt>
      <trkpt lat="48.72652" lon="-3.45723">
        <ele>7.3</ele>
        <time>2019-07-11T12:56:31Z</time>
      </trkpt>
      <trkpt lat="48.7265" lon="-3.45721">
        <ele>7.4</ele>
        <time>2019-07-11T12:56:32Z</time>
      </trkpt>
      <trkpt lat="48.72649" lon="-3.45719">
        <ele>7.2</ele>
        <time>2019-07-11T12:56:33Z</time>
      </trkpt>
      <trkpt lat="48.72648" lon="-3.45719">
        <ele>7.8</ele>
        <time>2019-07-11T12:56:34Z</time>
      </trkpt>
      <trkpt lat="48.72647" lon="-3.45717">
        <ele>8.2</ele>
        <time>2019-07-11T12:56:35Z</time>
      </trkpt>
      <trkpt lat="48.72645" lon="-3.45715">
        <ele>8.7</ele>
        <time>2019-07-11T12:56:36Z</time>
      </trkpt>
      <trkpt lat="48.72643" lon="-3.45713">
        <ele>9.2</ele>
        <time>2019-07-11T12:56:37Z</time>
      </trkpt>
      <trkpt lat="48.72641" lon="-3.45711">
        <ele>9.3</ele>
        <time>2019-07-11T12:56:38Z</time>
      </trkpt>
      <trkpt lat="48.72639" lon="-3.45709">
        <ele>9.3</ele>
        <time>2019-07-11T12:56:39Z</time>
      </trkpt>
      <trkpt lat="48.72636" lon="-3.45706">
        <ele>9.4</ele>
        <time>2019-07-11T12:56:40Z</time>
      </trkpt>
      <trkpt lat="48.72635" lon="-3.45704">
        <ele>9.7</ele>
        <time>2019-07-11T12:56:41Z</time>
      </trkpt>
      <trkpt lat="48.72632" lon="-3.45702">
        <ele>9.6</ele>
        <time>2019-07-11T12:56:42Z</time>
      </trkpt>
      <trkpt lat="48.7263" lon="-3.45699">
        <ele>9.8</ele>
        <time>2019-07-11T12:56:43Z</time>
      </trkpt>
      <trkpt lat="48.72629" lon="-3.45697">
        <ele>10</ele>
        <time>2019-07-11T12:56:44Z</time>
      </trkpt>
      <trkpt lat="48.72627" lon="-3.45696">
        <ele>10</ele>
        <time>2019-07-11T12:56:45Z</time>
      </trkpt>
      <trkpt lat="48.72625" lon="-3.45693">
        <ele>9.8</ele>
        <time>2019-07-11T12:56:46Z</time>
      </trkpt>
      <trkpt lat="48.72623" lon="-3.45692">
        <ele>9.8</ele>
        <time>2019-07-11T12:56:47Z</time>
      </trkpt>
      <trkpt lat="48.72621" lon="-3.4569">
        <ele>9.8</ele>
        <time>2019-07-11T12:56:48Z</time>
      </trkpt>
      <trkpt lat="48.72619" lon="-3.45688">
        <ele>9.7</ele>
        <time>2019-07-11T12:56:49Z</time>
      </trkpt>
      <trkpt lat="48.72617" lon="-3.45686">
        <ele>9.6</ele>
        <time>2019-07-11T12:56:50Z</time>
      </trkpt>
      <trkpt lat="48.72615" lon="-3.45684">
        <ele>9.5</ele>
        <time>2019-07-11T12:56:51Z</time>
      </trkpt>
      <trkpt lat="48.72614" lon="-3.45682">
        <ele>9.5</ele>
        <time>2019-07-11T12:56:52Z</time>
      </trkpt>
      <trkpt lat="48.72612" lon="-3.45679">
        <ele>9.8</ele>
        <time>2019-07-11T12:56:53Z</time>
      </trkpt>
      <trkpt lat="48.72611" lon="-3.45676">
        <ele>10</ele>
        <time>2019-07-11T12:56:54Z</time>
      </trkpt>
      <trkpt lat="48.72609" lon="-3.45673">
        <ele>10.4</ele>
        <time>2019-07-11T12:56:55Z</time>
      </trkpt>
      <trkpt lat="48.72607" lon="-3.45669">
        <ele>10.6</ele>
        <time>2019-07-11T12:56:56Z</time>
      </trkpt>
      <trkpt lat="48.72607" lon="-3.45666">
        <ele>11.3</ele>
        <time>2019-07-11T12:56:57Z</time>
      </trkpt>
      <trkpt lat="48.72605" lon="-3.45663">
        <ele>11.4</ele>
        <time>2019-07-11T12:56:58Z</time>
      </trkpt>
      <trkpt lat="48.72603" lon="-3.4566">
        <ele>11.5</ele>
        <time>2019-07-11T12:56:59Z</time>
      </trkpt>
      <trkpt lat="48.72602" lon="-3.45657">
        <ele>11.7</ele>
        <time>2019-07-11T12:57:00Z</time>
      </trkpt>
      <trkpt lat="48.72601" lon="-3.45653">
        <ele>11.8</ele>
        <time>2019-07-11T12:57:01Z</time>
      </trkpt>
      <trkpt lat="48.726" lon="-3.4565">
        <ele>11.8</ele>
        <time>2019-07-11T12:57:02Z</time>
      </trkpt>
      <trkpt lat="48.72599" lon="-3.45648">
        <ele>11.8</ele>
        <time>2019-07-11T12:57:03Z</time>
      </trkpt>
      <trkpt lat="48.72599" lon="-3.45645">
        <ele>11.9</ele>
        <time>2019-07-11T12:57:04Z</time>
      </trkpt>
      <trkpt lat="48.72598" lon="-3.45642">
        <ele>12</ele>
        <time>2019-07-11T12:57:05Z</time>
      </trkpt>
      <trkpt lat="48.72597" lon="-3.45638">
        <ele>12.2</ele>
        <time>2019-07-11T12:57:06Z</time>
      </trkpt>
      <trkpt lat="48.72596" lon="-3.45634">
        <ele>12.4</ele>
        <time>2019-07-11T12:57:07Z</time>
      </trkpt>
      <trkpt lat="48.72596" lon="-3.4563">
        <ele>12.6</ele>
        <time>2019-07-11T12:57:08Z</time>
      </trkpt>
      <trkpt lat="48.72595" lon="-3.45627">
        <ele>12.8</ele>
        <time>2019-07-11T12:57:09Z</time>
      </trkpt>
      <trkpt lat="48.72594" lon="-3.45625">
        <ele>13.2</ele>
        <time>2019-07-11T12:57:10Z</time>
      </trkpt>
      <trkpt lat="48.72594" lon="-3.45623">
        <ele>13.9</ele>
        <time>2019-07-11T12:57:11Z</time>
      </trkpt>
      <trkpt lat="48.72592" lon="-3.4562">
        <ele>14</ele>
        <time>2019-07-11T12:57:12Z</time>
      </trkpt>
      <trkpt lat="48.72591" lon="-3.45616">
        <ele>14.4</ele>
        <time>2019-07-11T12:57:13Z</time>
      </trkpt>
      <trkpt lat="48.72591" lon="-3.4561">
        <ele>14.5</ele>
        <time>2019-07-11T12:57:14Z</time>
      </trkpt>
      <trkpt lat="48.72588" lon="-3.45606">
        <ele>14.5</ele>
        <time>2019-07-11T12:57:15Z</time>
      </trkpt>
      <trkpt lat="48.72585" lon="-3.45601">
        <ele>14.6</ele>
        <time>2019-07-11T12:57:16Z</time>
      </trkpt>
      <trkpt lat="48.72583" lon="-3.45597">
        <ele>15</ele>
        <time>2019-07-11T12:57:17Z</time>
      </trkpt>
      <trkpt lat="48.72581" lon="-3.45592">
        <ele>15.4</ele>
        <time>2019-07-11T12:57:18Z</time>
      </trkpt>
      <trkpt lat="48.72578" lon="-3.45588">
        <ele>16</ele>
        <time>2019-07-11T12:57:19Z</time>
      </trkpt>
      <trkpt lat="48.72574" lon="-3.45583">
        <ele>17</ele>
        <time>2019-07-11T12:57:20Z</time>
      </trkpt>
      <trkpt lat="48.72572" lon="-3.45577">
        <ele>17.5</ele>
        <time>2019-07-11T12:57:21Z</time>
      </trkpt>
      <trkpt lat="48.7257" lon="-3.4557">
        <ele>17.8</ele>
        <time>2019-07-11T12:57:22Z</time>
      </trkpt>
      <trkpt lat="48.72564" lon="-3.45563">
        <ele>17.8</ele>
        <time>2019-07-11T12:57:23Z</time>
      </trkpt>
      <trkpt lat="48.7256" lon="-3.45556">
        <ele>17.6</ele>
        <time>2019-07-11T12:57:24Z</time>
      </trkpt>
      <trkpt lat="48.72555" lon="-3.45551">
        <ele>17.5</ele>
        <time>2019-07-11T12:57:25Z</time>
      </trkpt>
      <trkpt lat="48.72551" lon="-3.45545">
        <ele>17.5</ele>
        <time>2019-07-11T12:57:26Z</time>
      </trkpt>
      <trkpt lat="48.72547" lon="-3.45538">
        <ele>17.5</ele>
        <time>2019-07-11T12:57:27Z</time>
      </trkpt>
      <trkpt lat="48.72545" lon="-3.45532">
        <ele>17.6</ele>
        <time>2019-07-11T12:57:28Z</time>
      </trkpt>
      <trkpt lat="48.72543" lon="-3.45524">
        <ele>17.3</ele>
        <time>2019-07-11T12:57:29Z</time>
      </trkpt>
      <trkpt lat="48.72541" lon="-3.45516">
        <ele>17.1</ele>
        <time>2019-07-11T12:57:30Z</time>
      </trkpt>
      <trkpt lat="48.72538" lon="-3.45509">
        <ele>17</ele>
        <time>2019-07-11T12:57:31Z</time>
      </trkpt>
      <trkpt lat="48.72535" lon="-3.45503">
        <ele>16.9</ele>
        <time>2019-07-11T12:57:32Z</time>
      </trkpt>
      <trkpt lat="48.72533" lon="-3.45497">
        <ele>16.9</ele>
        <time>2019-07-11T12:57:33Z</time>
      </trkpt>
      <trkpt lat="48.72531" lon="-3.45491">
        <ele>16.6</ele>
        <time>2019-07-11T12:57:34Z</time>
      </trkpt>
      <trkpt lat="48.72529" lon="-3.45487">
        <ele>16.6</ele>
        <time>2019-07-11T12:57:35Z</time>
      </trkpt>
      <trkpt lat="48.72527" lon="-3.45483">
        <ele>16.5</ele>
        <time>2019-07-11T12:57:36Z</time>
      </trkpt>
      <trkpt lat="48.72524" lon="-3.45479">
        <ele>16.4</ele>
        <time>2019-07-11T12:57:37Z</time>
      </trkpt>
      <trkpt lat="48.72522" lon="-3.45475">
        <ele>16.3</ele>
        <time>2019-07-11T12:57:38Z</time>
      </trkpt>
      <trkpt lat="48.7252" lon="-3.4547">
        <ele>16.2</ele>
        <time>2019-07-11T12:57:39Z</time>
      </trkpt>
      <trkpt lat="48.72518" lon="-3.45466">
        <ele>16.3</ele>
        <time>2019-07-11T12:57:40Z</time>
      </trkpt>
      <trkpt lat="48.72517" lon="-3.45461">
        <ele>16.3</ele>
        <time>2019-07-11T12:57:41Z</time>
      </trkpt>
      <trkpt lat="48.72515" lon="-3.45457">
        <ele>16.5</ele>
        <time>2019-07-11T12:57:42Z</time>
      </trkpt>
      <trkpt lat="48.72512" lon="-3.45452">
        <ele>16.6</ele>
        <time>2019-07-11T12:57:43Z</time>
      </trkpt>
      <trkpt lat="48.72511" lon="-3.45448">
        <ele>16.8</ele>
        <time>2019-07-11T12:57:44Z</time>
      </trkpt>
      <trkpt lat="48.72509" lon="-3.45443">
        <ele>17.1</ele>
        <time>2019-07-11T12:57:45Z</time>
      </trkpt>
      <trkpt lat="48.72507" lon="-3.45438">
        <ele>17.5</ele>
        <time>2019-07-11T12:57:46Z</time>
      </trkpt>
      <trkpt lat="48.72505" lon="-3.45433">
        <ele>18.2</ele>
        <time>2019-07-11T12:57:47Z</time>
      </trkpt>
      <trkpt lat="48.72503" lon="-3.45427">
        <ele>18.7</ele>
        <time>2019-07-11T12:57:48Z</time>
      </trkpt>
      <trkpt lat="48.725" lon="-3.45421">
        <ele>19.2</ele>
        <time>2019-07-11T12:57:49Z</time>
      </trkpt>
      <trkpt lat="48.72497" lon="-3.45415">
        <ele>19.4</ele>
        <time>2019-07-11T12:57:50Z</time>
      </trkpt>
      <trkpt lat="48.72494" lon="-3.4541">
        <ele>19.5</ele>
        <time>2019-07-11T12:57:51Z</time>
      </trkpt>
      <trkpt lat="48.72492" lon="-3.45405">
        <ele>19.1</ele>
        <time>2019-07-11T12:57:52Z</time>
      </trkpt>
      <trkpt lat="48.72489" lon="-3.45401">
        <ele>18.7</ele>
        <time>2019-07-11T12:57:53Z</time>
      </trkpt>
      <trkpt lat="48.72486" lon="-3.45395">
        <ele>17.8</ele>
        <time>2019-07-11T12:57:54Z</time>
      </trkpt>
      <trkpt lat="48.72481" lon="-3.4539">
        <ele>16.6</ele>
        <time>2019-07-11T12:57:55Z</time>
      </trkpt>
      <trkpt lat="48.72479" lon="-3.45385">
        <ele>16.2</ele>
        <time>2019-07-11T12:57:56Z</time>
      </trkpt>
      <trkpt lat="48.72474" lon="-3.45379">
        <ele>14.8</ele>
        <time>2019-07-11T12:57:57Z</time>
      </trkpt>
      <trkpt lat="48.72471" lon="-3.45372">
        <ele>13.8</ele>
        <time>2019-07-11T12:57:58Z</time>
      </trkpt>
      <trkpt lat="48.72467" lon="-3.45365">
        <ele>12.9</ele>
        <time>2019-07-11T12:57:59Z</time>
      </trkpt>
      <trkpt lat="48.72464" lon="-3.45358">
        <ele>11.9</ele>
        <time>2019-07-11T12:58:00Z</time>
      </trkpt>
      <trkpt lat="48.72461" lon="-3.4535">
        <ele>11.1</ele>
        <time>2019-07-11T12:58:01Z</time>
      </trkpt>
      <trkpt lat="48.72458" lon="-3.45343">
        <ele>10.3</ele>
        <time>2019-07-11T12:58:02Z</time>
      </trkpt>
      <trkpt lat="48.72456" lon="-3.45335">
        <ele>9.5</ele>
        <time>2019-07-11T12:58:03Z</time>
      </trkpt>
      <trkpt lat="48.72453" lon="-3.45327">
        <ele>9</ele>
        <time>2019-07-11T12:58:04Z</time>
      </trkpt>
      <trkpt lat="48.72451" lon="-3.45319">
        <ele>8.7</ele>
        <time>2019-07-11T12:58:05Z</time>
      </trkpt>
      <trkpt lat="48.72448" lon="-3.45312">
        <ele>8.2</ele>
        <time>2019-07-11T12:58:06Z</time>
      </trkpt>
      <trkpt lat="48.72446" lon="-3.45304">
        <ele>7.8</ele>
        <time>2019-07-11T12:58:07Z</time>
      </trkpt>
      <trkpt lat="48.72443" lon="-3.45297">
        <ele>7.5</ele>
        <time>2019-07-11T12:58:08Z</time>
      </trkpt>
      <trkpt lat="48.72441" lon="-3.4529">
        <ele>7.1</ele>
        <time>2019-07-11T12:58:09Z</time>
      </trkpt>
      <trkpt lat="48.72438" lon="-3.45282">
        <ele>6.7</ele>
        <time>2019-07-11T12:58:10Z</time>
      </trkpt>
      <trkpt lat="48.72435" lon="-3.45275">
        <ele>6.3</ele>
        <time>2019-07-11T12:58:11Z</time>
      </trkpt>
      <trkpt lat="48.72433" lon="-3.45267">
        <ele>5.6</ele>
        <time>2019-07-11T12:58:12Z</time>
      </trkpt>
      <trkpt lat="48.72431" lon="-3.45259">
        <ele>5.1</ele>
        <time>2019-07-11T12:58:13Z</time>
      </trkpt>
      <trkpt lat="48.72429" lon="-3.45251">
        <ele>4.9</ele>
        <time>2019-07-11T12:58:14Z</time>
      </trkpt>
      <trkpt lat="48.72427" lon="-3.45244">
        <ele>4.7</ele>
        <time>2019-07-11T12:58:15Z</time>
      </trkpt>
      <trkpt lat="48.72424" lon="-3.45236">
        <ele>4.8</ele>
        <time>2019-07-11T12:58:16Z</time>
      </trkpt>
      <trkpt lat="48.72421" lon="-3.45229">
        <ele>4.4</ele>
        <time>2019-07-11T12:58:17Z</time>
      </trkpt>
      <trkpt lat="48.72417" lon="-3.45222">
        <ele>3.8</ele>
        <time>2019-07-11T12:58:18Z</time>
      </trkpt>
      <trkpt lat="48.72414" lon="-3.45215">
        <ele>3.5</ele>
        <time>2019-07-11T12:58:19Z</time>
      </trkpt>
      <trkpt lat="48.72411" lon="-3.45208">
        <ele>3</ele>
        <time>2019-07-11T12:58:20Z</time>
      </trkpt>
      <trkpt lat="48.72408" lon="-3.452">
        <ele>2.6</ele>
        <time>2019-07-11T12:58:21Z</time>
      </trkpt>
      <trkpt lat="48.72405" lon="-3.45193">
        <ele>2.2</ele>
        <time>2019-07-11T12:58:22Z</time>
      </trkpt>
      <trkpt lat="48.72402" lon="-3.45185">
        <ele>1.5</ele>
        <time>2019-07-11T12:58:23Z</time>
      </trkpt>
      <trkpt lat="48.724" lon="-3.45178">
        <ele>1.2</ele>
        <time>2019-07-11T12:58:24Z</time>
      </trkpt>
      <trkpt lat="48.72397" lon="-3.4517">
        <ele>0.9</ele>
        <time>2019-07-11T12:58:25Z</time>
      </trkpt>
      <trkpt lat="48.72393" lon="-3.45162">
        <ele>0.5</ele>
        <time>2019-07-11T12:58:26Z</time>
      </trkpt>
      <trkpt lat="48.72391" lon="-3.45155">
        <ele>0.2</ele>
        <time>2019-07-11T12:58:27Z</time>
      </trkpt>
      <trkpt lat="48.72388" lon="-3.45148">
        <ele>6.1</ele>
        <time>2019-07-11T12:58:28Z</time>
      </trkpt>
      <trkpt lat="48.72385" lon="-3.45142">
        <ele>-0.4</ele>
        <time>2019-07-11T12:58:29Z</time>
      </trkpt>
      <trkpt lat="48.72382" lon="-3.45136">
        <ele>-0.7</ele>
        <time>2019-07-11T12:58:30Z</time>
      </trkpt>
      <trkpt lat="48.72379" lon="-3.45131">
        <ele>-1</ele>
        <time>2019-07-11T12:58:31Z</time>
      </trkpt>
      <trkpt lat="48.72376" lon="-3.45126">
        <ele>-1.5</ele>
        <time>2019-07-11T12:58:32Z</time>
      </trkpt>
      <trkpt lat="48.72374" lon="-3.45121">
        <ele>-2</ele>
        <time>2019-07-11T12:58:33Z</time>
      </trkpt>
      <trkpt lat="48.72372" lon="-3.45115">
        <ele>-2.1</ele>
        <time>2019-07-11T12:58:34Z</time>
      </trkpt>
      <trkpt lat="48.72369" lon="-3.4511">
        <ele>-2</ele>
        <time>2019-07-11T12:58:35Z</time>
      </trkpt>
      <trkpt lat="48.72366" lon="-3.45105">
        <ele>-2.2</ele>
        <time>2019-07-11T12:58:36Z</time>
      </trkpt>
      <trkpt lat="48.72365" lon="-3.45099">
        <ele>-2.4</ele>
        <time>2019-07-11T12:58:37Z</time>
      </trkpt>
      <trkpt lat="48.72363" lon="-3.45093">
        <ele>-2.7</ele>
        <time>2019-07-11T12:58:38Z</time>
      </trkpt>
      <trkpt lat="48.72361" lon="-3.45087">
        <ele>-2.9</ele>
        <time>2019-07-11T12:58:39Z</time>
      </trkpt>
      <trkpt lat="48.72359" lon="-3.45082">
        <ele>-3</ele>
        <time>2019-07-11T12:58:40Z</time>
      </trkpt>
      <trkpt lat="48.72357" lon="-3.45076">
        <ele>-2.9</ele>
        <time>2019-07-11T12:58:41Z</time>
      </trkpt>
      <trkpt lat="48.72356" lon="-3.45069">
        <ele>-2.7</ele>
        <time>2019-07-11T12:58:42Z</time>
      </trkpt>
      <trkpt lat="48.72354" lon="-3.45062">
        <ele>-3</ele>
        <time>2019-07-11T12:58:43Z</time>
      </trkpt>
      <trkpt lat="48.72352" lon="-3.45056">
        <ele>-3.5</ele>
        <time>2019-07-11T12:58:44Z</time>
      </trkpt>
      <trkpt lat="48.7235" lon="-3.4505">
        <ele>-4</ele>
        <time>2019-07-11T12:58:45Z</time>
      </trkpt>
      <trkpt lat="48.72348" lon="-3.45044">
        <ele>-3.9</ele>
        <time>2019-07-11T12:58:46Z</time>
      </trkpt>
      <trkpt lat="48.72345" lon="-3.45039">
        <ele>-3.8</ele>
        <time>2019-07-11T12:58:47Z</time>
      </trkpt>
      <trkpt lat="48.72342" lon="-3.45033">
        <ele>-3.6</ele>
        <time>2019-07-11T12:58:48Z</time>
      </trkpt>
      <trkpt lat="48.72339" lon="-3.45028">
        <ele>-3.4</ele>
        <time>2019-07-11T12:58:49Z</time>
      </trkpt>
      <trkpt lat="48.72336" lon="-3.45022">
        <ele>-3.1</ele>
        <time>2019-07-11T12:58:50Z</time>
      </trkpt>
      <trkpt lat="48.72333" lon="-3.45017">
        <ele>-2.8</ele>
        <time>2019-07-11T12:58:51Z</time>
      </trkpt>
      <trkpt lat="48.7233" lon="-3.45011">
        <ele>-2.6</ele>
        <time>2019-07-11T12:58:52Z</time>
      </trkpt>
      <trkpt lat="48.72328" lon="-3.45006">
        <ele>-2.5</ele>
        <time>2019-07-11T12:58:53Z</time>
      </trkpt>
      <trkpt lat="48.72325" lon="-3.45001">
        <ele>-2.3</ele>
        <time>2019-07-11T12:58:54Z</time>
      </trkpt>
      <trkpt lat="48.72322" lon="-3.44996">
        <ele>-1.7</ele>
        <time>2019-07-11T12:58:55Z</time>
      </trkpt>
      <trkpt lat="48.72319" lon="-3.44991">
        <ele>-1.1</ele>
        <time>2019-07-11T12:58:56Z</time>
      </trkpt>
      <trkpt lat="48.72317" lon="-3.44987">
        <ele>-0.6</ele>
        <time>2019-07-11T12:58:57Z</time>
      </trkpt>
      <trkpt lat="48.72315" lon="-3.44982">
        <ele>-0.4</ele>
        <time>2019-07-11T12:58:58Z</time>
      </trkpt>
      <trkpt lat="48.72313" lon="-3.44977">
        <ele>-0.3</ele>
        <time>2019-07-11T12:58:59Z</time>
      </trkpt>
      <trkpt lat="48.72311" lon="-3.44973">
        <ele>-0.1</ele>
        <time>2019-07-11T12:59:00Z</time>
      </trkpt>
      <trkpt lat="48.72309" lon="-3.44968">
        <ele>5.8</ele>
        <time>2019-07-11T12:59:01Z</time>
      </trkpt>
      <trkpt lat="48.72306" lon="-3.44964">
        <ele>0.4</ele>
        <time>2019-07-11T12:59:02Z</time>
      </trkpt>
      <trkpt lat="48.72305" lon="-3.4496">
        <ele>0.7</ele>
        <time>2019-07-11T12:59:03Z</time>
      </trkpt>
      <trkpt lat="48.72303" lon="-3.44956">
        <ele>0.8</ele>
        <time>2019-07-11T12:59:04Z</time>
      </trkpt>
      <trkpt lat="48.72302" lon="-3.4495">
        <ele>0.6</ele>
        <time>2019-07-11T12:59:05Z</time>
      </trkpt>
      <trkpt lat="48.72301" lon="-3.44946">
        <ele>1.3</ele>
        <time>2019-07-11T12:59:06Z</time>
      </trkpt>
      <trkpt lat="48.72301" lon="-3.44941">
        <ele>2.1</ele>
        <time>2019-07-11T12:59:07Z</time>
      </trkpt>
      <trkpt lat="48.723" lon="-3.44936">
        <ele>2.6</ele>
        <time>2019-07-11T12:59:08Z</time>
      </trkpt>
      <trkpt lat="48.72298" lon="-3.4493">
        <ele>3.2</ele>
        <time>2019-07-11T12:59:09Z</time>
      </trkpt>
      <trkpt lat="48.72297" lon="-3.44925">
        <ele>3.5</ele>
        <time>2019-07-11T12:59:10Z</time>
      </trkpt>
      <trkpt lat="48.72295" lon="-3.4492">
        <ele>4.2</ele>
        <time>2019-07-11T12:59:11Z</time>
      </trkpt>
      <trkpt lat="48.72294" lon="-3.44914">
        <ele>4.5</ele>
        <time>2019-07-11T12:59:12Z</time>
      </trkpt>
      <trkpt lat="48.72293" lon="-3.44908">
        <ele>5.1</ele>
        <time>2019-07-11T12:59:13Z</time>
      </trkpt>
      <trkpt lat="48.72292" lon="-3.44902">
        <ele>5.4</ele>
        <time>2019-07-11T12:59:14Z</time>
      </trkpt>
      <trkpt lat="48.7229" lon="-3.44894">
        <ele>5.8</ele>
        <time>2019-07-11T12:59:15Z</time>
      </trkpt>
      <trkpt lat="48.72288" lon="-3.44887">
        <ele>6.2</ele>
        <time>2019-07-11T12:59:16Z</time>
      </trkpt>
      <trkpt lat="48.72287" lon="-3.44881">
        <ele>6.1</ele>
        <time>2019-07-11T12:59:17Z</time>
      </trkpt>
      <trkpt lat="48.72284" lon="-3.44874">
        <ele>5.6</ele>
        <time>2019-07-11T12:59:18Z</time>
      </trkpt>
      <trkpt lat="48.72283" lon="-3.44867">
        <ele>5.2</ele>
        <time>2019-07-11T12:59:19Z</time>
      </trkpt>
      <trkpt lat="48.72282" lon="-3.44861">
        <ele>5.1</ele>
        <time>2019-07-11T12:59:20Z</time>
      </trkpt>
      <trkpt lat="48.72281" lon="-3.44855">
        <ele>4.9</ele>
        <time>2019-07-11T12:59:21Z</time>
      </trkpt>
      <trkpt lat="48.7228" lon="-3.44848">
        <ele>4.8</ele>
        <time>2019-07-11T12:59:22Z</time>
      </trkpt>
      <trkpt lat="48.72279" lon="-3.44842">
        <ele>4.6</ele>
        <time>2019-07-11T12:59:23Z</time>
      </trkpt>
      <trkpt lat="48.72278" lon="-3.44836">
        <ele>4.9</ele>
        <time>2019-07-11T12:59:24Z</time>
      </trkpt>
      <trkpt lat="48.72276" lon="-3.4483">
        <ele>5.2</ele>
        <time>2019-07-11T12:59:25Z</time>
      </trkpt>
      <trkpt lat="48.72274" lon="-3.44824">
        <ele>5.1</ele>
        <time>2019-07-11T12:59:26Z</time>
      </trkpt>
      <trkpt lat="48.72273" lon="-3.44817">
        <ele>5</ele>
        <time>2019-07-11T12:59:27Z</time>
      </trkpt>
      <trkpt lat="48.72271" lon="-3.44811">
        <ele>5.1</ele>
        <time>2019-07-11T12:59:28Z</time>
      </trkpt>
      <trkpt lat="48.7227" lon="-3.44805">
        <ele>5</ele>
        <time>2019-07-11T12:59:29Z</time>
      </trkpt>
      <trkpt lat="48.7227" lon="-3.448">
        <ele>5.9</ele>
        <time>2019-07-11T12:59:30Z</time>
      </trkpt>
      <trkpt lat="48.72268" lon="-3.44794">
        <ele>6.2</ele>
        <time>2019-07-11T12:59:31Z</time>
      </trkpt>
      <trkpt lat="48.72266" lon="-3.44789">
        <ele>6.4</ele>
        <time>2019-07-11T12:59:32Z</time>
      </trkpt>
      <trkpt lat="48.72265" lon="-3.44785">
        <ele>6.7</ele>
        <time>2019-07-11T12:59:33Z</time>
      </trkpt>
      <trkpt lat="48.72263" lon="-3.44781">
        <ele>7.2</ele>
        <time>2019-07-11T12:59:34Z</time>
      </trkpt>
      <trkpt lat="48.7226" lon="-3.44778">
        <ele>7.5</ele>
        <time>2019-07-11T12:59:35Z</time>
      </trkpt>
      <trkpt lat="48.72258" lon="-3.44775">
        <ele>7.9</ele>
        <time>2019-07-11T12:59:36Z</time>
      </trkpt>
      <trkpt lat="48.72255" lon="-3.44772">
        <ele>8</ele>
        <time>2019-07-11T12:59:37Z</time>
      </trkpt>
      <trkpt lat="48.72253" lon="-3.44771">
        <ele>8</ele>
        <time>2019-07-11T12:59:38Z</time>
      </trkpt>
      <trkpt lat="48.7225" lon="-3.44769">
        <ele>8.4</ele>
        <time>2019-07-11T12:59:39Z</time>
      </trkpt>
      <trkpt lat="48.72248" lon="-3.44768">
        <ele>8.4</ele>
        <time>2019-07-11T12:59:40Z</time>
      </trkpt>
      <trkpt lat="48.72247" lon="-3.44767">
        <ele>8.9</ele>
        <time>2019-07-11T12:59:41Z</time>
      </trkpt>
      <trkpt lat="48.72246" lon="-3.44765">
        <ele>8.9</ele>
        <time>2019-07-11T12:59:42Z</time>
      </trkpt>
      <trkpt lat="48.72245" lon="-3.44764">
        <ele>8.9</ele>
        <time>2019-07-11T12:59:43Z</time>
      </trkpt>
      <trkpt lat="48.72243" lon="-3.44763">
        <ele>9.1</ele>
        <time>2019-07-11T12:59:44Z</time>
      </trkpt>
      <trkpt lat="48.72242" lon="-3.44763">
        <ele>9.4</ele>
        <time>2019-07-11T12:59:45Z</time>
      </trkpt>
      <trkpt lat="48.7224" lon="-3.44762">
        <ele>9.7</ele>
        <time>2019-07-11T12:59:46Z</time>
      </trkpt>
      <trkpt lat="48.72238" lon="-3.44761">
        <ele>9.7</ele>
        <time>2019-07-11T12:59:47Z</time>
      </trkpt>
      <trkpt lat="48.72236" lon="-3.4476">
        <ele>9.7</ele>
        <time>2019-07-11T12:59:48Z</time>
      </trkpt>
      <trkpt lat="48.72234" lon="-3.4476">
        <ele>9.8</ele>
        <time>2019-07-11T12:59:49Z</time>
      </trkpt>
      <trkpt lat="48.72232" lon="-3.4476">
        <ele>9.6</ele>
        <time>2019-07-11T12:59:50Z</time>
      </trkpt>
      <trkpt lat="48.72229" lon="-3.4476">
        <ele>9.8</ele>
        <time>2019-07-11T12:59:51Z</time>
      </trkpt>
      <trkpt lat="48.72228" lon="-3.4476">
        <ele>9.7</ele>
        <time>2019-07-11T12:59:52Z</time>
      </trkpt>
      <trkpt lat="48.72226" lon="-3.4476">
        <ele>9.7</ele>
        <time>2019-07-11T12:59:53Z</time>
      </trkpt>
      <trkpt lat="48.72224" lon="-3.4476">
        <ele>10.1</ele>
        <time>2019-07-11T12:59:54Z</time>
      </trkpt>
      <trkpt lat="48.72223" lon="-3.4476">
        <ele>10.2</ele>
        <time>2019-07-11T12:59:55Z</time>
      </trkpt>
      <trkpt lat="48.72221" lon="-3.44761">
        <ele>10.5</ele>
        <time>2019-07-11T12:59:56Z</time>
      </trkpt>
      <trkpt lat="48.72219" lon="-3.44761">
        <ele>10.6</ele>
        <time>2019-07-11T12:59:57Z</time>
      </trkpt>
      <trkpt lat="48.72217" lon="-3.44761">
        <ele>11</ele>
        <time>2019-07-11T12:59:58Z</time>
      </trkpt>
      <trkpt lat="48.72215" lon="-3.44761">
        <ele>11.4</ele>
        <time>2019-07-11T12:59:59Z</time>
      </trkpt>
      <trkpt lat="48.72213" lon="-3.44761">
        <ele>11.7</ele>
        <time>2019-07-11T13:00:00Z</time>
      </trkpt>
      <trkpt lat="48.72212" lon="-3.44761">
        <ele>11.9</ele>
        <time>2019-07-11T13:00:01Z</time>
      </trkpt>
      <trkpt lat="48.7221" lon="-3.44761">
        <ele>12</ele>
        <time>2019-07-11T13:00:02Z</time>
      </trkpt>
      <trkpt lat="48.72209" lon="-3.44761">
        <ele>12</ele>
        <time>2019-07-11T13:00:03Z</time>
      </trkpt>
      <trkpt lat="48.72207" lon="-3.44761">
        <ele>12.3</ele>
        <time>2019-07-11T13:00:04Z</time>
      </trkpt>
      <trkpt lat="48.72205" lon="-3.44761">
        <ele>12.7</ele>
        <time>2019-07-11T13:00:05Z</time>
      </trkpt>
      <trkpt lat="48.72203" lon="-3.44761">
        <ele>12.8</ele>
        <time>2019-07-11T13:00:06Z</time>
      </trkpt>
      <trkpt lat="48.72202" lon="-3.44761">
        <ele>13</ele>
        <time>2019-07-11T13:00:07Z</time>
      </trkpt>
      <trkpt lat="48.722" lon="-3.4476">
        <ele>13.2</ele>
        <time>2019-07-11T13:00:08Z</time>
      </trkpt>
      <trkpt lat="48.72199" lon="-3.4476">
        <ele>13.4</ele>
        <time>2019-07-11T13:00:09Z</time>
      </trkpt>
      <trkpt lat="48.72197" lon="-3.4476">
        <ele>13.4</ele>
        <time>2019-07-11T13:00:10Z</time>
      </trkpt>
      <trkpt lat="48.72195" lon="-3.4476">
        <ele>13.7</ele>
        <time>2019-07-11T13:00:11Z</time>
      </trkpt>
      <trkpt lat="48.72194" lon="-3.4476">
        <ele>13.9</ele>
        <time>2019-07-11T13:00:12Z</time>
      </trkpt>
      <trkpt lat="48.72192" lon="-3.4476">
        <ele>14.1</ele>
        <time>2019-07-11T13:00:13Z</time>
      </trkpt>
      <trkpt lat="48.72191" lon="-3.44761">
        <ele>14.1</ele>
        <time>2019-07-11T13:00:14Z</time>
      </trkpt>
      <trkpt lat="48.72189" lon="-3.4476">
        <ele>14.2</ele>
        <time>2019-07-11T13:00:15Z</time>
      </trkpt>
      <trkpt lat="48.72188" lon="-3.4476">
        <ele>14.3</ele>
        <time>2019-07-11T13:00:16Z</time>
      </trkpt>
      <trkpt lat="48.72187" lon="-3.4476">
        <ele>14.4</ele>
        <time>2019-07-11T13:00:17Z</time>
      </trkpt>
      <trkpt lat="48.72185" lon="-3.44759">
        <ele>14.7</ele>
        <time>2019-07-11T13:00:18Z</time>
      </trkpt>
      <trkpt lat="48.72183" lon="-3.44759">
        <ele>15</ele>
        <time>2019-07-11T13:00:19Z</time>
      </trkpt>
      <trkpt lat="48.72182" lon="-3.44759">
        <ele>15.3</ele>
        <time>2019-07-11T13:00:20Z</time>
      </trkpt>
      <trkpt lat="48.7218" lon="-3.44758">
        <ele>15.7</ele>
        <time>2019-07-11T13:00:21Z</time>
      </trkpt>
      <trkpt lat="48.72179" lon="-3.44758">
        <ele>16</ele>
        <time>2019-07-11T13:00:22Z</time>
      </trkpt>
      <trkpt lat="48.72177" lon="-3.44757">
        <ele>16.2</ele>
        <time>2019-07-11T13:00:23Z</time>
      </trkpt>
      <trkpt lat="48.72175" lon="-3.44757">
        <ele>16.4</ele>
        <time>2019-07-11T13:00:24Z</time>
      </trkpt>
      <trkpt lat="48.72174" lon="-3.44756">
        <ele>16.6</ele>
        <time>2019-07-11T13:00:25Z</time>
      </trkpt>
      <trkpt lat="48.72172" lon="-3.44754">
        <ele>16.8</ele>
        <time>2019-07-11T13:00:26Z</time>
      </trkpt>
      <trkpt lat="48.7217" lon="-3.44753">
        <ele>17</ele>
        <time>2019-07-11T13:00:27Z</time>
      </trkpt>
      <trkpt lat="48.72169" lon="-3.44752">
        <ele>17.3</ele>
        <time>2019-07-11T13:00:28Z</time>
      </trkpt>
      <trkpt lat="48.72168" lon="-3.4475">
        <ele>17.4</ele>
        <time>2019-07-11T13:00:29Z</time>
      </trkpt>
      <trkpt lat="48.72166" lon="-3.44749">
        <ele>17.7</ele>
        <time>2019-07-11T13:00:30Z</time>
      </trkpt>
      <trkpt lat="48.72164" lon="-3.44748">
        <ele>17.9</ele>
        <time>2019-07-11T13:00:31Z</time>
      </trkpt>
      <trkpt lat="48.72162" lon="-3.44747">
        <ele>18.1</ele>
        <time>2019-07-11T13:00:32Z</time>
      </trkpt>
      <trkpt lat="48.72161" lon="-3.44746">
        <ele>18.2</ele>
        <time>2019-07-11T13:00:33Z</time>
      </trkpt>
      <trkpt lat="48.72159" lon="-3.44744">
        <ele>18.3</ele>
        <time>2019-07-11T13:00:34Z</time>
      </trkpt>
      <trkpt lat="48.72158" lon="-3.44743">
        <ele>18.5</ele>
        <time>2019-07-11T13:00:35Z</time>
      </trkpt>
      <trkpt lat="48.72157" lon="-3.44741">
        <ele>18.5</ele>
        <time>2019-07-11T13:00:36Z</time>
      </trkpt>
      <trkpt lat="48.72155" lon="-3.4474">
        <ele>18.6</ele>
        <time>2019-07-11T13:00:37Z</time>
      </trkpt>
      <trkpt lat="48.72154" lon="-3.44738">
        <ele>19.1</ele>
        <time>2019-07-11T13:00:38Z</time>
      </trkpt>
      <trkpt lat="48.72154" lon="-3.44736">
        <ele>19.8</ele>
        <time>2019-07-11T13:00:39Z</time>
      </trkpt>
      <trkpt lat="48.72152" lon="-3.44735">
        <ele>19.7</ele>
        <time>2019-07-11T13:00:40Z</time>
      </trkpt>
      <trkpt lat="48.72151" lon="-3.44733">
        <ele>19.7</ele>
        <time>2019-07-11T13:00:41Z</time>
      </trkpt>
      <trkpt lat="48.72149" lon="-3.44731">
        <ele>19.6</ele>
        <time>2019-07-11T13:00:42Z</time>
      </trkpt>
      <trkpt lat="48.72148" lon="-3.44729">
        <ele>19.6</ele>
        <time>2019-07-11T13:00:43Z</time>
      </trkpt>
      <trkpt lat="48.72147" lon="-3.44727">
        <ele>19.6</ele>
        <time>2019-07-11T13:00:44Z</time>
      </trkpt>
      <trkpt lat="48.72146" lon="-3.44725">
        <ele>19.5</ele>
        <time>2019-07-11T13:00:45Z</time>
      </trkpt>
      <trkpt lat="48.72144" lon="-3.44723">
        <ele>19.4</ele>
        <time>2019-07-11T13:00:46Z</time>
      </trkpt>
      <trkpt lat="48.72143" lon="-3.44722">
        <ele>19</ele>
        <time>2019-07-11T13:00:47Z</time>
      </trkpt>
      <trkpt lat="48.72142" lon="-3.44719">
        <ele>18.8</ele>
        <time>2019-07-11T13:00:48Z</time>
      </trkpt>
      <trkpt lat="48.72141" lon="-3.44718">
        <ele>18.6</ele>
        <time>2019-07-11T13:00:49Z</time>
      </trkpt>
      <trkpt lat="48.7214" lon="-3.44715">
        <ele>18.4</ele>
        <time>2019-07-11T13:00:50Z</time>
      </trkpt>
      <trkpt lat="48.72138" lon="-3.44713">
        <ele>18.1</ele>
        <time>2019-07-11T13:00:51Z</time>
      </trkpt>
      <trkpt lat="48.72137" lon="-3.44711">
        <ele>17.8</ele>
        <time>2019-07-11T13:00:52Z</time>
      </trkpt>
      <trkpt lat="48.72136" lon="-3.44709">
        <ele>17.6</ele>
        <time>2019-07-11T13:00:53Z</time>
      </trkpt>
      <trkpt lat="48.72135" lon="-3.44707">
        <ele>17.6</ele>
        <time>2019-07-11T13:00:54Z</time>
      </trkpt>
      <trkpt lat="48.72134" lon="-3.44704">
        <ele>17.5</ele>
        <time>2019-07-11T13:00:55Z</time>
      </trkpt>
      <trkpt lat="48.72134" lon="-3.44702">
        <ele>17.3</ele>
        <time>2019-07-11T13:00:56Z</time>
      </trkpt>
      <trkpt lat="48.72133" lon="-3.447">
        <ele>16.9</ele>
        <time>2019-07-11T13:00:57Z</time>
      </trkpt>
      <trkpt lat="48.72132" lon="-3.44697">
        <ele>16.5</ele>
        <time>2019-07-11T13:00:58Z</time>
      </trkpt>
      <trkpt lat="48.72131" lon="-3.44695">
        <ele>16.5</ele>
        <time>2019-07-11T13:00:59Z</time>
      </trkpt>
      <trkpt lat="48.72131" lon="-3.44692">
        <ele>17.3</ele>
        <time>2019-07-11T13:01:00Z</time>
      </trkpt>
      <trkpt lat="48.72131" lon="-3.44688">
        <ele>17.6</ele>
        <time>2019-07-11T13:01:01Z</time>
      </trkpt>
      <trkpt lat="48.7213" lon="-3.44685">
        <ele>17.8</ele>
        <time>2019-07-11T13:01:02Z</time>
      </trkpt>
      <trkpt lat="48.72129" lon="-3.44682">
        <ele>18.1</ele>
        <time>2019-07-11T13:01:03Z</time>
      </trkpt>
      <trkpt lat="48.72129" lon="-3.44678">
        <ele>18.6</ele>
        <time>2019-07-11T13:01:04Z</time>
      </trkpt>
      <trkpt lat="48.72128" lon="-3.44674">
        <ele>19.1</ele>
        <time>2019-07-11T13:01:05Z</time>
      </trkpt>
      <trkpt lat="48.72128" lon="-3.4467">
        <ele>19.6</ele>
        <time>2019-07-11T13:01:06Z</time>
      </trkpt>
      <trkpt lat="48.72128" lon="-3.44666">
        <ele>20.2</ele>
        <time>2019-07-11T13:01:07Z</time>
      </trkpt>
      <trkpt lat="48.72127" lon="-3.44662">
        <ele>20.5</ele>
        <time>2019-07-11T13:01:08Z</time>
      </trkpt>
      <trkpt lat="48.72126" lon="-3.44658">
        <ele>20.9</ele>
        <time>2019-07-11T13:01:09Z</time>
      </trkpt>
      <trkpt lat="48.72126" lon="-3.44653">
        <ele>21.1</ele>
        <time>2019-07-11T13:01:10Z</time>
      </trkpt>
      <trkpt lat="48.72126" lon="-3.44649">
        <ele>21.7</ele>
        <time>2019-07-11T13:01:11Z</time>
      </trkpt>
      <trkpt lat="48.72126" lon="-3.44644">
        <ele>22</ele>
        <time>2019-07-11T13:01:12Z</time>
      </trkpt>
      <trkpt lat="48.72126" lon="-3.44639">
        <ele>22.4</ele>
        <time>2019-07-11T13:01:13Z</time>
      </trkpt>
      <trkpt lat="48.72127" lon="-3.44634">
        <ele>22.5</ele>
        <time>2019-07-11T13:01:14Z</time>
      </trkpt>
      <trkpt lat="48.72127" lon="-3.44629">
        <ele>22.9</ele>
        <time>2019-07-11T13:01:15Z</time>
      </trkpt>
      <trkpt lat="48.72127" lon="-3.44624">
        <ele>22.7</ele>
        <time>2019-07-11T13:01:16Z</time>
      </trkpt>
      <trkpt lat="48.72128" lon="-3.44619">
        <ele>22.5</ele>
        <time>2019-07-11T13:01:17Z</time>
      </trkpt>
      <trkpt lat="48.72128" lon="-3.44615">
        <ele>22.4</ele>
        <time>2019-07-11T13:01:18Z</time>
      </trkpt>
      <trkpt lat="48.72128" lon="-3.44611">
        <ele>22.3</ele>
        <time>2019-07-11T13:01:19Z</time>
      </trkpt>
      <trkpt lat="48.72128" lon="-3.44607">
        <ele>22.3</ele>
        <time>2019-07-11T13:01:20Z</time>
      </trkpt>
      <trkpt lat="48.72128" lon="-3.44603">
        <ele>22.4</ele>
        <time>2019-07-11T13:01:21Z</time>
      </trkpt>
      <trkpt lat="48.72128" lon="-3.446">
        <ele>22.5</ele>
        <time>2019-07-11T13:01:22Z</time>
      </trkpt>
      <trkpt lat="48.72127" lon="-3.44596">
        <ele>22.4</ele>
        <time>2019-07-11T13:01:23Z</time>
      </trkpt>
      <trkpt lat="48.72128" lon="-3.44592">
        <ele>22.8</ele>
        <time>2019-07-11T13:01:24Z</time>
      </trkpt>
      <trkpt lat="48.72128" lon="-3.44589">
        <ele>23.2</ele>
        <time>2019-07-11T13:01:25Z</time>
      </trkpt>
      <trkpt lat="48.72127" lon="-3.44586">
        <ele>23.7</ele>
        <time>2019-07-11T13:01:26Z</time>
      </trkpt>
      <trkpt lat="48.72127" lon="-3.44583">
        <ele>23.7</ele>
        <time>2019-07-11T13:01:27Z</time>
      </trkpt>
      <trkpt lat="48.72126" lon="-3.44579">
        <ele>23.7</ele>
        <time>2019-07-11T13:01:28Z</time>
      </trkpt>
      <trkpt lat="48.72125" lon="-3.44576">
        <ele>24.1</ele>
        <time>2019-07-11T13:01:29Z</time>
      </trkpt>
      <trkpt lat="48.72125" lon="-3.44573">
        <ele>24.4</ele>
        <time>2019-07-11T13:01:30Z</time>
      </trkpt>
      <trkpt lat="48.72125" lon="-3.4457">
        <ele>24.8</ele>
        <time>2019-07-11T13:01:31Z</time>
      </trkpt>
      <trkpt lat="48.72124" lon="-3.44568">
        <ele>25.1</ele>
        <time>2019-07-11T13:01:32Z</time>
      </trkpt>
      <trkpt lat="48.72123" lon="-3.44566">
        <ele>25.5</ele>
        <time>2019-07-11T13:01:33Z</time>
      </trkpt>
      <trkpt lat="48.72123" lon="-3.44564">
        <ele>25.9</ele>
        <time>2019-07-11T13:01:34Z</time>
      </trkpt>
      <trkpt lat="48.72123" lon="-3.44561">
        <ele>26.3</ele>
        <time>2019-07-11T13:01:35Z</time>
      </trkpt>
      <trkpt lat="48.72122" lon="-3.44559">
        <ele>26.9</ele>
        <time>2019-07-11T13:01:36Z</time>
      </trkpt>
      <trkpt lat="48.72122" lon="-3.44557">
        <ele>27.1</ele>
        <time>2019-07-11T13:01:37Z</time>
      </trkpt>
      <trkpt lat="48.72121" lon="-3.44556">
        <ele>27.3</ele>
        <time>2019-07-11T13:01:38Z</time>
      </trkpt>
      <trkpt lat="48.72121" lon="-3.44554">
        <ele>27.7</ele>
        <time>2019-07-11T13:01:39Z</time>
      </trkpt>
      <trkpt lat="48.7212" lon="-3.44552">
        <ele>28</ele>
        <time>2019-07-11T13:01:40Z</time>
      </trkpt>
      <trkpt lat="48.7212" lon="-3.44549">
        <ele>28</ele>
        <time>2019-07-11T13:01:41Z</time>
      </trkpt>
      <trkpt lat="48.7212" lon="-3.44548">
        <ele>28.2</ele>
        <time>2019-07-11T13:01:42Z</time>
      </trkpt>
      <trkpt lat="48.72119" lon="-3.44546">
        <ele>28.6</ele>
        <time>2019-07-11T13:01:43Z</time>
      </trkpt>
      <trkpt lat="48.72118" lon="-3.44544">
        <ele>28.8</ele>
        <time>2019-07-11T13:01:44Z</time>
      </trkpt>
      <trkpt lat="48.72118" lon="-3.44541">
        <ele>28.7</ele>
        <time>2019-07-11T13:01:45Z</time>
      </trkpt>
      <trkpt lat="48.72117" lon="-3.44537">
        <ele>28.4</ele>
        <time>2019-07-11T13:01:46Z</time>
      </trkpt>
      <trkpt lat="48.72117" lon="-3.44534">
        <ele>28.4</ele>
        <time>2019-07-11T13:01:47Z</time>
      </trkpt>
      <trkpt lat="48.72117" lon="-3.44531">
        <ele>28.1</ele>
        <time>2019-07-11T13:01:48Z</time>
      </trkpt>
      <trkpt lat="48.72115" lon="-3.44529">
        <ele>27.9</ele>
        <time>2019-07-11T13:01:49Z</time>
      </trkpt>
      <trkpt lat="48.72115" lon="-3.44526">
        <ele>28</ele>
        <time>2019-07-11T13:01:50Z</time>
      </trkpt>
      <trkpt lat="48.72113" lon="-3.44524">
        <ele>28.1</ele>
        <time>2019-07-11T13:01:51Z</time>
      </trkpt>
      <trkpt lat="48.72112" lon="-3.4452">
        <ele>27.8</ele>
        <time>2019-07-11T13:01:52Z</time>
      </trkpt>
      <trkpt lat="48.7211" lon="-3.44518">
        <ele>27.7</ele>
        <time>2019-07-11T13:01:53Z</time>
      </trkpt>
      <trkpt lat="48.72108" lon="-3.44515">
        <ele>27.7</ele>
        <time>2019-07-11T13:01:54Z</time>
      </trkpt>
      <trkpt lat="48.72107" lon="-3.44513">
        <ele>27.5</ele>
        <time>2019-07-11T13:01:55Z</time>
      </trkpt>
      <trkpt lat="48.72105" lon="-3.44511">
        <ele>27.5</ele>
        <time>2019-07-11T13:01:56Z</time>
      </trkpt>
      <trkpt lat="48.72104" lon="-3.44509">
        <ele>27.8</ele>
        <time>2019-07-11T13:01:57Z</time>
      </trkpt>
      <trkpt lat="48.72102" lon="-3.44507">
        <ele>28.1</ele>
        <time>2019-07-11T13:01:58Z</time>
      </trkpt>
      <trkpt lat="48.72101" lon="-3.44505">
        <ele>28.5</ele>
        <time>2019-07-11T13:01:59Z</time>
      </trkpt>
      <trkpt lat="48.72099" lon="-3.44504">
        <ele>28.9</ele>
        <time>2019-07-11T13:02:00Z</time>
      </trkpt>
      <trkpt lat="48.72097" lon="-3.44502">
        <ele>29.3</ele>
        <time>2019-07-11T13:02:01Z</time>
      </trkpt>
      <trkpt lat="48.72096" lon="-3.44501">
        <ele>29.5</ele>
        <time>2019-07-11T13:02:02Z</time>
      </trkpt>
      <trkpt lat="48.72094" lon="-3.44499">
        <ele>29.8</ele>
        <time>2019-07-11T13:02:03Z</time>
      </trkpt>
      <trkpt lat="48.72092" lon="-3.44498">
        <ele>30.3</ele>
        <time>2019-07-11T13:02:04Z</time>
      </trkpt>
      <trkpt lat="48.72092" lon="-3.44497">
        <ele>30.6</ele>
        <time>2019-07-11T13:02:05Z</time>
      </trkpt>
      <trkpt lat="48.72091" lon="-3.44496">
        <ele>31.1</ele>
        <time>2019-07-11T13:02:06Z</time>
      </trkpt>
      <trkpt lat="48.7209" lon="-3.44495">
        <ele>31.3</ele>
        <time>2019-07-11T13:02:07Z</time>
      </trkpt>
      <trkpt lat="48.72088" lon="-3.44493">
        <ele>31.3</ele>
        <time>2019-07-11T13:02:08Z</time>
      </trkpt>
      <trkpt lat="48.72086" lon="-3.44491">
        <ele>31.3</ele>
        <time>2019-07-11T13:02:09Z</time>
      </trkpt>
      <trkpt lat="48.72084" lon="-3.44489">
        <ele>31.1</ele>
        <time>2019-07-11T13:02:10Z</time>
      </trkpt>
      <trkpt lat="48.72083" lon="-3.44487">
        <ele>31.2</ele>
        <time>2019-07-11T13:02:11Z</time>
      </trkpt>
      <trkpt lat="48.72081" lon="-3.44486">
        <ele>31.5</ele>
        <time>2019-07-11T13:02:12Z</time>
      </trkpt>
      <trkpt lat="48.7208" lon="-3.44484">
        <ele>31.3</ele>
        <time>2019-07-11T13:02:13Z</time>
      </trkpt>
      <trkpt lat="48.72078" lon="-3.44483">
        <ele>31</ele>
        <time>2019-07-11T13:02:14Z</time>
      </trkpt>
      <trkpt lat="48.72076" lon="-3.44482">
        <ele>30.8</ele>
        <time>2019-07-11T13:02:15Z</time>
      </trkpt>
      <trkpt lat="48.72075" lon="-3.44481">
        <ele>30.9</ele>
        <time>2019-07-11T13:02:16Z</time>
      </trkpt>
      <trkpt lat="48.72073" lon="-3.4448">
        <ele>30.9</ele>
        <time>2019-07-11T13:02:17Z</time>
      </trkpt>
      <trkpt lat="48.72072" lon="-3.44479">
        <ele>31.1</ele>
        <time>2019-07-11T13:02:18Z</time>
      </trkpt>
      <trkpt lat="48.7207" lon="-3.44477">
        <ele>31.3</ele>
        <time>2019-07-11T13:02:19Z</time>
      </trkpt>
      <trkpt lat="48.72069" lon="-3.44476">
        <ele>31.2</ele>
        <time>2019-07-11T13:02:20Z</time>
      </trkpt>
      <trkpt lat="48.72067" lon="-3.44476">
        <ele>31.4</ele>
        <time>2019-07-11T13:02:21Z</time>
      </trkpt>
      <trkpt lat="48.72066" lon="-3.44475">
        <ele>31.4</ele>
        <time>2019-07-11T13:02:22Z</time>
      </trkpt>
      <trkpt lat="48.72065" lon="-3.44474">
        <ele>31.5</ele>
        <time>2019-07-11T13:02:23Z</time>
      </trkpt>
      <trkpt lat="48.72063" lon="-3.44473">
        <ele>31.7</ele>
        <time>2019-07-11T13:02:24Z</time>
      </trkpt>
      <trkpt lat="48.72062" lon="-3.44472">
        <ele>31.8</ele>
        <time>2019-07-11T13:02:25Z</time>
      </trkpt>
      <trkpt lat="48.7206" lon="-3.44471">
        <ele>32</ele>
        <time>2019-07-11T13:02:26Z</time>
      </trkpt>
      <trkpt lat="48.72059" lon="-3.4447">
        <ele>32.2</ele>
        <time>2019-07-11T13:02:27Z</time>
      </trkpt>
      <trkpt lat="48.72058" lon="-3.44469">
        <ele>32.5</ele>
        <time>2019-07-11T13:02:28Z</time>
      </trkpt>
      <trkpt lat="48.72057" lon="-3.44468">
        <ele>32.5</ele>
        <time>2019-07-11T13:02:29Z</time>
      </trkpt>
      <trkpt lat="48.72055" lon="-3.44468">
        <ele>32.6</ele>
        <time>2019-07-11T13:02:30Z</time>
      </trkpt>
      <trkpt lat="48.72053" lon="-3.44467">
        <ele>32.9</ele>
        <time>2019-07-11T13:02:31Z</time>
      </trkpt>
      <trkpt lat="48.72052" lon="-3.44466">
        <ele>33</ele>
        <time>2019-07-11T13:02:32Z</time>
      </trkpt>
      <trkpt lat="48.7205" lon="-3.44465">
        <ele>33</ele>
        <time>2019-07-11T13:02:33Z</time>
      </trkpt>
      <trkpt lat="48.72048" lon="-3.44465">
        <ele>33.1</ele>
        <time>2019-07-11T13:02:34Z</time>
      </trkpt>
      <trkpt lat="48.72046" lon="-3.44464">
        <ele>33.1</ele>
        <time>2019-07-11T13:02:35Z</time>
      </trkpt>
      <trkpt lat="48.72044" lon="-3.44463">
        <ele>32.8</ele>
        <time>2019-07-11T13:02:36Z</time>
      </trkpt>
      <trkpt lat="48.72042" lon="-3.44462">
        <ele>32.7</ele>
        <time>2019-07-11T13:02:37Z</time>
      </trkpt>
      <trkpt lat="48.7204" lon="-3.44462">
        <ele>32.7</ele>
        <time>2019-07-11T13:02:38Z</time>
      </trkpt>
      <trkpt lat="48.72038" lon="-3.44462">
        <ele>32.7</ele>
        <time>2019-07-11T13:02:39Z</time>
      </trkpt>
      <trkpt lat="48.72037" lon="-3.44461">
        <ele>32.7</ele>
        <time>2019-07-11T13:02:40Z</time>
      </trkpt>
      <trkpt lat="48.72035" lon="-3.44461">
        <ele>32.8</ele>
        <time>2019-07-11T13:02:41Z</time>
      </trkpt>
      <trkpt lat="48.72033" lon="-3.44462">
        <ele>33.1</ele>
        <time>2019-07-11T13:02:42Z</time>
      </trkpt>
      <trkpt lat="48.72032" lon="-3.44463">
        <ele>33.4</ele>
        <time>2019-07-11T13:02:43Z</time>
      </trkpt>
      <trkpt lat="48.72031" lon="-3.44463">
        <ele>33.6</ele>
        <time>2019-07-11T13:02:44Z</time>
      </trkpt>
      <trkpt lat="48.72029" lon="-3.44464">
        <ele>33.8</ele>
        <time>2019-07-11T13:02:45Z</time>
      </trkpt>
      <trkpt lat="48.72028" lon="-3.44466">
        <ele>33.9</ele>
        <time>2019-07-11T13:02:46Z</time>
      </trkpt>
      <trkpt lat="48.72027" lon="-3.44468">
        <ele>34.1</ele>
        <time>2019-07-11T13:02:47Z</time>
      </trkpt>
      <trkpt lat="48.72026" lon="-3.4447">
        <ele>34.2</ele>
        <time>2019-07-11T13:02:48Z</time>
      </trkpt>
      <trkpt lat="48.72026" lon="-3.44473">
        <ele>34.3</ele>
        <time>2019-07-11T13:02:49Z</time>
      </trkpt>
      <trkpt lat="48.72025" lon="-3.44475">
        <ele>34.4</ele>
        <time>2019-07-11T13:02:50Z</time>
      </trkpt>
      <trkpt lat="48.72023" lon="-3.44477">
        <ele>34.3</ele>
        <time>2019-07-11T13:02:51Z</time>
      </trkpt>
      <trkpt lat="48.72023" lon="-3.4448">
        <ele>34.1</ele>
        <time>2019-07-11T13:02:52Z</time>
      </trkpt>
      <trkpt lat="48.72023" lon="-3.44482">
        <ele>33.9</ele>
        <time>2019-07-11T13:02:53Z</time>
      </trkpt>
      <trkpt lat="48.72023" lon="-3.44484">
        <ele>33.8</ele>
        <time>2019-07-11T13:02:54Z</time>
      </trkpt>
      <trkpt lat="48.72023" lon="-3.44486">
        <ele>33.8</ele>
        <time>2019-07-11T13:02:55Z</time>
      </trkpt>
      <trkpt lat="48.72023" lon="-3.44488">
        <ele>33.9</ele>
        <time>2019-07-11T13:02:56Z</time>
      </trkpt>
      <trkpt lat="48.72023" lon="-3.44491">
        <ele>33.8</ele>
        <time>2019-07-11T13:02:57Z</time>
      </trkpt>
      <trkpt lat="48.72023" lon="-3.44493">
        <ele>34</ele>
        <time>2019-07-11T13:02:58Z</time>
      </trkpt>
      <trkpt lat="48.72023" lon="-3.44495">
        <ele>34.2</ele>
        <time>2019-07-11T13:02:59Z</time>
      </trkpt>
      <trkpt lat="48.72023" lon="-3.44498">
        <ele>34.5</ele>
        <time>2019-07-11T13:03:00Z</time>
      </trkpt>
      <trkpt lat="48.72023" lon="-3.44501">
        <ele>34.7</ele>
        <time>2019-07-11T13:03:01Z</time>
      </trkpt>
      <trkpt lat="48.72023" lon="-3.44503">
        <ele>34.8</ele>
        <time>2019-07-11T13:03:02Z</time>
      </trkpt>
      <trkpt lat="48.72024" lon="-3.44506">
        <ele>35</ele>
        <time>2019-07-11T13:03:03Z</time>
      </trkpt>
      <trkpt lat="48.72024" lon="-3.44508">
        <ele>35.3</ele>
        <time>2019-07-11T13:03:04Z</time>
      </trkpt>
      <trkpt lat="48.72024" lon="-3.44511">
        <ele>35.3</ele>
        <time>2019-07-11T13:03:05Z</time>
      </trkpt>
      <trkpt lat="48.72024" lon="-3.44514">
        <ele>35.4</ele>
        <time>2019-07-11T13:03:06Z</time>
      </trkpt>
      <trkpt lat="48.72024" lon="-3.44516">
        <ele>35.2</ele>
        <time>2019-07-11T13:03:07Z</time>
      </trkpt>
      <trkpt lat="48.72024" lon="-3.44519">
        <ele>35.3</ele>
        <time>2019-07-11T13:03:08Z</time>
      </trkpt>
      <trkpt lat="48.72025" lon="-3.44521">
        <ele>35.3</ele>
        <time>2019-07-11T13:03:09Z</time>
      </trkpt>
      <trkpt lat="48.72025" lon="-3.44523">
        <ele>35.6</ele>
        <time>2019-07-11T13:03:10Z</time>
      </trkpt>
      <trkpt lat="48.72025" lon="-3.44526">
        <ele>35.8</ele>
        <time>2019-07-11T13:03:11Z</time>
      </trkpt>
      <trkpt lat="48.72025" lon="-3.44528">
        <ele>36</ele>
        <time>2019-07-11T13:03:12Z</time>
      </trkpt>
      <trkpt lat="48.72025" lon="-3.44531">
        <ele>36.3</ele>
        <time>2019-07-11T13:03:13Z</time>
      </trkpt>
      <trkpt lat="48.72025" lon="-3.44534">
        <ele>36.5</ele>
        <time>2019-07-11T13:03:14Z</time>
      </trkpt>
      <trkpt lat="48.72025" lon="-3.44536">
        <ele>36.8</ele>
        <time>2019-07-11T13:03:15Z</time>
      </trkpt>
      <trkpt lat="48.72025" lon="-3.44539">
        <ele>36.8</ele>
        <time>2019-07-11T13:03:16Z</time>
      </trkpt>
      <trkpt lat="48.72025" lon="-3.44541">
        <ele>36.8</ele>
        <time>2019-07-11T13:03:17Z</time>
      </trkpt>
      <trkpt lat="48.72026" lon="-3.44544">
        <ele>37</ele>
        <time>2019-07-11T13:03:18Z</time>
      </trkpt>
      <trkpt lat="48.72026" lon="-3.44547">
        <ele>37.3</ele>
        <time>2019-07-11T13:03:19Z</time>
      </trkpt>
      <trkpt lat="48.72026" lon="-3.44549">
        <ele>37.9</ele>
        <time>2019-07-11T13:03:20Z</time>
      </trkpt>
      <trkpt lat="48.72026" lon="-3.44552">
        <ele>38.3</ele>
        <time>2019-07-11T13:03:21Z</time>
      </trkpt>
      <trkpt lat="48.72025" lon="-3.44554">
        <ele>38.6</ele>
        <time>2019-07-11T13:03:22Z</time>
      </trkpt>
      <trkpt lat="48.72026" lon="-3.44557">
        <ele>38.8</ele>
        <time>2019-07-11T13:03:23Z</time>
      </trkpt>
      <trkpt lat="48.72026" lon="-3.44559">
        <ele>39</ele>
        <time>2019-07-11T13:03:24Z</time>
      </trkpt>
      <trkpt lat="48.72026" lon="-3.44561">
        <ele>39.3</ele>
        <time>2019-07-11T13:03:25Z</time>
      </trkpt>
      <trkpt lat="48.72026" lon="-3.44564">
        <ele>39.6</ele>
        <time>2019-07-11T13:03:26Z</time>
      </trkpt>
      <trkpt lat="48.72026" lon="-3.44567">
        <ele>39.8</ele>
        <time>2019-07-11T13:03:27Z</time>
      </trkpt>
      <trkpt lat="48.72027" lon="-3.44569">
        <ele>39.9</ele>
        <time>2019-07-11T13:03:28Z</time>
      </trkpt>
      <trkpt lat="48.72027" lon="-3.44572">
        <ele>40.1</ele>
        <time>2019-07-11T13:03:29Z</time>
      </trkpt>
      <trkpt lat="48.72027" lon="-3.44574">
        <ele>40.1</ele>
        <time>2019-07-11T13:03:30Z</time>
      </trkpt>
      <trkpt lat="48.72028" lon="-3.44577">
        <ele>40.3</ele>
        <time>2019-07-11T13:03:31Z</time>
      </trkpt>
      <trkpt lat="48.72028" lon="-3.44579">
        <ele>40.4</ele>
        <time>2019-07-11T13:03:32Z</time>
      </trkpt>
      <trkpt lat="48.72028" lon="-3.44582">
        <ele>40.8</ele>
        <time>2019-07-11T13:03:33Z</time>
      </trkpt>
      <trkpt lat="48.72028" lon="-3.44584">
        <ele>41.1</ele>
        <time>2019-07-11T13:03:34Z</time>
      </trkpt>
      <trkpt lat="48.72028" lon="-3.44587">
        <ele>41.5</ele>
        <time>2019-07-11T13:03:35Z</time>
      </trkpt>
      <trkpt lat="48.72028" lon="-3.44589">
        <ele>41.8</ele>
        <time>2019-07-11T13:03:36Z</time>
      </trkpt>
      <trkpt lat="48.72029" lon="-3.44591">
        <ele>42.1</ele>
        <time>2019-07-11T13:03:37Z</time>
      </trkpt>
      <trkpt lat="48.72029" lon="-3.44594">
        <ele>42.3</ele>
        <time>2019-07-11T13:03:38Z</time>
      </trkpt>
      <trkpt lat="48.72029" lon="-3.44597">
        <ele>42.7</ele>
        <time>2019-07-11T13:03:39Z</time>
      </trkpt>
      <trkpt lat="48.72029" lon="-3.44599">
        <ele>43</ele>
        <time>2019-07-11T13:03:40Z</time>
      </trkpt>
      <trkpt lat="48.72029" lon="-3.44602">
        <ele>43.1</ele>
        <time>2019-07-11T13:03:41Z</time>
      </trkpt>
      <trkpt lat="48.7203" lon="-3.44605">
        <ele>43.2</ele>
        <time>2019-07-11T13:03:42Z</time>
      </trkpt>
      <trkpt lat="48.7203" lon="-3.44608">
        <ele>43.3</ele>
        <time>2019-07-11T13:03:43Z</time>
      </trkpt>
      <trkpt lat="48.7203" lon="-3.4461">
        <ele>43.4</ele>
        <time>2019-07-11T13:03:44Z</time>
      </trkpt>
      <trkpt lat="48.7203" lon="-3.44613">
        <ele>43.6</ele>
        <time>2019-07-11T13:03:45Z</time>
      </trkpt>
      <trkpt lat="48.7203" lon="-3.44616">
        <ele>43.8</ele>
        <time>2019-07-11T13:03:46Z</time>
      </trkpt>
      <trkpt lat="48.7203" lon="-3.44618">
        <ele>44</ele>
        <time>2019-07-11T13:03:47Z</time>
      </trkpt>
      <trkpt lat="48.7203" lon="-3.44621">
        <ele>44</ele>
        <time>2019-07-11T13:03:48Z</time>
      </trkpt>
      <trkpt lat="48.7203" lon="-3.44624">
        <ele>44.1</ele>
        <time>2019-07-11T13:03:49Z</time>
      </trkpt>
      <trkpt lat="48.72031" lon="-3.44626">
        <ele>44.2</ele>
        <time>2019-07-11T13:03:50Z</time>
      </trkpt>
      <trkpt lat="48.72031" lon="-3.44628">
        <ele>44.3</ele>
        <time>2019-07-11T13:03:51Z</time>
      </trkpt>
      <trkpt lat="48.72031" lon="-3.44631">
        <ele>44.2</ele>
        <time>2019-07-11T13:03:52Z</time>
      </trkpt>
      <trkpt lat="48.72032" lon="-3.44633">
        <ele>44.4</ele>
        <time>2019-07-11T13:03:53Z</time>
      </trkpt>
      <trkpt lat="48.72032" lon="-3.44635">
        <ele>44.4</ele>
        <time>2019-07-11T13:03:54Z</time>
      </trkpt>
      <trkpt lat="48.72032" lon="-3.44638">
        <ele>44.5</ele>
        <time>2019-07-11T13:03:55Z</time>
      </trkpt>
      <trkpt lat="48.72032" lon="-3.4464">
        <ele>44.5</ele>
        <time>2019-07-11T13:03:56Z</time>
      </trkpt>
      <trkpt lat="48.72031" lon="-3.44643">
        <ele>44.7</ele>
        <time>2019-07-11T13:03:57Z</time>
      </trkpt>
      <trkpt lat="48.72031" lon="-3.44645">
        <ele>45</ele>
        <time>2019-07-11T13:03:58Z</time>
      </trkpt>
      <trkpt lat="48.72031" lon="-3.44648">
        <ele>45.2</ele>
        <time>2019-07-11T13:03:59Z</time>
      </trkpt>
      <trkpt lat="48.72031" lon="-3.44651">
        <ele>45.3</ele>
        <time>2019-07-11T13:04:00Z</time>
      </trkpt>
      <trkpt lat="48.72032" lon="-3.44653">
        <ele>45.5</ele>
        <time>2019-07-11T13:04:01Z</time>
      </trkpt>
      <trkpt lat="48.72032" lon="-3.44656">
        <ele>45.7</ele>
        <time>2019-07-11T13:04:02Z</time>
      </trkpt>
      <trkpt lat="48.72033" lon="-3.44658">
        <ele>45.9</ele>
        <time>2019-07-11T13:04:03Z</time>
      </trkpt>
      <trkpt lat="48.72033" lon="-3.44661">
        <ele>45.9</ele>
        <time>2019-07-11T13:04:04Z</time>
      </trkpt>
      <trkpt lat="48.72033" lon="-3.44663">
        <ele>46.2</ele>
        <time>2019-07-11T13:04:05Z</time>
      </trkpt>
      <trkpt lat="48.72032" lon="-3.44666">
        <ele>46.3</ele>
        <time>2019-07-11T13:04:06Z</time>
      </trkpt>
      <trkpt lat="48.72033" lon="-3.44668">
        <ele>46.4</ele>
        <time>2019-07-11T13:04:07Z</time>
      </trkpt>
      <trkpt lat="48.72033" lon="-3.44671">
        <ele>46.5</ele>
        <time>2019-07-11T13:04:08Z</time>
      </trkpt>
      <trkpt lat="48.72033" lon="-3.44673">
        <ele>46.7</ele>
        <time>2019-07-11T13:04:09Z</time>
      </trkpt>
      <trkpt lat="48.72033" lon="-3.44676">
        <ele>47.1</ele>
        <time>2019-07-11T13:04:10Z</time>
      </trkpt>
      <trkpt lat="48.72032" lon="-3.44679">
        <ele>47.2</ele>
        <time>2019-07-11T13:04:11Z</time>
      </trkpt>
      <trkpt lat="48.72032" lon="-3.44682">
        <ele>47.3</ele>
        <time>2019-07-11T13:04:12Z</time>
      </trkpt>
      <trkpt lat="48.72032" lon="-3.44685">
        <ele>47.4</ele>
        <time>2019-07-11T13:04:13Z</time>
      </trkpt>
      <trkpt lat="48.72032" lon="-3.44688">
        <ele>47.3</ele>
        <time>2019-07-11T13:04:14Z</time>
      </trkpt>
      <trkpt lat="48.72031" lon="-3.44691">
        <ele>47.5</ele>
        <time>2019-07-11T13:04:15Z</time>
      </trkpt>
      <trkpt lat="48.72031" lon="-3.44693">
        <ele>47.5</ele>
        <time>2019-07-11T13:04:16Z</time>
      </trkpt>
      <trkpt lat="48.72031" lon="-3.44696">
        <ele>47.6</ele>
        <time>2019-07-11T13:04:17Z</time>
      </trkpt>
      <trkpt lat="48.72031" lon="-3.44699">
        <ele>47.5</ele>
        <time>2019-07-11T13:04:18Z</time>
      </trkpt>
      <trkpt lat="48.7203" lon="-3.44701">
        <ele>47.4</ele>
        <time>2019-07-11T13:04:19Z</time>
      </trkpt>
      <trkpt lat="48.7203" lon="-3.44704">
        <ele>47.3</ele>
        <time>2019-07-11T13:04:20Z</time>
      </trkpt>
      <trkpt lat="48.7203" lon="-3.44707">
        <ele>47.2</ele>
        <time>2019-07-11T13:04:21Z</time>
      </trkpt>
      <trkpt lat="48.72029" lon="-3.44709">
        <ele>46.9</ele>
        <time>2019-07-11T13:04:22Z</time>
      </trkpt>
      <trkpt lat="48.72029" lon="-3.44712">
        <ele>46.9</ele>
        <time>2019-07-11T13:04:23Z</time>
      </trkpt>
      <trkpt lat="48.72029" lon="-3.44714">
        <ele>47.1</ele>
        <time>2019-07-11T13:04:24Z</time>
      </trkpt>
      <trkpt lat="48.72029" lon="-3.44717">
        <ele>47.2</ele>
        <time>2019-07-11T13:04:25Z</time>
      </trkpt>
      <trkpt lat="48.72029" lon="-3.4472">
        <ele>47.5</ele>
        <time>2019-07-11T13:04:26Z</time>
      </trkpt>
      <trkpt lat="48.72029" lon="-3.44722">
        <ele>47.7</ele>
        <time>2019-07-11T13:04:27Z</time>
      </trkpt>
      <trkpt lat="48.72029" lon="-3.44725">
        <ele>48</ele>
        <time>2019-07-11T13:04:28Z</time>
      </trkpt>
      <trkpt lat="48.72029" lon="-3.44727">
        <ele>48.2</ele>
        <time>2019-07-11T13:04:29Z</time>
      </trkpt>
      <trkpt lat="48.72028" lon="-3.4473">
        <ele>48.4</ele>
        <time>2019-07-11T13:04:30Z</time>
      </trkpt>
      <trkpt lat="48.72028" lon="-3.44732">
        <ele>48.4</ele>
        <time>2019-07-11T13:04:31Z</time>
      </trkpt>
      <trkpt lat="48.72028" lon="-3.44735">
        <ele>48.5</ele>
        <time>2019-07-11T13:04:32Z</time>
      </trkpt>
      <trkpt lat="48.72028" lon="-3.44738">
        <ele>48.3</ele>
        <time>2019-07-11T13:04:33Z</time>
      </trkpt>
      <trkpt lat="48.72028" lon="-3.44741">
        <ele>48.2</ele>
        <time>2019-07-11T13:04:34Z</time>
      </trkpt>
      <trkpt lat="48.72028" lon="-3.44744">
        <ele>48.3</ele>
        <time>2019-07-11T13:04:35Z</time>
      </trkpt>
      <trkpt lat="48.72028" lon="-3.44747">
        <ele>48.3</ele>
        <time>2019-07-11T13:04:36Z</time>
      </trkpt>
      <trkpt lat="48.72028" lon="-3.44749">
        <ele>48.4</ele>
        <time>2019-07-11T13:04:37Z</time>
      </trkpt>
      <trkpt lat="48.72028" lon="-3.44752">
        <ele>48.6</ele>
        <time>2019-07-11T13:04:38Z</time>
      </trkpt>
      <trkpt lat="48.72028" lon="-3.44755">
        <ele>48.8</ele>
        <time>2019-07-11T13:04:39Z</time>
      </trkpt>
      <trkpt lat="48.72028" lon="-3.44757">
        <ele>48.6</ele>
        <time>2019-07-11T13:04:40Z</time>
      </trkpt>
      <trkpt lat="48.72028" lon="-3.4476">
        <ele>48.6</ele>
        <time>2019-07-11T13:04:41Z</time>
      </trkpt>
      <trkpt lat="48.72028" lon="-3.44763">
        <ele>48.5</ele>
        <time>2019-07-11T13:04:42Z</time>
      </trkpt>
      <trkpt lat="48.72028" lon="-3.44765">
        <ele>48.5</ele>
        <time>2019-07-11T13:04:43Z</time>
      </trkpt>
      <trkpt lat="48.72027" lon="-3.44768">
        <ele>48.4</ele>
        <time>2019-07-11T13:04:44Z</time>
      </trkpt>
      <trkpt lat="48.72028" lon="-3.44771">
        <ele>48.5</ele>
        <time>2019-07-11T13:04:45Z</time>
      </trkpt>
      <trkpt lat="48.72028" lon="-3.44774">
        <ele>48.7</ele>
        <time>2019-07-11T13:04:46Z</time>
      </trkpt>
      <trkpt lat="48.72027" lon="-3.44777">
        <ele>48.9</ele>
        <time>2019-07-11T13:04:47Z</time>
      </trkpt>
      <trkpt lat="48.72028" lon="-3.4478">
        <ele>49.2</ele>
        <time>2019-07-11T13:04:48Z</time>
      </trkpt>
      <trkpt lat="48.72028" lon="-3.44782">
        <ele>49.6</ele>
        <time>2019-07-11T13:04:49Z</time>
      </trkpt>
      <trkpt lat="48.72028" lon="-3.44785">
        <ele>49.9</ele>
        <time>2019-07-11T13:04:50Z</time>
      </trkpt>
      <trkpt lat="48.72029" lon="-3.44787">
        <ele>50.5</ele>
        <time>2019-07-11T13:04:51Z</time>
      </trkpt>
      <trkpt lat="48.72029" lon="-3.4479">
        <ele>50.8</ele>
        <time>2019-07-11T13:04:52Z</time>
      </trkpt>
      <trkpt lat="48.72028" lon="-3.44793">
        <ele>51.1</ele>
        <time>2019-07-11T13:04:53Z</time>
      </trkpt>
      <trkpt lat="48.72028" lon="-3.44795">
        <ele>51.2</ele>
        <time>2019-07-11T13:04:54Z</time>
      </trkpt>
      <trkpt lat="48.72028" lon="-3.44798">
        <ele>51.3</ele>
        <time>2019-07-11T13:04:55Z</time>
      </trkpt>
      <trkpt lat="48.72028" lon="-3.44801">
        <ele>51.5</ele>
        <time>2019-07-11T13:04:56Z</time>
      </trkpt>
      <trkpt lat="48.72028" lon="-3.44804">
        <ele>51.4</ele>
        <time>2019-07-11T13:04:57Z</time>
      </trkpt>
      <trkpt lat="48.72028" lon="-3.44807">
        <ele>51.4</ele>
        <time>2019-07-11T13:04:58Z</time>
      </trkpt>
      <trkpt lat="48.72027" lon="-3.44809">
        <ele>51.3</ele>
        <time>2019-07-11T13:04:59Z</time>
      </trkpt>
      <trkpt lat="48.72027" lon="-3.44812">
        <ele>51.2</ele>
        <time>2019-07-11T13:05:00Z</time>
      </trkpt>
      <trkpt lat="48.72026" lon="-3.44815">
        <ele>50.9</ele>
        <time>2019-07-11T13:05:01Z</time>
      </trkpt>
      <trkpt lat="48.72026" lon="-3.44818">
        <ele>50.6</ele>
        <time>2019-07-11T13:05:02Z</time>
      </trkpt>
      <trkpt lat="48.72025" lon="-3.44821">
        <ele>50.3</ele>
        <time>2019-07-11T13:05:03Z</time>
      </trkpt>
      <trkpt lat="48.72024" lon="-3.44824">
        <ele>50.7</ele>
        <time>2019-07-11T13:05:04Z</time>
      </trkpt>
      <trkpt lat="48.72023" lon="-3.44826">
        <ele>50.7</ele>
        <time>2019-07-11T13:05:05Z</time>
      </trkpt>
      <trkpt lat="48.72022" lon="-3.44829">
        <ele>50.7</ele>
        <time>2019-07-11T13:05:06Z</time>
      </trkpt>
      <trkpt lat="48.72022" lon="-3.44831">
        <ele>51</ele>
        <time>2019-07-11T13:05:07Z</time>
      </trkpt>
      <trkpt lat="48.7202" lon="-3.44833">
        <ele>51.5</ele>
        <time>2019-07-11T13:05:08Z</time>
      </trkpt>
      <trkpt lat="48.72019" lon="-3.44835">
        <ele>51.4</ele>
        <time>2019-07-11T13:05:09Z</time>
      </trkpt>
      <trkpt lat="48.72018" lon="-3.44836">
        <ele>51.8</ele>
        <time>2019-07-11T13:05:10Z</time>
      </trkpt>
      <trkpt lat="48.72016" lon="-3.44838">
        <ele>52.3</ele>
        <time>2019-07-11T13:05:11Z</time>
      </trkpt>
      <trkpt lat="48.72014" lon="-3.44839">
        <ele>52.7</ele>
        <time>2019-07-11T13:05:12Z</time>
      </trkpt>
      <trkpt lat="48.72013" lon="-3.44839">
        <ele>53.1</ele>
        <time>2019-07-11T13:05:13Z</time>
      </trkpt>
      <trkpt lat="48.7201" lon="-3.44839">
        <ele>53.3</ele>
        <time>2019-07-11T13:05:14Z</time>
      </trkpt>
      <trkpt lat="48.72008" lon="-3.44839">
        <ele>53.5</ele>
        <time>2019-07-11T13:05:15Z</time>
      </trkpt>
      <trkpt lat="48.72006" lon="-3.44839">
        <ele>53.7</ele>
        <time>2019-07-11T13:05:16Z</time>
      </trkpt>
      <trkpt lat="48.72004" lon="-3.44838">
        <ele>53.9</ele>
        <time>2019-07-11T13:05:17Z</time>
      </trkpt>
      <trkpt lat="48.72002" lon="-3.44838">
        <ele>54.1</ele>
        <time>2019-07-11T13:05:18Z</time>
      </trkpt>
      <trkpt lat="48.71999" lon="-3.44838">
        <ele>54</ele>
        <time>2019-07-11T13:05:19Z</time>
      </trkpt>
      <trkpt lat="48.71997" lon="-3.44838">
        <ele>54.2</ele>
        <time>2019-07-11T13:05:20Z</time>
      </trkpt>
      <trkpt lat="48.71994" lon="-3.44838">
        <ele>54.1</ele>
        <time>2019-07-11T13:05:21Z</time>
      </trkpt>
      <trkpt lat="48.71991" lon="-3.44837">
        <ele>54.2</ele>
        <time>2019-07-11T13:05:22Z</time>
      </trkpt>
      <trkpt lat="48.71989" lon="-3.44836">
        <ele>54.3</ele>
        <time>2019-07-11T13:05:23Z</time>
      </trkpt>
      <trkpt lat="48.71986" lon="-3.44835">
        <ele>54.3</ele>
        <time>2019-07-11T13:05:24Z</time>
      </trkpt>
      <trkpt lat="48.71983" lon="-3.44834">
        <ele>54.2</ele>
        <time>2019-07-11T13:05:25Z</time>
      </trkpt>
      <trkpt lat="48.71981" lon="-3.44834">
        <ele>54.2</ele>
        <time>2019-07-11T13:05:26Z</time>
      </trkpt>
      <trkpt lat="48.71978" lon="-3.44834">
        <ele>54.4</ele>
        <time>2019-07-11T13:05:27Z</time>
      </trkpt>
      <trkpt lat="48.71976" lon="-3.44833">
        <ele>54.4</ele>
        <time>2019-07-11T13:05:28Z</time>
      </trkpt>
      <trkpt lat="48.71973" lon="-3.44833">
        <ele>54.7</ele>
        <time>2019-07-11T13:05:29Z</time>
      </trkpt>
      <trkpt lat="48.71972" lon="-3.44832">
        <ele>54.8</ele>
        <time>2019-07-11T13:05:30Z</time>
      </trkpt>
      <trkpt lat="48.7197" lon="-3.44832">
        <ele>54.9</ele>
        <time>2019-07-11T13:05:31Z</time>
      </trkpt>
      <trkpt lat="48.71967" lon="-3.44831">
        <ele>55</ele>
        <time>2019-07-11T13:05:32Z</time>
      </trkpt>
      <trkpt lat="48.71965" lon="-3.4483">
        <ele>55.2</ele>
        <time>2019-07-11T13:05:33Z</time>
      </trkpt>
      <trkpt lat="48.71964" lon="-3.4483">
        <ele>55.7</ele>
        <time>2019-07-11T13:05:34Z</time>
      </trkpt>
      <trkpt lat="48.71962" lon="-3.44829">
        <ele>55.4</ele>
        <time>2019-07-11T13:05:35Z</time>
      </trkpt>
      <trkpt lat="48.7196" lon="-3.44829">
        <ele>55</ele>
        <time>2019-07-11T13:05:36Z</time>
      </trkpt>
      <trkpt lat="48.71957" lon="-3.44829">
        <ele>54.9</ele>
        <time>2019-07-11T13:05:37Z</time>
      </trkpt>
      <trkpt lat="48.71954" lon="-3.44828">
        <ele>54.8</ele>
        <time>2019-07-11T13:05:38Z</time>
      </trkpt>
      <trkpt lat="48.71952" lon="-3.44827">
        <ele>54.7</ele>
        <time>2019-07-11T13:05:39Z</time>
      </trkpt>
      <trkpt lat="48.71949" lon="-3.44827">
        <ele>54.8</ele>
        <time>2019-07-11T13:05:40Z</time>
      </trkpt>
      <trkpt lat="48.71947" lon="-3.44826">
        <ele>54.7</ele>
        <time>2019-07-11T13:05:41Z</time>
      </trkpt>
      <trkpt lat="48.71945" lon="-3.44825">
        <ele>54.6</ele>
        <time>2019-07-11T13:05:42Z</time>
      </trkpt>
      <trkpt lat="48.71943" lon="-3.44824">
        <ele>54.8</ele>
        <time>2019-07-11T13:05:43Z</time>
      </trkpt>
      <trkpt lat="48.71941" lon="-3.44824">
        <ele>55.2</ele>
        <time>2019-07-11T13:05:44Z</time>
      </trkpt>
      <trkpt lat="48.71938" lon="-3.44824">
        <ele>55.4</ele>
        <time>2019-07-11T13:05:45Z</time>
      </trkpt>
      <trkpt lat="48.71936" lon="-3.44823">
        <ele>55.7</ele>
        <time>2019-07-11T13:05:46Z</time>
      </trkpt>
      <trkpt lat="48.71932" lon="-3.44823">
        <ele>56</ele>
        <time>2019-07-11T13:05:47Z</time>
      </trkpt>
      <trkpt lat="48.71929" lon="-3.44823">
        <ele>55.9</ele>
        <time>2019-07-11T13:05:48Z</time>
      </trkpt>
      <trkpt lat="48.71926" lon="-3.44822">
        <ele>55.8</ele>
        <time>2019-07-11T13:05:49Z</time>
      </trkpt>
      <trkpt lat="48.71923" lon="-3.44822">
        <ele>55.5</ele>
        <time>2019-07-11T13:05:50Z</time>
      </trkpt>
      <trkpt lat="48.7192" lon="-3.44821">
        <ele>55.3</ele>
        <time>2019-07-11T13:05:51Z</time>
      </trkpt>
      <trkpt lat="48.71917" lon="-3.44821">
        <ele>55.3</ele>
        <time>2019-07-11T13:05:52Z</time>
      </trkpt>
      <trkpt lat="48.71913" lon="-3.44821">
        <ele>55.5</ele>
        <time>2019-07-11T13:05:53Z</time>
      </trkpt>
      <trkpt lat="48.7191" lon="-3.4482">
        <ele>55.6</ele>
        <time>2019-07-11T13:05:54Z</time>
      </trkpt>
      <trkpt lat="48.71907" lon="-3.4482">
        <ele>55.4</ele>
        <time>2019-07-11T13:05:55Z</time>
      </trkpt>
      <trkpt lat="48.71904" lon="-3.4482">
        <ele>55.2</ele>
        <time>2019-07-11T13:05:56Z</time>
      </trkpt>
      <trkpt lat="48.71901" lon="-3.4482">
        <ele>55.2</ele>
        <time>2019-07-11T13:05:57Z</time>
      </trkpt>
      <trkpt lat="48.71898" lon="-3.4482">
        <ele>55</ele>
        <time>2019-07-11T13:05:58Z</time>
      </trkpt>
      <trkpt lat="48.71895" lon="-3.4482">
        <ele>55.4</ele>
        <time>2019-07-11T13:05:59Z</time>
      </trkpt>
      <trkpt lat="48.71892" lon="-3.4482">
        <ele>55.8</ele>
        <time>2019-07-11T13:06:00Z</time>
      </trkpt>
      <trkpt lat="48.71888" lon="-3.4482">
        <ele>56.3</ele>
        <time>2019-07-11T13:06:01Z</time>
      </trkpt>
      <trkpt lat="48.71886" lon="-3.44819">
        <ele>56.6</ele>
        <time>2019-07-11T13:06:02Z</time>
      </trkpt>
      <trkpt lat="48.71882" lon="-3.44819">
        <ele>56.6</ele>
        <time>2019-07-11T13:06:03Z</time>
      </trkpt>
      <trkpt lat="48.71879" lon="-3.44818">
        <ele>56.8</ele>
        <time>2019-07-11T13:06:04Z</time>
      </trkpt>
      <trkpt lat="48.71877" lon="-3.44819">
        <ele>56.6</ele>
        <time>2019-07-11T13:06:05Z</time>
      </trkpt>
      <trkpt lat="48.71874" lon="-3.44819">
        <ele>57</ele>
        <time>2019-07-11T13:06:06Z</time>
      </trkpt>
      <trkpt lat="48.7187" lon="-3.44819">
        <ele>57.5</ele>
        <time>2019-07-11T13:06:07Z</time>
      </trkpt>
      <trkpt lat="48.71867" lon="-3.4482">
        <ele>57.8</ele>
        <time>2019-07-11T13:06:08Z</time>
      </trkpt>
      <trkpt lat="48.71864" lon="-3.4482">
        <ele>58.1</ele>
        <time>2019-07-11T13:06:09Z</time>
      </trkpt>
      <trkpt lat="48.71861" lon="-3.44821">
        <ele>58</ele>
        <time>2019-07-11T13:06:10Z</time>
      </trkpt>
      <trkpt lat="48.71858" lon="-3.44822">
        <ele>58</ele>
        <time>2019-07-11T13:06:11Z</time>
      </trkpt>
      <trkpt lat="48.71856" lon="-3.44823">
        <ele>58.1</ele>
        <time>2019-07-11T13:06:12Z</time>
      </trkpt>
      <trkpt lat="48.71853" lon="-3.44825">
        <ele>58.2</ele>
        <time>2019-07-11T13:06:13Z</time>
      </trkpt>
      <trkpt lat="48.7185" lon="-3.44826">
        <ele>58.3</ele>
        <time>2019-07-11T13:06:14Z</time>
      </trkpt>
      <trkpt lat="48.71847" lon="-3.44826">
        <ele>58.1</ele>
        <time>2019-07-11T13:06:15Z</time>
      </trkpt>
      <trkpt lat="48.71844" lon="-3.44827">
        <ele>57.9</ele>
        <time>2019-07-11T13:06:16Z</time>
      </trkpt>
      <trkpt lat="48.71841" lon="-3.44828">
        <ele>57.8</ele>
        <time>2019-07-11T13:06:17Z</time>
      </trkpt>
      <trkpt lat="48.71838" lon="-3.44829">
        <ele>57.8</ele>
        <time>2019-07-11T13:06:18Z</time>
      </trkpt>
      <trkpt lat="48.71835" lon="-3.4483">
        <ele>57.6</ele>
        <time>2019-07-11T13:06:19Z</time>
      </trkpt>
      <trkpt lat="48.71833" lon="-3.44831">
        <ele>57.4</ele>
        <time>2019-07-11T13:06:20Z</time>
      </trkpt>
      <trkpt lat="48.7183" lon="-3.44833">
        <ele>57.4</ele>
        <time>2019-07-11T13:06:21Z</time>
      </trkpt>
      <trkpt lat="48.71827" lon="-3.44835">
        <ele>57.4</ele>
        <time>2019-07-11T13:06:22Z</time>
      </trkpt>
      <trkpt lat="48.71825" lon="-3.44837">
        <ele>57.5</ele>
        <time>2019-07-11T13:06:23Z</time>
      </trkpt>
      <trkpt lat="48.71823" lon="-3.44839">
        <ele>57.4</ele>
        <time>2019-07-11T13:06:24Z</time>
      </trkpt>
      <trkpt lat="48.7182" lon="-3.44842">
        <ele>57.3</ele>
        <time>2019-07-11T13:06:25Z</time>
      </trkpt>
      <trkpt lat="48.71818" lon="-3.44845">
        <ele>56.8</ele>
        <time>2019-07-11T13:06:26Z</time>
      </trkpt>
      <trkpt lat="48.71816" lon="-3.44848">
        <ele>56.7</ele>
        <time>2019-07-11T13:06:27Z</time>
      </trkpt>
      <trkpt lat="48.71814" lon="-3.44851">
        <ele>56.4</ele>
        <time>2019-07-11T13:06:28Z</time>
      </trkpt>
      <trkpt lat="48.71813" lon="-3.44854">
        <ele>55.9</ele>
        <time>2019-07-11T13:06:29Z</time>
      </trkpt>
      <trkpt lat="48.71812" lon="-3.44858">
        <ele>55.6</ele>
        <time>2019-07-11T13:06:30Z</time>
      </trkpt>
      <trkpt lat="48.71811" lon="-3.44861">
        <ele>55.4</ele>
        <time>2019-07-11T13:06:31Z</time>
      </trkpt>
      <trkpt lat="48.71809" lon="-3.44865">
        <ele>55.1</ele>
        <time>2019-07-11T13:06:32Z</time>
      </trkpt>
      <trkpt lat="48.71808" lon="-3.44869">
        <ele>54.9</ele>
        <time>2019-07-11T13:06:33Z</time>
      </trkpt>
      <trkpt lat="48.71807" lon="-3.44873">
        <ele>54.9</ele>
        <time>2019-07-11T13:06:34Z</time>
      </trkpt>
      <trkpt lat="48.71806" lon="-3.44877">
        <ele>55</ele>
        <time>2019-07-11T13:06:35Z</time>
      </trkpt>
      <trkpt lat="48.71806" lon="-3.44881">
        <ele>55.4</ele>
        <time>2019-07-11T13:06:36Z</time>
      </trkpt>
      <trkpt lat="48.71806" lon="-3.44884">
        <ele>55.8</ele>
        <time>2019-07-11T13:06:37Z</time>
      </trkpt>
      <trkpt lat="48.71806" lon="-3.44888">
        <ele>55.9</ele>
        <time>2019-07-11T13:06:38Z</time>
      </trkpt>
      <trkpt lat="48.71806" lon="-3.44892">
        <ele>56.3</ele>
        <time>2019-07-11T13:06:39Z</time>
      </trkpt>
      <trkpt lat="48.71806" lon="-3.44896">
        <ele>56.7</ele>
        <time>2019-07-11T13:06:40Z</time>
      </trkpt>
      <trkpt lat="48.71807" lon="-3.449">
        <ele>57.5</ele>
        <time>2019-07-11T13:06:41Z</time>
      </trkpt>
      <trkpt lat="48.71807" lon="-3.44904">
        <ele>58.1</ele>
        <time>2019-07-11T13:06:42Z</time>
      </trkpt>
      <trkpt lat="48.71808" lon="-3.44908">
        <ele>58.5</ele>
        <time>2019-07-11T13:06:43Z</time>
      </trkpt>
      <trkpt lat="48.71808" lon="-3.44911">
        <ele>58.7</ele>
        <time>2019-07-11T13:06:44Z</time>
      </trkpt>
      <trkpt lat="48.71808" lon="-3.44915">
        <ele>58.9</ele>
        <time>2019-07-11T13:06:45Z</time>
      </trkpt>
      <trkpt lat="48.71809" lon="-3.44919">
        <ele>58.9</ele>
        <time>2019-07-11T13:06:46Z</time>
      </trkpt>
      <trkpt lat="48.71809" lon="-3.44923">
        <ele>59.3</ele>
        <time>2019-07-11T13:06:47Z</time>
      </trkpt>
      <trkpt lat="48.71809" lon="-3.44927">
        <ele>59.4</ele>
        <time>2019-07-11T13:06:48Z</time>
      </trkpt>
      <trkpt lat="48.71809" lon="-3.44931">
        <ele>59.4</ele>
        <time>2019-07-11T13:06:49Z</time>
      </trkpt>
      <trkpt lat="48.71809" lon="-3.44935">
        <ele>59.3</ele>
        <time>2019-07-11T13:06:50Z</time>
      </trkpt>
      <trkpt lat="48.7181" lon="-3.44938">
        <ele>59.5</ele>
        <time>2019-07-11T13:06:51Z</time>
      </trkpt>
      <trkpt lat="48.7181" lon="-3.44942">
        <ele>59.4</ele>
        <time>2019-07-11T13:06:52Z</time>
      </trkpt>
      <trkpt lat="48.7181" lon="-3.44946">
        <ele>59.4</ele>
        <time>2019-07-11T13:06:53Z</time>
      </trkpt>
      <trkpt lat="48.71811" lon="-3.4495">
        <ele>59.8</ele>
        <time>2019-07-11T13:06:54Z</time>
      </trkpt>
      <trkpt lat="48.71811" lon="-3.44954">
        <ele>59.9</ele>
        <time>2019-07-11T13:06:55Z</time>
      </trkpt>
      <trkpt lat="48.71811" lon="-3.44958">
        <ele>60.8</ele>
        <time>2019-07-11T13:06:56Z</time>
      </trkpt>
      <trkpt lat="48.71811" lon="-3.44962">
        <ele>61.4</ele>
        <time>2019-07-11T13:06:57Z</time>
      </trkpt>
      <trkpt lat="48.71811" lon="-3.44965">
        <ele>62.6</ele>
        <time>2019-07-11T13:06:58Z</time>
      </trkpt>
      <trkpt lat="48.71812" lon="-3.44969">
        <ele>64.2</ele>
        <time>2019-07-11T13:06:59Z</time>
      </trkpt>
      <trkpt lat="48.71812" lon="-3.44972">
        <ele>64.6</ele>
        <time>2019-07-11T13:07:00Z</time>
      </trkpt>
      <trkpt lat="48.71812" lon="-3.44977">
        <ele>64.8</ele>
        <time>2019-07-11T13:07:01Z</time>
      </trkpt>
      <trkpt lat="48.71813" lon="-3.44981">
        <ele>65.2</ele>
        <time>2019-07-11T13:07:02Z</time>
      </trkpt>
      <trkpt lat="48.71813" lon="-3.44985">
        <ele>65.1</ele>
        <time>2019-07-11T13:07:03Z</time>
      </trkpt>
      <trkpt lat="48.71813" lon="-3.4499">
        <ele>64.8</ele>
        <time>2019-07-11T13:07:04Z</time>
      </trkpt>
      <trkpt lat="48.71813" lon="-3.44995">
        <ele>64.7</ele>
        <time>2019-07-11T13:07:05Z</time>
      </trkpt>
      <trkpt lat="48.71813" lon="-3.44999">
        <ele>65.2</ele>
        <time>2019-07-11T13:07:06Z</time>
      </trkpt>
      <trkpt lat="48.71813" lon="-3.45003">
        <ele>65.6</ele>
        <time>2019-07-11T13:07:07Z</time>
      </trkpt>
      <trkpt lat="48.71814" lon="-3.45007">
        <ele>65.9</ele>
        <time>2019-07-11T13:07:08Z</time>
      </trkpt>
      <trkpt lat="48.71814" lon="-3.45012">
        <ele>65.7</ele>
        <time>2019-07-11T13:07:09Z</time>
      </trkpt>
      <trkpt lat="48.71814" lon="-3.45016">
        <ele>65.8</ele>
        <time>2019-07-11T13:07:10Z</time>
      </trkpt>
      <trkpt lat="48.71814" lon="-3.45021">
        <ele>65.7</ele>
        <time>2019-07-11T13:07:11Z</time>
      </trkpt>
      <trkpt lat="48.71815" lon="-3.45026">
        <ele>65.3</ele>
        <time>2019-07-11T13:07:12Z</time>
      </trkpt>
      <trkpt lat="48.71815" lon="-3.4503">
        <ele>65</ele>
        <time>2019-07-11T13:07:13Z</time>
      </trkpt>
      <trkpt lat="48.71816" lon="-3.45035">
        <ele>65</ele>
        <time>2019-07-11T13:07:14Z</time>
      </trkpt>
      <trkpt lat="48.71816" lon="-3.4504">
        <ele>64.8</ele>
        <time>2019-07-11T13:07:15Z</time>
      </trkpt>
      <trkpt lat="48.71817" lon="-3.45044">
        <ele>64.7</ele>
        <time>2019-07-11T13:07:16Z</time>
      </trkpt>
      <trkpt lat="48.71817" lon="-3.45049">
        <ele>64.4</ele>
        <time>2019-07-11T13:07:17Z</time>
      </trkpt>
      <trkpt lat="48.71818" lon="-3.45053">
        <ele>64.3</ele>
        <time>2019-07-11T13:07:18Z</time>
      </trkpt>
      <trkpt lat="48.71819" lon="-3.45057">
        <ele>64</ele>
        <time>2019-07-11T13:07:19Z</time>
      </trkpt>
      <trkpt lat="48.71819" lon="-3.45062">
        <ele>64</ele>
        <time>2019-07-11T13:07:20Z</time>
      </trkpt>
      <trkpt lat="48.71819" lon="-3.45067">
        <ele>63.6</ele>
        <time>2019-07-11T13:07:21Z</time>
      </trkpt>
      <trkpt lat="48.7182" lon="-3.45072">
        <ele>63.4</ele>
        <time>2019-07-11T13:07:22Z</time>
      </trkpt>
      <trkpt lat="48.7182" lon="-3.45077">
        <ele>63.3</ele>
        <time>2019-07-11T13:07:23Z</time>
      </trkpt>
      <trkpt lat="48.7182" lon="-3.45082">
        <ele>63</ele>
        <time>2019-07-11T13:07:24Z</time>
      </trkpt>
      <trkpt lat="48.7182" lon="-3.45087">
        <ele>63</ele>
        <time>2019-07-11T13:07:25Z</time>
      </trkpt>
      <trkpt lat="48.7182" lon="-3.45092">
        <ele>62.6</ele>
        <time>2019-07-11T13:07:26Z</time>
      </trkpt>
      <trkpt lat="48.71821" lon="-3.45097">
        <ele>62.4</ele>
        <time>2019-07-11T13:07:27Z</time>
      </trkpt>
      <trkpt lat="48.71822" lon="-3.45102">
        <ele>62</ele>
        <time>2019-07-11T13:07:28Z</time>
      </trkpt>
      <trkpt lat="48.71822" lon="-3.45107">
        <ele>61.8</ele>
        <time>2019-07-11T13:07:29Z</time>
      </trkpt>
      <trkpt lat="48.71823" lon="-3.45112">
        <ele>62</ele>
        <time>2019-07-11T13:07:30Z</time>
      </trkpt>
      <trkpt lat="48.71824" lon="-3.45117">
        <ele>62</ele>
        <time>2019-07-11T13:07:31Z</time>
      </trkpt>
      <trkpt lat="48.71823" lon="-3.45122">
        <ele>62.4</ele>
        <time>2019-07-11T13:07:32Z</time>
      </trkpt>
      <trkpt lat="48.71823" lon="-3.45127">
        <ele>62.4</ele>
        <time>2019-07-11T13:07:33Z</time>
      </trkpt>
      <trkpt lat="48.71822" lon="-3.45132">
        <ele>62.3</ele>
        <time>2019-07-11T13:07:34Z</time>
      </trkpt>
      <trkpt lat="48.71822" lon="-3.45137">
        <ele>62.6</ele>
        <time>2019-07-11T13:07:35Z</time>
      </trkpt>
      <trkpt lat="48.71822" lon="-3.45141">
        <ele>62.8</ele>
        <time>2019-07-11T13:07:36Z</time>
      </trkpt>
      <trkpt lat="48.71822" lon="-3.45146">
        <ele>62.9</ele>
        <time>2019-07-11T13:07:37Z</time>
      </trkpt>
      <trkpt lat="48.7182" lon="-3.45152">
        <ele>62.7</ele>
        <time>2019-07-11T13:07:38Z</time>
      </trkpt>
      <trkpt lat="48.7182" lon="-3.45157">
        <ele>62.4</ele>
        <time>2019-07-11T13:07:39Z</time>
      </trkpt>
      <trkpt lat="48.71819" lon="-3.45162">
        <ele>62.1</ele>
        <time>2019-07-11T13:07:40Z</time>
      </trkpt>
      <trkpt lat="48.71818" lon="-3.45168">
        <ele>61.5</ele>
        <time>2019-07-11T13:07:41Z</time>
      </trkpt>
      <trkpt lat="48.71817" lon="-3.45173">
        <ele>61</ele>
        <time>2019-07-11T13:07:42Z</time>
      </trkpt>
      <trkpt lat="48.71815" lon="-3.45178">
        <ele>60.5</ele>
        <time>2019-07-11T13:07:43Z</time>
      </trkpt>
      <trkpt lat="48.71814" lon="-3.45183">
        <ele>60.4</ele>
        <time>2019-07-11T13:07:44Z</time>
      </trkpt>
      <trkpt lat="48.71813" lon="-3.45188">
        <ele>60.3</ele>
        <time>2019-07-11T13:07:45Z</time>
      </trkpt>
      <trkpt lat="48.71811" lon="-3.45193">
        <ele>60.4</ele>
        <time>2019-07-11T13:07:46Z</time>
      </trkpt>
      <trkpt lat="48.7181" lon="-3.45199">
        <ele>60.3</ele>
        <time>2019-07-11T13:07:47Z</time>
      </trkpt>
      <trkpt lat="48.71809" lon="-3.45204">
        <ele>60.3</ele>
        <time>2019-07-11T13:07:48Z</time>
      </trkpt>
      <trkpt lat="48.71807" lon="-3.4521">
        <ele>60.7</ele>
        <time>2019-07-11T13:07:49Z</time>
      </trkpt>
      <trkpt lat="48.71806" lon="-3.45216">
        <ele>60.6</ele>
        <time>2019-07-11T13:07:50Z</time>
      </trkpt>
      <trkpt lat="48.71805" lon="-3.45221">
        <ele>60.8</ele>
        <time>2019-07-11T13:07:51Z</time>
      </trkpt>
      <trkpt lat="48.71804" lon="-3.45227">
        <ele>60.6</ele>
        <time>2019-07-11T13:07:52Z</time>
      </trkpt>
      <trkpt lat="48.71803" lon="-3.45232">
        <ele>60.3</ele>
        <time>2019-07-11T13:07:53Z</time>
      </trkpt>
      <trkpt lat="48.71802" lon="-3.45238">
        <ele>60.4</ele>
        <time>2019-07-11T13:07:54Z</time>
      </trkpt>
      <trkpt lat="48.71801" lon="-3.45243">
        <ele>60.2</ele>
        <time>2019-07-11T13:07:55Z</time>
      </trkpt>
      <trkpt lat="48.71799" lon="-3.45248">
        <ele>60.1</ele>
        <time>2019-07-11T13:07:56Z</time>
      </trkpt>
      <trkpt lat="48.71798" lon="-3.45253">
        <ele>60.5</ele>
        <time>2019-07-11T13:07:57Z</time>
      </trkpt>
      <trkpt lat="48.71797" lon="-3.45258">
        <ele>60.7</ele>
        <time>2019-07-11T13:07:58Z</time>
      </trkpt>
      <trkpt lat="48.71795" lon="-3.45263">
        <ele>60.8</ele>
        <time>2019-07-11T13:07:59Z</time>
      </trkpt>
      <trkpt lat="48.71795" lon="-3.45268">
        <ele>60.7</ele>
        <time>2019-07-11T13:08:00Z</time>
      </trkpt>
      <trkpt lat="48.71793" lon="-3.45273">
        <ele>60.8</ele>
        <time>2019-07-11T13:08:01Z</time>
      </trkpt>
      <trkpt lat="48.71792" lon="-3.45278">
        <ele>60.8</ele>
        <time>2019-07-11T13:08:02Z</time>
      </trkpt>
      <trkpt lat="48.71791" lon="-3.45283">
        <ele>61.2</ele>
        <time>2019-07-11T13:08:03Z</time>
      </trkpt>
      <trkpt lat="48.7179" lon="-3.45288">
        <ele>61.4</ele>
        <time>2019-07-11T13:08:04Z</time>
      </trkpt>
      <trkpt lat="48.71788" lon="-3.45292">
        <ele>61.4</ele>
        <time>2019-07-11T13:08:05Z</time>
      </trkpt>
      <trkpt lat="48.71787" lon="-3.45296">
        <ele>61.6</ele>
        <time>2019-07-11T13:08:06Z</time>
      </trkpt>
      <trkpt lat="48.71786" lon="-3.45301">
        <ele>61.8</ele>
        <time>2019-07-11T13:08:07Z</time>
      </trkpt>
      <trkpt lat="48.71785" lon="-3.45306">
        <ele>61.8</ele>
        <time>2019-07-11T13:08:08Z</time>
      </trkpt>
      <trkpt lat="48.71785" lon="-3.4531">
        <ele>61.6</ele>
        <time>2019-07-11T13:08:09Z</time>
      </trkpt>
      <trkpt lat="48.71783" lon="-3.45313">
        <ele>61.6</ele>
        <time>2019-07-11T13:08:10Z</time>
      </trkpt>
      <trkpt lat="48.71782" lon="-3.45314">
        <ele>62.2</ele>
        <time>2019-07-11T13:08:11Z</time>
      </trkpt>
      <trkpt lat="48.71779" lon="-3.45314">
        <ele>62.1</ele>
        <time>2019-07-11T13:08:12Z</time>
      </trkpt>
      <trkpt lat="48.71777" lon="-3.45313">
        <ele>61.9</ele>
        <time>2019-07-11T13:08:13Z</time>
      </trkpt>
      <trkpt lat="48.71775" lon="-3.45311">
        <ele>62.1</ele>
        <time>2019-07-11T13:08:14Z</time>
      </trkpt>
      <trkpt lat="48.71772" lon="-3.4531">
        <ele>62.6</ele>
        <time>2019-07-11T13:08:15Z</time>
      </trkpt>
      <trkpt lat="48.71769" lon="-3.45309">
        <ele>63.2</ele>
        <time>2019-07-11T13:08:16Z</time>
      </trkpt>
      <trkpt lat="48.71766" lon="-3.45307">
        <ele>64.3</ele>
        <time>2019-07-11T13:08:17Z</time>
      </trkpt>
      <trkpt lat="48.71763" lon="-3.45306">
        <ele>64.8</ele>
        <time>2019-07-11T13:08:18Z</time>
      </trkpt>
      <trkpt lat="48.7176" lon="-3.45305">
        <ele>65.1</ele>
        <time>2019-07-11T13:08:19Z</time>
      </trkpt>
      <trkpt lat="48.71757" lon="-3.45304">
        <ele>65.4</ele>
        <time>2019-07-11T13:08:20Z</time>
      </trkpt>
      <trkpt lat="48.71753" lon="-3.45302">
        <ele>65.5</ele>
        <time>2019-07-11T13:08:21Z</time>
      </trkpt>
      <trkpt lat="48.7175" lon="-3.45301">
        <ele>65.5</ele>
        <time>2019-07-11T13:08:22Z</time>
      </trkpt>
      <trkpt lat="48.71746" lon="-3.453">
        <ele>65.2</ele>
        <time>2019-07-11T13:08:23Z</time>
      </trkpt>
      <trkpt lat="48.71743" lon="-3.45299">
        <ele>64.7</ele>
        <time>2019-07-11T13:08:24Z</time>
      </trkpt>
      <trkpt lat="48.7174" lon="-3.45298">
        <ele>64.7</ele>
        <time>2019-07-11T13:08:25Z</time>
      </trkpt>
      <trkpt lat="48.71737" lon="-3.45297">
        <ele>64.7</ele>
        <time>2019-07-11T13:08:26Z</time>
      </trkpt>
      <trkpt lat="48.71733" lon="-3.45295">
        <ele>64.5</ele>
        <time>2019-07-11T13:08:27Z</time>
      </trkpt>
      <trkpt lat="48.71729" lon="-3.45294">
        <ele>64.2</ele>
        <time>2019-07-11T13:08:28Z</time>
      </trkpt>
      <trkpt lat="48.71725" lon="-3.45292">
        <ele>64.2</ele>
        <time>2019-07-11T13:08:29Z</time>
      </trkpt>
      <trkpt lat="48.71721" lon="-3.45291">
        <ele>63.6</ele>
        <time>2019-07-11T13:08:30Z</time>
      </trkpt>
      <trkpt lat="48.71717" lon="-3.45289">
        <ele>63.2</ele>
        <time>2019-07-11T13:08:31Z</time>
      </trkpt>
      <trkpt lat="48.71713" lon="-3.45288">
        <ele>62.3</ele>
        <time>2019-07-11T13:08:32Z</time>
      </trkpt>
      <trkpt lat="48.71709" lon="-3.45287">
        <ele>62.1</ele>
        <time>2019-07-11T13:08:33Z</time>
      </trkpt>
      <trkpt lat="48.71705" lon="-3.45285">
        <ele>61.4</ele>
        <time>2019-07-11T13:08:34Z</time>
      </trkpt>
      <trkpt lat="48.71701" lon="-3.45284">
        <ele>61.2</ele>
        <time>2019-07-11T13:08:35Z</time>
      </trkpt>
      <trkpt lat="48.71696" lon="-3.45283">
        <ele>60.6</ele>
        <time>2019-07-11T13:08:36Z</time>
      </trkpt>
      <trkpt lat="48.71692" lon="-3.45282">
        <ele>59.6</ele>
        <time>2019-07-11T13:08:37Z</time>
      </trkpt>
      <trkpt lat="48.71687" lon="-3.45281">
        <ele>58.8</ele>
        <time>2019-07-11T13:08:38Z</time>
      </trkpt>
      <trkpt lat="48.71683" lon="-3.45279">
        <ele>58.8</ele>
        <time>2019-07-11T13:08:39Z</time>
      </trkpt>
      <trkpt lat="48.71679" lon="-3.45278">
        <ele>59.1</ele>
        <time>2019-07-11T13:08:40Z</time>
      </trkpt>
      <trkpt lat="48.71674" lon="-3.45276">
        <ele>58.5</ele>
        <time>2019-07-11T13:08:41Z</time>
      </trkpt>
      <trkpt lat="48.71669" lon="-3.45275">
        <ele>58</ele>
        <time>2019-07-11T13:08:42Z</time>
      </trkpt>
      <trkpt lat="48.71664" lon="-3.45274">
        <ele>57</ele>
        <time>2019-07-11T13:08:43Z</time>
      </trkpt>
      <trkpt lat="48.7166" lon="-3.45273">
        <ele>56.5</ele>
        <time>2019-07-11T13:08:44Z</time>
      </trkpt>
      <trkpt lat="48.71655" lon="-3.45271">
        <ele>56.2</ele>
        <time>2019-07-11T13:08:45Z</time>
      </trkpt>
      <trkpt lat="48.7165" lon="-3.4527">
        <ele>56.4</ele>
        <time>2019-07-11T13:08:46Z</time>
      </trkpt>
      <trkpt lat="48.71645" lon="-3.45269">
        <ele>56.2</ele>
        <time>2019-07-11T13:08:47Z</time>
      </trkpt>
      <trkpt lat="48.7164" lon="-3.45268">
        <ele>56</ele>
        <time>2019-07-11T13:08:48Z</time>
      </trkpt>
      <trkpt lat="48.71635" lon="-3.45266">
        <ele>56.3</ele>
        <time>2019-07-11T13:08:49Z</time>
      </trkpt>
      <trkpt lat="48.71631" lon="-3.45265">
        <ele>56.4</ele>
        <time>2019-07-11T13:08:50Z</time>
      </trkpt>
      <trkpt lat="48.71626" lon="-3.45264">
        <ele>56.7</ele>
        <time>2019-07-11T13:08:51Z</time>
      </trkpt>
      <trkpt lat="48.7162" lon="-3.45262">
        <ele>56.7</ele>
        <time>2019-07-11T13:08:52Z</time>
      </trkpt>
      <trkpt lat="48.71615" lon="-3.4526">
        <ele>56.9</ele>
        <time>2019-07-11T13:08:53Z</time>
      </trkpt>
      <trkpt lat="48.7161" lon="-3.45259">
        <ele>57.2</ele>
        <time>2019-07-11T13:08:54Z</time>
      </trkpt>
      <trkpt lat="48.71606" lon="-3.45257">
        <ele>58.9</ele>
        <time>2019-07-11T13:08:55Z</time>
      </trkpt>
      <trkpt lat="48.71602" lon="-3.45256">
        <ele>59.4</ele>
        <time>2019-07-11T13:08:56Z</time>
      </trkpt>
      <trkpt lat="48.71598" lon="-3.45254">
        <ele>59.6</ele>
        <time>2019-07-11T13:08:57Z</time>
      </trkpt>
      <trkpt lat="48.71593" lon="-3.45252">
        <ele>60</ele>
        <time>2019-07-11T13:08:58Z</time>
      </trkpt>
      <trkpt lat="48.71589" lon="-3.4525">
        <ele>59.9</ele>
        <time>2019-07-11T13:08:59Z</time>
      </trkpt>
      <trkpt lat="48.71584" lon="-3.45249">
        <ele>60.4</ele>
        <time>2019-07-11T13:09:00Z</time>
      </trkpt>
      <trkpt lat="48.71582" lon="-3.4525">
        <ele>60.3</ele>
        <time>2019-07-11T13:09:01Z</time>
      </trkpt>
      <trkpt lat="48.7158" lon="-3.45252">
        <ele>60.5</ele>
        <time>2019-07-11T13:09:02Z</time>
      </trkpt>
      <trkpt lat="48.71579" lon="-3.45254">
        <ele>59.6</ele>
        <time>2019-07-11T13:09:03Z</time>
      </trkpt>
      <trkpt lat="48.71577" lon="-3.45256">
        <ele>59.3</ele>
        <time>2019-07-11T13:09:04Z</time>
      </trkpt>
      <trkpt lat="48.71574" lon="-3.45257">
        <ele>58.9</ele>
        <time>2019-07-11T13:09:05Z</time>
      </trkpt>
      <trkpt lat="48.71571" lon="-3.45256">
        <ele>58.7</ele>
        <time>2019-07-11T13:09:06Z</time>
      </trkpt>
      <trkpt lat="48.71568" lon="-3.45254">
        <ele>58.3</ele>
        <time>2019-07-11T13:09:07Z</time>
      </trkpt>
      <trkpt lat="48.71564" lon="-3.45251">
        <ele>58</ele>
        <time>2019-07-11T13:09:08Z</time>
      </trkpt>
      <trkpt lat="48.71561" lon="-3.45248">
        <ele>57.6</ele>
        <time>2019-07-11T13:09:09Z</time>
      </trkpt>
      <trkpt lat="48.71558" lon="-3.45244">
        <ele>57.3</ele>
        <time>2019-07-11T13:09:10Z</time>
      </trkpt>
      <trkpt lat="48.71555" lon="-3.45241">
        <ele>57.2</ele>
        <time>2019-07-11T13:09:11Z</time>
      </trkpt>
      <trkpt lat="48.71552" lon="-3.45237">
        <ele>57.5</ele>
        <time>2019-07-11T13:09:12Z</time>
      </trkpt>
      <trkpt lat="48.71549" lon="-3.45235">
        <ele>57.5</ele>
        <time>2019-07-11T13:09:13Z</time>
      </trkpt>
      <trkpt lat="48.71546" lon="-3.45232">
        <ele>58.6</ele>
        <time>2019-07-11T13:09:14Z</time>
      </trkpt>
      <trkpt lat="48.71542" lon="-3.45229">
        <ele>59</ele>
        <time>2019-07-11T13:09:15Z</time>
      </trkpt>
      <trkpt lat="48.71539" lon="-3.45226">
        <ele>59.4</ele>
        <time>2019-07-11T13:09:16Z</time>
      </trkpt>
      <trkpt lat="48.71535" lon="-3.45224">
        <ele>59</ele>
        <time>2019-07-11T13:09:17Z</time>
      </trkpt>
      <trkpt lat="48.71531" lon="-3.45222">
        <ele>58.2</ele>
        <time>2019-07-11T13:09:18Z</time>
      </trkpt>
      <trkpt lat="48.71528" lon="-3.4522">
        <ele>57.5</ele>
        <time>2019-07-11T13:09:19Z</time>
      </trkpt>
      <trkpt lat="48.71524" lon="-3.45218">
        <ele>57</ele>
        <time>2019-07-11T13:09:20Z</time>
      </trkpt>
      <trkpt lat="48.71521" lon="-3.45217">
        <ele>56.5</ele>
        <time>2019-07-11T13:09:21Z</time>
      </trkpt>
      <trkpt lat="48.71517" lon="-3.45214">
        <ele>56.6</ele>
        <time>2019-07-11T13:09:22Z</time>
      </trkpt>
      <trkpt lat="48.71514" lon="-3.45211">
        <ele>56.7</ele>
        <time>2019-07-11T13:09:23Z</time>
      </trkpt>
      <trkpt lat="48.7151" lon="-3.45208">
        <ele>57.1</ele>
        <time>2019-07-11T13:09:24Z</time>
      </trkpt>
      <trkpt lat="48.71507" lon="-3.45205">
        <ele>57.2</ele>
        <time>2019-07-11T13:09:25Z</time>
      </trkpt>
      <trkpt lat="48.71503" lon="-3.45202">
        <ele>57.3</ele>
        <time>2019-07-11T13:09:26Z</time>
      </trkpt>
      <trkpt lat="48.71499" lon="-3.45199">
        <ele>57.3</ele>
        <time>2019-07-11T13:09:27Z</time>
      </trkpt>
      <trkpt lat="48.71496" lon="-3.45196">
        <ele>56.9</ele>
        <time>2019-07-11T13:09:28Z</time>
      </trkpt>
      <trkpt lat="48.71492" lon="-3.45193">
        <ele>56.9</ele>
        <time>2019-07-11T13:09:29Z</time>
      </trkpt>
      <trkpt lat="48.71487" lon="-3.45191">
        <ele>56.8</ele>
        <time>2019-07-11T13:09:30Z</time>
      </trkpt>
      <trkpt lat="48.71483" lon="-3.45188">
        <ele>56.7</ele>
        <time>2019-07-11T13:09:31Z</time>
      </trkpt>
      <trkpt lat="48.71478" lon="-3.45185">
        <ele>56.5</ele>
        <time>2019-07-11T13:09:32Z</time>
      </trkpt>
      <trkpt lat="48.71473" lon="-3.45182">
        <ele>56.7</ele>
        <time>2019-07-11T13:09:33Z</time>
      </trkpt>
      <trkpt lat="48.71469" lon="-3.45179">
        <ele>56.9</ele>
        <time>2019-07-11T13:09:34Z</time>
      </trkpt>
      <trkpt lat="48.71464" lon="-3.45176">
        <ele>57.5</ele>
        <time>2019-07-11T13:09:35Z</time>
      </trkpt>
      <trkpt lat="48.7146" lon="-3.45173">
        <ele>57.8</ele>
        <time>2019-07-11T13:09:36Z</time>
      </trkpt>
      <trkpt lat="48.71455" lon="-3.45169">
        <ele>58.3</ele>
        <time>2019-07-11T13:09:37Z</time>
      </trkpt>
      <trkpt lat="48.7145" lon="-3.45166">
        <ele>58.7</ele>
        <time>2019-07-11T13:09:38Z</time>
      </trkpt>
      <trkpt lat="48.71446" lon="-3.45163">
        <ele>59.1</ele>
        <time>2019-07-11T13:09:39Z</time>
      </trkpt>
      <trkpt lat="48.71442" lon="-3.4516">
        <ele>59.3</ele>
        <time>2019-07-11T13:09:40Z</time>
      </trkpt>
      <trkpt lat="48.71438" lon="-3.45157">
        <ele>59.3</ele>
        <time>2019-07-11T13:09:41Z</time>
      </trkpt>
      <trkpt lat="48.71434" lon="-3.45154">
        <ele>59.2</ele>
        <time>2019-07-11T13:09:42Z</time>
      </trkpt>
      <trkpt lat="48.7143" lon="-3.45152">
        <ele>59.2</ele>
        <time>2019-07-11T13:09:43Z</time>
      </trkpt>
      <trkpt lat="48.71426" lon="-3.45149">
        <ele>59.1</ele>
        <time>2019-07-11T13:09:44Z</time>
      </trkpt>
      <trkpt lat="48.71422" lon="-3.45147">
        <ele>59.4</ele>
        <time>2019-07-11T13:09:45Z</time>
      </trkpt>
      <trkpt lat="48.71418" lon="-3.45144">
        <ele>59.5</ele>
        <time>2019-07-11T13:09:46Z</time>
      </trkpt>
      <trkpt lat="48.71414" lon="-3.45141">
        <ele>59.5</ele>
        <time>2019-07-11T13:09:47Z</time>
      </trkpt>
      <trkpt lat="48.7141" lon="-3.45139">
        <ele>59.5</ele>
        <time>2019-07-11T13:09:48Z</time>
      </trkpt>
      <trkpt lat="48.71406" lon="-3.45136">
        <ele>59.2</ele>
        <time>2019-07-11T13:09:49Z</time>
      </trkpt>
      <trkpt lat="48.71402" lon="-3.45132">
        <ele>58.9</ele>
        <time>2019-07-11T13:09:50Z</time>
      </trkpt>
      <trkpt lat="48.71398" lon="-3.45129">
        <ele>58.5</ele>
        <time>2019-07-11T13:09:51Z</time>
      </trkpt>
      <trkpt lat="48.71394" lon="-3.45127">
        <ele>58.5</ele>
        <time>2019-07-11T13:09:52Z</time>
      </trkpt>
      <trkpt lat="48.7139" lon="-3.45124">
        <ele>58.4</ele>
        <time>2019-07-11T13:09:53Z</time>
      </trkpt>
      <trkpt lat="48.71386" lon="-3.45121">
        <ele>58.6</ele>
        <time>2019-07-11T13:09:54Z</time>
      </trkpt>
      <trkpt lat="48.71382" lon="-3.45119">
        <ele>58.7</ele>
        <time>2019-07-11T13:09:55Z</time>
      </trkpt>
      <trkpt lat="48.71378" lon="-3.45116">
        <ele>58.6</ele>
        <time>2019-07-11T13:09:56Z</time>
      </trkpt>
      <trkpt lat="48.71374" lon="-3.45114">
        <ele>58.5</ele>
        <time>2019-07-11T13:09:57Z</time>
      </trkpt>
      <trkpt lat="48.7137" lon="-3.45112">
        <ele>58.5</ele>
        <time>2019-07-11T13:09:58Z</time>
      </trkpt>
      <trkpt lat="48.71367" lon="-3.4511">
        <ele>58.5</ele>
        <time>2019-07-11T13:09:59Z</time>
      </trkpt>
      <trkpt lat="48.71363" lon="-3.45107">
        <ele>58.5</ele>
        <time>2019-07-11T13:10:00Z</time>
      </trkpt>
      <trkpt lat="48.71359" lon="-3.45104">
        <ele>58.7</ele>
        <time>2019-07-11T13:10:01Z</time>
      </trkpt>
      <trkpt lat="48.71356" lon="-3.45101">
        <ele>59</ele>
        <time>2019-07-11T13:10:02Z</time>
      </trkpt>
      <trkpt lat="48.71352" lon="-3.45099">
        <ele>59</ele>
        <time>2019-07-11T13:10:03Z</time>
      </trkpt>
      <trkpt lat="48.7135" lon="-3.45097">
        <ele>59</ele>
        <time>2019-07-11T13:10:04Z</time>
      </trkpt>
      <trkpt lat="48.71348" lon="-3.45094">
        <ele>59.7</ele>
        <time>2019-07-11T13:10:05Z</time>
      </trkpt>
      <trkpt lat="48.71345" lon="-3.45092">
        <ele>59.9</ele>
        <time>2019-07-11T13:10:06Z</time>
      </trkpt>
      <trkpt lat="48.71342" lon="-3.4509">
        <ele>59.9</ele>
        <time>2019-07-11T13:10:07Z</time>
      </trkpt>
      <trkpt lat="48.71338" lon="-3.45087">
        <ele>59.3</ele>
        <time>2019-07-11T13:10:08Z</time>
      </trkpt>
      <trkpt lat="48.71334" lon="-3.45086">
        <ele>59.2</ele>
        <time>2019-07-11T13:10:09Z</time>
      </trkpt>
      <trkpt lat="48.7133" lon="-3.45084">
        <ele>58.6</ele>
        <time>2019-07-11T13:10:10Z</time>
      </trkpt>
      <trkpt lat="48.71325" lon="-3.45082">
        <ele>57.9</ele>
        <time>2019-07-11T13:10:11Z</time>
      </trkpt>
      <trkpt lat="48.71321" lon="-3.4508">
        <ele>57.3</ele>
        <time>2019-07-11T13:10:12Z</time>
      </trkpt>
      <trkpt lat="48.71317" lon="-3.45078">
        <ele>57</ele>
        <time>2019-07-11T13:10:13Z</time>
      </trkpt>
      <trkpt lat="48.71314" lon="-3.45076">
        <ele>56.8</ele>
        <time>2019-07-11T13:10:14Z</time>
      </trkpt>
      <trkpt lat="48.7131" lon="-3.45075">
        <ele>56.7</ele>
        <time>2019-07-11T13:10:15Z</time>
      </trkpt>
      <trkpt lat="48.71306" lon="-3.45073">
        <ele>56.6</ele>
        <time>2019-07-11T13:10:16Z</time>
      </trkpt>
      <trkpt lat="48.71302" lon="-3.45072">
        <ele>57.1</ele>
        <time>2019-07-11T13:10:17Z</time>
      </trkpt>
      <trkpt lat="48.71298" lon="-3.4507">
        <ele>57.8</ele>
        <time>2019-07-11T13:10:18Z</time>
      </trkpt>
      <trkpt lat="48.71294" lon="-3.45068">
        <ele>58.4</ele>
        <time>2019-07-11T13:10:19Z</time>
      </trkpt>
      <trkpt lat="48.7129" lon="-3.45067">
        <ele>58.8</ele>
        <time>2019-07-11T13:10:20Z</time>
      </trkpt>
      <trkpt lat="48.71285" lon="-3.45066">
        <ele>59.2</ele>
        <time>2019-07-11T13:10:21Z</time>
      </trkpt>
      <trkpt lat="48.71281" lon="-3.45064">
        <ele>59.8</ele>
        <time>2019-07-11T13:10:22Z</time>
      </trkpt>
      <trkpt lat="48.71277" lon="-3.45062">
        <ele>59.7</ele>
        <time>2019-07-11T13:10:23Z</time>
      </trkpt>
      <trkpt lat="48.71272" lon="-3.4506">
        <ele>59.8</ele>
        <time>2019-07-11T13:10:24Z</time>
      </trkpt>
      <trkpt lat="48.71268" lon="-3.45058">
        <ele>59.3</ele>
        <time>2019-07-11T13:10:25Z</time>
      </trkpt>
      <trkpt lat="48.71264" lon="-3.45057">
        <ele>59.3</ele>
        <time>2019-07-11T13:10:26Z</time>
      </trkpt>
      <trkpt lat="48.71259" lon="-3.45054">
        <ele>59.7</ele>
        <time>2019-07-11T13:10:27Z</time>
      </trkpt>
      <trkpt lat="48.71256" lon="-3.45052">
        <ele>60.2</ele>
        <time>2019-07-11T13:10:28Z</time>
      </trkpt>
      <trkpt lat="48.71251" lon="-3.4505">
        <ele>60.4</ele>
        <time>2019-07-11T13:10:29Z</time>
      </trkpt>
      <trkpt lat="48.71248" lon="-3.45048">
        <ele>60.9</ele>
        <time>2019-07-11T13:10:30Z</time>
      </trkpt>
      <trkpt lat="48.71244" lon="-3.45047">
        <ele>61.1</ele>
        <time>2019-07-11T13:10:31Z</time>
      </trkpt>
      <trkpt lat="48.71241" lon="-3.45045">
        <ele>61.5</ele>
        <time>2019-07-11T13:10:32Z</time>
      </trkpt>
      <trkpt lat="48.71237" lon="-3.45043">
        <ele>61.6</ele>
        <time>2019-07-11T13:10:33Z</time>
      </trkpt>
      <trkpt lat="48.71234" lon="-3.45041">
        <ele>61.5</ele>
        <time>2019-07-11T13:10:34Z</time>
      </trkpt>
      <trkpt lat="48.7123" lon="-3.45041">
        <ele>62.1</ele>
        <time>2019-07-11T13:10:35Z</time>
      </trkpt>
      <trkpt lat="48.71227" lon="-3.45039">
        <ele>62.6</ele>
        <time>2019-07-11T13:10:36Z</time>
      </trkpt>
      <trkpt lat="48.71223" lon="-3.45038">
        <ele>62.9</ele>
        <time>2019-07-11T13:10:37Z</time>
      </trkpt>
      <trkpt lat="48.71219" lon="-3.45036">
        <ele>62.9</ele>
        <time>2019-07-11T13:10:38Z</time>
      </trkpt>
      <trkpt lat="48.71215" lon="-3.45035">
        <ele>63.1</ele>
        <time>2019-07-11T13:10:39Z</time>
      </trkpt>
      <trkpt lat="48.71212" lon="-3.45033">
        <ele>63.2</ele>
        <time>2019-07-11T13:10:40Z</time>
      </trkpt>
      <trkpt lat="48.71208" lon="-3.45031">
        <ele>63.3</ele>
        <time>2019-07-11T13:10:41Z</time>
      </trkpt>
      <trkpt lat="48.71203" lon="-3.45029">
        <ele>63</ele>
        <time>2019-07-11T13:10:42Z</time>
      </trkpt>
      <trkpt lat="48.71199" lon="-3.45028">
        <ele>62.8</ele>
        <time>2019-07-11T13:10:43Z</time>
      </trkpt>
      <trkpt lat="48.71195" lon="-3.45026">
        <ele>62.4</ele>
        <time>2019-07-11T13:10:44Z</time>
      </trkpt>
      <trkpt lat="48.71191" lon="-3.45024">
        <ele>62.2</ele>
        <time>2019-07-11T13:10:45Z</time>
      </trkpt>
      <trkpt lat="48.71187" lon="-3.45022">
        <ele>61.5</ele>
        <time>2019-07-11T13:10:46Z</time>
      </trkpt>
      <trkpt lat="48.71183" lon="-3.4502">
        <ele>61.1</ele>
        <time>2019-07-11T13:10:47Z</time>
      </trkpt>
      <trkpt lat="48.71179" lon="-3.45018">
        <ele>60.7</ele>
        <time>2019-07-11T13:10:48Z</time>
      </trkpt>
      <trkpt lat="48.71175" lon="-3.45016">
        <ele>60.2</ele>
        <time>2019-07-11T13:10:49Z</time>
      </trkpt>
      <trkpt lat="48.71172" lon="-3.45014">
        <ele>59.5</ele>
        <time>2019-07-11T13:10:50Z</time>
      </trkpt>
      <trkpt lat="48.71168" lon="-3.45012">
        <ele>59.1</ele>
        <time>2019-07-11T13:10:51Z</time>
      </trkpt>
      <trkpt lat="48.71165" lon="-3.45011">
        <ele>58.8</ele>
        <time>2019-07-11T13:10:52Z</time>
      </trkpt>
      <trkpt lat="48.71161" lon="-3.45009">
        <ele>58.8</ele>
        <time>2019-07-11T13:10:53Z</time>
      </trkpt>
      <trkpt lat="48.71158" lon="-3.45008">
        <ele>58.8</ele>
        <time>2019-07-11T13:10:54Z</time>
      </trkpt>
      <trkpt lat="48.71154" lon="-3.45007">
        <ele>59.1</ele>
        <time>2019-07-11T13:10:55Z</time>
      </trkpt>
      <trkpt lat="48.7115" lon="-3.45006">
        <ele>59.7</ele>
        <time>2019-07-11T13:10:56Z</time>
      </trkpt>
      <trkpt lat="48.71146" lon="-3.45005">
        <ele>60.4</ele>
        <time>2019-07-11T13:10:57Z</time>
      </trkpt>
      <trkpt lat="48.71142" lon="-3.45004">
        <ele>60.8</ele>
        <time>2019-07-11T13:10:58Z</time>
      </trkpt>
      <trkpt lat="48.71138" lon="-3.45003">
        <ele>61.3</ele>
        <time>2019-07-11T13:10:59Z</time>
      </trkpt>
      <trkpt lat="48.71135" lon="-3.45003">
        <ele>61.8</ele>
        <time>2019-07-11T13:11:00Z</time>
      </trkpt>
      <trkpt lat="48.71131" lon="-3.45002">
        <ele>62.5</ele>
        <time>2019-07-11T13:11:01Z</time>
      </trkpt>
      <trkpt lat="48.71127" lon="-3.45001">
        <ele>63.1</ele>
        <time>2019-07-11T13:11:02Z</time>
      </trkpt>
      <trkpt lat="48.71123" lon="-3.45">
        <ele>63.6</ele>
        <time>2019-07-11T13:11:03Z</time>
      </trkpt>
      <trkpt lat="48.71119" lon="-3.45">
        <ele>64.1</ele>
        <time>2019-07-11T13:11:04Z</time>
      </trkpt>
      <trkpt lat="48.71115" lon="-3.44999">
        <ele>64.3</ele>
        <time>2019-07-11T13:11:05Z</time>
      </trkpt>
      <trkpt lat="48.71111" lon="-3.44998">
        <ele>64.3</ele>
        <time>2019-07-11T13:11:06Z</time>
      </trkpt>
      <trkpt lat="48.71108" lon="-3.44998">
        <ele>64.4</ele>
        <time>2019-07-11T13:11:07Z</time>
      </trkpt>
      <trkpt lat="48.71104" lon="-3.44998">
        <ele>64.6</ele>
        <time>2019-07-11T13:11:08Z</time>
      </trkpt>
      <trkpt lat="48.71101" lon="-3.44998">
        <ele>64.5</ele>
        <time>2019-07-11T13:11:09Z</time>
      </trkpt>
      <trkpt lat="48.71096" lon="-3.44999">
        <ele>64.3</ele>
        <time>2019-07-11T13:11:10Z</time>
      </trkpt>
      <trkpt lat="48.71093" lon="-3.44999">
        <ele>64.2</ele>
        <time>2019-07-11T13:11:11Z</time>
      </trkpt>
      <trkpt lat="48.7109" lon="-3.44999">
        <ele>64.5</ele>
        <time>2019-07-11T13:11:12Z</time>
      </trkpt>
      <trkpt lat="48.71086" lon="-3.44999">
        <ele>64.6</ele>
        <time>2019-07-11T13:11:13Z</time>
      </trkpt>
      <trkpt lat="48.71084" lon="-3.45">
        <ele>64.5</ele>
        <time>2019-07-11T13:11:14Z</time>
      </trkpt>
      <trkpt lat="48.71081" lon="-3.45">
        <ele>64.8</ele>
        <time>2019-07-11T13:11:15Z</time>
      </trkpt>
      <trkpt lat="48.71079" lon="-3.45">
        <ele>65</ele>
        <time>2019-07-11T13:11:16Z</time>
      </trkpt>
      <trkpt lat="48.71076" lon="-3.45">
        <ele>65.3</ele>
        <time>2019-07-11T13:11:17Z</time>
      </trkpt>
      <trkpt lat="48.71073" lon="-3.45">
        <ele>65.6</ele>
        <time>2019-07-11T13:11:18Z</time>
      </trkpt>
      <trkpt lat="48.71071" lon="-3.45">
        <ele>65.8</ele>
        <time>2019-07-11T13:11:19Z</time>
      </trkpt>
      <trkpt lat="48.71068" lon="-3.45">
        <ele>65.7</ele>
        <time>2019-07-11T13:11:20Z</time>
      </trkpt>
      <trkpt lat="48.71066" lon="-3.45">
        <ele>64.4</ele>
        <time>2019-07-11T13:11:21Z</time>
      </trkpt>
      <trkpt lat="48.71065" lon="-3.45001">
        <ele>63.6</ele>
        <time>2019-07-11T13:11:22Z</time>
      </trkpt>
      <trkpt lat="48.71063" lon="-3.45001">
        <ele>63.4</ele>
        <time>2019-07-11T13:11:23Z</time>
      </trkpt>
      <trkpt lat="48.71061" lon="-3.45002">
        <ele>62.9</ele>
        <time>2019-07-11T13:11:24Z</time>
      </trkpt>
      <trkpt lat="48.71059" lon="-3.45002">
        <ele>62.6</ele>
        <time>2019-07-11T13:11:25Z</time>
      </trkpt>
      <trkpt lat="48.71056" lon="-3.45002">
        <ele>61.7</ele>
        <time>2019-07-11T13:11:26Z</time>
      </trkpt>
      <trkpt lat="48.71053" lon="-3.45002">
        <ele>61.4</ele>
        <time>2019-07-11T13:11:27Z</time>
      </trkpt>
      <trkpt lat="48.7105" lon="-3.45002">
        <ele>61.3</ele>
        <time>2019-07-11T13:11:28Z</time>
      </trkpt>
      <trkpt lat="48.71048" lon="-3.45003">
        <ele>61.6</ele>
        <time>2019-07-11T13:11:29Z</time>
      </trkpt>
      <trkpt lat="48.71046" lon="-3.45002">
        <ele>61.8</ele>
        <time>2019-07-11T13:11:30Z</time>
      </trkpt>
      <trkpt lat="48.71043" lon="-3.45002">
        <ele>61.6</ele>
        <time>2019-07-11T13:11:31Z</time>
      </trkpt>
      <trkpt lat="48.71042" lon="-3.45002">
        <ele>61.7</ele>
        <time>2019-07-11T13:11:32Z</time>
      </trkpt>
      <trkpt lat="48.7104" lon="-3.45002">
        <ele>61.6</ele>
        <time>2019-07-11T13:11:33Z</time>
      </trkpt>
      <trkpt lat="48.71038" lon="-3.45002">
        <ele>61.5</ele>
        <time>2019-07-11T13:11:34Z</time>
      </trkpt>
      <trkpt lat="48.71035" lon="-3.45002">
        <ele>61.4</ele>
        <time>2019-07-11T13:11:35Z</time>
      </trkpt>
      <trkpt lat="48.71033" lon="-3.45002">
        <ele>61.6</ele>
        <time>2019-07-11T13:11:36Z</time>
      </trkpt>
      <trkpt lat="48.7103" lon="-3.45002">
        <ele>62.1</ele>
        <time>2019-07-11T13:11:37Z</time>
      </trkpt>
      <trkpt lat="48.71027" lon="-3.45002">
        <ele>62.3</ele>
        <time>2019-07-11T13:11:38Z</time>
      </trkpt>
      <trkpt lat="48.71024" lon="-3.45001">
        <ele>62.3</ele>
        <time>2019-07-11T13:11:39Z</time>
      </trkpt>
      <trkpt lat="48.71021" lon="-3.45001">
        <ele>62.4</ele>
        <time>2019-07-11T13:11:40Z</time>
      </trkpt>
      <trkpt lat="48.71018" lon="-3.45">
        <ele>62.4</ele>
        <time>2019-07-11T13:11:41Z</time>
      </trkpt>
      <trkpt lat="48.71014" lon="-3.44999">
        <ele>62.7</ele>
        <time>2019-07-11T13:11:42Z</time>
      </trkpt>
      <trkpt lat="48.71011" lon="-3.44998">
        <ele>63.9</ele>
        <time>2019-07-11T13:11:43Z</time>
      </trkpt>
      <trkpt lat="48.71008" lon="-3.44996">
        <ele>64.3</ele>
        <time>2019-07-11T13:11:44Z</time>
      </trkpt>
      <trkpt lat="48.71005" lon="-3.44994">
        <ele>64.4</ele>
        <time>2019-07-11T13:11:45Z</time>
      </trkpt>
      <trkpt lat="48.71001" lon="-3.44993">
        <ele>64.6</ele>
        <time>2019-07-11T13:11:46Z</time>
      </trkpt>
      <trkpt lat="48.70998" lon="-3.44991">
        <ele>64.6</ele>
        <time>2019-07-11T13:11:47Z</time>
      </trkpt>
      <trkpt lat="48.70994" lon="-3.44989">
        <ele>64.6</ele>
        <time>2019-07-11T13:11:48Z</time>
      </trkpt>
      <trkpt lat="48.7099" lon="-3.44986">
        <ele>64.4</ele>
        <time>2019-07-11T13:11:49Z</time>
      </trkpt>
      <trkpt lat="48.70987" lon="-3.44984">
        <ele>64.1</ele>
        <time>2019-07-11T13:11:50Z</time>
      </trkpt>
      <trkpt lat="48.70984" lon="-3.44982">
        <ele>64.1</ele>
        <time>2019-07-11T13:11:51Z</time>
      </trkpt>
      <trkpt lat="48.70981" lon="-3.4498">
        <ele>64.1</ele>
        <time>2019-07-11T13:11:52Z</time>
      </trkpt>
      <trkpt lat="48.70979" lon="-3.44976">
        <ele>63.9</ele>
        <time>2019-07-11T13:11:53Z</time>
      </trkpt>
      <trkpt lat="48.70979" lon="-3.44971">
        <ele>63.9</ele>
        <time>2019-07-11T13:11:54Z</time>
      </trkpt>
      <trkpt lat="48.7098" lon="-3.44965">
        <ele>63.8</ele>
        <time>2019-07-11T13:11:55Z</time>
      </trkpt>
      <trkpt lat="48.70981" lon="-3.44959">
        <ele>63.5</ele>
        <time>2019-07-11T13:11:56Z</time>
      </trkpt>
      <trkpt lat="48.70982" lon="-3.44954">
        <ele>63.9</ele>
        <time>2019-07-11T13:11:57Z</time>
      </trkpt>
      <trkpt lat="48.70983" lon="-3.44948">
        <ele>64.1</ele>
        <time>2019-07-11T13:11:58Z</time>
      </trkpt>
      <trkpt lat="48.70984" lon="-3.44941">
        <ele>64.1</ele>
        <time>2019-07-11T13:11:59Z</time>
      </trkpt>
      <trkpt lat="48.70983" lon="-3.44935">
        <ele>63.8</ele>
        <time>2019-07-11T13:12:00Z</time>
      </trkpt>
      <trkpt lat="48.70982" lon="-3.44928">
        <ele>63.5</ele>
        <time>2019-07-11T13:12:01Z</time>
      </trkpt>
      <trkpt lat="48.70981" lon="-3.44922">
        <ele>62.9</ele>
        <time>2019-07-11T13:12:02Z</time>
      </trkpt>
      <trkpt lat="48.70979" lon="-3.44915">
        <ele>62.7</ele>
        <time>2019-07-11T13:12:03Z</time>
      </trkpt>
      <trkpt lat="48.70978" lon="-3.44909">
        <ele>62.5</ele>
        <time>2019-07-11T13:12:04Z</time>
      </trkpt>
      <trkpt lat="48.70976" lon="-3.44902">
        <ele>61.9</ele>
        <time>2019-07-11T13:12:05Z</time>
      </trkpt>
      <trkpt lat="48.70974" lon="-3.44894">
        <ele>61.6</ele>
        <time>2019-07-11T13:12:06Z</time>
      </trkpt>
      <trkpt lat="48.70973" lon="-3.44887">
        <ele>61</ele>
        <time>2019-07-11T13:12:07Z</time>
      </trkpt>
      <trkpt lat="48.70971" lon="-3.44879">
        <ele>60.5</ele>
        <time>2019-07-11T13:12:08Z</time>
      </trkpt>
      <trkpt lat="48.70969" lon="-3.44872">
        <ele>60.1</ele>
        <time>2019-07-11T13:12:09Z</time>
      </trkpt>
      <trkpt lat="48.70967" lon="-3.44866">
        <ele>60</ele>
        <time>2019-07-11T13:12:10Z</time>
      </trkpt>
      <trkpt lat="48.70966" lon="-3.4486">
        <ele>60.3</ele>
        <time>2019-07-11T13:12:11Z</time>
      </trkpt>
      <trkpt lat="48.70965" lon="-3.44856">
        <ele>60.2</ele>
        <time>2019-07-11T13:12:12Z</time>
      </trkpt>
      <trkpt lat="48.70964" lon="-3.44853">
        <ele>60.3</ele>
        <time>2019-07-11T13:12:13Z</time>
      </trkpt>
      <trkpt lat="48.70965" lon="-3.44849">
        <ele>61</ele>
        <time>2019-07-11T13:12:14Z</time>
      </trkpt>
      <trkpt lat="48.70967" lon="-3.44845">
        <ele>61</ele>
        <time>2019-07-11T13:12:15Z</time>
      </trkpt>
      <trkpt lat="48.70968" lon="-3.4484">
        <ele>60.8</ele>
        <time>2019-07-11T13:12:16Z</time>
      </trkpt>
      <trkpt lat="48.7097" lon="-3.44836">
        <ele>60.5</ele>
        <time>2019-07-11T13:12:17Z</time>
      </trkpt>
      <trkpt lat="48.70971" lon="-3.44832">
        <ele>60.8</ele>
        <time>2019-07-11T13:12:18Z</time>
      </trkpt>
      <trkpt lat="48.70972" lon="-3.44828">
        <ele>61.3</ele>
        <time>2019-07-11T13:12:19Z</time>
      </trkpt>
      <trkpt lat="48.70974" lon="-3.44823">
        <ele>61.4</ele>
        <time>2019-07-11T13:12:20Z</time>
      </trkpt>
      <trkpt lat="48.70976" lon="-3.4482">
        <ele>61.5</ele>
        <time>2019-07-11T13:12:21Z</time>
      </trkpt>
      <trkpt lat="48.70978" lon="-3.44817">
        <ele>61.8</ele>
        <time>2019-07-11T13:12:22Z</time>
      </trkpt>
      <trkpt lat="48.7098" lon="-3.44814">
        <ele>62</ele>
        <time>2019-07-11T13:12:23Z</time>
      </trkpt>
      <trkpt lat="48.70982" lon="-3.44811">
        <ele>62.2</ele>
        <time>2019-07-11T13:12:24Z</time>
      </trkpt>
      <trkpt lat="48.70983" lon="-3.44809">
        <ele>62.5</ele>
        <time>2019-07-11T13:12:25Z</time>
      </trkpt>
      <trkpt lat="48.70985" lon="-3.44809">
        <ele>62.8</ele>
        <time>2019-07-11T13:12:26Z</time>
      </trkpt>
      <trkpt lat="48.70985" lon="-3.44809">
        <ele>63.3</ele>
        <time>2019-07-11T13:12:27Z</time>
      </trkpt>
      <trkpt lat="48.70986" lon="-3.44809">
        <ele>63.7</ele>
        <time>2019-07-11T13:12:28Z</time>
      </trkpt>
      <trkpt lat="48.70996" lon="-3.44815">
        <ele>67</ele>
        <time>2019-07-11T13:46:10Z</time>
      </trkpt>
      <trkpt lat="48.70997" lon="-3.44817">
        <ele>67.7</ele>
        <time>2019-07-11T13:46:11Z</time>
      </trkpt>
      <trkpt lat="48.70998" lon="-3.44818">
        <ele>68.2</ele>
        <time>2019-07-11T13:46:12Z</time>
      </trkpt>
      <trkpt lat="48.70999" lon="-3.4482">
        <ele>68.6</ele>
        <time>2019-07-11T13:46:13Z</time>
      </trkpt>
      <trkpt lat="48.71" lon="-3.44822">
        <ele>69.1</ele>
        <time>2019-07-11T13:46:14Z</time>
      </trkpt>
      <trkpt lat="48.71001" lon="-3.44823">
        <ele>69.7</ele>
        <time>2019-07-11T13:46:15Z</time>
      </trkpt>
      <trkpt lat="48.71003" lon="-3.44825">
        <ele>70.4</ele>
        <time>2019-07-11T13:46:16Z</time>
      </trkpt>
      <trkpt lat="48.71004" lon="-3.44826">
        <ele>70.9</ele>
        <time>2019-07-11T13:46:17Z</time>
      </trkpt>
      <trkpt lat="48.71005" lon="-3.44828">
        <ele>71.6</ele>
        <time>2019-07-11T13:46:18Z</time>
      </trkpt>
      <trkpt lat="48.71006" lon="-3.44832">
        <ele>72.4</ele>
        <time>2019-07-11T13:46:19Z</time>
      </trkpt>
      <trkpt lat="48.71006" lon="-3.44836">
        <ele>73.7</ele>
        <time>2019-07-11T13:46:20Z</time>
      </trkpt>
      <trkpt lat="48.71006" lon="-3.44839">
        <ele>74.3</ele>
        <time>2019-07-11T13:46:21Z</time>
      </trkpt>
      <trkpt lat="48.71007" lon="-3.44842">
        <ele>74.8</ele>
        <time>2019-07-11T13:46:22Z</time>
      </trkpt>
      <trkpt lat="48.71007" lon="-3.44844">
        <ele>74.7</ele>
        <time>2019-07-11T13:46:23Z</time>
      </trkpt>
      <trkpt lat="48.71008" lon="-3.44847">
        <ele>74.3</ele>
        <time>2019-07-11T13:46:24Z</time>
      </trkpt>
      <trkpt lat="48.71009" lon="-3.44851">
        <ele>73.9</ele>
        <time>2019-07-11T13:46:25Z</time>
      </trkpt>
      <trkpt lat="48.71009" lon="-3.44855">
        <ele>73.4</ele>
        <time>2019-07-11T13:46:26Z</time>
      </trkpt>
      <trkpt lat="48.71009" lon="-3.44859">
        <ele>72.5</ele>
        <time>2019-07-11T13:46:27Z</time>
      </trkpt>
      <trkpt lat="48.71009" lon="-3.44864">
        <ele>71.4</ele>
        <time>2019-07-11T13:46:28Z</time>
      </trkpt>
      <trkpt lat="48.71009" lon="-3.44868">
        <ele>70.3</ele>
        <time>2019-07-11T13:46:29Z</time>
      </trkpt>
      <trkpt lat="48.71008" lon="-3.44873">
        <ele>69.7</ele>
        <time>2019-07-11T13:46:30Z</time>
      </trkpt>
      <trkpt lat="48.71008" lon="-3.44876">
        <ele>68.8</ele>
        <time>2019-07-11T13:46:31Z</time>
      </trkpt>
      <trkpt lat="48.71007" lon="-3.4488">
        <ele>67.9</ele>
        <time>2019-07-11T13:46:32Z</time>
      </trkpt>
      <trkpt lat="48.71006" lon="-3.44884">
        <ele>66.9</ele>
        <time>2019-07-11T13:46:33Z</time>
      </trkpt>
      <trkpt lat="48.71005" lon="-3.44888">
        <ele>66.1</ele>
        <time>2019-07-11T13:46:34Z</time>
      </trkpt>
      <trkpt lat="48.71003" lon="-3.44891">
        <ele>65.4</ele>
        <time>2019-07-11T13:46:35Z</time>
      </trkpt>
      <trkpt lat="48.71001" lon="-3.44894">
        <ele>65.2</ele>
        <time>2019-07-11T13:46:36Z</time>
      </trkpt>
      <trkpt lat="48.71" lon="-3.44896">
        <ele>65.2</ele>
        <time>2019-07-11T13:46:37Z</time>
      </trkpt>
      <trkpt lat="48.70998" lon="-3.44898">
        <ele>64.9</ele>
        <time>2019-07-11T13:46:38Z</time>
      </trkpt>
      <trkpt lat="48.70996" lon="-3.449">
        <ele>65</ele>
        <time>2019-07-11T13:46:39Z</time>
      </trkpt>
      <trkpt lat="48.70995" lon="-3.44902">
        <ele>65.1</ele>
        <time>2019-07-11T13:46:40Z</time>
      </trkpt>
      <trkpt lat="48.70993" lon="-3.44903">
        <ele>64.9</ele>
        <time>2019-07-11T13:46:41Z</time>
      </trkpt>
      <trkpt lat="48.70991" lon="-3.44905">
        <ele>65</ele>
        <time>2019-07-11T13:46:42Z</time>
      </trkpt>
      <trkpt lat="48.7099" lon="-3.44907">
        <ele>64.9</ele>
        <time>2019-07-11T13:46:43Z</time>
      </trkpt>
      <trkpt lat="48.70988" lon="-3.4491">
        <ele>64.7</ele>
        <time>2019-07-11T13:46:44Z</time>
      </trkpt>
      <trkpt lat="48.70987" lon="-3.44912">
        <ele>64.4</ele>
        <time>2019-07-11T13:46:45Z</time>
      </trkpt>
      <trkpt lat="48.70986" lon="-3.44915">
        <ele>64.4</ele>
        <time>2019-07-11T13:46:46Z</time>
      </trkpt>
      <trkpt lat="48.70985" lon="-3.44918">
        <ele>64.1</ele>
        <time>2019-07-11T13:46:47Z</time>
      </trkpt>
      <trkpt lat="48.70985" lon="-3.44921">
        <ele>63.8</ele>
        <time>2019-07-11T13:46:48Z</time>
      </trkpt>
      <trkpt lat="48.70985" lon="-3.44924">
        <ele>64</ele>
        <time>2019-07-11T13:46:49Z</time>
      </trkpt>
      <trkpt lat="48.70986" lon="-3.44927">
        <ele>64.1</ele>
        <time>2019-07-11T13:46:50Z</time>
      </trkpt>
      <trkpt lat="48.70986" lon="-3.44931">
        <ele>64.3</ele>
        <time>2019-07-11T13:46:51Z</time>
      </trkpt>
      <trkpt lat="48.70987" lon="-3.44935">
        <ele>64.4</ele>
        <time>2019-07-11T13:46:52Z</time>
      </trkpt>
      <trkpt lat="48.70987" lon="-3.44938">
        <ele>64.8</ele>
        <time>2019-07-11T13:46:53Z</time>
      </trkpt>
      <trkpt lat="48.70987" lon="-3.44942">
        <ele>65.1</ele>
        <time>2019-07-11T13:46:54Z</time>
      </trkpt>
      <trkpt lat="48.70988" lon="-3.44947">
        <ele>65.6</ele>
        <time>2019-07-11T13:46:55Z</time>
      </trkpt>
      <trkpt lat="48.70988" lon="-3.44951">
        <ele>66</ele>
        <time>2019-07-11T13:46:56Z</time>
      </trkpt>
      <trkpt lat="48.70989" lon="-3.44955">
        <ele>66.6</ele>
        <time>2019-07-11T13:46:57Z</time>
      </trkpt>
      <trkpt lat="48.7099" lon="-3.44958">
        <ele>67.1</ele>
        <time>2019-07-11T13:46:58Z</time>
      </trkpt>
      <trkpt lat="48.70991" lon="-3.44962">
        <ele>67.7</ele>
        <time>2019-07-11T13:46:59Z</time>
      </trkpt>
      <trkpt lat="48.70993" lon="-3.44966">
        <ele>68.3</ele>
        <time>2019-07-11T13:47:00Z</time>
      </trkpt>
      <trkpt lat="48.70994" lon="-3.4497">
        <ele>68.6</ele>
        <time>2019-07-11T13:47:01Z</time>
      </trkpt>
      <trkpt lat="48.70996" lon="-3.44974">
        <ele>68.9</ele>
        <time>2019-07-11T13:47:02Z</time>
      </trkpt>
      <trkpt lat="48.70998" lon="-3.44977">
        <ele>69.3</ele>
        <time>2019-07-11T13:47:03Z</time>
      </trkpt>
      <trkpt lat="48.71001" lon="-3.44979">
        <ele>69.4</ele>
        <time>2019-07-11T13:47:04Z</time>
      </trkpt>
      <trkpt lat="48.71004" lon="-3.44982">
        <ele>69.8</ele>
        <time>2019-07-11T13:47:05Z</time>
      </trkpt>
      <trkpt lat="48.71008" lon="-3.44984">
        <ele>69.8</ele>
        <time>2019-07-11T13:47:06Z</time>
      </trkpt>
      <trkpt lat="48.71011" lon="-3.44985">
        <ele>69.6</ele>
        <time>2019-07-11T13:47:07Z</time>
      </trkpt>
      <trkpt lat="48.71014" lon="-3.44986">
        <ele>69.3</ele>
        <time>2019-07-11T13:47:08Z</time>
      </trkpt>
      <trkpt lat="48.71018" lon="-3.44987">
        <ele>69.1</ele>
        <time>2019-07-11T13:47:09Z</time>
      </trkpt>
      <trkpt lat="48.71021" lon="-3.44988">
        <ele>69</ele>
        <time>2019-07-11T13:47:10Z</time>
      </trkpt>
      <trkpt lat="48.71024" lon="-3.4499">
        <ele>69.2</ele>
        <time>2019-07-11T13:47:11Z</time>
      </trkpt>
      <trkpt lat="48.71027" lon="-3.44991">
        <ele>68.9</ele>
        <time>2019-07-11T13:47:12Z</time>
      </trkpt>
      <trkpt lat="48.7103" lon="-3.44992">
        <ele>68.8</ele>
        <time>2019-07-11T13:47:13Z</time>
      </trkpt>
      <trkpt lat="48.71032" lon="-3.44993">
        <ele>69</ele>
        <time>2019-07-11T13:47:14Z</time>
      </trkpt>
      <trkpt lat="48.71034" lon="-3.44995">
        <ele>68.7</ele>
        <time>2019-07-11T13:47:15Z</time>
      </trkpt>
      <trkpt lat="48.71035" lon="-3.44998">
        <ele>68.7</ele>
        <time>2019-07-11T13:47:16Z</time>
      </trkpt>
      <trkpt lat="48.71035" lon="-3.45001">
        <ele>68.9</ele>
        <time>2019-07-11T13:47:17Z</time>
      </trkpt>
      <trkpt lat="48.71035" lon="-3.45004">
        <ele>68.9</ele>
        <time>2019-07-11T13:47:18Z</time>
      </trkpt>
      <trkpt lat="48.71034" lon="-3.45008">
        <ele>69</ele>
        <time>2019-07-11T13:47:19Z</time>
      </trkpt>
      <trkpt lat="48.71033" lon="-3.45012">
        <ele>69.5</ele>
        <time>2019-07-11T13:47:20Z</time>
      </trkpt>
      <trkpt lat="48.71032" lon="-3.45016">
        <ele>69.5</ele>
        <time>2019-07-11T13:47:21Z</time>
      </trkpt>
      <trkpt lat="48.71031" lon="-3.45021">
        <ele>69.9</ele>
        <time>2019-07-11T13:47:22Z</time>
      </trkpt>
      <trkpt lat="48.7103" lon="-3.45026">
        <ele>70.2</ele>
        <time>2019-07-11T13:47:23Z</time>
      </trkpt>
      <trkpt lat="48.71029" lon="-3.4503">
        <ele>70.2</ele>
        <time>2019-07-11T13:47:24Z</time>
      </trkpt>
      <trkpt lat="48.71028" lon="-3.45035">
        <ele>70.5</ele>
        <time>2019-07-11T13:47:25Z</time>
      </trkpt>
      <trkpt lat="48.71027" lon="-3.4504">
        <ele>71.1</ele>
        <time>2019-07-11T13:47:26Z</time>
      </trkpt>
      <trkpt lat="48.71026" lon="-3.45045">
        <ele>71.5</ele>
        <time>2019-07-11T13:47:27Z</time>
      </trkpt>
      <trkpt lat="48.71025" lon="-3.45049">
        <ele>72</ele>
        <time>2019-07-11T13:47:28Z</time>
      </trkpt>
      <trkpt lat="48.71024" lon="-3.45053">
        <ele>72.5</ele>
        <time>2019-07-11T13:47:29Z</time>
      </trkpt>
      <trkpt lat="48.71023" lon="-3.45056">
        <ele>73</ele>
        <time>2019-07-11T13:47:30Z</time>
      </trkpt>
      <trkpt lat="48.71022" lon="-3.4506">
        <ele>73.3</ele>
        <time>2019-07-11T13:47:31Z</time>
      </trkpt>
      <trkpt lat="48.71021" lon="-3.45064">
        <ele>73.3</ele>
        <time>2019-07-11T13:47:32Z</time>
      </trkpt>
      <trkpt lat="48.7102" lon="-3.45068">
        <ele>73.5</ele>
        <time>2019-07-11T13:47:33Z</time>
      </trkpt>
      <trkpt lat="48.71019" lon="-3.45073">
        <ele>74.1</ele>
        <time>2019-07-11T13:47:34Z</time>
      </trkpt>
      <trkpt lat="48.71019" lon="-3.45077">
        <ele>74</ele>
        <time>2019-07-11T13:47:35Z</time>
      </trkpt>
      <trkpt lat="48.71019" lon="-3.45081">
        <ele>74.4</ele>
        <time>2019-07-11T13:47:36Z</time>
      </trkpt>
      <trkpt lat="48.71018" lon="-3.45087">
        <ele>74.2</ele>
        <time>2019-07-11T13:47:37Z</time>
      </trkpt>
      <trkpt lat="48.71017" lon="-3.45096">
        <ele>73.4</ele>
        <time>2019-07-11T13:47:38Z</time>
      </trkpt>
      <trkpt lat="48.71016" lon="-3.45103">
        <ele>72.8</ele>
        <time>2019-07-11T13:47:39Z</time>
      </trkpt>
      <trkpt lat="48.71016" lon="-3.45109">
        <ele>71.7</ele>
        <time>2019-07-11T13:47:40Z</time>
      </trkpt>
      <trkpt lat="48.71015" lon="-3.45115">
        <ele>70.8</ele>
        <time>2019-07-11T13:47:41Z</time>
      </trkpt>
      <trkpt lat="48.71015" lon="-3.4512">
        <ele>70.3</ele>
        <time>2019-07-11T13:47:42Z</time>
      </trkpt>
      <trkpt lat="48.71014" lon="-3.45125">
        <ele>69.5</ele>
        <time>2019-07-11T13:47:43Z</time>
      </trkpt>
      <trkpt lat="48.71014" lon="-3.45132">
        <ele>68.3</ele>
        <time>2019-07-11T13:47:44Z</time>
      </trkpt>
      <trkpt lat="48.71013" lon="-3.45137">
        <ele>68.2</ele>
        <time>2019-07-11T13:47:45Z</time>
      </trkpt>
      <trkpt lat="48.71013" lon="-3.45142">
        <ele>68.3</ele>
        <time>2019-07-11T13:47:46Z</time>
      </trkpt>
      <trkpt lat="48.71011" lon="-3.45146">
        <ele>68.1</ele>
        <time>2019-07-11T13:47:47Z</time>
      </trkpt>
      <trkpt lat="48.7101" lon="-3.45151">
        <ele>67.4</ele>
        <time>2019-07-11T13:47:48Z</time>
      </trkpt>
      <trkpt lat="48.71008" lon="-3.45156">
        <ele>67.2</ele>
        <time>2019-07-11T13:47:49Z</time>
      </trkpt>
      <trkpt lat="48.71007" lon="-3.45161">
        <ele>67</ele>
        <time>2019-07-11T13:47:50Z</time>
      </trkpt>
      <trkpt lat="48.71005" lon="-3.45166">
        <ele>66.7</ele>
        <time>2019-07-11T13:47:51Z</time>
      </trkpt>
      <trkpt lat="48.71004" lon="-3.45172">
        <ele>66.4</ele>
        <time>2019-07-11T13:47:52Z</time>
      </trkpt>
      <trkpt lat="48.71003" lon="-3.45177">
        <ele>66</ele>
        <time>2019-07-11T13:47:53Z</time>
      </trkpt>
      <trkpt lat="48.71003" lon="-3.45182">
        <ele>65.8</ele>
        <time>2019-07-11T13:47:54Z</time>
      </trkpt>
      <trkpt lat="48.71003" lon="-3.45187">
        <ele>65.5</ele>
        <time>2019-07-11T13:47:55Z</time>
      </trkpt>
      <trkpt lat="48.71002" lon="-3.45191">
        <ele>65.3</ele>
        <time>2019-07-11T13:47:56Z</time>
      </trkpt>
      <trkpt lat="48.71001" lon="-3.45197">
        <ele>65.4</ele>
        <time>2019-07-11T13:47:57Z</time>
      </trkpt>
      <trkpt lat="48.71001" lon="-3.45202">
        <ele>65.3</ele>
        <time>2019-07-11T13:47:58Z</time>
      </trkpt>
      <trkpt lat="48.71" lon="-3.45208">
        <ele>65.2</ele>
        <time>2019-07-11T13:47:59Z</time>
      </trkpt>
      <trkpt lat="48.71" lon="-3.45215">
        <ele>65.5</ele>
        <time>2019-07-11T13:48:00Z</time>
      </trkpt>
      <trkpt lat="48.70999" lon="-3.45222">
        <ele>65</ele>
        <time>2019-07-11T13:48:01Z</time>
      </trkpt>
      <trkpt lat="48.70999" lon="-3.45229">
        <ele>64.7</ele>
        <time>2019-07-11T13:48:02Z</time>
      </trkpt>
      <trkpt lat="48.70998" lon="-3.45235">
        <ele>64.3</ele>
        <time>2019-07-11T13:48:03Z</time>
      </trkpt>
      <trkpt lat="48.70998" lon="-3.45241">
        <ele>64.2</ele>
        <time>2019-07-11T13:48:04Z</time>
      </trkpt>
      <trkpt lat="48.70998" lon="-3.45246">
        <ele>64.1</ele>
        <time>2019-07-11T13:48:05Z</time>
      </trkpt>
      <trkpt lat="48.70997" lon="-3.45251">
        <ele>64.4</ele>
        <time>2019-07-11T13:48:06Z</time>
      </trkpt>
      <trkpt lat="48.70997" lon="-3.45255">
        <ele>65.2</ele>
        <time>2019-07-11T13:48:07Z</time>
      </trkpt>
      <trkpt lat="48.70996" lon="-3.45259">
        <ele>65.1</ele>
        <time>2019-07-11T13:48:08Z</time>
      </trkpt>
      <trkpt lat="48.70995" lon="-3.45264">
        <ele>65.4</ele>
        <time>2019-07-11T13:48:09Z</time>
      </trkpt>
      <trkpt lat="48.70995" lon="-3.45269">
        <ele>65.5</ele>
        <time>2019-07-11T13:48:10Z</time>
      </trkpt>
      <trkpt lat="48.70996" lon="-3.45273">
        <ele>65.7</ele>
        <time>2019-07-11T13:48:11Z</time>
      </trkpt>
      <trkpt lat="48.70998" lon="-3.45276">
        <ele>65.5</ele>
        <time>2019-07-11T13:48:12Z</time>
      </trkpt>
      <trkpt lat="48.71" lon="-3.4528">
        <ele>65.4</ele>
        <time>2019-07-11T13:48:13Z</time>
      </trkpt>
      <trkpt lat="48.71002" lon="-3.45284">
        <ele>65.6</ele>
        <time>2019-07-11T13:48:14Z</time>
      </trkpt>
      <trkpt lat="48.71004" lon="-3.45288">
        <ele>65.9</ele>
        <time>2019-07-11T13:48:15Z</time>
      </trkpt>
      <trkpt lat="48.71005" lon="-3.45293">
        <ele>66.2</ele>
        <time>2019-07-11T13:48:16Z</time>
      </trkpt>
      <trkpt lat="48.71007" lon="-3.45299">
        <ele>66.4</ele>
        <time>2019-07-11T13:48:17Z</time>
      </trkpt>
      <trkpt lat="48.71009" lon="-3.45304">
        <ele>66.9</ele>
        <time>2019-07-11T13:48:18Z</time>
      </trkpt>
      <trkpt lat="48.7101" lon="-3.4531">
        <ele>67.3</ele>
        <time>2019-07-11T13:48:19Z</time>
      </trkpt>
      <trkpt lat="48.71011" lon="-3.45316">
        <ele>67.6</ele>
        <time>2019-07-11T13:48:20Z</time>
      </trkpt>
      <trkpt lat="48.71012" lon="-3.45321">
        <ele>68</ele>
        <time>2019-07-11T13:48:21Z</time>
      </trkpt>
      <trkpt lat="48.71013" lon="-3.45325">
        <ele>68.6</ele>
        <time>2019-07-11T13:48:22Z</time>
      </trkpt>
      <trkpt lat="48.71013" lon="-3.45331">
        <ele>70</ele>
        <time>2019-07-11T13:48:23Z</time>
      </trkpt>
      <trkpt lat="48.71014" lon="-3.45337">
        <ele>71.1</ele>
        <time>2019-07-11T13:48:24Z</time>
      </trkpt>
      <trkpt lat="48.71013" lon="-3.45342">
        <ele>71.8</ele>
        <time>2019-07-11T13:48:25Z</time>
      </trkpt>
      <trkpt lat="48.71014" lon="-3.45347">
        <ele>72.6</ele>
        <time>2019-07-11T13:48:26Z</time>
      </trkpt>
      <trkpt lat="48.71015" lon="-3.45352">
        <ele>73.2</ele>
        <time>2019-07-11T13:48:27Z</time>
      </trkpt>
      <trkpt lat="48.71013" lon="-3.45355">
        <ele>73.3</ele>
        <time>2019-07-11T13:48:28Z</time>
      </trkpt>
      <trkpt lat="48.71014" lon="-3.4536">
        <ele>74.5</ele>
        <time>2019-07-11T13:48:29Z</time>
      </trkpt>
      <trkpt lat="48.71016" lon="-3.45367">
        <ele>74.8</ele>
        <time>2019-07-11T13:48:30Z</time>
      </trkpt>
      <trkpt lat="48.71018" lon="-3.45374">
        <ele>75</ele>
        <time>2019-07-11T13:48:31Z</time>
      </trkpt>
      <trkpt lat="48.71021" lon="-3.4538">
        <ele>75.5</ele>
        <time>2019-07-11T13:48:32Z</time>
      </trkpt>
      <trkpt lat="48.71025" lon="-3.45388">
        <ele>74.7</ele>
        <time>2019-07-11T13:48:33Z</time>
      </trkpt>
      <trkpt lat="48.71026" lon="-3.45393">
        <ele>74.9</ele>
        <time>2019-07-11T13:48:34Z</time>
      </trkpt>
      <trkpt lat="48.71028" lon="-3.454">
        <ele>74.8</ele>
        <time>2019-07-11T13:48:35Z</time>
      </trkpt>
      <trkpt lat="48.71029" lon="-3.45405">
        <ele>74.9</ele>
        <time>2019-07-11T13:48:36Z</time>
      </trkpt>
      <trkpt lat="48.71027" lon="-3.45408">
        <ele>73.9</ele>
        <time>2019-07-11T13:48:37Z</time>
      </trkpt>
      <trkpt lat="48.71027" lon="-3.45412">
        <ele>73.4</ele>
        <time>2019-07-11T13:48:38Z</time>
      </trkpt>
      <trkpt lat="48.71027" lon="-3.45418">
        <ele>71.9</ele>
        <time>2019-07-11T13:48:39Z</time>
      </trkpt>
      <trkpt lat="48.71027" lon="-3.45423">
        <ele>71.3</ele>
        <time>2019-07-11T13:48:40Z</time>
      </trkpt>
      <trkpt lat="48.71024" lon="-3.45427">
        <ele>70.4</ele>
        <time>2019-07-11T13:48:41Z</time>
      </trkpt>
      <trkpt lat="48.71021" lon="-3.4543">
        <ele>70.5</ele>
        <time>2019-07-11T13:48:42Z</time>
      </trkpt>
      <trkpt lat="48.71016" lon="-3.45433">
        <ele>70.5</ele>
        <time>2019-07-11T13:48:43Z</time>
      </trkpt>
      <trkpt lat="48.71013" lon="-3.45435">
        <ele>70</ele>
        <time>2019-07-11T13:48:44Z</time>
      </trkpt>
      <trkpt lat="48.71009" lon="-3.45436">
        <ele>69.2</ele>
        <time>2019-07-11T13:48:45Z</time>
      </trkpt>
      <trkpt lat="48.71006" lon="-3.45437">
        <ele>68.6</ele>
        <time>2019-07-11T13:48:46Z</time>
      </trkpt>
      <trkpt lat="48.71003" lon="-3.45439">
        <ele>68</ele>
        <time>2019-07-11T13:48:47Z</time>
      </trkpt>
      <trkpt lat="48.71" lon="-3.4544">
        <ele>67.2</ele>
        <time>2019-07-11T13:48:48Z</time>
      </trkpt>
      <trkpt lat="48.70997" lon="-3.4544">
        <ele>66.4</ele>
        <time>2019-07-11T13:48:49Z</time>
      </trkpt>
      <trkpt lat="48.70993" lon="-3.45441">
        <ele>65.8</ele>
        <time>2019-07-11T13:48:50Z</time>
      </trkpt>
      <trkpt lat="48.7099" lon="-3.45442">
        <ele>65.7</ele>
        <time>2019-07-11T13:48:51Z</time>
      </trkpt>
      <trkpt lat="48.70987" lon="-3.45443">
        <ele>64.9</ele>
        <time>2019-07-11T13:48:52Z</time>
      </trkpt>
      <trkpt lat="48.70984" lon="-3.45444">
        <ele>64.6</ele>
        <time>2019-07-11T13:48:53Z</time>
      </trkpt>
      <trkpt lat="48.70981" lon="-3.45444">
        <ele>64.5</ele>
        <time>2019-07-11T13:48:54Z</time>
      </trkpt>
      <trkpt lat="48.70979" lon="-3.45445">
        <ele>64.5</ele>
        <time>2019-07-11T13:48:55Z</time>
      </trkpt>
      <trkpt lat="48.70976" lon="-3.45445">
        <ele>64.7</ele>
        <time>2019-07-11T13:48:56Z</time>
      </trkpt>
      <trkpt lat="48.70974" lon="-3.45446">
        <ele>64.6</ele>
        <time>2019-07-11T13:48:57Z</time>
      </trkpt>
      <trkpt lat="48.70971" lon="-3.45446">
        <ele>65.2</ele>
        <time>2019-07-11T13:48:58Z</time>
      </trkpt>
      <trkpt lat="48.70969" lon="-3.45446">
        <ele>65.2</ele>
        <time>2019-07-11T13:48:59Z</time>
      </trkpt>
      <trkpt lat="48.70967" lon="-3.45445">
        <ele>65.4</ele>
        <time>2019-07-11T13:49:00Z</time>
      </trkpt>
      <trkpt lat="48.70966" lon="-3.45444">
        <ele>66</ele>
        <time>2019-07-11T13:49:01Z</time>
      </trkpt>
      <trkpt lat="48.70965" lon="-3.45443">
        <ele>66.4</ele>
        <time>2019-07-11T13:49:02Z</time>
      </trkpt>
      <trkpt lat="48.70963" lon="-3.45442">
        <ele>67.7</ele>
        <time>2019-07-11T13:49:03Z</time>
      </trkpt>
      <trkpt lat="48.70961" lon="-3.45442">
        <ele>68.9</ele>
        <time>2019-07-11T13:49:04Z</time>
      </trkpt>
      <trkpt lat="48.70959" lon="-3.45441">
        <ele>70</ele>
        <time>2019-07-11T13:49:05Z</time>
      </trkpt>
      <trkpt lat="48.70956" lon="-3.45441">
        <ele>71.5</ele>
        <time>2019-07-11T13:49:06Z</time>
      </trkpt>
      <trkpt lat="48.70954" lon="-3.45441">
        <ele>73</ele>
        <time>2019-07-11T13:49:07Z</time>
      </trkpt>
      <trkpt lat="48.70951" lon="-3.4544">
        <ele>74</ele>
        <time>2019-07-11T13:49:08Z</time>
      </trkpt>
      <trkpt lat="48.70948" lon="-3.45439">
        <ele>74.1</ele>
        <time>2019-07-11T13:49:09Z</time>
      </trkpt>
      <trkpt lat="48.70946" lon="-3.45438">
        <ele>73.8</ele>
        <time>2019-07-11T13:49:10Z</time>
      </trkpt>
      <trkpt lat="48.70942" lon="-3.45438">
        <ele>74.3</ele>
        <time>2019-07-11T13:49:11Z</time>
      </trkpt>
      <trkpt lat="48.70938" lon="-3.45438">
        <ele>74.9</ele>
        <time>2019-07-11T13:49:12Z</time>
      </trkpt>
      <trkpt lat="48.70934" lon="-3.45438">
        <ele>75.3</ele>
        <time>2019-07-11T13:49:13Z</time>
      </trkpt>
      <trkpt lat="48.7093" lon="-3.45439">
        <ele>75.8</ele>
        <time>2019-07-11T13:49:14Z</time>
      </trkpt>
      <trkpt lat="48.70926" lon="-3.45439">
        <ele>76.6</ele>
        <time>2019-07-11T13:49:15Z</time>
      </trkpt>
      <trkpt lat="48.70923" lon="-3.4544">
        <ele>77.9</ele>
        <time>2019-07-11T13:49:16Z</time>
      </trkpt>
      <trkpt lat="48.7092" lon="-3.45439">
        <ele>79</ele>
        <time>2019-07-11T13:49:17Z</time>
      </trkpt>
      <trkpt lat="48.70917" lon="-3.4544">
        <ele>79.9</ele>
        <time>2019-07-11T13:49:18Z</time>
      </trkpt>
      <trkpt lat="48.70913" lon="-3.4544">
        <ele>80.4</ele>
        <time>2019-07-11T13:49:19Z</time>
      </trkpt>
      <trkpt lat="48.70908" lon="-3.4544">
        <ele>80.5</ele>
        <time>2019-07-11T13:49:20Z</time>
      </trkpt>
      <trkpt lat="48.70904" lon="-3.45441">
        <ele>80.5</ele>
        <time>2019-07-11T13:49:21Z</time>
      </trkpt>
      <trkpt lat="48.709" lon="-3.45443">
        <ele>80.5</ele>
        <time>2019-07-11T13:49:22Z</time>
      </trkpt>
      <trkpt lat="48.70897" lon="-3.45445">
        <ele>80.1</ele>
        <time>2019-07-11T13:49:23Z</time>
      </trkpt>
      <trkpt lat="48.70893" lon="-3.45447">
        <ele>80.3</ele>
        <time>2019-07-11T13:49:24Z</time>
      </trkpt>
      <trkpt lat="48.70891" lon="-3.4545">
        <ele>79.6</ele>
        <time>2019-07-11T13:49:25Z</time>
      </trkpt>
      <trkpt lat="48.70889" lon="-3.45453">
        <ele>78.7</ele>
        <time>2019-07-11T13:49:26Z</time>
      </trkpt>
      <trkpt lat="48.70887" lon="-3.45458">
        <ele>77.3</ele>
        <time>2019-07-11T13:49:27Z</time>
      </trkpt>
      <trkpt lat="48.70886" lon="-3.45462">
        <ele>75.6</ele>
        <time>2019-07-11T13:49:28Z</time>
      </trkpt>
      <trkpt lat="48.70885" lon="-3.45467">
        <ele>74.6</ele>
        <time>2019-07-11T13:49:29Z</time>
      </trkpt>
      <trkpt lat="48.70883" lon="-3.45471">
        <ele>73.4</ele>
        <time>2019-07-11T13:49:30Z</time>
      </trkpt>
      <trkpt lat="48.70882" lon="-3.45476">
        <ele>72.5</ele>
        <time>2019-07-11T13:49:31Z</time>
      </trkpt>
      <trkpt lat="48.7088" lon="-3.4548">
        <ele>71.2</ele>
        <time>2019-07-11T13:49:32Z</time>
      </trkpt>
      <trkpt lat="48.70878" lon="-3.45485">
        <ele>70</ele>
        <time>2019-07-11T13:49:33Z</time>
      </trkpt>
      <trkpt lat="48.70877" lon="-3.45489">
        <ele>69</ele>
        <time>2019-07-11T13:49:34Z</time>
      </trkpt>
      <trkpt lat="48.70876" lon="-3.45493">
        <ele>68.1</ele>
        <time>2019-07-11T13:49:35Z</time>
      </trkpt>
      <trkpt lat="48.70875" lon="-3.45498">
        <ele>66.9</ele>
        <time>2019-07-11T13:49:36Z</time>
      </trkpt>
      <trkpt lat="48.70874" lon="-3.45502">
        <ele>65.5</ele>
        <time>2019-07-11T13:49:37Z</time>
      </trkpt>
      <trkpt lat="48.70873" lon="-3.45507">
        <ele>64.8</ele>
        <time>2019-07-11T13:49:38Z</time>
      </trkpt>
      <trkpt lat="48.70872" lon="-3.45511">
        <ele>64.1</ele>
        <time>2019-07-11T13:49:39Z</time>
      </trkpt>
      <trkpt lat="48.7087" lon="-3.45516">
        <ele>63.5</ele>
        <time>2019-07-11T13:49:40Z</time>
      </trkpt>
      <trkpt lat="48.70869" lon="-3.4552">
        <ele>62.6</ele>
        <time>2019-07-11T13:49:41Z</time>
      </trkpt>
      <trkpt lat="48.70868" lon="-3.45525">
        <ele>62</ele>
        <time>2019-07-11T13:49:42Z</time>
      </trkpt>
      <trkpt lat="48.70867" lon="-3.45529">
        <ele>61</ele>
        <time>2019-07-11T13:49:43Z</time>
      </trkpt>
      <trkpt lat="48.70866" lon="-3.45534">
        <ele>60.2</ele>
        <time>2019-07-11T13:49:44Z</time>
      </trkpt>
      <trkpt lat="48.70865" lon="-3.45538">
        <ele>59.3</ele>
        <time>2019-07-11T13:49:45Z</time>
      </trkpt>
      <trkpt lat="48.70863" lon="-3.45543">
        <ele>58.6</ele>
        <time>2019-07-11T13:49:46Z</time>
      </trkpt>
      <trkpt lat="48.70861" lon="-3.45548">
        <ele>58</ele>
        <time>2019-07-11T13:49:47Z</time>
      </trkpt>
      <trkpt lat="48.70859" lon="-3.45553">
        <ele>57.9</ele>
        <time>2019-07-11T13:49:48Z</time>
      </trkpt>
      <trkpt lat="48.70858" lon="-3.45558">
        <ele>57.9</ele>
        <time>2019-07-11T13:49:49Z</time>
      </trkpt>
      <trkpt lat="48.70856" lon="-3.45564">
        <ele>58</ele>
        <time>2019-07-11T13:49:50Z</time>
      </trkpt>
      <trkpt lat="48.70854" lon="-3.45568">
        <ele>58.4</ele>
        <time>2019-07-11T13:49:51Z</time>
      </trkpt>
      <trkpt lat="48.70853" lon="-3.45573">
        <ele>58.6</ele>
        <time>2019-07-11T13:49:52Z</time>
      </trkpt>
      <trkpt lat="48.70852" lon="-3.45578">
        <ele>58.5</ele>
        <time>2019-07-11T13:49:53Z</time>
      </trkpt>
      <trkpt lat="48.7085" lon="-3.45583">
        <ele>58</ele>
        <time>2019-07-11T13:49:54Z</time>
      </trkpt>
      <trkpt lat="48.70849" lon="-3.45588">
        <ele>57.7</ele>
        <time>2019-07-11T13:49:55Z</time>
      </trkpt>
      <trkpt lat="48.70847" lon="-3.45593">
        <ele>57</ele>
        <time>2019-07-11T13:49:56Z</time>
      </trkpt>
      <trkpt lat="48.70845" lon="-3.45599">
        <ele>56.4</ele>
        <time>2019-07-11T13:49:57Z</time>
      </trkpt>
      <trkpt lat="48.70844" lon="-3.45605">
        <ele>55.9</ele>
        <time>2019-07-11T13:49:58Z</time>
      </trkpt>
      <trkpt lat="48.70842" lon="-3.45611">
        <ele>55.4</ele>
        <time>2019-07-11T13:49:59Z</time>
      </trkpt>
      <trkpt lat="48.70841" lon="-3.45616">
        <ele>55.1</ele>
        <time>2019-07-11T13:50:00Z</time>
      </trkpt>
      <trkpt lat="48.70839" lon="-3.45621">
        <ele>54.7</ele>
        <time>2019-07-11T13:50:01Z</time>
      </trkpt>
      <trkpt lat="48.70837" lon="-3.45626">
        <ele>54.7</ele>
        <time>2019-07-11T13:50:02Z</time>
      </trkpt>
      <trkpt lat="48.70834" lon="-3.45631">
        <ele>54.6</ele>
        <time>2019-07-11T13:50:03Z</time>
      </trkpt>
      <trkpt lat="48.70832" lon="-3.45635">
        <ele>54.3</ele>
        <time>2019-07-11T13:50:04Z</time>
      </trkpt>
      <trkpt lat="48.70829" lon="-3.45639">
        <ele>54.3</ele>
        <time>2019-07-11T13:50:05Z</time>
      </trkpt>
      <trkpt lat="48.70827" lon="-3.45643">
        <ele>54.1</ele>
        <time>2019-07-11T13:50:06Z</time>
      </trkpt>
      <trkpt lat="48.70824" lon="-3.45646">
        <ele>54.3</ele>
        <time>2019-07-11T13:50:07Z</time>
      </trkpt>
      <trkpt lat="48.70823" lon="-3.45649">
        <ele>54.9</ele>
        <time>2019-07-11T13:50:08Z</time>
      </trkpt>
      <trkpt lat="48.70822" lon="-3.45652">
        <ele>55.4</ele>
        <time>2019-07-11T13:50:09Z</time>
      </trkpt>
      <trkpt lat="48.70821" lon="-3.45654">
        <ele>55.9</ele>
        <time>2019-07-11T13:50:10Z</time>
      </trkpt>
      <trkpt lat="48.70819" lon="-3.45655">
        <ele>55.9</ele>
        <time>2019-07-11T13:50:11Z</time>
      </trkpt>
      <trkpt lat="48.70816" lon="-3.45657">
        <ele>56.4</ele>
        <time>2019-07-11T13:50:12Z</time>
      </trkpt>
      <trkpt lat="48.70813" lon="-3.45658">
        <ele>57.3</ele>
        <time>2019-07-11T13:50:13Z</time>
      </trkpt>
      <trkpt lat="48.7081" lon="-3.45659">
        <ele>58.2</ele>
        <time>2019-07-11T13:50:14Z</time>
      </trkpt>
      <trkpt lat="48.70807" lon="-3.45661">
        <ele>58.8</ele>
        <time>2019-07-11T13:50:15Z</time>
      </trkpt>
      <trkpt lat="48.70804" lon="-3.45661">
        <ele>59.6</ele>
        <time>2019-07-11T13:50:16Z</time>
      </trkpt>
      <trkpt lat="48.70801" lon="-3.45662">
        <ele>60.9</ele>
        <time>2019-07-11T13:50:17Z</time>
      </trkpt>
      <trkpt lat="48.70798" lon="-3.45663">
        <ele>61.7</ele>
        <time>2019-07-11T13:50:18Z</time>
      </trkpt>
      <trkpt lat="48.70795" lon="-3.45665">
        <ele>62.4</ele>
        <time>2019-07-11T13:50:19Z</time>
      </trkpt>
      <trkpt lat="48.70793" lon="-3.45666">
        <ele>64.1</ele>
        <time>2019-07-11T13:50:20Z</time>
      </trkpt>
      <trkpt lat="48.7079" lon="-3.45668">
        <ele>65.5</ele>
        <time>2019-07-11T13:50:21Z</time>
      </trkpt>
      <trkpt lat="48.70787" lon="-3.4567">
        <ele>66.6</ele>
        <time>2019-07-11T13:50:22Z</time>
      </trkpt>
      <trkpt lat="48.70785" lon="-3.45673">
        <ele>67.4</ele>
        <time>2019-07-11T13:50:23Z</time>
      </trkpt>
      <trkpt lat="48.70781" lon="-3.45675">
        <ele>68.1</ele>
        <time>2019-07-11T13:50:24Z</time>
      </trkpt>
      <trkpt lat="48.70779" lon="-3.45678">
        <ele>69.1</ele>
        <time>2019-07-11T13:50:25Z</time>
      </trkpt>
      <trkpt lat="48.70776" lon="-3.4568">
        <ele>70.3</ele>
        <time>2019-07-11T13:50:26Z</time>
      </trkpt>
      <trkpt lat="48.70775" lon="-3.45682">
        <ele>70.8</ele>
        <time>2019-07-11T13:50:27Z</time>
      </trkpt>
      <trkpt lat="48.70773" lon="-3.45684">
        <ele>71.7</ele>
        <time>2019-07-11T13:50:28Z</time>
      </trkpt>
      <trkpt lat="48.70771" lon="-3.45686">
        <ele>72.3</ele>
        <time>2019-07-11T13:50:29Z</time>
      </trkpt>
      <trkpt lat="48.70768" lon="-3.45688">
        <ele>72.5</ele>
        <time>2019-07-11T13:50:30Z</time>
      </trkpt>
      <trkpt lat="48.70765" lon="-3.4569">
        <ele>72.6</ele>
        <time>2019-07-11T13:50:31Z</time>
      </trkpt>
      <trkpt lat="48.70763" lon="-3.45692">
        <ele>72.8</ele>
        <time>2019-07-11T13:50:32Z</time>
      </trkpt>
      <trkpt lat="48.7076" lon="-3.45696">
        <ele>72.6</ele>
        <time>2019-07-11T13:50:33Z</time>
      </trkpt>
      <trkpt lat="48.70758" lon="-3.457">
        <ele>72.3</ele>
        <time>2019-07-11T13:50:34Z</time>
      </trkpt>
      <trkpt lat="48.70757" lon="-3.45704">
        <ele>72</ele>
        <time>2019-07-11T13:50:35Z</time>
      </trkpt>
      <trkpt lat="48.70755" lon="-3.45708">
        <ele>72</ele>
        <time>2019-07-11T13:50:36Z</time>
      </trkpt>
      <trkpt lat="48.70754" lon="-3.45712">
        <ele>71.6</ele>
        <time>2019-07-11T13:50:37Z</time>
      </trkpt>
      <trkpt lat="48.70752" lon="-3.45717">
        <ele>71.1</ele>
        <time>2019-07-11T13:50:38Z</time>
      </trkpt>
      <trkpt lat="48.7075" lon="-3.45721">
        <ele>70.2</ele>
        <time>2019-07-11T13:50:39Z</time>
      </trkpt>
      <trkpt lat="48.70749" lon="-3.45725">
        <ele>69.8</ele>
        <time>2019-07-11T13:50:40Z</time>
      </trkpt>
      <trkpt lat="48.70747" lon="-3.45729">
        <ele>69.4</ele>
        <time>2019-07-11T13:50:41Z</time>
      </trkpt>
      <trkpt lat="48.70745" lon="-3.45732">
        <ele>69.4</ele>
        <time>2019-07-11T13:50:42Z</time>
      </trkpt>
      <trkpt lat="48.70744" lon="-3.45734">
        <ele>69.6</ele>
        <time>2019-07-11T13:50:43Z</time>
      </trkpt>
      <trkpt lat="48.70742" lon="-3.45737">
        <ele>69.5</ele>
        <time>2019-07-11T13:50:44Z</time>
      </trkpt>
      <trkpt lat="48.7074" lon="-3.4574">
        <ele>69.3</ele>
        <time>2019-07-11T13:50:45Z</time>
      </trkpt>
      <trkpt lat="48.70738" lon="-3.45742">
        <ele>69.5</ele>
        <time>2019-07-11T13:50:46Z</time>
      </trkpt>
      <trkpt lat="48.70735" lon="-3.45743">
        <ele>69.8</ele>
        <time>2019-07-11T13:50:47Z</time>
      </trkpt>
      <trkpt lat="48.70734" lon="-3.45746">
        <ele>69.1</ele>
        <time>2019-07-11T13:50:48Z</time>
      </trkpt>
      <trkpt lat="48.70732" lon="-3.45749">
        <ele>67.6</ele>
        <time>2019-07-11T13:50:49Z</time>
      </trkpt>
      <trkpt lat="48.70731" lon="-3.45752">
        <ele>66.4</ele>
        <time>2019-07-11T13:50:50Z</time>
      </trkpt>
      <trkpt lat="48.70729" lon="-3.45755">
        <ele>65.5</ele>
        <time>2019-07-11T13:50:51Z</time>
      </trkpt>
      <trkpt lat="48.70727" lon="-3.45757">
        <ele>64.7</ele>
        <time>2019-07-11T13:50:52Z</time>
      </trkpt>
      <trkpt lat="48.70725" lon="-3.45758">
        <ele>64.4</ele>
        <time>2019-07-11T13:50:53Z</time>
      </trkpt>
      <trkpt lat="48.70722" lon="-3.45759">
        <ele>64.2</ele>
        <time>2019-07-11T13:50:54Z</time>
      </trkpt>
      <trkpt lat="48.7072" lon="-3.4576">
        <ele>63.8</ele>
        <time>2019-07-11T13:50:55Z</time>
      </trkpt>
      <trkpt lat="48.70717" lon="-3.4576">
        <ele>63.6</ele>
        <time>2019-07-11T13:50:56Z</time>
      </trkpt>
      <trkpt lat="48.70715" lon="-3.4576">
        <ele>63.3</ele>
        <time>2019-07-11T13:50:57Z</time>
      </trkpt>
      <trkpt lat="48.70713" lon="-3.45759">
        <ele>63.2</ele>
        <time>2019-07-11T13:50:58Z</time>
      </trkpt>
      <trkpt lat="48.70711" lon="-3.45758">
        <ele>62.8</ele>
        <time>2019-07-11T13:50:59Z</time>
      </trkpt>
      <trkpt lat="48.70709" lon="-3.45757">
        <ele>62.2</ele>
        <time>2019-07-11T13:51:00Z</time>
      </trkpt>
      <trkpt lat="48.70707" lon="-3.45757">
        <ele>61.9</ele>
        <time>2019-07-11T13:51:01Z</time>
      </trkpt>
      <trkpt lat="48.70705" lon="-3.45756">
        <ele>61.7</ele>
        <time>2019-07-11T13:51:02Z</time>
      </trkpt>
      <trkpt lat="48.70704" lon="-3.45755">
        <ele>61.7</ele>
        <time>2019-07-11T13:51:03Z</time>
      </trkpt>
      <trkpt lat="48.70701" lon="-3.45754">
        <ele>61.7</ele>
        <time>2019-07-11T13:51:04Z</time>
      </trkpt>
      <trkpt lat="48.70699" lon="-3.45753">
        <ele>61.7</ele>
        <time>2019-07-11T13:51:05Z</time>
      </trkpt>
      <trkpt lat="48.70697" lon="-3.45752">
        <ele>61.7</ele>
        <time>2019-07-11T13:51:06Z</time>
      </trkpt>
      <trkpt lat="48.70695" lon="-3.4575">
        <ele>61.7</ele>
        <time>2019-07-11T13:51:07Z</time>
      </trkpt>
      <trkpt lat="48.70692" lon="-3.45748">
        <ele>61.5</ele>
        <time>2019-07-11T13:51:08Z</time>
      </trkpt>
      <trkpt lat="48.70691" lon="-3.45745">
        <ele>61.3</ele>
        <time>2019-07-11T13:51:09Z</time>
      </trkpt>
      <trkpt lat="48.70689" lon="-3.45743">
        <ele>61.5</ele>
        <time>2019-07-11T13:51:10Z</time>
      </trkpt>
      <trkpt lat="48.70687" lon="-3.45741">
        <ele>61.7</ele>
        <time>2019-07-11T13:51:11Z</time>
      </trkpt>
      <trkpt lat="48.70685" lon="-3.45739">
        <ele>62.2</ele>
        <time>2019-07-11T13:51:12Z</time>
      </trkpt>
      <trkpt lat="48.70683" lon="-3.45737">
        <ele>62.2</ele>
        <time>2019-07-11T13:51:13Z</time>
      </trkpt>
      <trkpt lat="48.7068" lon="-3.45735">
        <ele>62.6</ele>
        <time>2019-07-11T13:51:14Z</time>
      </trkpt>
      <trkpt lat="48.70678" lon="-3.45733">
        <ele>62.5</ele>
        <time>2019-07-11T13:51:15Z</time>
      </trkpt>
      <trkpt lat="48.70677" lon="-3.45731">
        <ele>62.6</ele>
        <time>2019-07-11T13:51:16Z</time>
      </trkpt>
      <trkpt lat="48.70675" lon="-3.45729">
        <ele>62.5</ele>
        <time>2019-07-11T13:51:17Z</time>
      </trkpt>
      <trkpt lat="48.70673" lon="-3.45727">
        <ele>62.8</ele>
        <time>2019-07-11T13:51:18Z</time>
      </trkpt>
      <trkpt lat="48.70671" lon="-3.45725">
        <ele>63.2</ele>
        <time>2019-07-11T13:51:19Z</time>
      </trkpt>
      <trkpt lat="48.70669" lon="-3.45723">
        <ele>63.7</ele>
        <time>2019-07-11T13:51:20Z</time>
      </trkpt>
      <trkpt lat="48.70668" lon="-3.45721">
        <ele>63.7</ele>
        <time>2019-07-11T13:51:21Z</time>
      </trkpt>
      <trkpt lat="48.70666" lon="-3.45719">
        <ele>63.6</ele>
        <time>2019-07-11T13:51:22Z</time>
      </trkpt>
      <trkpt lat="48.70665" lon="-3.45717">
        <ele>63.5</ele>
        <time>2019-07-11T13:51:23Z</time>
      </trkpt>
      <trkpt lat="48.70663" lon="-3.45715">
        <ele>63.4</ele>
        <time>2019-07-11T13:51:24Z</time>
      </trkpt>
      <trkpt lat="48.7066" lon="-3.45713">
        <ele>63.5</ele>
        <time>2019-07-11T13:51:25Z</time>
      </trkpt>
      <trkpt lat="48.70658" lon="-3.45711">
        <ele>63.5</ele>
        <time>2019-07-11T13:51:26Z</time>
      </trkpt>
      <trkpt lat="48.70656" lon="-3.45709">
        <ele>63.6</ele>
        <time>2019-07-11T13:51:27Z</time>
      </trkpt>
      <trkpt lat="48.70655" lon="-3.45708">
        <ele>63.8</ele>
        <time>2019-07-11T13:51:28Z</time>
      </trkpt>
      <trkpt lat="48.70653" lon="-3.45706">
        <ele>64.2</ele>
        <time>2019-07-11T13:51:29Z</time>
      </trkpt>
      <trkpt lat="48.70651" lon="-3.45704">
        <ele>64.6</ele>
        <time>2019-07-11T13:51:30Z</time>
      </trkpt>
      <trkpt lat="48.70649" lon="-3.45702">
        <ele>64.9</ele>
        <time>2019-07-11T13:51:31Z</time>
      </trkpt>
      <trkpt lat="48.70647" lon="-3.457">
        <ele>65.3</ele>
        <time>2019-07-11T13:51:32Z</time>
      </trkpt>
      <trkpt lat="48.70646" lon="-3.45699">
        <ele>65.4</ele>
        <time>2019-07-11T13:51:33Z</time>
      </trkpt>
      <trkpt lat="48.70643" lon="-3.45697">
        <ele>65.7</ele>
        <time>2019-07-11T13:51:34Z</time>
      </trkpt>
      <trkpt lat="48.70642" lon="-3.45695">
        <ele>65.6</ele>
        <time>2019-07-11T13:51:35Z</time>
      </trkpt>
      <trkpt lat="48.7064" lon="-3.45692">
        <ele>65.6</ele>
        <time>2019-07-11T13:51:36Z</time>
      </trkpt>
      <trkpt lat="48.70638" lon="-3.4569">
        <ele>65.8</ele>
        <time>2019-07-11T13:51:37Z</time>
      </trkpt>
      <trkpt lat="48.70636" lon="-3.45688">
        <ele>66.3</ele>
        <time>2019-07-11T13:51:38Z</time>
      </trkpt>
      <trkpt lat="48.70633" lon="-3.45687">
        <ele>66.8</ele>
        <time>2019-07-11T13:51:39Z</time>
      </trkpt>
      <trkpt lat="48.70631" lon="-3.45686">
        <ele>67.5</ele>
        <time>2019-07-11T13:51:40Z</time>
      </trkpt>
      <trkpt lat="48.70629" lon="-3.45685">
        <ele>67.6</ele>
        <time>2019-07-11T13:51:41Z</time>
      </trkpt>
      <trkpt lat="48.70627" lon="-3.45685">
        <ele>68.2</ele>
        <time>2019-07-11T13:51:42Z</time>
      </trkpt>
      <trkpt lat="48.70625" lon="-3.45685">
        <ele>68.4</ele>
        <time>2019-07-11T13:51:43Z</time>
      </trkpt>
      <trkpt lat="48.70623" lon="-3.45686">
        <ele>68.5</ele>
        <time>2019-07-11T13:51:44Z</time>
      </trkpt>
      <trkpt lat="48.70622" lon="-3.45688">
        <ele>69.2</ele>
        <time>2019-07-11T13:51:45Z</time>
      </trkpt>
      <trkpt lat="48.7062" lon="-3.4569">
        <ele>69.6</ele>
        <time>2019-07-11T13:51:46Z</time>
      </trkpt>
      <trkpt lat="48.70618" lon="-3.45693">
        <ele>70.1</ele>
        <time>2019-07-11T13:51:47Z</time>
      </trkpt>
      <trkpt lat="48.70616" lon="-3.45696">
        <ele>70.9</ele>
        <time>2019-07-11T13:51:48Z</time>
      </trkpt>
      <trkpt lat="48.70615" lon="-3.45699">
        <ele>71.4</ele>
        <time>2019-07-11T13:51:49Z</time>
      </trkpt>
      <trkpt lat="48.70613" lon="-3.45701">
        <ele>71.9</ele>
        <time>2019-07-11T13:51:50Z</time>
      </trkpt>
      <trkpt lat="48.70612" lon="-3.45704">
        <ele>72.5</ele>
        <time>2019-07-11T13:51:51Z</time>
      </trkpt>
      <trkpt lat="48.70611" lon="-3.45708">
        <ele>72.7</ele>
        <time>2019-07-11T13:51:52Z</time>
      </trkpt>
      <trkpt lat="48.7061" lon="-3.45711">
        <ele>73.5</ele>
        <time>2019-07-11T13:51:53Z</time>
      </trkpt>
      <trkpt lat="48.70609" lon="-3.45712">
        <ele>74.4</ele>
        <time>2019-07-11T13:51:54Z</time>
      </trkpt>
      <trkpt lat="48.70608" lon="-3.45714">
        <ele>75.3</ele>
        <time>2019-07-11T13:51:55Z</time>
      </trkpt>
      <trkpt lat="48.70606" lon="-3.45716">
        <ele>76</ele>
        <time>2019-07-11T13:51:56Z</time>
      </trkpt>
      <trkpt lat="48.70604" lon="-3.45718">
        <ele>76.4</ele>
        <time>2019-07-11T13:51:57Z</time>
      </trkpt>
      <trkpt lat="48.70603" lon="-3.45721">
        <ele>77.3</ele>
        <time>2019-07-11T13:51:58Z</time>
      </trkpt>
      <trkpt lat="48.70602" lon="-3.45724">
        <ele>78</ele>
        <time>2019-07-11T13:51:59Z</time>
      </trkpt>
      <trkpt lat="48.70601" lon="-3.45727">
        <ele>78.2</ele>
        <time>2019-07-11T13:52:00Z</time>
      </trkpt>
      <trkpt lat="48.70601" lon="-3.45731">
        <ele>79.1</ele>
        <time>2019-07-11T13:52:01Z</time>
      </trkpt>
      <trkpt lat="48.706" lon="-3.45735">
        <ele>79.9</ele>
        <time>2019-07-11T13:52:02Z</time>
      </trkpt>
      <trkpt lat="48.70598" lon="-3.45739">
        <ele>79.9</ele>
        <time>2019-07-11T13:52:03Z</time>
      </trkpt>
      <trkpt lat="48.70595" lon="-3.45742">
        <ele>80.1</ele>
        <time>2019-07-11T13:52:04Z</time>
      </trkpt>
      <trkpt lat="48.70593" lon="-3.45746">
        <ele>80.3</ele>
        <time>2019-07-11T13:52:05Z</time>
      </trkpt>
      <trkpt lat="48.70591" lon="-3.45751">
        <ele>80.6</ele>
        <time>2019-07-11T13:52:06Z</time>
      </trkpt>
      <trkpt lat="48.70589" lon="-3.45756">
        <ele>80.6</ele>
        <time>2019-07-11T13:52:07Z</time>
      </trkpt>
      <trkpt lat="48.70588" lon="-3.45762">
        <ele>80.6</ele>
        <time>2019-07-11T13:52:08Z</time>
      </trkpt>
      <trkpt lat="48.70586" lon="-3.45767">
        <ele>80.9</ele>
        <time>2019-07-11T13:52:09Z</time>
      </trkpt>
      <trkpt lat="48.70584" lon="-3.45773">
        <ele>80.3</ele>
        <time>2019-07-11T13:52:10Z</time>
      </trkpt>
      <trkpt lat="48.70583" lon="-3.4578">
        <ele>79.7</ele>
        <time>2019-07-11T13:52:11Z</time>
      </trkpt>
      <trkpt lat="48.70583" lon="-3.45786">
        <ele>79.2</ele>
        <time>2019-07-11T13:52:12Z</time>
      </trkpt>
      <trkpt lat="48.70584" lon="-3.45792">
        <ele>79.1</ele>
        <time>2019-07-11T13:52:13Z</time>
      </trkpt>
      <trkpt lat="48.70586" lon="-3.45798">
        <ele>79.1</ele>
        <time>2019-07-11T13:52:14Z</time>
      </trkpt>
      <trkpt lat="48.70589" lon="-3.45803">
        <ele>79.5</ele>
        <time>2019-07-11T13:52:15Z</time>
      </trkpt>
      <trkpt lat="48.70591" lon="-3.45808">
        <ele>80.5</ele>
        <time>2019-07-11T13:52:16Z</time>
      </trkpt>
      <trkpt lat="48.70593" lon="-3.45813">
        <ele>81.6</ele>
        <time>2019-07-11T13:52:17Z</time>
      </trkpt>
      <trkpt lat="48.70596" lon="-3.45817">
        <ele>82.6</ele>
        <time>2019-07-11T13:52:18Z</time>
      </trkpt>
      <trkpt lat="48.706" lon="-3.45822">
        <ele>82.9</ele>
        <time>2019-07-11T13:52:19Z</time>
      </trkpt>
      <trkpt lat="48.70605" lon="-3.45828">
        <ele>82.1</ele>
        <time>2019-07-11T13:52:20Z</time>
      </trkpt>
      <trkpt lat="48.7061" lon="-3.45833">
        <ele>81.3</ele>
        <time>2019-07-11T13:52:21Z</time>
      </trkpt>
      <trkpt lat="48.70615" lon="-3.45839">
        <ele>80.4</ele>
        <time>2019-07-11T13:52:22Z</time>
      </trkpt>
      <trkpt lat="48.7062" lon="-3.45844">
        <ele>79</ele>
        <time>2019-07-11T13:52:23Z</time>
      </trkpt>
      <trkpt lat="48.70625" lon="-3.45848">
        <ele>78</ele>
        <time>2019-07-11T13:52:24Z</time>
      </trkpt>
      <trkpt lat="48.7063" lon="-3.45852">
        <ele>76.7</ele>
        <time>2019-07-11T13:52:25Z</time>
      </trkpt>
      <trkpt lat="48.70636" lon="-3.45855">
        <ele>74.4</ele>
        <time>2019-07-11T13:52:26Z</time>
      </trkpt>
      <trkpt lat="48.70641" lon="-3.45859">
        <ele>72.8</ele>
        <time>2019-07-11T13:52:27Z</time>
      </trkpt>
      <trkpt lat="48.70646" lon="-3.45862">
        <ele>71</ele>
        <time>2019-07-11T13:52:28Z</time>
      </trkpt>
      <trkpt lat="48.70651" lon="-3.45865">
        <ele>69.7</ele>
        <time>2019-07-11T13:52:29Z</time>
      </trkpt>
      <trkpt lat="48.70655" lon="-3.45868">
        <ele>68.6</ele>
        <time>2019-07-11T13:52:30Z</time>
      </trkpt>
      <trkpt lat="48.70659" lon="-3.45872">
        <ele>67.8</ele>
        <time>2019-07-11T13:52:31Z</time>
      </trkpt>
      <trkpt lat="48.70663" lon="-3.45877">
        <ele>67.1</ele>
        <time>2019-07-11T13:52:32Z</time>
      </trkpt>
      <trkpt lat="48.70667" lon="-3.45881">
        <ele>66.8</ele>
        <time>2019-07-11T13:52:33Z</time>
      </trkpt>
      <trkpt lat="48.70671" lon="-3.45886">
        <ele>66.6</ele>
        <time>2019-07-11T13:52:34Z</time>
      </trkpt>
      <trkpt lat="48.70675" lon="-3.45892">
        <ele>66.2</ele>
        <time>2019-07-11T13:52:35Z</time>
      </trkpt>
      <trkpt lat="48.70678" lon="-3.45897">
        <ele>65.7</ele>
        <time>2019-07-11T13:52:36Z</time>
      </trkpt>
      <trkpt lat="48.70681" lon="-3.45903">
        <ele>65.3</ele>
        <time>2019-07-11T13:52:37Z</time>
      </trkpt>
      <trkpt lat="48.70683" lon="-3.45909">
        <ele>65.1</ele>
        <time>2019-07-11T13:52:38Z</time>
      </trkpt>
      <trkpt lat="48.70684" lon="-3.45915">
        <ele>65.5</ele>
        <time>2019-07-11T13:52:39Z</time>
      </trkpt>
      <trkpt lat="48.70685" lon="-3.45921">
        <ele>65.8</ele>
        <time>2019-07-11T13:52:40Z</time>
      </trkpt>
      <trkpt lat="48.70685" lon="-3.45927">
        <ele>66.5</ele>
        <time>2019-07-11T13:52:41Z</time>
      </trkpt>
      <trkpt lat="48.70685" lon="-3.45933">
        <ele>67</ele>
        <time>2019-07-11T13:52:42Z</time>
      </trkpt>
      <trkpt lat="48.70684" lon="-3.45939">
        <ele>67.2</ele>
        <time>2019-07-11T13:52:43Z</time>
      </trkpt>
      <trkpt lat="48.70683" lon="-3.45945">
        <ele>67.3</ele>
        <time>2019-07-11T13:52:44Z</time>
      </trkpt>
      <trkpt lat="48.70682" lon="-3.4595">
        <ele>67.3</ele>
        <time>2019-07-11T13:52:45Z</time>
      </trkpt>
      <trkpt lat="48.7068" lon="-3.45956">
        <ele>67.3</ele>
        <time>2019-07-11T13:52:46Z</time>
      </trkpt>
      <trkpt lat="48.70679" lon="-3.45962">
        <ele>67.1</ele>
        <time>2019-07-11T13:52:47Z</time>
      </trkpt>
      <trkpt lat="48.70677" lon="-3.45967">
        <ele>67.1</ele>
        <time>2019-07-11T13:52:48Z</time>
      </trkpt>
      <trkpt lat="48.70676" lon="-3.45973">
        <ele>67.4</ele>
        <time>2019-07-11T13:52:49Z</time>
      </trkpt>
      <trkpt lat="48.70675" lon="-3.45978">
        <ele>67.7</ele>
        <time>2019-07-11T13:52:50Z</time>
      </trkpt>
      <trkpt lat="48.70673" lon="-3.45983">
        <ele>67.7</ele>
        <time>2019-07-11T13:52:51Z</time>
      </trkpt>
      <trkpt lat="48.70672" lon="-3.45988">
        <ele>67.7</ele>
        <time>2019-07-11T13:52:52Z</time>
      </trkpt>
      <trkpt lat="48.70671" lon="-3.45993">
        <ele>68</ele>
        <time>2019-07-11T13:52:53Z</time>
      </trkpt>
      <trkpt lat="48.7067" lon="-3.45998">
        <ele>68</ele>
        <time>2019-07-11T13:52:54Z</time>
      </trkpt>
      <trkpt lat="48.70669" lon="-3.46002">
        <ele>68.3</ele>
        <time>2019-07-11T13:52:55Z</time>
      </trkpt>
      <trkpt lat="48.70668" lon="-3.46007">
        <ele>69.1</ele>
        <time>2019-07-11T13:52:56Z</time>
      </trkpt>
      <trkpt lat="48.70667" lon="-3.46012">
        <ele>70</ele>
        <time>2019-07-11T13:52:57Z</time>
      </trkpt>
      <trkpt lat="48.70667" lon="-3.46017">
        <ele>70.4</ele>
        <time>2019-07-11T13:52:58Z</time>
      </trkpt>
      <trkpt lat="48.70667" lon="-3.46021">
        <ele>70.9</ele>
        <time>2019-07-11T13:52:59Z</time>
      </trkpt>
      <trkpt lat="48.70667" lon="-3.46026">
        <ele>71.1</ele>
        <time>2019-07-11T13:53:00Z</time>
      </trkpt>
      <trkpt lat="48.70667" lon="-3.4603">
        <ele>71.4</ele>
        <time>2019-07-11T13:53:01Z</time>
      </trkpt>
      <trkpt lat="48.70667" lon="-3.46035">
        <ele>72</ele>
        <time>2019-07-11T13:53:02Z</time>
      </trkpt>
      <trkpt lat="48.70667" lon="-3.46039">
        <ele>72</ele>
        <time>2019-07-11T13:53:03Z</time>
      </trkpt>
      <trkpt lat="48.70666" lon="-3.46043">
        <ele>72</ele>
        <time>2019-07-11T13:53:04Z</time>
      </trkpt>
      <trkpt lat="48.70665" lon="-3.46047">
        <ele>71.8</ele>
        <time>2019-07-11T13:53:05Z</time>
      </trkpt>
      <trkpt lat="48.70664" lon="-3.46051">
        <ele>71.5</ele>
        <time>2019-07-11T13:53:06Z</time>
      </trkpt>
      <trkpt lat="48.70664" lon="-3.46055">
        <ele>71.6</ele>
        <time>2019-07-11T13:53:07Z</time>
      </trkpt>
      <trkpt lat="48.70663" lon="-3.46058">
        <ele>72.3</ele>
        <time>2019-07-11T13:53:08Z</time>
      </trkpt>
      <trkpt lat="48.70663" lon="-3.46061">
        <ele>73</ele>
        <time>2019-07-11T13:53:09Z</time>
      </trkpt>
      <trkpt lat="48.70662" lon="-3.46065">
        <ele>74</ele>
        <time>2019-07-11T13:53:10Z</time>
      </trkpt>
      <trkpt lat="48.70662" lon="-3.4607">
        <ele>74.7</ele>
        <time>2019-07-11T13:53:11Z</time>
      </trkpt>
      <trkpt lat="48.70661" lon="-3.46074">
        <ele>75.5</ele>
        <time>2019-07-11T13:53:12Z</time>
      </trkpt>
      <trkpt lat="48.70661" lon="-3.46078">
        <ele>76</ele>
        <time>2019-07-11T13:53:13Z</time>
      </trkpt>
      <trkpt lat="48.7066" lon="-3.46083">
        <ele>76.5</ele>
        <time>2019-07-11T13:53:14Z</time>
      </trkpt>
      <trkpt lat="48.7066" lon="-3.46088">
        <ele>77</ele>
        <time>2019-07-11T13:53:15Z</time>
      </trkpt>
      <trkpt lat="48.70659" lon="-3.46093">
        <ele>77.3</ele>
        <time>2019-07-11T13:53:16Z</time>
      </trkpt>
      <trkpt lat="48.70659" lon="-3.46098">
        <ele>77.8</ele>
        <time>2019-07-11T13:53:17Z</time>
      </trkpt>
      <trkpt lat="48.70659" lon="-3.46103">
        <ele>77.9</ele>
        <time>2019-07-11T13:53:18Z</time>
      </trkpt>
      <trkpt lat="48.70659" lon="-3.46107">
        <ele>77.4</ele>
        <time>2019-07-11T13:53:19Z</time>
      </trkpt>
      <trkpt lat="48.70659" lon="-3.46113">
        <ele>76.6</ele>
        <time>2019-07-11T13:53:20Z</time>
      </trkpt>
      <trkpt lat="48.70659" lon="-3.46118">
        <ele>76.5</ele>
        <time>2019-07-11T13:53:21Z</time>
      </trkpt>
      <trkpt lat="48.70659" lon="-3.46123">
        <ele>76.4</ele>
        <time>2019-07-11T13:53:22Z</time>
      </trkpt>
      <trkpt lat="48.70659" lon="-3.46128">
        <ele>76.4</ele>
        <time>2019-07-11T13:53:23Z</time>
      </trkpt>
      <trkpt lat="48.70659" lon="-3.46133">
        <ele>76.2</ele>
        <time>2019-07-11T13:53:24Z</time>
      </trkpt>
      <trkpt lat="48.70659" lon="-3.46138">
        <ele>76.2</ele>
        <time>2019-07-11T13:53:25Z</time>
      </trkpt>
      <trkpt lat="48.70658" lon="-3.46141">
        <ele>75.7</ele>
        <time>2019-07-11T13:53:26Z</time>
      </trkpt>
      <trkpt lat="48.70658" lon="-3.46144">
        <ele>75.6</ele>
        <time>2019-07-11T13:53:27Z</time>
      </trkpt>
      <trkpt lat="48.70659" lon="-3.46148">
        <ele>74.4</ele>
        <time>2019-07-11T13:53:28Z</time>
      </trkpt>
      <trkpt lat="48.70659" lon="-3.46153">
        <ele>74.2</ele>
        <time>2019-07-11T13:53:29Z</time>
      </trkpt>
      <trkpt lat="48.70659" lon="-3.46157">
        <ele>74.8</ele>
        <time>2019-07-11T13:53:30Z</time>
      </trkpt>
      <trkpt lat="48.70658" lon="-3.46163">
        <ele>74.7</ele>
        <time>2019-07-11T13:53:31Z</time>
      </trkpt>
      <trkpt lat="48.70658" lon="-3.46168">
        <ele>74.8</ele>
        <time>2019-07-11T13:53:32Z</time>
      </trkpt>
      <trkpt lat="48.70658" lon="-3.46174">
        <ele>74.9</ele>
        <time>2019-07-11T13:53:33Z</time>
      </trkpt>
      <trkpt lat="48.7066" lon="-3.46183">
        <ele>72.3</ele>
        <time>2019-07-11T13:53:34Z</time>
      </trkpt>
      <trkpt lat="48.70661" lon="-3.46191">
        <ele>71.2</ele>
        <time>2019-07-11T13:53:35Z</time>
      </trkpt>
      <trkpt lat="48.70661" lon="-3.46199">
        <ele>70.4</ele>
        <time>2019-07-11T13:53:36Z</time>
      </trkpt>
      <trkpt lat="48.70661" lon="-3.46206">
        <ele>69.5</ele>
        <time>2019-07-11T13:53:37Z</time>
      </trkpt>
      <trkpt lat="48.7066" lon="-3.46213">
        <ele>69</ele>
        <time>2019-07-11T13:53:38Z</time>
      </trkpt>
      <trkpt lat="48.7066" lon="-3.46219">
        <ele>68.8</ele>
        <time>2019-07-11T13:53:39Z</time>
      </trkpt>
      <trkpt lat="48.7066" lon="-3.46225">
        <ele>68.3</ele>
        <time>2019-07-11T13:53:40Z</time>
      </trkpt>
      <trkpt lat="48.7066" lon="-3.46231">
        <ele>68.2</ele>
        <time>2019-07-11T13:53:41Z</time>
      </trkpt>
      <trkpt lat="48.7066" lon="-3.46238">
        <ele>68.2</ele>
        <time>2019-07-11T13:53:42Z</time>
      </trkpt>
      <trkpt lat="48.7066" lon="-3.46244">
        <ele>68.2</ele>
        <time>2019-07-11T13:53:43Z</time>
      </trkpt>
      <trkpt lat="48.7066" lon="-3.46251">
        <ele>68.2</ele>
        <time>2019-07-11T13:53:44Z</time>
      </trkpt>
      <trkpt lat="48.70661" lon="-3.46257">
        <ele>68.2</ele>
        <time>2019-07-11T13:53:45Z</time>
      </trkpt>
      <trkpt lat="48.70662" lon="-3.46264">
        <ele>68.6</ele>
        <time>2019-07-11T13:53:46Z</time>
      </trkpt>
      <trkpt lat="48.70664" lon="-3.46271">
        <ele>68.9</ele>
        <time>2019-07-11T13:53:47Z</time>
      </trkpt>
      <trkpt lat="48.70665" lon="-3.46277">
        <ele>69.5</ele>
        <time>2019-07-11T13:53:48Z</time>
      </trkpt>
      <trkpt lat="48.70667" lon="-3.46283">
        <ele>69.7</ele>
        <time>2019-07-11T13:53:49Z</time>
      </trkpt>
      <trkpt lat="48.70669" lon="-3.4629">
        <ele>69.5</ele>
        <time>2019-07-11T13:53:50Z</time>
      </trkpt>
      <trkpt lat="48.70671" lon="-3.46296">
        <ele>69.2</ele>
        <time>2019-07-11T13:53:51Z</time>
      </trkpt>
      <trkpt lat="48.70673" lon="-3.46302">
        <ele>69.4</ele>
        <time>2019-07-11T13:53:52Z</time>
      </trkpt>
      <trkpt lat="48.70676" lon="-3.46309">
        <ele>69.7</ele>
        <time>2019-07-11T13:53:53Z</time>
      </trkpt>
      <trkpt lat="48.70677" lon="-3.46314">
        <ele>69.4</ele>
        <time>2019-07-11T13:53:54Z</time>
      </trkpt>
      <trkpt lat="48.7068" lon="-3.46321">
        <ele>68.8</ele>
        <time>2019-07-11T13:53:55Z</time>
      </trkpt>
      <trkpt lat="48.70681" lon="-3.46328">
        <ele>68.8</ele>
        <time>2019-07-11T13:53:56Z</time>
      </trkpt>
      <trkpt lat="48.70684" lon="-3.46334">
        <ele>68.4</ele>
        <time>2019-07-11T13:53:57Z</time>
      </trkpt>
      <trkpt lat="48.70686" lon="-3.46342">
        <ele>67.9</ele>
        <time>2019-07-11T13:53:58Z</time>
      </trkpt>
      <trkpt lat="48.70689" lon="-3.46349">
        <ele>67</ele>
        <time>2019-07-11T13:53:59Z</time>
      </trkpt>
      <trkpt lat="48.70691" lon="-3.46358">
        <ele>66.2</ele>
        <time>2019-07-11T13:54:00Z</time>
      </trkpt>
      <trkpt lat="48.70694" lon="-3.46367">
        <ele>65.6</ele>
        <time>2019-07-11T13:54:01Z</time>
      </trkpt>
      <trkpt lat="48.70697" lon="-3.46376">
        <ele>64.3</ele>
        <time>2019-07-11T13:54:02Z</time>
      </trkpt>
      <trkpt lat="48.70699" lon="-3.46385">
        <ele>63.7</ele>
        <time>2019-07-11T13:54:03Z</time>
      </trkpt>
      <trkpt lat="48.70702" lon="-3.46393">
        <ele>63.3</ele>
        <time>2019-07-11T13:54:04Z</time>
      </trkpt>
      <trkpt lat="48.70705" lon="-3.46401">
        <ele>62.9</ele>
        <time>2019-07-11T13:54:05Z</time>
      </trkpt>
      <trkpt lat="48.70707" lon="-3.46409">
        <ele>62.3</ele>
        <time>2019-07-11T13:54:06Z</time>
      </trkpt>
      <trkpt lat="48.7071" lon="-3.46414">
        <ele>62.4</ele>
        <time>2019-07-11T13:54:07Z</time>
      </trkpt>
      <trkpt lat="48.70712" lon="-3.46422">
        <ele>62.5</ele>
        <time>2019-07-11T13:54:08Z</time>
      </trkpt>
      <trkpt lat="48.70715" lon="-3.46431">
        <ele>62.3</ele>
        <time>2019-07-11T13:54:09Z</time>
      </trkpt>
      <trkpt lat="48.70718" lon="-3.4644">
        <ele>61.7</ele>
        <time>2019-07-11T13:54:10Z</time>
      </trkpt>
      <trkpt lat="48.70721" lon="-3.46449">
        <ele>61.1</ele>
        <time>2019-07-11T13:54:11Z</time>
      </trkpt>
      <trkpt lat="48.70725" lon="-3.46459">
        <ele>59.9</ele>
        <time>2019-07-11T13:54:12Z</time>
      </trkpt>
      <trkpt lat="48.7073" lon="-3.46471">
        <ele>59.3</ele>
        <time>2019-07-11T13:54:13Z</time>
      </trkpt>
      <trkpt lat="48.70736" lon="-3.46482">
        <ele>59.1</ele>
        <time>2019-07-11T13:54:14Z</time>
      </trkpt>
      <trkpt lat="48.70741" lon="-3.46493">
        <ele>58.2</ele>
        <time>2019-07-11T13:54:15Z</time>
      </trkpt>
      <trkpt lat="48.70746" lon="-3.46504">
        <ele>57.6</ele>
        <time>2019-07-11T13:54:16Z</time>
      </trkpt>
      <trkpt lat="48.70752" lon="-3.46513">
        <ele>57.1</ele>
        <time>2019-07-11T13:54:17Z</time>
      </trkpt>
      <trkpt lat="48.70757" lon="-3.46523">
        <ele>56.8</ele>
        <time>2019-07-11T13:54:18Z</time>
      </trkpt>
      <trkpt lat="48.70763" lon="-3.46533">
        <ele>56.5</ele>
        <time>2019-07-11T13:54:19Z</time>
      </trkpt>
      <trkpt lat="48.70768" lon="-3.46543">
        <ele>56.3</ele>
        <time>2019-07-11T13:54:20Z</time>
      </trkpt>
      <trkpt lat="48.70774" lon="-3.46553">
        <ele>56.2</ele>
        <time>2019-07-11T13:54:21Z</time>
      </trkpt>
      <trkpt lat="48.70779" lon="-3.46563">
        <ele>56.1</ele>
        <time>2019-07-11T13:54:22Z</time>
      </trkpt>
      <trkpt lat="48.70784" lon="-3.46573">
        <ele>56.1</ele>
        <time>2019-07-11T13:54:23Z</time>
      </trkpt>
      <trkpt lat="48.7079" lon="-3.46583">
        <ele>55.8</ele>
        <time>2019-07-11T13:54:24Z</time>
      </trkpt>
      <trkpt lat="48.70795" lon="-3.46593">
        <ele>54.8</ele>
        <time>2019-07-11T13:54:25Z</time>
      </trkpt>
      <trkpt lat="48.70799" lon="-3.46601">
        <ele>54.2</ele>
        <time>2019-07-11T13:54:26Z</time>
      </trkpt>
      <trkpt lat="48.70804" lon="-3.46608">
        <ele>52.6</ele>
        <time>2019-07-11T13:54:27Z</time>
      </trkpt>
      <trkpt lat="48.70809" lon="-3.46614">
        <ele>51.7</ele>
        <time>2019-07-11T13:54:28Z</time>
      </trkpt>
      <trkpt lat="48.70816" lon="-3.46618">
        <ele>51.3</ele>
        <time>2019-07-11T13:54:29Z</time>
      </trkpt>
      <trkpt lat="48.70823" lon="-3.46621">
        <ele>50.7</ele>
        <time>2019-07-11T13:54:30Z</time>
      </trkpt>
      <trkpt lat="48.7083" lon="-3.46623">
        <ele>50.3</ele>
        <time>2019-07-11T13:54:31Z</time>
      </trkpt>
      <trkpt lat="48.70837" lon="-3.46624">
        <ele>49.9</ele>
        <time>2019-07-11T13:54:32Z</time>
      </trkpt>
      <trkpt lat="48.70844" lon="-3.46625">
        <ele>49.8</ele>
        <time>2019-07-11T13:54:33Z</time>
      </trkpt>
      <trkpt lat="48.70851" lon="-3.46627">
        <ele>49.3</ele>
        <time>2019-07-11T13:54:34Z</time>
      </trkpt>
      <trkpt lat="48.70858" lon="-3.46629">
        <ele>49.1</ele>
        <time>2019-07-11T13:54:35Z</time>
      </trkpt>
      <trkpt lat="48.70866" lon="-3.46633">
        <ele>48.7</ele>
        <time>2019-07-11T13:54:36Z</time>
      </trkpt>
      <trkpt lat="48.70874" lon="-3.46636">
        <ele>48</ele>
        <time>2019-07-11T13:54:37Z</time>
      </trkpt>
      <trkpt lat="48.70882" lon="-3.46641">
        <ele>47.4</ele>
        <time>2019-07-11T13:54:38Z</time>
      </trkpt>
      <trkpt lat="48.70892" lon="-3.46647">
        <ele>45.2</ele>
        <time>2019-07-11T13:54:39Z</time>
      </trkpt>
      <trkpt lat="48.70903" lon="-3.4665">
        <ele>45.5</ele>
        <time>2019-07-11T13:54:40Z</time>
      </trkpt>
      <trkpt lat="48.70912" lon="-3.46655">
        <ele>44.7</ele>
        <time>2019-07-11T13:54:41Z</time>
      </trkpt>
      <trkpt lat="48.70921" lon="-3.46659">
        <ele>44.1</ele>
        <time>2019-07-11T13:54:42Z</time>
      </trkpt>
      <trkpt lat="48.70931" lon="-3.46665">
        <ele>43.2</ele>
        <time>2019-07-11T13:54:43Z</time>
      </trkpt>
      <trkpt lat="48.70941" lon="-3.46672">
        <ele>42.1</ele>
        <time>2019-07-11T13:54:44Z</time>
      </trkpt>
      <trkpt lat="48.7095" lon="-3.46679">
        <ele>41.6</ele>
        <time>2019-07-11T13:54:45Z</time>
      </trkpt>
      <trkpt lat="48.7096" lon="-3.46686">
        <ele>41.8</ele>
        <time>2019-07-11T13:54:46Z</time>
      </trkpt>
      <trkpt lat="48.70971" lon="-3.46694">
        <ele>41.8</ele>
        <time>2019-07-11T13:54:47Z</time>
      </trkpt>
      <trkpt lat="48.70982" lon="-3.46702">
        <ele>42.1</ele>
        <time>2019-07-11T13:54:48Z</time>
      </trkpt>
      <trkpt lat="48.70991" lon="-3.46709">
        <ele>42.5</ele>
        <time>2019-07-11T13:54:49Z</time>
      </trkpt>
      <trkpt lat="48.70999" lon="-3.46717">
        <ele>42.1</ele>
        <time>2019-07-11T13:54:50Z</time>
      </trkpt>
      <trkpt lat="48.71006" lon="-3.46726">
        <ele>42</ele>
        <time>2019-07-11T13:54:51Z</time>
      </trkpt>
      <trkpt lat="48.71014" lon="-3.46731">
        <ele>41.8</ele>
        <time>2019-07-11T13:54:52Z</time>
      </trkpt>
      <trkpt lat="48.71021" lon="-3.46736">
        <ele>41.4</ele>
        <time>2019-07-11T13:54:53Z</time>
      </trkpt>
      <trkpt lat="48.71021" lon="-3.46745">
        <ele>41.3</ele>
        <time>2019-07-11T13:54:54Z</time>
      </trkpt>
      <trkpt lat="48.71024" lon="-3.46753">
        <ele>40.9</ele>
        <time>2019-07-11T13:54:55Z</time>
      </trkpt>
      <trkpt lat="48.71029" lon="-3.46766">
        <ele>40</ele>
        <time>2019-07-11T13:54:56Z</time>
      </trkpt>
      <trkpt lat="48.71031" lon="-3.46778">
        <ele>39.5</ele>
        <time>2019-07-11T13:54:57Z</time>
      </trkpt>
      <trkpt lat="48.71034" lon="-3.46793">
        <ele>37.5</ele>
        <time>2019-07-11T13:54:58Z</time>
      </trkpt>
      <trkpt lat="48.71039" lon="-3.46806">
        <ele>36.9</ele>
        <time>2019-07-11T13:54:59Z</time>
      </trkpt>
      <trkpt lat="48.71043" lon="-3.4682">
        <ele>36.6</ele>
        <time>2019-07-11T13:55:00Z</time>
      </trkpt>
      <trkpt lat="48.71046" lon="-3.46834">
        <ele>36.6</ele>
        <time>2019-07-11T13:55:01Z</time>
      </trkpt>
      <trkpt lat="48.71048" lon="-3.46845">
        <ele>36.8</ele>
        <time>2019-07-11T13:55:02Z</time>
      </trkpt>
      <trkpt lat="48.71051" lon="-3.46857">
        <ele>36.3</ele>
        <time>2019-07-11T13:55:03Z</time>
      </trkpt>
      <trkpt lat="48.71055" lon="-3.46867">
        <ele>36.2</ele>
        <time>2019-07-11T13:55:04Z</time>
      </trkpt>
      <trkpt lat="48.71056" lon="-3.46876">
        <ele>36.1</ele>
        <time>2019-07-11T13:55:05Z</time>
      </trkpt>
      <trkpt lat="48.71056" lon="-3.46887">
        <ele>35.2</ele>
        <time>2019-07-11T13:55:06Z</time>
      </trkpt>
      <trkpt lat="48.71057" lon="-3.46897">
        <ele>34.9</ele>
        <time>2019-07-11T13:55:07Z</time>
      </trkpt>
      <trkpt lat="48.71057" lon="-3.46906">
        <ele>34.9</ele>
        <time>2019-07-11T13:55:08Z</time>
      </trkpt>
      <trkpt lat="48.71055" lon="-3.46915">
        <ele>35.3</ele>
        <time>2019-07-11T13:55:09Z</time>
      </trkpt>
      <trkpt lat="48.71053" lon="-3.46923">
        <ele>35.1</ele>
        <time>2019-07-11T13:55:10Z</time>
      </trkpt>
      <trkpt lat="48.7105" lon="-3.46929">
        <ele>34.9</ele>
        <time>2019-07-11T13:55:11Z</time>
      </trkpt>
      <trkpt lat="48.71046" lon="-3.46933">
        <ele>34.7</ele>
        <time>2019-07-11T13:55:12Z</time>
      </trkpt>
      <trkpt lat="48.71043" lon="-3.46939">
        <ele>34.4</ele>
        <time>2019-07-11T13:55:13Z</time>
      </trkpt>
      <trkpt lat="48.7104" lon="-3.46944">
        <ele>34</ele>
        <time>2019-07-11T13:55:14Z</time>
      </trkpt>
      <trkpt lat="48.71035" lon="-3.46948">
        <ele>33.8</ele>
        <time>2019-07-11T13:55:15Z</time>
      </trkpt>
      <trkpt lat="48.71031" lon="-3.46954">
        <ele>33.7</ele>
        <time>2019-07-11T13:55:16Z</time>
      </trkpt>
      <trkpt lat="48.71027" lon="-3.46959">
        <ele>33.6</ele>
        <time>2019-07-11T13:55:17Z</time>
      </trkpt>
      <trkpt lat="48.71022" lon="-3.46962">
        <ele>33.2</ele>
        <time>2019-07-11T13:55:18Z</time>
      </trkpt>
      <trkpt lat="48.71018" lon="-3.46972">
        <ele>31.5</ele>
        <time>2019-07-11T13:55:19Z</time>
      </trkpt>
      <trkpt lat="48.71014" lon="-3.46974">
        <ele>31</ele>
        <time>2019-07-11T13:55:20Z</time>
      </trkpt>
      <trkpt lat="48.7101" lon="-3.46976">
        <ele>29.6</ele>
        <time>2019-07-11T13:55:21Z</time>
      </trkpt>
      <trkpt lat="48.71007" lon="-3.46978">
        <ele>28.7</ele>
        <time>2019-07-11T13:55:22Z</time>
      </trkpt>
      <trkpt lat="48.71005" lon="-3.4698">
        <ele>27.9</ele>
        <time>2019-07-11T13:55:23Z</time>
      </trkpt>
      <trkpt lat="48.71003" lon="-3.46981">
        <ele>27.1</ele>
        <time>2019-07-11T13:55:24Z</time>
      </trkpt>
      <trkpt lat="48.71" lon="-3.46982">
        <ele>26.7</ele>
        <time>2019-07-11T13:55:25Z</time>
      </trkpt>
      <trkpt lat="48.70997" lon="-3.46984">
        <ele>26.5</ele>
        <time>2019-07-11T13:55:26Z</time>
      </trkpt>
      <trkpt lat="48.70995" lon="-3.46985">
        <ele>26.5</ele>
        <time>2019-07-11T13:55:27Z</time>
      </trkpt>
      <trkpt lat="48.70993" lon="-3.46987">
        <ele>26.6</ele>
        <time>2019-07-11T13:55:28Z</time>
      </trkpt>
      <trkpt lat="48.7099" lon="-3.46988">
        <ele>27.2</ele>
        <time>2019-07-11T13:55:29Z</time>
      </trkpt>
      <trkpt lat="48.7099" lon="-3.4699">
        <ele>28.8</ele>
        <time>2019-07-11T13:55:30Z</time>
      </trkpt>
      <trkpt lat="48.70989" lon="-3.46991">
        <ele>30</ele>
        <time>2019-07-11T13:55:31Z</time>
      </trkpt>
      <trkpt lat="48.70987" lon="-3.46992">
        <ele>30.5</ele>
        <time>2019-07-11T13:55:32Z</time>
      </trkpt>
      <trkpt lat="48.70985" lon="-3.46993">
        <ele>31.4</ele>
        <time>2019-07-11T13:55:33Z</time>
      </trkpt>
      <trkpt lat="48.70983" lon="-3.46994">
        <ele>32.2</ele>
        <time>2019-07-11T13:55:34Z</time>
      </trkpt>
      <trkpt lat="48.70981" lon="-3.46995">
        <ele>32.6</ele>
        <time>2019-07-11T13:55:35Z</time>
      </trkpt>
      <trkpt lat="48.70978" lon="-3.46995">
        <ele>32.9</ele>
        <time>2019-07-11T13:55:36Z</time>
      </trkpt>
      <trkpt lat="48.70976" lon="-3.46995">
        <ele>33.4</ele>
        <time>2019-07-11T13:55:37Z</time>
      </trkpt>
      <trkpt lat="48.70974" lon="-3.46996">
        <ele>34.4</ele>
        <time>2019-07-11T13:55:38Z</time>
      </trkpt>
      <trkpt lat="48.70972" lon="-3.46997">
        <ele>35.4</ele>
        <time>2019-07-11T13:55:39Z</time>
      </trkpt>
      <trkpt lat="48.70969" lon="-3.46998">
        <ele>36.4</ele>
        <time>2019-07-11T13:55:40Z</time>
      </trkpt>
      <trkpt lat="48.70968" lon="-3.46998">
        <ele>37.1</ele>
        <time>2019-07-11T13:55:41Z</time>
      </trkpt>
      <trkpt lat="48.70966" lon="-3.46999">
        <ele>37.2</ele>
        <time>2019-07-11T13:55:42Z</time>
      </trkpt>
      <trkpt lat="48.70964" lon="-3.47">
        <ele>37</ele>
        <time>2019-07-11T13:55:43Z</time>
      </trkpt>
      <trkpt lat="48.70961" lon="-3.47005">
        <ele>37.4</ele>
        <time>2019-07-11T13:55:47Z</time>
      </trkpt>
      <trkpt lat="48.70959" lon="-3.47007">
        <ele>37.5</ele>
        <time>2019-07-11T13:55:48Z</time>
      </trkpt>
      <trkpt lat="48.70957" lon="-3.47009">
        <ele>37.7</ele>
        <time>2019-07-11T13:55:49Z</time>
      </trkpt>
      <trkpt lat="48.70956" lon="-3.47011">
        <ele>38.1</ele>
        <time>2019-07-11T13:55:50Z</time>
      </trkpt>
      <trkpt lat="48.70956" lon="-3.47013">
        <ele>38.3</ele>
        <time>2019-07-11T13:55:51Z</time>
      </trkpt>
      <trkpt lat="48.70955" lon="-3.47015">
        <ele>38.2</ele>
        <time>2019-07-11T13:55:52Z</time>
      </trkpt>
      <trkpt lat="48.70954" lon="-3.47017">
        <ele>38.4</ele>
        <time>2019-07-11T13:55:53Z</time>
      </trkpt>
      <trkpt lat="48.70952" lon="-3.47018">
        <ele>38.7</ele>
        <time>2019-07-11T13:55:54Z</time>
      </trkpt>
      <trkpt lat="48.70951" lon="-3.4702">
        <ele>38.7</ele>
        <time>2019-07-11T13:55:55Z</time>
      </trkpt>
      <trkpt lat="48.7095" lon="-3.47021">
        <ele>38.8</ele>
        <time>2019-07-11T13:55:56Z</time>
      </trkpt>
      <trkpt lat="48.7095" lon="-3.47022">
        <ele>39</ele>
        <time>2019-07-11T13:55:57Z</time>
      </trkpt>
      <trkpt lat="48.70949" lon="-3.47025">
        <ele>39.6</ele>
        <time>2019-07-11T13:55:58Z</time>
      </trkpt>
      <trkpt lat="48.70949" lon="-3.47028">
        <ele>40.2</ele>
        <time>2019-07-11T13:55:59Z</time>
      </trkpt>
      <trkpt lat="48.70948" lon="-3.47031">
        <ele>40.8</ele>
        <time>2019-07-11T13:56:00Z</time>
      </trkpt>
      <trkpt lat="48.70948" lon="-3.47034">
        <ele>41.6</ele>
        <time>2019-07-11T13:56:01Z</time>
      </trkpt>
      <trkpt lat="48.70947" lon="-3.47036">
        <ele>42.5</ele>
        <time>2019-07-11T13:56:02Z</time>
      </trkpt>
      <trkpt lat="48.70947" lon="-3.47038">
        <ele>43.2</ele>
        <time>2019-07-11T13:56:03Z</time>
      </trkpt>
      <trkpt lat="48.70946" lon="-3.47041">
        <ele>43.8</ele>
        <time>2019-07-11T13:56:04Z</time>
      </trkpt>
      <trkpt lat="48.70945" lon="-3.47045">
        <ele>44.4</ele>
        <time>2019-07-11T13:56:05Z</time>
      </trkpt>
      <trkpt lat="48.70944" lon="-3.47049">
        <ele>44.9</ele>
        <time>2019-07-11T13:56:06Z</time>
      </trkpt>
      <trkpt lat="48.70943" lon="-3.47052">
        <ele>45.4</ele>
        <time>2019-07-11T13:56:07Z</time>
      </trkpt>
      <trkpt lat="48.70942" lon="-3.47055">
        <ele>45.7</ele>
        <time>2019-07-11T13:56:08Z</time>
      </trkpt>
      <trkpt lat="48.70942" lon="-3.47058">
        <ele>46</ele>
        <time>2019-07-11T13:56:09Z</time>
      </trkpt>
      <trkpt lat="48.70942" lon="-3.47061">
        <ele>46.3</ele>
        <time>2019-07-11T13:56:10Z</time>
      </trkpt>
      <trkpt lat="48.70941" lon="-3.47064">
        <ele>46.6</ele>
        <time>2019-07-11T13:56:11Z</time>
      </trkpt>
      <trkpt lat="48.7094" lon="-3.47067">
        <ele>46.7</ele>
        <time>2019-07-11T13:56:12Z</time>
      </trkpt>
      <trkpt lat="48.7094" lon="-3.47069">
        <ele>46.5</ele>
        <time>2019-07-11T13:56:13Z</time>
      </trkpt>
      <trkpt lat="48.70939" lon="-3.47072">
        <ele>46.3</ele>
        <time>2019-07-11T13:56:14Z</time>
      </trkpt>
      <trkpt lat="48.70939" lon="-3.47075">
        <ele>46.2</ele>
        <time>2019-07-11T13:56:15Z</time>
      </trkpt>
      <trkpt lat="48.70938" lon="-3.47078">
        <ele>46.4</ele>
        <time>2019-07-11T13:56:16Z</time>
      </trkpt>
      <trkpt lat="48.70937" lon="-3.4708">
        <ele>46.6</ele>
        <time>2019-07-11T13:56:17Z</time>
      </trkpt>
      <trkpt lat="48.70937" lon="-3.47082">
        <ele>46.9</ele>
        <time>2019-07-11T13:56:18Z</time>
      </trkpt>
      <trkpt lat="48.70936" lon="-3.47084">
        <ele>47.2</ele>
        <time>2019-07-11T13:56:19Z</time>
      </trkpt>
      <trkpt lat="48.70935" lon="-3.47087">
        <ele>47.5</ele>
        <time>2019-07-11T13:56:20Z</time>
      </trkpt>
      <trkpt lat="48.70934" lon="-3.4709">
        <ele>47.9</ele>
        <time>2019-07-11T13:56:21Z</time>
      </trkpt>
      <trkpt lat="48.70934" lon="-3.47092">
        <ele>48.2</ele>
        <time>2019-07-11T13:56:22Z</time>
      </trkpt>
      <trkpt lat="48.70933" lon="-3.47094">
        <ele>48.5</ele>
        <time>2019-07-11T13:56:23Z</time>
      </trkpt>
      <trkpt lat="48.70932" lon="-3.47096">
        <ele>48.9</ele>
        <time>2019-07-11T13:56:24Z</time>
      </trkpt>
      <trkpt lat="48.70931" lon="-3.471">
        <ele>49.2</ele>
        <time>2019-07-11T13:56:25Z</time>
      </trkpt>
      <trkpt lat="48.70931" lon="-3.47102">
        <ele>49.5</ele>
        <time>2019-07-11T13:56:26Z</time>
      </trkpt>
      <trkpt lat="48.7093" lon="-3.47104">
        <ele>49.8</ele>
        <time>2019-07-11T13:56:27Z</time>
      </trkpt>
      <trkpt lat="48.7093" lon="-3.47106">
        <ele>50</ele>
        <time>2019-07-11T13:56:28Z</time>
      </trkpt>
      <trkpt lat="48.70929" lon="-3.47109">
        <ele>50.3</ele>
        <time>2019-07-11T13:56:29Z</time>
      </trkpt>
      <trkpt lat="48.70929" lon="-3.47112">
        <ele>50.2</ele>
        <time>2019-07-11T13:56:30Z</time>
      </trkpt>
      <trkpt lat="48.70928" lon="-3.47115">
        <ele>50.2</ele>
        <time>2019-07-11T13:56:31Z</time>
      </trkpt>
      <trkpt lat="48.70927" lon="-3.47117">
        <ele>50</ele>
        <time>2019-07-11T13:56:32Z</time>
      </trkpt>
      <trkpt lat="48.70926" lon="-3.47119">
        <ele>50.2</ele>
        <time>2019-07-11T13:56:33Z</time>
      </trkpt>
      <trkpt lat="48.70925" lon="-3.4712">
        <ele>50.1</ele>
        <time>2019-07-11T13:56:34Z</time>
      </trkpt>
      <trkpt lat="48.70924" lon="-3.47123">
        <ele>50.3</ele>
        <time>2019-07-11T13:56:35Z</time>
      </trkpt>
      <trkpt lat="48.70923" lon="-3.47126">
        <ele>50.2</ele>
        <time>2019-07-11T13:56:36Z</time>
      </trkpt>
      <trkpt lat="48.70922" lon="-3.47128">
        <ele>50.3</ele>
        <time>2019-07-11T13:56:37Z</time>
      </trkpt>
      <trkpt lat="48.70921" lon="-3.47129">
        <ele>50.2</ele>
        <time>2019-07-11T13:56:38Z</time>
      </trkpt>
      <trkpt lat="48.70921" lon="-3.47131">
        <ele>50.1</ele>
        <time>2019-07-11T13:56:39Z</time>
      </trkpt>
      <trkpt lat="48.70921" lon="-3.47133">
        <ele>50</ele>
        <time>2019-07-11T13:56:40Z</time>
      </trkpt>
      <trkpt lat="48.70921" lon="-3.47136">
        <ele>49.6</ele>
        <time>2019-07-11T13:56:41Z</time>
      </trkpt>
      <trkpt lat="48.7092" lon="-3.47139">
        <ele>49.6</ele>
        <time>2019-07-11T13:56:42Z</time>
      </trkpt>
      <trkpt lat="48.7092" lon="-3.47142">
        <ele>49.8</ele>
        <time>2019-07-11T13:56:43Z</time>
      </trkpt>
      <trkpt lat="48.7092" lon="-3.47145">
        <ele>50.2</ele>
        <time>2019-07-11T13:56:44Z</time>
      </trkpt>
      <trkpt lat="48.7092" lon="-3.47148">
        <ele>50.5</ele>
        <time>2019-07-11T13:56:45Z</time>
      </trkpt>
      <trkpt lat="48.70919" lon="-3.4715">
        <ele>50.8</ele>
        <time>2019-07-11T13:56:46Z</time>
      </trkpt>
      <trkpt lat="48.70919" lon="-3.47153">
        <ele>50.8</ele>
        <time>2019-07-11T13:56:47Z</time>
      </trkpt>
      <trkpt lat="48.70919" lon="-3.47155">
        <ele>50.8</ele>
        <time>2019-07-11T13:56:48Z</time>
      </trkpt>
      <trkpt lat="48.70919" lon="-3.47158">
        <ele>51.1</ele>
        <time>2019-07-11T13:56:49Z</time>
      </trkpt>
      <trkpt lat="48.70919" lon="-3.47161">
        <ele>51.7</ele>
        <time>2019-07-11T13:56:50Z</time>
      </trkpt>
      <trkpt lat="48.70919" lon="-3.47164">
        <ele>52.3</ele>
        <time>2019-07-11T13:56:51Z</time>
      </trkpt>
      <trkpt lat="48.70919" lon="-3.47166">
        <ele>53</ele>
        <time>2019-07-11T13:56:52Z</time>
      </trkpt>
      <trkpt lat="48.70918" lon="-3.47169">
        <ele>53.6</ele>
        <time>2019-07-11T13:56:53Z</time>
      </trkpt>
      <trkpt lat="48.70918" lon="-3.47172">
        <ele>54.1</ele>
        <time>2019-07-11T13:56:54Z</time>
      </trkpt>
      <trkpt lat="48.70917" lon="-3.47175">
        <ele>54.6</ele>
        <time>2019-07-11T13:56:55Z</time>
      </trkpt>
      <trkpt lat="48.70916" lon="-3.47177">
        <ele>55</ele>
        <time>2019-07-11T13:56:56Z</time>
      </trkpt>
      <trkpt lat="48.70916" lon="-3.4718">
        <ele>55.3</ele>
        <time>2019-07-11T13:56:57Z</time>
      </trkpt>
      <trkpt lat="48.70915" lon="-3.47183">
        <ele>55.7</ele>
        <time>2019-07-11T13:56:58Z</time>
      </trkpt>
      <trkpt lat="48.70915" lon="-3.47185">
        <ele>56.1</ele>
        <time>2019-07-11T13:56:59Z</time>
      </trkpt>
      <trkpt lat="48.70915" lon="-3.47187">
        <ele>56.1</ele>
        <time>2019-07-11T13:57:00Z</time>
      </trkpt>
      <trkpt lat="48.70915" lon="-3.4719">
        <ele>56.4</ele>
        <time>2019-07-11T13:57:01Z</time>
      </trkpt>
      <trkpt lat="48.70914" lon="-3.47192">
        <ele>56.4</ele>
        <time>2019-07-11T13:57:02Z</time>
      </trkpt>
      <trkpt lat="48.70913" lon="-3.47195">
        <ele>56.3</ele>
        <time>2019-07-11T13:57:03Z</time>
      </trkpt>
      <trkpt lat="48.70911" lon="-3.47198">
        <ele>56</ele>
        <time>2019-07-11T13:57:04Z</time>
      </trkpt>
      <trkpt lat="48.70911" lon="-3.47201">
        <ele>56.1</ele>
        <time>2019-07-11T13:57:05Z</time>
      </trkpt>
      <trkpt lat="48.7091" lon="-3.47203">
        <ele>55.9</ele>
        <time>2019-07-11T13:57:06Z</time>
      </trkpt>
      <trkpt lat="48.70909" lon="-3.47205">
        <ele>55.3</ele>
        <time>2019-07-11T13:57:07Z</time>
      </trkpt>
      <trkpt lat="48.70907" lon="-3.47208">
        <ele>54.8</ele>
        <time>2019-07-11T13:57:08Z</time>
      </trkpt>
      <trkpt lat="48.70907" lon="-3.4721">
        <ele>54.5</ele>
        <time>2019-07-11T13:57:09Z</time>
      </trkpt>
      <trkpt lat="48.70907" lon="-3.47213">
        <ele>54.3</ele>
        <time>2019-07-11T13:57:10Z</time>
      </trkpt>
      <trkpt lat="48.70906" lon="-3.47215">
        <ele>54.2</ele>
        <time>2019-07-11T13:57:11Z</time>
      </trkpt>
      <trkpt lat="48.70905" lon="-3.47218">
        <ele>54.2</ele>
        <time>2019-07-11T13:57:12Z</time>
      </trkpt>
      <trkpt lat="48.70905" lon="-3.47221">
        <ele>54</ele>
        <time>2019-07-11T13:57:13Z</time>
      </trkpt>
      <trkpt lat="48.70904" lon="-3.47225">
        <ele>53.7</ele>
        <time>2019-07-11T13:57:14Z</time>
      </trkpt>
      <trkpt lat="48.70904" lon="-3.47227">
        <ele>53</ele>
        <time>2019-07-11T13:57:15Z</time>
      </trkpt>
      <trkpt lat="48.70904" lon="-3.47231">
        <ele>52.5</ele>
        <time>2019-07-11T13:57:16Z</time>
      </trkpt>
      <trkpt lat="48.70903" lon="-3.47233">
        <ele>51.8</ele>
        <time>2019-07-11T13:57:17Z</time>
      </trkpt>
      <trkpt lat="48.70904" lon="-3.47236">
        <ele>51.5</ele>
        <time>2019-07-11T13:57:18Z</time>
      </trkpt>
      <trkpt lat="48.70904" lon="-3.47239">
        <ele>51.5</ele>
        <time>2019-07-11T13:57:19Z</time>
      </trkpt>
      <trkpt lat="48.70902" lon="-3.47242">
        <ele>51.4</ele>
        <time>2019-07-11T13:57:20Z</time>
      </trkpt>
      <trkpt lat="48.70902" lon="-3.47245">
        <ele>51.5</ele>
        <time>2019-07-11T13:57:21Z</time>
      </trkpt>
      <trkpt lat="48.70902" lon="-3.47248">
        <ele>51.5</ele>
        <time>2019-07-11T13:57:22Z</time>
      </trkpt>
      <trkpt lat="48.70902" lon="-3.4725">
        <ele>51.5</ele>
        <time>2019-07-11T13:57:23Z</time>
      </trkpt>
      <trkpt lat="48.70902" lon="-3.47253">
        <ele>51.6</ele>
        <time>2019-07-11T13:57:24Z</time>
      </trkpt>
      <trkpt lat="48.70901" lon="-3.47255">
        <ele>51.7</ele>
        <time>2019-07-11T13:57:25Z</time>
      </trkpt>
      <trkpt lat="48.709" lon="-3.47257">
        <ele>51.7</ele>
        <time>2019-07-11T13:57:26Z</time>
      </trkpt>
      <trkpt lat="48.70899" lon="-3.47259">
        <ele>51.7</ele>
        <time>2019-07-11T13:57:27Z</time>
      </trkpt>
      <trkpt lat="48.70898" lon="-3.47262">
        <ele>51.7</ele>
        <time>2019-07-11T13:57:28Z</time>
      </trkpt>
      <trkpt lat="48.70898" lon="-3.47265">
        <ele>51.9</ele>
        <time>2019-07-11T13:57:29Z</time>
      </trkpt>
      <trkpt lat="48.70898" lon="-3.47267">
        <ele>52.1</ele>
        <time>2019-07-11T13:57:30Z</time>
      </trkpt>
      <trkpt lat="48.70898" lon="-3.47269">
        <ele>52.2</ele>
        <time>2019-07-11T13:57:31Z</time>
      </trkpt>
      <trkpt lat="48.70897" lon="-3.47272">
        <ele>52.5</ele>
        <time>2019-07-11T13:57:32Z</time>
      </trkpt>
      <trkpt lat="48.70897" lon="-3.47274">
        <ele>52.9</ele>
        <time>2019-07-11T13:57:33Z</time>
      </trkpt>
      <trkpt lat="48.70896" lon="-3.47277">
        <ele>53.1</ele>
        <time>2019-07-11T13:57:34Z</time>
      </trkpt>
      <trkpt lat="48.70895" lon="-3.4728">
        <ele>53.5</ele>
        <time>2019-07-11T13:57:35Z</time>
      </trkpt>
      <trkpt lat="48.70895" lon="-3.47283">
        <ele>53.7</ele>
        <time>2019-07-11T13:57:36Z</time>
      </trkpt>
      <trkpt lat="48.70894" lon="-3.47286">
        <ele>54</ele>
        <time>2019-07-11T13:57:37Z</time>
      </trkpt>
      <trkpt lat="48.70893" lon="-3.47289">
        <ele>54.4</ele>
        <time>2019-07-11T13:57:38Z</time>
      </trkpt>
      <trkpt lat="48.70892" lon="-3.47292">
        <ele>54.7</ele>
        <time>2019-07-11T13:57:39Z</time>
      </trkpt>
      <trkpt lat="48.70891" lon="-3.47295">
        <ele>55.1</ele>
        <time>2019-07-11T13:57:40Z</time>
      </trkpt>
      <trkpt lat="48.7089" lon="-3.47297">
        <ele>55.4</ele>
        <time>2019-07-11T13:57:41Z</time>
      </trkpt>
      <trkpt lat="48.70889" lon="-3.47299">
        <ele>55.7</ele>
        <time>2019-07-11T13:57:42Z</time>
      </trkpt>
      <trkpt lat="48.70888" lon="-3.47301">
        <ele>56.1</ele>
        <time>2019-07-11T13:57:43Z</time>
      </trkpt>
      <trkpt lat="48.70887" lon="-3.47304">
        <ele>56.5</ele>
        <time>2019-07-11T13:57:44Z</time>
      </trkpt>
      <trkpt lat="48.70887" lon="-3.47306">
        <ele>57.2</ele>
        <time>2019-07-11T13:57:45Z</time>
      </trkpt>
      <trkpt lat="48.70887" lon="-3.47308">
        <ele>57.8</ele>
        <time>2019-07-11T13:57:46Z</time>
      </trkpt>
      <trkpt lat="48.70887" lon="-3.4731">
        <ele>58.4</ele>
        <time>2019-07-11T13:57:47Z</time>
      </trkpt>
      <trkpt lat="48.70886" lon="-3.47312">
        <ele>59.1</ele>
        <time>2019-07-11T13:57:48Z</time>
      </trkpt>
      <trkpt lat="48.70886" lon="-3.47314">
        <ele>59.9</ele>
        <time>2019-07-11T13:57:49Z</time>
      </trkpt>
      <trkpt lat="48.70886" lon="-3.47317">
        <ele>60.6</ele>
        <time>2019-07-11T13:57:50Z</time>
      </trkpt>
      <trkpt lat="48.70885" lon="-3.47318">
        <ele>61.1</ele>
        <time>2019-07-11T13:57:51Z</time>
      </trkpt>
      <trkpt lat="48.70885" lon="-3.4732">
        <ele>61.7</ele>
        <time>2019-07-11T13:57:52Z</time>
      </trkpt>
      <trkpt lat="48.70884" lon="-3.47322">
        <ele>62.3</ele>
        <time>2019-07-11T13:57:53Z</time>
      </trkpt>
      <trkpt lat="48.70884" lon="-3.47324">
        <ele>62.8</ele>
        <time>2019-07-11T13:57:54Z</time>
      </trkpt>
      <trkpt lat="48.70883" lon="-3.47327">
        <ele>63.1</ele>
        <time>2019-07-11T13:57:55Z</time>
      </trkpt>
      <trkpt lat="48.70882" lon="-3.47329">
        <ele>63.1</ele>
        <time>2019-07-11T13:57:56Z</time>
      </trkpt>
      <trkpt lat="48.70882" lon="-3.47332">
        <ele>62.9</ele>
        <time>2019-07-11T13:57:57Z</time>
      </trkpt>
      <trkpt lat="48.70881" lon="-3.47335">
        <ele>62.8</ele>
        <time>2019-07-11T13:57:58Z</time>
      </trkpt>
      <trkpt lat="48.70881" lon="-3.47338">
        <ele>62.8</ele>
        <time>2019-07-11T13:57:59Z</time>
      </trkpt>
      <trkpt lat="48.70881" lon="-3.47341">
        <ele>62.9</ele>
        <time>2019-07-11T13:58:00Z</time>
      </trkpt>
      <trkpt lat="48.70881" lon="-3.47345">
        <ele>62.4</ele>
        <time>2019-07-11T13:58:01Z</time>
      </trkpt>
      <trkpt lat="48.70881" lon="-3.47347">
        <ele>62.3</ele>
        <time>2019-07-11T13:58:02Z</time>
      </trkpt>
      <trkpt lat="48.7088" lon="-3.47351">
        <ele>62.3</ele>
        <time>2019-07-11T13:58:03Z</time>
      </trkpt>
      <trkpt lat="48.70879" lon="-3.47354">
        <ele>62.3</ele>
        <time>2019-07-11T13:58:04Z</time>
      </trkpt>
      <trkpt lat="48.70879" lon="-3.47357">
        <ele>62.2</ele>
        <time>2019-07-11T13:58:05Z</time>
      </trkpt>
      <trkpt lat="48.70879" lon="-3.4736">
        <ele>62.4</ele>
        <time>2019-07-11T13:58:06Z</time>
      </trkpt>
      <trkpt lat="48.70878" lon="-3.47362">
        <ele>62</ele>
        <time>2019-07-11T13:58:07Z</time>
      </trkpt>
      <trkpt lat="48.70876" lon="-3.47365">
        <ele>61.5</ele>
        <time>2019-07-11T13:58:08Z</time>
      </trkpt>
      <trkpt lat="48.70874" lon="-3.47367">
        <ele>61.1</ele>
        <time>2019-07-11T13:58:09Z</time>
      </trkpt>
      <trkpt lat="48.70873" lon="-3.4737">
        <ele>60.8</ele>
        <time>2019-07-11T13:58:10Z</time>
      </trkpt>
      <trkpt lat="48.70873" lon="-3.47373">
        <ele>60.8</ele>
        <time>2019-07-11T13:58:11Z</time>
      </trkpt>
      <trkpt lat="48.70873" lon="-3.47375">
        <ele>60.8</ele>
        <time>2019-07-11T13:58:12Z</time>
      </trkpt>
      <trkpt lat="48.70873" lon="-3.47379">
        <ele>60.7</ele>
        <time>2019-07-11T13:58:13Z</time>
      </trkpt>
      <trkpt lat="48.70873" lon="-3.47382">
        <ele>60.5</ele>
        <time>2019-07-11T13:58:14Z</time>
      </trkpt>
      <trkpt lat="48.70872" lon="-3.47385">
        <ele>60.1</ele>
        <time>2019-07-11T13:58:15Z</time>
      </trkpt>
      <trkpt lat="48.70872" lon="-3.47387">
        <ele>59.7</ele>
        <time>2019-07-11T13:58:16Z</time>
      </trkpt>
      <trkpt lat="48.70871" lon="-3.47389">
        <ele>59.7</ele>
        <time>2019-07-11T13:58:17Z</time>
      </trkpt>
      <trkpt lat="48.70868" lon="-3.47395">
        <ele>60</ele>
        <time>2019-07-11T13:58:20Z</time>
      </trkpt>
      <trkpt lat="48.70867" lon="-3.47398">
        <ele>60.3</ele>
        <time>2019-07-11T13:58:21Z</time>
      </trkpt>
      <trkpt lat="48.70866" lon="-3.474">
        <ele>60.6</ele>
        <time>2019-07-11T13:58:22Z</time>
      </trkpt>
      <trkpt lat="48.70865" lon="-3.47403">
        <ele>61</ele>
        <time>2019-07-11T13:58:23Z</time>
      </trkpt>
      <trkpt lat="48.70863" lon="-3.47405">
        <ele>61.1</ele>
        <time>2019-07-11T13:58:24Z</time>
      </trkpt>
      <trkpt lat="48.70863" lon="-3.47407">
        <ele>61.3</ele>
        <time>2019-07-11T13:58:25Z</time>
      </trkpt>
      <trkpt lat="48.70863" lon="-3.47409">
        <ele>61.7</ele>
        <time>2019-07-11T13:58:26Z</time>
      </trkpt>
      <trkpt lat="48.70861" lon="-3.47411">
        <ele>62</ele>
        <time>2019-07-11T13:58:27Z</time>
      </trkpt>
      <trkpt lat="48.7086" lon="-3.47412">
        <ele>62.1</ele>
        <time>2019-07-11T13:58:28Z</time>
      </trkpt>
      <trkpt lat="48.7086" lon="-3.47422">
        <ele>63.5</ele>
        <time>2019-07-11T13:58:33Z</time>
      </trkpt>
      <trkpt lat="48.70861" lon="-3.47425">
        <ele>63.9</ele>
        <time>2019-07-11T13:58:34Z</time>
      </trkpt>
      <trkpt lat="48.70861" lon="-3.47428">
        <ele>64.1</ele>
        <time>2019-07-11T13:58:35Z</time>
      </trkpt>
      <trkpt lat="48.7086" lon="-3.47432">
        <ele>64.1</ele>
        <time>2019-07-11T13:58:36Z</time>
      </trkpt>
      <trkpt lat="48.7086" lon="-3.47435">
        <ele>64.1</ele>
        <time>2019-07-11T13:58:37Z</time>
      </trkpt>
      <trkpt lat="48.70859" lon="-3.47437">
        <ele>64.2</ele>
        <time>2019-07-11T13:58:38Z</time>
      </trkpt>
      <trkpt lat="48.70859" lon="-3.47439">
        <ele>64.4</ele>
        <time>2019-07-11T13:58:39Z</time>
      </trkpt>
      <trkpt lat="48.70859" lon="-3.47441">
        <ele>64.6</ele>
        <time>2019-07-11T13:58:40Z</time>
      </trkpt>
      <trkpt lat="48.70858" lon="-3.47444">
        <ele>65</ele>
        <time>2019-07-11T13:58:41Z</time>
      </trkpt>
      <trkpt lat="48.70858" lon="-3.47446">
        <ele>65.4</ele>
        <time>2019-07-11T13:58:42Z</time>
      </trkpt>
      <trkpt lat="48.70857" lon="-3.47449">
        <ele>65.8</ele>
        <time>2019-07-11T13:58:43Z</time>
      </trkpt>
      <trkpt lat="48.70857" lon="-3.47452">
        <ele>66.2</ele>
        <time>2019-07-11T13:58:44Z</time>
      </trkpt>
      <trkpt lat="48.70856" lon="-3.47455">
        <ele>66.4</ele>
        <time>2019-07-11T13:58:45Z</time>
      </trkpt>
      <trkpt lat="48.70856" lon="-3.47458">
        <ele>66.9</ele>
        <time>2019-07-11T13:58:46Z</time>
      </trkpt>
      <trkpt lat="48.70856" lon="-3.47461">
        <ele>67.2</ele>
        <time>2019-07-11T13:58:47Z</time>
      </trkpt>
      <trkpt lat="48.70856" lon="-3.47463">
        <ele>67.4</ele>
        <time>2019-07-11T13:58:48Z</time>
      </trkpt>
      <trkpt lat="48.70855" lon="-3.47467">
        <ele>67.6</ele>
        <time>2019-07-11T13:58:49Z</time>
      </trkpt>
      <trkpt lat="48.70855" lon="-3.4747">
        <ele>67.6</ele>
        <time>2019-07-11T13:58:50Z</time>
      </trkpt>
      <trkpt lat="48.70854" lon="-3.47473">
        <ele>67.8</ele>
        <time>2019-07-11T13:58:51Z</time>
      </trkpt>
      <trkpt lat="48.70854" lon="-3.47476">
        <ele>68.3</ele>
        <time>2019-07-11T13:58:52Z</time>
      </trkpt>
      <trkpt lat="48.70853" lon="-3.47479">
        <ele>68.5</ele>
        <time>2019-07-11T13:58:53Z</time>
      </trkpt>
      <trkpt lat="48.70853" lon="-3.47482">
        <ele>68.4</ele>
        <time>2019-07-11T13:58:54Z</time>
      </trkpt>
      <trkpt lat="48.70853" lon="-3.47485">
        <ele>69</ele>
        <time>2019-07-11T13:58:55Z</time>
      </trkpt>
      <trkpt lat="48.70852" lon="-3.47491">
        <ele>70.5</ele>
        <time>2019-07-11T13:58:58Z</time>
      </trkpt>
      <trkpt lat="48.70852" lon="-3.47494">
        <ele>70.9</ele>
        <time>2019-07-11T13:58:59Z</time>
      </trkpt>
      <trkpt lat="48.7085" lon="-3.47501">
        <ele>72</ele>
        <time>2019-07-11T13:59:02Z</time>
      </trkpt>
      <trkpt lat="48.7085" lon="-3.47505">
        <ele>72.7</ele>
        <time>2019-07-11T13:59:03Z</time>
      </trkpt>
      <trkpt lat="48.7085" lon="-3.47508">
        <ele>73.4</ele>
        <time>2019-07-11T13:59:04Z</time>
      </trkpt>
      <trkpt lat="48.7085" lon="-3.4751">
        <ele>74.1</ele>
        <time>2019-07-11T13:59:05Z</time>
      </trkpt>
      <trkpt lat="48.7085" lon="-3.47513">
        <ele>74.9</ele>
        <time>2019-07-11T13:59:06Z</time>
      </trkpt>
      <trkpt lat="48.70851" lon="-3.47524">
        <ele>77.6</ele>
        <time>2019-07-11T13:59:11Z</time>
      </trkpt>
      <trkpt lat="48.7085" lon="-3.47527">
        <ele>77.4</ele>
        <time>2019-07-11T13:59:12Z</time>
      </trkpt>
      <trkpt lat="48.70849" lon="-3.47529">
        <ele>77.2</ele>
        <time>2019-07-11T13:59:13Z</time>
      </trkpt>
      <trkpt lat="48.70849" lon="-3.47531">
        <ele>77.5</ele>
        <time>2019-07-11T13:59:14Z</time>
      </trkpt>
      <trkpt lat="48.70849" lon="-3.47533">
        <ele>77.4</ele>
        <time>2019-07-11T13:59:15Z</time>
      </trkpt>
      <trkpt lat="48.70849" lon="-3.47536">
        <ele>77.2</ele>
        <time>2019-07-11T13:59:16Z</time>
      </trkpt>
      <trkpt lat="48.70849" lon="-3.4754">
        <ele>76.6</ele>
        <time>2019-07-11T13:59:17Z</time>
      </trkpt>
      <trkpt lat="48.70847" lon="-3.47542">
        <ele>76.2</ele>
        <time>2019-07-11T13:59:18Z</time>
      </trkpt>
      <trkpt lat="48.70846" lon="-3.47545">
        <ele>76.1</ele>
        <time>2019-07-11T13:59:19Z</time>
      </trkpt>
      <trkpt lat="48.70845" lon="-3.47547">
        <ele>75.8</ele>
        <time>2019-07-11T13:59:20Z</time>
      </trkpt>
      <trkpt lat="48.70843" lon="-3.4755">
        <ele>75.4</ele>
        <time>2019-07-11T13:59:21Z</time>
      </trkpt>
      <trkpt lat="48.70842" lon="-3.47559">
        <ele>74.8</ele>
        <time>2019-07-11T13:59:24Z</time>
      </trkpt>
      <trkpt lat="48.70841" lon="-3.47562">
        <ele>74.3</ele>
        <time>2019-07-11T13:59:25Z</time>
      </trkpt>
      <trkpt lat="48.70841" lon="-3.47576">
        <ele>71.4</ele>
        <time>2019-07-11T13:59:31Z</time>
      </trkpt>
      <trkpt lat="48.70841" lon="-3.4758">
        <ele>70.8</ele>
        <time>2019-07-11T13:59:32Z</time>
      </trkpt>
      <trkpt lat="48.70841" lon="-3.47583">
        <ele>70.7</ele>
        <time>2019-07-11T13:59:33Z</time>
      </trkpt>
      <trkpt lat="48.70841" lon="-3.47585">
        <ele>69.9</ele>
        <time>2019-07-11T13:59:34Z</time>
      </trkpt>
      <trkpt lat="48.70841" lon="-3.47596">
        <ele>68.2</ele>
        <time>2019-07-11T13:59:39Z</time>
      </trkpt>
      <trkpt lat="48.70841" lon="-3.47599">
        <ele>68.2</ele>
        <time>2019-07-11T13:59:40Z</time>
      </trkpt>
      <trkpt lat="48.70842" lon="-3.47602">
        <ele>68.2</ele>
        <time>2019-07-11T13:59:41Z</time>
      </trkpt>
      <trkpt lat="48.70842" lon="-3.47605">
        <ele>68</ele>
        <time>2019-07-11T13:59:42Z</time>
      </trkpt>
      <trkpt lat="48.70841" lon="-3.47614">
        <ele>67.6</ele>
        <time>2019-07-11T13:59:46Z</time>
      </trkpt>
      <trkpt lat="48.7084" lon="-3.47617">
        <ele>67.8</ele>
        <time>2019-07-11T13:59:47Z</time>
      </trkpt>
      <trkpt lat="48.7084" lon="-3.4762">
        <ele>67.8</ele>
        <time>2019-07-11T13:59:48Z</time>
      </trkpt>
      <trkpt lat="48.70841" lon="-3.47625">
        <ele>67.7</ele>
        <time>2019-07-11T13:59:49Z</time>
      </trkpt>
      <trkpt lat="48.70841" lon="-3.47628">
        <ele>68.1</ele>
        <time>2019-07-11T13:59:50Z</time>
      </trkpt>
      <trkpt lat="48.70841" lon="-3.47632">
        <ele>67.6</ele>
        <time>2019-07-11T13:59:51Z</time>
      </trkpt>
      <trkpt lat="48.70841" lon="-3.47635">
        <ele>67.6</ele>
        <time>2019-07-11T13:59:52Z</time>
      </trkpt>
      <trkpt lat="48.70839" lon="-3.47638">
        <ele>67.4</ele>
        <time>2019-07-11T13:59:53Z</time>
      </trkpt>
      <trkpt lat="48.70838" lon="-3.47656">
        <ele>66.4</ele>
        <time>2019-07-11T14:00:03Z</time>
      </trkpt>
      <trkpt lat="48.70837" lon="-3.47662">
        <ele>66.5</ele>
        <time>2019-07-11T14:00:04Z</time>
      </trkpt>
      <trkpt lat="48.70836" lon="-3.47666">
        <ele>67</ele>
        <time>2019-07-11T14:00:05Z</time>
      </trkpt>
      <trkpt lat="48.70836" lon="-3.47669">
        <ele>66.9</ele>
        <time>2019-07-11T14:00:06Z</time>
      </trkpt>
      <trkpt lat="48.70836" lon="-3.47672">
        <ele>67</ele>
        <time>2019-07-11T14:00:07Z</time>
      </trkpt>
      <trkpt lat="48.70835" lon="-3.47674">
        <ele>67</ele>
        <time>2019-07-11T14:00:08Z</time>
      </trkpt>
      <trkpt lat="48.70834" lon="-3.47676">
        <ele>67.1</ele>
        <time>2019-07-11T14:00:09Z</time>
      </trkpt>
      <trkpt lat="48.70833" lon="-3.4768">
        <ele>66.8</ele>
        <time>2019-07-11T14:00:10Z</time>
      </trkpt>
      <trkpt lat="48.70832" lon="-3.47683">
        <ele>66.6</ele>
        <time>2019-07-11T14:00:11Z</time>
      </trkpt>
      <trkpt lat="48.70832" lon="-3.47686">
        <ele>66.3</ele>
        <time>2019-07-11T14:00:12Z</time>
      </trkpt>
      <trkpt lat="48.70831" lon="-3.47689">
        <ele>65.9</ele>
        <time>2019-07-11T14:00:13Z</time>
      </trkpt>
      <trkpt lat="48.7083" lon="-3.47692">
        <ele>65.5</ele>
        <time>2019-07-11T14:00:14Z</time>
      </trkpt>
      <trkpt lat="48.7083" lon="-3.47695">
        <ele>65.1</ele>
        <time>2019-07-11T14:00:15Z</time>
      </trkpt>
      <trkpt lat="48.70829" lon="-3.47698">
        <ele>64.7</ele>
        <time>2019-07-11T14:00:16Z</time>
      </trkpt>
      <trkpt lat="48.70828" lon="-3.477">
        <ele>64.2</ele>
        <time>2019-07-11T14:00:17Z</time>
      </trkpt>
      <trkpt lat="48.70826" lon="-3.47703">
        <ele>63.8</ele>
        <time>2019-07-11T14:00:18Z</time>
      </trkpt>
      <trkpt lat="48.70824" lon="-3.47718">
        <ele>63.4</ele>
        <time>2019-07-11T14:00:25Z</time>
      </trkpt>
      <trkpt lat="48.70823" lon="-3.47721">
        <ele>63.1</ele>
        <time>2019-07-11T14:00:26Z</time>
      </trkpt>
      <trkpt lat="48.70821" lon="-3.47723">
        <ele>63.1</ele>
        <time>2019-07-11T14:00:27Z</time>
      </trkpt>
      <trkpt lat="48.7082" lon="-3.47726">
        <ele>63</ele>
        <time>2019-07-11T14:00:28Z</time>
      </trkpt>
      <trkpt lat="48.7082" lon="-3.47728">
        <ele>62.9</ele>
        <time>2019-07-11T14:00:29Z</time>
      </trkpt>
      <trkpt lat="48.70819" lon="-3.47731">
        <ele>62.8</ele>
        <time>2019-07-11T14:00:30Z</time>
      </trkpt>
      <trkpt lat="48.70818" lon="-3.47733">
        <ele>62.9</ele>
        <time>2019-07-11T14:00:31Z</time>
      </trkpt>
      <trkpt lat="48.70816" lon="-3.47735">
        <ele>63.2</ele>
        <time>2019-07-11T14:00:32Z</time>
      </trkpt>
      <trkpt lat="48.70813" lon="-3.4774">
        <ele>63.1</ele>
        <time>2019-07-11T14:00:35Z</time>
      </trkpt>
      <trkpt lat="48.70812" lon="-3.47741">
        <ele>62.9</ele>
        <time>2019-07-11T14:00:36Z</time>
      </trkpt>
      <trkpt lat="48.7081" lon="-3.47743">
        <ele>62.9</ele>
        <time>2019-07-11T14:00:37Z</time>
      </trkpt>
      <trkpt lat="48.7081" lon="-3.47745">
        <ele>62.7</ele>
        <time>2019-07-11T14:00:38Z</time>
      </trkpt>
      <trkpt lat="48.70809" lon="-3.47747">
        <ele>62.7</ele>
        <time>2019-07-11T14:00:39Z</time>
      </trkpt>
      <trkpt lat="48.70808" lon="-3.47749">
        <ele>62.5</ele>
        <time>2019-07-11T14:00:40Z</time>
      </trkpt>
      <trkpt lat="48.70807" lon="-3.47752">
        <ele>62.4</ele>
        <time>2019-07-11T14:00:41Z</time>
      </trkpt>
      <trkpt lat="48.70806" lon="-3.47755">
        <ele>62.2</ele>
        <time>2019-07-11T14:00:42Z</time>
      </trkpt>
      <trkpt lat="48.70806" lon="-3.47757">
        <ele>62.3</ele>
        <time>2019-07-11T14:00:43Z</time>
      </trkpt>
      <trkpt lat="48.70806" lon="-3.4776">
        <ele>62.4</ele>
        <time>2019-07-11T14:00:44Z</time>
      </trkpt>
      <trkpt lat="48.70805" lon="-3.47762">
        <ele>62.3</ele>
        <time>2019-07-11T14:00:45Z</time>
      </trkpt>
      <trkpt lat="48.70804" lon="-3.47764">
        <ele>62.5</ele>
        <time>2019-07-11T14:00:46Z</time>
      </trkpt>
      <trkpt lat="48.70803" lon="-3.47767">
        <ele>62.9</ele>
        <time>2019-07-11T14:00:47Z</time>
      </trkpt>
      <trkpt lat="48.70803" lon="-3.4777">
        <ele>63.2</ele>
        <time>2019-07-11T14:00:48Z</time>
      </trkpt>
      <trkpt lat="48.70803" lon="-3.47772">
        <ele>63.6</ele>
        <time>2019-07-11T14:00:49Z</time>
      </trkpt>
      <trkpt lat="48.70796" lon="-3.47799">
        <ele>61.8</ele>
        <time>2019-07-11T14:01:02Z</time>
      </trkpt>
      <trkpt lat="48.70795" lon="-3.47801">
        <ele>61.7</ele>
        <time>2019-07-11T14:01:03Z</time>
      </trkpt>
      <trkpt lat="48.70795" lon="-3.47803">
        <ele>61.7</ele>
        <time>2019-07-11T14:01:04Z</time>
      </trkpt>
      <trkpt lat="48.70794" lon="-3.47805">
        <ele>61.7</ele>
        <time>2019-07-11T14:01:05Z</time>
      </trkpt>
      <trkpt lat="48.70794" lon="-3.47811">
        <ele>62.1</ele>
        <time>2019-07-11T14:01:08Z</time>
      </trkpt>
      <trkpt lat="48.70793" lon="-3.47825">
        <ele>64</ele>
        <time>2019-07-11T14:01:15Z</time>
      </trkpt>
      <trkpt lat="48.70792" lon="-3.47829">
        <ele>64.8</ele>
        <time>2019-07-11T14:01:16Z</time>
      </trkpt>
      <trkpt lat="48.70792" lon="-3.47832">
        <ele>65.1</ele>
        <time>2019-07-11T14:01:17Z</time>
      </trkpt>
      <trkpt lat="48.70791" lon="-3.47835">
        <ele>65.5</ele>
        <time>2019-07-11T14:01:18Z</time>
      </trkpt>
      <trkpt lat="48.70791" lon="-3.47838">
        <ele>66</ele>
        <time>2019-07-11T14:01:19Z</time>
      </trkpt>
      <trkpt lat="48.7079" lon="-3.47842">
        <ele>66.1</ele>
        <time>2019-07-11T14:01:20Z</time>
      </trkpt>
      <trkpt lat="48.70789" lon="-3.47845">
        <ele>66.4</ele>
        <time>2019-07-11T14:01:21Z</time>
      </trkpt>
      <trkpt lat="48.70788" lon="-3.47848">
        <ele>66.8</ele>
        <time>2019-07-11T14:01:22Z</time>
      </trkpt>
      <trkpt lat="48.70787" lon="-3.47852">
        <ele>67.3</ele>
        <time>2019-07-11T14:01:23Z</time>
      </trkpt>
      <trkpt lat="48.70787" lon="-3.47855">
        <ele>67.6</ele>
        <time>2019-07-11T14:01:24Z</time>
      </trkpt>
      <trkpt lat="48.70786" lon="-3.47857">
        <ele>67.9</ele>
        <time>2019-07-11T14:01:25Z</time>
      </trkpt>
      <trkpt lat="48.70786" lon="-3.4786">
        <ele>68.3</ele>
        <time>2019-07-11T14:01:26Z</time>
      </trkpt>
      <trkpt lat="48.70786" lon="-3.47862">
        <ele>68.6</ele>
        <time>2019-07-11T14:01:27Z</time>
      </trkpt>
      <trkpt lat="48.70786" lon="-3.47864">
        <ele>68.9</ele>
        <time>2019-07-11T14:01:28Z</time>
      </trkpt>
      <trkpt lat="48.70785" lon="-3.47867">
        <ele>69.4</ele>
        <time>2019-07-11T14:01:29Z</time>
      </trkpt>
      <trkpt lat="48.70785" lon="-3.4787">
        <ele>69.5</ele>
        <time>2019-07-11T14:01:30Z</time>
      </trkpt>
      <trkpt lat="48.70784" lon="-3.47872">
        <ele>69.4</ele>
        <time>2019-07-11T14:01:31Z</time>
      </trkpt>
      <trkpt lat="48.70783" lon="-3.47875">
        <ele>69.4</ele>
        <time>2019-07-11T14:01:32Z</time>
      </trkpt>
      <trkpt lat="48.70783" lon="-3.47877">
        <ele>69.2</ele>
        <time>2019-07-11T14:01:33Z</time>
      </trkpt>
      <trkpt lat="48.70782" lon="-3.4788">
        <ele>69.5</ele>
        <time>2019-07-11T14:01:34Z</time>
      </trkpt>
      <trkpt lat="48.70782" lon="-3.47883">
        <ele>69.7</ele>
        <time>2019-07-11T14:01:35Z</time>
      </trkpt>
      <trkpt lat="48.70781" lon="-3.47886">
        <ele>70.1</ele>
        <time>2019-07-11T14:01:36Z</time>
      </trkpt>
      <trkpt lat="48.7078" lon="-3.47889">
        <ele>70.6</ele>
        <time>2019-07-11T14:01:37Z</time>
      </trkpt>
      <trkpt lat="48.7078" lon="-3.47892">
        <ele>71</ele>
        <time>2019-07-11T14:01:38Z</time>
      </trkpt>
      <trkpt lat="48.70779" lon="-3.47895">
        <ele>71.7</ele>
        <time>2019-07-11T14:01:39Z</time>
      </trkpt>
      <trkpt lat="48.70779" lon="-3.47897">
        <ele>72.6</ele>
        <time>2019-07-11T14:01:40Z</time>
      </trkpt>
      <trkpt lat="48.70779" lon="-3.479">
        <ele>73.2</ele>
        <time>2019-07-11T14:01:41Z</time>
      </trkpt>
      <trkpt lat="48.70778" lon="-3.47901">
        <ele>73.4</ele>
        <time>2019-07-11T14:01:42Z</time>
      </trkpt>
      <trkpt lat="48.70777" lon="-3.47903">
        <ele>73.9</ele>
        <time>2019-07-11T14:01:43Z</time>
      </trkpt>
      <trkpt lat="48.70776" lon="-3.47905">
        <ele>74.2</ele>
        <time>2019-07-11T14:01:44Z</time>
      </trkpt>
      <trkpt lat="48.70775" lon="-3.47907">
        <ele>74.7</ele>
        <time>2019-07-11T14:01:45Z</time>
      </trkpt>
      <trkpt lat="48.70775" lon="-3.47909">
        <ele>74.9</ele>
        <time>2019-07-11T14:01:46Z</time>
      </trkpt>
      <trkpt lat="48.70774" lon="-3.47911">
        <ele>75.1</ele>
        <time>2019-07-11T14:01:47Z</time>
      </trkpt>
      <trkpt lat="48.70773" lon="-3.47912">
        <ele>75.5</ele>
        <time>2019-07-11T14:01:48Z</time>
      </trkpt>
      <trkpt lat="48.70773" lon="-3.47914">
        <ele>76</ele>
        <time>2019-07-11T14:01:49Z</time>
      </trkpt>
      <trkpt lat="48.70772" lon="-3.47916">
        <ele>76.3</ele>
        <time>2019-07-11T14:01:50Z</time>
      </trkpt>
      <trkpt lat="48.70771" lon="-3.47919">
        <ele>76.6</ele>
        <time>2019-07-11T14:01:51Z</time>
      </trkpt>
      <trkpt lat="48.7077" lon="-3.47921">
        <ele>77</ele>
        <time>2019-07-11T14:01:52Z</time>
      </trkpt>
      <trkpt lat="48.70768" lon="-3.47923">
        <ele>77.4</ele>
        <time>2019-07-11T14:01:53Z</time>
      </trkpt>
      <trkpt lat="48.70767" lon="-3.47926">
        <ele>77.6</ele>
        <time>2019-07-11T14:01:54Z</time>
      </trkpt>
      <trkpt lat="48.70766" lon="-3.47928">
        <ele>77.9</ele>
        <time>2019-07-11T14:01:55Z</time>
      </trkpt>
      <trkpt lat="48.70766" lon="-3.4793">
        <ele>78.1</ele>
        <time>2019-07-11T14:01:56Z</time>
      </trkpt>
      <trkpt lat="48.70765" lon="-3.47934">
        <ele>78.1</ele>
        <time>2019-07-11T14:01:57Z</time>
      </trkpt>
      <trkpt lat="48.70765" lon="-3.47936">
        <ele>78.3</ele>
        <time>2019-07-11T14:01:58Z</time>
      </trkpt>
      <trkpt lat="48.70764" lon="-3.47939">
        <ele>78.4</ele>
        <time>2019-07-11T14:01:59Z</time>
      </trkpt>
      <trkpt lat="48.70763" lon="-3.47942">
        <ele>78.6</ele>
        <time>2019-07-11T14:02:00Z</time>
      </trkpt>
      <trkpt lat="48.70762" lon="-3.47944">
        <ele>78.9</ele>
        <time>2019-07-11T14:02:01Z</time>
      </trkpt>
      <trkpt lat="48.70762" lon="-3.47946">
        <ele>79.1</ele>
        <time>2019-07-11T14:02:02Z</time>
      </trkpt>
      <trkpt lat="48.70761" lon="-3.47949">
        <ele>79.1</ele>
        <time>2019-07-11T14:02:03Z</time>
      </trkpt>
      <trkpt lat="48.7076" lon="-3.47952">
        <ele>79</ele>
        <time>2019-07-11T14:02:04Z</time>
      </trkpt>
      <trkpt lat="48.70758" lon="-3.47954">
        <ele>78.6</ele>
        <time>2019-07-11T14:02:05Z</time>
      </trkpt>
      <trkpt lat="48.70757" lon="-3.47957">
        <ele>78</ele>
        <time>2019-07-11T14:02:06Z</time>
      </trkpt>
      <trkpt lat="48.70754" lon="-3.47958">
        <ele>77.7</ele>
        <time>2019-07-11T14:02:07Z</time>
      </trkpt>
      <trkpt lat="48.70753" lon="-3.4796">
        <ele>77.4</ele>
        <time>2019-07-11T14:02:08Z</time>
      </trkpt>
      <trkpt lat="48.70751" lon="-3.47963">
        <ele>77.3</ele>
        <time>2019-07-11T14:02:09Z</time>
      </trkpt>
      <trkpt lat="48.70749" lon="-3.47966">
        <ele>77.2</ele>
        <time>2019-07-11T14:02:10Z</time>
      </trkpt>
      <trkpt lat="48.70747" lon="-3.47969">
        <ele>77.1</ele>
        <time>2019-07-11T14:02:11Z</time>
      </trkpt>
      <trkpt lat="48.70746" lon="-3.47971">
        <ele>76.9</ele>
        <time>2019-07-11T14:02:12Z</time>
      </trkpt>
      <trkpt lat="48.70744" lon="-3.47975">
        <ele>77</ele>
        <time>2019-07-11T14:02:13Z</time>
      </trkpt>
      <trkpt lat="48.70742" lon="-3.47977">
        <ele>77.3</ele>
        <time>2019-07-11T14:02:14Z</time>
      </trkpt>
      <trkpt lat="48.70741" lon="-3.47982">
        <ele>77.3</ele>
        <time>2019-07-11T14:02:15Z</time>
      </trkpt>
      <trkpt lat="48.70739" lon="-3.47985">
        <ele>77.5</ele>
        <time>2019-07-11T14:02:16Z</time>
      </trkpt>
      <trkpt lat="48.70738" lon="-3.4799">
        <ele>77</ele>
        <time>2019-07-11T14:02:17Z</time>
      </trkpt>
      <trkpt lat="48.70737" lon="-3.47994">
        <ele>76.8</ele>
        <time>2019-07-11T14:02:18Z</time>
      </trkpt>
      <trkpt lat="48.70736" lon="-3.47998">
        <ele>77.2</ele>
        <time>2019-07-11T14:02:19Z</time>
      </trkpt>
      <trkpt lat="48.70735" lon="-3.48002">
        <ele>77.9</ele>
        <time>2019-07-11T14:02:20Z</time>
      </trkpt>
      <trkpt lat="48.70734" lon="-3.48006">
        <ele>78.1</ele>
        <time>2019-07-11T14:02:21Z</time>
      </trkpt>
      <trkpt lat="48.70732" lon="-3.4801">
        <ele>78.2</ele>
        <time>2019-07-11T14:02:22Z</time>
      </trkpt>
      <trkpt lat="48.70731" lon="-3.48016">
        <ele>78.4</ele>
        <time>2019-07-11T14:02:23Z</time>
      </trkpt>
      <trkpt lat="48.70729" lon="-3.48021">
        <ele>78.2</ele>
        <time>2019-07-11T14:02:24Z</time>
      </trkpt>
      <trkpt lat="48.70728" lon="-3.48027">
        <ele>78</ele>
        <time>2019-07-11T14:02:25Z</time>
      </trkpt>
      <trkpt lat="48.70726" lon="-3.48032">
        <ele>77.9</ele>
        <time>2019-07-11T14:02:26Z</time>
      </trkpt>
      <trkpt lat="48.70724" lon="-3.48036">
        <ele>78.3</ele>
        <time>2019-07-11T14:02:27Z</time>
      </trkpt>
      <trkpt lat="48.70722" lon="-3.48039">
        <ele>78.9</ele>
        <time>2019-07-11T14:02:28Z</time>
      </trkpt>
      <trkpt lat="48.7072" lon="-3.48042">
        <ele>79.8</ele>
        <time>2019-07-11T14:02:29Z</time>
      </trkpt>
      <trkpt lat="48.70718" lon="-3.48046">
        <ele>80.6</ele>
        <time>2019-07-11T14:02:30Z</time>
      </trkpt>
      <trkpt lat="48.70716" lon="-3.4805">
        <ele>80.3</ele>
        <time>2019-07-11T14:02:31Z</time>
      </trkpt>
      <trkpt lat="48.70714" lon="-3.48055">
        <ele>80.2</ele>
        <time>2019-07-11T14:02:32Z</time>
      </trkpt>
      <trkpt lat="48.70712" lon="-3.48059">
        <ele>79.6</ele>
        <time>2019-07-11T14:02:33Z</time>
      </trkpt>
      <trkpt lat="48.7071" lon="-3.48064">
        <ele>78.8</ele>
        <time>2019-07-11T14:02:34Z</time>
      </trkpt>
      <trkpt lat="48.70709" lon="-3.48068">
        <ele>78.7</ele>
        <time>2019-07-11T14:02:35Z</time>
      </trkpt>
      <trkpt lat="48.70707" lon="-3.48073">
        <ele>77.9</ele>
        <time>2019-07-11T14:02:36Z</time>
      </trkpt>
      <trkpt lat="48.70704" lon="-3.48077">
        <ele>78</ele>
        <time>2019-07-11T14:02:37Z</time>
      </trkpt>
      <trkpt lat="48.70702" lon="-3.48081">
        <ele>77.9</ele>
        <time>2019-07-11T14:02:38Z</time>
      </trkpt>
      <trkpt lat="48.707" lon="-3.48084">
        <ele>77.8</ele>
        <time>2019-07-11T14:02:39Z</time>
      </trkpt>
      <trkpt lat="48.70698" lon="-3.48088">
        <ele>78.1</ele>
        <time>2019-07-11T14:02:40Z</time>
      </trkpt>
      <trkpt lat="48.70696" lon="-3.48091">
        <ele>78.3</ele>
        <time>2019-07-11T14:02:41Z</time>
      </trkpt>
      <trkpt lat="48.70694" lon="-3.48094">
        <ele>78.2</ele>
        <time>2019-07-11T14:02:42Z</time>
      </trkpt>
      <trkpt lat="48.70691" lon="-3.48097">
        <ele>78.7</ele>
        <time>2019-07-11T14:02:43Z</time>
      </trkpt>
      <trkpt lat="48.70689" lon="-3.481">
        <ele>78.9</ele>
        <time>2019-07-11T14:02:44Z</time>
      </trkpt>
      <trkpt lat="48.70687" lon="-3.48105">
        <ele>77.5</ele>
        <time>2019-07-11T14:02:45Z</time>
      </trkpt>
      <trkpt lat="48.70684" lon="-3.4811">
        <ele>76.4</ele>
        <time>2019-07-11T14:02:46Z</time>
      </trkpt>
      <trkpt lat="48.70682" lon="-3.48114">
        <ele>75.5</ele>
        <time>2019-07-11T14:02:47Z</time>
      </trkpt>
      <trkpt lat="48.7068" lon="-3.48118">
        <ele>75</ele>
        <time>2019-07-11T14:02:48Z</time>
      </trkpt>
      <trkpt lat="48.70677" lon="-3.48122">
        <ele>74.7</ele>
        <time>2019-07-11T14:02:49Z</time>
      </trkpt>
      <trkpt lat="48.70675" lon="-3.48126">
        <ele>74.5</ele>
        <time>2019-07-11T14:02:50Z</time>
      </trkpt>
      <trkpt lat="48.70672" lon="-3.4813">
        <ele>74.4</ele>
        <time>2019-07-11T14:02:51Z</time>
      </trkpt>
      <trkpt lat="48.7067" lon="-3.48134">
        <ele>74.3</ele>
        <time>2019-07-11T14:02:52Z</time>
      </trkpt>
      <trkpt lat="48.70667" lon="-3.48138">
        <ele>74.5</ele>
        <time>2019-07-11T14:02:53Z</time>
      </trkpt>
      <trkpt lat="48.70664" lon="-3.48141">
        <ele>74.4</ele>
        <time>2019-07-11T14:02:54Z</time>
      </trkpt>
      <trkpt lat="48.70661" lon="-3.48145">
        <ele>74.4</ele>
        <time>2019-07-11T14:02:55Z</time>
      </trkpt>
      <trkpt lat="48.70658" lon="-3.4815">
        <ele>74.4</ele>
        <time>2019-07-11T14:02:56Z</time>
      </trkpt>
      <trkpt lat="48.70655" lon="-3.48155">
        <ele>74.5</ele>
        <time>2019-07-11T14:02:57Z</time>
      </trkpt>
      <trkpt lat="48.70653" lon="-3.4816">
        <ele>74.2</ele>
        <time>2019-07-11T14:02:58Z</time>
      </trkpt>
      <trkpt lat="48.7065" lon="-3.48165">
        <ele>74.1</ele>
        <time>2019-07-11T14:02:59Z</time>
      </trkpt>
      <trkpt lat="48.70647" lon="-3.48169">
        <ele>74</ele>
        <time>2019-07-11T14:03:00Z</time>
      </trkpt>
      <trkpt lat="48.70645" lon="-3.48174">
        <ele>73.8</ele>
        <time>2019-07-11T14:03:01Z</time>
      </trkpt>
      <trkpt lat="48.70642" lon="-3.48177">
        <ele>74.1</ele>
        <time>2019-07-11T14:03:02Z</time>
      </trkpt>
      <trkpt lat="48.70639" lon="-3.4818">
        <ele>74.4</ele>
        <time>2019-07-11T14:03:03Z</time>
      </trkpt>
      <trkpt lat="48.70637" lon="-3.48185">
        <ele>74.2</ele>
        <time>2019-07-11T14:03:04Z</time>
      </trkpt>
      <trkpt lat="48.70635" lon="-3.4819">
        <ele>73.9</ele>
        <time>2019-07-11T14:03:05Z</time>
      </trkpt>
      <trkpt lat="48.70632" lon="-3.48196">
        <ele>73.8</ele>
        <time>2019-07-11T14:03:06Z</time>
      </trkpt>
      <trkpt lat="48.7063" lon="-3.48201">
        <ele>73</ele>
        <time>2019-07-11T14:03:07Z</time>
      </trkpt>
      <trkpt lat="48.70628" lon="-3.48206">
        <ele>72.6</ele>
        <time>2019-07-11T14:03:08Z</time>
      </trkpt>
      <trkpt lat="48.70625" lon="-3.48211">
        <ele>71.3</ele>
        <time>2019-07-11T14:03:09Z</time>
      </trkpt>
      <trkpt lat="48.70623" lon="-3.48216">
        <ele>70.4</ele>
        <time>2019-07-11T14:03:10Z</time>
      </trkpt>
      <trkpt lat="48.70621" lon="-3.48221">
        <ele>69.6</ele>
        <time>2019-07-11T14:03:11Z</time>
      </trkpt>
      <trkpt lat="48.70618" lon="-3.48226">
        <ele>69.2</ele>
        <time>2019-07-11T14:03:12Z</time>
      </trkpt>
      <trkpt lat="48.70616" lon="-3.4823">
        <ele>69</ele>
        <time>2019-07-11T14:03:13Z</time>
      </trkpt>
      <trkpt lat="48.70614" lon="-3.48235">
        <ele>68.3</ele>
        <time>2019-07-11T14:03:14Z</time>
      </trkpt>
      <trkpt lat="48.70612" lon="-3.48239">
        <ele>67.8</ele>
        <time>2019-07-11T14:03:15Z</time>
      </trkpt>
      <trkpt lat="48.70609" lon="-3.48244">
        <ele>67.8</ele>
        <time>2019-07-11T14:03:16Z</time>
      </trkpt>
      <trkpt lat="48.70607" lon="-3.48248">
        <ele>67.9</ele>
        <time>2019-07-11T14:03:17Z</time>
      </trkpt>
      <trkpt lat="48.70604" lon="-3.48252">
        <ele>67.8</ele>
        <time>2019-07-11T14:03:18Z</time>
      </trkpt>
      <trkpt lat="48.70602" lon="-3.48256">
        <ele>67.6</ele>
        <time>2019-07-11T14:03:19Z</time>
      </trkpt>
      <trkpt lat="48.70599" lon="-3.4826">
        <ele>67.4</ele>
        <time>2019-07-11T14:03:20Z</time>
      </trkpt>
      <trkpt lat="48.70597" lon="-3.48264">
        <ele>67.3</ele>
        <time>2019-07-11T14:03:21Z</time>
      </trkpt>
      <trkpt lat="48.70594" lon="-3.48269">
        <ele>67.2</ele>
        <time>2019-07-11T14:03:22Z</time>
      </trkpt>
      <trkpt lat="48.70591" lon="-3.48273">
        <ele>67</ele>
        <time>2019-07-11T14:03:23Z</time>
      </trkpt>
      <trkpt lat="48.70589" lon="-3.48277">
        <ele>66.9</ele>
        <time>2019-07-11T14:03:24Z</time>
      </trkpt>
      <trkpt lat="48.70586" lon="-3.48281">
        <ele>66.9</ele>
        <time>2019-07-11T14:03:25Z</time>
      </trkpt>
      <trkpt lat="48.70584" lon="-3.48285">
        <ele>67.3</ele>
        <time>2019-07-11T14:03:26Z</time>
      </trkpt>
      <trkpt lat="48.70581" lon="-3.48289">
        <ele>67.3</ele>
        <time>2019-07-11T14:03:27Z</time>
      </trkpt>
      <trkpt lat="48.70579" lon="-3.48293">
        <ele>67.1</ele>
        <time>2019-07-11T14:03:28Z</time>
      </trkpt>
      <trkpt lat="48.70577" lon="-3.48298">
        <ele>66.9</ele>
        <time>2019-07-11T14:03:29Z</time>
      </trkpt>
      <trkpt lat="48.70574" lon="-3.48302">
        <ele>66.5</ele>
        <time>2019-07-11T14:03:30Z</time>
      </trkpt>
      <trkpt lat="48.70571" lon="-3.48306">
        <ele>66.3</ele>
        <time>2019-07-11T14:03:31Z</time>
      </trkpt>
      <trkpt lat="48.70569" lon="-3.4831">
        <ele>66.2</ele>
        <time>2019-07-11T14:03:32Z</time>
      </trkpt>
      <trkpt lat="48.70566" lon="-3.48315">
        <ele>66.4</ele>
        <time>2019-07-11T14:03:33Z</time>
      </trkpt>
      <trkpt lat="48.70563" lon="-3.48319">
        <ele>66.8</ele>
        <time>2019-07-11T14:03:34Z</time>
      </trkpt>
      <trkpt lat="48.7056" lon="-3.48323">
        <ele>67.1</ele>
        <time>2019-07-11T14:03:35Z</time>
      </trkpt>
      <trkpt lat="48.70557" lon="-3.48328">
        <ele>67.4</ele>
        <time>2019-07-11T14:03:36Z</time>
      </trkpt>
      <trkpt lat="48.70555" lon="-3.48332">
        <ele>67.5</ele>
        <time>2019-07-11T14:03:37Z</time>
      </trkpt>
      <trkpt lat="48.70553" lon="-3.48336">
        <ele>67.4</ele>
        <time>2019-07-11T14:03:38Z</time>
      </trkpt>
      <trkpt lat="48.70551" lon="-3.4834">
        <ele>67.1</ele>
        <time>2019-07-11T14:03:39Z</time>
      </trkpt>
      <trkpt lat="48.70549" lon="-3.48345">
        <ele>66.8</ele>
        <time>2019-07-11T14:03:40Z</time>
      </trkpt>
      <trkpt lat="48.70547" lon="-3.48349">
        <ele>66.6</ele>
        <time>2019-07-11T14:03:41Z</time>
      </trkpt>
      <trkpt lat="48.70545" lon="-3.48353">
        <ele>66.4</ele>
        <time>2019-07-11T14:03:42Z</time>
      </trkpt>
      <trkpt lat="48.70542" lon="-3.48357">
        <ele>66.5</ele>
        <time>2019-07-11T14:03:43Z</time>
      </trkpt>
      <trkpt lat="48.7054" lon="-3.48361">
        <ele>66.7</ele>
        <time>2019-07-11T14:03:44Z</time>
      </trkpt>
      <trkpt lat="48.70538" lon="-3.48365">
        <ele>66.7</ele>
        <time>2019-07-11T14:03:45Z</time>
      </trkpt>
      <trkpt lat="48.70535" lon="-3.48369">
        <ele>67</ele>
        <time>2019-07-11T14:03:46Z</time>
      </trkpt>
      <trkpt lat="48.70533" lon="-3.48373">
        <ele>67.1</ele>
        <time>2019-07-11T14:03:47Z</time>
      </trkpt>
      <trkpt lat="48.70531" lon="-3.48377">
        <ele>67.4</ele>
        <time>2019-07-11T14:03:48Z</time>
      </trkpt>
      <trkpt lat="48.70528" lon="-3.48381">
        <ele>67.7</ele>
        <time>2019-07-11T14:03:49Z</time>
      </trkpt>
      <trkpt lat="48.70525" lon="-3.48385">
        <ele>68.2</ele>
        <time>2019-07-11T14:03:50Z</time>
      </trkpt>
      <trkpt lat="48.70523" lon="-3.4839">
        <ele>68.2</ele>
        <time>2019-07-11T14:03:51Z</time>
      </trkpt>
      <trkpt lat="48.70521" lon="-3.48394">
        <ele>68.1</ele>
        <time>2019-07-11T14:03:52Z</time>
      </trkpt>
      <trkpt lat="48.70519" lon="-3.48398">
        <ele>67.8</ele>
        <time>2019-07-11T14:03:53Z</time>
      </trkpt>
      <trkpt lat="48.70517" lon="-3.48402">
        <ele>67.4</ele>
        <time>2019-07-11T14:03:54Z</time>
      </trkpt>
      <trkpt lat="48.70515" lon="-3.48406">
        <ele>66.6</ele>
        <time>2019-07-11T14:03:55Z</time>
      </trkpt>
      <trkpt lat="48.70512" lon="-3.48411">
        <ele>66.4</ele>
        <time>2019-07-11T14:03:56Z</time>
      </trkpt>
      <trkpt lat="48.7051" lon="-3.48415">
        <ele>66.3</ele>
        <time>2019-07-11T14:03:57Z</time>
      </trkpt>
      <trkpt lat="48.70508" lon="-3.4842">
        <ele>66.9</ele>
        <time>2019-07-11T14:03:58Z</time>
      </trkpt>
      <trkpt lat="48.70506" lon="-3.48424">
        <ele>67</ele>
        <time>2019-07-11T14:03:59Z</time>
      </trkpt>
      <trkpt lat="48.70503" lon="-3.48428">
        <ele>67</ele>
        <time>2019-07-11T14:04:00Z</time>
      </trkpt>
      <trkpt lat="48.70501" lon="-3.48433">
        <ele>67.1</ele>
        <time>2019-07-11T14:04:01Z</time>
      </trkpt>
      <trkpt lat="48.70499" lon="-3.48438">
        <ele>67.2</ele>
        <time>2019-07-11T14:04:02Z</time>
      </trkpt>
      <trkpt lat="48.70496" lon="-3.48442">
        <ele>67.2</ele>
        <time>2019-07-11T14:04:03Z</time>
      </trkpt>
      <trkpt lat="48.70494" lon="-3.48446">
        <ele>67.1</ele>
        <time>2019-07-11T14:04:04Z</time>
      </trkpt>
      <trkpt lat="48.70491" lon="-3.4845">
        <ele>67.3</ele>
        <time>2019-07-11T14:04:05Z</time>
      </trkpt>
      <trkpt lat="48.70489" lon="-3.48453">
        <ele>67.9</ele>
        <time>2019-07-11T14:04:06Z</time>
      </trkpt>
      <trkpt lat="48.70487" lon="-3.48457">
        <ele>68.1</ele>
        <time>2019-07-11T14:04:07Z</time>
      </trkpt>
      <trkpt lat="48.70484" lon="-3.48461">
        <ele>68.4</ele>
        <time>2019-07-11T14:04:08Z</time>
      </trkpt>
      <trkpt lat="48.70482" lon="-3.48465">
        <ele>68.5</ele>
        <time>2019-07-11T14:04:09Z</time>
      </trkpt>
      <trkpt lat="48.7048" lon="-3.48468">
        <ele>68.6</ele>
        <time>2019-07-11T14:04:10Z</time>
      </trkpt>
      <trkpt lat="48.70478" lon="-3.48473">
        <ele>68.6</ele>
        <time>2019-07-11T14:04:11Z</time>
      </trkpt>
      <trkpt lat="48.70475" lon="-3.48477">
        <ele>68.5</ele>
        <time>2019-07-11T14:04:12Z</time>
      </trkpt>
      <trkpt lat="48.70473" lon="-3.4848">
        <ele>68.7</ele>
        <time>2019-07-11T14:04:13Z</time>
      </trkpt>
      <trkpt lat="48.7047" lon="-3.48484">
        <ele>69.1</ele>
        <time>2019-07-11T14:04:14Z</time>
      </trkpt>
      <trkpt lat="48.70467" lon="-3.48489">
        <ele>69</ele>
        <time>2019-07-11T14:04:15Z</time>
      </trkpt>
      <trkpt lat="48.70465" lon="-3.48493">
        <ele>69</ele>
        <time>2019-07-11T14:04:16Z</time>
      </trkpt>
      <trkpt lat="48.70462" lon="-3.48496">
        <ele>69</ele>
        <time>2019-07-11T14:04:17Z</time>
      </trkpt>
      <trkpt lat="48.7046" lon="-3.485">
        <ele>69</ele>
        <time>2019-07-11T14:04:18Z</time>
      </trkpt>
      <trkpt lat="48.70458" lon="-3.48503">
        <ele>69.1</ele>
        <time>2019-07-11T14:04:19Z</time>
      </trkpt>
      <trkpt lat="48.70456" lon="-3.48507">
        <ele>69.1</ele>
        <time>2019-07-11T14:04:20Z</time>
      </trkpt>
      <trkpt lat="48.70453" lon="-3.4851">
        <ele>69.2</ele>
        <time>2019-07-11T14:04:21Z</time>
      </trkpt>
      <trkpt lat="48.70451" lon="-3.48514">
        <ele>69.3</ele>
        <time>2019-07-11T14:04:22Z</time>
      </trkpt>
      <trkpt lat="48.70448" lon="-3.48517">
        <ele>69.1</ele>
        <time>2019-07-11T14:04:23Z</time>
      </trkpt>
      <trkpt lat="48.70446" lon="-3.4852">
        <ele>69</ele>
        <time>2019-07-11T14:04:24Z</time>
      </trkpt>
      <trkpt lat="48.70443" lon="-3.48524">
        <ele>68.6</ele>
        <time>2019-07-11T14:04:25Z</time>
      </trkpt>
      <trkpt lat="48.70441" lon="-3.48528">
        <ele>68.4</ele>
        <time>2019-07-11T14:04:26Z</time>
      </trkpt>
      <trkpt lat="48.70438" lon="-3.48531">
        <ele>68.4</ele>
        <time>2019-07-11T14:04:27Z</time>
      </trkpt>
      <trkpt lat="48.70436" lon="-3.48534">
        <ele>68.3</ele>
        <time>2019-07-11T14:04:28Z</time>
      </trkpt>
      <trkpt lat="48.70433" lon="-3.48537">
        <ele>68.4</ele>
        <time>2019-07-11T14:04:29Z</time>
      </trkpt>
      <trkpt lat="48.7043" lon="-3.4854">
        <ele>68.6</ele>
        <time>2019-07-11T14:04:30Z</time>
      </trkpt>
      <trkpt lat="48.70427" lon="-3.48543">
        <ele>68.9</ele>
        <time>2019-07-11T14:04:31Z</time>
      </trkpt>
      <trkpt lat="48.70425" lon="-3.48546">
        <ele>69.2</ele>
        <time>2019-07-11T14:04:32Z</time>
      </trkpt>
      <trkpt lat="48.70422" lon="-3.48549">
        <ele>69.7</ele>
        <time>2019-07-11T14:04:33Z</time>
      </trkpt>
      <trkpt lat="48.70419" lon="-3.48553">
        <ele>70.5</ele>
        <time>2019-07-11T14:04:34Z</time>
      </trkpt>
      <trkpt lat="48.70416" lon="-3.48556">
        <ele>71.1</ele>
        <time>2019-07-11T14:04:35Z</time>
      </trkpt>
      <trkpt lat="48.70414" lon="-3.4856">
        <ele>71.7</ele>
        <time>2019-07-11T14:04:36Z</time>
      </trkpt>
      <trkpt lat="48.70412" lon="-3.48564">
        <ele>71.9</ele>
        <time>2019-07-11T14:04:37Z</time>
      </trkpt>
      <trkpt lat="48.70409" lon="-3.48567">
        <ele>72</ele>
        <time>2019-07-11T14:04:38Z</time>
      </trkpt>
      <trkpt lat="48.70406" lon="-3.48571">
        <ele>72</ele>
        <time>2019-07-11T14:04:39Z</time>
      </trkpt>
      <trkpt lat="48.70404" lon="-3.48575">
        <ele>72</ele>
        <time>2019-07-11T14:04:40Z</time>
      </trkpt>
      <trkpt lat="48.70401" lon="-3.48578">
        <ele>72</ele>
        <time>2019-07-11T14:04:41Z</time>
      </trkpt>
      <trkpt lat="48.70399" lon="-3.48581">
        <ele>72.3</ele>
        <time>2019-07-11T14:04:42Z</time>
      </trkpt>
      <trkpt lat="48.70396" lon="-3.48584">
        <ele>72.4</ele>
        <time>2019-07-11T14:04:43Z</time>
      </trkpt>
      <trkpt lat="48.70394" lon="-3.48588">
        <ele>72.6</ele>
        <time>2019-07-11T14:04:44Z</time>
      </trkpt>
      <trkpt lat="48.70391" lon="-3.48591">
        <ele>72.5</ele>
        <time>2019-07-11T14:04:45Z</time>
      </trkpt>
      <trkpt lat="48.70389" lon="-3.48594">
        <ele>72.2</ele>
        <time>2019-07-11T14:04:46Z</time>
      </trkpt>
      <trkpt lat="48.70387" lon="-3.48597">
        <ele>72.1</ele>
        <time>2019-07-11T14:04:47Z</time>
      </trkpt>
      <trkpt lat="48.70384" lon="-3.486">
        <ele>72.1</ele>
        <time>2019-07-11T14:04:48Z</time>
      </trkpt>
      <trkpt lat="48.70382" lon="-3.48603">
        <ele>71.9</ele>
        <time>2019-07-11T14:04:49Z</time>
      </trkpt>
      <trkpt lat="48.70379" lon="-3.48606">
        <ele>71.6</ele>
        <time>2019-07-11T14:04:50Z</time>
      </trkpt>
      <trkpt lat="48.70377" lon="-3.48609">
        <ele>71.1</ele>
        <time>2019-07-11T14:04:51Z</time>
      </trkpt>
      <trkpt lat="48.70374" lon="-3.48611">
        <ele>70.9</ele>
        <time>2019-07-11T14:04:52Z</time>
      </trkpt>
      <trkpt lat="48.70372" lon="-3.48614">
        <ele>70.6</ele>
        <time>2019-07-11T14:04:53Z</time>
      </trkpt>
      <trkpt lat="48.70369" lon="-3.48617">
        <ele>70.3</ele>
        <time>2019-07-11T14:04:54Z</time>
      </trkpt>
      <trkpt lat="48.70367" lon="-3.4862">
        <ele>70.2</ele>
        <time>2019-07-11T14:04:55Z</time>
      </trkpt>
      <trkpt lat="48.70366" lon="-3.48623">
        <ele>70.3</ele>
        <time>2019-07-11T14:04:56Z</time>
      </trkpt>
      <trkpt lat="48.70363" lon="-3.48626">
        <ele>70.5</ele>
        <time>2019-07-11T14:04:57Z</time>
      </trkpt>
      <trkpt lat="48.70361" lon="-3.48629">
        <ele>70.7</ele>
        <time>2019-07-11T14:04:58Z</time>
      </trkpt>
      <trkpt lat="48.70359" lon="-3.48632">
        <ele>70.9</ele>
        <time>2019-07-11T14:04:59Z</time>
      </trkpt>
      <trkpt lat="48.70357" lon="-3.48635">
        <ele>71</ele>
        <time>2019-07-11T14:05:00Z</time>
      </trkpt>
      <trkpt lat="48.70355" lon="-3.48639">
        <ele>71.3</ele>
        <time>2019-07-11T14:05:01Z</time>
      </trkpt>
      <trkpt lat="48.70353" lon="-3.48642">
        <ele>71.4</ele>
        <time>2019-07-11T14:05:02Z</time>
      </trkpt>
      <trkpt lat="48.70351" lon="-3.48646">
        <ele>71.6</ele>
        <time>2019-07-11T14:05:03Z</time>
      </trkpt>
      <trkpt lat="48.7035" lon="-3.48649">
        <ele>71.8</ele>
        <time>2019-07-11T14:05:04Z</time>
      </trkpt>
      <trkpt lat="48.70348" lon="-3.48652">
        <ele>72</ele>
        <time>2019-07-11T14:05:05Z</time>
      </trkpt>
      <trkpt lat="48.70345" lon="-3.48655">
        <ele>72.2</ele>
        <time>2019-07-11T14:05:06Z</time>
      </trkpt>
      <trkpt lat="48.70343" lon="-3.48658">
        <ele>72.3</ele>
        <time>2019-07-11T14:05:07Z</time>
      </trkpt>
      <trkpt lat="48.70341" lon="-3.48661">
        <ele>72.5</ele>
        <time>2019-07-11T14:05:08Z</time>
      </trkpt>
      <trkpt lat="48.70339" lon="-3.48664">
        <ele>72.4</ele>
        <time>2019-07-11T14:05:09Z</time>
      </trkpt>
      <trkpt lat="48.70336" lon="-3.48667">
        <ele>72.3</ele>
        <time>2019-07-11T14:05:10Z</time>
      </trkpt>
      <trkpt lat="48.70334" lon="-3.4867">
        <ele>72.1</ele>
        <time>2019-07-11T14:05:11Z</time>
      </trkpt>
      <trkpt lat="48.70332" lon="-3.48674">
        <ele>71.9</ele>
        <time>2019-07-11T14:05:12Z</time>
      </trkpt>
      <trkpt lat="48.7033" lon="-3.48677">
        <ele>71.8</ele>
        <time>2019-07-11T14:05:13Z</time>
      </trkpt>
      <trkpt lat="48.70328" lon="-3.4868">
        <ele>72.1</ele>
        <time>2019-07-11T14:05:14Z</time>
      </trkpt>
      <trkpt lat="48.70326" lon="-3.48683">
        <ele>72.2</ele>
        <time>2019-07-11T14:05:15Z</time>
      </trkpt>
      <trkpt lat="48.70324" lon="-3.48686">
        <ele>72.5</ele>
        <time>2019-07-11T14:05:16Z</time>
      </trkpt>
      <trkpt lat="48.70321" lon="-3.48689">
        <ele>72.6</ele>
        <time>2019-07-11T14:05:17Z</time>
      </trkpt>
      <trkpt lat="48.70319" lon="-3.48692">
        <ele>72.5</ele>
        <time>2019-07-11T14:05:18Z</time>
      </trkpt>
      <trkpt lat="48.70318" lon="-3.48695">
        <ele>72.3</ele>
        <time>2019-07-11T14:05:19Z</time>
      </trkpt>
      <trkpt lat="48.70316" lon="-3.48699">
        <ele>72.1</ele>
        <time>2019-07-11T14:05:20Z</time>
      </trkpt>
      <trkpt lat="48.70314" lon="-3.48703">
        <ele>71.7</ele>
        <time>2019-07-11T14:05:21Z</time>
      </trkpt>
      <trkpt lat="48.70313" lon="-3.48706">
        <ele>71.3</ele>
        <time>2019-07-11T14:05:22Z</time>
      </trkpt>
      <trkpt lat="48.70311" lon="-3.48709">
        <ele>71.2</ele>
        <time>2019-07-11T14:05:23Z</time>
      </trkpt>
      <trkpt lat="48.70309" lon="-3.48713">
        <ele>71.3</ele>
        <time>2019-07-11T14:05:24Z</time>
      </trkpt>
      <trkpt lat="48.70308" lon="-3.48716">
        <ele>71.2</ele>
        <time>2019-07-11T14:05:25Z</time>
      </trkpt>
      <trkpt lat="48.70306" lon="-3.4872">
        <ele>71.3</ele>
        <time>2019-07-11T14:05:26Z</time>
      </trkpt>
      <trkpt lat="48.70304" lon="-3.48723">
        <ele>71.6</ele>
        <time>2019-07-11T14:05:27Z</time>
      </trkpt>
      <trkpt lat="48.70303" lon="-3.48727">
        <ele>71.8</ele>
        <time>2019-07-11T14:05:28Z</time>
      </trkpt>
      <trkpt lat="48.70301" lon="-3.48731">
        <ele>72.1</ele>
        <time>2019-07-11T14:05:29Z</time>
      </trkpt>
      <trkpt lat="48.703" lon="-3.48735">
        <ele>72.2</ele>
        <time>2019-07-11T14:05:30Z</time>
      </trkpt>
      <trkpt lat="48.70298" lon="-3.48739">
        <ele>72.5</ele>
        <time>2019-07-11T14:05:31Z</time>
      </trkpt>
      <trkpt lat="48.70297" lon="-3.48743">
        <ele>72.7</ele>
        <time>2019-07-11T14:05:32Z</time>
      </trkpt>
      <trkpt lat="48.70296" lon="-3.48746">
        <ele>73</ele>
        <time>2019-07-11T14:05:33Z</time>
      </trkpt>
      <trkpt lat="48.70295" lon="-3.48751">
        <ele>73.1</ele>
        <time>2019-07-11T14:05:34Z</time>
      </trkpt>
      <trkpt lat="48.70294" lon="-3.48755">
        <ele>73.3</ele>
        <time>2019-07-11T14:05:35Z</time>
      </trkpt>
      <trkpt lat="48.70293" lon="-3.48759">
        <ele>73.5</ele>
        <time>2019-07-11T14:05:36Z</time>
      </trkpt>
      <trkpt lat="48.70292" lon="-3.48764">
        <ele>73.7</ele>
        <time>2019-07-11T14:05:37Z</time>
      </trkpt>
      <trkpt lat="48.70292" lon="-3.48768">
        <ele>74.1</ele>
        <time>2019-07-11T14:05:38Z</time>
      </trkpt>
      <trkpt lat="48.70291" lon="-3.48773">
        <ele>74.3</ele>
        <time>2019-07-11T14:05:39Z</time>
      </trkpt>
      <trkpt lat="48.7029" lon="-3.48778">
        <ele>74.5</ele>
        <time>2019-07-11T14:05:40Z</time>
      </trkpt>
      <trkpt lat="48.70289" lon="-3.48783">
        <ele>74.6</ele>
        <time>2019-07-11T14:05:41Z</time>
      </trkpt>
      <trkpt lat="48.70287" lon="-3.48787">
        <ele>74.6</ele>
        <time>2019-07-11T14:05:42Z</time>
      </trkpt>
      <trkpt lat="48.70286" lon="-3.48792">
        <ele>74.7</ele>
        <time>2019-07-11T14:05:43Z</time>
      </trkpt>
      <trkpt lat="48.70284" lon="-3.48797">
        <ele>74.8</ele>
        <time>2019-07-11T14:05:44Z</time>
      </trkpt>
      <trkpt lat="48.70283" lon="-3.48802">
        <ele>74.8</ele>
        <time>2019-07-11T14:05:45Z</time>
      </trkpt>
      <trkpt lat="48.70282" lon="-3.48806">
        <ele>74.7</ele>
        <time>2019-07-11T14:05:46Z</time>
      </trkpt>
      <trkpt lat="48.70281" lon="-3.48811">
        <ele>74.8</ele>
        <time>2019-07-11T14:05:47Z</time>
      </trkpt>
      <trkpt lat="48.7028" lon="-3.48816">
        <ele>75</ele>
        <time>2019-07-11T14:05:48Z</time>
      </trkpt>
      <trkpt lat="48.70279" lon="-3.48821">
        <ele>75.2</ele>
        <time>2019-07-11T14:05:49Z</time>
      </trkpt>
      <trkpt lat="48.70278" lon="-3.48826">
        <ele>75.4</ele>
        <time>2019-07-11T14:05:50Z</time>
      </trkpt>
      <trkpt lat="48.70277" lon="-3.48831">
        <ele>75.7</ele>
        <time>2019-07-11T14:05:51Z</time>
      </trkpt>
      <trkpt lat="48.70277" lon="-3.48836">
        <ele>75.7</ele>
        <time>2019-07-11T14:05:52Z</time>
      </trkpt>
      <trkpt lat="48.70275" lon="-3.48841">
        <ele>75.8</ele>
        <time>2019-07-11T14:05:53Z</time>
      </trkpt>
      <trkpt lat="48.70274" lon="-3.48846">
        <ele>75.9</ele>
        <time>2019-07-11T14:05:54Z</time>
      </trkpt>
      <trkpt lat="48.70272" lon="-3.4885">
        <ele>75.9</ele>
        <time>2019-07-11T14:05:55Z</time>
      </trkpt>
      <trkpt lat="48.7027" lon="-3.48855">
        <ele>75.7</ele>
        <time>2019-07-11T14:05:56Z</time>
      </trkpt>
      <trkpt lat="48.70268" lon="-3.48859">
        <ele>75.4</ele>
        <time>2019-07-11T14:05:57Z</time>
      </trkpt>
      <trkpt lat="48.70266" lon="-3.48864">
        <ele>75.2</ele>
        <time>2019-07-11T14:05:58Z</time>
      </trkpt>
      <trkpt lat="48.70265" lon="-3.48868">
        <ele>74.8</ele>
        <time>2019-07-11T14:05:59Z</time>
      </trkpt>
      <trkpt lat="48.70263" lon="-3.48873">
        <ele>74.7</ele>
        <time>2019-07-11T14:06:00Z</time>
      </trkpt>
      <trkpt lat="48.70261" lon="-3.48877">
        <ele>74.5</ele>
        <time>2019-07-11T14:06:01Z</time>
      </trkpt>
      <trkpt lat="48.70259" lon="-3.48881">
        <ele>74.1</ele>
        <time>2019-07-11T14:06:02Z</time>
      </trkpt>
      <trkpt lat="48.70257" lon="-3.48885">
        <ele>74.2</ele>
        <time>2019-07-11T14:06:03Z</time>
      </trkpt>
      <trkpt lat="48.70255" lon="-3.48889">
        <ele>74.2</ele>
        <time>2019-07-11T14:06:04Z</time>
      </trkpt>
      <trkpt lat="48.70253" lon="-3.48893">
        <ele>74.2</ele>
        <time>2019-07-11T14:06:05Z</time>
      </trkpt>
      <trkpt lat="48.7025" lon="-3.48898">
        <ele>74.5</ele>
        <time>2019-07-11T14:06:06Z</time>
      </trkpt>
      <trkpt lat="48.70248" lon="-3.48902">
        <ele>74.8</ele>
        <time>2019-07-11T14:06:07Z</time>
      </trkpt>
      <trkpt lat="48.70246" lon="-3.48907">
        <ele>75</ele>
        <time>2019-07-11T14:06:08Z</time>
      </trkpt>
      <trkpt lat="48.70244" lon="-3.48911">
        <ele>75.1</ele>
        <time>2019-07-11T14:06:09Z</time>
      </trkpt>
      <trkpt lat="48.70242" lon="-3.48916">
        <ele>75.3</ele>
        <time>2019-07-11T14:06:10Z</time>
      </trkpt>
      <trkpt lat="48.7024" lon="-3.4892">
        <ele>75.4</ele>
        <time>2019-07-11T14:06:11Z</time>
      </trkpt>
      <trkpt lat="48.70238" lon="-3.48924">
        <ele>76.1</ele>
        <time>2019-07-11T14:06:12Z</time>
      </trkpt>
      <trkpt lat="48.70236" lon="-3.48929">
        <ele>76.2</ele>
        <time>2019-07-11T14:06:13Z</time>
      </trkpt>
      <trkpt lat="48.70234" lon="-3.48933">
        <ele>76.4</ele>
        <time>2019-07-11T14:06:14Z</time>
      </trkpt>
      <trkpt lat="48.70232" lon="-3.48937">
        <ele>76.5</ele>
        <time>2019-07-11T14:06:15Z</time>
      </trkpt>
      <trkpt lat="48.7023" lon="-3.48942">
        <ele>76.7</ele>
        <time>2019-07-11T14:06:16Z</time>
      </trkpt>
      <trkpt lat="48.70228" lon="-3.48946">
        <ele>77.3</ele>
        <time>2019-07-11T14:06:17Z</time>
      </trkpt>
      <trkpt lat="48.70227" lon="-3.4895">
        <ele>77.9</ele>
        <time>2019-07-11T14:06:18Z</time>
      </trkpt>
      <trkpt lat="48.70225" lon="-3.48954">
        <ele>78.1</ele>
        <time>2019-07-11T14:06:19Z</time>
      </trkpt>
      <trkpt lat="48.70223" lon="-3.48958">
        <ele>78.8</ele>
        <time>2019-07-11T14:06:20Z</time>
      </trkpt>
      <trkpt lat="48.70221" lon="-3.48962">
        <ele>79.4</ele>
        <time>2019-07-11T14:06:21Z</time>
      </trkpt>
      <trkpt lat="48.70219" lon="-3.48966">
        <ele>79.3</ele>
        <time>2019-07-11T14:06:22Z</time>
      </trkpt>
      <trkpt lat="48.70218" lon="-3.48971">
        <ele>79.4</ele>
        <time>2019-07-11T14:06:23Z</time>
      </trkpt>
      <trkpt lat="48.70216" lon="-3.48976">
        <ele>79.2</ele>
        <time>2019-07-11T14:06:24Z</time>
      </trkpt>
      <trkpt lat="48.70213" lon="-3.48981">
        <ele>79.1</ele>
        <time>2019-07-11T14:06:25Z</time>
      </trkpt>
      <trkpt lat="48.70211" lon="-3.48984">
        <ele>78.6</ele>
        <time>2019-07-11T14:06:26Z</time>
      </trkpt>
      <trkpt lat="48.70209" lon="-3.48988">
        <ele>78.4</ele>
        <time>2019-07-11T14:06:27Z</time>
      </trkpt>
      <trkpt lat="48.70207" lon="-3.48992">
        <ele>78.2</ele>
        <time>2019-07-11T14:06:28Z</time>
      </trkpt>
      <trkpt lat="48.70205" lon="-3.48996">
        <ele>77.8</ele>
        <time>2019-07-11T14:06:29Z</time>
      </trkpt>
      <trkpt lat="48.70203" lon="-3.49001">
        <ele>78</ele>
        <time>2019-07-11T14:06:30Z</time>
      </trkpt>
      <trkpt lat="48.70202" lon="-3.49005">
        <ele>77.9</ele>
        <time>2019-07-11T14:06:31Z</time>
      </trkpt>
      <trkpt lat="48.702" lon="-3.49009">
        <ele>77.8</ele>
        <time>2019-07-11T14:06:32Z</time>
      </trkpt>
      <trkpt lat="48.70198" lon="-3.49012">
        <ele>77.4</ele>
        <time>2019-07-11T14:06:33Z</time>
      </trkpt>
      <trkpt lat="48.70196" lon="-3.49017">
        <ele>77.3</ele>
        <time>2019-07-11T14:06:34Z</time>
      </trkpt>
      <trkpt lat="48.70194" lon="-3.49021">
        <ele>76.9</ele>
        <time>2019-07-11T14:06:35Z</time>
      </trkpt>
      <trkpt lat="48.70192" lon="-3.49027">
        <ele>76.8</ele>
        <time>2019-07-11T14:06:36Z</time>
      </trkpt>
      <trkpt lat="48.7019" lon="-3.49032">
        <ele>76.7</ele>
        <time>2019-07-11T14:06:37Z</time>
      </trkpt>
      <trkpt lat="48.70187" lon="-3.49038">
        <ele>76.7</ele>
        <time>2019-07-11T14:06:38Z</time>
      </trkpt>
      <trkpt lat="48.70186" lon="-3.49044">
        <ele>76.6</ele>
        <time>2019-07-11T14:06:39Z</time>
      </trkpt>
      <trkpt lat="48.70184" lon="-3.4905">
        <ele>76.2</ele>
        <time>2019-07-11T14:06:40Z</time>
      </trkpt>
      <trkpt lat="48.70182" lon="-3.49056">
        <ele>76.1</ele>
        <time>2019-07-11T14:06:41Z</time>
      </trkpt>
      <trkpt lat="48.7018" lon="-3.4906">
        <ele>76.7</ele>
        <time>2019-07-11T14:06:42Z</time>
      </trkpt>
      <trkpt lat="48.70178" lon="-3.49066">
        <ele>76.8</ele>
        <time>2019-07-11T14:06:43Z</time>
      </trkpt>
      <trkpt lat="48.70176" lon="-3.49073">
        <ele>76.9</ele>
        <time>2019-07-11T14:06:44Z</time>
      </trkpt>
      <trkpt lat="48.70174" lon="-3.49078">
        <ele>77</ele>
        <time>2019-07-11T14:06:45Z</time>
      </trkpt>
      <trkpt lat="48.70173" lon="-3.49084">
        <ele>77.1</ele>
        <time>2019-07-11T14:06:46Z</time>
      </trkpt>
      <trkpt lat="48.70171" lon="-3.4909">
        <ele>77.5</ele>
        <time>2019-07-11T14:06:47Z</time>
      </trkpt>
      <trkpt lat="48.70168" lon="-3.49095">
        <ele>77.8</ele>
        <time>2019-07-11T14:06:48Z</time>
      </trkpt>
      <trkpt lat="48.70165" lon="-3.491">
        <ele>78.1</ele>
        <time>2019-07-11T14:06:49Z</time>
      </trkpt>
      <trkpt lat="48.70162" lon="-3.49105">
        <ele>78</ele>
        <time>2019-07-11T14:06:50Z</time>
      </trkpt>
      <trkpt lat="48.7016" lon="-3.49111">
        <ele>78</ele>
        <time>2019-07-11T14:06:51Z</time>
      </trkpt>
      <trkpt lat="48.70157" lon="-3.49116">
        <ele>77.6</ele>
        <time>2019-07-11T14:06:52Z</time>
      </trkpt>
      <trkpt lat="48.70154" lon="-3.49121">
        <ele>78.4</ele>
        <time>2019-07-11T14:06:53Z</time>
      </trkpt>
      <trkpt lat="48.70152" lon="-3.49126">
        <ele>78.7</ele>
        <time>2019-07-11T14:06:54Z</time>
      </trkpt>
      <trkpt lat="48.70149" lon="-3.49131">
        <ele>78.8</ele>
        <time>2019-07-11T14:06:55Z</time>
      </trkpt>
      <trkpt lat="48.70147" lon="-3.49136">
        <ele>78.4</ele>
        <time>2019-07-11T14:06:56Z</time>
      </trkpt>
      <trkpt lat="48.70145" lon="-3.4914">
        <ele>78.2</ele>
        <time>2019-07-11T14:06:57Z</time>
      </trkpt>
      <trkpt lat="48.70142" lon="-3.49145">
        <ele>77.7</ele>
        <time>2019-07-11T14:06:58Z</time>
      </trkpt>
      <trkpt lat="48.7014" lon="-3.49149">
        <ele>76.7</ele>
        <time>2019-07-11T14:06:59Z</time>
      </trkpt>
      <trkpt lat="48.70138" lon="-3.49153">
        <ele>76</ele>
        <time>2019-07-11T14:07:00Z</time>
      </trkpt>
      <trkpt lat="48.70136" lon="-3.49158">
        <ele>75.2</ele>
        <time>2019-07-11T14:07:01Z</time>
      </trkpt>
      <trkpt lat="48.70132" lon="-3.49162">
        <ele>74.2</ele>
        <time>2019-07-11T14:07:02Z</time>
      </trkpt>
      <trkpt lat="48.70131" lon="-3.49167">
        <ele>73.1</ele>
        <time>2019-07-11T14:07:03Z</time>
      </trkpt>
      <trkpt lat="48.70128" lon="-3.49172">
        <ele>72.8</ele>
        <time>2019-07-11T14:07:04Z</time>
      </trkpt>
      <trkpt lat="48.70125" lon="-3.49177">
        <ele>72.3</ele>
        <time>2019-07-11T14:07:05Z</time>
      </trkpt>
      <trkpt lat="48.70124" lon="-3.49183">
        <ele>72.1</ele>
        <time>2019-07-11T14:07:06Z</time>
      </trkpt>
      <trkpt lat="48.70121" lon="-3.49187">
        <ele>71.8</ele>
        <time>2019-07-11T14:07:07Z</time>
      </trkpt>
      <trkpt lat="48.7012" lon="-3.49192">
        <ele>72</ele>
        <time>2019-07-11T14:07:08Z</time>
      </trkpt>
      <trkpt lat="48.7012" lon="-3.49197">
        <ele>72.3</ele>
        <time>2019-07-11T14:07:09Z</time>
      </trkpt>
      <trkpt lat="48.70119" lon="-3.49201">
        <ele>72.9</ele>
        <time>2019-07-11T14:07:10Z</time>
      </trkpt>
      <trkpt lat="48.70119" lon="-3.49205">
        <ele>73.7</ele>
        <time>2019-07-11T14:07:11Z</time>
      </trkpt>
      <trkpt lat="48.70118" lon="-3.4921">
        <ele>74.2</ele>
        <time>2019-07-11T14:07:12Z</time>
      </trkpt>
      <trkpt lat="48.70118" lon="-3.49215">
        <ele>74.6</ele>
        <time>2019-07-11T14:07:13Z</time>
      </trkpt>
      <trkpt lat="48.70117" lon="-3.4922">
        <ele>74.9</ele>
        <time>2019-07-11T14:07:14Z</time>
      </trkpt>
      <trkpt lat="48.70116" lon="-3.49225">
        <ele>75.3</ele>
        <time>2019-07-11T14:07:15Z</time>
      </trkpt>
      <trkpt lat="48.70115" lon="-3.4923">
        <ele>75.3</ele>
        <time>2019-07-11T14:07:16Z</time>
      </trkpt>
      <trkpt lat="48.70114" lon="-3.49235">
        <ele>75.4</ele>
        <time>2019-07-11T14:07:17Z</time>
      </trkpt>
      <trkpt lat="48.70113" lon="-3.4924">
        <ele>75.4</ele>
        <time>2019-07-11T14:07:18Z</time>
      </trkpt>
      <trkpt lat="48.70112" lon="-3.49245">
        <ele>75.6</ele>
        <time>2019-07-11T14:07:19Z</time>
      </trkpt>
      <trkpt lat="48.7011" lon="-3.4925">
        <ele>75.6</ele>
        <time>2019-07-11T14:07:20Z</time>
      </trkpt>
      <trkpt lat="48.70108" lon="-3.49255">
        <ele>76</ele>
        <time>2019-07-11T14:07:21Z</time>
      </trkpt>
      <trkpt lat="48.70107" lon="-3.4926">
        <ele>76.3</ele>
        <time>2019-07-11T14:07:22Z</time>
      </trkpt>
      <trkpt lat="48.70105" lon="-3.49265">
        <ele>76.6</ele>
        <time>2019-07-11T14:07:23Z</time>
      </trkpt>
      <trkpt lat="48.70104" lon="-3.49269">
        <ele>77.2</ele>
        <time>2019-07-11T14:07:24Z</time>
      </trkpt>
      <trkpt lat="48.70104" lon="-3.49274">
        <ele>77.8</ele>
        <time>2019-07-11T14:07:25Z</time>
      </trkpt>
      <trkpt lat="48.70102" lon="-3.49278">
        <ele>78.5</ele>
        <time>2019-07-11T14:07:26Z</time>
      </trkpt>
      <trkpt lat="48.70101" lon="-3.49283">
        <ele>78.8</ele>
        <time>2019-07-11T14:07:27Z</time>
      </trkpt>
      <trkpt lat="48.701" lon="-3.49287">
        <ele>79.2</ele>
        <time>2019-07-11T14:07:28Z</time>
      </trkpt>
      <trkpt lat="48.70099" lon="-3.49291">
        <ele>79.3</ele>
        <time>2019-07-11T14:07:29Z</time>
      </trkpt>
      <trkpt lat="48.70098" lon="-3.49295">
        <ele>79.8</ele>
        <time>2019-07-11T14:07:30Z</time>
      </trkpt>
      <trkpt lat="48.70097" lon="-3.49299">
        <ele>80</ele>
        <time>2019-07-11T14:07:31Z</time>
      </trkpt>
      <trkpt lat="48.70096" lon="-3.49303">
        <ele>79.9</ele>
        <time>2019-07-11T14:07:32Z</time>
      </trkpt>
      <trkpt lat="48.70095" lon="-3.49306">
        <ele>80.1</ele>
        <time>2019-07-11T14:07:33Z</time>
      </trkpt>
      <trkpt lat="48.70094" lon="-3.4931">
        <ele>79.9</ele>
        <time>2019-07-11T14:07:34Z</time>
      </trkpt>
      <trkpt lat="48.70092" lon="-3.49314">
        <ele>79.9</ele>
        <time>2019-07-11T14:07:35Z</time>
      </trkpt>
      <trkpt lat="48.70091" lon="-3.49318">
        <ele>80.4</ele>
        <time>2019-07-11T14:07:36Z</time>
      </trkpt>
      <trkpt lat="48.70091" lon="-3.49322">
        <ele>81.1</ele>
        <time>2019-07-11T14:07:37Z</time>
      </trkpt>
      <trkpt lat="48.70089" lon="-3.49325">
        <ele>81.4</ele>
        <time>2019-07-11T14:07:38Z</time>
      </trkpt>
      <trkpt lat="48.70088" lon="-3.49329">
        <ele>81.6</ele>
        <time>2019-07-11T14:07:39Z</time>
      </trkpt>
      <trkpt lat="48.70087" lon="-3.49333">
        <ele>81.7</ele>
        <time>2019-07-11T14:07:40Z</time>
      </trkpt>
      <trkpt lat="48.70085" lon="-3.49336">
        <ele>81.5</ele>
        <time>2019-07-11T14:07:41Z</time>
      </trkpt>
      <trkpt lat="48.70084" lon="-3.4934">
        <ele>81.5</ele>
        <time>2019-07-11T14:07:42Z</time>
      </trkpt>
      <trkpt lat="48.70083" lon="-3.49344">
        <ele>81.4</ele>
        <time>2019-07-11T14:07:43Z</time>
      </trkpt>
      <trkpt lat="48.70082" lon="-3.49347">
        <ele>81.6</ele>
        <time>2019-07-11T14:07:44Z</time>
      </trkpt>
      <trkpt lat="48.70081" lon="-3.49351">
        <ele>81.7</ele>
        <time>2019-07-11T14:07:45Z</time>
      </trkpt>
      <trkpt lat="48.70079" lon="-3.49355">
        <ele>81.2</ele>
        <time>2019-07-11T14:07:46Z</time>
      </trkpt>
      <trkpt lat="48.70078" lon="-3.49358">
        <ele>81.1</ele>
        <time>2019-07-11T14:07:47Z</time>
      </trkpt>
      <trkpt lat="48.70076" lon="-3.49362">
        <ele>80.7</ele>
        <time>2019-07-11T14:07:48Z</time>
      </trkpt>
      <trkpt lat="48.70075" lon="-3.49366">
        <ele>80.4</ele>
        <time>2019-07-11T14:07:49Z</time>
      </trkpt>
      <trkpt lat="48.70073" lon="-3.4937">
        <ele>80.4</ele>
        <time>2019-07-11T14:07:50Z</time>
      </trkpt>
      <trkpt lat="48.70072" lon="-3.49373">
        <ele>80.2</ele>
        <time>2019-07-11T14:07:51Z</time>
      </trkpt>
      <trkpt lat="48.70071" lon="-3.49377">
        <ele>80.2</ele>
        <time>2019-07-11T14:07:52Z</time>
      </trkpt>
      <trkpt lat="48.70069" lon="-3.49381">
        <ele>80</ele>
        <time>2019-07-11T14:07:53Z</time>
      </trkpt>
      <trkpt lat="48.70068" lon="-3.49384">
        <ele>79.8</ele>
        <time>2019-07-11T14:07:54Z</time>
      </trkpt>
      <trkpt lat="48.70067" lon="-3.49387">
        <ele>79.8</ele>
        <time>2019-07-11T14:07:55Z</time>
      </trkpt>
      <trkpt lat="48.70066" lon="-3.49391">
        <ele>79.8</ele>
        <time>2019-07-11T14:07:56Z</time>
      </trkpt>
      <trkpt lat="48.70065" lon="-3.49394">
        <ele>80.1</ele>
        <time>2019-07-11T14:07:57Z</time>
      </trkpt>
      <trkpt lat="48.70063" lon="-3.49398">
        <ele>80.1</ele>
        <time>2019-07-11T14:07:58Z</time>
      </trkpt>
      <trkpt lat="48.70062" lon="-3.49402">
        <ele>80.2</ele>
        <time>2019-07-11T14:07:59Z</time>
      </trkpt>
      <trkpt lat="48.70062" lon="-3.49406">
        <ele>80.6</ele>
        <time>2019-07-11T14:08:00Z</time>
      </trkpt>
      <trkpt lat="48.7006" lon="-3.49409">
        <ele>80.5</ele>
        <time>2019-07-11T14:08:01Z</time>
      </trkpt>
      <trkpt lat="48.70059" lon="-3.49413">
        <ele>80.6</ele>
        <time>2019-07-11T14:08:02Z</time>
      </trkpt>
      <trkpt lat="48.70058" lon="-3.49416">
        <ele>80.7</ele>
        <time>2019-07-11T14:08:03Z</time>
      </trkpt>
      <trkpt lat="48.70058" lon="-3.4942">
        <ele>80.8</ele>
        <time>2019-07-11T14:08:04Z</time>
      </trkpt>
      <trkpt lat="48.70057" lon="-3.49423">
        <ele>80.9</ele>
        <time>2019-07-11T14:08:05Z</time>
      </trkpt>
      <trkpt lat="48.70055" lon="-3.49426">
        <ele>81.4</ele>
        <time>2019-07-11T14:08:06Z</time>
      </trkpt>
      <trkpt lat="48.70054" lon="-3.49429">
        <ele>81.4</ele>
        <time>2019-07-11T14:08:07Z</time>
      </trkpt>
      <trkpt lat="48.70052" lon="-3.49433">
        <ele>81.4</ele>
        <time>2019-07-11T14:08:08Z</time>
      </trkpt>
      <trkpt lat="48.70052" lon="-3.49436">
        <ele>81.2</ele>
        <time>2019-07-11T14:08:09Z</time>
      </trkpt>
      <trkpt lat="48.7005" lon="-3.4944">
        <ele>81.2</ele>
        <time>2019-07-11T14:08:10Z</time>
      </trkpt>
      <trkpt lat="48.70049" lon="-3.49443">
        <ele>81.8</ele>
        <time>2019-07-11T14:08:11Z</time>
      </trkpt>
      <trkpt lat="48.70048" lon="-3.49446">
        <ele>82.3</ele>
        <time>2019-07-11T14:08:12Z</time>
      </trkpt>
      <trkpt lat="48.70047" lon="-3.4945">
        <ele>82.7</ele>
        <time>2019-07-11T14:08:13Z</time>
      </trkpt>
      <trkpt lat="48.70046" lon="-3.49453">
        <ele>82.5</ele>
        <time>2019-07-11T14:08:14Z</time>
      </trkpt>
      <trkpt lat="48.70045" lon="-3.49457">
        <ele>82.5</ele>
        <time>2019-07-11T14:08:15Z</time>
      </trkpt>
      <trkpt lat="48.70044" lon="-3.49461">
        <ele>82.7</ele>
        <time>2019-07-11T14:08:16Z</time>
      </trkpt>
      <trkpt lat="48.70043" lon="-3.49464">
        <ele>83.3</ele>
        <time>2019-07-11T14:08:17Z</time>
      </trkpt>
      <trkpt lat="48.70042" lon="-3.49467">
        <ele>83.9</ele>
        <time>2019-07-11T14:08:18Z</time>
      </trkpt>
      <trkpt lat="48.70041" lon="-3.49471">
        <ele>84.8</ele>
        <time>2019-07-11T14:08:19Z</time>
      </trkpt>
      <trkpt lat="48.7004" lon="-3.49474">
        <ele>85.4</ele>
        <time>2019-07-11T14:08:20Z</time>
      </trkpt>
      <trkpt lat="48.70039" lon="-3.49478">
        <ele>85.9</ele>
        <time>2019-07-11T14:08:21Z</time>
      </trkpt>
      <trkpt lat="48.70038" lon="-3.49481">
        <ele>86.8</ele>
        <time>2019-07-11T14:08:22Z</time>
      </trkpt>
      <trkpt lat="48.70038" lon="-3.49485">
        <ele>87.8</ele>
        <time>2019-07-11T14:08:23Z</time>
      </trkpt>
      <trkpt lat="48.70038" lon="-3.49488">
        <ele>88.6</ele>
        <time>2019-07-11T14:08:24Z</time>
      </trkpt>
      <trkpt lat="48.70036" lon="-3.49492">
        <ele>89</ele>
        <time>2019-07-11T14:08:25Z</time>
      </trkpt>
      <trkpt lat="48.70035" lon="-3.49495">
        <ele>89.5</ele>
        <time>2019-07-11T14:08:26Z</time>
      </trkpt>
      <trkpt lat="48.70033" lon="-3.49498">
        <ele>90.5</ele>
        <time>2019-07-11T14:08:27Z</time>
      </trkpt>
      <trkpt lat="48.70031" lon="-3.49502">
        <ele>91.2</ele>
        <time>2019-07-11T14:08:28Z</time>
      </trkpt>
      <trkpt lat="48.70029" lon="-3.49505">
        <ele>91.8</ele>
        <time>2019-07-11T14:08:29Z</time>
      </trkpt>
      <trkpt lat="48.70026" lon="-3.49508">
        <ele>91.8</ele>
        <time>2019-07-11T14:08:30Z</time>
      </trkpt>
      <trkpt lat="48.70025" lon="-3.49512">
        <ele>92.3</ele>
        <time>2019-07-11T14:08:31Z</time>
      </trkpt>
      <trkpt lat="48.70023" lon="-3.49515">
        <ele>91.6</ele>
        <time>2019-07-11T14:08:32Z</time>
      </trkpt>
      <trkpt lat="48.70021" lon="-3.49518">
        <ele>90.8</ele>
        <time>2019-07-11T14:08:33Z</time>
      </trkpt>
      <trkpt lat="48.70019" lon="-3.49521">
        <ele>90.4</ele>
        <time>2019-07-11T14:08:34Z</time>
      </trkpt>
      <trkpt lat="48.70017" lon="-3.49524">
        <ele>89.9</ele>
        <time>2019-07-11T14:08:35Z</time>
      </trkpt>
      <trkpt lat="48.70016" lon="-3.49528">
        <ele>89.8</ele>
        <time>2019-07-11T14:08:36Z</time>
      </trkpt>
      <trkpt lat="48.70015" lon="-3.49532">
        <ele>89.7</ele>
        <time>2019-07-11T14:08:37Z</time>
      </trkpt>
      <trkpt lat="48.70013" lon="-3.49535">
        <ele>89.8</ele>
        <time>2019-07-11T14:08:38Z</time>
      </trkpt>
      <trkpt lat="48.70012" lon="-3.49538">
        <ele>89.1</ele>
        <time>2019-07-11T14:08:39Z</time>
      </trkpt>
      <trkpt lat="48.70011" lon="-3.49542">
        <ele>88.6</ele>
        <time>2019-07-11T14:08:40Z</time>
      </trkpt>
      <trkpt lat="48.70009" lon="-3.49545">
        <ele>87.3</ele>
        <time>2019-07-11T14:08:41Z</time>
      </trkpt>
      <trkpt lat="48.70009" lon="-3.4955">
        <ele>86.9</ele>
        <time>2019-07-11T14:08:42Z</time>
      </trkpt>
      <trkpt lat="48.70007" lon="-3.49554">
        <ele>86.5</ele>
        <time>2019-07-11T14:08:43Z</time>
      </trkpt>
      <trkpt lat="48.70006" lon="-3.49558">
        <ele>85.7</ele>
        <time>2019-07-11T14:08:44Z</time>
      </trkpt>
      <trkpt lat="48.70004" lon="-3.49563">
        <ele>85.5</ele>
        <time>2019-07-11T14:08:45Z</time>
      </trkpt>
      <trkpt lat="48.70002" lon="-3.49566">
        <ele>85.5</ele>
        <time>2019-07-11T14:08:46Z</time>
      </trkpt>
      <trkpt lat="48.70001" lon="-3.49571">
        <ele>85.2</ele>
        <time>2019-07-11T14:08:47Z</time>
      </trkpt>
      <trkpt lat="48.69998" lon="-3.49575">
        <ele>85.2</ele>
        <time>2019-07-11T14:08:48Z</time>
      </trkpt>
      <trkpt lat="48.69997" lon="-3.4958">
        <ele>85</ele>
        <time>2019-07-11T14:08:49Z</time>
      </trkpt>
      <trkpt lat="48.69995" lon="-3.49585">
        <ele>85</ele>
        <time>2019-07-11T14:08:50Z</time>
      </trkpt>
      <trkpt lat="48.69993" lon="-3.49589">
        <ele>84.9</ele>
        <time>2019-07-11T14:08:51Z</time>
      </trkpt>
      <trkpt lat="48.69992" lon="-3.49594">
        <ele>84.8</ele>
        <time>2019-07-11T14:08:52Z</time>
      </trkpt>
      <trkpt lat="48.6999" lon="-3.49598">
        <ele>84.7</ele>
        <time>2019-07-11T14:08:53Z</time>
      </trkpt>
      <trkpt lat="48.69989" lon="-3.49602">
        <ele>84.4</ele>
        <time>2019-07-11T14:08:54Z</time>
      </trkpt>
      <trkpt lat="48.69987" lon="-3.49607">
        <ele>84.3</ele>
        <time>2019-07-11T14:08:55Z</time>
      </trkpt>
      <trkpt lat="48.69986" lon="-3.49611">
        <ele>84.3</ele>
        <time>2019-07-11T14:08:56Z</time>
      </trkpt>
      <trkpt lat="48.69984" lon="-3.49615">
        <ele>84.6</ele>
        <time>2019-07-11T14:08:57Z</time>
      </trkpt>
      <trkpt lat="48.69982" lon="-3.49618">
        <ele>84.9</ele>
        <time>2019-07-11T14:08:58Z</time>
      </trkpt>
      <trkpt lat="48.69981" lon="-3.49622">
        <ele>85.3</ele>
        <time>2019-07-11T14:08:59Z</time>
      </trkpt>
      <trkpt lat="48.69979" lon="-3.49626">
        <ele>85.5</ele>
        <time>2019-07-11T14:09:00Z</time>
      </trkpt>
      <trkpt lat="48.69978" lon="-3.4963">
        <ele>85.7</ele>
        <time>2019-07-11T14:09:01Z</time>
      </trkpt>
      <trkpt lat="48.69976" lon="-3.49634">
        <ele>85.8</ele>
        <time>2019-07-11T14:09:02Z</time>
      </trkpt>
      <trkpt lat="48.69975" lon="-3.49639">
        <ele>85.6</ele>
        <time>2019-07-11T14:09:03Z</time>
      </trkpt>
      <trkpt lat="48.69973" lon="-3.49643">
        <ele>85.1</ele>
        <time>2019-07-11T14:09:04Z</time>
      </trkpt>
      <trkpt lat="48.69972" lon="-3.49648">
        <ele>85.1</ele>
        <time>2019-07-11T14:09:05Z</time>
      </trkpt>
      <trkpt lat="48.69971" lon="-3.49652">
        <ele>85.2</ele>
        <time>2019-07-11T14:09:06Z</time>
      </trkpt>
      <trkpt lat="48.69969" lon="-3.49657">
        <ele>85.6</ele>
        <time>2019-07-11T14:09:07Z</time>
      </trkpt>
      <trkpt lat="48.69968" lon="-3.49661">
        <ele>85.9</ele>
        <time>2019-07-11T14:09:08Z</time>
      </trkpt>
      <trkpt lat="48.69967" lon="-3.49665">
        <ele>86.2</ele>
        <time>2019-07-11T14:09:09Z</time>
      </trkpt>
      <trkpt lat="48.69966" lon="-3.4967">
        <ele>86.1</ele>
        <time>2019-07-11T14:09:10Z</time>
      </trkpt>
      <trkpt lat="48.69965" lon="-3.49674">
        <ele>86.3</ele>
        <time>2019-07-11T14:09:11Z</time>
      </trkpt>
      <trkpt lat="48.69964" lon="-3.49678">
        <ele>86.3</ele>
        <time>2019-07-11T14:09:12Z</time>
      </trkpt>
      <trkpt lat="48.69963" lon="-3.49683">
        <ele>86.7</ele>
        <time>2019-07-11T14:09:13Z</time>
      </trkpt>
      <trkpt lat="48.69962" lon="-3.49687">
        <ele>86.9</ele>
        <time>2019-07-11T14:09:14Z</time>
      </trkpt>
      <trkpt lat="48.69961" lon="-3.49692">
        <ele>86.9</ele>
        <time>2019-07-11T14:09:15Z</time>
      </trkpt>
      <trkpt lat="48.6996" lon="-3.49696">
        <ele>87</ele>
        <time>2019-07-11T14:09:16Z</time>
      </trkpt>
      <trkpt lat="48.69959" lon="-3.49701">
        <ele>87.4</ele>
        <time>2019-07-11T14:09:17Z</time>
      </trkpt>
      <trkpt lat="48.69958" lon="-3.49705">
        <ele>87.3</ele>
        <time>2019-07-11T14:09:18Z</time>
      </trkpt>
      <trkpt lat="48.69957" lon="-3.4971">
        <ele>87.2</ele>
        <time>2019-07-11T14:09:19Z</time>
      </trkpt>
      <trkpt lat="48.69956" lon="-3.49714">
        <ele>87.2</ele>
        <time>2019-07-11T14:09:20Z</time>
      </trkpt>
      <trkpt lat="48.69955" lon="-3.49719">
        <ele>87</ele>
        <time>2019-07-11T14:09:21Z</time>
      </trkpt>
      <trkpt lat="48.69954" lon="-3.49724">
        <ele>86.4</ele>
        <time>2019-07-11T14:09:22Z</time>
      </trkpt>
      <trkpt lat="48.69953" lon="-3.49729">
        <ele>86.3</ele>
        <time>2019-07-11T14:09:23Z</time>
      </trkpt>
      <trkpt lat="48.69951" lon="-3.49734">
        <ele>86</ele>
        <time>2019-07-11T14:09:24Z</time>
      </trkpt>
      <trkpt lat="48.6995" lon="-3.4974">
        <ele>85.7</ele>
        <time>2019-07-11T14:09:25Z</time>
      </trkpt>
      <trkpt lat="48.69949" lon="-3.49744">
        <ele>85.4</ele>
        <time>2019-07-11T14:09:26Z</time>
      </trkpt>
      <trkpt lat="48.69947" lon="-3.49749">
        <ele>85.4</ele>
        <time>2019-07-11T14:09:27Z</time>
      </trkpt>
      <trkpt lat="48.69946" lon="-3.49754">
        <ele>85.4</ele>
        <time>2019-07-11T14:09:28Z</time>
      </trkpt>
      <trkpt lat="48.69945" lon="-3.49759">
        <ele>85.7</ele>
        <time>2019-07-11T14:09:29Z</time>
      </trkpt>
      <trkpt lat="48.69944" lon="-3.49763">
        <ele>85.7</ele>
        <time>2019-07-11T14:09:30Z</time>
      </trkpt>
      <trkpt lat="48.69943" lon="-3.49768">
        <ele>85.5</ele>
        <time>2019-07-11T14:09:31Z</time>
      </trkpt>
      <trkpt lat="48.69941" lon="-3.49772">
        <ele>85.4</ele>
        <time>2019-07-11T14:09:32Z</time>
      </trkpt>
      <trkpt lat="48.6994" lon="-3.49777">
        <ele>85.6</ele>
        <time>2019-07-11T14:09:33Z</time>
      </trkpt>
      <trkpt lat="48.69939" lon="-3.49782">
        <ele>85.9</ele>
        <time>2019-07-11T14:09:34Z</time>
      </trkpt>
      <trkpt lat="48.69938" lon="-3.49787">
        <ele>85.7</ele>
        <time>2019-07-11T14:09:35Z</time>
      </trkpt>
      <trkpt lat="48.69937" lon="-3.49792">
        <ele>85.6</ele>
        <time>2019-07-11T14:09:36Z</time>
      </trkpt>
      <trkpt lat="48.69936" lon="-3.49798">
        <ele>85.6</ele>
        <time>2019-07-11T14:09:37Z</time>
      </trkpt>
      <trkpt lat="48.69934" lon="-3.49803">
        <ele>85.6</ele>
        <time>2019-07-11T14:09:38Z</time>
      </trkpt>
      <trkpt lat="48.69933" lon="-3.49808">
        <ele>85.7</ele>
        <time>2019-07-11T14:09:39Z</time>
      </trkpt>
      <trkpt lat="48.69932" lon="-3.49813">
        <ele>86.1</ele>
        <time>2019-07-11T14:09:40Z</time>
      </trkpt>
      <trkpt lat="48.69931" lon="-3.49818">
        <ele>86.2</ele>
        <time>2019-07-11T14:09:41Z</time>
      </trkpt>
      <trkpt lat="48.69931" lon="-3.49823">
        <ele>86.2</ele>
        <time>2019-07-11T14:09:42Z</time>
      </trkpt>
      <trkpt lat="48.6993" lon="-3.49827">
        <ele>86</ele>
        <time>2019-07-11T14:09:43Z</time>
      </trkpt>
      <trkpt lat="48.6993" lon="-3.49832">
        <ele>86.2</ele>
        <time>2019-07-11T14:09:44Z</time>
      </trkpt>
      <trkpt lat="48.6993" lon="-3.49835">
        <ele>86.3</ele>
        <time>2019-07-11T14:09:45Z</time>
      </trkpt>
      <trkpt lat="48.69929" lon="-3.49838">
        <ele>86.7</ele>
        <time>2019-07-11T14:09:46Z</time>
      </trkpt>
      <trkpt lat="48.69929" lon="-3.49841">
        <ele>86.8</ele>
        <time>2019-07-11T14:09:57Z</time>
      </trkpt>
      <trkpt lat="48.69929" lon="-3.49843">
        <ele>86.9</ele>
        <time>2019-07-11T14:09:58Z</time>
      </trkpt>
      <trkpt lat="48.69928" lon="-3.49846">
        <ele>87</ele>
        <time>2019-07-11T14:09:59Z</time>
      </trkpt>
      <trkpt lat="48.69928" lon="-3.49849">
        <ele>87</ele>
        <time>2019-07-11T14:10:00Z</time>
      </trkpt>
      <trkpt lat="48.69927" lon="-3.49853">
        <ele>86.7</ele>
        <time>2019-07-11T14:10:01Z</time>
      </trkpt>
      <trkpt lat="48.69926" lon="-3.49857">
        <ele>86.5</ele>
        <time>2019-07-11T14:10:02Z</time>
      </trkpt>
      <trkpt lat="48.69925" lon="-3.49861">
        <ele>86.1</ele>
        <time>2019-07-11T14:10:03Z</time>
      </trkpt>
      <trkpt lat="48.69923" lon="-3.49866">
        <ele>85.9</ele>
        <time>2019-07-11T14:10:04Z</time>
      </trkpt>
      <trkpt lat="48.69923" lon="-3.49871">
        <ele>85.8</ele>
        <time>2019-07-11T14:10:05Z</time>
      </trkpt>
      <trkpt lat="48.69922" lon="-3.49876">
        <ele>85.7</ele>
        <time>2019-07-11T14:10:06Z</time>
      </trkpt>
      <trkpt lat="48.6992" lon="-3.49881">
        <ele>85.4</ele>
        <time>2019-07-11T14:10:07Z</time>
      </trkpt>
      <trkpt lat="48.69918" lon="-3.49887">
        <ele>85.1</ele>
        <time>2019-07-11T14:10:08Z</time>
      </trkpt>
      <trkpt lat="48.69917" lon="-3.49892">
        <ele>85.3</ele>
        <time>2019-07-11T14:10:09Z</time>
      </trkpt>
      <trkpt lat="48.69915" lon="-3.49898">
        <ele>85.2</ele>
        <time>2019-07-11T14:10:10Z</time>
      </trkpt>
      <trkpt lat="48.69914" lon="-3.49903">
        <ele>85.4</ele>
        <time>2019-07-11T14:10:11Z</time>
      </trkpt>
      <trkpt lat="48.69912" lon="-3.49908">
        <ele>85.5</ele>
        <time>2019-07-11T14:10:12Z</time>
      </trkpt>
      <trkpt lat="48.6991" lon="-3.49912">
        <ele>85.8</ele>
        <time>2019-07-11T14:10:13Z</time>
      </trkpt>
      <trkpt lat="48.69909" lon="-3.49916">
        <ele>85.9</ele>
        <time>2019-07-11T14:10:14Z</time>
      </trkpt>
      <trkpt lat="48.69908" lon="-3.49921">
        <ele>86.1</ele>
        <time>2019-07-11T14:10:15Z</time>
      </trkpt>
      <trkpt lat="48.69907" lon="-3.49927">
        <ele>86.1</ele>
        <time>2019-07-11T14:10:16Z</time>
      </trkpt>
      <trkpt lat="48.69907" lon="-3.49932">
        <ele>86</ele>
        <time>2019-07-11T14:10:17Z</time>
      </trkpt>
      <trkpt lat="48.69907" lon="-3.49938">
        <ele>86.1</ele>
        <time>2019-07-11T14:10:18Z</time>
      </trkpt>
      <trkpt lat="48.69906" lon="-3.49944">
        <ele>86.3</ele>
        <time>2019-07-11T14:10:19Z</time>
      </trkpt>
      <trkpt lat="48.69906" lon="-3.4995">
        <ele>86.8</ele>
        <time>2019-07-11T14:10:20Z</time>
      </trkpt>
      <trkpt lat="48.69906" lon="-3.49955">
        <ele>86.9</ele>
        <time>2019-07-11T14:10:21Z</time>
      </trkpt>
      <trkpt lat="48.69906" lon="-3.49961">
        <ele>87.1</ele>
        <time>2019-07-11T14:10:22Z</time>
      </trkpt>
      <trkpt lat="48.69905" lon="-3.49965">
        <ele>87.3</ele>
        <time>2019-07-11T14:10:23Z</time>
      </trkpt>
      <trkpt lat="48.69904" lon="-3.49971">
        <ele>87.4</ele>
        <time>2019-07-11T14:10:24Z</time>
      </trkpt>
      <trkpt lat="48.69904" lon="-3.49976">
        <ele>87.6</ele>
        <time>2019-07-11T14:10:25Z</time>
      </trkpt>
      <trkpt lat="48.69903" lon="-3.49981">
        <ele>88.7</ele>
        <time>2019-07-11T14:10:26Z</time>
      </trkpt>
      <trkpt lat="48.69902" lon="-3.49987">
        <ele>88.7</ele>
        <time>2019-07-11T14:10:27Z</time>
      </trkpt>
      <trkpt lat="48.69901" lon="-3.49993">
        <ele>89</ele>
        <time>2019-07-11T14:10:28Z</time>
      </trkpt>
      <trkpt lat="48.69899" lon="-3.49999">
        <ele>89</ele>
        <time>2019-07-11T14:10:29Z</time>
      </trkpt>
      <trkpt lat="48.69898" lon="-3.50005">
        <ele>89.3</ele>
        <time>2019-07-11T14:10:30Z</time>
      </trkpt>
      <trkpt lat="48.69897" lon="-3.50011">
        <ele>89.4</ele>
        <time>2019-07-11T14:10:31Z</time>
      </trkpt>
      <trkpt lat="48.69894" lon="-3.50017">
        <ele>89.5</ele>
        <time>2019-07-11T14:10:32Z</time>
      </trkpt>
      <trkpt lat="48.69893" lon="-3.50022">
        <ele>89.5</ele>
        <time>2019-07-11T14:10:33Z</time>
      </trkpt>
      <trkpt lat="48.69891" lon="-3.50028">
        <ele>89.4</ele>
        <time>2019-07-11T14:10:34Z</time>
      </trkpt>
      <trkpt lat="48.69888" lon="-3.50034">
        <ele>89.5</ele>
        <time>2019-07-11T14:10:35Z</time>
      </trkpt>
      <trkpt lat="48.69885" lon="-3.5004">
        <ele>89.3</ele>
        <time>2019-07-11T14:10:36Z</time>
      </trkpt>
      <trkpt lat="48.69882" lon="-3.50046">
        <ele>89.2</ele>
        <time>2019-07-11T14:10:37Z</time>
      </trkpt>
      <trkpt lat="48.69879" lon="-3.50053">
        <ele>89.2</ele>
        <time>2019-07-11T14:10:38Z</time>
      </trkpt>
      <trkpt lat="48.69877" lon="-3.5006">
        <ele>89.6</ele>
        <time>2019-07-11T14:10:39Z</time>
      </trkpt>
      <trkpt lat="48.69874" lon="-3.50067">
        <ele>89</ele>
        <time>2019-07-11T14:10:40Z</time>
      </trkpt>
      <trkpt lat="48.69871" lon="-3.50074">
        <ele>89.2</ele>
        <time>2019-07-11T14:10:41Z</time>
      </trkpt>
      <trkpt lat="48.69868" lon="-3.5008">
        <ele>89.5</ele>
        <time>2019-07-11T14:10:42Z</time>
      </trkpt>
      <trkpt lat="48.69865" lon="-3.50086">
        <ele>89.5</ele>
        <time>2019-07-11T14:10:43Z</time>
      </trkpt>
      <trkpt lat="48.69863" lon="-3.50092">
        <ele>88.2</ele>
        <time>2019-07-11T14:10:44Z</time>
      </trkpt>
      <trkpt lat="48.69861" lon="-3.50098">
        <ele>86.6</ele>
        <time>2019-07-11T14:10:45Z</time>
      </trkpt>
      <trkpt lat="48.69858" lon="-3.50104">
        <ele>85.7</ele>
        <time>2019-07-11T14:10:46Z</time>
      </trkpt>
      <trkpt lat="48.69856" lon="-3.50109">
        <ele>85.1</ele>
        <time>2019-07-11T14:10:47Z</time>
      </trkpt>
      <trkpt lat="48.69854" lon="-3.50114">
        <ele>84.5</ele>
        <time>2019-07-11T14:10:48Z</time>
      </trkpt>
      <trkpt lat="48.69852" lon="-3.50119">
        <ele>84.1</ele>
        <time>2019-07-11T14:10:49Z</time>
      </trkpt>
      <trkpt lat="48.6985" lon="-3.50124">
        <ele>83.8</ele>
        <time>2019-07-11T14:10:50Z</time>
      </trkpt>
      <trkpt lat="48.69849" lon="-3.50129">
        <ele>83.9</ele>
        <time>2019-07-11T14:10:51Z</time>
      </trkpt>
      <trkpt lat="48.69847" lon="-3.50133">
        <ele>84.1</ele>
        <time>2019-07-11T14:10:52Z</time>
      </trkpt>
      <trkpt lat="48.69846" lon="-3.50137">
        <ele>84.9</ele>
        <time>2019-07-11T14:10:53Z</time>
      </trkpt>
      <trkpt lat="48.69845" lon="-3.50141">
        <ele>85.4</ele>
        <time>2019-07-11T14:10:54Z</time>
      </trkpt>
      <trkpt lat="48.69844" lon="-3.50145">
        <ele>85.9</ele>
        <time>2019-07-11T14:10:55Z</time>
      </trkpt>
      <trkpt lat="48.69843" lon="-3.50149">
        <ele>86.3</ele>
        <time>2019-07-11T14:10:56Z</time>
      </trkpt>
      <trkpt lat="48.69843" lon="-3.50154">
        <ele>87.1</ele>
        <time>2019-07-11T14:10:57Z</time>
      </trkpt>
      <trkpt lat="48.69842" lon="-3.50158">
        <ele>87.4</ele>
        <time>2019-07-11T14:10:58Z</time>
      </trkpt>
      <trkpt lat="48.69841" lon="-3.50162">
        <ele>87.5</ele>
        <time>2019-07-11T14:10:59Z</time>
      </trkpt>
      <trkpt lat="48.6984" lon="-3.50167">
        <ele>87.5</ele>
        <time>2019-07-11T14:11:00Z</time>
      </trkpt>
      <trkpt lat="48.69839" lon="-3.50171">
        <ele>87.4</ele>
        <time>2019-07-11T14:11:01Z</time>
      </trkpt>
      <trkpt lat="48.69838" lon="-3.50175">
        <ele>87.5</ele>
        <time>2019-07-11T14:11:02Z</time>
      </trkpt>
      <trkpt lat="48.69838" lon="-3.5018">
        <ele>87.5</ele>
        <time>2019-07-11T14:11:03Z</time>
      </trkpt>
      <trkpt lat="48.69837" lon="-3.50184">
        <ele>87.6</ele>
        <time>2019-07-11T14:11:04Z</time>
      </trkpt>
      <trkpt lat="48.69836" lon="-3.50189">
        <ele>87.4</ele>
        <time>2019-07-11T14:11:05Z</time>
      </trkpt>
      <trkpt lat="48.69835" lon="-3.50193">
        <ele>87.1</ele>
        <time>2019-07-11T14:11:06Z</time>
      </trkpt>
      <trkpt lat="48.69834" lon="-3.50198">
        <ele>87</ele>
        <time>2019-07-11T14:11:07Z</time>
      </trkpt>
      <trkpt lat="48.69833" lon="-3.50202">
        <ele>86.5</ele>
        <time>2019-07-11T14:11:08Z</time>
      </trkpt>
      <trkpt lat="48.69831" lon="-3.50206">
        <ele>86.5</ele>
        <time>2019-07-11T14:11:09Z</time>
      </trkpt>
      <trkpt lat="48.6983" lon="-3.5021">
        <ele>86.5</ele>
        <time>2019-07-11T14:11:10Z</time>
      </trkpt>
      <trkpt lat="48.69828" lon="-3.50214">
        <ele>86.4</ele>
        <time>2019-07-11T14:11:11Z</time>
      </trkpt>
      <trkpt lat="48.69827" lon="-3.50218">
        <ele>86.3</ele>
        <time>2019-07-11T14:11:12Z</time>
      </trkpt>
      <trkpt lat="48.69825" lon="-3.50222">
        <ele>86.3</ele>
        <time>2019-07-11T14:11:13Z</time>
      </trkpt>
      <trkpt lat="48.69823" lon="-3.50227">
        <ele>86.2</ele>
        <time>2019-07-11T14:11:14Z</time>
      </trkpt>
      <trkpt lat="48.69821" lon="-3.5023">
        <ele>85.7</ele>
        <time>2019-07-11T14:11:15Z</time>
      </trkpt>
      <trkpt lat="48.69819" lon="-3.50234">
        <ele>85.4</ele>
        <time>2019-07-11T14:11:16Z</time>
      </trkpt>
      <trkpt lat="48.69817" lon="-3.50238">
        <ele>85.3</ele>
        <time>2019-07-11T14:11:17Z</time>
      </trkpt>
      <trkpt lat="48.69815" lon="-3.50242">
        <ele>85.7</ele>
        <time>2019-07-11T14:11:18Z</time>
      </trkpt>
      <trkpt lat="48.69814" lon="-3.50246">
        <ele>85.9</ele>
        <time>2019-07-11T14:11:19Z</time>
      </trkpt>
      <trkpt lat="48.69812" lon="-3.5025">
        <ele>86.1</ele>
        <time>2019-07-11T14:11:20Z</time>
      </trkpt>
      <trkpt lat="48.6981" lon="-3.50254">
        <ele>86.4</ele>
        <time>2019-07-11T14:11:21Z</time>
      </trkpt>
      <trkpt lat="48.69808" lon="-3.50258">
        <ele>86.5</ele>
        <time>2019-07-11T14:11:22Z</time>
      </trkpt>
      <trkpt lat="48.69806" lon="-3.50262">
        <ele>86.8</ele>
        <time>2019-07-11T14:11:23Z</time>
      </trkpt>
      <trkpt lat="48.69804" lon="-3.50266">
        <ele>87.1</ele>
        <time>2019-07-11T14:11:24Z</time>
      </trkpt>
      <trkpt lat="48.69802" lon="-3.50269">
        <ele>87.4</ele>
        <time>2019-07-11T14:11:25Z</time>
      </trkpt>
      <trkpt lat="48.698" lon="-3.50273">
        <ele>87.5</ele>
        <time>2019-07-11T14:11:26Z</time>
      </trkpt>
      <trkpt lat="48.69798" lon="-3.50277">
        <ele>87.7</ele>
        <time>2019-07-11T14:11:27Z</time>
      </trkpt>
      <trkpt lat="48.69796" lon="-3.5028">
        <ele>88.1</ele>
        <time>2019-07-11T14:11:28Z</time>
      </trkpt>
      <trkpt lat="48.69795" lon="-3.50283">
        <ele>88.6</ele>
        <time>2019-07-11T14:11:29Z</time>
      </trkpt>
      <trkpt lat="48.69793" lon="-3.50287">
        <ele>89</ele>
        <time>2019-07-11T14:11:30Z</time>
      </trkpt>
      <trkpt lat="48.69791" lon="-3.5029">
        <ele>89.4</ele>
        <time>2019-07-11T14:11:31Z</time>
      </trkpt>
      <trkpt lat="48.69788" lon="-3.50293">
        <ele>89.7</ele>
        <time>2019-07-11T14:11:32Z</time>
      </trkpt>
      <trkpt lat="48.69786" lon="-3.50296">
        <ele>90.8</ele>
        <time>2019-07-11T14:11:33Z</time>
      </trkpt>
      <trkpt lat="48.69784" lon="-3.50298">
        <ele>91.5</ele>
        <time>2019-07-11T14:11:34Z</time>
      </trkpt>
      <trkpt lat="48.69782" lon="-3.50302">
        <ele>91.3</ele>
        <time>2019-07-11T14:11:35Z</time>
      </trkpt>
      <trkpt lat="48.6978" lon="-3.50305">
        <ele>91</ele>
        <time>2019-07-11T14:11:36Z</time>
      </trkpt>
      <trkpt lat="48.69777" lon="-3.50308">
        <ele>91</ele>
        <time>2019-07-11T14:11:37Z</time>
      </trkpt>
      <trkpt lat="48.69775" lon="-3.50311">
        <ele>90.9</ele>
        <time>2019-07-11T14:11:38Z</time>
      </trkpt>
      <trkpt lat="48.69772" lon="-3.50315">
        <ele>90.9</ele>
        <time>2019-07-11T14:11:39Z</time>
      </trkpt>
      <trkpt lat="48.6977" lon="-3.50318">
        <ele>90.9</ele>
        <time>2019-07-11T14:11:40Z</time>
      </trkpt>
      <trkpt lat="48.69767" lon="-3.50321">
        <ele>91.2</ele>
        <time>2019-07-11T14:11:41Z</time>
      </trkpt>
      <trkpt lat="48.69764" lon="-3.50324">
        <ele>91.4</ele>
        <time>2019-07-11T14:11:42Z</time>
      </trkpt>
      <trkpt lat="48.69762" lon="-3.50328">
        <ele>91.5</ele>
        <time>2019-07-11T14:11:43Z</time>
      </trkpt>
      <trkpt lat="48.6976" lon="-3.50332">
        <ele>91.7</ele>
        <time>2019-07-11T14:11:44Z</time>
      </trkpt>
      <trkpt lat="48.69758" lon="-3.50335">
        <ele>91.7</ele>
        <time>2019-07-11T14:11:45Z</time>
      </trkpt>
      <trkpt lat="48.69756" lon="-3.50338">
        <ele>91.6</ele>
        <time>2019-07-11T14:11:46Z</time>
      </trkpt>
      <trkpt lat="48.69754" lon="-3.50341">
        <ele>91.4</ele>
        <time>2019-07-11T14:11:47Z</time>
      </trkpt>
      <trkpt lat="48.69752" lon="-3.50344">
        <ele>91.2</ele>
        <time>2019-07-11T14:11:48Z</time>
      </trkpt>
      <trkpt lat="48.6975" lon="-3.50347">
        <ele>90.8</ele>
        <time>2019-07-11T14:11:49Z</time>
      </trkpt>
      <trkpt lat="48.69748" lon="-3.50351">
        <ele>90.7</ele>
        <time>2019-07-11T14:11:50Z</time>
      </trkpt>
      <trkpt lat="48.69746" lon="-3.50355">
        <ele>90.2</ele>
        <time>2019-07-11T14:11:51Z</time>
      </trkpt>
      <trkpt lat="48.69745" lon="-3.50358">
        <ele>90</ele>
        <time>2019-07-11T14:11:52Z</time>
      </trkpt>
      <trkpt lat="48.69743" lon="-3.50362">
        <ele>89.7</ele>
        <time>2019-07-11T14:11:53Z</time>
      </trkpt>
      <trkpt lat="48.69741" lon="-3.50366">
        <ele>89</ele>
        <time>2019-07-11T14:11:54Z</time>
      </trkpt>
      <trkpt lat="48.6974" lon="-3.50371">
        <ele>88.4</ele>
        <time>2019-07-11T14:11:55Z</time>
      </trkpt>
      <trkpt lat="48.69739" lon="-3.50375">
        <ele>87.9</ele>
        <time>2019-07-11T14:11:56Z</time>
      </trkpt>
      <trkpt lat="48.69737" lon="-3.5038">
        <ele>87.7</ele>
        <time>2019-07-11T14:11:57Z</time>
      </trkpt>
      <trkpt lat="48.69735" lon="-3.50385">
        <ele>87.4</ele>
        <time>2019-07-11T14:11:58Z</time>
      </trkpt>
      <trkpt lat="48.69734" lon="-3.50389">
        <ele>87.5</ele>
        <time>2019-07-11T14:11:59Z</time>
      </trkpt>
      <trkpt lat="48.69732" lon="-3.50394">
        <ele>87.4</ele>
        <time>2019-07-11T14:12:00Z</time>
      </trkpt>
      <trkpt lat="48.69731" lon="-3.50398">
        <ele>87.9</ele>
        <time>2019-07-11T14:12:01Z</time>
      </trkpt>
      <trkpt lat="48.6973" lon="-3.50403">
        <ele>88.5</ele>
        <time>2019-07-11T14:12:02Z</time>
      </trkpt>
      <trkpt lat="48.69729" lon="-3.50408">
        <ele>89</ele>
        <time>2019-07-11T14:12:03Z</time>
      </trkpt>
      <trkpt lat="48.69727" lon="-3.50413">
        <ele>89.4</ele>
        <time>2019-07-11T14:12:04Z</time>
      </trkpt>
      <trkpt lat="48.69727" lon="-3.50418">
        <ele>89.7</ele>
        <time>2019-07-11T14:12:05Z</time>
      </trkpt>
      <trkpt lat="48.69725" lon="-3.50422">
        <ele>90</ele>
        <time>2019-07-11T14:12:06Z</time>
      </trkpt>
      <trkpt lat="48.69725" lon="-3.50427">
        <ele>90.2</ele>
        <time>2019-07-11T14:12:07Z</time>
      </trkpt>
      <trkpt lat="48.69724" lon="-3.50431">
        <ele>90.5</ele>
        <time>2019-07-11T14:12:08Z</time>
      </trkpt>
      <trkpt lat="48.69723" lon="-3.50436">
        <ele>90.7</ele>
        <time>2019-07-11T14:12:09Z</time>
      </trkpt>
      <trkpt lat="48.69722" lon="-3.5044">
        <ele>91.2</ele>
        <time>2019-07-11T14:12:10Z</time>
      </trkpt>
      <trkpt lat="48.69721" lon="-3.50445">
        <ele>91.3</ele>
        <time>2019-07-11T14:12:11Z</time>
      </trkpt>
      <trkpt lat="48.69721" lon="-3.5045">
        <ele>91.4</ele>
        <time>2019-07-11T14:12:12Z</time>
      </trkpt>
      <trkpt lat="48.6972" lon="-3.50455">
        <ele>91.4</ele>
        <time>2019-07-11T14:12:13Z</time>
      </trkpt>
      <trkpt lat="48.69719" lon="-3.5046">
        <ele>91.2</ele>
        <time>2019-07-11T14:12:14Z</time>
      </trkpt>
      <trkpt lat="48.69719" lon="-3.50465">
        <ele>90.7</ele>
        <time>2019-07-11T14:12:15Z</time>
      </trkpt>
      <trkpt lat="48.69718" lon="-3.50471">
        <ele>90.3</ele>
        <time>2019-07-11T14:12:16Z</time>
      </trkpt>
      <trkpt lat="48.69717" lon="-3.50476">
        <ele>89.9</ele>
        <time>2019-07-11T14:12:17Z</time>
      </trkpt>
      <trkpt lat="48.69717" lon="-3.50481">
        <ele>89.8</ele>
        <time>2019-07-11T14:12:18Z</time>
      </trkpt>
      <trkpt lat="48.69716" lon="-3.50486">
        <ele>89.6</ele>
        <time>2019-07-11T14:12:19Z</time>
      </trkpt>
      <trkpt lat="48.69716" lon="-3.50491">
        <ele>89.6</ele>
        <time>2019-07-11T14:12:20Z</time>
      </trkpt>
      <trkpt lat="48.69715" lon="-3.50495">
        <ele>89.8</ele>
        <time>2019-07-11T14:12:21Z</time>
      </trkpt>
      <trkpt lat="48.69714" lon="-3.505">
        <ele>89.9</ele>
        <time>2019-07-11T14:12:22Z</time>
      </trkpt>
      <trkpt lat="48.69713" lon="-3.50504">
        <ele>90.2</ele>
        <time>2019-07-11T14:12:23Z</time>
      </trkpt>
      <trkpt lat="48.69713" lon="-3.50508">
        <ele>90.3</ele>
        <time>2019-07-11T14:12:24Z</time>
      </trkpt>
      <trkpt lat="48.69712" lon="-3.50513">
        <ele>90.6</ele>
        <time>2019-07-11T14:12:25Z</time>
      </trkpt>
      <trkpt lat="48.69712" lon="-3.50518">
        <ele>91</ele>
        <time>2019-07-11T14:12:26Z</time>
      </trkpt>
      <trkpt lat="48.69711" lon="-3.50523">
        <ele>91.2</ele>
        <time>2019-07-11T14:12:27Z</time>
      </trkpt>
      <trkpt lat="48.6971" lon="-3.50528">
        <ele>91.4</ele>
        <time>2019-07-11T14:12:28Z</time>
      </trkpt>
      <trkpt lat="48.69709" lon="-3.50532">
        <ele>91.8</ele>
        <time>2019-07-11T14:12:29Z</time>
      </trkpt>
      <trkpt lat="48.69708" lon="-3.50537">
        <ele>92.3</ele>
        <time>2019-07-11T14:12:30Z</time>
      </trkpt>
      <trkpt lat="48.69708" lon="-3.50541">
        <ele>92.7</ele>
        <time>2019-07-11T14:12:31Z</time>
      </trkpt>
      <trkpt lat="48.69707" lon="-3.50546">
        <ele>92.7</ele>
        <time>2019-07-11T14:12:32Z</time>
      </trkpt>
      <trkpt lat="48.69706" lon="-3.50551">
        <ele>92.8</ele>
        <time>2019-07-11T14:12:33Z</time>
      </trkpt>
      <trkpt lat="48.69705" lon="-3.50555">
        <ele>93.1</ele>
        <time>2019-07-11T14:12:34Z</time>
      </trkpt>
      <trkpt lat="48.69704" lon="-3.5056">
        <ele>93.5</ele>
        <time>2019-07-11T14:12:35Z</time>
      </trkpt>
      <trkpt lat="48.69702" lon="-3.50564">
        <ele>93.7</ele>
        <time>2019-07-11T14:12:36Z</time>
      </trkpt>
      <trkpt lat="48.69701" lon="-3.50569">
        <ele>93.3</ele>
        <time>2019-07-11T14:12:37Z</time>
      </trkpt>
      <trkpt lat="48.697" lon="-3.50574">
        <ele>92.8</ele>
        <time>2019-07-11T14:12:38Z</time>
      </trkpt>
      <trkpt lat="48.697" lon="-3.50579">
        <ele>92.6</ele>
        <time>2019-07-11T14:12:39Z</time>
      </trkpt>
      <trkpt lat="48.69699" lon="-3.50584">
        <ele>92.5</ele>
        <time>2019-07-11T14:12:40Z</time>
      </trkpt>
      <trkpt lat="48.69698" lon="-3.50589">
        <ele>92.2</ele>
        <time>2019-07-11T14:12:41Z</time>
      </trkpt>
      <trkpt lat="48.69697" lon="-3.50594">
        <ele>91.7</ele>
        <time>2019-07-11T14:12:42Z</time>
      </trkpt>
      <trkpt lat="48.69696" lon="-3.50598">
        <ele>91.3</ele>
        <time>2019-07-11T14:12:43Z</time>
      </trkpt>
      <trkpt lat="48.69696" lon="-3.50603">
        <ele>91.1</ele>
        <time>2019-07-11T14:12:44Z</time>
      </trkpt>
      <trkpt lat="48.69695" lon="-3.50607">
        <ele>90.8</ele>
        <time>2019-07-11T14:12:45Z</time>
      </trkpt>
      <trkpt lat="48.69695" lon="-3.50612">
        <ele>90.5</ele>
        <time>2019-07-11T14:12:46Z</time>
      </trkpt>
      <trkpt lat="48.69694" lon="-3.50616">
        <ele>90.5</ele>
        <time>2019-07-11T14:12:47Z</time>
      </trkpt>
      <trkpt lat="48.69693" lon="-3.5062">
        <ele>90.5</ele>
        <time>2019-07-11T14:12:48Z</time>
      </trkpt>
      <trkpt lat="48.69693" lon="-3.50624">
        <ele>90.4</ele>
        <time>2019-07-11T14:12:49Z</time>
      </trkpt>
      <trkpt lat="48.69693" lon="-3.50628">
        <ele>90.2</ele>
        <time>2019-07-11T14:12:50Z</time>
      </trkpt>
      <trkpt lat="48.69692" lon="-3.50632">
        <ele>90.2</ele>
        <time>2019-07-11T14:12:51Z</time>
      </trkpt>
      <trkpt lat="48.69692" lon="-3.50636">
        <ele>89.9</ele>
        <time>2019-07-11T14:12:52Z</time>
      </trkpt>
      <trkpt lat="48.69691" lon="-3.5064">
        <ele>89.7</ele>
        <time>2019-07-11T14:12:53Z</time>
      </trkpt>
      <trkpt lat="48.6969" lon="-3.50643">
        <ele>89.7</ele>
        <time>2019-07-11T14:12:54Z</time>
      </trkpt>
      <trkpt lat="48.6969" lon="-3.50646">
        <ele>89.9</ele>
        <time>2019-07-11T14:12:55Z</time>
      </trkpt>
      <trkpt lat="48.69689" lon="-3.50648">
        <ele>89.6</ele>
        <time>2019-07-11T14:12:56Z</time>
      </trkpt>
      <trkpt lat="48.69688" lon="-3.50651">
        <ele>89.5</ele>
        <time>2019-07-11T14:12:57Z</time>
      </trkpt>
      <trkpt lat="48.69686" lon="-3.50654">
        <ele>89.5</ele>
        <time>2019-07-11T14:12:58Z</time>
      </trkpt>
      <trkpt lat="48.69684" lon="-3.50658">
        <ele>89.7</ele>
        <time>2019-07-11T14:12:59Z</time>
      </trkpt>
      <trkpt lat="48.69683" lon="-3.50661">
        <ele>90</ele>
        <time>2019-07-11T14:13:00Z</time>
      </trkpt>
      <trkpt lat="48.69681" lon="-3.50665">
        <ele>89.9</ele>
        <time>2019-07-11T14:13:01Z</time>
      </trkpt>
      <trkpt lat="48.6968" lon="-3.50669">
        <ele>90</ele>
        <time>2019-07-11T14:13:02Z</time>
      </trkpt>
      <trkpt lat="48.69679" lon="-3.50673">
        <ele>90</ele>
        <time>2019-07-11T14:13:03Z</time>
      </trkpt>
      <trkpt lat="48.69678" lon="-3.50677">
        <ele>90</ele>
        <time>2019-07-11T14:13:04Z</time>
      </trkpt>
      <trkpt lat="48.69676" lon="-3.50682">
        <ele>90.3</ele>
        <time>2019-07-11T14:13:05Z</time>
      </trkpt>
      <trkpt lat="48.69674" lon="-3.50686">
        <ele>90.4</ele>
        <time>2019-07-11T14:13:06Z</time>
      </trkpt>
      <trkpt lat="48.69672" lon="-3.50691">
        <ele>90.6</ele>
        <time>2019-07-11T14:13:07Z</time>
      </trkpt>
      <trkpt lat="48.6967" lon="-3.50695">
        <ele>90.8</ele>
        <time>2019-07-11T14:13:08Z</time>
      </trkpt>
      <trkpt lat="48.69668" lon="-3.507">
        <ele>90.8</ele>
        <time>2019-07-11T14:13:09Z</time>
      </trkpt>
      <trkpt lat="48.69665" lon="-3.50705">
        <ele>90.9</ele>
        <time>2019-07-11T14:13:10Z</time>
      </trkpt>
      <trkpt lat="48.69663" lon="-3.50709">
        <ele>91</ele>
        <time>2019-07-11T14:13:11Z</time>
      </trkpt>
      <trkpt lat="48.6966" lon="-3.50713">
        <ele>91.2</ele>
        <time>2019-07-11T14:13:12Z</time>
      </trkpt>
      <trkpt lat="48.69658" lon="-3.50717">
        <ele>91.4</ele>
        <time>2019-07-11T14:13:13Z</time>
      </trkpt>
      <trkpt lat="48.69655" lon="-3.50721">
        <ele>91.6</ele>
        <time>2019-07-11T14:13:14Z</time>
      </trkpt>
      <trkpt lat="48.69653" lon="-3.50724">
        <ele>92</ele>
        <time>2019-07-11T14:13:15Z</time>
      </trkpt>
      <trkpt lat="48.6965" lon="-3.50728">
        <ele>92.4</ele>
        <time>2019-07-11T14:13:16Z</time>
      </trkpt>
      <trkpt lat="48.69647" lon="-3.50732">
        <ele>92.7</ele>
        <time>2019-07-11T14:13:17Z</time>
      </trkpt>
      <trkpt lat="48.69645" lon="-3.50735">
        <ele>93.2</ele>
        <time>2019-07-11T14:13:18Z</time>
      </trkpt>
      <trkpt lat="48.69642" lon="-3.50739">
        <ele>93.3</ele>
        <time>2019-07-11T14:13:19Z</time>
      </trkpt>
      <trkpt lat="48.69639" lon="-3.50743">
        <ele>93.3</ele>
        <time>2019-07-11T14:13:20Z</time>
      </trkpt>
      <trkpt lat="48.69636" lon="-3.50748">
        <ele>93.3</ele>
        <time>2019-07-11T14:13:21Z</time>
      </trkpt>
      <trkpt lat="48.69633" lon="-3.50752">
        <ele>93.5</ele>
        <time>2019-07-11T14:13:22Z</time>
      </trkpt>
      <trkpt lat="48.6963" lon="-3.50757">
        <ele>93.8</ele>
        <time>2019-07-11T14:13:23Z</time>
      </trkpt>
      <trkpt lat="48.69627" lon="-3.50762">
        <ele>93.7</ele>
        <time>2019-07-11T14:13:24Z</time>
      </trkpt>
      <trkpt lat="48.69624" lon="-3.50766">
        <ele>93.4</ele>
        <time>2019-07-11T14:13:25Z</time>
      </trkpt>
      <trkpt lat="48.69621" lon="-3.50771">
        <ele>93.2</ele>
        <time>2019-07-11T14:13:26Z</time>
      </trkpt>
      <trkpt lat="48.69619" lon="-3.50775">
        <ele>93.4</ele>
        <time>2019-07-11T14:13:27Z</time>
      </trkpt>
      <trkpt lat="48.69616" lon="-3.50779">
        <ele>93.9</ele>
        <time>2019-07-11T14:13:28Z</time>
      </trkpt>
      <trkpt lat="48.69613" lon="-3.50783">
        <ele>93.8</ele>
        <time>2019-07-11T14:13:29Z</time>
      </trkpt>
      <trkpt lat="48.6961" lon="-3.50786">
        <ele>94.2</ele>
        <time>2019-07-11T14:13:30Z</time>
      </trkpt>
      <trkpt lat="48.69607" lon="-3.5079">
        <ele>94.1</ele>
        <time>2019-07-11T14:13:31Z</time>
      </trkpt>
      <trkpt lat="48.69605" lon="-3.50793">
        <ele>94.5</ele>
        <time>2019-07-11T14:13:32Z</time>
      </trkpt>
      <trkpt lat="48.69602" lon="-3.50797">
        <ele>94.7</ele>
        <time>2019-07-11T14:13:33Z</time>
      </trkpt>
      <trkpt lat="48.69599" lon="-3.50801">
        <ele>94.7</ele>
        <time>2019-07-11T14:13:34Z</time>
      </trkpt>
      <trkpt lat="48.69596" lon="-3.50805">
        <ele>94.1</ele>
        <time>2019-07-11T14:13:35Z</time>
      </trkpt>
      <trkpt lat="48.69593" lon="-3.50809">
        <ele>93.7</ele>
        <time>2019-07-11T14:13:36Z</time>
      </trkpt>
      <trkpt lat="48.6959" lon="-3.50813">
        <ele>93.6</ele>
        <time>2019-07-11T14:13:37Z</time>
      </trkpt>
      <trkpt lat="48.69587" lon="-3.50817">
        <ele>93.2</ele>
        <time>2019-07-11T14:13:38Z</time>
      </trkpt>
      <trkpt lat="48.69585" lon="-3.5082">
        <ele>92.5</ele>
        <time>2019-07-11T14:13:39Z</time>
      </trkpt>
      <trkpt lat="48.69582" lon="-3.50823">
        <ele>92.3</ele>
        <time>2019-07-11T14:13:40Z</time>
      </trkpt>
      <trkpt lat="48.6958" lon="-3.50826">
        <ele>92</ele>
        <time>2019-07-11T14:13:41Z</time>
      </trkpt>
      <trkpt lat="48.69578" lon="-3.50829">
        <ele>92.2</ele>
        <time>2019-07-11T14:13:42Z</time>
      </trkpt>
      <trkpt lat="48.69576" lon="-3.50832">
        <ele>92.6</ele>
        <time>2019-07-11T14:13:43Z</time>
      </trkpt>
      <trkpt lat="48.69573" lon="-3.50834">
        <ele>93</ele>
        <time>2019-07-11T14:13:44Z</time>
      </trkpt>
      <trkpt lat="48.6957" lon="-3.50837">
        <ele>93.3</ele>
        <time>2019-07-11T14:13:45Z</time>
      </trkpt>
      <trkpt lat="48.69568" lon="-3.50839">
        <ele>94</ele>
        <time>2019-07-11T14:13:46Z</time>
      </trkpt>
      <trkpt lat="48.69565" lon="-3.50841">
        <ele>94.1</ele>
        <time>2019-07-11T14:13:47Z</time>
      </trkpt>
      <trkpt lat="48.69563" lon="-3.50843">
        <ele>94.8</ele>
        <time>2019-07-11T14:13:48Z</time>
      </trkpt>
      <trkpt lat="48.69561" lon="-3.50845">
        <ele>95.3</ele>
        <time>2019-07-11T14:13:49Z</time>
      </trkpt>
      <trkpt lat="48.69559" lon="-3.50848">
        <ele>95.5</ele>
        <time>2019-07-11T14:13:50Z</time>
      </trkpt>
      <trkpt lat="48.69556" lon="-3.50851">
        <ele>96.1</ele>
        <time>2019-07-11T14:13:51Z</time>
      </trkpt>
      <trkpt lat="48.69553" lon="-3.50855">
        <ele>96.4</ele>
        <time>2019-07-11T14:13:52Z</time>
      </trkpt>
      <trkpt lat="48.69551" lon="-3.50858">
        <ele>96.1</ele>
        <time>2019-07-11T14:13:53Z</time>
      </trkpt>
      <trkpt lat="48.69548" lon="-3.50861">
        <ele>95.9</ele>
        <time>2019-07-11T14:13:54Z</time>
      </trkpt>
      <trkpt lat="48.69546" lon="-3.50864">
        <ele>95.9</ele>
        <time>2019-07-11T14:13:55Z</time>
      </trkpt>
      <trkpt lat="48.69544" lon="-3.50867">
        <ele>96</ele>
        <time>2019-07-11T14:13:56Z</time>
      </trkpt>
      <trkpt lat="48.69541" lon="-3.5087">
        <ele>96</ele>
        <time>2019-07-11T14:13:57Z</time>
      </trkpt>
      <trkpt lat="48.69539" lon="-3.50873">
        <ele>95.2</ele>
        <time>2019-07-11T14:13:58Z</time>
      </trkpt>
      <trkpt lat="48.69536" lon="-3.50877">
        <ele>94.5</ele>
        <time>2019-07-11T14:13:59Z</time>
      </trkpt>
      <trkpt lat="48.69534" lon="-3.5088">
        <ele>94.5</ele>
        <time>2019-07-11T14:14:00Z</time>
      </trkpt>
      <trkpt lat="48.69531" lon="-3.50883">
        <ele>94.5</ele>
        <time>2019-07-11T14:14:01Z</time>
      </trkpt>
      <trkpt lat="48.69527" lon="-3.50886">
        <ele>94.4</ele>
        <time>2019-07-11T14:14:02Z</time>
      </trkpt>
      <trkpt lat="48.69524" lon="-3.5089">
        <ele>93.8</ele>
        <time>2019-07-11T14:14:03Z</time>
      </trkpt>
      <trkpt lat="48.69521" lon="-3.50893">
        <ele>93.5</ele>
        <time>2019-07-11T14:14:04Z</time>
      </trkpt>
      <trkpt lat="48.69518" lon="-3.50896">
        <ele>93.1</ele>
        <time>2019-07-11T14:14:05Z</time>
      </trkpt>
      <trkpt lat="48.69515" lon="-3.50899">
        <ele>93.2</ele>
        <time>2019-07-11T14:14:06Z</time>
      </trkpt>
      <trkpt lat="48.69511" lon="-3.50903">
        <ele>92.9</ele>
        <time>2019-07-11T14:14:07Z</time>
      </trkpt>
      <trkpt lat="48.69508" lon="-3.50906">
        <ele>93</ele>
        <time>2019-07-11T14:14:08Z</time>
      </trkpt>
      <trkpt lat="48.69506" lon="-3.5091">
        <ele>93.1</ele>
        <time>2019-07-11T14:14:09Z</time>
      </trkpt>
      <trkpt lat="48.69503" lon="-3.50913">
        <ele>93.7</ele>
        <time>2019-07-11T14:14:10Z</time>
      </trkpt>
      <trkpt lat="48.695" lon="-3.50917">
        <ele>94.3</ele>
        <time>2019-07-11T14:14:11Z</time>
      </trkpt>
      <trkpt lat="48.69497" lon="-3.50921">
        <ele>94.6</ele>
        <time>2019-07-11T14:14:12Z</time>
      </trkpt>
      <trkpt lat="48.69494" lon="-3.50925">
        <ele>94.4</ele>
        <time>2019-07-11T14:14:13Z</time>
      </trkpt>
      <trkpt lat="48.69492" lon="-3.50929">
        <ele>94.3</ele>
        <time>2019-07-11T14:14:14Z</time>
      </trkpt>
      <trkpt lat="48.6949" lon="-3.50933">
        <ele>95</ele>
        <time>2019-07-11T14:14:15Z</time>
      </trkpt>
      <trkpt lat="48.69487" lon="-3.50936">
        <ele>95.4</ele>
        <time>2019-07-11T14:14:16Z</time>
      </trkpt>
      <trkpt lat="48.69484" lon="-3.5094">
        <ele>95.8</ele>
        <time>2019-07-11T14:14:17Z</time>
      </trkpt>
      <trkpt lat="48.69482" lon="-3.50943">
        <ele>95.6</ele>
        <time>2019-07-11T14:14:18Z</time>
      </trkpt>
      <trkpt lat="48.69479" lon="-3.50947">
        <ele>95.5</ele>
        <time>2019-07-11T14:14:19Z</time>
      </trkpt>
      <trkpt lat="48.69476" lon="-3.5095">
        <ele>95.4</ele>
        <time>2019-07-11T14:14:20Z</time>
      </trkpt>
      <trkpt lat="48.69474" lon="-3.50954">
        <ele>95.4</ele>
        <time>2019-07-11T14:14:21Z</time>
      </trkpt>
      <trkpt lat="48.69471" lon="-3.50958">
        <ele>95.6</ele>
        <time>2019-07-11T14:14:22Z</time>
      </trkpt>
      <trkpt lat="48.69468" lon="-3.50961">
        <ele>96</ele>
        <time>2019-07-11T14:14:23Z</time>
      </trkpt>
      <trkpt lat="48.69465" lon="-3.50965">
        <ele>95.8</ele>
        <time>2019-07-11T14:14:24Z</time>
      </trkpt>
      <trkpt lat="48.69462" lon="-3.50969">
        <ele>95.6</ele>
        <time>2019-07-11T14:14:25Z</time>
      </trkpt>
      <trkpt lat="48.69459" lon="-3.50973">
        <ele>95.5</ele>
        <time>2019-07-11T14:14:26Z</time>
      </trkpt>
      <trkpt lat="48.69455" lon="-3.50977">
        <ele>95.1</ele>
        <time>2019-07-11T14:14:27Z</time>
      </trkpt>
      <trkpt lat="48.69452" lon="-3.50981">
        <ele>94.8</ele>
        <time>2019-07-11T14:14:28Z</time>
      </trkpt>
      <trkpt lat="48.69449" lon="-3.50985">
        <ele>95</ele>
        <time>2019-07-11T14:14:29Z</time>
      </trkpt>
      <trkpt lat="48.69446" lon="-3.50989">
        <ele>94.6</ele>
        <time>2019-07-11T14:14:30Z</time>
      </trkpt>
      <trkpt lat="48.69442" lon="-3.50992">
        <ele>94.5</ele>
        <time>2019-07-11T14:14:31Z</time>
      </trkpt>
      <trkpt lat="48.69439" lon="-3.50995">
        <ele>94.5</ele>
        <time>2019-07-11T14:14:32Z</time>
      </trkpt>
      <trkpt lat="48.69436" lon="-3.50998">
        <ele>94.8</ele>
        <time>2019-07-11T14:14:33Z</time>
      </trkpt>
      <trkpt lat="48.69432" lon="-3.51002">
        <ele>94.8</ele>
        <time>2019-07-11T14:14:34Z</time>
      </trkpt>
      <trkpt lat="48.69429" lon="-3.51005">
        <ele>95.6</ele>
        <time>2019-07-11T14:14:35Z</time>
      </trkpt>
      <trkpt lat="48.69426" lon="-3.51009">
        <ele>96.2</ele>
        <time>2019-07-11T14:14:36Z</time>
      </trkpt>
      <trkpt lat="48.69423" lon="-3.51012">
        <ele>96.5</ele>
        <time>2019-07-11T14:14:37Z</time>
      </trkpt>
      <trkpt lat="48.6942" lon="-3.51015">
        <ele>96.6</ele>
        <time>2019-07-11T14:14:38Z</time>
      </trkpt>
      <trkpt lat="48.69416" lon="-3.51019">
        <ele>96.6</ele>
        <time>2019-07-11T14:14:39Z</time>
      </trkpt>
      <trkpt lat="48.69413" lon="-3.51022">
        <ele>96.4</ele>
        <time>2019-07-11T14:14:40Z</time>
      </trkpt>
      <trkpt lat="48.6941" lon="-3.51026">
        <ele>96.3</ele>
        <time>2019-07-11T14:14:41Z</time>
      </trkpt>
      <trkpt lat="48.69406" lon="-3.5103">
        <ele>95.9</ele>
        <time>2019-07-11T14:14:42Z</time>
      </trkpt>
      <trkpt lat="48.69403" lon="-3.51033">
        <ele>96</ele>
        <time>2019-07-11T14:14:43Z</time>
      </trkpt>
      <trkpt lat="48.69399" lon="-3.51037">
        <ele>96</ele>
        <time>2019-07-11T14:14:44Z</time>
      </trkpt>
      <trkpt lat="48.69396" lon="-3.51041">
        <ele>96.2</ele>
        <time>2019-07-11T14:14:45Z</time>
      </trkpt>
      <trkpt lat="48.69392" lon="-3.51045">
        <ele>96.1</ele>
        <time>2019-07-11T14:14:46Z</time>
      </trkpt>
      <trkpt lat="48.6939" lon="-3.51049">
        <ele>96</ele>
        <time>2019-07-11T14:14:47Z</time>
      </trkpt>
      <trkpt lat="48.69387" lon="-3.51053">
        <ele>96.3</ele>
        <time>2019-07-11T14:14:48Z</time>
      </trkpt>
      <trkpt lat="48.69384" lon="-3.51057">
        <ele>96.3</ele>
        <time>2019-07-11T14:14:49Z</time>
      </trkpt>
      <trkpt lat="48.69381" lon="-3.51061">
        <ele>96.3</ele>
        <time>2019-07-11T14:14:50Z</time>
      </trkpt>
      <trkpt lat="48.69378" lon="-3.51065">
        <ele>96.4</ele>
        <time>2019-07-11T14:14:51Z</time>
      </trkpt>
      <trkpt lat="48.69375" lon="-3.51069">
        <ele>96.6</ele>
        <time>2019-07-11T14:14:52Z</time>
      </trkpt>
      <trkpt lat="48.69373" lon="-3.51073">
        <ele>96.4</ele>
        <time>2019-07-11T14:14:53Z</time>
      </trkpt>
      <trkpt lat="48.6937" lon="-3.51077">
        <ele>96.4</ele>
        <time>2019-07-11T14:14:54Z</time>
      </trkpt>
      <trkpt lat="48.69368" lon="-3.51081">
        <ele>96.3</ele>
        <time>2019-07-11T14:14:55Z</time>
      </trkpt>
      <trkpt lat="48.69365" lon="-3.51084">
        <ele>96.6</ele>
        <time>2019-07-11T14:14:56Z</time>
      </trkpt>
      <trkpt lat="48.69363" lon="-3.51088">
        <ele>96.7</ele>
        <time>2019-07-11T14:14:57Z</time>
      </trkpt>
      <trkpt lat="48.6936" lon="-3.51092">
        <ele>96.9</ele>
        <time>2019-07-11T14:14:58Z</time>
      </trkpt>
      <trkpt lat="48.69358" lon="-3.51096">
        <ele>96.8</ele>
        <time>2019-07-11T14:14:59Z</time>
      </trkpt>
      <trkpt lat="48.69356" lon="-3.511">
        <ele>96.7</ele>
        <time>2019-07-11T14:15:00Z</time>
      </trkpt>
      <trkpt lat="48.69354" lon="-3.51105">
        <ele>96.1</ele>
        <time>2019-07-11T14:15:01Z</time>
      </trkpt>
      <trkpt lat="48.69351" lon="-3.51109">
        <ele>95.6</ele>
        <time>2019-07-11T14:15:02Z</time>
      </trkpt>
      <trkpt lat="48.69349" lon="-3.51112">
        <ele>95.4</ele>
        <time>2019-07-11T14:15:03Z</time>
      </trkpt>
      <trkpt lat="48.69347" lon="-3.51116">
        <ele>95.1</ele>
        <time>2019-07-11T14:15:04Z</time>
      </trkpt>
      <trkpt lat="48.69344" lon="-3.51119">
        <ele>94.7</ele>
        <time>2019-07-11T14:15:05Z</time>
      </trkpt>
      <trkpt lat="48.69342" lon="-3.51122">
        <ele>94.8</ele>
        <time>2019-07-11T14:15:06Z</time>
      </trkpt>
      <trkpt lat="48.69341" lon="-3.51125">
        <ele>95.1</ele>
        <time>2019-07-11T14:15:07Z</time>
      </trkpt>
      <trkpt lat="48.69339" lon="-3.51128">
        <ele>94.8</ele>
        <time>2019-07-11T14:15:08Z</time>
      </trkpt>
      <trkpt lat="48.69337" lon="-3.51131">
        <ele>95</ele>
        <time>2019-07-11T14:15:09Z</time>
      </trkpt>
      <trkpt lat="48.69335" lon="-3.51134">
        <ele>95.1</ele>
        <time>2019-07-11T14:15:10Z</time>
      </trkpt>
      <trkpt lat="48.69333" lon="-3.51137">
        <ele>95.5</ele>
        <time>2019-07-11T14:15:11Z</time>
      </trkpt>
      <trkpt lat="48.69331" lon="-3.51141">
        <ele>95.7</ele>
        <time>2019-07-11T14:15:12Z</time>
      </trkpt>
      <trkpt lat="48.6933" lon="-3.51145">
        <ele>96.1</ele>
        <time>2019-07-11T14:15:13Z</time>
      </trkpt>
      <trkpt lat="48.69327" lon="-3.51148">
        <ele>97.2</ele>
        <time>2019-07-11T14:15:14Z</time>
      </trkpt>
      <trkpt lat="48.69325" lon="-3.51152">
        <ele>98.1</ele>
        <time>2019-07-11T14:15:15Z</time>
      </trkpt>
      <trkpt lat="48.69323" lon="-3.51155">
        <ele>99.1</ele>
        <time>2019-07-11T14:15:16Z</time>
      </trkpt>
      <trkpt lat="48.6932" lon="-3.51159">
        <ele>99.5</ele>
        <time>2019-07-11T14:15:17Z</time>
      </trkpt>
      <trkpt lat="48.69318" lon="-3.51163">
        <ele>100</ele>
        <time>2019-07-11T14:15:18Z</time>
      </trkpt>
      <trkpt lat="48.69316" lon="-3.51166">
        <ele>100.5</ele>
        <time>2019-07-11T14:15:19Z</time>
      </trkpt>
      <trkpt lat="48.69313" lon="-3.51169">
        <ele>101.2</ele>
        <time>2019-07-11T14:15:20Z</time>
      </trkpt>
      <trkpt lat="48.69312" lon="-3.51172">
        <ele>101.3</ele>
        <time>2019-07-11T14:15:21Z</time>
      </trkpt>
      <trkpt lat="48.6931" lon="-3.51175">
        <ele>100.8</ele>
        <time>2019-07-11T14:15:22Z</time>
      </trkpt>
      <trkpt lat="48.69307" lon="-3.51178">
        <ele>100.4</ele>
        <time>2019-07-11T14:15:23Z</time>
      </trkpt>
      <trkpt lat="48.69305" lon="-3.51181">
        <ele>100.2</ele>
        <time>2019-07-11T14:15:24Z</time>
      </trkpt>
      <trkpt lat="48.69304" lon="-3.51183">
        <ele>100.3</ele>
        <time>2019-07-11T14:15:25Z</time>
      </trkpt>
      <trkpt lat="48.69301" lon="-3.51186">
        <ele>100.4</ele>
        <time>2019-07-11T14:15:26Z</time>
      </trkpt>
      <trkpt lat="48.69299" lon="-3.51189">
        <ele>100</ele>
        <time>2019-07-11T14:15:27Z</time>
      </trkpt>
      <trkpt lat="48.69297" lon="-3.51192">
        <ele>100</ele>
        <time>2019-07-11T14:15:28Z</time>
      </trkpt>
      <trkpt lat="48.69295" lon="-3.51195">
        <ele>99.9</ele>
        <time>2019-07-11T14:15:29Z</time>
      </trkpt>
      <trkpt lat="48.69293" lon="-3.51197">
        <ele>100</ele>
        <time>2019-07-11T14:15:30Z</time>
      </trkpt>
      <trkpt lat="48.69291" lon="-3.512">
        <ele>99.9</ele>
        <time>2019-07-11T14:15:31Z</time>
      </trkpt>
      <trkpt lat="48.69289" lon="-3.51203">
        <ele>100</ele>
        <time>2019-07-11T14:15:32Z</time>
      </trkpt>
      <trkpt lat="48.69286" lon="-3.51207">
        <ele>100.1</ele>
        <time>2019-07-11T14:15:33Z</time>
      </trkpt>
      <trkpt lat="48.69284" lon="-3.5121">
        <ele>100.1</ele>
        <time>2019-07-11T14:15:34Z</time>
      </trkpt>
      <trkpt lat="48.69281" lon="-3.51213">
        <ele>100.1</ele>
        <time>2019-07-11T14:15:35Z</time>
      </trkpt>
      <trkpt lat="48.69279" lon="-3.51216">
        <ele>100.5</ele>
        <time>2019-07-11T14:15:36Z</time>
      </trkpt>
      <trkpt lat="48.69277" lon="-3.51219">
        <ele>100.8</ele>
        <time>2019-07-11T14:15:37Z</time>
      </trkpt>
      <trkpt lat="48.69275" lon="-3.51222">
        <ele>100.5</ele>
        <time>2019-07-11T14:15:38Z</time>
      </trkpt>
      <trkpt lat="48.69272" lon="-3.51225">
        <ele>100.5</ele>
        <time>2019-07-11T14:15:39Z</time>
      </trkpt>
      <trkpt lat="48.69269" lon="-3.51228">
        <ele>100.3</ele>
        <time>2019-07-11T14:15:40Z</time>
      </trkpt>
      <trkpt lat="48.69267" lon="-3.51231">
        <ele>100.3</ele>
        <time>2019-07-11T14:15:41Z</time>
      </trkpt>
      <trkpt lat="48.69264" lon="-3.51234">
        <ele>100.3</ele>
        <time>2019-07-11T14:15:42Z</time>
      </trkpt>
      <trkpt lat="48.69261" lon="-3.51237">
        <ele>100.2</ele>
        <time>2019-07-11T14:15:43Z</time>
      </trkpt>
      <trkpt lat="48.69259" lon="-3.5124">
        <ele>99.9</ele>
        <time>2019-07-11T14:15:44Z</time>
      </trkpt>
      <trkpt lat="48.69256" lon="-3.51242">
        <ele>99.8</ele>
        <time>2019-07-11T14:15:45Z</time>
      </trkpt>
      <trkpt lat="48.69254" lon="-3.51246">
        <ele>100.5</ele>
        <time>2019-07-11T14:15:46Z</time>
      </trkpt>
      <trkpt lat="48.69251" lon="-3.51249">
        <ele>101</ele>
        <time>2019-07-11T14:15:47Z</time>
      </trkpt>
      <trkpt lat="48.69248" lon="-3.51253">
        <ele>101.2</ele>
        <time>2019-07-11T14:15:48Z</time>
      </trkpt>
      <trkpt lat="48.69245" lon="-3.51256">
        <ele>101.4</ele>
        <time>2019-07-11T14:15:49Z</time>
      </trkpt>
      <trkpt lat="48.69242" lon="-3.51259">
        <ele>101.7</ele>
        <time>2019-07-11T14:15:50Z</time>
      </trkpt>
      <trkpt lat="48.69239" lon="-3.51262">
        <ele>101.2</ele>
        <time>2019-07-11T14:15:51Z</time>
      </trkpt>
      <trkpt lat="48.69235" lon="-3.51264">
        <ele>101.1</ele>
        <time>2019-07-11T14:15:52Z</time>
      </trkpt>
      <trkpt lat="48.69232" lon="-3.51267">
        <ele>101</ele>
        <time>2019-07-11T14:15:53Z</time>
      </trkpt>
      <trkpt lat="48.69229" lon="-3.51271">
        <ele>100.5</ele>
        <time>2019-07-11T14:15:54Z</time>
      </trkpt>
      <trkpt lat="48.69226" lon="-3.51274">
        <ele>100.9</ele>
        <time>2019-07-11T14:15:55Z</time>
      </trkpt>
      <trkpt lat="48.69223" lon="-3.51278">
        <ele>101.2</ele>
        <time>2019-07-11T14:15:56Z</time>
      </trkpt>
      <trkpt lat="48.69219" lon="-3.51282">
        <ele>101.6</ele>
        <time>2019-07-11T14:15:57Z</time>
      </trkpt>
      <trkpt lat="48.69216" lon="-3.51285">
        <ele>102.5</ele>
        <time>2019-07-11T14:15:58Z</time>
      </trkpt>
      <trkpt lat="48.69213" lon="-3.51289">
        <ele>103.8</ele>
        <time>2019-07-11T14:15:59Z</time>
      </trkpt>
      <trkpt lat="48.6921" lon="-3.51292">
        <ele>104.2</ele>
        <time>2019-07-11T14:16:00Z</time>
      </trkpt>
      <trkpt lat="48.69206" lon="-3.51296">
        <ele>103.6</ele>
        <time>2019-07-11T14:16:01Z</time>
      </trkpt>
      <trkpt lat="48.69204" lon="-3.513">
        <ele>103.1</ele>
        <time>2019-07-11T14:16:02Z</time>
      </trkpt>
      <trkpt lat="48.69202" lon="-3.51304">
        <ele>101.8</ele>
        <time>2019-07-11T14:16:03Z</time>
      </trkpt>
      <trkpt lat="48.69199" lon="-3.51307">
        <ele>101.6</ele>
        <time>2019-07-11T14:16:04Z</time>
      </trkpt>
      <trkpt lat="48.69197" lon="-3.51311">
        <ele>101.5</ele>
        <time>2019-07-11T14:16:05Z</time>
      </trkpt>
      <trkpt lat="48.69194" lon="-3.51315">
        <ele>101.4</ele>
        <time>2019-07-11T14:16:06Z</time>
      </trkpt>
      <trkpt lat="48.69192" lon="-3.51318">
        <ele>101.2</ele>
        <time>2019-07-11T14:16:07Z</time>
      </trkpt>
      <trkpt lat="48.6919" lon="-3.51322">
        <ele>100.9</ele>
        <time>2019-07-11T14:16:08Z</time>
      </trkpt>
      <trkpt lat="48.69186" lon="-3.51325">
        <ele>100.7</ele>
        <time>2019-07-11T14:16:09Z</time>
      </trkpt>
      <trkpt lat="48.69184" lon="-3.51329">
        <ele>100.9</ele>
        <time>2019-07-11T14:16:10Z</time>
      </trkpt>
      <trkpt lat="48.69182" lon="-3.51333">
        <ele>101.2</ele>
        <time>2019-07-11T14:16:11Z</time>
      </trkpt>
      <trkpt lat="48.69179" lon="-3.51336">
        <ele>101.6</ele>
        <time>2019-07-11T14:16:12Z</time>
      </trkpt>
      <trkpt lat="48.69177" lon="-3.51339">
        <ele>101.4</ele>
        <time>2019-07-11T14:16:13Z</time>
      </trkpt>
      <trkpt lat="48.69174" lon="-3.51342">
        <ele>101</ele>
        <time>2019-07-11T14:16:14Z</time>
      </trkpt>
      <trkpt lat="48.69172" lon="-3.51345">
        <ele>101.3</ele>
        <time>2019-07-11T14:16:15Z</time>
      </trkpt>
      <trkpt lat="48.6917" lon="-3.51348">
        <ele>101</ele>
        <time>2019-07-11T14:16:16Z</time>
      </trkpt>
      <trkpt lat="48.69167" lon="-3.5135">
        <ele>101.1</ele>
        <time>2019-07-11T14:16:17Z</time>
      </trkpt>
      <trkpt lat="48.69165" lon="-3.51353">
        <ele>101.1</ele>
        <time>2019-07-11T14:16:18Z</time>
      </trkpt>
      <trkpt lat="48.69162" lon="-3.51356">
        <ele>101</ele>
        <time>2019-07-11T14:16:19Z</time>
      </trkpt>
      <trkpt lat="48.69159" lon="-3.51358">
        <ele>101.4</ele>
        <time>2019-07-11T14:16:20Z</time>
      </trkpt>
      <trkpt lat="48.69156" lon="-3.51361">
        <ele>101.9</ele>
        <time>2019-07-11T14:16:21Z</time>
      </trkpt>
      <trkpt lat="48.69153" lon="-3.51364">
        <ele>102.4</ele>
        <time>2019-07-11T14:16:22Z</time>
      </trkpt>
      <trkpt lat="48.6915" lon="-3.51366">
        <ele>103.1</ele>
        <time>2019-07-11T14:16:23Z</time>
      </trkpt>
      <trkpt lat="48.69147" lon="-3.51369">
        <ele>103.8</ele>
        <time>2019-07-11T14:16:24Z</time>
      </trkpt>
      <trkpt lat="48.69144" lon="-3.51372">
        <ele>104.6</ele>
        <time>2019-07-11T14:16:25Z</time>
      </trkpt>
      <trkpt lat="48.69141" lon="-3.51374">
        <ele>105.4</ele>
        <time>2019-07-11T14:16:26Z</time>
      </trkpt>
      <trkpt lat="48.69138" lon="-3.51377">
        <ele>106.1</ele>
        <time>2019-07-11T14:16:27Z</time>
      </trkpt>
      <trkpt lat="48.69135" lon="-3.51379">
        <ele>106.5</ele>
        <time>2019-07-11T14:16:28Z</time>
      </trkpt>
      <trkpt lat="48.69132" lon="-3.51381">
        <ele>107.1</ele>
        <time>2019-07-11T14:16:29Z</time>
      </trkpt>
      <trkpt lat="48.69129" lon="-3.51383">
        <ele>107.1</ele>
        <time>2019-07-11T14:16:30Z</time>
      </trkpt>
      <trkpt lat="48.69126" lon="-3.51385">
        <ele>107.4</ele>
        <time>2019-07-11T14:16:31Z</time>
      </trkpt>
      <trkpt lat="48.69123" lon="-3.51387">
        <ele>107.3</ele>
        <time>2019-07-11T14:16:32Z</time>
      </trkpt>
      <trkpt lat="48.6912" lon="-3.51389">
        <ele>107.1</ele>
        <time>2019-07-11T14:16:33Z</time>
      </trkpt>
      <trkpt lat="48.69118" lon="-3.51392">
        <ele>107.4</ele>
        <time>2019-07-11T14:16:34Z</time>
      </trkpt>
      <trkpt lat="48.69115" lon="-3.51395">
        <ele>108</ele>
        <time>2019-07-11T14:16:35Z</time>
      </trkpt>
      <trkpt lat="48.69113" lon="-3.51397">
        <ele>108</ele>
        <time>2019-07-11T14:16:36Z</time>
      </trkpt>
      <trkpt lat="48.6911" lon="-3.51399">
        <ele>108</ele>
        <time>2019-07-11T14:16:37Z</time>
      </trkpt>
      <trkpt lat="48.69107" lon="-3.51401">
        <ele>108.3</ele>
        <time>2019-07-11T14:16:38Z</time>
      </trkpt>
      <trkpt lat="48.69103" lon="-3.51403">
        <ele>108.2</ele>
        <time>2019-07-11T14:16:39Z</time>
      </trkpt>
      <trkpt lat="48.691" lon="-3.51405">
        <ele>107.7</ele>
        <time>2019-07-11T14:16:40Z</time>
      </trkpt>
      <trkpt lat="48.69097" lon="-3.51406">
        <ele>107.7</ele>
        <time>2019-07-11T14:16:41Z</time>
      </trkpt>
      <trkpt lat="48.69093" lon="-3.51407">
        <ele>106.8</ele>
        <time>2019-07-11T14:16:42Z</time>
      </trkpt>
      <trkpt lat="48.6909" lon="-3.51409">
        <ele>107</ele>
        <time>2019-07-11T14:16:43Z</time>
      </trkpt>
      <trkpt lat="48.69087" lon="-3.5141">
        <ele>106.7</ele>
        <time>2019-07-11T14:16:44Z</time>
      </trkpt>
      <trkpt lat="48.69084" lon="-3.51411">
        <ele>106.6</ele>
        <time>2019-07-11T14:16:45Z</time>
      </trkpt>
      <trkpt lat="48.69082" lon="-3.51412">
        <ele>106.3</ele>
        <time>2019-07-11T14:16:46Z</time>
      </trkpt>
      <trkpt lat="48.69078" lon="-3.51413">
        <ele>106</ele>
        <time>2019-07-11T14:16:47Z</time>
      </trkpt>
      <trkpt lat="48.69075" lon="-3.51413">
        <ele>106.7</ele>
        <time>2019-07-11T14:16:48Z</time>
      </trkpt>
      <trkpt lat="48.69072" lon="-3.51413">
        <ele>107.4</ele>
        <time>2019-07-11T14:16:49Z</time>
      </trkpt>
      <trkpt lat="48.69069" lon="-3.51414">
        <ele>107.7</ele>
        <time>2019-07-11T14:16:50Z</time>
      </trkpt>
      <trkpt lat="48.69066" lon="-3.51414">
        <ele>108.2</ele>
        <time>2019-07-11T14:16:51Z</time>
      </trkpt>
      <trkpt lat="48.69063" lon="-3.51414">
        <ele>108.4</ele>
        <time>2019-07-11T14:16:52Z</time>
      </trkpt>
      <trkpt lat="48.69061" lon="-3.51413">
        <ele>108.3</ele>
        <time>2019-07-11T14:16:53Z</time>
      </trkpt>
      <trkpt lat="48.69058" lon="-3.51413">
        <ele>108.1</ele>
        <time>2019-07-11T14:16:54Z</time>
      </trkpt>
      <trkpt lat="48.69054" lon="-3.51413">
        <ele>108.4</ele>
        <time>2019-07-11T14:16:55Z</time>
      </trkpt>
      <trkpt lat="48.69051" lon="-3.51413">
        <ele>108.1</ele>
        <time>2019-07-11T14:16:56Z</time>
      </trkpt>
      <trkpt lat="48.69048" lon="-3.51414">
        <ele>108.3</ele>
        <time>2019-07-11T14:16:57Z</time>
      </trkpt>
      <trkpt lat="48.69046" lon="-3.51414">
        <ele>108.1</ele>
        <time>2019-07-11T14:16:58Z</time>
      </trkpt>
      <trkpt lat="48.69043" lon="-3.51414">
        <ele>107.8</ele>
        <time>2019-07-11T14:16:59Z</time>
      </trkpt>
      <trkpt lat="48.6904" lon="-3.51414">
        <ele>107.5</ele>
        <time>2019-07-11T14:17:00Z</time>
      </trkpt>
      <trkpt lat="48.69038" lon="-3.51414">
        <ele>107.6</ele>
        <time>2019-07-11T14:17:01Z</time>
      </trkpt>
      <trkpt lat="48.69035" lon="-3.51414">
        <ele>106.9</ele>
        <time>2019-07-11T14:17:02Z</time>
      </trkpt>
      <trkpt lat="48.69032" lon="-3.51414">
        <ele>106.3</ele>
        <time>2019-07-11T14:17:03Z</time>
      </trkpt>
      <trkpt lat="48.69029" lon="-3.51413">
        <ele>106.2</ele>
        <time>2019-07-11T14:17:04Z</time>
      </trkpt>
      <trkpt lat="48.69026" lon="-3.51413">
        <ele>105.6</ele>
        <time>2019-07-11T14:17:05Z</time>
      </trkpt>
      <trkpt lat="48.69023" lon="-3.51413">
        <ele>105.6</ele>
        <time>2019-07-11T14:17:06Z</time>
      </trkpt>
      <trkpt lat="48.6902" lon="-3.51414">
        <ele>105.8</ele>
        <time>2019-07-11T14:17:07Z</time>
      </trkpt>
      <trkpt lat="48.69017" lon="-3.51415">
        <ele>106.1</ele>
        <time>2019-07-11T14:17:08Z</time>
      </trkpt>
      <trkpt lat="48.69014" lon="-3.51416">
        <ele>106.4</ele>
        <time>2019-07-11T14:17:09Z</time>
      </trkpt>
      <trkpt lat="48.69011" lon="-3.51417">
        <ele>106.7</ele>
        <time>2019-07-11T14:17:10Z</time>
      </trkpt>
      <trkpt lat="48.69008" lon="-3.51419">
        <ele>107.1</ele>
        <time>2019-07-11T14:17:11Z</time>
      </trkpt>
      <trkpt lat="48.69006" lon="-3.5142">
        <ele>107.7</ele>
        <time>2019-07-11T14:17:12Z</time>
      </trkpt>
      <trkpt lat="48.69003" lon="-3.51422">
        <ele>108.2</ele>
        <time>2019-07-11T14:17:13Z</time>
      </trkpt>
      <trkpt lat="48.69" lon="-3.51424">
        <ele>108.5</ele>
        <time>2019-07-11T14:17:14Z</time>
      </trkpt>
      <trkpt lat="48.68997" lon="-3.51426">
        <ele>108.9</ele>
        <time>2019-07-11T14:17:15Z</time>
      </trkpt>
      <trkpt lat="48.68995" lon="-3.51429">
        <ele>109.4</ele>
        <time>2019-07-11T14:17:16Z</time>
      </trkpt>
      <trkpt lat="48.68992" lon="-3.51432">
        <ele>109.9</ele>
        <time>2019-07-11T14:17:17Z</time>
      </trkpt>
      <trkpt lat="48.6899" lon="-3.51435">
        <ele>110.6</ele>
        <time>2019-07-11T14:17:18Z</time>
      </trkpt>
      <trkpt lat="48.68988" lon="-3.51438">
        <ele>111.1</ele>
        <time>2019-07-11T14:17:19Z</time>
      </trkpt>
      <trkpt lat="48.68985" lon="-3.51441">
        <ele>111.5</ele>
        <time>2019-07-11T14:17:20Z</time>
      </trkpt>
      <trkpt lat="48.68984" lon="-3.51445">
        <ele>111.3</ele>
        <time>2019-07-11T14:17:21Z</time>
      </trkpt>
      <trkpt lat="48.68982" lon="-3.51449">
        <ele>111.3</ele>
        <time>2019-07-11T14:17:22Z</time>
      </trkpt>
      <trkpt lat="48.6898" lon="-3.51452">
        <ele>111.4</ele>
        <time>2019-07-11T14:17:23Z</time>
      </trkpt>
      <trkpt lat="48.68979" lon="-3.51456">
        <ele>111.3</ele>
        <time>2019-07-11T14:17:24Z</time>
      </trkpt>
      <trkpt lat="48.68977" lon="-3.5146">
        <ele>111.3</ele>
        <time>2019-07-11T14:17:25Z</time>
      </trkpt>
      <trkpt lat="48.68975" lon="-3.51464">
        <ele>111.4</ele>
        <time>2019-07-11T14:17:26Z</time>
      </trkpt>
      <trkpt lat="48.68974" lon="-3.51468">
        <ele>111.2</ele>
        <time>2019-07-11T14:17:27Z</time>
      </trkpt>
      <trkpt lat="48.68972" lon="-3.51473">
        <ele>110.6</ele>
        <time>2019-07-11T14:17:28Z</time>
      </trkpt>
      <trkpt lat="48.68971" lon="-3.51477">
        <ele>110.5</ele>
        <time>2019-07-11T14:17:29Z</time>
      </trkpt>
      <trkpt lat="48.6897" lon="-3.5148">
        <ele>110.7</ele>
        <time>2019-07-11T14:17:30Z</time>
      </trkpt>
      <trkpt lat="48.68969" lon="-3.51484">
        <ele>110.7</ele>
        <time>2019-07-11T14:17:31Z</time>
      </trkpt>
      <trkpt lat="48.68967" lon="-3.51487">
        <ele>110.6</ele>
        <time>2019-07-11T14:17:32Z</time>
      </trkpt>
      <trkpt lat="48.68966" lon="-3.51491">
        <ele>110.4</ele>
        <time>2019-07-11T14:17:33Z</time>
      </trkpt>
      <trkpt lat="48.68965" lon="-3.51494">
        <ele>110.3</ele>
        <time>2019-07-11T14:17:34Z</time>
      </trkpt>
      <trkpt lat="48.68964" lon="-3.51498">
        <ele>110.3</ele>
        <time>2019-07-11T14:17:35Z</time>
      </trkpt>
      <trkpt lat="48.68963" lon="-3.51501">
        <ele>110</ele>
        <time>2019-07-11T14:17:36Z</time>
      </trkpt>
      <trkpt lat="48.68962" lon="-3.51505">
        <ele>109.9</ele>
        <time>2019-07-11T14:17:37Z</time>
      </trkpt>
      <trkpt lat="48.68961" lon="-3.51508">
        <ele>109.8</ele>
        <time>2019-07-11T14:17:38Z</time>
      </trkpt>
      <trkpt lat="48.68959" lon="-3.51512">
        <ele>109.9</ele>
        <time>2019-07-11T14:17:39Z</time>
      </trkpt>
      <trkpt lat="48.68959" lon="-3.51516">
        <ele>110</ele>
        <time>2019-07-11T14:17:40Z</time>
      </trkpt>
      <trkpt lat="48.68958" lon="-3.5152">
        <ele>109.9</ele>
        <time>2019-07-11T14:17:41Z</time>
      </trkpt>
      <trkpt lat="48.68956" lon="-3.51523">
        <ele>109.7</ele>
        <time>2019-07-11T14:17:42Z</time>
      </trkpt>
      <trkpt lat="48.68956" lon="-3.51526">
        <ele>109.7</ele>
        <time>2019-07-11T14:17:43Z</time>
      </trkpt>
      <trkpt lat="48.68954" lon="-3.5153">
        <ele>109.9</ele>
        <time>2019-07-11T14:17:44Z</time>
      </trkpt>
      <trkpt lat="48.68953" lon="-3.51533">
        <ele>109.8</ele>
        <time>2019-07-11T14:17:45Z</time>
      </trkpt>
      <trkpt lat="48.68952" lon="-3.51537">
        <ele>109.9</ele>
        <time>2019-07-11T14:17:46Z</time>
      </trkpt>
      <trkpt lat="48.68951" lon="-3.5154">
        <ele>109.9</ele>
        <time>2019-07-11T14:17:47Z</time>
      </trkpt>
      <trkpt lat="48.6895" lon="-3.51544">
        <ele>110</ele>
        <time>2019-07-11T14:17:48Z</time>
      </trkpt>
      <trkpt lat="48.68948" lon="-3.51548">
        <ele>110.3</ele>
        <time>2019-07-11T14:17:49Z</time>
      </trkpt>
      <trkpt lat="48.68947" lon="-3.51551">
        <ele>110.8</ele>
        <time>2019-07-11T14:17:50Z</time>
      </trkpt>
      <trkpt lat="48.68946" lon="-3.51555">
        <ele>111.1</ele>
        <time>2019-07-11T14:17:51Z</time>
      </trkpt>
      <trkpt lat="48.68945" lon="-3.51559">
        <ele>111.6</ele>
        <time>2019-07-11T14:17:52Z</time>
      </trkpt>
      <trkpt lat="48.68944" lon="-3.51563">
        <ele>111.9</ele>
        <time>2019-07-11T14:17:53Z</time>
      </trkpt>
      <trkpt lat="48.68943" lon="-3.51567">
        <ele>112</ele>
        <time>2019-07-11T14:17:54Z</time>
      </trkpt>
      <trkpt lat="48.68942" lon="-3.5157">
        <ele>112.1</ele>
        <time>2019-07-11T14:17:55Z</time>
      </trkpt>
      <trkpt lat="48.6894" lon="-3.51574">
        <ele>112.4</ele>
        <time>2019-07-11T14:17:56Z</time>
      </trkpt>
      <trkpt lat="48.68939" lon="-3.51578">
        <ele>112.4</ele>
        <time>2019-07-11T14:17:57Z</time>
      </trkpt>
      <trkpt lat="48.68938" lon="-3.51582">
        <ele>112.6</ele>
        <time>2019-07-11T14:17:58Z</time>
      </trkpt>
      <trkpt lat="48.68937" lon="-3.51586">
        <ele>112.7</ele>
        <time>2019-07-11T14:17:59Z</time>
      </trkpt>
      <trkpt lat="48.68936" lon="-3.51589">
        <ele>112.7</ele>
        <time>2019-07-11T14:18:00Z</time>
      </trkpt>
      <trkpt lat="48.68935" lon="-3.51593">
        <ele>112.8</ele>
        <time>2019-07-11T14:18:01Z</time>
      </trkpt>
      <trkpt lat="48.68934" lon="-3.51597">
        <ele>112.9</ele>
        <time>2019-07-11T14:18:02Z</time>
      </trkpt>
      <trkpt lat="48.68932" lon="-3.51601">
        <ele>112.8</ele>
        <time>2019-07-11T14:18:03Z</time>
      </trkpt>
      <trkpt lat="48.68931" lon="-3.51605">
        <ele>112.7</ele>
        <time>2019-07-11T14:18:04Z</time>
      </trkpt>
      <trkpt lat="48.6893" lon="-3.51609">
        <ele>112.8</ele>
        <time>2019-07-11T14:18:05Z</time>
      </trkpt>
      <trkpt lat="48.68929" lon="-3.51613">
        <ele>113.2</ele>
        <time>2019-07-11T14:18:06Z</time>
      </trkpt>
      <trkpt lat="48.68928" lon="-3.51617">
        <ele>113.4</ele>
        <time>2019-07-11T14:18:07Z</time>
      </trkpt>
      <trkpt lat="48.68927" lon="-3.51621">
        <ele>113.6</ele>
        <time>2019-07-11T14:18:08Z</time>
      </trkpt>
      <trkpt lat="48.68926" lon="-3.51625">
        <ele>113.6</ele>
        <time>2019-07-11T14:18:09Z</time>
      </trkpt>
      <trkpt lat="48.68926" lon="-3.51629">
        <ele>113.9</ele>
        <time>2019-07-11T14:18:10Z</time>
      </trkpt>
      <trkpt lat="48.68924" lon="-3.51633">
        <ele>114</ele>
        <time>2019-07-11T14:18:11Z</time>
      </trkpt>
      <trkpt lat="48.68924" lon="-3.51637">
        <ele>114.4</ele>
        <time>2019-07-11T14:18:12Z</time>
      </trkpt>
      <trkpt lat="48.68923" lon="-3.51642">
        <ele>114.9</ele>
        <time>2019-07-11T14:18:13Z</time>
      </trkpt>
      <trkpt lat="48.68922" lon="-3.51646">
        <ele>115</ele>
        <time>2019-07-11T14:18:14Z</time>
      </trkpt>
      <trkpt lat="48.68922" lon="-3.5165">
        <ele>114.9</ele>
        <time>2019-07-11T14:18:15Z</time>
      </trkpt>
      <trkpt lat="48.68921" lon="-3.51654">
        <ele>114.8</ele>
        <time>2019-07-11T14:18:16Z</time>
      </trkpt>
      <trkpt lat="48.68921" lon="-3.51658">
        <ele>114.8</ele>
        <time>2019-07-11T14:18:17Z</time>
      </trkpt>
      <trkpt lat="48.68919" lon="-3.51662">
        <ele>114.8</ele>
        <time>2019-07-11T14:18:18Z</time>
      </trkpt>
      <trkpt lat="48.68919" lon="-3.51667">
        <ele>114.8</ele>
        <time>2019-07-11T14:18:19Z</time>
      </trkpt>
      <trkpt lat="48.68919" lon="-3.51671">
        <ele>115.1</ele>
        <time>2019-07-11T14:18:20Z</time>
      </trkpt>
      <trkpt lat="48.68918" lon="-3.51675">
        <ele>115.4</ele>
        <time>2019-07-11T14:18:21Z</time>
      </trkpt>
      <trkpt lat="48.68917" lon="-3.5168">
        <ele>115.4</ele>
        <time>2019-07-11T14:18:22Z</time>
      </trkpt>
      <trkpt lat="48.68916" lon="-3.51684">
        <ele>115.3</ele>
        <time>2019-07-11T14:18:23Z</time>
      </trkpt>
      <trkpt lat="48.68915" lon="-3.51689">
        <ele>115</ele>
        <time>2019-07-11T14:18:24Z</time>
      </trkpt>
      <trkpt lat="48.68915" lon="-3.51693">
        <ele>114.9</ele>
        <time>2019-07-11T14:18:25Z</time>
      </trkpt>
      <trkpt lat="48.68914" lon="-3.51698">
        <ele>114.9</ele>
        <time>2019-07-11T14:18:26Z</time>
      </trkpt>
      <trkpt lat="48.68913" lon="-3.51703">
        <ele>114.8</ele>
        <time>2019-07-11T14:18:27Z</time>
      </trkpt>
      <trkpt lat="48.68913" lon="-3.51708">
        <ele>114.9</ele>
        <time>2019-07-11T14:18:28Z</time>
      </trkpt>
      <trkpt lat="48.68913" lon="-3.51713">
        <ele>114.7</ele>
        <time>2019-07-11T14:18:29Z</time>
      </trkpt>
      <trkpt lat="48.68912" lon="-3.51718">
        <ele>114.7</ele>
        <time>2019-07-11T14:18:30Z</time>
      </trkpt>
      <trkpt lat="48.68911" lon="-3.51723">
        <ele>114.8</ele>
        <time>2019-07-11T14:18:31Z</time>
      </trkpt>
      <trkpt lat="48.68911" lon="-3.51728">
        <ele>114.9</ele>
        <time>2019-07-11T14:18:32Z</time>
      </trkpt>
      <trkpt lat="48.6891" lon="-3.51732">
        <ele>114.9</ele>
        <time>2019-07-11T14:18:33Z</time>
      </trkpt>
      <trkpt lat="48.6891" lon="-3.51737">
        <ele>114.9</ele>
        <time>2019-07-11T14:18:34Z</time>
      </trkpt>
      <trkpt lat="48.68909" lon="-3.51742">
        <ele>115</ele>
        <time>2019-07-11T14:18:35Z</time>
      </trkpt>
      <trkpt lat="48.68908" lon="-3.51747">
        <ele>114.7</ele>
        <time>2019-07-11T14:18:36Z</time>
      </trkpt>
      <trkpt lat="48.68908" lon="-3.51753">
        <ele>114.8</ele>
        <time>2019-07-11T14:18:37Z</time>
      </trkpt>
      <trkpt lat="48.68907" lon="-3.51758">
        <ele>115</ele>
        <time>2019-07-11T14:18:38Z</time>
      </trkpt>
      <trkpt lat="48.68907" lon="-3.51764">
        <ele>115</ele>
        <time>2019-07-11T14:18:39Z</time>
      </trkpt>
      <trkpt lat="48.68906" lon="-3.5177">
        <ele>115.4</ele>
        <time>2019-07-11T14:18:40Z</time>
      </trkpt>
      <trkpt lat="48.68906" lon="-3.51776">
        <ele>115.4</ele>
        <time>2019-07-11T14:18:41Z</time>
      </trkpt>
      <trkpt lat="48.68905" lon="-3.51783">
        <ele>115.7</ele>
        <time>2019-07-11T14:18:42Z</time>
      </trkpt>
      <trkpt lat="48.68904" lon="-3.51788">
        <ele>116.2</ele>
        <time>2019-07-11T14:18:43Z</time>
      </trkpt>
      <trkpt lat="48.68904" lon="-3.51794">
        <ele>116.2</ele>
        <time>2019-07-11T14:18:44Z</time>
      </trkpt>
      <trkpt lat="48.68904" lon="-3.51799">
        <ele>116.3</ele>
        <time>2019-07-11T14:18:45Z</time>
      </trkpt>
      <trkpt lat="48.68903" lon="-3.51804">
        <ele>116.3</ele>
        <time>2019-07-11T14:18:46Z</time>
      </trkpt>
      <trkpt lat="48.68902" lon="-3.51809">
        <ele>116.5</ele>
        <time>2019-07-11T14:18:47Z</time>
      </trkpt>
      <trkpt lat="48.68901" lon="-3.51814">
        <ele>115.8</ele>
        <time>2019-07-11T14:18:48Z</time>
      </trkpt>
      <trkpt lat="48.68901" lon="-3.51818">
        <ele>116.3</ele>
        <time>2019-07-11T14:18:49Z</time>
      </trkpt>
      <trkpt lat="48.689" lon="-3.51822">
        <ele>116.2</ele>
        <time>2019-07-11T14:18:50Z</time>
      </trkpt>
      <trkpt lat="48.68898" lon="-3.51826">
        <ele>115.6</ele>
        <time>2019-07-11T14:18:51Z</time>
      </trkpt>
      <trkpt lat="48.68897" lon="-3.51831">
        <ele>115.2</ele>
        <time>2019-07-11T14:18:52Z</time>
      </trkpt>
      <trkpt lat="48.68895" lon="-3.51835">
        <ele>114.7</ele>
        <time>2019-07-11T14:18:53Z</time>
      </trkpt>
      <trkpt lat="48.68893" lon="-3.51839">
        <ele>114.7</ele>
        <time>2019-07-11T14:18:54Z</time>
      </trkpt>
      <trkpt lat="48.68891" lon="-3.51842">
        <ele>114.5</ele>
        <time>2019-07-11T14:18:55Z</time>
      </trkpt>
      <trkpt lat="48.68888" lon="-3.51846">
        <ele>114.5</ele>
        <time>2019-07-11T14:18:56Z</time>
      </trkpt>
      <trkpt lat="48.68885" lon="-3.5185">
        <ele>114.5</ele>
        <time>2019-07-11T14:18:57Z</time>
      </trkpt>
      <trkpt lat="48.68882" lon="-3.51853">
        <ele>114.4</ele>
        <time>2019-07-11T14:18:58Z</time>
      </trkpt>
      <trkpt lat="48.68878" lon="-3.51855">
        <ele>114.5</ele>
        <time>2019-07-11T14:18:59Z</time>
      </trkpt>
      <trkpt lat="48.68874" lon="-3.51857">
        <ele>114.7</ele>
        <time>2019-07-11T14:19:00Z</time>
      </trkpt>
      <trkpt lat="48.6887" lon="-3.51859">
        <ele>115.4</ele>
        <time>2019-07-11T14:19:01Z</time>
      </trkpt>
      <trkpt lat="48.68866" lon="-3.5186">
        <ele>115.7</ele>
        <time>2019-07-11T14:19:02Z</time>
      </trkpt>
      <trkpt lat="48.68862" lon="-3.51862">
        <ele>116</ele>
        <time>2019-07-11T14:19:03Z</time>
      </trkpt>
      <trkpt lat="48.68858" lon="-3.51863">
        <ele>116.3</ele>
        <time>2019-07-11T14:19:04Z</time>
      </trkpt>
      <trkpt lat="48.68853" lon="-3.51864">
        <ele>116.5</ele>
        <time>2019-07-11T14:19:05Z</time>
      </trkpt>
      <trkpt lat="48.68849" lon="-3.51866">
        <ele>116.7</ele>
        <time>2019-07-11T14:19:06Z</time>
      </trkpt>
      <trkpt lat="48.68844" lon="-3.51867">
        <ele>117</ele>
        <time>2019-07-11T14:19:07Z</time>
      </trkpt>
      <trkpt lat="48.6884" lon="-3.51869">
        <ele>117.1</ele>
        <time>2019-07-11T14:19:08Z</time>
      </trkpt>
      <trkpt lat="48.68835" lon="-3.51871">
        <ele>117.3</ele>
        <time>2019-07-11T14:19:09Z</time>
      </trkpt>
      <trkpt lat="48.68831" lon="-3.51872">
        <ele>117.3</ele>
        <time>2019-07-11T14:19:10Z</time>
      </trkpt>
      <trkpt lat="48.68826" lon="-3.51874">
        <ele>117.1</ele>
        <time>2019-07-11T14:19:11Z</time>
      </trkpt>
      <trkpt lat="48.68822" lon="-3.51877">
        <ele>116.2</ele>
        <time>2019-07-11T14:19:12Z</time>
      </trkpt>
      <trkpt lat="48.68817" lon="-3.51879">
        <ele>115.9</ele>
        <time>2019-07-11T14:19:13Z</time>
      </trkpt>
      <trkpt lat="48.68813" lon="-3.51881">
        <ele>115.6</ele>
        <time>2019-07-11T14:19:14Z</time>
      </trkpt>
      <trkpt lat="48.68808" lon="-3.51883">
        <ele>115.6</ele>
        <time>2019-07-11T14:19:15Z</time>
      </trkpt>
      <trkpt lat="48.68803" lon="-3.51885">
        <ele>115.5</ele>
        <time>2019-07-11T14:19:16Z</time>
      </trkpt>
      <trkpt lat="48.68799" lon="-3.51888">
        <ele>114.9</ele>
        <time>2019-07-11T14:19:17Z</time>
      </trkpt>
      <trkpt lat="48.68795" lon="-3.5189">
        <ele>114.7</ele>
        <time>2019-07-11T14:19:18Z</time>
      </trkpt>
      <trkpt lat="48.6879" lon="-3.51893">
        <ele>114.4</ele>
        <time>2019-07-11T14:19:19Z</time>
      </trkpt>
      <trkpt lat="48.68786" lon="-3.51895">
        <ele>114.5</ele>
        <time>2019-07-11T14:19:20Z</time>
      </trkpt>
      <trkpt lat="48.68782" lon="-3.51898">
        <ele>114.8</ele>
        <time>2019-07-11T14:19:21Z</time>
      </trkpt>
      <trkpt lat="48.68777" lon="-3.519">
        <ele>114.9</ele>
        <time>2019-07-11T14:19:22Z</time>
      </trkpt>
      <trkpt lat="48.68773" lon="-3.51902">
        <ele>115</ele>
        <time>2019-07-11T14:19:23Z</time>
      </trkpt>
      <trkpt lat="48.68768" lon="-3.51904">
        <ele>115.5</ele>
        <time>2019-07-11T14:19:24Z</time>
      </trkpt>
      <trkpt lat="48.68764" lon="-3.51906">
        <ele>115.8</ele>
        <time>2019-07-11T14:19:25Z</time>
      </trkpt>
      <trkpt lat="48.68759" lon="-3.51909">
        <ele>115.8</ele>
        <time>2019-07-11T14:19:26Z</time>
      </trkpt>
      <trkpt lat="48.68755" lon="-3.51912">
        <ele>115.9</ele>
        <time>2019-07-11T14:19:27Z</time>
      </trkpt>
      <trkpt lat="48.6875" lon="-3.51914">
        <ele>116.3</ele>
        <time>2019-07-11T14:19:28Z</time>
      </trkpt>
      <trkpt lat="48.68746" lon="-3.51917">
        <ele>116.6</ele>
        <time>2019-07-11T14:19:29Z</time>
      </trkpt>
      <trkpt lat="48.68741" lon="-3.51919">
        <ele>116.6</ele>
        <time>2019-07-11T14:19:30Z</time>
      </trkpt>
      <trkpt lat="48.68737" lon="-3.51922">
        <ele>116.4</ele>
        <time>2019-07-11T14:19:31Z</time>
      </trkpt>
      <trkpt lat="48.68733" lon="-3.51924">
        <ele>116.6</ele>
        <time>2019-07-11T14:19:32Z</time>
      </trkpt>
      <trkpt lat="48.68728" lon="-3.51927">
        <ele>116.3</ele>
        <time>2019-07-11T14:19:33Z</time>
      </trkpt>
      <trkpt lat="48.68723" lon="-3.51929">
        <ele>116.5</ele>
        <time>2019-07-11T14:19:34Z</time>
      </trkpt>
      <trkpt lat="48.68719" lon="-3.51932">
        <ele>116.4</ele>
        <time>2019-07-11T14:19:35Z</time>
      </trkpt>
      <trkpt lat="48.68715" lon="-3.51935">
        <ele>115.4</ele>
        <time>2019-07-11T14:19:36Z</time>
      </trkpt>
      <trkpt lat="48.6871" lon="-3.51937">
        <ele>115.4</ele>
        <time>2019-07-11T14:19:37Z</time>
      </trkpt>
      <trkpt lat="48.68707" lon="-3.51939">
        <ele>115.5</ele>
        <time>2019-07-11T14:19:38Z</time>
      </trkpt>
      <trkpt lat="48.68702" lon="-3.51941">
        <ele>116</ele>
        <time>2019-07-11T14:19:39Z</time>
      </trkpt>
      <trkpt lat="48.68698" lon="-3.51943">
        <ele>116.8</ele>
        <time>2019-07-11T14:19:40Z</time>
      </trkpt>
      <trkpt lat="48.68694" lon="-3.51945">
        <ele>117.2</ele>
        <time>2019-07-11T14:19:41Z</time>
      </trkpt>
      <trkpt lat="48.6869" lon="-3.51947">
        <ele>117.4</ele>
        <time>2019-07-11T14:19:42Z</time>
      </trkpt>
      <trkpt lat="48.68686" lon="-3.5195">
        <ele>117.3</ele>
        <time>2019-07-11T14:19:43Z</time>
      </trkpt>
      <trkpt lat="48.68681" lon="-3.51951">
        <ele>117.4</ele>
        <time>2019-07-11T14:19:44Z</time>
      </trkpt>
      <trkpt lat="48.68678" lon="-3.51953">
        <ele>117.1</ele>
        <time>2019-07-11T14:19:45Z</time>
      </trkpt>
      <trkpt lat="48.68674" lon="-3.51955">
        <ele>116.7</ele>
        <time>2019-07-11T14:19:46Z</time>
      </trkpt>
      <trkpt lat="48.6867" lon="-3.51957">
        <ele>116.5</ele>
        <time>2019-07-11T14:19:47Z</time>
      </trkpt>
      <trkpt lat="48.68666" lon="-3.51959">
        <ele>115.9</ele>
        <time>2019-07-11T14:19:48Z</time>
      </trkpt>
      <trkpt lat="48.68662" lon="-3.51961">
        <ele>115.4</ele>
        <time>2019-07-11T14:19:49Z</time>
      </trkpt>
      <trkpt lat="48.68658" lon="-3.51964">
        <ele>115.1</ele>
        <time>2019-07-11T14:19:50Z</time>
      </trkpt>
      <trkpt lat="48.68654" lon="-3.51966">
        <ele>114.9</ele>
        <time>2019-07-11T14:19:51Z</time>
      </trkpt>
      <trkpt lat="48.6865" lon="-3.51968">
        <ele>114.9</ele>
        <time>2019-07-11T14:19:52Z</time>
      </trkpt>
      <trkpt lat="48.68646" lon="-3.51969">
        <ele>115.1</ele>
        <time>2019-07-11T14:19:53Z</time>
      </trkpt>
      <trkpt lat="48.68641" lon="-3.51971">
        <ele>115.2</ele>
        <time>2019-07-11T14:19:54Z</time>
      </trkpt>
      <trkpt lat="48.68637" lon="-3.51974">
        <ele>115.4</ele>
        <time>2019-07-11T14:19:55Z</time>
      </trkpt>
      <trkpt lat="48.68633" lon="-3.51976">
        <ele>116</ele>
        <time>2019-07-11T14:19:56Z</time>
      </trkpt>
      <trkpt lat="48.68629" lon="-3.51978">
        <ele>116.7</ele>
        <time>2019-07-11T14:19:57Z</time>
      </trkpt>
      <trkpt lat="48.68625" lon="-3.51979">
        <ele>117.3</ele>
        <time>2019-07-11T14:19:58Z</time>
      </trkpt>
      <trkpt lat="48.68621" lon="-3.51981">
        <ele>117.5</ele>
        <time>2019-07-11T14:19:59Z</time>
      </trkpt>
      <trkpt lat="48.68617" lon="-3.51983">
        <ele>117.5</ele>
        <time>2019-07-11T14:20:00Z</time>
      </trkpt>
      <trkpt lat="48.68613" lon="-3.51985">
        <ele>117.6</ele>
        <time>2019-07-11T14:20:01Z</time>
      </trkpt>
      <trkpt lat="48.68609" lon="-3.51987">
        <ele>117.7</ele>
        <time>2019-07-11T14:20:02Z</time>
      </trkpt>
      <trkpt lat="48.68605" lon="-3.51989">
        <ele>117.9</ele>
        <time>2019-07-11T14:20:03Z</time>
      </trkpt>
      <trkpt lat="48.68601" lon="-3.51992">
        <ele>118</ele>
        <time>2019-07-11T14:20:04Z</time>
      </trkpt>
      <trkpt lat="48.68597" lon="-3.51994">
        <ele>118</ele>
        <time>2019-07-11T14:20:05Z</time>
      </trkpt>
      <trkpt lat="48.68593" lon="-3.51996">
        <ele>118.1</ele>
        <time>2019-07-11T14:20:06Z</time>
      </trkpt>
      <trkpt lat="48.68589" lon="-3.51998">
        <ele>117.8</ele>
        <time>2019-07-11T14:20:07Z</time>
      </trkpt>
      <trkpt lat="48.68584" lon="-3.52">
        <ele>117.2</ele>
        <time>2019-07-11T14:20:08Z</time>
      </trkpt>
      <trkpt lat="48.68581" lon="-3.52002">
        <ele>116.6</ele>
        <time>2019-07-11T14:20:09Z</time>
      </trkpt>
      <trkpt lat="48.68576" lon="-3.52004">
        <ele>116.2</ele>
        <time>2019-07-11T14:20:10Z</time>
      </trkpt>
      <trkpt lat="48.68572" lon="-3.52006">
        <ele>116.2</ele>
        <time>2019-07-11T14:20:11Z</time>
      </trkpt>
      <trkpt lat="48.68568" lon="-3.52008">
        <ele>116.1</ele>
        <time>2019-07-11T14:20:12Z</time>
      </trkpt>
      <trkpt lat="48.68564" lon="-3.5201">
        <ele>116.2</ele>
        <time>2019-07-11T14:20:13Z</time>
      </trkpt>
      <trkpt lat="48.6856" lon="-3.52011">
        <ele>116.3</ele>
        <time>2019-07-11T14:20:14Z</time>
      </trkpt>
      <trkpt lat="48.68556" lon="-3.52013">
        <ele>116.4</ele>
        <time>2019-07-11T14:20:15Z</time>
      </trkpt>
      <trkpt lat="48.68552" lon="-3.52014">
        <ele>116.4</ele>
        <time>2019-07-11T14:20:16Z</time>
      </trkpt>
      <trkpt lat="48.68547" lon="-3.52015">
        <ele>116.3</ele>
        <time>2019-07-11T14:20:17Z</time>
      </trkpt>
      <trkpt lat="48.68543" lon="-3.52017">
        <ele>116.5</ele>
        <time>2019-07-11T14:20:18Z</time>
      </trkpt>
      <trkpt lat="48.68539" lon="-3.52019">
        <ele>116.9</ele>
        <time>2019-07-11T14:20:19Z</time>
      </trkpt>
      <trkpt lat="48.68535" lon="-3.52021">
        <ele>116.9</ele>
        <time>2019-07-11T14:20:20Z</time>
      </trkpt>
      <trkpt lat="48.68531" lon="-3.52024">
        <ele>117</ele>
        <time>2019-07-11T14:20:21Z</time>
      </trkpt>
      <trkpt lat="48.68528" lon="-3.52027">
        <ele>117.1</ele>
        <time>2019-07-11T14:20:22Z</time>
      </trkpt>
      <trkpt lat="48.68524" lon="-3.5203">
        <ele>117.4</ele>
        <time>2019-07-11T14:20:23Z</time>
      </trkpt>
      <trkpt lat="48.6852" lon="-3.52033">
        <ele>118</ele>
        <time>2019-07-11T14:20:24Z</time>
      </trkpt>
      <trkpt lat="48.68516" lon="-3.52037">
        <ele>118.4</ele>
        <time>2019-07-11T14:20:25Z</time>
      </trkpt>
      <trkpt lat="48.68512" lon="-3.5204">
        <ele>118.8</ele>
        <time>2019-07-11T14:20:26Z</time>
      </trkpt>
      <trkpt lat="48.68508" lon="-3.52043">
        <ele>118.8</ele>
        <time>2019-07-11T14:20:27Z</time>
      </trkpt>
      <trkpt lat="48.68504" lon="-3.52047">
        <ele>118.5</ele>
        <time>2019-07-11T14:20:28Z</time>
      </trkpt>
      <trkpt lat="48.68501" lon="-3.52051">
        <ele>118.4</ele>
        <time>2019-07-11T14:20:29Z</time>
      </trkpt>
      <trkpt lat="48.68496" lon="-3.52054">
        <ele>118.2</ele>
        <time>2019-07-11T14:20:30Z</time>
      </trkpt>
      <trkpt lat="48.68493" lon="-3.52058">
        <ele>118.3</ele>
        <time>2019-07-11T14:20:31Z</time>
      </trkpt>
      <trkpt lat="48.68489" lon="-3.52062">
        <ele>118.1</ele>
        <time>2019-07-11T14:20:32Z</time>
      </trkpt>
      <trkpt lat="48.68485" lon="-3.52066">
        <ele>117.8</ele>
        <time>2019-07-11T14:20:33Z</time>
      </trkpt>
      <trkpt lat="48.68481" lon="-3.52069">
        <ele>117.7</ele>
        <time>2019-07-11T14:20:34Z</time>
      </trkpt>
      <trkpt lat="48.68476" lon="-3.52073">
        <ele>117.3</ele>
        <time>2019-07-11T14:20:35Z</time>
      </trkpt>
      <trkpt lat="48.68472" lon="-3.52077">
        <ele>116.6</ele>
        <time>2019-07-11T14:20:36Z</time>
      </trkpt>
      <trkpt lat="48.68467" lon="-3.52082">
        <ele>116.3</ele>
        <time>2019-07-11T14:20:37Z</time>
      </trkpt>
      <trkpt lat="48.68464" lon="-3.52086">
        <ele>115.8</ele>
        <time>2019-07-11T14:20:38Z</time>
      </trkpt>
      <trkpt lat="48.68459" lon="-3.52091">
        <ele>115.2</ele>
        <time>2019-07-11T14:20:39Z</time>
      </trkpt>
      <trkpt lat="48.68456" lon="-3.52096">
        <ele>115.1</ele>
        <time>2019-07-11T14:20:40Z</time>
      </trkpt>
      <trkpt lat="48.68452" lon="-3.52101">
        <ele>115.2</ele>
        <time>2019-07-11T14:20:41Z</time>
      </trkpt>
      <trkpt lat="48.68448" lon="-3.52105">
        <ele>115.4</ele>
        <time>2019-07-11T14:20:42Z</time>
      </trkpt>
      <trkpt lat="48.68444" lon="-3.5211">
        <ele>115.6</ele>
        <time>2019-07-11T14:20:43Z</time>
      </trkpt>
      <trkpt lat="48.6844" lon="-3.52113">
        <ele>115.8</ele>
        <time>2019-07-11T14:20:44Z</time>
      </trkpt>
      <trkpt lat="48.68436" lon="-3.52117">
        <ele>115.9</ele>
        <time>2019-07-11T14:20:45Z</time>
      </trkpt>
      <trkpt lat="48.68432" lon="-3.52121">
        <ele>116</ele>
        <time>2019-07-11T14:20:46Z</time>
      </trkpt>
      <trkpt lat="48.68428" lon="-3.52125">
        <ele>116.2</ele>
        <time>2019-07-11T14:20:47Z</time>
      </trkpt>
      <trkpt lat="48.68424" lon="-3.52128">
        <ele>116.6</ele>
        <time>2019-07-11T14:20:48Z</time>
      </trkpt>
      <trkpt lat="48.68419" lon="-3.52131">
        <ele>116.4</ele>
        <time>2019-07-11T14:20:49Z</time>
      </trkpt>
      <trkpt lat="48.68415" lon="-3.52135">
        <ele>116.6</ele>
        <time>2019-07-11T14:20:50Z</time>
      </trkpt>
      <trkpt lat="48.68411" lon="-3.52137">
        <ele>116.6</ele>
        <time>2019-07-11T14:20:51Z</time>
      </trkpt>
      <trkpt lat="48.68406" lon="-3.5214">
        <ele>116.3</ele>
        <time>2019-07-11T14:20:52Z</time>
      </trkpt>
      <trkpt lat="48.68402" lon="-3.52143">
        <ele>116.3</ele>
        <time>2019-07-11T14:20:53Z</time>
      </trkpt>
      <trkpt lat="48.68398" lon="-3.52147">
        <ele>115.9</ele>
        <time>2019-07-11T14:20:54Z</time>
      </trkpt>
      <trkpt lat="48.68393" lon="-3.5215">
        <ele>115.7</ele>
        <time>2019-07-11T14:20:55Z</time>
      </trkpt>
      <trkpt lat="48.68388" lon="-3.52153">
        <ele>114.8</ele>
        <time>2019-07-11T14:20:56Z</time>
      </trkpt>
      <trkpt lat="48.68384" lon="-3.52156">
        <ele>114.6</ele>
        <time>2019-07-11T14:20:57Z</time>
      </trkpt>
      <trkpt lat="48.68379" lon="-3.5216">
        <ele>114.3</ele>
        <time>2019-07-11T14:20:58Z</time>
      </trkpt>
      <trkpt lat="48.68375" lon="-3.52163">
        <ele>114.4</ele>
        <time>2019-07-11T14:20:59Z</time>
      </trkpt>
      <trkpt lat="48.6837" lon="-3.52166">
        <ele>114.8</ele>
        <time>2019-07-11T14:21:00Z</time>
      </trkpt>
      <trkpt lat="48.68366" lon="-3.5217">
        <ele>114.4</ele>
        <time>2019-07-11T14:21:01Z</time>
      </trkpt>
      <trkpt lat="48.68361" lon="-3.52173">
        <ele>114.4</ele>
        <time>2019-07-11T14:21:02Z</time>
      </trkpt>
      <trkpt lat="48.68357" lon="-3.52176">
        <ele>114.7</ele>
        <time>2019-07-11T14:21:03Z</time>
      </trkpt>
      <trkpt lat="48.68353" lon="-3.52179">
        <ele>114.9</ele>
        <time>2019-07-11T14:21:04Z</time>
      </trkpt>
      <trkpt lat="48.68348" lon="-3.52182">
        <ele>114.8</ele>
        <time>2019-07-11T14:21:05Z</time>
      </trkpt>
      <trkpt lat="48.68344" lon="-3.52185">
        <ele>114.5</ele>
        <time>2019-07-11T14:21:06Z</time>
      </trkpt>
      <trkpt lat="48.6834" lon="-3.52188">
        <ele>114</ele>
        <time>2019-07-11T14:21:07Z</time>
      </trkpt>
      <trkpt lat="48.68335" lon="-3.52191">
        <ele>113.8</ele>
        <time>2019-07-11T14:21:08Z</time>
      </trkpt>
      <trkpt lat="48.68332" lon="-3.52194">
        <ele>113.3</ele>
        <time>2019-07-11T14:21:09Z</time>
      </trkpt>
      <trkpt lat="48.68328" lon="-3.52197">
        <ele>113.5</ele>
        <time>2019-07-11T14:21:10Z</time>
      </trkpt>
      <trkpt lat="48.68324" lon="-3.522">
        <ele>113.4</ele>
        <time>2019-07-11T14:21:11Z</time>
      </trkpt>
      <trkpt lat="48.68321" lon="-3.52202">
        <ele>113.8</ele>
        <time>2019-07-11T14:21:12Z</time>
      </trkpt>
      <trkpt lat="48.68317" lon="-3.52205">
        <ele>113.6</ele>
        <time>2019-07-11T14:21:13Z</time>
      </trkpt>
      <trkpt lat="48.68314" lon="-3.52207">
        <ele>113.7</ele>
        <time>2019-07-11T14:21:14Z</time>
      </trkpt>
      <trkpt lat="48.6831" lon="-3.52209">
        <ele>113.6</ele>
        <time>2019-07-11T14:21:15Z</time>
      </trkpt>
      <trkpt lat="48.68307" lon="-3.52211">
        <ele>113.4</ele>
        <time>2019-07-11T14:21:16Z</time>
      </trkpt>
      <trkpt lat="48.68304" lon="-3.52213">
        <ele>113.5</ele>
        <time>2019-07-11T14:21:17Z</time>
      </trkpt>
      <trkpt lat="48.68301" lon="-3.52215">
        <ele>113.6</ele>
        <time>2019-07-11T14:21:18Z</time>
      </trkpt>
      <trkpt lat="48.68298" lon="-3.52217">
        <ele>113.6</ele>
        <time>2019-07-11T14:21:19Z</time>
      </trkpt>
      <trkpt lat="48.68294" lon="-3.5222">
        <ele>113.2</ele>
        <time>2019-07-11T14:21:20Z</time>
      </trkpt>
      <trkpt lat="48.68291" lon="-3.52223">
        <ele>113.5</ele>
        <time>2019-07-11T14:21:21Z</time>
      </trkpt>
      <trkpt lat="48.68288" lon="-3.52226">
        <ele>113.1</ele>
        <time>2019-07-11T14:21:22Z</time>
      </trkpt>
      <trkpt lat="48.68285" lon="-3.52229">
        <ele>113</ele>
        <time>2019-07-11T14:21:23Z</time>
      </trkpt>
      <trkpt lat="48.68281" lon="-3.52232">
        <ele>112.6</ele>
        <time>2019-07-11T14:21:24Z</time>
      </trkpt>
      <trkpt lat="48.68277" lon="-3.52236">
        <ele>111.7</ele>
        <time>2019-07-11T14:21:25Z</time>
      </trkpt>
      <trkpt lat="48.68273" lon="-3.5224">
        <ele>110.3</ele>
        <time>2019-07-11T14:21:26Z</time>
      </trkpt>
      <trkpt lat="48.68269" lon="-3.52243">
        <ele>109.8</ele>
        <time>2019-07-11T14:21:27Z</time>
      </trkpt>
      <trkpt lat="48.68265" lon="-3.52247">
        <ele>110.6</ele>
        <time>2019-07-11T14:21:28Z</time>
      </trkpt>
      <trkpt lat="48.68261" lon="-3.5225">
        <ele>110.8</ele>
        <time>2019-07-11T14:21:29Z</time>
      </trkpt>
      <trkpt lat="48.68256" lon="-3.52252">
        <ele>111.5</ele>
        <time>2019-07-11T14:21:30Z</time>
      </trkpt>
      <trkpt lat="48.68253" lon="-3.52255">
        <ele>113.3</ele>
        <time>2019-07-11T14:21:31Z</time>
      </trkpt>
      <trkpt lat="48.68249" lon="-3.52258">
        <ele>114.2</ele>
        <time>2019-07-11T14:21:32Z</time>
      </trkpt>
      <trkpt lat="48.68245" lon="-3.52261">
        <ele>114.2</ele>
        <time>2019-07-11T14:21:33Z</time>
      </trkpt>
      <trkpt lat="48.68242" lon="-3.52265">
        <ele>113.5</ele>
        <time>2019-07-11T14:21:34Z</time>
      </trkpt>
      <trkpt lat="48.68239" lon="-3.52269">
        <ele>112.6</ele>
        <time>2019-07-11T14:21:35Z</time>
      </trkpt>
      <trkpt lat="48.68235" lon="-3.52273">
        <ele>112.1</ele>
        <time>2019-07-11T14:21:36Z</time>
      </trkpt>
      <trkpt lat="48.68233" lon="-3.52277">
        <ele>112.2</ele>
        <time>2019-07-11T14:21:37Z</time>
      </trkpt>
      <trkpt lat="48.6823" lon="-3.52281">
        <ele>112.6</ele>
        <time>2019-07-11T14:21:38Z</time>
      </trkpt>
      <trkpt lat="48.68228" lon="-3.52286">
        <ele>114.1</ele>
        <time>2019-07-11T14:21:39Z</time>
      </trkpt>
      <trkpt lat="48.68226" lon="-3.52291">
        <ele>114.7</ele>
        <time>2019-07-11T14:21:40Z</time>
      </trkpt>
      <trkpt lat="48.68226" lon="-3.52297">
        <ele>114.9</ele>
        <time>2019-07-11T14:21:41Z</time>
      </trkpt>
      <trkpt lat="48.68226" lon="-3.52304">
        <ele>115.1</ele>
        <time>2019-07-11T14:21:42Z</time>
      </trkpt>
      <trkpt lat="48.68227" lon="-3.5231">
        <ele>115.6</ele>
        <time>2019-07-11T14:21:43Z</time>
      </trkpt>
      <trkpt lat="48.68228" lon="-3.52317">
        <ele>115.1</ele>
        <time>2019-07-11T14:21:44Z</time>
      </trkpt>
      <trkpt lat="48.68228" lon="-3.52323">
        <ele>115.4</ele>
        <time>2019-07-11T14:21:45Z</time>
      </trkpt>
      <trkpt lat="48.68229" lon="-3.5233">
        <ele>115.6</ele>
        <time>2019-07-11T14:21:46Z</time>
      </trkpt>
      <trkpt lat="48.6823" lon="-3.52337">
        <ele>116</ele>
        <time>2019-07-11T14:21:47Z</time>
      </trkpt>
      <trkpt lat="48.6823" lon="-3.52345">
        <ele>116</ele>
        <time>2019-07-11T14:21:48Z</time>
      </trkpt>
      <trkpt lat="48.6823" lon="-3.52353">
        <ele>115.5</ele>
        <time>2019-07-11T14:21:49Z</time>
      </trkpt>
      <trkpt lat="48.68229" lon="-3.52361">
        <ele>115</ele>
        <time>2019-07-11T14:21:50Z</time>
      </trkpt>
      <trkpt lat="48.68229" lon="-3.52368">
        <ele>115.1</ele>
        <time>2019-07-11T14:21:51Z</time>
      </trkpt>
      <trkpt lat="48.68229" lon="-3.52375">
        <ele>115.3</ele>
        <time>2019-07-11T14:21:52Z</time>
      </trkpt>
      <trkpt lat="48.68228" lon="-3.52382">
        <ele>115.7</ele>
        <time>2019-07-11T14:21:53Z</time>
      </trkpt>
      <trkpt lat="48.68228" lon="-3.52389">
        <ele>116.9</ele>
        <time>2019-07-11T14:21:54Z</time>
      </trkpt>
      <trkpt lat="48.68227" lon="-3.52396">
        <ele>116.8</ele>
        <time>2019-07-11T14:21:55Z</time>
      </trkpt>
      <trkpt lat="48.68226" lon="-3.52402">
        <ele>116.5</ele>
        <time>2019-07-11T14:21:56Z</time>
      </trkpt>
      <trkpt lat="48.68224" lon="-3.52409">
        <ele>116.7</ele>
        <time>2019-07-11T14:21:57Z</time>
      </trkpt>
      <trkpt lat="48.68223" lon="-3.52415">
        <ele>115.7</ele>
        <time>2019-07-11T14:21:58Z</time>
      </trkpt>
      <trkpt lat="48.68222" lon="-3.52422">
        <ele>115.4</ele>
        <time>2019-07-11T14:21:59Z</time>
      </trkpt>
      <trkpt lat="48.6822" lon="-3.52428">
        <ele>115.3</ele>
        <time>2019-07-11T14:22:00Z</time>
      </trkpt>
      <trkpt lat="48.68219" lon="-3.52435">
        <ele>115</ele>
        <time>2019-07-11T14:22:01Z</time>
      </trkpt>
      <trkpt lat="48.68218" lon="-3.52441">
        <ele>115.9</ele>
        <time>2019-07-11T14:22:02Z</time>
      </trkpt>
      <trkpt lat="48.68216" lon="-3.52447">
        <ele>116.4</ele>
        <time>2019-07-11T14:22:03Z</time>
      </trkpt>
      <trkpt lat="48.68214" lon="-3.52453">
        <ele>116.5</ele>
        <time>2019-07-11T14:22:04Z</time>
      </trkpt>
      <trkpt lat="48.68212" lon="-3.5246">
        <ele>115.9</ele>
        <time>2019-07-11T14:22:05Z</time>
      </trkpt>
      <trkpt lat="48.6821" lon="-3.52466">
        <ele>114.8</ele>
        <time>2019-07-11T14:22:06Z</time>
      </trkpt>
      <trkpt lat="48.68208" lon="-3.52473">
        <ele>114</ele>
        <time>2019-07-11T14:22:07Z</time>
      </trkpt>
      <trkpt lat="48.68206" lon="-3.52479">
        <ele>113.2</ele>
        <time>2019-07-11T14:22:08Z</time>
      </trkpt>
      <trkpt lat="48.68205" lon="-3.52486">
        <ele>113.1</ele>
        <time>2019-07-11T14:22:09Z</time>
      </trkpt>
      <trkpt lat="48.68203" lon="-3.52492">
        <ele>113.6</ele>
        <time>2019-07-11T14:22:10Z</time>
      </trkpt>
      <trkpt lat="48.68201" lon="-3.52498">
        <ele>114.2</ele>
        <time>2019-07-11T14:22:11Z</time>
      </trkpt>
      <trkpt lat="48.682" lon="-3.52504">
        <ele>114</ele>
        <time>2019-07-11T14:22:12Z</time>
      </trkpt>
      <trkpt lat="48.68198" lon="-3.52511">
        <ele>113.1</ele>
        <time>2019-07-11T14:22:13Z</time>
      </trkpt>
      <trkpt lat="48.68197" lon="-3.52518">
        <ele>112.8</ele>
        <time>2019-07-11T14:22:14Z</time>
      </trkpt>
      <trkpt lat="48.68196" lon="-3.52525">
        <ele>112.1</ele>
        <time>2019-07-11T14:22:15Z</time>
      </trkpt>
      <trkpt lat="48.68194" lon="-3.52532">
        <ele>111.5</ele>
        <time>2019-07-11T14:22:16Z</time>
      </trkpt>
      <trkpt lat="48.68193" lon="-3.52538">
        <ele>111</ele>
        <time>2019-07-11T14:22:17Z</time>
      </trkpt>
      <trkpt lat="48.68191" lon="-3.52545">
        <ele>111.4</ele>
        <time>2019-07-11T14:22:18Z</time>
      </trkpt>
      <trkpt lat="48.6819" lon="-3.52552">
        <ele>111</ele>
        <time>2019-07-11T14:22:19Z</time>
      </trkpt>
      <trkpt lat="48.68188" lon="-3.52559">
        <ele>111</ele>
        <time>2019-07-11T14:22:20Z</time>
      </trkpt>
      <trkpt lat="48.68186" lon="-3.52566">
        <ele>111</ele>
        <time>2019-07-11T14:22:21Z</time>
      </trkpt>
      <trkpt lat="48.68185" lon="-3.52573">
        <ele>110.6</ele>
        <time>2019-07-11T14:22:22Z</time>
      </trkpt>
      <trkpt lat="48.68184" lon="-3.5258">
        <ele>110.8</ele>
        <time>2019-07-11T14:22:23Z</time>
      </trkpt>
      <trkpt lat="48.68182" lon="-3.52586">
        <ele>111.4</ele>
        <time>2019-07-11T14:22:24Z</time>
      </trkpt>
      <trkpt lat="48.68182" lon="-3.52593">
        <ele>111.6</ele>
        <time>2019-07-11T14:22:25Z</time>
      </trkpt>
      <trkpt lat="48.68181" lon="-3.52599">
        <ele>111.8</ele>
        <time>2019-07-11T14:22:26Z</time>
      </trkpt>
      <trkpt lat="48.68179" lon="-3.52605">
        <ele>112</ele>
        <time>2019-07-11T14:22:27Z</time>
      </trkpt>
      <trkpt lat="48.68177" lon="-3.52611">
        <ele>112</ele>
        <time>2019-07-11T14:22:28Z</time>
      </trkpt>
      <trkpt lat="48.68176" lon="-3.52618">
        <ele>112</ele>
        <time>2019-07-11T14:22:29Z</time>
      </trkpt>
      <trkpt lat="48.68174" lon="-3.52624">
        <ele>111.7</ele>
        <time>2019-07-11T14:22:30Z</time>
      </trkpt>
      <trkpt lat="48.68173" lon="-3.52631">
        <ele>111</ele>
        <time>2019-07-11T14:22:31Z</time>
      </trkpt>
      <trkpt lat="48.68172" lon="-3.52638">
        <ele>110.6</ele>
        <time>2019-07-11T14:22:32Z</time>
      </trkpt>
      <trkpt lat="48.6817" lon="-3.52645">
        <ele>110.1</ele>
        <time>2019-07-11T14:22:33Z</time>
      </trkpt>
      <trkpt lat="48.68169" lon="-3.52652">
        <ele>110.6</ele>
        <time>2019-07-11T14:22:34Z</time>
      </trkpt>
      <trkpt lat="48.68168" lon="-3.52658">
        <ele>110</ele>
        <time>2019-07-11T14:22:35Z</time>
      </trkpt>
      <trkpt lat="48.68166" lon="-3.52664">
        <ele>109.6</ele>
        <time>2019-07-11T14:22:36Z</time>
      </trkpt>
      <trkpt lat="48.68164" lon="-3.5267">
        <ele>109.6</ele>
        <time>2019-07-11T14:22:37Z</time>
      </trkpt>
      <trkpt lat="48.68162" lon="-3.52676">
        <ele>109.5</ele>
        <time>2019-07-11T14:22:38Z</time>
      </trkpt>
      <trkpt lat="48.68161" lon="-3.52683">
        <ele>109.4</ele>
        <time>2019-07-11T14:22:39Z</time>
      </trkpt>
      <trkpt lat="48.68158" lon="-3.52689">
        <ele>108.5</ele>
        <time>2019-07-11T14:22:40Z</time>
      </trkpt>
      <trkpt lat="48.68157" lon="-3.52696">
        <ele>109.1</ele>
        <time>2019-07-11T14:22:41Z</time>
      </trkpt>
      <trkpt lat="48.68156" lon="-3.52702">
        <ele>108.3</ele>
        <time>2019-07-11T14:22:42Z</time>
      </trkpt>
      <trkpt lat="48.68154" lon="-3.52709">
        <ele>107.4</ele>
        <time>2019-07-11T14:22:43Z</time>
      </trkpt>
      <trkpt lat="48.68152" lon="-3.52715">
        <ele>106.7</ele>
        <time>2019-07-11T14:22:44Z</time>
      </trkpt>
      <trkpt lat="48.6815" lon="-3.52721">
        <ele>106.2</ele>
        <time>2019-07-11T14:22:45Z</time>
      </trkpt>
      <trkpt lat="48.68149" lon="-3.52727">
        <ele>105</ele>
        <time>2019-07-11T14:22:46Z</time>
      </trkpt>
      <trkpt lat="48.68147" lon="-3.52733">
        <ele>103.9</ele>
        <time>2019-07-11T14:22:47Z</time>
      </trkpt>
      <trkpt lat="48.68145" lon="-3.52739">
        <ele>102.7</ele>
        <time>2019-07-11T14:22:48Z</time>
      </trkpt>
      <trkpt lat="48.68143" lon="-3.52745">
        <ele>101.4</ele>
        <time>2019-07-11T14:22:49Z</time>
      </trkpt>
      <trkpt lat="48.68141" lon="-3.52751">
        <ele>100.4</ele>
        <time>2019-07-11T14:22:50Z</time>
      </trkpt>
      <trkpt lat="48.6814" lon="-3.52757">
        <ele>99.4</ele>
        <time>2019-07-11T14:22:51Z</time>
      </trkpt>
      <trkpt lat="48.68138" lon="-3.52763">
        <ele>98.4</ele>
        <time>2019-07-11T14:22:52Z</time>
      </trkpt>
      <trkpt lat="48.68137" lon="-3.52771">
        <ele>97.1</ele>
        <time>2019-07-11T14:22:53Z</time>
      </trkpt>
      <trkpt lat="48.68136" lon="-3.52777">
        <ele>96.2</ele>
        <time>2019-07-11T14:22:54Z</time>
      </trkpt>
      <trkpt lat="48.68135" lon="-3.52782">
        <ele>95.4</ele>
        <time>2019-07-11T14:22:55Z</time>
      </trkpt>
      <trkpt lat="48.68134" lon="-3.52788">
        <ele>94.9</ele>
        <time>2019-07-11T14:22:56Z</time>
      </trkpt>
      <trkpt lat="48.68133" lon="-3.52792">
        <ele>94.3</ele>
        <time>2019-07-11T14:22:57Z</time>
      </trkpt>
      <trkpt lat="48.68132" lon="-3.52797">
        <ele>94.5</ele>
        <time>2019-07-11T14:22:58Z</time>
      </trkpt>
      <trkpt lat="48.68131" lon="-3.52802">
        <ele>94.5</ele>
        <time>2019-07-11T14:22:59Z</time>
      </trkpt>
      <trkpt lat="48.6813" lon="-3.52808">
        <ele>95.1</ele>
        <time>2019-07-11T14:23:00Z</time>
      </trkpt>
      <trkpt lat="48.68128" lon="-3.52813">
        <ele>95.7</ele>
        <time>2019-07-11T14:23:01Z</time>
      </trkpt>
      <trkpt lat="48.68127" lon="-3.52818">
        <ele>96.5</ele>
        <time>2019-07-11T14:23:02Z</time>
      </trkpt>
      <trkpt lat="48.68126" lon="-3.52824">
        <ele>97.6</ele>
        <time>2019-07-11T14:23:03Z</time>
      </trkpt>
      <trkpt lat="48.68125" lon="-3.52831">
        <ele>98.6</ele>
        <time>2019-07-11T14:23:04Z</time>
      </trkpt>
      <trkpt lat="48.68124" lon="-3.52837">
        <ele>99.5</ele>
        <time>2019-07-11T14:23:05Z</time>
      </trkpt>
      <trkpt lat="48.68123" lon="-3.52844">
        <ele>100.5</ele>
        <time>2019-07-11T14:23:06Z</time>
      </trkpt>
      <trkpt lat="48.68121" lon="-3.52851">
        <ele>101.8</ele>
        <time>2019-07-11T14:23:07Z</time>
      </trkpt>
      <trkpt lat="48.6812" lon="-3.52858">
        <ele>102.7</ele>
        <time>2019-07-11T14:23:08Z</time>
      </trkpt>
      <trkpt lat="48.68119" lon="-3.52865">
        <ele>102.9</ele>
        <time>2019-07-11T14:23:09Z</time>
      </trkpt>
      <trkpt lat="48.68118" lon="-3.52872">
        <ele>103.7</ele>
        <time>2019-07-11T14:23:10Z</time>
      </trkpt>
      <trkpt lat="48.68116" lon="-3.5288">
        <ele>104.1</ele>
        <time>2019-07-11T14:23:11Z</time>
      </trkpt>
      <trkpt lat="48.68115" lon="-3.52887">
        <ele>104.5</ele>
        <time>2019-07-11T14:23:12Z</time>
      </trkpt>
      <trkpt lat="48.68113" lon="-3.52895">
        <ele>105</ele>
        <time>2019-07-11T14:23:13Z</time>
      </trkpt>
      <trkpt lat="48.68111" lon="-3.52903">
        <ele>105.7</ele>
        <time>2019-07-11T14:23:14Z</time>
      </trkpt>
      <trkpt lat="48.6811" lon="-3.5291">
        <ele>105.8</ele>
        <time>2019-07-11T14:23:15Z</time>
      </trkpt>
      <trkpt lat="48.68108" lon="-3.52918">
        <ele>106.1</ele>
        <time>2019-07-11T14:23:16Z</time>
      </trkpt>
      <trkpt lat="48.68107" lon="-3.52925">
        <ele>105.9</ele>
        <time>2019-07-11T14:23:17Z</time>
      </trkpt>
      <trkpt lat="48.68106" lon="-3.5293">
        <ele>106.6</ele>
        <time>2019-07-11T14:23:18Z</time>
      </trkpt>
      <trkpt lat="48.68105" lon="-3.52933">
        <ele>107</ele>
        <time>2019-07-11T14:23:19Z</time>
      </trkpt>
      <trkpt lat="48.68102" lon="-3.52943">
        <ele>105.5</ele>
        <time>2019-07-11T14:25:19Z</time>
      </trkpt>
      <trkpt lat="48.68101" lon="-3.52946">
        <ele>105.3</ele>
        <time>2019-07-11T14:25:20Z</time>
      </trkpt>
      <trkpt lat="48.681" lon="-3.52949">
        <ele>105.3</ele>
        <time>2019-07-11T14:25:21Z</time>
      </trkpt>
      <trkpt lat="48.68099" lon="-3.52952">
        <ele>105</ele>
        <time>2019-07-11T14:25:22Z</time>
      </trkpt>
      <trkpt lat="48.68098" lon="-3.52956">
        <ele>104.9</ele>
        <time>2019-07-11T14:25:23Z</time>
      </trkpt>
      <trkpt lat="48.68097" lon="-3.52961">
        <ele>104.6</ele>
        <time>2019-07-11T14:25:24Z</time>
      </trkpt>
      <trkpt lat="48.68096" lon="-3.52966">
        <ele>104.3</ele>
        <time>2019-07-11T14:25:25Z</time>
      </trkpt>
      <trkpt lat="48.68094" lon="-3.52971">
        <ele>104</ele>
        <time>2019-07-11T14:25:26Z</time>
      </trkpt>
      <trkpt lat="48.68093" lon="-3.52976">
        <ele>104</ele>
        <time>2019-07-11T14:25:27Z</time>
      </trkpt>
      <trkpt lat="48.68091" lon="-3.52982">
        <ele>103.8</ele>
        <time>2019-07-11T14:25:28Z</time>
      </trkpt>
      <trkpt lat="48.68089" lon="-3.52988">
        <ele>103.4</ele>
        <time>2019-07-11T14:25:29Z</time>
      </trkpt>
      <trkpt lat="48.68088" lon="-3.52995">
        <ele>103.1</ele>
        <time>2019-07-11T14:25:30Z</time>
      </trkpt>
      <trkpt lat="48.68086" lon="-3.53002">
        <ele>103</ele>
        <time>2019-07-11T14:25:31Z</time>
      </trkpt>
      <trkpt lat="48.68085" lon="-3.53009">
        <ele>102.3</ele>
        <time>2019-07-11T14:25:32Z</time>
      </trkpt>
      <trkpt lat="48.68083" lon="-3.53016">
        <ele>101.8</ele>
        <time>2019-07-11T14:25:33Z</time>
      </trkpt>
      <trkpt lat="48.68081" lon="-3.53022">
        <ele>101.4</ele>
        <time>2019-07-11T14:25:34Z</time>
      </trkpt>
      <trkpt lat="48.6808" lon="-3.53029">
        <ele>100.7</ele>
        <time>2019-07-11T14:25:35Z</time>
      </trkpt>
      <trkpt lat="48.68078" lon="-3.53035">
        <ele>100.2</ele>
        <time>2019-07-11T14:25:36Z</time>
      </trkpt>
      <trkpt lat="48.68074" lon="-3.53042">
        <ele>98.6</ele>
        <time>2019-07-11T14:25:37Z</time>
      </trkpt>
      <trkpt lat="48.68072" lon="-3.53049">
        <ele>97.5</ele>
        <time>2019-07-11T14:25:38Z</time>
      </trkpt>
      <trkpt lat="48.6807" lon="-3.53056">
        <ele>97.1</ele>
        <time>2019-07-11T14:25:39Z</time>
      </trkpt>
      <trkpt lat="48.68068" lon="-3.53063">
        <ele>97.3</ele>
        <time>2019-07-11T14:25:40Z</time>
      </trkpt>
      <trkpt lat="48.68066" lon="-3.5307">
        <ele>98</ele>
        <time>2019-07-11T14:25:41Z</time>
      </trkpt>
      <trkpt lat="48.68063" lon="-3.53077">
        <ele>99.3</ele>
        <time>2019-07-11T14:25:42Z</time>
      </trkpt>
      <trkpt lat="48.68062" lon="-3.53085">
        <ele>100</ele>
        <time>2019-07-11T14:25:43Z</time>
      </trkpt>
      <trkpt lat="48.6806" lon="-3.53092">
        <ele>99.9</ele>
        <time>2019-07-11T14:25:44Z</time>
      </trkpt>
      <trkpt lat="48.68059" lon="-3.53101">
        <ele>99.9</ele>
        <time>2019-07-11T14:25:45Z</time>
      </trkpt>
      <trkpt lat="48.68057" lon="-3.53109">
        <ele>99.5</ele>
        <time>2019-07-11T14:25:46Z</time>
      </trkpt>
      <trkpt lat="48.68056" lon="-3.53117">
        <ele>99.5</ele>
        <time>2019-07-11T14:25:47Z</time>
      </trkpt>
      <trkpt lat="48.68054" lon="-3.53126">
        <ele>99.1</ele>
        <time>2019-07-11T14:25:48Z</time>
      </trkpt>
      <trkpt lat="48.68053" lon="-3.53134">
        <ele>99</ele>
        <time>2019-07-11T14:25:49Z</time>
      </trkpt>
      <trkpt lat="48.6805" lon="-3.53141">
        <ele>99.1</ele>
        <time>2019-07-11T14:25:50Z</time>
      </trkpt>
      <trkpt lat="48.68049" lon="-3.53149">
        <ele>99.3</ele>
        <time>2019-07-11T14:25:51Z</time>
      </trkpt>
      <trkpt lat="48.68047" lon="-3.53156">
        <ele>99</ele>
        <time>2019-07-11T14:25:52Z</time>
      </trkpt>
      <trkpt lat="48.68045" lon="-3.53164">
        <ele>98.3</ele>
        <time>2019-07-11T14:25:53Z</time>
      </trkpt>
      <trkpt lat="48.68043" lon="-3.53171">
        <ele>97.8</ele>
        <time>2019-07-11T14:25:54Z</time>
      </trkpt>
      <trkpt lat="48.6804" lon="-3.53178">
        <ele>97.4</ele>
        <time>2019-07-11T14:25:55Z</time>
      </trkpt>
      <trkpt lat="48.68037" lon="-3.53185">
        <ele>96.7</ele>
        <time>2019-07-11T14:25:56Z</time>
      </trkpt>
      <trkpt lat="48.68034" lon="-3.53193">
        <ele>96.8</ele>
        <time>2019-07-11T14:25:57Z</time>
      </trkpt>
      <trkpt lat="48.68031" lon="-3.532">
        <ele>96.7</ele>
        <time>2019-07-11T14:25:58Z</time>
      </trkpt>
      <trkpt lat="48.68027" lon="-3.53207">
        <ele>96.4</ele>
        <time>2019-07-11T14:25:59Z</time>
      </trkpt>
      <trkpt lat="48.68023" lon="-3.53214">
        <ele>96</ele>
        <time>2019-07-11T14:26:00Z</time>
      </trkpt>
      <trkpt lat="48.68019" lon="-3.53221">
        <ele>95.3</ele>
        <time>2019-07-11T14:26:01Z</time>
      </trkpt>
      <trkpt lat="48.68015" lon="-3.53228">
        <ele>95</ele>
        <time>2019-07-11T14:26:02Z</time>
      </trkpt>
      <trkpt lat="48.6801" lon="-3.53234">
        <ele>95.2</ele>
        <time>2019-07-11T14:26:03Z</time>
      </trkpt>
      <trkpt lat="48.68005" lon="-3.5324">
        <ele>95.2</ele>
        <time>2019-07-11T14:26:04Z</time>
      </trkpt>
      <trkpt lat="48.68" lon="-3.53247">
        <ele>95.2</ele>
        <time>2019-07-11T14:26:05Z</time>
      </trkpt>
      <trkpt lat="48.67996" lon="-3.53253">
        <ele>95</ele>
        <time>2019-07-11T14:26:06Z</time>
      </trkpt>
      <trkpt lat="48.67991" lon="-3.53259">
        <ele>94.8</ele>
        <time>2019-07-11T14:26:07Z</time>
      </trkpt>
      <trkpt lat="48.67985" lon="-3.53264">
        <ele>94.3</ele>
        <time>2019-07-11T14:26:08Z</time>
      </trkpt>
      <trkpt lat="48.67979" lon="-3.5327">
        <ele>94</ele>
        <time>2019-07-11T14:26:09Z</time>
      </trkpt>
      <trkpt lat="48.67974" lon="-3.53274">
        <ele>93.6</ele>
        <time>2019-07-11T14:26:10Z</time>
      </trkpt>
      <trkpt lat="48.67968" lon="-3.53279">
        <ele>93.7</ele>
        <time>2019-07-11T14:26:11Z</time>
      </trkpt>
      <trkpt lat="48.67963" lon="-3.53284">
        <ele>93.7</ele>
        <time>2019-07-11T14:26:12Z</time>
      </trkpt>
      <trkpt lat="48.67958" lon="-3.53289">
        <ele>93.6</ele>
        <time>2019-07-11T14:26:13Z</time>
      </trkpt>
      <trkpt lat="48.67952" lon="-3.53295">
        <ele>93.4</ele>
        <time>2019-07-11T14:26:14Z</time>
      </trkpt>
      <trkpt lat="48.67947" lon="-3.53299">
        <ele>93</ele>
        <time>2019-07-11T14:26:15Z</time>
      </trkpt>
      <trkpt lat="48.67942" lon="-3.53305">
        <ele>92.6</ele>
        <time>2019-07-11T14:26:16Z</time>
      </trkpt>
      <trkpt lat="48.67937" lon="-3.5331">
        <ele>92.3</ele>
        <time>2019-07-11T14:26:17Z</time>
      </trkpt>
      <trkpt lat="48.67932" lon="-3.53315">
        <ele>92.2</ele>
        <time>2019-07-11T14:26:18Z</time>
      </trkpt>
      <trkpt lat="48.67927" lon="-3.5332">
        <ele>91.9</ele>
        <time>2019-07-11T14:26:19Z</time>
      </trkpt>
      <trkpt lat="48.67923" lon="-3.53325">
        <ele>91.4</ele>
        <time>2019-07-11T14:26:20Z</time>
      </trkpt>
      <trkpt lat="48.67918" lon="-3.5333">
        <ele>91.1</ele>
        <time>2019-07-11T14:26:21Z</time>
      </trkpt>
      <trkpt lat="48.67913" lon="-3.53334">
        <ele>90.8</ele>
        <time>2019-07-11T14:26:22Z</time>
      </trkpt>
      <trkpt lat="48.67909" lon="-3.53339">
        <ele>90.8</ele>
        <time>2019-07-11T14:26:23Z</time>
      </trkpt>
      <trkpt lat="48.67904" lon="-3.53343">
        <ele>91</ele>
        <time>2019-07-11T14:26:24Z</time>
      </trkpt>
      <trkpt lat="48.67899" lon="-3.53346">
        <ele>91.4</ele>
        <time>2019-07-11T14:26:25Z</time>
      </trkpt>
      <trkpt lat="48.67894" lon="-3.5335">
        <ele>91.2</ele>
        <time>2019-07-11T14:26:26Z</time>
      </trkpt>
      <trkpt lat="48.67889" lon="-3.53354">
        <ele>91.6</ele>
        <time>2019-07-11T14:26:27Z</time>
      </trkpt>
      <trkpt lat="48.67883" lon="-3.53358">
        <ele>91.7</ele>
        <time>2019-07-11T14:26:28Z</time>
      </trkpt>
      <trkpt lat="48.67878" lon="-3.53362">
        <ele>91.6</ele>
        <time>2019-07-11T14:26:29Z</time>
      </trkpt>
      <trkpt lat="48.67873" lon="-3.53366">
        <ele>91.1</ele>
        <time>2019-07-11T14:26:30Z</time>
      </trkpt>
      <trkpt lat="48.6787" lon="-3.53369">
        <ele>90.7</ele>
        <time>2019-07-11T14:26:31Z</time>
      </trkpt>
      <trkpt lat="48.67866" lon="-3.53372">
        <ele>90.3</ele>
        <time>2019-07-11T14:26:32Z</time>
      </trkpt>
      <trkpt lat="48.67864" lon="-3.53374">
        <ele>89.8</ele>
        <time>2019-07-11T14:26:33Z</time>
      </trkpt>
      <trkpt lat="48.67862" lon="-3.53376">
        <ele>88.9</ele>
        <time>2019-07-11T14:26:34Z</time>
      </trkpt>
      <trkpt lat="48.67862" lon="-3.53378">
        <ele>89.1</ele>
        <time>2019-07-11T14:26:35Z</time>
      </trkpt>
      <trkpt lat="48.6786" lon="-3.53381">
        <ele>89.2</ele>
        <time>2019-07-11T14:26:36Z</time>
      </trkpt>
      <trkpt lat="48.67859" lon="-3.53383">
        <ele>89.4</ele>
        <time>2019-07-11T14:26:37Z</time>
      </trkpt>
      <trkpt lat="48.67857" lon="-3.53385">
        <ele>90.3</ele>
        <time>2019-07-11T14:26:38Z</time>
      </trkpt>
      <trkpt lat="48.67854" lon="-3.53387">
        <ele>90.7</ele>
        <time>2019-07-11T14:26:39Z</time>
      </trkpt>
      <trkpt lat="48.67852" lon="-3.53389">
        <ele>90.3</ele>
        <time>2019-07-11T14:26:40Z</time>
      </trkpt>
      <trkpt lat="48.67849" lon="-3.5339">
        <ele>90</ele>
        <time>2019-07-11T14:26:41Z</time>
      </trkpt>
      <trkpt lat="48.67846" lon="-3.53393">
        <ele>89.9</ele>
        <time>2019-07-11T14:26:42Z</time>
      </trkpt>
      <trkpt lat="48.67842" lon="-3.53396">
        <ele>89.5</ele>
        <time>2019-07-11T14:26:43Z</time>
      </trkpt>
      <trkpt lat="48.67838" lon="-3.53399">
        <ele>89.5</ele>
        <time>2019-07-11T14:26:44Z</time>
      </trkpt>
      <trkpt lat="48.67834" lon="-3.53403">
        <ele>89.4</ele>
        <time>2019-07-11T14:26:45Z</time>
      </trkpt>
      <trkpt lat="48.6783" lon="-3.53406">
        <ele>89.1</ele>
        <time>2019-07-11T14:26:46Z</time>
      </trkpt>
      <trkpt lat="48.67825" lon="-3.5341">
        <ele>89.2</ele>
        <time>2019-07-11T14:26:47Z</time>
      </trkpt>
      <trkpt lat="48.67821" lon="-3.53414">
        <ele>89</ele>
        <time>2019-07-11T14:26:48Z</time>
      </trkpt>
      <trkpt lat="48.67817" lon="-3.53418">
        <ele>88.5</ele>
        <time>2019-07-11T14:26:49Z</time>
      </trkpt>
      <trkpt lat="48.67812" lon="-3.53422">
        <ele>88.2</ele>
        <time>2019-07-11T14:26:50Z</time>
      </trkpt>
      <trkpt lat="48.67809" lon="-3.53425">
        <ele>87.9</ele>
        <time>2019-07-11T14:26:51Z</time>
      </trkpt>
      <trkpt lat="48.67806" lon="-3.53429">
        <ele>87.7</ele>
        <time>2019-07-11T14:26:52Z</time>
      </trkpt>
      <trkpt lat="48.67801" lon="-3.53433">
        <ele>87.9</ele>
        <time>2019-07-11T14:26:53Z</time>
      </trkpt>
      <trkpt lat="48.67798" lon="-3.53438">
        <ele>88.2</ele>
        <time>2019-07-11T14:26:54Z</time>
      </trkpt>
      <trkpt lat="48.67793" lon="-3.53442">
        <ele>88.4</ele>
        <time>2019-07-11T14:26:55Z</time>
      </trkpt>
      <trkpt lat="48.67789" lon="-3.53447">
        <ele>88.4</ele>
        <time>2019-07-11T14:26:56Z</time>
      </trkpt>
      <trkpt lat="48.67785" lon="-3.53452">
        <ele>87.7</ele>
        <time>2019-07-11T14:26:57Z</time>
      </trkpt>
      <trkpt lat="48.6778" lon="-3.53457">
        <ele>87.1</ele>
        <time>2019-07-11T14:26:58Z</time>
      </trkpt>
      <trkpt lat="48.67777" lon="-3.53462">
        <ele>86.7</ele>
        <time>2019-07-11T14:26:59Z</time>
      </trkpt>
      <trkpt lat="48.67773" lon="-3.53467">
        <ele>86.6</ele>
        <time>2019-07-11T14:27:00Z</time>
      </trkpt>
      <trkpt lat="48.6777" lon="-3.53472">
        <ele>86.3</ele>
        <time>2019-07-11T14:27:01Z</time>
      </trkpt>
      <trkpt lat="48.67766" lon="-3.53476">
        <ele>85.8</ele>
        <time>2019-07-11T14:27:02Z</time>
      </trkpt>
      <trkpt lat="48.67763" lon="-3.53479">
        <ele>85.3</ele>
        <time>2019-07-11T14:27:03Z</time>
      </trkpt>
      <trkpt lat="48.6776" lon="-3.53482">
        <ele>85.2</ele>
        <time>2019-07-11T14:27:04Z</time>
      </trkpt>
      <trkpt lat="48.67757" lon="-3.53486">
        <ele>85.4</ele>
        <time>2019-07-11T14:27:05Z</time>
      </trkpt>
      <trkpt lat="48.67754" lon="-3.5349">
        <ele>85.7</ele>
        <time>2019-07-11T14:27:06Z</time>
      </trkpt>
      <trkpt lat="48.67751" lon="-3.53495">
        <ele>85.7</ele>
        <time>2019-07-11T14:27:07Z</time>
      </trkpt>
      <trkpt lat="48.67748" lon="-3.53501">
        <ele>85.2</ele>
        <time>2019-07-11T14:27:08Z</time>
      </trkpt>
      <trkpt lat="48.67744" lon="-3.53507">
        <ele>84.9</ele>
        <time>2019-07-11T14:27:09Z</time>
      </trkpt>
      <trkpt lat="48.67742" lon="-3.53512">
        <ele>84.7</ele>
        <time>2019-07-11T14:27:10Z</time>
      </trkpt>
      <trkpt lat="48.6774" lon="-3.53518">
        <ele>84.4</ele>
        <time>2019-07-11T14:27:11Z</time>
      </trkpt>
      <trkpt lat="48.67738" lon="-3.53525">
        <ele>83.9</ele>
        <time>2019-07-11T14:27:12Z</time>
      </trkpt>
      <trkpt lat="48.67736" lon="-3.53532">
        <ele>83.7</ele>
        <time>2019-07-11T14:27:13Z</time>
      </trkpt>
      <trkpt lat="48.67733" lon="-3.53538">
        <ele>83.5</ele>
        <time>2019-07-11T14:27:14Z</time>
      </trkpt>
      <trkpt lat="48.67731" lon="-3.53545">
        <ele>83.4</ele>
        <time>2019-07-11T14:27:15Z</time>
      </trkpt>
      <trkpt lat="48.67729" lon="-3.53553">
        <ele>83.3</ele>
        <time>2019-07-11T14:27:16Z</time>
      </trkpt>
      <trkpt lat="48.67727" lon="-3.53561">
        <ele>82.7</ele>
        <time>2019-07-11T14:27:17Z</time>
      </trkpt>
      <trkpt lat="48.67724" lon="-3.53569">
        <ele>82.4</ele>
        <time>2019-07-11T14:27:18Z</time>
      </trkpt>
      <trkpt lat="48.67723" lon="-3.53577">
        <ele>82</ele>
        <time>2019-07-11T14:27:19Z</time>
      </trkpt>
      <trkpt lat="48.67721" lon="-3.53584">
        <ele>82.5</ele>
        <time>2019-07-11T14:27:20Z</time>
      </trkpt>
      <trkpt lat="48.6772" lon="-3.53592">
        <ele>82.4</ele>
        <time>2019-07-11T14:27:21Z</time>
      </trkpt>
      <trkpt lat="48.67719" lon="-3.53601">
        <ele>82.2</ele>
        <time>2019-07-11T14:27:22Z</time>
      </trkpt>
      <trkpt lat="48.67717" lon="-3.53609">
        <ele>82.2</ele>
        <time>2019-07-11T14:27:23Z</time>
      </trkpt>
      <trkpt lat="48.67717" lon="-3.53617">
        <ele>81.8</ele>
        <time>2019-07-11T14:27:24Z</time>
      </trkpt>
      <trkpt lat="48.67716" lon="-3.53626">
        <ele>81.7</ele>
        <time>2019-07-11T14:27:25Z</time>
      </trkpt>
      <trkpt lat="48.67716" lon="-3.53634">
        <ele>81.4</ele>
        <time>2019-07-11T14:27:26Z</time>
      </trkpt>
      <trkpt lat="48.67715" lon="-3.53642">
        <ele>81.1</ele>
        <time>2019-07-11T14:27:27Z</time>
      </trkpt>
      <trkpt lat="48.67715" lon="-3.5365">
        <ele>80.9</ele>
        <time>2019-07-11T14:27:28Z</time>
      </trkpt>
      <trkpt lat="48.67714" lon="-3.53658">
        <ele>80.7</ele>
        <time>2019-07-11T14:27:29Z</time>
      </trkpt>
      <trkpt lat="48.67714" lon="-3.53666">
        <ele>80.5</ele>
        <time>2019-07-11T14:27:30Z</time>
      </trkpt>
      <trkpt lat="48.67714" lon="-3.53675">
        <ele>80.2</ele>
        <time>2019-07-11T14:27:31Z</time>
      </trkpt>
      <trkpt lat="48.67716" lon="-3.53685">
        <ele>80</ele>
        <time>2019-07-11T14:27:32Z</time>
      </trkpt>
      <trkpt lat="48.67716" lon="-3.53694">
        <ele>79.8</ele>
        <time>2019-07-11T14:27:33Z</time>
      </trkpt>
      <trkpt lat="48.67715" lon="-3.53702">
        <ele>79.4</ele>
        <time>2019-07-11T14:27:34Z</time>
      </trkpt>
      <trkpt lat="48.67715" lon="-3.53711">
        <ele>79</ele>
        <time>2019-07-11T14:27:35Z</time>
      </trkpt>
      <trkpt lat="48.67715" lon="-3.53719">
        <ele>79.1</ele>
        <time>2019-07-11T14:27:36Z</time>
      </trkpt>
      <trkpt lat="48.67715" lon="-3.53727">
        <ele>79.1</ele>
        <time>2019-07-11T14:27:37Z</time>
      </trkpt>
      <trkpt lat="48.67716" lon="-3.53736">
        <ele>79.4</ele>
        <time>2019-07-11T14:27:38Z</time>
      </trkpt>
      <trkpt lat="48.67716" lon="-3.53746">
        <ele>79.3</ele>
        <time>2019-07-11T14:27:39Z</time>
      </trkpt>
      <trkpt lat="48.67716" lon="-3.53755">
        <ele>79.2</ele>
        <time>2019-07-11T14:27:40Z</time>
      </trkpt>
      <trkpt lat="48.67716" lon="-3.53764">
        <ele>79</ele>
        <time>2019-07-11T14:27:41Z</time>
      </trkpt>
      <trkpt lat="48.67716" lon="-3.53773">
        <ele>79.1</ele>
        <time>2019-07-11T14:27:42Z</time>
      </trkpt>
      <trkpt lat="48.67716" lon="-3.53782">
        <ele>78.9</ele>
        <time>2019-07-11T14:27:43Z</time>
      </trkpt>
      <trkpt lat="48.67716" lon="-3.5379">
        <ele>78.9</ele>
        <time>2019-07-11T14:27:44Z</time>
      </trkpt>
      <trkpt lat="48.67716" lon="-3.53798">
        <ele>78.8</ele>
        <time>2019-07-11T14:27:45Z</time>
      </trkpt>
      <trkpt lat="48.67717" lon="-3.53806">
        <ele>78.7</ele>
        <time>2019-07-11T14:27:46Z</time>
      </trkpt>
      <trkpt lat="48.67718" lon="-3.53815">
        <ele>78.9</ele>
        <time>2019-07-11T14:27:47Z</time>
      </trkpt>
      <trkpt lat="48.67719" lon="-3.53823">
        <ele>78.9</ele>
        <time>2019-07-11T14:27:48Z</time>
      </trkpt>
      <trkpt lat="48.67719" lon="-3.53832">
        <ele>79</ele>
        <time>2019-07-11T14:27:49Z</time>
      </trkpt>
      <trkpt lat="48.67719" lon="-3.53839">
        <ele>79</ele>
        <time>2019-07-11T14:27:50Z</time>
      </trkpt>
      <trkpt lat="48.67719" lon="-3.53847">
        <ele>78.7</ele>
        <time>2019-07-11T14:27:51Z</time>
      </trkpt>
      <trkpt lat="48.67719" lon="-3.53854">
        <ele>78.5</ele>
        <time>2019-07-11T14:27:52Z</time>
      </trkpt>
      <trkpt lat="48.67718" lon="-3.5386">
        <ele>78.8</ele>
        <time>2019-07-11T14:27:53Z</time>
      </trkpt>
      <trkpt lat="48.67719" lon="-3.53867">
        <ele>78.9</ele>
        <time>2019-07-11T14:27:54Z</time>
      </trkpt>
      <trkpt lat="48.67719" lon="-3.53873">
        <ele>78.9</ele>
        <time>2019-07-11T14:27:55Z</time>
      </trkpt>
      <trkpt lat="48.67718" lon="-3.53879">
        <ele>78.4</ele>
        <time>2019-07-11T14:27:56Z</time>
      </trkpt>
      <trkpt lat="48.67718" lon="-3.53886">
        <ele>78.2</ele>
        <time>2019-07-11T14:27:57Z</time>
      </trkpt>
      <trkpt lat="48.67718" lon="-3.53892">
        <ele>78.3</ele>
        <time>2019-07-11T14:27:58Z</time>
      </trkpt>
      <trkpt lat="48.67718" lon="-3.53898">
        <ele>78.1</ele>
        <time>2019-07-11T14:27:59Z</time>
      </trkpt>
      <trkpt lat="48.67718" lon="-3.53904">
        <ele>78.3</ele>
        <time>2019-07-11T14:28:00Z</time>
      </trkpt>
      <trkpt lat="48.67718" lon="-3.5391">
        <ele>78.4</ele>
        <time>2019-07-11T14:28:01Z</time>
      </trkpt>
      <trkpt lat="48.67718" lon="-3.53915">
        <ele>78.3</ele>
        <time>2019-07-11T14:28:02Z</time>
      </trkpt>
      <trkpt lat="48.67718" lon="-3.53921">
        <ele>78.4</ele>
        <time>2019-07-11T14:28:03Z</time>
      </trkpt>
      <trkpt lat="48.67719" lon="-3.53927">
        <ele>78.5</ele>
        <time>2019-07-11T14:28:04Z</time>
      </trkpt>
      <trkpt lat="48.67719" lon="-3.53934">
        <ele>78.8</ele>
        <time>2019-07-11T14:28:05Z</time>
      </trkpt>
      <trkpt lat="48.67719" lon="-3.53939">
        <ele>79.1</ele>
        <time>2019-07-11T14:28:06Z</time>
      </trkpt>
      <trkpt lat="48.67719" lon="-3.53945">
        <ele>79.1</ele>
        <time>2019-07-11T14:28:07Z</time>
      </trkpt>
      <trkpt lat="48.67718" lon="-3.53951">
        <ele>79.7</ele>
        <time>2019-07-11T14:28:08Z</time>
      </trkpt>
      <trkpt lat="48.67717" lon="-3.53957">
        <ele>80.1</ele>
        <time>2019-07-11T14:28:09Z</time>
      </trkpt>
      <trkpt lat="48.67717" lon="-3.53963">
        <ele>80</ele>
        <time>2019-07-11T14:28:10Z</time>
      </trkpt>
      <trkpt lat="48.67717" lon="-3.53969">
        <ele>80.2</ele>
        <time>2019-07-11T14:28:11Z</time>
      </trkpt>
      <trkpt lat="48.67717" lon="-3.53975">
        <ele>80.1</ele>
        <time>2019-07-11T14:28:12Z</time>
      </trkpt>
      <trkpt lat="48.67718" lon="-3.53981">
        <ele>80.1</ele>
        <time>2019-07-11T14:28:13Z</time>
      </trkpt>
      <trkpt lat="48.67718" lon="-3.53986">
        <ele>80.3</ele>
        <time>2019-07-11T14:28:14Z</time>
      </trkpt>
      <trkpt lat="48.67718" lon="-3.53992">
        <ele>80.3</ele>
        <time>2019-07-11T14:28:15Z</time>
      </trkpt>
      <trkpt lat="48.67718" lon="-3.53998">
        <ele>80.2</ele>
        <time>2019-07-11T14:28:16Z</time>
      </trkpt>
      <trkpt lat="48.67718" lon="-3.54004">
        <ele>80.2</ele>
        <time>2019-07-11T14:28:17Z</time>
      </trkpt>
      <trkpt lat="48.67719" lon="-3.5401">
        <ele>79.7</ele>
        <time>2019-07-11T14:28:18Z</time>
      </trkpt>
      <trkpt lat="48.67719" lon="-3.54016">
        <ele>79.6</ele>
        <time>2019-07-11T14:28:19Z</time>
      </trkpt>
      <trkpt lat="48.67718" lon="-3.54023">
        <ele>79.1</ele>
        <time>2019-07-11T14:28:20Z</time>
      </trkpt>
      <trkpt lat="48.67719" lon="-3.54029">
        <ele>79</ele>
        <time>2019-07-11T14:28:21Z</time>
      </trkpt>
      <trkpt lat="48.67719" lon="-3.54035">
        <ele>78.9</ele>
        <time>2019-07-11T14:28:22Z</time>
      </trkpt>
      <trkpt lat="48.67719" lon="-3.54041">
        <ele>78.4</ele>
        <time>2019-07-11T14:28:23Z</time>
      </trkpt>
      <trkpt lat="48.67719" lon="-3.54047">
        <ele>77.7</ele>
        <time>2019-07-11T14:28:24Z</time>
      </trkpt>
      <trkpt lat="48.67719" lon="-3.54054">
        <ele>77</ele>
        <time>2019-07-11T14:28:25Z</time>
      </trkpt>
      <trkpt lat="48.67719" lon="-3.5406">
        <ele>76.5</ele>
        <time>2019-07-11T14:28:26Z</time>
      </trkpt>
      <trkpt lat="48.67719" lon="-3.54066">
        <ele>75.8</ele>
        <time>2019-07-11T14:28:27Z</time>
      </trkpt>
      <trkpt lat="48.67719" lon="-3.54073">
        <ele>75.4</ele>
        <time>2019-07-11T14:28:28Z</time>
      </trkpt>
      <trkpt lat="48.67719" lon="-3.54079">
        <ele>74.7</ele>
        <time>2019-07-11T14:28:29Z</time>
      </trkpt>
      <trkpt lat="48.67719" lon="-3.54086">
        <ele>74.3</ele>
        <time>2019-07-11T14:28:30Z</time>
      </trkpt>
      <trkpt lat="48.67719" lon="-3.54093">
        <ele>73.9</ele>
        <time>2019-07-11T14:28:31Z</time>
      </trkpt>
      <trkpt lat="48.67719" lon="-3.541">
        <ele>73.2</ele>
        <time>2019-07-11T14:28:32Z</time>
      </trkpt>
      <trkpt lat="48.67719" lon="-3.54107">
        <ele>72.1</ele>
        <time>2019-07-11T14:28:33Z</time>
      </trkpt>
      <trkpt lat="48.67719" lon="-3.54114">
        <ele>71.3</ele>
        <time>2019-07-11T14:28:34Z</time>
      </trkpt>
      <trkpt lat="48.67719" lon="-3.54121">
        <ele>70.1</ele>
        <time>2019-07-11T14:28:35Z</time>
      </trkpt>
      <trkpt lat="48.67718" lon="-3.54127">
        <ele>69.3</ele>
        <time>2019-07-11T14:28:36Z</time>
      </trkpt>
      <trkpt lat="48.67717" lon="-3.54134">
        <ele>69.1</ele>
        <time>2019-07-11T14:28:37Z</time>
      </trkpt>
      <trkpt lat="48.67717" lon="-3.5414">
        <ele>68.7</ele>
        <time>2019-07-11T14:28:38Z</time>
      </trkpt>
      <trkpt lat="48.67718" lon="-3.54146">
        <ele>68.4</ele>
        <time>2019-07-11T14:28:39Z</time>
      </trkpt>
      <trkpt lat="48.67719" lon="-3.54151">
        <ele>68.6</ele>
        <time>2019-07-11T14:28:40Z</time>
      </trkpt>
      <trkpt lat="48.67719" lon="-3.54156">
        <ele>68.8</ele>
        <time>2019-07-11T14:28:41Z</time>
      </trkpt>
      <trkpt lat="48.67719" lon="-3.54162">
        <ele>69.3</ele>
        <time>2019-07-11T14:28:42Z</time>
      </trkpt>
      <trkpt lat="48.67719" lon="-3.54168">
        <ele>69.7</ele>
        <time>2019-07-11T14:28:43Z</time>
      </trkpt>
      <trkpt lat="48.67719" lon="-3.54174">
        <ele>70</ele>
        <time>2019-07-11T14:28:44Z</time>
      </trkpt>
      <trkpt lat="48.67719" lon="-3.5418">
        <ele>70.4</ele>
        <time>2019-07-11T14:28:45Z</time>
      </trkpt>
      <trkpt lat="48.67719" lon="-3.54187">
        <ele>71</ele>
        <time>2019-07-11T14:28:46Z</time>
      </trkpt>
      <trkpt lat="48.67719" lon="-3.54194">
        <ele>71.6</ele>
        <time>2019-07-11T14:28:47Z</time>
      </trkpt>
      <trkpt lat="48.67719" lon="-3.54202">
        <ele>72</ele>
        <time>2019-07-11T14:28:48Z</time>
      </trkpt>
      <trkpt lat="48.67719" lon="-3.54209">
        <ele>72.2</ele>
        <time>2019-07-11T14:28:49Z</time>
      </trkpt>
      <trkpt lat="48.67719" lon="-3.54216">
        <ele>72</ele>
        <time>2019-07-11T14:28:50Z</time>
      </trkpt>
      <trkpt lat="48.67719" lon="-3.54224">
        <ele>71.7</ele>
        <time>2019-07-11T14:28:51Z</time>
      </trkpt>
      <trkpt lat="48.67719" lon="-3.54231">
        <ele>71.5</ele>
        <time>2019-07-11T14:28:52Z</time>
      </trkpt>
      <trkpt lat="48.67719" lon="-3.54239">
        <ele>71.2</ele>
        <time>2019-07-11T14:28:53Z</time>
      </trkpt>
      <trkpt lat="48.6772" lon="-3.54247">
        <ele>70.7</ele>
        <time>2019-07-11T14:28:54Z</time>
      </trkpt>
      <trkpt lat="48.67719" lon="-3.54256">
        <ele>70</ele>
        <time>2019-07-11T14:28:55Z</time>
      </trkpt>
      <trkpt lat="48.67719" lon="-3.54266">
        <ele>69.7</ele>
        <time>2019-07-11T14:28:56Z</time>
      </trkpt>
      <trkpt lat="48.67719" lon="-3.54275">
        <ele>69.4</ele>
        <time>2019-07-11T14:28:57Z</time>
      </trkpt>
      <trkpt lat="48.67719" lon="-3.54284">
        <ele>69</ele>
        <time>2019-07-11T14:28:58Z</time>
      </trkpt>
      <trkpt lat="48.67719" lon="-3.54291">
        <ele>69</ele>
        <time>2019-07-11T14:28:59Z</time>
      </trkpt>
      <trkpt lat="48.67719" lon="-3.543">
        <ele>68.8</ele>
        <time>2019-07-11T14:29:00Z</time>
      </trkpt>
      <trkpt lat="48.67719" lon="-3.54308">
        <ele>69</ele>
        <time>2019-07-11T14:29:01Z</time>
      </trkpt>
      <trkpt lat="48.67719" lon="-3.54316">
        <ele>69.1</ele>
        <time>2019-07-11T14:29:02Z</time>
      </trkpt>
      <trkpt lat="48.67718" lon="-3.54324">
        <ele>68.7</ele>
        <time>2019-07-11T14:29:03Z</time>
      </trkpt>
      <trkpt lat="48.67718" lon="-3.54333">
        <ele>68.8</ele>
        <time>2019-07-11T14:29:04Z</time>
      </trkpt>
      <trkpt lat="48.67718" lon="-3.54341">
        <ele>69</ele>
        <time>2019-07-11T14:29:05Z</time>
      </trkpt>
      <trkpt lat="48.67717" lon="-3.54349">
        <ele>69.2</ele>
        <time>2019-07-11T14:29:06Z</time>
      </trkpt>
      <trkpt lat="48.67717" lon="-3.54356">
        <ele>69.2</ele>
        <time>2019-07-11T14:29:07Z</time>
      </trkpt>
      <trkpt lat="48.67717" lon="-3.54364">
        <ele>69.1</ele>
        <time>2019-07-11T14:29:08Z</time>
      </trkpt>
      <trkpt lat="48.67717" lon="-3.54372">
        <ele>69</ele>
        <time>2019-07-11T14:29:09Z</time>
      </trkpt>
      <trkpt lat="48.67717" lon="-3.5438">
        <ele>68.6</ele>
        <time>2019-07-11T14:29:10Z</time>
      </trkpt>
      <trkpt lat="48.67717" lon="-3.54388">
        <ele>68.4</ele>
        <time>2019-07-11T14:29:11Z</time>
      </trkpt>
      <trkpt lat="48.67716" lon="-3.54396">
        <ele>68</ele>
        <time>2019-07-11T14:29:12Z</time>
      </trkpt>
      <trkpt lat="48.67717" lon="-3.54404">
        <ele>67.7</ele>
        <time>2019-07-11T14:29:13Z</time>
      </trkpt>
      <trkpt lat="48.67717" lon="-3.54412">
        <ele>67.4</ele>
        <time>2019-07-11T14:29:14Z</time>
      </trkpt>
      <trkpt lat="48.67719" lon="-3.54421">
        <ele>66.9</ele>
        <time>2019-07-11T14:29:15Z</time>
      </trkpt>
      <trkpt lat="48.6772" lon="-3.54429">
        <ele>66.5</ele>
        <time>2019-07-11T14:29:16Z</time>
      </trkpt>
      <trkpt lat="48.6772" lon="-3.54437">
        <ele>66</ele>
        <time>2019-07-11T14:29:17Z</time>
      </trkpt>
      <trkpt lat="48.67722" lon="-3.54445">
        <ele>65.3</ele>
        <time>2019-07-11T14:29:18Z</time>
      </trkpt>
      <trkpt lat="48.67724" lon="-3.54453">
        <ele>64.7</ele>
        <time>2019-07-11T14:29:19Z</time>
      </trkpt>
      <trkpt lat="48.67727" lon="-3.5446">
        <ele>64.6</ele>
        <time>2019-07-11T14:29:20Z</time>
      </trkpt>
      <trkpt lat="48.67731" lon="-3.54467">
        <ele>64.6</ele>
        <time>2019-07-11T14:29:21Z</time>
      </trkpt>
      <trkpt lat="48.67735" lon="-3.54473">
        <ele>64.7</ele>
        <time>2019-07-11T14:29:22Z</time>
      </trkpt>
      <trkpt lat="48.67738" lon="-3.5448">
        <ele>65.1</ele>
        <time>2019-07-11T14:29:23Z</time>
      </trkpt>
      <trkpt lat="48.67743" lon="-3.54485">
        <ele>65.5</ele>
        <time>2019-07-11T14:29:24Z</time>
      </trkpt>
      <trkpt lat="48.67747" lon="-3.54489">
        <ele>65.6</ele>
        <time>2019-07-11T14:29:25Z</time>
      </trkpt>
      <trkpt lat="48.67751" lon="-3.54493">
        <ele>66.1</ele>
        <time>2019-07-11T14:29:26Z</time>
      </trkpt>
      <trkpt lat="48.67755" lon="-3.54496">
        <ele>66.7</ele>
        <time>2019-07-11T14:29:27Z</time>
      </trkpt>
      <trkpt lat="48.67758" lon="-3.54498">
        <ele>67</ele>
        <time>2019-07-11T14:29:28Z</time>
      </trkpt>
      <trkpt lat="48.67761" lon="-3.54499">
        <ele>67.5</ele>
        <time>2019-07-11T14:29:29Z</time>
      </trkpt>
      <trkpt lat="48.67762" lon="-3.545">
        <ele>68.1</ele>
        <time>2019-07-11T14:29:30Z</time>
      </trkpt>
      <trkpt lat="48.67764" lon="-3.545">
        <ele>69.1</ele>
        <time>2019-07-11T14:29:31Z</time>
      </trkpt>
      <trkpt lat="48.67765" lon="-3.54501">
        <ele>69.1</ele>
        <time>2019-07-11T14:29:32Z</time>
      </trkpt>
      <trkpt lat="48.67767" lon="-3.54502">
        <ele>69.8</ele>
        <time>2019-07-11T14:29:33Z</time>
      </trkpt>
      <trkpt lat="48.67769" lon="-3.54503">
        <ele>70.5</ele>
        <time>2019-07-11T14:29:34Z</time>
      </trkpt>
      <trkpt lat="48.6777" lon="-3.54505">
        <ele>71.8</ele>
        <time>2019-07-11T14:29:35Z</time>
      </trkpt>
      <trkpt lat="48.67773" lon="-3.54507">
        <ele>73.1</ele>
        <time>2019-07-11T14:29:36Z</time>
      </trkpt>
      <trkpt lat="48.67775" lon="-3.54509">
        <ele>74.1</ele>
        <time>2019-07-11T14:29:37Z</time>
      </trkpt>
      <trkpt lat="48.6778" lon="-3.54511">
        <ele>74.9</ele>
        <time>2019-07-11T14:29:38Z</time>
      </trkpt>
      <trkpt lat="48.67784" lon="-3.54512">
        <ele>75.6</ele>
        <time>2019-07-11T14:29:39Z</time>
      </trkpt>
      <trkpt lat="48.67788" lon="-3.54513">
        <ele>76.3</ele>
        <time>2019-07-11T14:29:40Z</time>
      </trkpt>
      <trkpt lat="48.67792" lon="-3.54515">
        <ele>76.9</ele>
        <time>2019-07-11T14:29:41Z</time>
      </trkpt>
      <trkpt lat="48.67796" lon="-3.54518">
        <ele>77.8</ele>
        <time>2019-07-11T14:29:42Z</time>
      </trkpt>
      <trkpt lat="48.67801" lon="-3.5452">
        <ele>78.6</ele>
        <time>2019-07-11T14:29:43Z</time>
      </trkpt>
      <trkpt lat="48.67803" lon="-3.54521">
        <ele>79.3</ele>
        <time>2019-07-11T14:29:44Z</time>
      </trkpt>
      <trkpt lat="48.67807" lon="-3.54521">
        <ele>80</ele>
        <time>2019-07-11T14:29:45Z</time>
      </trkpt>
      <trkpt lat="48.6781" lon="-3.54522">
        <ele>80.7</ele>
        <time>2019-07-11T14:29:46Z</time>
      </trkpt>
      <trkpt lat="48.67813" lon="-3.54522">
        <ele>81.5</ele>
        <time>2019-07-11T14:29:47Z</time>
      </trkpt>
      <trkpt lat="48.67817" lon="-3.54522">
        <ele>82.2</ele>
        <time>2019-07-11T14:29:48Z</time>
      </trkpt>
      <trkpt lat="48.67819" lon="-3.54521">
        <ele>82.9</ele>
        <time>2019-07-11T14:29:49Z</time>
      </trkpt>
      <trkpt lat="48.67822" lon="-3.5452">
        <ele>83.5</ele>
        <time>2019-07-11T14:29:50Z</time>
      </trkpt>
      <trkpt lat="48.67824" lon="-3.54518">
        <ele>83.9</ele>
        <time>2019-07-11T14:29:51Z</time>
      </trkpt>
      <trkpt lat="48.67828" lon="-3.54517">
        <ele>84.4</ele>
        <time>2019-07-11T14:29:52Z</time>
      </trkpt>
      <trkpt lat="48.67833" lon="-3.54515">
        <ele>84.9</ele>
        <time>2019-07-11T14:29:53Z</time>
      </trkpt>
      <trkpt lat="48.67839" lon="-3.54512">
        <ele>84.7</ele>
        <time>2019-07-11T14:29:54Z</time>
      </trkpt>
      <trkpt lat="48.67844" lon="-3.54509">
        <ele>84.1</ele>
        <time>2019-07-11T14:29:55Z</time>
      </trkpt>
      <trkpt lat="48.67851" lon="-3.54504">
        <ele>83.7</ele>
        <time>2019-07-11T14:29:56Z</time>
      </trkpt>
      <trkpt lat="48.67859" lon="-3.54499">
        <ele>82.8</ele>
        <time>2019-07-11T14:29:57Z</time>
      </trkpt>
      <trkpt lat="48.67862" lon="-3.54495">
        <ele>82.9</ele>
        <time>2019-07-11T14:29:58Z</time>
      </trkpt>
      <trkpt lat="48.67867" lon="-3.54489">
        <ele>82.9</ele>
        <time>2019-07-11T14:29:59Z</time>
      </trkpt>
      <trkpt lat="48.67872" lon="-3.54482">
        <ele>82.5</ele>
        <time>2019-07-11T14:30:00Z</time>
      </trkpt>
      <trkpt lat="48.67876" lon="-3.54476">
        <ele>81.5</ele>
        <time>2019-07-11T14:30:01Z</time>
      </trkpt>
      <trkpt lat="48.67882" lon="-3.54469">
        <ele>81.2</ele>
        <time>2019-07-11T14:30:02Z</time>
      </trkpt>
      <trkpt lat="48.67888" lon="-3.54463">
        <ele>80.4</ele>
        <time>2019-07-11T14:30:03Z</time>
      </trkpt>
      <trkpt lat="48.67892" lon="-3.54458">
        <ele>78.6</ele>
        <time>2019-07-11T14:30:04Z</time>
      </trkpt>
      <trkpt lat="48.67898" lon="-3.54452">
        <ele>76.3</ele>
        <time>2019-07-11T14:30:05Z</time>
      </trkpt>
      <trkpt lat="48.67903" lon="-3.54445">
        <ele>74.5</ele>
        <time>2019-07-11T14:30:06Z</time>
      </trkpt>
      <trkpt lat="48.67907" lon="-3.5444">
        <ele>73</ele>
        <time>2019-07-11T14:30:07Z</time>
      </trkpt>
      <trkpt lat="48.6791" lon="-3.54435">
        <ele>71.6</ele>
        <time>2019-07-11T14:30:08Z</time>
      </trkpt>
      <trkpt lat="48.67914" lon="-3.54432">
        <ele>70.5</ele>
        <time>2019-07-11T14:30:09Z</time>
      </trkpt>
      <trkpt lat="48.67917" lon="-3.54429">
        <ele>69.8</ele>
        <time>2019-07-11T14:30:10Z</time>
      </trkpt>
      <trkpt lat="48.67921" lon="-3.54426">
        <ele>68.8</ele>
        <time>2019-07-11T14:30:11Z</time>
      </trkpt>
      <trkpt lat="48.67923" lon="-3.54423">
        <ele>67.9</ele>
        <time>2019-07-11T14:30:12Z</time>
      </trkpt>
      <trkpt lat="48.67927" lon="-3.5442">
        <ele>67</ele>
        <time>2019-07-11T14:30:13Z</time>
      </trkpt>
      <trkpt lat="48.67931" lon="-3.54417">
        <ele>65.9</ele>
        <time>2019-07-11T14:30:14Z</time>
      </trkpt>
      <trkpt lat="48.67934" lon="-3.54415">
        <ele>65.1</ele>
        <time>2019-07-11T14:30:15Z</time>
      </trkpt>
      <trkpt lat="48.67938" lon="-3.54413">
        <ele>64.2</ele>
        <time>2019-07-11T14:30:16Z</time>
      </trkpt>
      <trkpt lat="48.67942" lon="-3.5441">
        <ele>63.3</ele>
        <time>2019-07-11T14:30:17Z</time>
      </trkpt>
      <trkpt lat="48.67947" lon="-3.54405">
        <ele>61.8</ele>
        <time>2019-07-11T14:30:18Z</time>
      </trkpt>
      <trkpt lat="48.67952" lon="-3.54403">
        <ele>62.4</ele>
        <time>2019-07-11T14:30:19Z</time>
      </trkpt>
      <trkpt lat="48.67956" lon="-3.544">
        <ele>61.9</ele>
        <time>2019-07-11T14:30:20Z</time>
      </trkpt>
      <trkpt lat="48.6796" lon="-3.54397">
        <ele>61.4</ele>
        <time>2019-07-11T14:30:21Z</time>
      </trkpt>
      <trkpt lat="48.67964" lon="-3.54395">
        <ele>61.4</ele>
        <time>2019-07-11T14:30:22Z</time>
      </trkpt>
      <trkpt lat="48.67968" lon="-3.54393">
        <ele>61.2</ele>
        <time>2019-07-11T14:30:23Z</time>
      </trkpt>
      <trkpt lat="48.67972" lon="-3.54391">
        <ele>61</ele>
        <time>2019-07-11T14:30:24Z</time>
      </trkpt>
      <trkpt lat="48.67976" lon="-3.5439">
        <ele>60.5</ele>
        <time>2019-07-11T14:30:25Z</time>
      </trkpt>
      <trkpt lat="48.67981" lon="-3.5439">
        <ele>60.5</ele>
        <time>2019-07-11T14:30:26Z</time>
      </trkpt>
      <trkpt lat="48.67985" lon="-3.5439">
        <ele>60.5</ele>
        <time>2019-07-11T14:30:27Z</time>
      </trkpt>
      <trkpt lat="48.67989" lon="-3.54391">
        <ele>60.6</ele>
        <time>2019-07-11T14:30:28Z</time>
      </trkpt>
      <trkpt lat="48.67995" lon="-3.54392">
        <ele>61.3</ele>
        <time>2019-07-11T14:30:29Z</time>
      </trkpt>
      <trkpt lat="48.67999" lon="-3.54394">
        <ele>61.8</ele>
        <time>2019-07-11T14:30:30Z</time>
      </trkpt>
      <trkpt lat="48.68004" lon="-3.54396">
        <ele>61.8</ele>
        <time>2019-07-11T14:30:31Z</time>
      </trkpt>
      <trkpt lat="48.68007" lon="-3.54398">
        <ele>62</ele>
        <time>2019-07-11T14:30:32Z</time>
      </trkpt>
      <trkpt lat="48.6801" lon="-3.54401">
        <ele>62.4</ele>
        <time>2019-07-11T14:30:33Z</time>
      </trkpt>
      <trkpt lat="48.68014" lon="-3.54403">
        <ele>62.9</ele>
        <time>2019-07-11T14:30:34Z</time>
      </trkpt>
      <trkpt lat="48.68018" lon="-3.54406">
        <ele>63.4</ele>
        <time>2019-07-11T14:30:35Z</time>
      </trkpt>
      <trkpt lat="48.68022" lon="-3.54409">
        <ele>63.8</ele>
        <time>2019-07-11T14:30:36Z</time>
      </trkpt>
      <trkpt lat="48.68027" lon="-3.54412">
        <ele>64.4</ele>
        <time>2019-07-11T14:30:37Z</time>
      </trkpt>
      <trkpt lat="48.68031" lon="-3.54415">
        <ele>64.7</ele>
        <time>2019-07-11T14:30:38Z</time>
      </trkpt>
      <trkpt lat="48.68036" lon="-3.54419">
        <ele>64.8</ele>
        <time>2019-07-11T14:30:39Z</time>
      </trkpt>
      <trkpt lat="48.68039" lon="-3.54422">
        <ele>65</ele>
        <time>2019-07-11T14:30:40Z</time>
      </trkpt>
      <trkpt lat="48.68042" lon="-3.54427">
        <ele>64.9</ele>
        <time>2019-07-11T14:30:41Z</time>
      </trkpt>
      <trkpt lat="48.68046" lon="-3.54431">
        <ele>64.8</ele>
        <time>2019-07-11T14:30:42Z</time>
      </trkpt>
      <trkpt lat="48.68049" lon="-3.54435">
        <ele>64.6</ele>
        <time>2019-07-11T14:30:43Z</time>
      </trkpt>
      <trkpt lat="48.68053" lon="-3.54439">
        <ele>64.6</ele>
        <time>2019-07-11T14:30:44Z</time>
      </trkpt>
      <trkpt lat="48.68056" lon="-3.54442">
        <ele>64.4</ele>
        <time>2019-07-11T14:30:45Z</time>
      </trkpt>
      <trkpt lat="48.6806" lon="-3.54446">
        <ele>64.2</ele>
        <time>2019-07-11T14:30:46Z</time>
      </trkpt>
      <trkpt lat="48.68066" lon="-3.5445">
        <ele>63.2</ele>
        <time>2019-07-11T14:30:47Z</time>
      </trkpt>
      <trkpt lat="48.68071" lon="-3.54455">
        <ele>62.5</ele>
        <time>2019-07-11T14:30:48Z</time>
      </trkpt>
      <trkpt lat="48.68078" lon="-3.54458">
        <ele>60.9</ele>
        <time>2019-07-11T14:30:49Z</time>
      </trkpt>
      <trkpt lat="48.68083" lon="-3.54461">
        <ele>60.2</ele>
        <time>2019-07-11T14:30:50Z</time>
      </trkpt>
      <trkpt lat="48.68087" lon="-3.54464">
        <ele>59.4</ele>
        <time>2019-07-11T14:30:51Z</time>
      </trkpt>
      <trkpt lat="48.68092" lon="-3.54468">
        <ele>59.1</ele>
        <time>2019-07-11T14:30:52Z</time>
      </trkpt>
      <trkpt lat="48.68095" lon="-3.54472">
        <ele>59</ele>
        <time>2019-07-11T14:30:53Z</time>
      </trkpt>
      <trkpt lat="48.68099" lon="-3.54477">
        <ele>59</ele>
        <time>2019-07-11T14:30:54Z</time>
      </trkpt>
      <trkpt lat="48.68103" lon="-3.54482">
        <ele>59.1</ele>
        <time>2019-07-11T14:30:55Z</time>
      </trkpt>
      <trkpt lat="48.68107" lon="-3.54487">
        <ele>59</ele>
        <time>2019-07-11T14:30:56Z</time>
      </trkpt>
      <trkpt lat="48.68111" lon="-3.54492">
        <ele>59.5</ele>
        <time>2019-07-11T14:30:57Z</time>
      </trkpt>
      <trkpt lat="48.68115" lon="-3.54497">
        <ele>59.7</ele>
        <time>2019-07-11T14:30:58Z</time>
      </trkpt>
      <trkpt lat="48.68118" lon="-3.54502">
        <ele>59.9</ele>
        <time>2019-07-11T14:30:59Z</time>
      </trkpt>
      <trkpt lat="48.68122" lon="-3.54508">
        <ele>60.2</ele>
        <time>2019-07-11T14:31:00Z</time>
      </trkpt>
      <trkpt lat="48.68125" lon="-3.54513">
        <ele>60.2</ele>
        <time>2019-07-11T14:31:01Z</time>
      </trkpt>
      <trkpt lat="48.68127" lon="-3.5452">
        <ele>60.5</ele>
        <time>2019-07-11T14:31:02Z</time>
      </trkpt>
      <trkpt lat="48.68131" lon="-3.54526">
        <ele>60.7</ele>
        <time>2019-07-11T14:31:03Z</time>
      </trkpt>
      <trkpt lat="48.68136" lon="-3.54531">
        <ele>61.2</ele>
        <time>2019-07-11T14:31:04Z</time>
      </trkpt>
      <trkpt lat="48.68139" lon="-3.54537">
        <ele>61.7</ele>
        <time>2019-07-11T14:31:05Z</time>
      </trkpt>
      <trkpt lat="48.68143" lon="-3.54542">
        <ele>61.8</ele>
        <time>2019-07-11T14:31:06Z</time>
      </trkpt>
      <trkpt lat="48.68147" lon="-3.54546">
        <ele>62</ele>
        <time>2019-07-11T14:31:07Z</time>
      </trkpt>
      <trkpt lat="48.68154" lon="-3.54552">
        <ele>62.4</ele>
        <time>2019-07-11T14:31:08Z</time>
      </trkpt>
      <trkpt lat="48.6816" lon="-3.54558">
        <ele>62.5</ele>
        <time>2019-07-11T14:31:09Z</time>
      </trkpt>
      <trkpt lat="48.68166" lon="-3.54564">
        <ele>62.6</ele>
        <time>2019-07-11T14:31:10Z</time>
      </trkpt>
      <trkpt lat="48.68173" lon="-3.54569">
        <ele>63.2</ele>
        <time>2019-07-11T14:31:11Z</time>
      </trkpt>
      <trkpt lat="48.68179" lon="-3.54575">
        <ele>63.4</ele>
        <time>2019-07-11T14:31:12Z</time>
      </trkpt>
      <trkpt lat="48.68184" lon="-3.54582">
        <ele>63.7</ele>
        <time>2019-07-11T14:31:13Z</time>
      </trkpt>
      <trkpt lat="48.68189" lon="-3.54589">
        <ele>64</ele>
        <time>2019-07-11T14:31:14Z</time>
      </trkpt>
      <trkpt lat="48.68194" lon="-3.54595">
        <ele>64</ele>
        <time>2019-07-11T14:31:15Z</time>
      </trkpt>
      <trkpt lat="48.682" lon="-3.54603">
        <ele>64</ele>
        <time>2019-07-11T14:31:16Z</time>
      </trkpt>
      <trkpt lat="48.68204" lon="-3.5461">
        <ele>64</ele>
        <time>2019-07-11T14:31:17Z</time>
      </trkpt>
      <trkpt lat="48.68208" lon="-3.54618">
        <ele>64</ele>
        <time>2019-07-11T14:31:18Z</time>
      </trkpt>
      <trkpt lat="48.68211" lon="-3.54626">
        <ele>63.9</ele>
        <time>2019-07-11T14:31:19Z</time>
      </trkpt>
      <trkpt lat="48.68215" lon="-3.54632">
        <ele>63.8</ele>
        <time>2019-07-11T14:31:20Z</time>
      </trkpt>
      <trkpt lat="48.68217" lon="-3.5464">
        <ele>64</ele>
        <time>2019-07-11T14:31:21Z</time>
      </trkpt>
      <trkpt lat="48.68221" lon="-3.54648">
        <ele>64.4</ele>
        <time>2019-07-11T14:31:22Z</time>
      </trkpt>
      <trkpt lat="48.68224" lon="-3.54656">
        <ele>64.5</ele>
        <time>2019-07-11T14:31:23Z</time>
      </trkpt>
      <trkpt lat="48.68227" lon="-3.54665">
        <ele>65</ele>
        <time>2019-07-11T14:31:24Z</time>
      </trkpt>
      <trkpt lat="48.68229" lon="-3.54674">
        <ele>65.6</ele>
        <time>2019-07-11T14:31:25Z</time>
      </trkpt>
      <trkpt lat="48.68232" lon="-3.54681">
        <ele>66.5</ele>
        <time>2019-07-11T14:31:26Z</time>
      </trkpt>
      <trkpt lat="48.68236" lon="-3.54691">
        <ele>67.4</ele>
        <time>2019-07-11T14:31:27Z</time>
      </trkpt>
      <trkpt lat="48.68238" lon="-3.54699">
        <ele>67.8</ele>
        <time>2019-07-11T14:31:28Z</time>
      </trkpt>
      <trkpt lat="48.6824" lon="-3.54708">
        <ele>68.6</ele>
        <time>2019-07-11T14:31:29Z</time>
      </trkpt>
      <trkpt lat="48.68243" lon="-3.54718">
        <ele>69.3</ele>
        <time>2019-07-11T14:31:30Z</time>
      </trkpt>
      <trkpt lat="48.68246" lon="-3.54729">
        <ele>69.4</ele>
        <time>2019-07-11T14:31:31Z</time>
      </trkpt>
      <trkpt lat="48.6825" lon="-3.54741">
        <ele>68.7</ele>
        <time>2019-07-11T14:31:32Z</time>
      </trkpt>
      <trkpt lat="48.68251" lon="-3.54753">
        <ele>68.3</ele>
        <time>2019-07-11T14:31:33Z</time>
      </trkpt>
      <trkpt lat="48.68253" lon="-3.54761">
        <ele>68.5</ele>
        <time>2019-07-11T14:31:34Z</time>
      </trkpt>
      <trkpt lat="48.68256" lon="-3.54773">
        <ele>68.2</ele>
        <time>2019-07-11T14:31:35Z</time>
      </trkpt>
      <trkpt lat="48.68259" lon="-3.54781">
        <ele>68.2</ele>
        <time>2019-07-11T14:31:36Z</time>
      </trkpt>
      <trkpt lat="48.6826" lon="-3.54789">
        <ele>67.8</ele>
        <time>2019-07-11T14:31:37Z</time>
      </trkpt>
      <trkpt lat="48.68263" lon="-3.54799">
        <ele>67.6</ele>
        <time>2019-07-11T14:31:38Z</time>
      </trkpt>
      <trkpt lat="48.68264" lon="-3.54807">
        <ele>67.7</ele>
        <time>2019-07-11T14:31:39Z</time>
      </trkpt>
      <trkpt lat="48.68265" lon="-3.54815">
        <ele>67.8</ele>
        <time>2019-07-11T14:31:40Z</time>
      </trkpt>
      <trkpt lat="48.68267" lon="-3.54823">
        <ele>67.8</ele>
        <time>2019-07-11T14:31:41Z</time>
      </trkpt>
      <trkpt lat="48.6827" lon="-3.54831">
        <ele>67.9</ele>
        <time>2019-07-11T14:31:42Z</time>
      </trkpt>
      <trkpt lat="48.68271" lon="-3.54838">
        <ele>68</ele>
        <time>2019-07-11T14:31:43Z</time>
      </trkpt>
      <trkpt lat="48.68273" lon="-3.54843">
        <ele>68.1</ele>
        <time>2019-07-11T14:31:44Z</time>
      </trkpt>
      <trkpt lat="48.68278" lon="-3.54851">
        <ele>67.8</ele>
        <time>2019-07-11T14:31:45Z</time>
      </trkpt>
      <trkpt lat="48.6828" lon="-3.54858">
        <ele>68</ele>
        <time>2019-07-11T14:31:46Z</time>
      </trkpt>
      <trkpt lat="48.6828" lon="-3.54865">
        <ele>68.2</ele>
        <time>2019-07-11T14:31:47Z</time>
      </trkpt>
      <trkpt lat="48.68281" lon="-3.54871">
        <ele>68.4</ele>
        <time>2019-07-11T14:31:48Z</time>
      </trkpt>
      <trkpt lat="48.68282" lon="-3.54883">
        <ele>68.8</ele>
        <time>2019-07-11T14:31:49Z</time>
      </trkpt>
      <trkpt lat="48.68282" lon="-3.5489">
        <ele>69</ele>
        <time>2019-07-11T14:31:50Z</time>
      </trkpt>
      <trkpt lat="48.68283" lon="-3.54897">
        <ele>69.1</ele>
        <time>2019-07-11T14:31:51Z</time>
      </trkpt>
      <trkpt lat="48.68284" lon="-3.54902">
        <ele>69.3</ele>
        <time>2019-07-11T14:31:52Z</time>
      </trkpt>
      <trkpt lat="48.68284" lon="-3.54908">
        <ele>69.5</ele>
        <time>2019-07-11T14:31:53Z</time>
      </trkpt>
      <trkpt lat="48.68285" lon="-3.54916">
        <ele>69.8</ele>
        <time>2019-07-11T14:31:54Z</time>
      </trkpt>
      <trkpt lat="48.68286" lon="-3.54931">
        <ele>70.2</ele>
        <time>2019-07-11T14:31:55Z</time>
      </trkpt>
      <trkpt lat="48.68288" lon="-3.54938">
        <ele>70.1</ele>
        <time>2019-07-11T14:31:56Z</time>
      </trkpt>
      <trkpt lat="48.68289" lon="-3.54951">
        <ele>70.3</ele>
        <time>2019-07-11T14:31:57Z</time>
      </trkpt>
      <trkpt lat="48.68294" lon="-3.54966">
        <ele>65</ele>
        <time>2019-07-11T14:31:58Z</time>
      </trkpt>
      <trkpt lat="48.68296" lon="-3.5498">
        <ele>59.2</ele>
        <time>2019-07-11T14:31:59Z</time>
      </trkpt>
      <trkpt lat="48.68297" lon="-3.5499">
        <ele>57.2</ele>
        <time>2019-07-11T14:32:00Z</time>
      </trkpt>
      <trkpt lat="48.68298" lon="-3.55">
        <ele>55.3</ele>
        <time>2019-07-11T14:32:01Z</time>
      </trkpt>
      <trkpt lat="48.68296" lon="-3.55009">
        <ele>53.8</ele>
        <time>2019-07-11T14:32:02Z</time>
      </trkpt>
      <trkpt lat="48.68295" lon="-3.55018">
        <ele>52</ele>
        <time>2019-07-11T14:32:03Z</time>
      </trkpt>
      <trkpt lat="48.68292" lon="-3.55027">
        <ele>50.7</ele>
        <time>2019-07-11T14:32:04Z</time>
      </trkpt>
      <trkpt lat="48.68292" lon="-3.55037">
        <ele>48.2</ele>
        <time>2019-07-11T14:32:05Z</time>
      </trkpt>
      <trkpt lat="48.68289" lon="-3.55045">
        <ele>47.2</ele>
        <time>2019-07-11T14:32:06Z</time>
      </trkpt>
      <trkpt lat="48.68287" lon="-3.55054">
        <ele>46.6</ele>
        <time>2019-07-11T14:32:07Z</time>
      </trkpt>
      <trkpt lat="48.68283" lon="-3.55062">
        <ele>46.1</ele>
        <time>2019-07-11T14:32:08Z</time>
      </trkpt>
      <trkpt lat="48.6828" lon="-3.55069">
        <ele>45.7</ele>
        <time>2019-07-11T14:32:09Z</time>
      </trkpt>
      <trkpt lat="48.68276" lon="-3.55076">
        <ele>45.1</ele>
        <time>2019-07-11T14:32:10Z</time>
      </trkpt>
      <trkpt lat="48.68272" lon="-3.55083">
        <ele>45</ele>
        <time>2019-07-11T14:32:11Z</time>
      </trkpt>
      <trkpt lat="48.68268" lon="-3.5509">
        <ele>44.9</ele>
        <time>2019-07-11T14:32:12Z</time>
      </trkpt>
      <trkpt lat="48.68264" lon="-3.55096">
        <ele>44.9</ele>
        <time>2019-07-11T14:32:13Z</time>
      </trkpt>
      <trkpt lat="48.6826" lon="-3.55102">
        <ele>44.7</ele>
        <time>2019-07-11T14:32:14Z</time>
      </trkpt>
      <trkpt lat="48.68256" lon="-3.55109">
        <ele>44.7</ele>
        <time>2019-07-11T14:32:15Z</time>
      </trkpt>
      <trkpt lat="48.68253" lon="-3.55116">
        <ele>44.5</ele>
        <time>2019-07-11T14:32:16Z</time>
      </trkpt>
      <trkpt lat="48.6825" lon="-3.55124">
        <ele>44.4</ele>
        <time>2019-07-11T14:32:17Z</time>
      </trkpt>
      <trkpt lat="48.68247" lon="-3.55131">
        <ele>44.3</ele>
        <time>2019-07-11T14:32:18Z</time>
      </trkpt>
      <trkpt lat="48.68243" lon="-3.55137">
        <ele>44.1</ele>
        <time>2019-07-11T14:32:19Z</time>
      </trkpt>
      <trkpt lat="48.68241" lon="-3.55145">
        <ele>44.3</ele>
        <time>2019-07-11T14:32:20Z</time>
      </trkpt>
      <trkpt lat="48.68238" lon="-3.55153">
        <ele>44.3</ele>
        <time>2019-07-11T14:32:21Z</time>
      </trkpt>
      <trkpt lat="48.68236" lon="-3.5516">
        <ele>44.3</ele>
        <time>2019-07-11T14:32:22Z</time>
      </trkpt>
      <trkpt lat="48.68235" lon="-3.55167">
        <ele>44.4</ele>
        <time>2019-07-11T14:32:23Z</time>
      </trkpt>
      <trkpt lat="48.68233" lon="-3.5518">
        <ele>42.7</ele>
        <time>2019-07-11T14:32:24Z</time>
      </trkpt>
      <trkpt lat="48.68231" lon="-3.55188">
        <ele>42.7</ele>
        <time>2019-07-11T14:32:25Z</time>
      </trkpt>
      <trkpt lat="48.6823" lon="-3.55197">
        <ele>42.3</ele>
        <time>2019-07-11T14:32:26Z</time>
      </trkpt>
      <trkpt lat="48.68231" lon="-3.55206">
        <ele>42.1</ele>
        <time>2019-07-11T14:32:27Z</time>
      </trkpt>
      <trkpt lat="48.68231" lon="-3.55214">
        <ele>42.2</ele>
        <time>2019-07-11T14:32:28Z</time>
      </trkpt>
      <trkpt lat="48.68232" lon="-3.55224">
        <ele>42.1</ele>
        <time>2019-07-11T14:32:29Z</time>
      </trkpt>
      <trkpt lat="48.68234" lon="-3.55234">
        <ele>42.2</ele>
        <time>2019-07-11T14:32:30Z</time>
      </trkpt>
      <trkpt lat="48.68236" lon="-3.55243">
        <ele>42.6</ele>
        <time>2019-07-11T14:32:31Z</time>
      </trkpt>
      <trkpt lat="48.68238" lon="-3.55251">
        <ele>43.1</ele>
        <time>2019-07-11T14:32:32Z</time>
      </trkpt>
      <trkpt lat="48.68239" lon="-3.55258">
        <ele>44.2</ele>
        <time>2019-07-11T14:32:33Z</time>
      </trkpt>
      <trkpt lat="48.68242" lon="-3.55265">
        <ele>45.2</ele>
        <time>2019-07-11T14:32:34Z</time>
      </trkpt>
      <trkpt lat="48.68245" lon="-3.55269">
        <ele>46.1</ele>
        <time>2019-07-11T14:32:35Z</time>
      </trkpt>
      <trkpt lat="48.68249" lon="-3.55274">
        <ele>46.7</ele>
        <time>2019-07-11T14:32:36Z</time>
      </trkpt>
      <trkpt lat="48.68253" lon="-3.55279">
        <ele>47.1</ele>
        <time>2019-07-11T14:32:37Z</time>
      </trkpt>
      <trkpt lat="48.68256" lon="-3.55283">
        <ele>47.6</ele>
        <time>2019-07-11T14:32:38Z</time>
      </trkpt>
      <trkpt lat="48.68261" lon="-3.55288">
        <ele>48.4</ele>
        <time>2019-07-11T14:32:39Z</time>
      </trkpt>
      <trkpt lat="48.68264" lon="-3.55294">
        <ele>50.4</ele>
        <time>2019-07-11T14:32:40Z</time>
      </trkpt>
      <trkpt lat="48.68266" lon="-3.553">
        <ele>51.3</ele>
        <time>2019-07-11T14:32:41Z</time>
      </trkpt>
      <trkpt lat="48.68269" lon="-3.55304">
        <ele>52.3</ele>
        <time>2019-07-11T14:32:42Z</time>
      </trkpt>
      <trkpt lat="48.68273" lon="-3.55309">
        <ele>53.2</ele>
        <time>2019-07-11T14:32:43Z</time>
      </trkpt>
      <trkpt lat="48.68277" lon="-3.55315">
        <ele>54.4</ele>
        <time>2019-07-11T14:32:44Z</time>
      </trkpt>
      <trkpt lat="48.68281" lon="-3.5532">
        <ele>55.5</ele>
        <time>2019-07-11T14:32:45Z</time>
      </trkpt>
      <trkpt lat="48.68284" lon="-3.55323">
        <ele>56.3</ele>
        <time>2019-07-11T14:32:46Z</time>
      </trkpt>
      <trkpt lat="48.68288" lon="-3.55329">
        <ele>57.4</ele>
        <time>2019-07-11T14:32:47Z</time>
      </trkpt>
      <trkpt lat="48.68292" lon="-3.55336">
        <ele>58.5</ele>
        <time>2019-07-11T14:32:48Z</time>
      </trkpt>
      <trkpt lat="48.68294" lon="-3.55343">
        <ele>59.7</ele>
        <time>2019-07-11T14:32:49Z</time>
      </trkpt>
      <trkpt lat="48.68296" lon="-3.5535">
        <ele>61</ele>
        <time>2019-07-11T14:32:50Z</time>
      </trkpt>
      <trkpt lat="48.68298" lon="-3.55354">
        <ele>62.5</ele>
        <time>2019-07-11T14:32:51Z</time>
      </trkpt>
      <trkpt lat="48.68299" lon="-3.55358">
        <ele>63.6</ele>
        <time>2019-07-11T14:32:52Z</time>
      </trkpt>
      <trkpt lat="48.68301" lon="-3.55367">
        <ele>65.1</ele>
        <time>2019-07-11T14:32:53Z</time>
      </trkpt>
      <trkpt lat="48.68302" lon="-3.55378">
        <ele>66.8</ele>
        <time>2019-07-11T14:32:54Z</time>
      </trkpt>
      <trkpt lat="48.68303" lon="-3.5539">
        <ele>67.7</ele>
        <time>2019-07-11T14:32:55Z</time>
      </trkpt>
      <trkpt lat="48.68304" lon="-3.55399">
        <ele>68.2</ele>
        <time>2019-07-11T14:32:56Z</time>
      </trkpt>
      <trkpt lat="48.68305" lon="-3.55412">
        <ele>68.2</ele>
        <time>2019-07-11T14:32:57Z</time>
      </trkpt>
      <trkpt lat="48.68306" lon="-3.55425">
        <ele>68.1</ele>
        <time>2019-07-11T14:32:58Z</time>
      </trkpt>
      <trkpt lat="48.68308" lon="-3.55438">
        <ele>68.2</ele>
        <time>2019-07-11T14:32:59Z</time>
      </trkpt>
      <trkpt lat="48.6831" lon="-3.55451">
        <ele>67.6</ele>
        <time>2019-07-11T14:33:00Z</time>
      </trkpt>
      <trkpt lat="48.68311" lon="-3.55463">
        <ele>67</ele>
        <time>2019-07-11T14:33:01Z</time>
      </trkpt>
      <trkpt lat="48.68312" lon="-3.55474">
        <ele>66.6</ele>
        <time>2019-07-11T14:33:02Z</time>
      </trkpt>
      <trkpt lat="48.68313" lon="-3.55485">
        <ele>66.1</ele>
        <time>2019-07-11T14:33:03Z</time>
      </trkpt>
      <trkpt lat="48.68313" lon="-3.55495">
        <ele>65.6</ele>
        <time>2019-07-11T14:33:04Z</time>
      </trkpt>
      <trkpt lat="48.68313" lon="-3.55504">
        <ele>64.6</ele>
        <time>2019-07-11T14:33:05Z</time>
      </trkpt>
      <trkpt lat="48.68314" lon="-3.55513">
        <ele>62.8</ele>
        <time>2019-07-11T14:33:06Z</time>
      </trkpt>
      <trkpt lat="48.68313" lon="-3.55522">
        <ele>61.5</ele>
        <time>2019-07-11T14:33:07Z</time>
      </trkpt>
      <trkpt lat="48.68313" lon="-3.5553">
        <ele>59.6</ele>
        <time>2019-07-11T14:33:08Z</time>
      </trkpt>
      <trkpt lat="48.68314" lon="-3.55537">
        <ele>57.7</ele>
        <time>2019-07-11T14:33:09Z</time>
      </trkpt>
      <trkpt lat="48.68315" lon="-3.55542">
        <ele>55.9</ele>
        <time>2019-07-11T14:33:10Z</time>
      </trkpt>
      <trkpt lat="48.68317" lon="-3.55549">
        <ele>53.1</ele>
        <time>2019-07-11T14:33:11Z</time>
      </trkpt>
      <trkpt lat="48.68317" lon="-3.55555">
        <ele>51</ele>
        <time>2019-07-11T14:33:12Z</time>
      </trkpt>
      <trkpt lat="48.68317" lon="-3.55561">
        <ele>49.7</ele>
        <time>2019-07-11T14:33:13Z</time>
      </trkpt>
      <trkpt lat="48.68316" lon="-3.55568">
        <ele>48.9</ele>
        <time>2019-07-11T14:33:14Z</time>
      </trkpt>
      <trkpt lat="48.68316" lon="-3.55575">
        <ele>48</ele>
        <time>2019-07-11T14:33:15Z</time>
      </trkpt>
      <trkpt lat="48.68315" lon="-3.55581">
        <ele>47.4</ele>
        <time>2019-07-11T14:33:16Z</time>
      </trkpt>
      <trkpt lat="48.68314" lon="-3.55587">
        <ele>47.3</ele>
        <time>2019-07-11T14:33:17Z</time>
      </trkpt>
      <trkpt lat="48.68313" lon="-3.55594">
        <ele>46.9</ele>
        <time>2019-07-11T14:33:18Z</time>
      </trkpt>
      <trkpt lat="48.68315" lon="-3.55601">
        <ele>43.7</ele>
        <time>2019-07-11T14:33:19Z</time>
      </trkpt>
      <trkpt lat="48.68314" lon="-3.55607">
        <ele>42.5</ele>
        <time>2019-07-11T14:33:20Z</time>
      </trkpt>
      <trkpt lat="48.68314" lon="-3.55614">
        <ele>41.2</ele>
        <time>2019-07-11T14:33:21Z</time>
      </trkpt>
      <trkpt lat="48.68313" lon="-3.5562">
        <ele>41.5</ele>
        <time>2019-07-11T14:33:22Z</time>
      </trkpt>
      <trkpt lat="48.68313" lon="-3.55625">
        <ele>41.2</ele>
        <time>2019-07-11T14:33:23Z</time>
      </trkpt>
      <trkpt lat="48.68313" lon="-3.55631">
        <ele>41.2</ele>
        <time>2019-07-11T14:33:24Z</time>
      </trkpt>
      <trkpt lat="48.6831" lon="-3.55638">
        <ele>40.7</ele>
        <time>2019-07-11T14:33:25Z</time>
      </trkpt>
      <trkpt lat="48.68306" lon="-3.55646">
        <ele>40.4</ele>
        <time>2019-07-11T14:33:26Z</time>
      </trkpt>
      <trkpt lat="48.68304" lon="-3.55652">
        <ele>40.4</ele>
        <time>2019-07-11T14:33:27Z</time>
      </trkpt>
      <trkpt lat="48.68301" lon="-3.55658">
        <ele>40.4</ele>
        <time>2019-07-11T14:33:28Z</time>
      </trkpt>
      <trkpt lat="48.683" lon="-3.55666">
        <ele>40.6</ele>
        <time>2019-07-11T14:33:29Z</time>
      </trkpt>
      <trkpt lat="48.68298" lon="-3.55671">
        <ele>41.2</ele>
        <time>2019-07-11T14:33:30Z</time>
      </trkpt>
      <trkpt lat="48.68297" lon="-3.55676">
        <ele>40.8</ele>
        <time>2019-07-11T14:33:31Z</time>
      </trkpt>
      <trkpt lat="48.68295" lon="-3.55682">
        <ele>40.3</ele>
        <time>2019-07-11T14:33:32Z</time>
      </trkpt>
      <trkpt lat="48.68294" lon="-3.55688">
        <ele>39.1</ele>
        <time>2019-07-11T14:33:33Z</time>
      </trkpt>
      <trkpt lat="48.68293" lon="-3.55694">
        <ele>38</ele>
        <time>2019-07-11T14:33:34Z</time>
      </trkpt>
      <trkpt lat="48.68292" lon="-3.55699">
        <ele>36.8</ele>
        <time>2019-07-11T14:33:35Z</time>
      </trkpt>
      <trkpt lat="48.68291" lon="-3.55705">
        <ele>36.3</ele>
        <time>2019-07-11T14:33:36Z</time>
      </trkpt>
      <trkpt lat="48.68289" lon="-3.55711">
        <ele>35.6</ele>
        <time>2019-07-11T14:33:37Z</time>
      </trkpt>
      <trkpt lat="48.68285" lon="-3.55715">
        <ele>32.5</ele>
        <time>2019-07-11T14:33:38Z</time>
      </trkpt>
      <trkpt lat="48.68282" lon="-3.5572">
        <ele>30.7</ele>
        <time>2019-07-11T14:33:39Z</time>
      </trkpt>
      <trkpt lat="48.6828" lon="-3.55725">
        <ele>30.1</ele>
        <time>2019-07-11T14:33:40Z</time>
      </trkpt>
      <trkpt lat="48.68279" lon="-3.55731">
        <ele>29.6</ele>
        <time>2019-07-11T14:33:41Z</time>
      </trkpt>
      <trkpt lat="48.68277" lon="-3.55736">
        <ele>28.4</ele>
        <time>2019-07-11T14:33:42Z</time>
      </trkpt>
      <trkpt lat="48.68276" lon="-3.55742">
        <ele>27.7</ele>
        <time>2019-07-11T14:33:43Z</time>
      </trkpt>
      <trkpt lat="48.68275" lon="-3.55747">
        <ele>26.8</ele>
        <time>2019-07-11T14:33:44Z</time>
      </trkpt>
      <trkpt lat="48.68274" lon="-3.55753">
        <ele>26.4</ele>
        <time>2019-07-11T14:33:45Z</time>
      </trkpt>
      <trkpt lat="48.68273" lon="-3.55759">
        <ele>26.6</ele>
        <time>2019-07-11T14:33:46Z</time>
      </trkpt>
      <trkpt lat="48.68272" lon="-3.55764">
        <ele>27</ele>
        <time>2019-07-11T14:33:47Z</time>
      </trkpt>
      <trkpt lat="48.68271" lon="-3.5577">
        <ele>27.3</ele>
        <time>2019-07-11T14:33:48Z</time>
      </trkpt>
      <trkpt lat="48.68271" lon="-3.55776">
        <ele>27.6</ele>
        <time>2019-07-11T14:33:49Z</time>
      </trkpt>
      <trkpt lat="48.68269" lon="-3.55782">
        <ele>28.7</ele>
        <time>2019-07-11T14:33:50Z</time>
      </trkpt>
      <trkpt lat="48.68268" lon="-3.55788">
        <ele>28.9</ele>
        <time>2019-07-11T14:33:51Z</time>
      </trkpt>
      <trkpt lat="48.68267" lon="-3.55794">
        <ele>28.7</ele>
        <time>2019-07-11T14:33:52Z</time>
      </trkpt>
      <trkpt lat="48.68266" lon="-3.558">
        <ele>28.6</ele>
        <time>2019-07-11T14:33:53Z</time>
      </trkpt>
      <trkpt lat="48.68265" lon="-3.55805">
        <ele>28.5</ele>
        <time>2019-07-11T14:33:54Z</time>
      </trkpt>
      <trkpt lat="48.68265" lon="-3.55811">
        <ele>28.7</ele>
        <time>2019-07-11T14:33:55Z</time>
      </trkpt>
      <trkpt lat="48.68264" lon="-3.55816">
        <ele>29</ele>
        <time>2019-07-11T14:33:56Z</time>
      </trkpt>
      <trkpt lat="48.68264" lon="-3.55822">
        <ele>29.3</ele>
        <time>2019-07-11T14:33:57Z</time>
      </trkpt>
      <trkpt lat="48.68263" lon="-3.55827">
        <ele>29.7</ele>
        <time>2019-07-11T14:33:58Z</time>
      </trkpt>
      <trkpt lat="48.68262" lon="-3.55832">
        <ele>30.2</ele>
        <time>2019-07-11T14:33:59Z</time>
      </trkpt>
      <trkpt lat="48.68262" lon="-3.55837">
        <ele>30.6</ele>
        <time>2019-07-11T14:34:00Z</time>
      </trkpt>
      <trkpt lat="48.68261" lon="-3.55843">
        <ele>31.7</ele>
        <time>2019-07-11T14:34:01Z</time>
      </trkpt>
      <trkpt lat="48.68261" lon="-3.55848">
        <ele>32.4</ele>
        <time>2019-07-11T14:34:02Z</time>
      </trkpt>
      <trkpt lat="48.68261" lon="-3.55853">
        <ele>32.8</ele>
        <time>2019-07-11T14:34:03Z</time>
      </trkpt>
      <trkpt lat="48.68261" lon="-3.55858">
        <ele>33.2</ele>
        <time>2019-07-11T14:34:04Z</time>
      </trkpt>
      <trkpt lat="48.68261" lon="-3.55862">
        <ele>33.8</ele>
        <time>2019-07-11T14:34:05Z</time>
      </trkpt>
      <trkpt lat="48.68261" lon="-3.55867">
        <ele>34.1</ele>
        <time>2019-07-11T14:34:06Z</time>
      </trkpt>
      <trkpt lat="48.68263" lon="-3.55873">
        <ele>34.8</ele>
        <time>2019-07-11T14:34:07Z</time>
      </trkpt>
      <trkpt lat="48.68263" lon="-3.55878">
        <ele>35.4</ele>
        <time>2019-07-11T14:34:08Z</time>
      </trkpt>
      <trkpt lat="48.68263" lon="-3.55883">
        <ele>35.9</ele>
        <time>2019-07-11T14:34:09Z</time>
      </trkpt>
      <trkpt lat="48.68264" lon="-3.55888">
        <ele>36.4</ele>
        <time>2019-07-11T14:34:10Z</time>
      </trkpt>
      <trkpt lat="48.68267" lon="-3.55892">
        <ele>36.4</ele>
        <time>2019-07-11T14:34:11Z</time>
      </trkpt>
      <trkpt lat="48.68269" lon="-3.55897">
        <ele>37</ele>
        <time>2019-07-11T14:34:12Z</time>
      </trkpt>
      <trkpt lat="48.68272" lon="-3.55901">
        <ele>37.2</ele>
        <time>2019-07-11T14:34:13Z</time>
      </trkpt>
      <trkpt lat="48.68275" lon="-3.55907">
        <ele>36.7</ele>
        <time>2019-07-11T14:34:14Z</time>
      </trkpt>
      <trkpt lat="48.68277" lon="-3.55911">
        <ele>36.9</ele>
        <time>2019-07-11T14:34:15Z</time>
      </trkpt>
      <trkpt lat="48.6828" lon="-3.55916">
        <ele>36.6</ele>
        <time>2019-07-11T14:34:16Z</time>
      </trkpt>
      <trkpt lat="48.68282" lon="-3.5592">
        <ele>36.4</ele>
        <time>2019-07-11T14:34:17Z</time>
      </trkpt>
      <trkpt lat="48.68285" lon="-3.55924">
        <ele>36.4</ele>
        <time>2019-07-11T14:34:18Z</time>
      </trkpt>
      <trkpt lat="48.68287" lon="-3.55928">
        <ele>36.9</ele>
        <time>2019-07-11T14:34:19Z</time>
      </trkpt>
      <trkpt lat="48.6829" lon="-3.55931">
        <ele>37</ele>
        <time>2019-07-11T14:34:20Z</time>
      </trkpt>
      <trkpt lat="48.68292" lon="-3.55934">
        <ele>37.8</ele>
        <time>2019-07-11T14:34:21Z</time>
      </trkpt>
      <trkpt lat="48.68294" lon="-3.55937">
        <ele>38.1</ele>
        <time>2019-07-11T14:34:22Z</time>
      </trkpt>
      <trkpt lat="48.68296" lon="-3.5594">
        <ele>38.4</ele>
        <time>2019-07-11T14:34:23Z</time>
      </trkpt>
      <trkpt lat="48.68299" lon="-3.55942">
        <ele>39</ele>
        <time>2019-07-11T14:34:24Z</time>
      </trkpt>
      <trkpt lat="48.68301" lon="-3.55946">
        <ele>39.5</ele>
        <time>2019-07-11T14:34:25Z</time>
      </trkpt>
      <trkpt lat="48.68303" lon="-3.5595">
        <ele>39.7</ele>
        <time>2019-07-11T14:34:26Z</time>
      </trkpt>
      <trkpt lat="48.68306" lon="-3.55955">
        <ele>38.8</ele>
        <time>2019-07-11T14:34:27Z</time>
      </trkpt>
      <trkpt lat="48.68308" lon="-3.55959">
        <ele>38</ele>
        <time>2019-07-11T14:34:28Z</time>
      </trkpt>
      <trkpt lat="48.68311" lon="-3.55962">
        <ele>37.9</ele>
        <time>2019-07-11T14:34:29Z</time>
      </trkpt>
      <trkpt lat="48.68314" lon="-3.55966">
        <ele>37.8</ele>
        <time>2019-07-11T14:34:30Z</time>
      </trkpt>
      <trkpt lat="48.68316" lon="-3.55971">
        <ele>37.4</ele>
        <time>2019-07-11T14:34:31Z</time>
      </trkpt>
      <trkpt lat="48.68319" lon="-3.55976">
        <ele>36.5</ele>
        <time>2019-07-11T14:34:32Z</time>
      </trkpt>
      <trkpt lat="48.68323" lon="-3.5598">
        <ele>35</ele>
        <time>2019-07-11T14:34:33Z</time>
      </trkpt>
      <trkpt lat="48.68327" lon="-3.55985">
        <ele>33.2</ele>
        <time>2019-07-11T14:34:34Z</time>
      </trkpt>
      <trkpt lat="48.68332" lon="-3.5599">
        <ele>31.9</ele>
        <time>2019-07-11T14:34:35Z</time>
      </trkpt>
      <trkpt lat="48.68336" lon="-3.55996">
        <ele>31</ele>
        <time>2019-07-11T14:34:36Z</time>
      </trkpt>
      <trkpt lat="48.6834" lon="-3.56002">
        <ele>30.1</ele>
        <time>2019-07-11T14:34:37Z</time>
      </trkpt>
      <trkpt lat="48.68343" lon="-3.56008">
        <ele>29.2</ele>
        <time>2019-07-11T14:34:38Z</time>
      </trkpt>
      <trkpt lat="48.68347" lon="-3.56015">
        <ele>28.3</ele>
        <time>2019-07-11T14:34:39Z</time>
      </trkpt>
      <trkpt lat="48.6835" lon="-3.56021">
        <ele>27.6</ele>
        <time>2019-07-11T14:34:40Z</time>
      </trkpt>
      <trkpt lat="48.68353" lon="-3.56028">
        <ele>26.6</ele>
        <time>2019-07-11T14:34:41Z</time>
      </trkpt>
      <trkpt lat="48.68356" lon="-3.56034">
        <ele>25.9</ele>
        <time>2019-07-11T14:34:42Z</time>
      </trkpt>
      <trkpt lat="48.6836" lon="-3.5604">
        <ele>25.3</ele>
        <time>2019-07-11T14:34:43Z</time>
      </trkpt>
      <trkpt lat="48.68363" lon="-3.56046">
        <ele>25</ele>
        <time>2019-07-11T14:34:44Z</time>
      </trkpt>
      <trkpt lat="48.68367" lon="-3.56052">
        <ele>24.4</ele>
        <time>2019-07-11T14:34:45Z</time>
      </trkpt>
      <trkpt lat="48.68369" lon="-3.56058">
        <ele>24.4</ele>
        <time>2019-07-11T14:34:46Z</time>
      </trkpt>
      <trkpt lat="48.68372" lon="-3.56063">
        <ele>24.2</ele>
        <time>2019-07-11T14:34:47Z</time>
      </trkpt>
      <trkpt lat="48.68374" lon="-3.56069">
        <ele>24.1</ele>
        <time>2019-07-11T14:34:48Z</time>
      </trkpt>
      <trkpt lat="48.68376" lon="-3.56075">
        <ele>23.8</ele>
        <time>2019-07-11T14:34:49Z</time>
      </trkpt>
      <trkpt lat="48.68378" lon="-3.56081">
        <ele>23.9</ele>
        <time>2019-07-11T14:34:50Z</time>
      </trkpt>
      <trkpt lat="48.6838" lon="-3.56086">
        <ele>23.9</ele>
        <time>2019-07-11T14:34:51Z</time>
      </trkpt>
      <trkpt lat="48.68382" lon="-3.5609">
        <ele>23.7</ele>
        <time>2019-07-11T14:34:52Z</time>
      </trkpt>
      <trkpt lat="48.68383" lon="-3.56094">
        <ele>23.7</ele>
        <time>2019-07-11T14:34:53Z</time>
      </trkpt>
      <trkpt lat="48.68385" lon="-3.56099">
        <ele>24.2</ele>
        <time>2019-07-11T14:34:54Z</time>
      </trkpt>
      <trkpt lat="48.68387" lon="-3.56103">
        <ele>24.5</ele>
        <time>2019-07-11T14:34:55Z</time>
      </trkpt>
      <trkpt lat="48.68388" lon="-3.56107">
        <ele>24.7</ele>
        <time>2019-07-11T14:34:56Z</time>
      </trkpt>
      <trkpt lat="48.6839" lon="-3.56112">
        <ele>25.1</ele>
        <time>2019-07-11T14:34:57Z</time>
      </trkpt>
      <trkpt lat="48.68391" lon="-3.56116">
        <ele>25.4</ele>
        <time>2019-07-11T14:34:58Z</time>
      </trkpt>
      <trkpt lat="48.68393" lon="-3.56121">
        <ele>25.7</ele>
        <time>2019-07-11T14:34:59Z</time>
      </trkpt>
      <trkpt lat="48.68395" lon="-3.56125">
        <ele>26</ele>
        <time>2019-07-11T14:35:00Z</time>
      </trkpt>
      <trkpt lat="48.68397" lon="-3.56129">
        <ele>26.2</ele>
        <time>2019-07-11T14:35:01Z</time>
      </trkpt>
      <trkpt lat="48.68398" lon="-3.56133">
        <ele>26.4</ele>
        <time>2019-07-11T14:35:02Z</time>
      </trkpt>
      <trkpt lat="48.684" lon="-3.56137">
        <ele>26.6</ele>
        <time>2019-07-11T14:35:03Z</time>
      </trkpt>
      <trkpt lat="48.68402" lon="-3.56141">
        <ele>26.9</ele>
        <time>2019-07-11T14:35:04Z</time>
      </trkpt>
      <trkpt lat="48.68404" lon="-3.56145">
        <ele>27.4</ele>
        <time>2019-07-11T14:35:05Z</time>
      </trkpt>
      <trkpt lat="48.68406" lon="-3.56149">
        <ele>28.1</ele>
        <time>2019-07-11T14:35:06Z</time>
      </trkpt>
      <trkpt lat="48.68408" lon="-3.56153">
        <ele>28.8</ele>
        <time>2019-07-11T14:35:07Z</time>
      </trkpt>
      <trkpt lat="48.68409" lon="-3.56157">
        <ele>29.1</ele>
        <time>2019-07-11T14:35:08Z</time>
      </trkpt>
      <trkpt lat="48.68411" lon="-3.5616">
        <ele>29.9</ele>
        <time>2019-07-11T14:35:09Z</time>
      </trkpt>
      <trkpt lat="48.68413" lon="-3.56164">
        <ele>30.2</ele>
        <time>2019-07-11T14:35:10Z</time>
      </trkpt>
      <trkpt lat="48.68416" lon="-3.56167">
        <ele>30.3</ele>
        <time>2019-07-11T14:35:11Z</time>
      </trkpt>
      <trkpt lat="48.68418" lon="-3.5617">
        <ele>30.5</ele>
        <time>2019-07-11T14:35:12Z</time>
      </trkpt>
      <trkpt lat="48.6842" lon="-3.56173">
        <ele>31.1</ele>
        <time>2019-07-11T14:35:13Z</time>
      </trkpt>
      <trkpt lat="48.68422" lon="-3.56177">
        <ele>31.3</ele>
        <time>2019-07-11T14:35:14Z</time>
      </trkpt>
      <trkpt lat="48.68423" lon="-3.5618">
        <ele>31.5</ele>
        <time>2019-07-11T14:35:15Z</time>
      </trkpt>
      <trkpt lat="48.68423" lon="-3.56182">
        <ele>33.1</ele>
        <time>2019-07-11T14:35:16Z</time>
      </trkpt>
      <trkpt lat="48.68424" lon="-3.56184">
        <ele>33.5</ele>
        <time>2019-07-11T14:35:17Z</time>
      </trkpt>
      <trkpt lat="48.68423" lon="-3.56186">
        <ele>33.7</ele>
        <time>2019-07-11T14:35:18Z</time>
      </trkpt>
      <trkpt lat="48.68421" lon="-3.56179">
        <ele>35.5</ele>
        <time>2019-07-11T14:35:22Z</time>
      </trkpt>
      <trkpt lat="48.6842" lon="-3.56177">
        <ele>36</ele>
        <time>2019-07-11T14:35:23Z</time>
      </trkpt>
      <trkpt lat="48.6842" lon="-3.56174">
        <ele>37</ele>
        <time>2019-07-11T14:35:24Z</time>
      </trkpt>
      <trkpt lat="48.68419" lon="-3.56171">
        <ele>37.2</ele>
        <time>2019-07-11T14:35:25Z</time>
      </trkpt>
      <trkpt lat="48.68417" lon="-3.56169">
        <ele>37</ele>
        <time>2019-07-11T14:35:26Z</time>
      </trkpt>
      <trkpt lat="48.68415" lon="-3.56166">
        <ele>36.6</ele>
        <time>2019-07-11T14:35:27Z</time>
      </trkpt>
      <trkpt lat="48.68413" lon="-3.56164">
        <ele>36.6</ele>
        <time>2019-07-11T14:35:28Z</time>
      </trkpt>
      <trkpt lat="48.68412" lon="-3.56162">
        <ele>36.8</ele>
        <time>2019-07-11T14:35:29Z</time>
      </trkpt>
      <trkpt lat="48.6841" lon="-3.5616">
        <ele>36.3</ele>
        <time>2019-07-11T14:35:30Z</time>
      </trkpt>
      <trkpt lat="48.68408" lon="-3.56158">
        <ele>35.3</ele>
        <time>2019-07-11T14:35:31Z</time>
      </trkpt>
      <trkpt lat="48.68407" lon="-3.56155">
        <ele>34.7</ele>
        <time>2019-07-11T14:35:32Z</time>
      </trkpt>
      <trkpt lat="48.68405" lon="-3.56154">
        <ele>34.5</ele>
        <time>2019-07-11T14:35:33Z</time>
      </trkpt>
      <trkpt lat="48.68403" lon="-3.56154">
        <ele>34.4</ele>
        <time>2019-07-11T14:35:34Z</time>
      </trkpt>
      <trkpt lat="48.68404" lon="-3.56163">
        <ele>33.2</ele>
        <time>2019-07-11T14:35:56Z</time>
      </trkpt>
      <trkpt lat="48.68404" lon="-3.56167">
        <ele>33.4</ele>
        <time>2019-07-11T14:35:57Z</time>
      </trkpt>
      <trkpt lat="48.68404" lon="-3.56169">
        <ele>33.7</ele>
        <time>2019-07-11T14:35:58Z</time>
      </trkpt>
      <trkpt lat="48.68405" lon="-3.56172">
        <ele>33.9</ele>
        <time>2019-07-11T14:35:59Z</time>
      </trkpt>
      <trkpt lat="48.68405" lon="-3.56175">
        <ele>34.2</ele>
        <time>2019-07-11T14:36:00Z</time>
      </trkpt>
      <trkpt lat="48.68406" lon="-3.56179">
        <ele>34.3</ele>
        <time>2019-07-11T14:36:01Z</time>
      </trkpt>
      <trkpt lat="48.68407" lon="-3.56182">
        <ele>34.3</ele>
        <time>2019-07-11T14:36:02Z</time>
      </trkpt>
      <trkpt lat="48.68408" lon="-3.56186">
        <ele>34.7</ele>
        <time>2019-07-11T14:36:03Z</time>
      </trkpt>
      <trkpt lat="48.68409" lon="-3.56191">
        <ele>34.8</ele>
        <time>2019-07-11T14:36:04Z</time>
      </trkpt>
      <trkpt lat="48.68411" lon="-3.56194">
        <ele>34.8</ele>
        <time>2019-07-11T14:36:05Z</time>
      </trkpt>
      <trkpt lat="48.68412" lon="-3.56198">
        <ele>34.9</ele>
        <time>2019-07-11T14:36:06Z</time>
      </trkpt>
      <trkpt lat="48.68413" lon="-3.56203">
        <ele>34.9</ele>
        <time>2019-07-11T14:36:07Z</time>
      </trkpt>
      <trkpt lat="48.68414" lon="-3.56208">
        <ele>35.2</ele>
        <time>2019-07-11T14:36:08Z</time>
      </trkpt>
      <trkpt lat="48.68415" lon="-3.56212">
        <ele>35.2</ele>
        <time>2019-07-11T14:36:09Z</time>
      </trkpt>
      <trkpt lat="48.68416" lon="-3.56217">
        <ele>35.2</ele>
        <time>2019-07-11T14:36:10Z</time>
      </trkpt>
      <trkpt lat="48.68417" lon="-3.56221">
        <ele>35.1</ele>
        <time>2019-07-11T14:36:11Z</time>
      </trkpt>
      <trkpt lat="48.68419" lon="-3.56225">
        <ele>34.7</ele>
        <time>2019-07-11T14:36:12Z</time>
      </trkpt>
      <trkpt lat="48.6842" lon="-3.56231">
        <ele>34.4</ele>
        <time>2019-07-11T14:36:13Z</time>
      </trkpt>
      <trkpt lat="48.6842" lon="-3.56236">
        <ele>34.3</ele>
        <time>2019-07-11T14:36:14Z</time>
      </trkpt>
      <trkpt lat="48.68422" lon="-3.56239">
        <ele>35</ele>
        <time>2019-07-11T14:36:15Z</time>
      </trkpt>
      <trkpt lat="48.68423" lon="-3.56241">
        <ele>36</ele>
        <time>2019-07-11T14:36:16Z</time>
      </trkpt>
      <trkpt lat="48.68425" lon="-3.56245">
        <ele>36.3</ele>
        <time>2019-07-11T14:36:17Z</time>
      </trkpt>
      <trkpt lat="48.68427" lon="-3.56249">
        <ele>35.7</ele>
        <time>2019-07-11T14:36:18Z</time>
      </trkpt>
      <trkpt lat="48.68427" lon="-3.56254">
        <ele>35.3</ele>
        <time>2019-07-11T14:36:19Z</time>
      </trkpt>
      <trkpt lat="48.68428" lon="-3.5626">
        <ele>33.9</ele>
        <time>2019-07-11T14:36:20Z</time>
      </trkpt>
      <trkpt lat="48.68428" lon="-3.56265">
        <ele>32.8</ele>
        <time>2019-07-11T14:36:21Z</time>
      </trkpt>
      <trkpt lat="48.68429" lon="-3.5627">
        <ele>32.5</ele>
        <time>2019-07-11T14:36:22Z</time>
      </trkpt>
      <trkpt lat="48.6843" lon="-3.56274">
        <ele>32.3</ele>
        <time>2019-07-11T14:36:23Z</time>
      </trkpt>
      <trkpt lat="48.68432" lon="-3.56279">
        <ele>32.2</ele>
        <time>2019-07-11T14:36:24Z</time>
      </trkpt>
      <trkpt lat="48.68432" lon="-3.56284">
        <ele>32.1</ele>
        <time>2019-07-11T14:36:25Z</time>
      </trkpt>
      <trkpt lat="48.68433" lon="-3.5629">
        <ele>32.2</ele>
        <time>2019-07-11T14:36:26Z</time>
      </trkpt>
      <trkpt lat="48.68434" lon="-3.56295">
        <ele>32.5</ele>
        <time>2019-07-11T14:36:27Z</time>
      </trkpt>
      <trkpt lat="48.68435" lon="-3.56301">
        <ele>32.5</ele>
        <time>2019-07-11T14:36:28Z</time>
      </trkpt>
      <trkpt lat="48.68436" lon="-3.56307">
        <ele>32.5</ele>
        <time>2019-07-11T14:36:29Z</time>
      </trkpt>
      <trkpt lat="48.68437" lon="-3.56313">
        <ele>32.7</ele>
        <time>2019-07-11T14:36:30Z</time>
      </trkpt>
      <trkpt lat="48.68438" lon="-3.56318">
        <ele>33</ele>
        <time>2019-07-11T14:36:31Z</time>
      </trkpt>
      <trkpt lat="48.68439" lon="-3.56323">
        <ele>33.5</ele>
        <time>2019-07-11T14:36:32Z</time>
      </trkpt>
      <trkpt lat="48.6844" lon="-3.56327">
        <ele>34.1</ele>
        <time>2019-07-11T14:36:33Z</time>
      </trkpt>
      <trkpt lat="48.68441" lon="-3.56332">
        <ele>34.1</ele>
        <time>2019-07-11T14:36:34Z</time>
      </trkpt>
      <trkpt lat="48.68442" lon="-3.56338">
        <ele>34.3</ele>
        <time>2019-07-11T14:36:35Z</time>
      </trkpt>
      <trkpt lat="48.68443" lon="-3.56342">
        <ele>34.4</ele>
        <time>2019-07-11T14:36:36Z</time>
      </trkpt>
      <trkpt lat="48.68444" lon="-3.56347">
        <ele>34.3</ele>
        <time>2019-07-11T14:36:37Z</time>
      </trkpt>
      <trkpt lat="48.68444" lon="-3.56352">
        <ele>33.7</ele>
        <time>2019-07-11T14:36:38Z</time>
      </trkpt>
      <trkpt lat="48.68445" lon="-3.56357">
        <ele>33.3</ele>
        <time>2019-07-11T14:36:39Z</time>
      </trkpt>
      <trkpt lat="48.68445" lon="-3.56362">
        <ele>33.3</ele>
        <time>2019-07-11T14:36:40Z</time>
      </trkpt>
      <trkpt lat="48.68445" lon="-3.56367">
        <ele>33.1</ele>
        <time>2019-07-11T14:36:41Z</time>
      </trkpt>
      <trkpt lat="48.68445" lon="-3.56372">
        <ele>33</ele>
        <time>2019-07-11T14:36:42Z</time>
      </trkpt>
      <trkpt lat="48.68445" lon="-3.56376">
        <ele>32.8</ele>
        <time>2019-07-11T14:36:43Z</time>
      </trkpt>
      <trkpt lat="48.68445" lon="-3.5638">
        <ele>32.6</ele>
        <time>2019-07-11T14:36:44Z</time>
      </trkpt>
      <trkpt lat="48.68444" lon="-3.56385">
        <ele>32.4</ele>
        <time>2019-07-11T14:36:45Z</time>
      </trkpt>
      <trkpt lat="48.68444" lon="-3.56389">
        <ele>31.8</ele>
        <time>2019-07-11T14:36:46Z</time>
      </trkpt>
      <trkpt lat="48.68443" lon="-3.56394">
        <ele>31.8</ele>
        <time>2019-07-11T14:36:47Z</time>
      </trkpt>
      <trkpt lat="48.68442" lon="-3.56398">
        <ele>32.1</ele>
        <time>2019-07-11T14:36:48Z</time>
      </trkpt>
      <trkpt lat="48.68441" lon="-3.56403">
        <ele>32.1</ele>
        <time>2019-07-11T14:36:49Z</time>
      </trkpt>
      <trkpt lat="48.6844" lon="-3.56409">
        <ele>32.4</ele>
        <time>2019-07-11T14:36:50Z</time>
      </trkpt>
      <trkpt lat="48.6844" lon="-3.56414">
        <ele>32.6</ele>
        <time>2019-07-11T14:36:51Z</time>
      </trkpt>
      <trkpt lat="48.68439" lon="-3.56419">
        <ele>32.8</ele>
        <time>2019-07-11T14:36:52Z</time>
      </trkpt>
      <trkpt lat="48.68438" lon="-3.56425">
        <ele>32.2</ele>
        <time>2019-07-11T14:36:53Z</time>
      </trkpt>
      <trkpt lat="48.68438" lon="-3.56431">
        <ele>31.6</ele>
        <time>2019-07-11T14:36:54Z</time>
      </trkpt>
      <trkpt lat="48.68438" lon="-3.56438">
        <ele>31.4</ele>
        <time>2019-07-11T14:36:55Z</time>
      </trkpt>
      <trkpt lat="48.68438" lon="-3.56444">
        <ele>31.3</ele>
        <time>2019-07-11T14:36:56Z</time>
      </trkpt>
      <trkpt lat="48.68437" lon="-3.56451">
        <ele>30.6</ele>
        <time>2019-07-11T14:36:57Z</time>
      </trkpt>
      <trkpt lat="48.68436" lon="-3.56458">
        <ele>29.4</ele>
        <time>2019-07-11T14:36:58Z</time>
      </trkpt>
      <trkpt lat="48.68435" lon="-3.56465">
        <ele>29.2</ele>
        <time>2019-07-11T14:36:59Z</time>
      </trkpt>
      <trkpt lat="48.68433" lon="-3.56472">
        <ele>28.6</ele>
        <time>2019-07-11T14:37:00Z</time>
      </trkpt>
      <trkpt lat="48.68432" lon="-3.5648">
        <ele>28.4</ele>
        <time>2019-07-11T14:37:01Z</time>
      </trkpt>
      <trkpt lat="48.6843" lon="-3.56487">
        <ele>28.2</ele>
        <time>2019-07-11T14:37:02Z</time>
      </trkpt>
      <trkpt lat="48.68429" lon="-3.56495">
        <ele>28.4</ele>
        <time>2019-07-11T14:37:03Z</time>
      </trkpt>
      <trkpt lat="48.68428" lon="-3.56502">
        <ele>28.1</ele>
        <time>2019-07-11T14:37:04Z</time>
      </trkpt>
      <trkpt lat="48.68427" lon="-3.56508">
        <ele>28.2</ele>
        <time>2019-07-11T14:37:05Z</time>
      </trkpt>
      <trkpt lat="48.68425" lon="-3.56515">
        <ele>28.1</ele>
        <time>2019-07-11T14:37:06Z</time>
      </trkpt>
      <trkpt lat="48.68424" lon="-3.56521">
        <ele>28.1</ele>
        <time>2019-07-11T14:37:07Z</time>
      </trkpt>
      <trkpt lat="48.68423" lon="-3.56526">
        <ele>28.6</ele>
        <time>2019-07-11T14:37:08Z</time>
      </trkpt>
      <trkpt lat="48.68422" lon="-3.56531">
        <ele>29.3</ele>
        <time>2019-07-11T14:37:09Z</time>
      </trkpt>
      <trkpt lat="48.68422" lon="-3.56536">
        <ele>29.6</ele>
        <time>2019-07-11T14:37:10Z</time>
      </trkpt>
      <trkpt lat="48.68421" lon="-3.56541">
        <ele>29.9</ele>
        <time>2019-07-11T14:37:11Z</time>
      </trkpt>
      <trkpt lat="48.68421" lon="-3.56546">
        <ele>30.3</ele>
        <time>2019-07-11T14:37:12Z</time>
      </trkpt>
      <trkpt lat="48.68421" lon="-3.5655">
        <ele>30.8</ele>
        <time>2019-07-11T14:37:13Z</time>
      </trkpt>
      <trkpt lat="48.68421" lon="-3.56554">
        <ele>31.3</ele>
        <time>2019-07-11T14:37:14Z</time>
      </trkpt>
      <trkpt lat="48.6842" lon="-3.56558">
        <ele>31.8</ele>
        <time>2019-07-11T14:37:15Z</time>
      </trkpt>
      <trkpt lat="48.68419" lon="-3.56561">
        <ele>32</ele>
        <time>2019-07-11T14:37:16Z</time>
      </trkpt>
      <trkpt lat="48.68419" lon="-3.56565">
        <ele>31.7</ele>
        <time>2019-07-11T14:37:17Z</time>
      </trkpt>
      <trkpt lat="48.68418" lon="-3.56569">
        <ele>31.7</ele>
        <time>2019-07-11T14:37:18Z</time>
      </trkpt>
      <trkpt lat="48.68417" lon="-3.56572">
        <ele>31.6</ele>
        <time>2019-07-11T14:37:19Z</time>
      </trkpt>
      <trkpt lat="48.68417" lon="-3.56577">
        <ele>31.9</ele>
        <time>2019-07-11T14:37:20Z</time>
      </trkpt>
      <trkpt lat="48.68416" lon="-3.56581">
        <ele>31.9</ele>
        <time>2019-07-11T14:37:21Z</time>
      </trkpt>
      <trkpt lat="48.68416" lon="-3.56585">
        <ele>31.8</ele>
        <time>2019-07-11T14:37:22Z</time>
      </trkpt>
      <trkpt lat="48.68415" lon="-3.56589">
        <ele>31.8</ele>
        <time>2019-07-11T14:37:23Z</time>
      </trkpt>
      <trkpt lat="48.68413" lon="-3.56593">
        <ele>31.7</ele>
        <time>2019-07-11T14:37:24Z</time>
      </trkpt>
      <trkpt lat="48.68412" lon="-3.56598">
        <ele>31.1</ele>
        <time>2019-07-11T14:37:25Z</time>
      </trkpt>
      <trkpt lat="48.68411" lon="-3.56602">
        <ele>30.8</ele>
        <time>2019-07-11T14:37:26Z</time>
      </trkpt>
      <trkpt lat="48.6841" lon="-3.56606">
        <ele>30.2</ele>
        <time>2019-07-11T14:37:27Z</time>
      </trkpt>
      <trkpt lat="48.68408" lon="-3.56609">
        <ele>29.8</ele>
        <time>2019-07-11T14:37:28Z</time>
      </trkpt>
      <trkpt lat="48.68406" lon="-3.56613">
        <ele>29.6</ele>
        <time>2019-07-11T14:37:29Z</time>
      </trkpt>
      <trkpt lat="48.68404" lon="-3.56616">
        <ele>29.2</ele>
        <time>2019-07-11T14:37:30Z</time>
      </trkpt>
      <trkpt lat="48.68403" lon="-3.5662">
        <ele>28.6</ele>
        <time>2019-07-11T14:37:31Z</time>
      </trkpt>
      <trkpt lat="48.68401" lon="-3.56623">
        <ele>28.2</ele>
        <time>2019-07-11T14:37:32Z</time>
      </trkpt>
      <trkpt lat="48.684" lon="-3.56626">
        <ele>28.7</ele>
        <time>2019-07-11T14:37:33Z</time>
      </trkpt>
      <trkpt lat="48.68398" lon="-3.56628">
        <ele>28.6</ele>
        <time>2019-07-11T14:37:34Z</time>
      </trkpt>
      <trkpt lat="48.68396" lon="-3.56631">
        <ele>28.5</ele>
        <time>2019-07-11T14:37:35Z</time>
      </trkpt>
      <trkpt lat="48.68395" lon="-3.56633">
        <ele>28.1</ele>
        <time>2019-07-11T14:37:36Z</time>
      </trkpt>
      <trkpt lat="48.68393" lon="-3.56635">
        <ele>27.8</ele>
        <time>2019-07-11T14:37:37Z</time>
      </trkpt>
      <trkpt lat="48.68391" lon="-3.56637">
        <ele>27.6</ele>
        <time>2019-07-11T14:37:38Z</time>
      </trkpt>
      <trkpt lat="48.6839" lon="-3.5664">
        <ele>28.1</ele>
        <time>2019-07-11T14:37:39Z</time>
      </trkpt>
      <trkpt lat="48.68388" lon="-3.56642">
        <ele>28.5</ele>
        <time>2019-07-11T14:37:40Z</time>
      </trkpt>
      <trkpt lat="48.68386" lon="-3.56644">
        <ele>29</ele>
        <time>2019-07-11T14:37:41Z</time>
      </trkpt>
      <trkpt lat="48.68384" lon="-3.56645">
        <ele>29.3</ele>
        <time>2019-07-11T14:37:42Z</time>
      </trkpt>
      <trkpt lat="48.68382" lon="-3.56647">
        <ele>29.7</ele>
        <time>2019-07-11T14:37:43Z</time>
      </trkpt>
      <trkpt lat="48.6838" lon="-3.56648">
        <ele>30.3</ele>
        <time>2019-07-11T14:37:44Z</time>
      </trkpt>
      <trkpt lat="48.68377" lon="-3.5665">
        <ele>31</ele>
        <time>2019-07-11T14:37:45Z</time>
      </trkpt>
      <trkpt lat="48.68375" lon="-3.56652">
        <ele>31.5</ele>
        <time>2019-07-11T14:37:46Z</time>
      </trkpt>
      <trkpt lat="48.68372" lon="-3.56654">
        <ele>31.7</ele>
        <time>2019-07-11T14:37:47Z</time>
      </trkpt>
      <trkpt lat="48.6837" lon="-3.56657">
        <ele>31.5</ele>
        <time>2019-07-11T14:37:48Z</time>
      </trkpt>
      <trkpt lat="48.68367" lon="-3.56659">
        <ele>31.5</ele>
        <time>2019-07-11T14:37:49Z</time>
      </trkpt>
      <trkpt lat="48.68365" lon="-3.5666">
        <ele>31.6</ele>
        <time>2019-07-11T14:37:50Z</time>
      </trkpt>
      <trkpt lat="48.68362" lon="-3.56661">
        <ele>31.6</ele>
        <time>2019-07-11T14:37:51Z</time>
      </trkpt>
      <trkpt lat="48.6836" lon="-3.56663">
        <ele>31.7</ele>
        <time>2019-07-11T14:37:52Z</time>
      </trkpt>
      <trkpt lat="48.68357" lon="-3.56663">
        <ele>32.5</ele>
        <time>2019-07-11T14:37:53Z</time>
      </trkpt>
      <trkpt lat="48.68354" lon="-3.56664">
        <ele>33</ele>
        <time>2019-07-11T14:37:54Z</time>
      </trkpt>
      <trkpt lat="48.68352" lon="-3.56665">
        <ele>33</ele>
        <time>2019-07-11T14:37:55Z</time>
      </trkpt>
      <trkpt lat="48.68349" lon="-3.56666">
        <ele>32.9</ele>
        <time>2019-07-11T14:37:56Z</time>
      </trkpt>
      <trkpt lat="48.68346" lon="-3.56667">
        <ele>32.6</ele>
        <time>2019-07-11T14:37:57Z</time>
      </trkpt>
      <trkpt lat="48.68343" lon="-3.56668">
        <ele>32.1</ele>
        <time>2019-07-11T14:37:58Z</time>
      </trkpt>
      <trkpt lat="48.6834" lon="-3.56668">
        <ele>31.8</ele>
        <time>2019-07-11T14:37:59Z</time>
      </trkpt>
      <trkpt lat="48.68338" lon="-3.56669">
        <ele>31.5</ele>
        <time>2019-07-11T14:38:00Z</time>
      </trkpt>
      <trkpt lat="48.68335" lon="-3.56669">
        <ele>31.6</ele>
        <time>2019-07-11T14:38:01Z</time>
      </trkpt>
      <trkpt lat="48.68332" lon="-3.5667">
        <ele>31.9</ele>
        <time>2019-07-11T14:38:02Z</time>
      </trkpt>
      <trkpt lat="48.6833" lon="-3.5667">
        <ele>32.1</ele>
        <time>2019-07-11T14:38:03Z</time>
      </trkpt>
      <trkpt lat="48.68327" lon="-3.56671">
        <ele>32</ele>
        <time>2019-07-11T14:38:04Z</time>
      </trkpt>
      <trkpt lat="48.68324" lon="-3.56671">
        <ele>31.7</ele>
        <time>2019-07-11T14:38:05Z</time>
      </trkpt>
      <trkpt lat="48.68321" lon="-3.56672">
        <ele>31.7</ele>
        <time>2019-07-11T14:38:06Z</time>
      </trkpt>
      <trkpt lat="48.68318" lon="-3.56672">
        <ele>31.8</ele>
        <time>2019-07-11T14:38:07Z</time>
      </trkpt>
      <trkpt lat="48.68315" lon="-3.56673">
        <ele>32.3</ele>
        <time>2019-07-11T14:38:08Z</time>
      </trkpt>
      <trkpt lat="48.68312" lon="-3.56673">
        <ele>32.4</ele>
        <time>2019-07-11T14:38:09Z</time>
      </trkpt>
      <trkpt lat="48.68309" lon="-3.56674">
        <ele>32.3</ele>
        <time>2019-07-11T14:38:10Z</time>
      </trkpt>
      <trkpt lat="48.68305" lon="-3.56674">
        <ele>32.8</ele>
        <time>2019-07-11T14:38:11Z</time>
      </trkpt>
      <trkpt lat="48.68302" lon="-3.56674">
        <ele>33.2</ele>
        <time>2019-07-11T14:38:12Z</time>
      </trkpt>
      <trkpt lat="48.68298" lon="-3.56675">
        <ele>33.9</ele>
        <time>2019-07-11T14:38:13Z</time>
      </trkpt>
      <trkpt lat="48.68295" lon="-3.56676">
        <ele>34.3</ele>
        <time>2019-07-11T14:38:14Z</time>
      </trkpt>
      <trkpt lat="48.68292" lon="-3.56677">
        <ele>34.9</ele>
        <time>2019-07-11T14:38:15Z</time>
      </trkpt>
      <trkpt lat="48.68289" lon="-3.56678">
        <ele>34.4</ele>
        <time>2019-07-11T14:38:16Z</time>
      </trkpt>
      <trkpt lat="48.68286" lon="-3.56679">
        <ele>34.8</ele>
        <time>2019-07-11T14:38:17Z</time>
      </trkpt>
      <trkpt lat="48.68282" lon="-3.56679">
        <ele>35</ele>
        <time>2019-07-11T14:38:18Z</time>
      </trkpt>
      <trkpt lat="48.6828" lon="-3.5668">
        <ele>35.4</ele>
        <time>2019-07-11T14:38:19Z</time>
      </trkpt>
      <trkpt lat="48.68277" lon="-3.56681">
        <ele>35.6</ele>
        <time>2019-07-11T14:38:20Z</time>
      </trkpt>
      <trkpt lat="48.68274" lon="-3.56681">
        <ele>35.3</ele>
        <time>2019-07-11T14:38:21Z</time>
      </trkpt>
      <trkpt lat="48.68271" lon="-3.56682">
        <ele>34.9</ele>
        <time>2019-07-11T14:38:22Z</time>
      </trkpt>
      <trkpt lat="48.68267" lon="-3.56683">
        <ele>34.2</ele>
        <time>2019-07-11T14:38:23Z</time>
      </trkpt>
      <trkpt lat="48.68264" lon="-3.56684">
        <ele>33.9</ele>
        <time>2019-07-11T14:38:24Z</time>
      </trkpt>
      <trkpt lat="48.6826" lon="-3.56686">
        <ele>33.5</ele>
        <time>2019-07-11T14:38:25Z</time>
      </trkpt>
      <trkpt lat="48.68257" lon="-3.56687">
        <ele>32.9</ele>
        <time>2019-07-11T14:38:26Z</time>
      </trkpt>
      <trkpt lat="48.68253" lon="-3.5669">
        <ele>32.8</ele>
        <time>2019-07-11T14:38:27Z</time>
      </trkpt>
      <trkpt lat="48.6825" lon="-3.56692">
        <ele>33.1</ele>
        <time>2019-07-11T14:38:28Z</time>
      </trkpt>
      <trkpt lat="48.68246" lon="-3.56694">
        <ele>33.6</ele>
        <time>2019-07-11T14:38:29Z</time>
      </trkpt>
      <trkpt lat="48.68242" lon="-3.56696">
        <ele>34.4</ele>
        <time>2019-07-11T14:38:30Z</time>
      </trkpt>
      <trkpt lat="48.68239" lon="-3.56697">
        <ele>35.8</ele>
        <time>2019-07-11T14:38:31Z</time>
      </trkpt>
      <trkpt lat="48.68235" lon="-3.56699">
        <ele>37.4</ele>
        <time>2019-07-11T14:38:32Z</time>
      </trkpt>
      <trkpt lat="48.68231" lon="-3.56701">
        <ele>39.4</ele>
        <time>2019-07-11T14:38:33Z</time>
      </trkpt>
      <trkpt lat="48.68227" lon="-3.56702">
        <ele>41.2</ele>
        <time>2019-07-11T14:38:34Z</time>
      </trkpt>
      <trkpt lat="48.68224" lon="-3.56704">
        <ele>42.6</ele>
        <time>2019-07-11T14:38:35Z</time>
      </trkpt>
      <trkpt lat="48.68221" lon="-3.56706">
        <ele>43.4</ele>
        <time>2019-07-11T14:38:36Z</time>
      </trkpt>
      <trkpt lat="48.68218" lon="-3.56708">
        <ele>43.6</ele>
        <time>2019-07-11T14:38:37Z</time>
      </trkpt>
      <trkpt lat="48.68214" lon="-3.56711">
        <ele>44.2</ele>
        <time>2019-07-11T14:38:38Z</time>
      </trkpt>
      <trkpt lat="48.68211" lon="-3.56714">
        <ele>44.5</ele>
        <time>2019-07-11T14:38:39Z</time>
      </trkpt>
      <trkpt lat="48.68209" lon="-3.56717">
        <ele>44.3</ele>
        <time>2019-07-11T14:38:40Z</time>
      </trkpt>
      <trkpt lat="48.68206" lon="-3.56721">
        <ele>44.3</ele>
        <time>2019-07-11T14:38:41Z</time>
      </trkpt>
      <trkpt lat="48.68202" lon="-3.56724">
        <ele>43.9</ele>
        <time>2019-07-11T14:38:42Z</time>
      </trkpt>
      <trkpt lat="48.68199" lon="-3.56727">
        <ele>43.2</ele>
        <time>2019-07-11T14:38:43Z</time>
      </trkpt>
      <trkpt lat="48.68196" lon="-3.56731">
        <ele>43.5</ele>
        <time>2019-07-11T14:38:44Z</time>
      </trkpt>
      <trkpt lat="48.68192" lon="-3.56735">
        <ele>43.3</ele>
        <time>2019-07-11T14:38:45Z</time>
      </trkpt>
      <trkpt lat="48.68189" lon="-3.56737">
        <ele>42.7</ele>
        <time>2019-07-11T14:38:46Z</time>
      </trkpt>
      <trkpt lat="48.68185" lon="-3.5674">
        <ele>41.9</ele>
        <time>2019-07-11T14:38:47Z</time>
      </trkpt>
      <trkpt lat="48.68181" lon="-3.56743">
        <ele>40.7</ele>
        <time>2019-07-11T14:38:48Z</time>
      </trkpt>
      <trkpt lat="48.68177" lon="-3.56747">
        <ele>39.7</ele>
        <time>2019-07-11T14:38:49Z</time>
      </trkpt>
      <trkpt lat="48.68173" lon="-3.5675">
        <ele>38</ele>
        <time>2019-07-11T14:38:50Z</time>
      </trkpt>
      <trkpt lat="48.68169" lon="-3.56753">
        <ele>36.7</ele>
        <time>2019-07-11T14:38:51Z</time>
      </trkpt>
      <trkpt lat="48.68166" lon="-3.56756">
        <ele>35.6</ele>
        <time>2019-07-11T14:38:52Z</time>
      </trkpt>
      <trkpt lat="48.68161" lon="-3.56759">
        <ele>35</ele>
        <time>2019-07-11T14:38:53Z</time>
      </trkpt>
      <trkpt lat="48.68158" lon="-3.56762">
        <ele>34.6</ele>
        <time>2019-07-11T14:38:54Z</time>
      </trkpt>
      <trkpt lat="48.68155" lon="-3.56765">
        <ele>34.6</ele>
        <time>2019-07-11T14:38:55Z</time>
      </trkpt>
      <trkpt lat="48.68152" lon="-3.56768">
        <ele>35.2</ele>
        <time>2019-07-11T14:38:56Z</time>
      </trkpt>
      <trkpt lat="48.68148" lon="-3.5677">
        <ele>35.3</ele>
        <time>2019-07-11T14:38:57Z</time>
      </trkpt>
      <trkpt lat="48.68145" lon="-3.56773">
        <ele>35.3</ele>
        <time>2019-07-11T14:38:58Z</time>
      </trkpt>
      <trkpt lat="48.68141" lon="-3.56776">
        <ele>35.6</ele>
        <time>2019-07-11T14:38:59Z</time>
      </trkpt>
      <trkpt lat="48.68138" lon="-3.56779">
        <ele>35.2</ele>
        <time>2019-07-11T14:39:00Z</time>
      </trkpt>
      <trkpt lat="48.68134" lon="-3.56782">
        <ele>34.8</ele>
        <time>2019-07-11T14:39:01Z</time>
      </trkpt>
      <trkpt lat="48.68131" lon="-3.56784">
        <ele>34.8</ele>
        <time>2019-07-11T14:39:02Z</time>
      </trkpt>
      <trkpt lat="48.68127" lon="-3.56786">
        <ele>34.6</ele>
        <time>2019-07-11T14:39:03Z</time>
      </trkpt>
      <trkpt lat="48.68124" lon="-3.56788">
        <ele>34.3</ele>
        <time>2019-07-11T14:39:04Z</time>
      </trkpt>
      <trkpt lat="48.6812" lon="-3.5679">
        <ele>34.2</ele>
        <time>2019-07-11T14:39:05Z</time>
      </trkpt>
      <trkpt lat="48.68117" lon="-3.56792">
        <ele>34</ele>
        <time>2019-07-11T14:39:06Z</time>
      </trkpt>
      <trkpt lat="48.68113" lon="-3.56794">
        <ele>33.7</ele>
        <time>2019-07-11T14:39:07Z</time>
      </trkpt>
      <trkpt lat="48.6811" lon="-3.56795">
        <ele>33.4</ele>
        <time>2019-07-11T14:39:08Z</time>
      </trkpt>
      <trkpt lat="48.68106" lon="-3.56797">
        <ele>33</ele>
        <time>2019-07-11T14:39:09Z</time>
      </trkpt>
      <trkpt lat="48.68103" lon="-3.56797">
        <ele>32.5</ele>
        <time>2019-07-11T14:39:10Z</time>
      </trkpt>
      <trkpt lat="48.681" lon="-3.56798">
        <ele>31.8</ele>
        <time>2019-07-11T14:39:11Z</time>
      </trkpt>
      <trkpt lat="48.68096" lon="-3.56799">
        <ele>31.3</ele>
        <time>2019-07-11T14:39:12Z</time>
      </trkpt>
      <trkpt lat="48.68093" lon="-3.56799">
        <ele>30.6</ele>
        <time>2019-07-11T14:39:13Z</time>
      </trkpt>
      <trkpt lat="48.6809" lon="-3.56799">
        <ele>30.3</ele>
        <time>2019-07-11T14:39:14Z</time>
      </trkpt>
      <trkpt lat="48.68086" lon="-3.568">
        <ele>30.3</ele>
        <time>2019-07-11T14:39:15Z</time>
      </trkpt>
      <trkpt lat="48.68083" lon="-3.56801">
        <ele>30.2</ele>
        <time>2019-07-11T14:39:16Z</time>
      </trkpt>
      <trkpt lat="48.6808" lon="-3.56801">
        <ele>30.4</ele>
        <time>2019-07-11T14:39:17Z</time>
      </trkpt>
      <trkpt lat="48.68077" lon="-3.56802">
        <ele>30</ele>
        <time>2019-07-11T14:39:18Z</time>
      </trkpt>
      <trkpt lat="48.68074" lon="-3.56802">
        <ele>30.1</ele>
        <time>2019-07-11T14:39:19Z</time>
      </trkpt>
      <trkpt lat="48.6807" lon="-3.56803">
        <ele>30.3</ele>
        <time>2019-07-11T14:39:20Z</time>
      </trkpt>
      <trkpt lat="48.68067" lon="-3.56804">
        <ele>30.9</ele>
        <time>2019-07-11T14:39:21Z</time>
      </trkpt>
      <trkpt lat="48.68064" lon="-3.56805">
        <ele>31</ele>
        <time>2019-07-11T14:39:22Z</time>
      </trkpt>
      <trkpt lat="48.68061" lon="-3.56806">
        <ele>31.2</ele>
        <time>2019-07-11T14:39:23Z</time>
      </trkpt>
      <trkpt lat="48.68057" lon="-3.56807">
        <ele>31.6</ele>
        <time>2019-07-11T14:39:24Z</time>
      </trkpt>
      <trkpt lat="48.68054" lon="-3.56809">
        <ele>32.1</ele>
        <time>2019-07-11T14:39:25Z</time>
      </trkpt>
      <trkpt lat="48.68051" lon="-3.5681">
        <ele>32.8</ele>
        <time>2019-07-11T14:39:26Z</time>
      </trkpt>
      <trkpt lat="48.68049" lon="-3.56812">
        <ele>33.3</ele>
        <time>2019-07-11T14:39:27Z</time>
      </trkpt>
      <trkpt lat="48.68046" lon="-3.56814">
        <ele>33.7</ele>
        <time>2019-07-11T14:39:28Z</time>
      </trkpt>
      <trkpt lat="48.68043" lon="-3.56816">
        <ele>34</ele>
        <time>2019-07-11T14:39:29Z</time>
      </trkpt>
      <trkpt lat="48.68041" lon="-3.56818">
        <ele>34.5</ele>
        <time>2019-07-11T14:39:30Z</time>
      </trkpt>
      <trkpt lat="48.68037" lon="-3.5682">
        <ele>35.2</ele>
        <time>2019-07-11T14:39:31Z</time>
      </trkpt>
      <trkpt lat="48.68035" lon="-3.56822">
        <ele>35.8</ele>
        <time>2019-07-11T14:39:32Z</time>
      </trkpt>
      <trkpt lat="48.68032" lon="-3.56824">
        <ele>36.3</ele>
        <time>2019-07-11T14:39:33Z</time>
      </trkpt>
      <trkpt lat="48.68029" lon="-3.56826">
        <ele>37</ele>
        <time>2019-07-11T14:39:34Z</time>
      </trkpt>
      <trkpt lat="48.68027" lon="-3.56828">
        <ele>37.5</ele>
        <time>2019-07-11T14:39:35Z</time>
      </trkpt>
      <trkpt lat="48.68024" lon="-3.56831">
        <ele>37.9</ele>
        <time>2019-07-11T14:39:36Z</time>
      </trkpt>
      <trkpt lat="48.6802" lon="-3.56833">
        <ele>38.3</ele>
        <time>2019-07-11T14:39:37Z</time>
      </trkpt>
      <trkpt lat="48.68015" lon="-3.56836">
        <ele>38.9</ele>
        <time>2019-07-11T14:39:38Z</time>
      </trkpt>
      <trkpt lat="48.68011" lon="-3.56839">
        <ele>39.2</ele>
        <time>2019-07-11T14:39:39Z</time>
      </trkpt>
      <trkpt lat="48.68007" lon="-3.56842">
        <ele>40</ele>
        <time>2019-07-11T14:39:40Z</time>
      </trkpt>
      <trkpt lat="48.68003" lon="-3.56846">
        <ele>40.4</ele>
        <time>2019-07-11T14:39:41Z</time>
      </trkpt>
      <trkpt lat="48.67998" lon="-3.5685">
        <ele>41</ele>
        <time>2019-07-11T14:39:42Z</time>
      </trkpt>
      <trkpt lat="48.67993" lon="-3.56855">
        <ele>41.3</ele>
        <time>2019-07-11T14:39:43Z</time>
      </trkpt>
      <trkpt lat="48.67989" lon="-3.56859">
        <ele>41.6</ele>
        <time>2019-07-11T14:39:44Z</time>
      </trkpt>
      <trkpt lat="48.67984" lon="-3.56863">
        <ele>42.1</ele>
        <time>2019-07-11T14:39:45Z</time>
      </trkpt>
      <trkpt lat="48.67979" lon="-3.56866">
        <ele>42.9</ele>
        <time>2019-07-11T14:39:46Z</time>
      </trkpt>
      <trkpt lat="48.67975" lon="-3.56869">
        <ele>43.2</ele>
        <time>2019-07-11T14:39:47Z</time>
      </trkpt>
      <trkpt lat="48.67971" lon="-3.56872">
        <ele>42.8</ele>
        <time>2019-07-11T14:39:48Z</time>
      </trkpt>
      <trkpt lat="48.67968" lon="-3.56875">
        <ele>42.3</ele>
        <time>2019-07-11T14:39:49Z</time>
      </trkpt>
      <trkpt lat="48.67964" lon="-3.56877">
        <ele>42.3</ele>
        <time>2019-07-11T14:39:50Z</time>
      </trkpt>
      <trkpt lat="48.6796" lon="-3.5688">
        <ele>42.1</ele>
        <time>2019-07-11T14:39:51Z</time>
      </trkpt>
      <trkpt lat="48.67956" lon="-3.56883">
        <ele>41.1</ele>
        <time>2019-07-11T14:39:52Z</time>
      </trkpt>
      <trkpt lat="48.67951" lon="-3.56886">
        <ele>40</ele>
        <time>2019-07-11T14:39:53Z</time>
      </trkpt>
      <trkpt lat="48.67947" lon="-3.56889">
        <ele>38.6</ele>
        <time>2019-07-11T14:39:54Z</time>
      </trkpt>
      <trkpt lat="48.67943" lon="-3.56891">
        <ele>37.6</ele>
        <time>2019-07-11T14:39:55Z</time>
      </trkpt>
      <trkpt lat="48.67939" lon="-3.56894">
        <ele>36.3</ele>
        <time>2019-07-11T14:39:56Z</time>
      </trkpt>
      <trkpt lat="48.67934" lon="-3.56896">
        <ele>35.8</ele>
        <time>2019-07-11T14:39:57Z</time>
      </trkpt>
      <trkpt lat="48.67931" lon="-3.56898">
        <ele>35.5</ele>
        <time>2019-07-11T14:39:58Z</time>
      </trkpt>
      <trkpt lat="48.67926" lon="-3.56901">
        <ele>34.5</ele>
        <time>2019-07-11T14:39:59Z</time>
      </trkpt>
      <trkpt lat="48.67922" lon="-3.56903">
        <ele>33.7</ele>
        <time>2019-07-11T14:40:00Z</time>
      </trkpt>
      <trkpt lat="48.67917" lon="-3.56905">
        <ele>32.7</ele>
        <time>2019-07-11T14:40:01Z</time>
      </trkpt>
      <trkpt lat="48.67913" lon="-3.56909">
        <ele>32.2</ele>
        <time>2019-07-11T14:40:02Z</time>
      </trkpt>
      <trkpt lat="48.67909" lon="-3.56912">
        <ele>31.4</ele>
        <time>2019-07-11T14:40:03Z</time>
      </trkpt>
      <trkpt lat="48.67905" lon="-3.56914">
        <ele>30.4</ele>
        <time>2019-07-11T14:40:04Z</time>
      </trkpt>
      <trkpt lat="48.67899" lon="-3.56916">
        <ele>29.5</ele>
        <time>2019-07-11T14:40:05Z</time>
      </trkpt>
      <trkpt lat="48.67895" lon="-3.56919">
        <ele>28.6</ele>
        <time>2019-07-11T14:40:06Z</time>
      </trkpt>
      <trkpt lat="48.67891" lon="-3.56921">
        <ele>28</ele>
        <time>2019-07-11T14:40:07Z</time>
      </trkpt>
      <trkpt lat="48.67888" lon="-3.56922">
        <ele>27.3</ele>
        <time>2019-07-11T14:40:08Z</time>
      </trkpt>
      <trkpt lat="48.67885" lon="-3.56924">
        <ele>26.9</ele>
        <time>2019-07-11T14:40:09Z</time>
      </trkpt>
      <trkpt lat="48.67883" lon="-3.56925">
        <ele>26.3</ele>
        <time>2019-07-11T14:40:10Z</time>
      </trkpt>
      <trkpt lat="48.67881" lon="-3.56926">
        <ele>25.7</ele>
        <time>2019-07-11T14:40:11Z</time>
      </trkpt>
      <trkpt lat="48.67878" lon="-3.56927">
        <ele>25.3</ele>
        <time>2019-07-11T14:40:12Z</time>
      </trkpt>
      <trkpt lat="48.67876" lon="-3.56928">
        <ele>25.1</ele>
        <time>2019-07-11T14:40:13Z</time>
      </trkpt>
      <trkpt lat="48.67873" lon="-3.56928">
        <ele>24.9</ele>
        <time>2019-07-11T14:40:14Z</time>
      </trkpt>
      <trkpt lat="48.6787" lon="-3.56928">
        <ele>25</ele>
        <time>2019-07-11T14:40:15Z</time>
      </trkpt>
      <trkpt lat="48.67867" lon="-3.56929">
        <ele>24.5</ele>
        <time>2019-07-11T14:40:16Z</time>
      </trkpt>
      <trkpt lat="48.67864" lon="-3.5693">
        <ele>24.4</ele>
        <time>2019-07-11T14:40:17Z</time>
      </trkpt>
      <trkpt lat="48.67861" lon="-3.56932">
        <ele>24.8</ele>
        <time>2019-07-11T14:40:18Z</time>
      </trkpt>
      <trkpt lat="48.67858" lon="-3.56935">
        <ele>24.8</ele>
        <time>2019-07-11T14:40:19Z</time>
      </trkpt>
      <trkpt lat="48.67855" lon="-3.56937">
        <ele>25.2</ele>
        <time>2019-07-11T14:40:20Z</time>
      </trkpt>
      <trkpt lat="48.67851" lon="-3.56938">
        <ele>25</ele>
        <time>2019-07-11T14:40:21Z</time>
      </trkpt>
      <trkpt lat="48.67847" lon="-3.5694">
        <ele>24.8</ele>
        <time>2019-07-11T14:40:22Z</time>
      </trkpt>
      <trkpt lat="48.67843" lon="-3.56941">
        <ele>24.9</ele>
        <time>2019-07-11T14:40:23Z</time>
      </trkpt>
      <trkpt lat="48.67839" lon="-3.56943">
        <ele>24.8</ele>
        <time>2019-07-11T14:40:24Z</time>
      </trkpt>
      <trkpt lat="48.67836" lon="-3.56946">
        <ele>24.7</ele>
        <time>2019-07-11T14:40:25Z</time>
      </trkpt>
      <trkpt lat="48.67832" lon="-3.56948">
        <ele>24</ele>
        <time>2019-07-11T14:40:26Z</time>
      </trkpt>
      <trkpt lat="48.67828" lon="-3.5695">
        <ele>23.8</ele>
        <time>2019-07-11T14:40:27Z</time>
      </trkpt>
      <trkpt lat="48.67825" lon="-3.56953">
        <ele>23.7</ele>
        <time>2019-07-11T14:40:28Z</time>
      </trkpt>
      <trkpt lat="48.67822" lon="-3.56956">
        <ele>23.8</ele>
        <time>2019-07-11T14:40:29Z</time>
      </trkpt>
      <trkpt lat="48.67818" lon="-3.56959">
        <ele>24.2</ele>
        <time>2019-07-11T14:40:30Z</time>
      </trkpt>
      <trkpt lat="48.67814" lon="-3.56963">
        <ele>24.6</ele>
        <time>2019-07-11T14:40:31Z</time>
      </trkpt>
      <trkpt lat="48.6781" lon="-3.56965">
        <ele>24.7</ele>
        <time>2019-07-11T14:40:32Z</time>
      </trkpt>
      <trkpt lat="48.67807" lon="-3.56968">
        <ele>24.2</ele>
        <time>2019-07-11T14:40:33Z</time>
      </trkpt>
      <trkpt lat="48.67803" lon="-3.56972">
        <ele>23.9</ele>
        <time>2019-07-11T14:40:34Z</time>
      </trkpt>
      <trkpt lat="48.67799" lon="-3.56976">
        <ele>23.5</ele>
        <time>2019-07-11T14:40:35Z</time>
      </trkpt>
      <trkpt lat="48.67794" lon="-3.5698">
        <ele>23.2</ele>
        <time>2019-07-11T14:40:36Z</time>
      </trkpt>
      <trkpt lat="48.6779" lon="-3.56983">
        <ele>23</ele>
        <time>2019-07-11T14:40:37Z</time>
      </trkpt>
      <trkpt lat="48.67786" lon="-3.56988">
        <ele>23.2</ele>
        <time>2019-07-11T14:40:38Z</time>
      </trkpt>
      <trkpt lat="48.67782" lon="-3.56993">
        <ele>23.5</ele>
        <time>2019-07-11T14:40:39Z</time>
      </trkpt>
      <trkpt lat="48.67778" lon="-3.56998">
        <ele>23.8</ele>
        <time>2019-07-11T14:40:40Z</time>
      </trkpt>
      <trkpt lat="48.67774" lon="-3.57002">
        <ele>24.1</ele>
        <time>2019-07-11T14:40:41Z</time>
      </trkpt>
      <trkpt lat="48.67769" lon="-3.57007">
        <ele>23.8</ele>
        <time>2019-07-11T14:40:42Z</time>
      </trkpt>
      <trkpt lat="48.67765" lon="-3.57012">
        <ele>23.3</ele>
        <time>2019-07-11T14:40:43Z</time>
      </trkpt>
      <trkpt lat="48.67761" lon="-3.57017">
        <ele>23</ele>
        <time>2019-07-11T14:40:44Z</time>
      </trkpt>
      <trkpt lat="48.67757" lon="-3.57022">
        <ele>22.5</ele>
        <time>2019-07-11T14:40:45Z</time>
      </trkpt>
      <trkpt lat="48.67752" lon="-3.57027">
        <ele>22.1</ele>
        <time>2019-07-11T14:40:46Z</time>
      </trkpt>
      <trkpt lat="48.67747" lon="-3.57032">
        <ele>21.5</ele>
        <time>2019-07-11T14:40:47Z</time>
      </trkpt>
      <trkpt lat="48.67743" lon="-3.57037">
        <ele>21.1</ele>
        <time>2019-07-11T14:40:48Z</time>
      </trkpt>
      <trkpt lat="48.67738" lon="-3.57042">
        <ele>20.9</ele>
        <time>2019-07-11T14:40:49Z</time>
      </trkpt>
      <trkpt lat="48.67734" lon="-3.57046">
        <ele>20.6</ele>
        <time>2019-07-11T14:40:50Z</time>
      </trkpt>
      <trkpt lat="48.67729" lon="-3.5705">
        <ele>20</ele>
        <time>2019-07-11T14:40:51Z</time>
      </trkpt>
      <trkpt lat="48.67725" lon="-3.57055">
        <ele>19.5</ele>
        <time>2019-07-11T14:40:52Z</time>
      </trkpt>
      <trkpt lat="48.6772" lon="-3.57059">
        <ele>18.8</ele>
        <time>2019-07-11T14:40:53Z</time>
      </trkpt>
      <trkpt lat="48.67715" lon="-3.57065">
        <ele>18.2</ele>
        <time>2019-07-11T14:40:54Z</time>
      </trkpt>
      <trkpt lat="48.6771" lon="-3.57069">
        <ele>17.6</ele>
        <time>2019-07-11T14:40:55Z</time>
      </trkpt>
      <trkpt lat="48.67705" lon="-3.57075">
        <ele>16.8</ele>
        <time>2019-07-11T14:40:56Z</time>
      </trkpt>
      <trkpt lat="48.677" lon="-3.5708">
        <ele>16.6</ele>
        <time>2019-07-11T14:40:57Z</time>
      </trkpt>
      <trkpt lat="48.67695" lon="-3.57085">
        <ele>16.6</ele>
        <time>2019-07-11T14:40:58Z</time>
      </trkpt>
      <trkpt lat="48.67691" lon="-3.57089">
        <ele>16.1</ele>
        <time>2019-07-11T14:40:59Z</time>
      </trkpt>
      <trkpt lat="48.67685" lon="-3.57093">
        <ele>16.3</ele>
        <time>2019-07-11T14:41:00Z</time>
      </trkpt>
      <trkpt lat="48.6768" lon="-3.57098">
        <ele>16</ele>
        <time>2019-07-11T14:41:01Z</time>
      </trkpt>
      <trkpt lat="48.67674" lon="-3.57101">
        <ele>15.9</ele>
        <time>2019-07-11T14:41:02Z</time>
      </trkpt>
      <trkpt lat="48.67669" lon="-3.57104">
        <ele>16.1</ele>
        <time>2019-07-11T14:41:03Z</time>
      </trkpt>
      <trkpt lat="48.67663" lon="-3.57107">
        <ele>15.9</ele>
        <time>2019-07-11T14:41:04Z</time>
      </trkpt>
      <trkpt lat="48.67657" lon="-3.5711">
        <ele>15.3</ele>
        <time>2019-07-11T14:41:05Z</time>
      </trkpt>
      <trkpt lat="48.67652" lon="-3.57114">
        <ele>15.5</ele>
        <time>2019-07-11T14:41:06Z</time>
      </trkpt>
      <trkpt lat="48.67646" lon="-3.57116">
        <ele>15.4</ele>
        <time>2019-07-11T14:41:07Z</time>
      </trkpt>
      <trkpt lat="48.67641" lon="-3.57118">
        <ele>15.2</ele>
        <time>2019-07-11T14:41:08Z</time>
      </trkpt>
      <trkpt lat="48.67635" lon="-3.5712">
        <ele>15.8</ele>
        <time>2019-07-11T14:41:09Z</time>
      </trkpt>
      <trkpt lat="48.67629" lon="-3.57122">
        <ele>16</ele>
        <time>2019-07-11T14:41:10Z</time>
      </trkpt>
      <trkpt lat="48.67624" lon="-3.57123">
        <ele>16.3</ele>
        <time>2019-07-11T14:41:11Z</time>
      </trkpt>
      <trkpt lat="48.67618" lon="-3.57124">
        <ele>16.4</ele>
        <time>2019-07-11T14:41:12Z</time>
      </trkpt>
      <trkpt lat="48.67613" lon="-3.57125">
        <ele>15.9</ele>
        <time>2019-07-11T14:41:13Z</time>
      </trkpt>
      <trkpt lat="48.67608" lon="-3.57126">
        <ele>15.4</ele>
        <time>2019-07-11T14:41:14Z</time>
      </trkpt>
      <trkpt lat="48.67602" lon="-3.57127">
        <ele>14.8</ele>
        <time>2019-07-11T14:41:15Z</time>
      </trkpt>
      <trkpt lat="48.67597" lon="-3.57128">
        <ele>14.4</ele>
        <time>2019-07-11T14:41:16Z</time>
      </trkpt>
      <trkpt lat="48.67591" lon="-3.57128">
        <ele>14.4</ele>
        <time>2019-07-11T14:41:17Z</time>
      </trkpt>
      <trkpt lat="48.67586" lon="-3.57128">
        <ele>14.9</ele>
        <time>2019-07-11T14:41:18Z</time>
      </trkpt>
      <trkpt lat="48.6758" lon="-3.57129">
        <ele>14.9</ele>
        <time>2019-07-11T14:41:19Z</time>
      </trkpt>
      <trkpt lat="48.67574" lon="-3.57131">
        <ele>14.9</ele>
        <time>2019-07-11T14:41:20Z</time>
      </trkpt>
      <trkpt lat="48.67569" lon="-3.57134">
        <ele>14.3</ele>
        <time>2019-07-11T14:41:21Z</time>
      </trkpt>
      <trkpt lat="48.67563" lon="-3.57137">
        <ele>13.9</ele>
        <time>2019-07-11T14:41:22Z</time>
      </trkpt>
      <trkpt lat="48.67558" lon="-3.57142">
        <ele>13.5</ele>
        <time>2019-07-11T14:41:23Z</time>
      </trkpt>
      <trkpt lat="48.67552" lon="-3.57147">
        <ele>12.9</ele>
        <time>2019-07-11T14:41:24Z</time>
      </trkpt>
      <trkpt lat="48.67547" lon="-3.57151">
        <ele>12.2</ele>
        <time>2019-07-11T14:41:25Z</time>
      </trkpt>
      <trkpt lat="48.67542" lon="-3.57157">
        <ele>11.8</ele>
        <time>2019-07-11T14:41:26Z</time>
      </trkpt>
      <trkpt lat="48.67537" lon="-3.57163">
        <ele>11.4</ele>
        <time>2019-07-11T14:41:27Z</time>
      </trkpt>
      <trkpt lat="48.67533" lon="-3.57169">
        <ele>10.9</ele>
        <time>2019-07-11T14:41:28Z</time>
      </trkpt>
      <trkpt lat="48.67529" lon="-3.57176">
        <ele>10.6</ele>
        <time>2019-07-11T14:41:29Z</time>
      </trkpt>
      <trkpt lat="48.67526" lon="-3.57183">
        <ele>10.1</ele>
        <time>2019-07-11T14:41:30Z</time>
      </trkpt>
      <trkpt lat="48.67522" lon="-3.57189">
        <ele>9.8</ele>
        <time>2019-07-11T14:41:31Z</time>
      </trkpt>
      <trkpt lat="48.67519" lon="-3.57196">
        <ele>9.5</ele>
        <time>2019-07-11T14:41:32Z</time>
      </trkpt>
      <trkpt lat="48.67516" lon="-3.57203">
        <ele>9.1</ele>
        <time>2019-07-11T14:41:33Z</time>
      </trkpt>
      <trkpt lat="48.67514" lon="-3.57209">
        <ele>8.7</ele>
        <time>2019-07-11T14:41:34Z</time>
      </trkpt>
      <trkpt lat="48.67512" lon="-3.57216">
        <ele>8.1</ele>
        <time>2019-07-11T14:41:35Z</time>
      </trkpt>
      <trkpt lat="48.67511" lon="-3.57223">
        <ele>7.8</ele>
        <time>2019-07-11T14:41:36Z</time>
      </trkpt>
      <trkpt lat="48.67512" lon="-3.5723">
        <ele>7.8</ele>
        <time>2019-07-11T14:41:37Z</time>
      </trkpt>
      <trkpt lat="48.67514" lon="-3.57235">
        <ele>7.6</ele>
        <time>2019-07-11T14:41:38Z</time>
      </trkpt>
      <trkpt lat="48.67517" lon="-3.57239">
        <ele>7.3</ele>
        <time>2019-07-11T14:41:39Z</time>
      </trkpt>
      <trkpt lat="48.67519" lon="-3.57243">
        <ele>6.9</ele>
        <time>2019-07-11T14:41:40Z</time>
      </trkpt>
      <trkpt lat="48.67522" lon="-3.57246">
        <ele>6.6</ele>
        <time>2019-07-11T14:41:41Z</time>
      </trkpt>
      <trkpt lat="48.67524" lon="-3.57249">
        <ele>6.2</ele>
        <time>2019-07-11T14:41:42Z</time>
      </trkpt>
      <trkpt lat="48.67527" lon="-3.57251">
        <ele>6.3</ele>
        <time>2019-07-11T14:41:43Z</time>
      </trkpt>
      <trkpt lat="48.67528" lon="-3.57253">
        <ele>5.9</ele>
        <time>2019-07-11T14:41:44Z</time>
      </trkpt>
      <trkpt lat="48.67529" lon="-3.57255">
        <ele>5.8</ele>
        <time>2019-07-11T14:41:45Z</time>
      </trkpt>
      <trkpt lat="48.67532" lon="-3.57258">
        <ele>5.6</ele>
        <time>2019-07-11T14:42:05Z</time>
      </trkpt>
      <trkpt lat="48.67532" lon="-3.57262">
        <ele>5.5</ele>
        <time>2019-07-11T14:42:06Z</time>
      </trkpt>
      <trkpt lat="48.67532" lon="-3.57266">
        <ele>5.4</ele>
        <time>2019-07-11T14:42:07Z</time>
      </trkpt>
      <trkpt lat="48.67531" lon="-3.57269">
        <ele>5.5</ele>
        <time>2019-07-11T14:42:08Z</time>
      </trkpt>
      <trkpt lat="48.6753" lon="-3.57273">
        <ele>5.7</ele>
        <time>2019-07-11T14:42:09Z</time>
      </trkpt>
      <trkpt lat="48.67529" lon="-3.57275">
        <ele>5.8</ele>
        <time>2019-07-11T14:42:10Z</time>
      </trkpt>
      <trkpt lat="48.67527" lon="-3.57277">
        <ele>5.9</ele>
        <time>2019-07-11T14:42:11Z</time>
      </trkpt>
      <trkpt lat="48.67526" lon="-3.5728">
        <ele>6.2</ele>
        <time>2019-07-11T14:42:12Z</time>
      </trkpt>
      <trkpt lat="48.67524" lon="-3.57282">
        <ele>6.6</ele>
        <time>2019-07-11T14:42:13Z</time>
      </trkpt>
      <trkpt lat="48.67522" lon="-3.57285">
        <ele>6.9</ele>
        <time>2019-07-11T14:42:14Z</time>
      </trkpt>
      <trkpt lat="48.6752" lon="-3.57289">
        <ele>7.3</ele>
        <time>2019-07-11T14:42:15Z</time>
      </trkpt>
      <trkpt lat="48.67518" lon="-3.57291">
        <ele>7.6</ele>
        <time>2019-07-11T14:42:16Z</time>
      </trkpt>
      <trkpt lat="48.67515" lon="-3.57294">
        <ele>8.3</ele>
        <time>2019-07-11T14:42:17Z</time>
      </trkpt>
      <trkpt lat="48.67513" lon="-3.57298">
        <ele>8.7</ele>
        <time>2019-07-11T14:42:18Z</time>
      </trkpt>
      <trkpt lat="48.67511" lon="-3.57301">
        <ele>9</ele>
        <time>2019-07-11T14:42:19Z</time>
      </trkpt>
      <trkpt lat="48.67509" lon="-3.57305">
        <ele>9.4</ele>
        <time>2019-07-11T14:42:20Z</time>
      </trkpt>
      <trkpt lat="48.67506" lon="-3.57309">
        <ele>9.8</ele>
        <time>2019-07-11T14:42:21Z</time>
      </trkpt>
      <trkpt lat="48.67504" lon="-3.57312">
        <ele>9.7</ele>
        <time>2019-07-11T14:42:22Z</time>
      </trkpt>
      <trkpt lat="48.67502" lon="-3.57316">
        <ele>9.7</ele>
        <time>2019-07-11T14:42:23Z</time>
      </trkpt>
      <trkpt lat="48.67499" lon="-3.5732">
        <ele>9.6</ele>
        <time>2019-07-11T14:42:24Z</time>
      </trkpt>
      <trkpt lat="48.67497" lon="-3.57323">
        <ele>9.5</ele>
        <time>2019-07-11T14:42:25Z</time>
      </trkpt>
      <trkpt lat="48.67495" lon="-3.57327">
        <ele>9.3</ele>
        <time>2019-07-11T14:42:26Z</time>
      </trkpt>
      <trkpt lat="48.67493" lon="-3.57331">
        <ele>9.1</ele>
        <time>2019-07-11T14:42:27Z</time>
      </trkpt>
      <trkpt lat="48.6749" lon="-3.57334">
        <ele>8.8</ele>
        <time>2019-07-11T14:42:28Z</time>
      </trkpt>
      <trkpt lat="48.67488" lon="-3.57338">
        <ele>8.5</ele>
        <time>2019-07-11T14:42:29Z</time>
      </trkpt>
      <trkpt lat="48.67486" lon="-3.57342">
        <ele>8.2</ele>
        <time>2019-07-11T14:42:30Z</time>
      </trkpt>
      <trkpt lat="48.67484" lon="-3.57346">
        <ele>8.6</ele>
        <time>2019-07-11T14:42:31Z</time>
      </trkpt>
      <trkpt lat="48.67482" lon="-3.57349">
        <ele>8.8</ele>
        <time>2019-07-11T14:42:32Z</time>
      </trkpt>
      <trkpt lat="48.67479" lon="-3.57353">
        <ele>8.6</ele>
        <time>2019-07-11T14:42:33Z</time>
      </trkpt>
      <trkpt lat="48.67477" lon="-3.57356">
        <ele>8.2</ele>
        <time>2019-07-11T14:42:34Z</time>
      </trkpt>
      <trkpt lat="48.67475" lon="-3.5736">
        <ele>8.1</ele>
        <time>2019-07-11T14:42:35Z</time>
      </trkpt>
      <trkpt lat="48.67473" lon="-3.57363">
        <ele>7.8</ele>
        <time>2019-07-11T14:42:36Z</time>
      </trkpt>
      <trkpt lat="48.67471" lon="-3.57367">
        <ele>7.6</ele>
        <time>2019-07-11T14:42:37Z</time>
      </trkpt>
      <trkpt lat="48.67469" lon="-3.57371">
        <ele>7.5</ele>
        <time>2019-07-11T14:42:38Z</time>
      </trkpt>
      <trkpt lat="48.67467" lon="-3.57374">
        <ele>7.5</ele>
        <time>2019-07-11T14:42:39Z</time>
      </trkpt>
      <trkpt lat="48.67465" lon="-3.57378">
        <ele>7.7</ele>
        <time>2019-07-11T14:42:40Z</time>
      </trkpt>
      <trkpt lat="48.67463" lon="-3.57381">
        <ele>7.6</ele>
        <time>2019-07-11T14:42:41Z</time>
      </trkpt>
      <trkpt lat="48.67461" lon="-3.57385">
        <ele>7.4</ele>
        <time>2019-07-11T14:42:42Z</time>
      </trkpt>
      <trkpt lat="48.67459" lon="-3.57389">
        <ele>7.4</ele>
        <time>2019-07-11T14:42:43Z</time>
      </trkpt>
      <trkpt lat="48.67457" lon="-3.57393">
        <ele>7.1</ele>
        <time>2019-07-11T14:42:44Z</time>
      </trkpt>
      <trkpt lat="48.67455" lon="-3.57397">
        <ele>6.5</ele>
        <time>2019-07-11T14:42:45Z</time>
      </trkpt>
      <trkpt lat="48.67452" lon="-3.574">
        <ele>6</ele>
        <time>2019-07-11T14:42:46Z</time>
      </trkpt>
      <trkpt lat="48.6745" lon="-3.57404">
        <ele>5.8</ele>
        <time>2019-07-11T14:42:47Z</time>
      </trkpt>
      <trkpt lat="48.67448" lon="-3.57408">
        <ele>5.4</ele>
        <time>2019-07-11T14:42:48Z</time>
      </trkpt>
      <trkpt lat="48.67445" lon="-3.57411">
        <ele>5.3</ele>
        <time>2019-07-11T14:42:49Z</time>
      </trkpt>
      <trkpt lat="48.67443" lon="-3.57415">
        <ele>5.2</ele>
        <time>2019-07-11T14:42:50Z</time>
      </trkpt>
      <trkpt lat="48.67441" lon="-3.57419">
        <ele>5.5</ele>
        <time>2019-07-11T14:42:51Z</time>
      </trkpt>
      <trkpt lat="48.67439" lon="-3.57422">
        <ele>5.4</ele>
        <time>2019-07-11T14:42:52Z</time>
      </trkpt>
      <trkpt lat="48.67436" lon="-3.57426">
        <ele>5.3</ele>
        <time>2019-07-11T14:42:53Z</time>
      </trkpt>
      <trkpt lat="48.67434" lon="-3.5743">
        <ele>5.4</ele>
        <time>2019-07-11T14:42:54Z</time>
      </trkpt>
      <trkpt lat="48.67432" lon="-3.57434">
        <ele>5.2</ele>
        <time>2019-07-11T14:42:55Z</time>
      </trkpt>
      <trkpt lat="48.6743" lon="-3.57438">
        <ele>4.9</ele>
        <time>2019-07-11T14:42:56Z</time>
      </trkpt>
      <trkpt lat="48.67427" lon="-3.57441">
        <ele>4.7</ele>
        <time>2019-07-11T14:42:57Z</time>
      </trkpt>
      <trkpt lat="48.67425" lon="-3.57445">
        <ele>4.8</ele>
        <time>2019-07-11T14:42:58Z</time>
      </trkpt>
      <trkpt lat="48.67423" lon="-3.57448">
        <ele>4.8</ele>
        <time>2019-07-11T14:42:59Z</time>
      </trkpt>
      <trkpt lat="48.6742" lon="-3.57452">
        <ele>5</ele>
        <time>2019-07-11T14:43:00Z</time>
      </trkpt>
      <trkpt lat="48.67418" lon="-3.57456">
        <ele>4.9</ele>
        <time>2019-07-11T14:43:01Z</time>
      </trkpt>
      <trkpt lat="48.67415" lon="-3.5746">
        <ele>4.7</ele>
        <time>2019-07-11T14:43:02Z</time>
      </trkpt>
      <trkpt lat="48.67413" lon="-3.57464">
        <ele>4.5</ele>
        <time>2019-07-11T14:43:03Z</time>
      </trkpt>
      <trkpt lat="48.67411" lon="-3.57468">
        <ele>4.7</ele>
        <time>2019-07-11T14:43:04Z</time>
      </trkpt>
      <trkpt lat="48.67408" lon="-3.57472">
        <ele>4.7</ele>
        <time>2019-07-11T14:43:05Z</time>
      </trkpt>
      <trkpt lat="48.67406" lon="-3.57476">
        <ele>4.7</ele>
        <time>2019-07-11T14:43:06Z</time>
      </trkpt>
      <trkpt lat="48.67404" lon="-3.5748">
        <ele>4.3</ele>
        <time>2019-07-11T14:43:07Z</time>
      </trkpt>
      <trkpt lat="48.67402" lon="-3.57484">
        <ele>4.3</ele>
        <time>2019-07-11T14:43:08Z</time>
      </trkpt>
      <trkpt lat="48.674" lon="-3.57487">
        <ele>4.1</ele>
        <time>2019-07-11T14:43:09Z</time>
      </trkpt>
      <trkpt lat="48.67398" lon="-3.57491">
        <ele>4.3</ele>
        <time>2019-07-11T14:43:10Z</time>
      </trkpt>
      <trkpt lat="48.67395" lon="-3.57494">
        <ele>4.2</ele>
        <time>2019-07-11T14:43:11Z</time>
      </trkpt>
      <trkpt lat="48.67394" lon="-3.57498">
        <ele>4.4</ele>
        <time>2019-07-11T14:43:12Z</time>
      </trkpt>
      <trkpt lat="48.67391" lon="-3.57502">
        <ele>4.2</ele>
        <time>2019-07-11T14:43:13Z</time>
      </trkpt>
      <trkpt lat="48.67389" lon="-3.57505">
        <ele>4.1</ele>
        <time>2019-07-11T14:43:14Z</time>
      </trkpt>
      <trkpt lat="48.67387" lon="-3.57509">
        <ele>4.1</ele>
        <time>2019-07-11T14:43:15Z</time>
      </trkpt>
      <trkpt lat="48.67384" lon="-3.57513">
        <ele>4.1</ele>
        <time>2019-07-11T14:43:16Z</time>
      </trkpt>
      <trkpt lat="48.67382" lon="-3.57516">
        <ele>4.3</ele>
        <time>2019-07-11T14:43:17Z</time>
      </trkpt>
      <trkpt lat="48.6738" lon="-3.5752">
        <ele>4.2</ele>
        <time>2019-07-11T14:43:18Z</time>
      </trkpt>
      <trkpt lat="48.67378" lon="-3.57524">
        <ele>4.3</ele>
        <time>2019-07-11T14:43:19Z</time>
      </trkpt>
      <trkpt lat="48.67376" lon="-3.57527">
        <ele>4.1</ele>
        <time>2019-07-11T14:43:20Z</time>
      </trkpt>
      <trkpt lat="48.67373" lon="-3.57531">
        <ele>4.1</ele>
        <time>2019-07-11T14:43:21Z</time>
      </trkpt>
      <trkpt lat="48.67371" lon="-3.57535">
        <ele>4.3</ele>
        <time>2019-07-11T14:43:22Z</time>
      </trkpt>
      <trkpt lat="48.67368" lon="-3.57539">
        <ele>4.3</ele>
        <time>2019-07-11T14:43:23Z</time>
      </trkpt>
      <trkpt lat="48.67366" lon="-3.57543">
        <ele>4.4</ele>
        <time>2019-07-11T14:43:24Z</time>
      </trkpt>
      <trkpt lat="48.67364" lon="-3.57547">
        <ele>4.8</ele>
        <time>2019-07-11T14:43:25Z</time>
      </trkpt>
      <trkpt lat="48.67362" lon="-3.57551">
        <ele>4.6</ele>
        <time>2019-07-11T14:43:26Z</time>
      </trkpt>
      <trkpt lat="48.6736" lon="-3.57554">
        <ele>5.1</ele>
        <time>2019-07-11T14:43:27Z</time>
      </trkpt>
      <trkpt lat="48.67357" lon="-3.57559">
        <ele>5.4</ele>
        <time>2019-07-11T14:43:28Z</time>
      </trkpt>
      <trkpt lat="48.67355" lon="-3.57563">
        <ele>5.4</ele>
        <time>2019-07-11T14:43:29Z</time>
      </trkpt>
      <trkpt lat="48.67353" lon="-3.57567">
        <ele>5.6</ele>
        <time>2019-07-11T14:43:30Z</time>
      </trkpt>
      <trkpt lat="48.67351" lon="-3.5757">
        <ele>5.8</ele>
        <time>2019-07-11T14:43:31Z</time>
      </trkpt>
      <trkpt lat="48.67349" lon="-3.57574">
        <ele>6</ele>
        <time>2019-07-11T14:43:32Z</time>
      </trkpt>
      <trkpt lat="48.67347" lon="-3.57578">
        <ele>6.4</ele>
        <time>2019-07-11T14:43:33Z</time>
      </trkpt>
      <trkpt lat="48.67344" lon="-3.57582">
        <ele>6.2</ele>
        <time>2019-07-11T14:43:34Z</time>
      </trkpt>
      <trkpt lat="48.67342" lon="-3.57586">
        <ele>6.8</ele>
        <time>2019-07-11T14:43:35Z</time>
      </trkpt>
      <trkpt lat="48.6734" lon="-3.57589">
        <ele>6.9</ele>
        <time>2019-07-11T14:43:36Z</time>
      </trkpt>
      <trkpt lat="48.67337" lon="-3.57593">
        <ele>7</ele>
        <time>2019-07-11T14:43:37Z</time>
      </trkpt>
      <trkpt lat="48.67335" lon="-3.57597">
        <ele>7.2</ele>
        <time>2019-07-11T14:43:38Z</time>
      </trkpt>
      <trkpt lat="48.67333" lon="-3.57601">
        <ele>6.9</ele>
        <time>2019-07-11T14:43:39Z</time>
      </trkpt>
      <trkpt lat="48.6733" lon="-3.57605">
        <ele>7</ele>
        <time>2019-07-11T14:43:40Z</time>
      </trkpt>
      <trkpt lat="48.67328" lon="-3.57609">
        <ele>6.7</ele>
        <time>2019-07-11T14:43:41Z</time>
      </trkpt>
      <trkpt lat="48.67325" lon="-3.57613">
        <ele>6.2</ele>
        <time>2019-07-11T14:43:42Z</time>
      </trkpt>
      <trkpt lat="48.67323" lon="-3.57616">
        <ele>6.1</ele>
        <time>2019-07-11T14:43:43Z</time>
      </trkpt>
      <trkpt lat="48.6732" lon="-3.57621">
        <ele>5.7</ele>
        <time>2019-07-11T14:43:44Z</time>
      </trkpt>
      <trkpt lat="48.67318" lon="-3.57625">
        <ele>5.5</ele>
        <time>2019-07-11T14:43:45Z</time>
      </trkpt>
      <trkpt lat="48.67316" lon="-3.57629">
        <ele>5.6</ele>
        <time>2019-07-11T14:43:46Z</time>
      </trkpt>
      <trkpt lat="48.67313" lon="-3.57633">
        <ele>5.4</ele>
        <time>2019-07-11T14:43:47Z</time>
      </trkpt>
      <trkpt lat="48.67311" lon="-3.57637">
        <ele>4.8</ele>
        <time>2019-07-11T14:43:48Z</time>
      </trkpt>
      <trkpt lat="48.67308" lon="-3.5764">
        <ele>4.4</ele>
        <time>2019-07-11T14:43:49Z</time>
      </trkpt>
      <trkpt lat="48.67306" lon="-3.57644">
        <ele>4.6</ele>
        <time>2019-07-11T14:43:50Z</time>
      </trkpt>
      <trkpt lat="48.67304" lon="-3.57648">
        <ele>4.2</ele>
        <time>2019-07-11T14:43:51Z</time>
      </trkpt>
      <trkpt lat="48.67301" lon="-3.57651">
        <ele>4.1</ele>
        <time>2019-07-11T14:43:52Z</time>
      </trkpt>
      <trkpt lat="48.67299" lon="-3.57655">
        <ele>4.6</ele>
        <time>2019-07-11T14:43:53Z</time>
      </trkpt>
      <trkpt lat="48.67297" lon="-3.57659">
        <ele>4.7</ele>
        <time>2019-07-11T14:43:54Z</time>
      </trkpt>
      <trkpt lat="48.67294" lon="-3.57663">
        <ele>4.6</ele>
        <time>2019-07-11T14:43:55Z</time>
      </trkpt>
      <trkpt lat="48.67292" lon="-3.57667">
        <ele>4.7</ele>
        <time>2019-07-11T14:43:56Z</time>
      </trkpt>
      <trkpt lat="48.6729" lon="-3.57671">
        <ele>4.9</ele>
        <time>2019-07-11T14:43:57Z</time>
      </trkpt>
      <trkpt lat="48.67288" lon="-3.57675">
        <ele>4.9</ele>
        <time>2019-07-11T14:43:58Z</time>
      </trkpt>
      <trkpt lat="48.67286" lon="-3.57679">
        <ele>5.1</ele>
        <time>2019-07-11T14:43:59Z</time>
      </trkpt>
      <trkpt lat="48.67283" lon="-3.57683">
        <ele>5</ele>
        <time>2019-07-11T14:44:00Z</time>
      </trkpt>
      <trkpt lat="48.67281" lon="-3.57687">
        <ele>5.2</ele>
        <time>2019-07-11T14:44:01Z</time>
      </trkpt>
      <trkpt lat="48.67279" lon="-3.57691">
        <ele>5.1</ele>
        <time>2019-07-11T14:44:02Z</time>
      </trkpt>
      <trkpt lat="48.67276" lon="-3.57695">
        <ele>4.8</ele>
        <time>2019-07-11T14:44:03Z</time>
      </trkpt>
      <trkpt lat="48.67273" lon="-3.57699">
        <ele>4.8</ele>
        <time>2019-07-11T14:44:04Z</time>
      </trkpt>
      <trkpt lat="48.67271" lon="-3.57703">
        <ele>4.8</ele>
        <time>2019-07-11T14:44:05Z</time>
      </trkpt>
      <trkpt lat="48.67268" lon="-3.57706">
        <ele>5.3</ele>
        <time>2019-07-11T14:44:06Z</time>
      </trkpt>
      <trkpt lat="48.67267" lon="-3.5771">
        <ele>5.4</ele>
        <time>2019-07-11T14:44:07Z</time>
      </trkpt>
      <trkpt lat="48.67264" lon="-3.57714">
        <ele>5.3</ele>
        <time>2019-07-11T14:44:08Z</time>
      </trkpt>
      <trkpt lat="48.67262" lon="-3.57719">
        <ele>4.9</ele>
        <time>2019-07-11T14:44:09Z</time>
      </trkpt>
      <trkpt lat="48.67259" lon="-3.57723">
        <ele>5</ele>
        <time>2019-07-11T14:44:10Z</time>
      </trkpt>
      <trkpt lat="48.67257" lon="-3.57727">
        <ele>5.3</ele>
        <time>2019-07-11T14:44:11Z</time>
      </trkpt>
      <trkpt lat="48.67255" lon="-3.57731">
        <ele>5.6</ele>
        <time>2019-07-11T14:44:12Z</time>
      </trkpt>
      <trkpt lat="48.67252" lon="-3.57735">
        <ele>5.4</ele>
        <time>2019-07-11T14:44:13Z</time>
      </trkpt>
      <trkpt lat="48.6725" lon="-3.57739">
        <ele>5</ele>
        <time>2019-07-11T14:44:14Z</time>
      </trkpt>
      <trkpt lat="48.67247" lon="-3.57743">
        <ele>4.6</ele>
        <time>2019-07-11T14:44:15Z</time>
      </trkpt>
      <trkpt lat="48.67245" lon="-3.57746">
        <ele>4.2</ele>
        <time>2019-07-11T14:44:16Z</time>
      </trkpt>
      <trkpt lat="48.67242" lon="-3.5775">
        <ele>4.4</ele>
        <time>2019-07-11T14:44:17Z</time>
      </trkpt>
      <trkpt lat="48.67239" lon="-3.57755">
        <ele>4.4</ele>
        <time>2019-07-11T14:44:18Z</time>
      </trkpt>
      <trkpt lat="48.67237" lon="-3.57759">
        <ele>4</ele>
        <time>2019-07-11T14:44:19Z</time>
      </trkpt>
      <trkpt lat="48.67234" lon="-3.57763">
        <ele>3.3</ele>
        <time>2019-07-11T14:44:20Z</time>
      </trkpt>
      <trkpt lat="48.67231" lon="-3.57767">
        <ele>3.1</ele>
        <time>2019-07-11T14:44:21Z</time>
      </trkpt>
      <trkpt lat="48.67228" lon="-3.57772">
        <ele>2.9</ele>
        <time>2019-07-11T14:44:22Z</time>
      </trkpt>
      <trkpt lat="48.67226" lon="-3.57775">
        <ele>3.3</ele>
        <time>2019-07-11T14:44:23Z</time>
      </trkpt>
      <trkpt lat="48.67223" lon="-3.57779">
        <ele>3.8</ele>
        <time>2019-07-11T14:44:24Z</time>
      </trkpt>
      <trkpt lat="48.6722" lon="-3.57783">
        <ele>4.1</ele>
        <time>2019-07-11T14:44:25Z</time>
      </trkpt>
      <trkpt lat="48.67218" lon="-3.57787">
        <ele>4.2</ele>
        <time>2019-07-11T14:44:26Z</time>
      </trkpt>
      <trkpt lat="48.67215" lon="-3.57792">
        <ele>3.8</ele>
        <time>2019-07-11T14:44:27Z</time>
      </trkpt>
      <trkpt lat="48.67212" lon="-3.57796">
        <ele>3.6</ele>
        <time>2019-07-11T14:44:28Z</time>
      </trkpt>
      <trkpt lat="48.6721" lon="-3.57799">
        <ele>3.5</ele>
        <time>2019-07-11T14:44:29Z</time>
      </trkpt>
      <trkpt lat="48.67207" lon="-3.57803">
        <ele>4.1</ele>
        <time>2019-07-11T14:44:30Z</time>
      </trkpt>
      <trkpt lat="48.67205" lon="-3.57807">
        <ele>5</ele>
        <time>2019-07-11T14:44:31Z</time>
      </trkpt>
      <trkpt lat="48.67202" lon="-3.57811">
        <ele>5.4</ele>
        <time>2019-07-11T14:44:32Z</time>
      </trkpt>
      <trkpt lat="48.672" lon="-3.57815">
        <ele>5.2</ele>
        <time>2019-07-11T14:44:33Z</time>
      </trkpt>
      <trkpt lat="48.67197" lon="-3.57819">
        <ele>5.1</ele>
        <time>2019-07-11T14:44:34Z</time>
      </trkpt>
      <trkpt lat="48.67195" lon="-3.57823">
        <ele>4.8</ele>
        <time>2019-07-11T14:44:35Z</time>
      </trkpt>
      <trkpt lat="48.67192" lon="-3.57827">
        <ele>4.6</ele>
        <time>2019-07-11T14:44:36Z</time>
      </trkpt>
      <trkpt lat="48.67189" lon="-3.57831">
        <ele>4.6</ele>
        <time>2019-07-11T14:44:37Z</time>
      </trkpt>
      <trkpt lat="48.67187" lon="-3.57835">
        <ele>4.8</ele>
        <time>2019-07-11T14:44:38Z</time>
      </trkpt>
      <trkpt lat="48.67184" lon="-3.57839">
        <ele>5</ele>
        <time>2019-07-11T14:44:39Z</time>
      </trkpt>
      <trkpt lat="48.67181" lon="-3.57842">
        <ele>5.7</ele>
        <time>2019-07-11T14:44:40Z</time>
      </trkpt>
      <trkpt lat="48.67179" lon="-3.57846">
        <ele>6.3</ele>
        <time>2019-07-11T14:44:41Z</time>
      </trkpt>
      <trkpt lat="48.67176" lon="-3.5785">
        <ele>6.4</ele>
        <time>2019-07-11T14:44:42Z</time>
      </trkpt>
      <trkpt lat="48.67174" lon="-3.57853">
        <ele>6.3</ele>
        <time>2019-07-11T14:44:43Z</time>
      </trkpt>
      <trkpt lat="48.67171" lon="-3.57857">
        <ele>5.5</ele>
        <time>2019-07-11T14:44:44Z</time>
      </trkpt>
      <trkpt lat="48.67168" lon="-3.57861">
        <ele>5</ele>
        <time>2019-07-11T14:44:45Z</time>
      </trkpt>
      <trkpt lat="48.67166" lon="-3.57865">
        <ele>4.2</ele>
        <time>2019-07-11T14:44:46Z</time>
      </trkpt>
      <trkpt lat="48.67163" lon="-3.57869">
        <ele>3.3</ele>
        <time>2019-07-11T14:44:47Z</time>
      </trkpt>
      <trkpt lat="48.67161" lon="-3.57873">
        <ele>2.8</ele>
        <time>2019-07-11T14:44:48Z</time>
      </trkpt>
      <trkpt lat="48.67159" lon="-3.57876">
        <ele>2.4</ele>
        <time>2019-07-11T14:44:49Z</time>
      </trkpt>
      <trkpt lat="48.67156" lon="-3.5788">
        <ele>2.1</ele>
        <time>2019-07-11T14:44:50Z</time>
      </trkpt>
      <trkpt lat="48.67153" lon="-3.57883">
        <ele>1.8</ele>
        <time>2019-07-11T14:44:51Z</time>
      </trkpt>
      <trkpt lat="48.67151" lon="-3.57887">
        <ele>2</ele>
        <time>2019-07-11T14:44:52Z</time>
      </trkpt>
      <trkpt lat="48.67149" lon="-3.5789">
        <ele>2.3</ele>
        <time>2019-07-11T14:44:53Z</time>
      </trkpt>
      <trkpt lat="48.67146" lon="-3.57893">
        <ele>2.8</ele>
        <time>2019-07-11T14:44:54Z</time>
      </trkpt>
      <trkpt lat="48.67144" lon="-3.57897">
        <ele>3.4</ele>
        <time>2019-07-11T14:44:55Z</time>
      </trkpt>
      <trkpt lat="48.67142" lon="-3.57901">
        <ele>4.1</ele>
        <time>2019-07-11T14:44:56Z</time>
      </trkpt>
      <trkpt lat="48.67139" lon="-3.57904">
        <ele>5.1</ele>
        <time>2019-07-11T14:44:57Z</time>
      </trkpt>
      <trkpt lat="48.67137" lon="-3.57908">
        <ele>6</ele>
        <time>2019-07-11T14:44:58Z</time>
      </trkpt>
      <trkpt lat="48.67134" lon="-3.57912">
        <ele>6.8</ele>
        <time>2019-07-11T14:44:59Z</time>
      </trkpt>
      <trkpt lat="48.67132" lon="-3.57916">
        <ele>7.9</ele>
        <time>2019-07-11T14:45:00Z</time>
      </trkpt>
      <trkpt lat="48.67129" lon="-3.5792">
        <ele>8.7</ele>
        <time>2019-07-11T14:45:01Z</time>
      </trkpt>
      <trkpt lat="48.67127" lon="-3.57924">
        <ele>9.1</ele>
        <time>2019-07-11T14:45:02Z</time>
      </trkpt>
      <trkpt lat="48.67124" lon="-3.57927">
        <ele>9.4</ele>
        <time>2019-07-11T14:45:03Z</time>
      </trkpt>
      <trkpt lat="48.67122" lon="-3.57931">
        <ele>9.9</ele>
        <time>2019-07-11T14:45:04Z</time>
      </trkpt>
      <trkpt lat="48.67119" lon="-3.57935">
        <ele>10</ele>
        <time>2019-07-11T14:45:05Z</time>
      </trkpt>
      <trkpt lat="48.67117" lon="-3.57939">
        <ele>10.1</ele>
        <time>2019-07-11T14:45:06Z</time>
      </trkpt>
      <trkpt lat="48.67114" lon="-3.57943">
        <ele>10.3</ele>
        <time>2019-07-11T14:45:07Z</time>
      </trkpt>
      <trkpt lat="48.67112" lon="-3.57947">
        <ele>10.5</ele>
        <time>2019-07-11T14:45:08Z</time>
      </trkpt>
      <trkpt lat="48.67109" lon="-3.57951">
        <ele>10.7</ele>
        <time>2019-07-11T14:45:09Z</time>
      </trkpt>
      <trkpt lat="48.67107" lon="-3.57955">
        <ele>11.2</ele>
        <time>2019-07-11T14:45:10Z</time>
      </trkpt>
      <trkpt lat="48.67104" lon="-3.57959">
        <ele>11.6</ele>
        <time>2019-07-11T14:45:11Z</time>
      </trkpt>
      <trkpt lat="48.67102" lon="-3.57963">
        <ele>11.5</ele>
        <time>2019-07-11T14:45:12Z</time>
      </trkpt>
      <trkpt lat="48.671" lon="-3.57967">
        <ele>11.5</ele>
        <time>2019-07-11T14:45:13Z</time>
      </trkpt>
      <trkpt lat="48.67098" lon="-3.57972">
        <ele>11.6</ele>
        <time>2019-07-11T14:45:14Z</time>
      </trkpt>
      <trkpt lat="48.67095" lon="-3.57976">
        <ele>11.8</ele>
        <time>2019-07-11T14:45:15Z</time>
      </trkpt>
      <trkpt lat="48.67093" lon="-3.57981">
        <ele>12</ele>
        <time>2019-07-11T14:45:16Z</time>
      </trkpt>
      <trkpt lat="48.6709" lon="-3.57986">
        <ele>12.3</ele>
        <time>2019-07-11T14:45:17Z</time>
      </trkpt>
      <trkpt lat="48.67088" lon="-3.5799">
        <ele>12.3</ele>
        <time>2019-07-11T14:45:18Z</time>
      </trkpt>
      <trkpt lat="48.67086" lon="-3.57995">
        <ele>12.4</ele>
        <time>2019-07-11T14:45:19Z</time>
      </trkpt>
      <trkpt lat="48.67083" lon="-3.58">
        <ele>12.4</ele>
        <time>2019-07-11T14:45:20Z</time>
      </trkpt>
      <trkpt lat="48.67081" lon="-3.58005">
        <ele>12.2</ele>
        <time>2019-07-11T14:45:21Z</time>
      </trkpt>
      <trkpt lat="48.67079" lon="-3.58009">
        <ele>11.8</ele>
        <time>2019-07-11T14:45:22Z</time>
      </trkpt>
      <trkpt lat="48.67077" lon="-3.58014">
        <ele>11.5</ele>
        <time>2019-07-11T14:45:23Z</time>
      </trkpt>
      <trkpt lat="48.67075" lon="-3.58019">
        <ele>11</ele>
        <time>2019-07-11T14:45:24Z</time>
      </trkpt>
      <trkpt lat="48.67073" lon="-3.58024">
        <ele>10.5</ele>
        <time>2019-07-11T14:45:25Z</time>
      </trkpt>
      <trkpt lat="48.67071" lon="-3.58028">
        <ele>9.9</ele>
        <time>2019-07-11T14:45:26Z</time>
      </trkpt>
      <trkpt lat="48.67069" lon="-3.58033">
        <ele>9.2</ele>
        <time>2019-07-11T14:45:27Z</time>
      </trkpt>
      <trkpt lat="48.67067" lon="-3.58037">
        <ele>8.9</ele>
        <time>2019-07-11T14:45:28Z</time>
      </trkpt>
      <trkpt lat="48.67065" lon="-3.58041">
        <ele>8.3</ele>
        <time>2019-07-11T14:45:29Z</time>
      </trkpt>
      <trkpt lat="48.67064" lon="-3.58046">
        <ele>7.5</ele>
        <time>2019-07-11T14:45:30Z</time>
      </trkpt>
      <trkpt lat="48.67062" lon="-3.5805">
        <ele>7.1</ele>
        <time>2019-07-11T14:45:31Z</time>
      </trkpt>
      <trkpt lat="48.67061" lon="-3.58054">
        <ele>6.6</ele>
        <time>2019-07-11T14:45:32Z</time>
      </trkpt>
      <trkpt lat="48.67059" lon="-3.58058">
        <ele>6.6</ele>
        <time>2019-07-11T14:45:33Z</time>
      </trkpt>
      <trkpt lat="48.67058" lon="-3.58062">
        <ele>7.1</ele>
        <time>2019-07-11T14:45:34Z</time>
      </trkpt>
      <trkpt lat="48.67056" lon="-3.58065">
        <ele>7.5</ele>
        <time>2019-07-11T14:45:35Z</time>
      </trkpt>
      <trkpt lat="48.67055" lon="-3.58069">
        <ele>7.9</ele>
        <time>2019-07-11T14:45:36Z</time>
      </trkpt>
      <trkpt lat="48.67053" lon="-3.58074">
        <ele>8.4</ele>
        <time>2019-07-11T14:45:37Z</time>
      </trkpt>
      <trkpt lat="48.67051" lon="-3.58078">
        <ele>8.7</ele>
        <time>2019-07-11T14:45:38Z</time>
      </trkpt>
      <trkpt lat="48.67049" lon="-3.58083">
        <ele>8.7</ele>
        <time>2019-07-11T14:45:39Z</time>
      </trkpt>
      <trkpt lat="48.67048" lon="-3.58088">
        <ele>8.3</ele>
        <time>2019-07-11T14:45:40Z</time>
      </trkpt>
      <trkpt lat="48.67047" lon="-3.58093">
        <ele>7.9</ele>
        <time>2019-07-11T14:45:41Z</time>
      </trkpt>
      <trkpt lat="48.67046" lon="-3.58098">
        <ele>7.5</ele>
        <time>2019-07-11T14:45:42Z</time>
      </trkpt>
      <trkpt lat="48.67045" lon="-3.58104">
        <ele>6.6</ele>
        <time>2019-07-11T14:45:43Z</time>
      </trkpt>
      <trkpt lat="48.67043" lon="-3.58109">
        <ele>5.9</ele>
        <time>2019-07-11T14:45:44Z</time>
      </trkpt>
      <trkpt lat="48.67042" lon="-3.58114">
        <ele>5.1</ele>
        <time>2019-07-11T14:45:45Z</time>
      </trkpt>
      <trkpt lat="48.67041" lon="-3.5812">
        <ele>4.5</ele>
        <time>2019-07-11T14:45:46Z</time>
      </trkpt>
      <trkpt lat="48.6704" lon="-3.58125">
        <ele>4.5</ele>
        <time>2019-07-11T14:45:47Z</time>
      </trkpt>
      <trkpt lat="48.67038" lon="-3.58131">
        <ele>5</ele>
        <time>2019-07-11T14:45:48Z</time>
      </trkpt>
      <trkpt lat="48.67037" lon="-3.58136">
        <ele>5.3</ele>
        <time>2019-07-11T14:45:49Z</time>
      </trkpt>
      <trkpt lat="48.67036" lon="-3.58141">
        <ele>5.6</ele>
        <time>2019-07-11T14:45:50Z</time>
      </trkpt>
      <trkpt lat="48.67035" lon="-3.58146">
        <ele>6.2</ele>
        <time>2019-07-11T14:45:51Z</time>
      </trkpt>
      <trkpt lat="48.67034" lon="-3.58151">
        <ele>6.4</ele>
        <time>2019-07-11T14:45:52Z</time>
      </trkpt>
      <trkpt lat="48.67033" lon="-3.58156">
        <ele>6.2</ele>
        <time>2019-07-11T14:45:53Z</time>
      </trkpt>
      <trkpt lat="48.67033" lon="-3.58162">
        <ele>5.9</ele>
        <time>2019-07-11T14:45:54Z</time>
      </trkpt>
      <trkpt lat="48.67032" lon="-3.58167">
        <ele>5.3</ele>
        <time>2019-07-11T14:45:55Z</time>
      </trkpt>
      <trkpt lat="48.67032" lon="-3.58173">
        <ele>4.9</ele>
        <time>2019-07-11T14:45:56Z</time>
      </trkpt>
      <trkpt lat="48.67032" lon="-3.58178">
        <ele>5</ele>
        <time>2019-07-11T14:45:57Z</time>
      </trkpt>
      <trkpt lat="48.67031" lon="-3.58183">
        <ele>5.1</ele>
        <time>2019-07-11T14:45:58Z</time>
      </trkpt>
      <trkpt lat="48.6703" lon="-3.58189">
        <ele>5.7</ele>
        <time>2019-07-11T14:45:59Z</time>
      </trkpt>
      <trkpt lat="48.6703" lon="-3.58194">
        <ele>6.3</ele>
        <time>2019-07-11T14:46:00Z</time>
      </trkpt>
      <trkpt lat="48.6703" lon="-3.58199">
        <ele>6.5</ele>
        <time>2019-07-11T14:46:01Z</time>
      </trkpt>
      <trkpt lat="48.6703" lon="-3.58204">
        <ele>6.2</ele>
        <time>2019-07-11T14:46:02Z</time>
      </trkpt>
      <trkpt lat="48.67029" lon="-3.5821">
        <ele>5.7</ele>
        <time>2019-07-11T14:46:03Z</time>
      </trkpt>
      <trkpt lat="48.67029" lon="-3.58215">
        <ele>4.9</ele>
        <time>2019-07-11T14:46:04Z</time>
      </trkpt>
      <trkpt lat="48.67028" lon="-3.5822">
        <ele>4</ele>
        <time>2019-07-11T14:46:05Z</time>
      </trkpt>
      <trkpt lat="48.67028" lon="-3.58225">
        <ele>2.9</ele>
        <time>2019-07-11T14:46:06Z</time>
      </trkpt>
      <trkpt lat="48.67028" lon="-3.5823">
        <ele>2.6</ele>
        <time>2019-07-11T14:46:07Z</time>
      </trkpt>
      <trkpt lat="48.67028" lon="-3.58235">
        <ele>3.1</ele>
        <time>2019-07-11T14:46:08Z</time>
      </trkpt>
      <trkpt lat="48.67027" lon="-3.58241">
        <ele>3.9</ele>
        <time>2019-07-11T14:46:09Z</time>
      </trkpt>
      <trkpt lat="48.67027" lon="-3.58246">
        <ele>4.6</ele>
        <time>2019-07-11T14:46:10Z</time>
      </trkpt>
      <trkpt lat="48.67027" lon="-3.58251">
        <ele>5.4</ele>
        <time>2019-07-11T14:46:11Z</time>
      </trkpt>
      <trkpt lat="48.67027" lon="-3.58256">
        <ele>6.1</ele>
        <time>2019-07-11T14:46:12Z</time>
      </trkpt>
      <trkpt lat="48.67027" lon="-3.58261">
        <ele>6.2</ele>
        <time>2019-07-11T14:46:13Z</time>
      </trkpt>
      <trkpt lat="48.67027" lon="-3.58265">
        <ele>5</ele>
        <time>2019-07-11T14:46:14Z</time>
      </trkpt>
      <trkpt lat="48.67027" lon="-3.5827">
        <ele>4.5</ele>
        <time>2019-07-11T14:46:15Z</time>
      </trkpt>
      <trkpt lat="48.67027" lon="-3.58276">
        <ele>4.7</ele>
        <time>2019-07-11T14:46:16Z</time>
      </trkpt>
      <trkpt lat="48.67027" lon="-3.58281">
        <ele>5</ele>
        <time>2019-07-11T14:46:17Z</time>
      </trkpt>
      <trkpt lat="48.67028" lon="-3.58286">
        <ele>5.2</ele>
        <time>2019-07-11T14:46:18Z</time>
      </trkpt>
      <trkpt lat="48.67028" lon="-3.58292">
        <ele>4.6</ele>
        <time>2019-07-11T14:46:19Z</time>
      </trkpt>
      <trkpt lat="48.67028" lon="-3.58297">
        <ele>4.4</ele>
        <time>2019-07-11T14:46:20Z</time>
      </trkpt>
      <trkpt lat="48.67028" lon="-3.58302">
        <ele>4.7</ele>
        <time>2019-07-11T14:46:21Z</time>
      </trkpt>
      <trkpt lat="48.67029" lon="-3.58307">
        <ele>4.6</ele>
        <time>2019-07-11T14:46:22Z</time>
      </trkpt>
      <trkpt lat="48.67029" lon="-3.58313">
        <ele>4</ele>
        <time>2019-07-11T14:46:23Z</time>
      </trkpt>
      <trkpt lat="48.6703" lon="-3.58318">
        <ele>3.5</ele>
        <time>2019-07-11T14:46:24Z</time>
      </trkpt>
      <trkpt lat="48.6703" lon="-3.58323">
        <ele>3.4</ele>
        <time>2019-07-11T14:46:25Z</time>
      </trkpt>
      <trkpt lat="48.6703" lon="-3.58328">
        <ele>3.6</ele>
        <time>2019-07-11T14:46:26Z</time>
      </trkpt>
      <trkpt lat="48.67031" lon="-3.58333">
        <ele>4.3</ele>
        <time>2019-07-11T14:46:27Z</time>
      </trkpt>
      <trkpt lat="48.67032" lon="-3.58338">
        <ele>4.4</ele>
        <time>2019-07-11T14:46:28Z</time>
      </trkpt>
      <trkpt lat="48.67032" lon="-3.58343">
        <ele>4</ele>
        <time>2019-07-11T14:46:29Z</time>
      </trkpt>
      <trkpt lat="48.67033" lon="-3.58349">
        <ele>3.5</ele>
        <time>2019-07-11T14:46:30Z</time>
      </trkpt>
      <trkpt lat="48.67034" lon="-3.58354">
        <ele>2.9</ele>
        <time>2019-07-11T14:46:31Z</time>
      </trkpt>
      <trkpt lat="48.67035" lon="-3.58359">
        <ele>2.5</ele>
        <time>2019-07-11T14:46:32Z</time>
      </trkpt>
      <trkpt lat="48.67035" lon="-3.58364">
        <ele>1.9</ele>
        <time>2019-07-11T14:46:33Z</time>
      </trkpt>
      <trkpt lat="48.67036" lon="-3.5837">
        <ele>1.1</ele>
        <time>2019-07-11T14:46:34Z</time>
      </trkpt>
      <trkpt lat="48.67037" lon="-3.58375">
        <ele>0.5</ele>
        <time>2019-07-11T14:46:35Z</time>
      </trkpt>
      <trkpt lat="48.67038" lon="-3.5838">
        <ele>0.1</ele>
        <time>2019-07-11T14:46:36Z</time>
      </trkpt>
      <trkpt lat="48.67038" lon="-3.58385">
        <ele>-0.3</ele>
        <time>2019-07-11T14:46:37Z</time>
      </trkpt>
      <trkpt lat="48.67039" lon="-3.5839">
        <ele>-0.7</ele>
        <time>2019-07-11T14:46:38Z</time>
      </trkpt>
      <trkpt lat="48.6704" lon="-3.58395">
        <ele>-1.2</ele>
        <time>2019-07-11T14:46:39Z</time>
      </trkpt>
      <trkpt lat="48.67041" lon="-3.584">
        <ele>-1.4</ele>
        <time>2019-07-11T14:46:40Z</time>
      </trkpt>
      <trkpt lat="48.67041" lon="-3.58405">
        <ele>-1.3</ele>
        <time>2019-07-11T14:46:41Z</time>
      </trkpt>
      <trkpt lat="48.67042" lon="-3.5841">
        <ele>-0.8</ele>
        <time>2019-07-11T14:46:42Z</time>
      </trkpt>
      <trkpt lat="48.67043" lon="-3.58415">
        <ele>0.2</ele>
        <time>2019-07-11T14:46:43Z</time>
      </trkpt>
      <trkpt lat="48.67044" lon="-3.58419">
        <ele>0.6</ele>
        <time>2019-07-11T14:46:44Z</time>
      </trkpt>
      <trkpt lat="48.67044" lon="-3.58424">
        <ele>1.4</ele>
        <time>2019-07-11T14:46:45Z</time>
      </trkpt>
      <trkpt lat="48.67045" lon="-3.58429">
        <ele>1.5</ele>
        <time>2019-07-11T14:46:46Z</time>
      </trkpt>
      <trkpt lat="48.67046" lon="-3.58434">
        <ele>2.1</ele>
        <time>2019-07-11T14:46:47Z</time>
      </trkpt>
      <trkpt lat="48.67047" lon="-3.58439">
        <ele>2.6</ele>
        <time>2019-07-11T14:46:48Z</time>
      </trkpt>
      <trkpt lat="48.67048" lon="-3.58444">
        <ele>3</ele>
        <time>2019-07-11T14:46:49Z</time>
      </trkpt>
      <trkpt lat="48.67048" lon="-3.58448">
        <ele>3.6</ele>
        <time>2019-07-11T14:46:50Z</time>
      </trkpt>
      <trkpt lat="48.67049" lon="-3.58453">
        <ele>4.2</ele>
        <time>2019-07-11T14:46:51Z</time>
      </trkpt>
      <trkpt lat="48.6705" lon="-3.58458">
        <ele>4.6</ele>
        <time>2019-07-11T14:46:52Z</time>
      </trkpt>
      <trkpt lat="48.6705" lon="-3.58463">
        <ele>4.9</ele>
        <time>2019-07-11T14:46:53Z</time>
      </trkpt>
      <trkpt lat="48.67051" lon="-3.58467">
        <ele>5.1</ele>
        <time>2019-07-11T14:46:54Z</time>
      </trkpt>
      <trkpt lat="48.67052" lon="-3.58472">
        <ele>5.3</ele>
        <time>2019-07-11T14:46:55Z</time>
      </trkpt>
      <trkpt lat="48.67053" lon="-3.58477">
        <ele>5.4</ele>
        <time>2019-07-11T14:46:56Z</time>
      </trkpt>
      <trkpt lat="48.67054" lon="-3.58481">
        <ele>5.5</ele>
        <time>2019-07-11T14:46:57Z</time>
      </trkpt>
      <trkpt lat="48.67054" lon="-3.58486">
        <ele>5.4</ele>
        <time>2019-07-11T14:46:58Z</time>
      </trkpt>
      <trkpt lat="48.67055" lon="-3.58491">
        <ele>5.3</ele>
        <time>2019-07-11T14:46:59Z</time>
      </trkpt>
      <trkpt lat="48.67056" lon="-3.58496">
        <ele>5</ele>
        <time>2019-07-11T14:47:00Z</time>
      </trkpt>
      <trkpt lat="48.67056" lon="-3.585">
        <ele>4.8</ele>
        <time>2019-07-11T14:47:01Z</time>
      </trkpt>
      <trkpt lat="48.67057" lon="-3.58505">
        <ele>4.3</ele>
        <time>2019-07-11T14:47:02Z</time>
      </trkpt>
      <trkpt lat="48.67057" lon="-3.58509">
        <ele>4.3</ele>
        <time>2019-07-11T14:47:03Z</time>
      </trkpt>
      <trkpt lat="48.67058" lon="-3.58514">
        <ele>4.1</ele>
        <time>2019-07-11T14:47:04Z</time>
      </trkpt>
      <trkpt lat="48.67059" lon="-3.58519">
        <ele>4.3</ele>
        <time>2019-07-11T14:47:05Z</time>
      </trkpt>
      <trkpt lat="48.67059" lon="-3.58523">
        <ele>4.4</ele>
        <time>2019-07-11T14:47:06Z</time>
      </trkpt>
      <trkpt lat="48.6706" lon="-3.58528">
        <ele>4.5</ele>
        <time>2019-07-11T14:47:07Z</time>
      </trkpt>
      <trkpt lat="48.67061" lon="-3.58532">
        <ele>4.6</ele>
        <time>2019-07-11T14:47:08Z</time>
      </trkpt>
      <trkpt lat="48.67061" lon="-3.58537">
        <ele>4.8</ele>
        <time>2019-07-11T14:47:09Z</time>
      </trkpt>
      <trkpt lat="48.67062" lon="-3.58541">
        <ele>5</ele>
        <time>2019-07-11T14:47:10Z</time>
      </trkpt>
      <trkpt lat="48.67062" lon="-3.58546">
        <ele>5.2</ele>
        <time>2019-07-11T14:47:11Z</time>
      </trkpt>
      <trkpt lat="48.67064" lon="-3.58551">
        <ele>5.1</ele>
        <time>2019-07-11T14:47:12Z</time>
      </trkpt>
      <trkpt lat="48.67064" lon="-3.58556">
        <ele>5.1</ele>
        <time>2019-07-11T14:47:13Z</time>
      </trkpt>
      <trkpt lat="48.67065" lon="-3.58561">
        <ele>4.8</ele>
        <time>2019-07-11T14:47:14Z</time>
      </trkpt>
      <trkpt lat="48.67066" lon="-3.58565">
        <ele>4.7</ele>
        <time>2019-07-11T14:47:15Z</time>
      </trkpt>
      <trkpt lat="48.67067" lon="-3.5857">
        <ele>4.6</ele>
        <time>2019-07-11T14:47:16Z</time>
      </trkpt>
      <trkpt lat="48.67067" lon="-3.58575">
        <ele>4.6</ele>
        <time>2019-07-11T14:47:17Z</time>
      </trkpt>
      <trkpt lat="48.67068" lon="-3.5858">
        <ele>4.8</ele>
        <time>2019-07-11T14:47:18Z</time>
      </trkpt>
      <trkpt lat="48.67069" lon="-3.58585">
        <ele>4.7</ele>
        <time>2019-07-11T14:47:19Z</time>
      </trkpt>
      <trkpt lat="48.67069" lon="-3.5859">
        <ele>4.4</ele>
        <time>2019-07-11T14:47:20Z</time>
      </trkpt>
      <trkpt lat="48.6707" lon="-3.58595">
        <ele>4.3</ele>
        <time>2019-07-11T14:47:21Z</time>
      </trkpt>
      <trkpt lat="48.6707" lon="-3.58599">
        <ele>4.2</ele>
        <time>2019-07-11T14:47:22Z</time>
      </trkpt>
      <trkpt lat="48.67071" lon="-3.58604">
        <ele>4.1</ele>
        <time>2019-07-11T14:47:23Z</time>
      </trkpt>
      <trkpt lat="48.67072" lon="-3.58609">
        <ele>4.1</ele>
        <time>2019-07-11T14:47:24Z</time>
      </trkpt>
      <trkpt lat="48.67073" lon="-3.58613">
        <ele>3.9</ele>
        <time>2019-07-11T14:47:25Z</time>
      </trkpt>
      <trkpt lat="48.67073" lon="-3.58618">
        <ele>3.8</ele>
        <time>2019-07-11T14:47:26Z</time>
      </trkpt>
      <trkpt lat="48.67074" lon="-3.58623">
        <ele>3.6</ele>
        <time>2019-07-11T14:47:27Z</time>
      </trkpt>
      <trkpt lat="48.67075" lon="-3.58628">
        <ele>3.5</ele>
        <time>2019-07-11T14:47:28Z</time>
      </trkpt>
      <trkpt lat="48.67076" lon="-3.58633">
        <ele>3.5</ele>
        <time>2019-07-11T14:47:29Z</time>
      </trkpt>
      <trkpt lat="48.67077" lon="-3.58638">
        <ele>3.4</ele>
        <time>2019-07-11T14:47:30Z</time>
      </trkpt>
      <trkpt lat="48.67077" lon="-3.58643">
        <ele>3.3</ele>
        <time>2019-07-11T14:47:31Z</time>
      </trkpt>
      <trkpt lat="48.67078" lon="-3.58647">
        <ele>3.4</ele>
        <time>2019-07-11T14:47:32Z</time>
      </trkpt>
      <trkpt lat="48.67079" lon="-3.58652">
        <ele>3.5</ele>
        <time>2019-07-11T14:47:33Z</time>
      </trkpt>
      <trkpt lat="48.6708" lon="-3.58657">
        <ele>3.5</ele>
        <time>2019-07-11T14:47:34Z</time>
      </trkpt>
      <trkpt lat="48.67082" lon="-3.58661">
        <ele>3.4</ele>
        <time>2019-07-11T14:47:35Z</time>
      </trkpt>
      <trkpt lat="48.67083" lon="-3.58666">
        <ele>3.5</ele>
        <time>2019-07-11T14:47:36Z</time>
      </trkpt>
      <trkpt lat="48.67084" lon="-3.5867">
        <ele>3.3</ele>
        <time>2019-07-11T14:47:37Z</time>
      </trkpt>
      <trkpt lat="48.67085" lon="-3.58675">
        <ele>3.4</ele>
        <time>2019-07-11T14:47:38Z</time>
      </trkpt>
      <trkpt lat="48.67086" lon="-3.58679">
        <ele>3.2</ele>
        <time>2019-07-11T14:47:39Z</time>
      </trkpt>
      <trkpt lat="48.67088" lon="-3.58683">
        <ele>3.7</ele>
        <time>2019-07-11T14:47:40Z</time>
      </trkpt>
      <trkpt lat="48.6709" lon="-3.58687">
        <ele>4.4</ele>
        <time>2019-07-11T14:47:41Z</time>
      </trkpt>
      <trkpt lat="48.67091" lon="-3.5869">
        <ele>4.9</ele>
        <time>2019-07-11T14:47:42Z</time>
      </trkpt>
      <trkpt lat="48.67093" lon="-3.58694">
        <ele>5.4</ele>
        <time>2019-07-11T14:47:43Z</time>
      </trkpt>
      <trkpt lat="48.67094" lon="-3.58697">
        <ele>5.6</ele>
        <time>2019-07-11T14:47:44Z</time>
      </trkpt>
      <trkpt lat="48.67095" lon="-3.587">
        <ele>5.9</ele>
        <time>2019-07-11T14:47:45Z</time>
      </trkpt>
      <trkpt lat="48.67096" lon="-3.58703">
        <ele>6.1</ele>
        <time>2019-07-11T14:47:46Z</time>
      </trkpt>
      <trkpt lat="48.67098" lon="-3.58705">
        <ele>6</ele>
        <time>2019-07-11T14:47:47Z</time>
      </trkpt>
      <trkpt lat="48.67099" lon="-3.58711">
        <ele>6.3</ele>
        <time>2019-07-11T14:48:11Z</time>
      </trkpt>
      <trkpt lat="48.67099" lon="-3.58714">
        <ele>6.5</ele>
        <time>2019-07-11T14:48:12Z</time>
      </trkpt>
      <trkpt lat="48.671" lon="-3.58717">
        <ele>6.6</ele>
        <time>2019-07-11T14:48:13Z</time>
      </trkpt>
      <trkpt lat="48.67101" lon="-3.58719">
        <ele>6.7</ele>
        <time>2019-07-11T14:48:14Z</time>
      </trkpt>
      <trkpt lat="48.67102" lon="-3.58723">
        <ele>6.6</ele>
        <time>2019-07-11T14:48:15Z</time>
      </trkpt>
      <trkpt lat="48.67104" lon="-3.58726">
        <ele>6.4</ele>
        <time>2019-07-11T14:48:16Z</time>
      </trkpt>
      <trkpt lat="48.67106" lon="-3.58729">
        <ele>6.3</ele>
        <time>2019-07-11T14:48:17Z</time>
      </trkpt>
      <trkpt lat="48.67107" lon="-3.58732">
        <ele>6.1</ele>
        <time>2019-07-11T14:48:18Z</time>
      </trkpt>
      <trkpt lat="48.67109" lon="-3.58736">
        <ele>5.9</ele>
        <time>2019-07-11T14:48:19Z</time>
      </trkpt>
      <trkpt lat="48.67111" lon="-3.58739">
        <ele>6</ele>
        <time>2019-07-11T14:48:20Z</time>
      </trkpt>
      <trkpt lat="48.67113" lon="-3.58743">
        <ele>6.1</ele>
        <time>2019-07-11T14:48:21Z</time>
      </trkpt>
      <trkpt lat="48.67115" lon="-3.58746">
        <ele>6</ele>
        <time>2019-07-11T14:48:22Z</time>
      </trkpt>
      <trkpt lat="48.67117" lon="-3.5875">
        <ele>6.2</ele>
        <time>2019-07-11T14:48:23Z</time>
      </trkpt>
      <trkpt lat="48.67119" lon="-3.58753">
        <ele>6.4</ele>
        <time>2019-07-11T14:48:24Z</time>
      </trkpt>
      <trkpt lat="48.6712" lon="-3.58757">
        <ele>6.3</ele>
        <time>2019-07-11T14:48:25Z</time>
      </trkpt>
      <trkpt lat="48.67123" lon="-3.58761">
        <ele>6.2</ele>
        <time>2019-07-11T14:48:26Z</time>
      </trkpt>
      <trkpt lat="48.67125" lon="-3.58765">
        <ele>6.3</ele>
        <time>2019-07-11T14:48:27Z</time>
      </trkpt>
      <trkpt lat="48.67127" lon="-3.58769">
        <ele>6.3</ele>
        <time>2019-07-11T14:48:28Z</time>
      </trkpt>
      <trkpt lat="48.67128" lon="-3.58772">
        <ele>6.3</ele>
        <time>2019-07-11T14:48:29Z</time>
      </trkpt>
      <trkpt lat="48.6713" lon="-3.58775">
        <ele>6.3</ele>
        <time>2019-07-11T14:48:30Z</time>
      </trkpt>
      <trkpt lat="48.67132" lon="-3.58779">
        <ele>6.4</ele>
        <time>2019-07-11T14:48:31Z</time>
      </trkpt>
      <trkpt lat="48.67133" lon="-3.58782">
        <ele>6.5</ele>
        <time>2019-07-11T14:48:32Z</time>
      </trkpt>
      <trkpt lat="48.67135" lon="-3.58786">
        <ele>6.9</ele>
        <time>2019-07-11T14:48:33Z</time>
      </trkpt>
      <trkpt lat="48.67137" lon="-3.58789">
        <ele>6.9</ele>
        <time>2019-07-11T14:48:34Z</time>
      </trkpt>
      <trkpt lat="48.67139" lon="-3.58793">
        <ele>6.6</ele>
        <time>2019-07-11T14:48:35Z</time>
      </trkpt>
      <trkpt lat="48.6714" lon="-3.58797">
        <ele>6.4</ele>
        <time>2019-07-11T14:48:36Z</time>
      </trkpt>
      <trkpt lat="48.67142" lon="-3.58801">
        <ele>6.3</ele>
        <time>2019-07-11T14:48:37Z</time>
      </trkpt>
      <trkpt lat="48.67144" lon="-3.58805">
        <ele>5.9</ele>
        <time>2019-07-11T14:48:38Z</time>
      </trkpt>
      <trkpt lat="48.67145" lon="-3.58809">
        <ele>5.8</ele>
        <time>2019-07-11T14:48:39Z</time>
      </trkpt>
      <trkpt lat="48.67147" lon="-3.58812">
        <ele>5.7</ele>
        <time>2019-07-11T14:48:40Z</time>
      </trkpt>
      <trkpt lat="48.67148" lon="-3.58816">
        <ele>5.8</ele>
        <time>2019-07-11T14:48:41Z</time>
      </trkpt>
      <trkpt lat="48.67149" lon="-3.5882">
        <ele>5.9</ele>
        <time>2019-07-11T14:48:42Z</time>
      </trkpt>
      <trkpt lat="48.6715" lon="-3.58825">
        <ele>6</ele>
        <time>2019-07-11T14:48:43Z</time>
      </trkpt>
      <trkpt lat="48.67151" lon="-3.5883">
        <ele>6.4</ele>
        <time>2019-07-11T14:48:44Z</time>
      </trkpt>
      <trkpt lat="48.67152" lon="-3.58834">
        <ele>6.5</ele>
        <time>2019-07-11T14:48:45Z</time>
      </trkpt>
      <trkpt lat="48.67154" lon="-3.58839">
        <ele>6.6</ele>
        <time>2019-07-11T14:48:46Z</time>
      </trkpt>
      <trkpt lat="48.67155" lon="-3.58843">
        <ele>6.9</ele>
        <time>2019-07-11T14:48:47Z</time>
      </trkpt>
      <trkpt lat="48.67156" lon="-3.58848">
        <ele>7.4</ele>
        <time>2019-07-11T14:48:48Z</time>
      </trkpt>
      <trkpt lat="48.67156" lon="-3.58853">
        <ele>7.5</ele>
        <time>2019-07-11T14:48:49Z</time>
      </trkpt>
      <trkpt lat="48.67156" lon="-3.58858">
        <ele>7.4</ele>
        <time>2019-07-11T14:48:50Z</time>
      </trkpt>
      <trkpt lat="48.67156" lon="-3.58863">
        <ele>7.5</ele>
        <time>2019-07-11T14:48:51Z</time>
      </trkpt>
      <trkpt lat="48.67156" lon="-3.58867">
        <ele>7.4</ele>
        <time>2019-07-11T14:48:52Z</time>
      </trkpt>
      <trkpt lat="48.67157" lon="-3.58873">
        <ele>7.5</ele>
        <time>2019-07-11T14:48:53Z</time>
      </trkpt>
      <trkpt lat="48.67156" lon="-3.58878">
        <ele>7.4</ele>
        <time>2019-07-11T14:48:54Z</time>
      </trkpt>
      <trkpt lat="48.67156" lon="-3.58884">
        <ele>7.3</ele>
        <time>2019-07-11T14:48:55Z</time>
      </trkpt>
      <trkpt lat="48.67155" lon="-3.58889">
        <ele>7.6</ele>
        <time>2019-07-11T14:48:56Z</time>
      </trkpt>
      <trkpt lat="48.67155" lon="-3.58894">
        <ele>7.8</ele>
        <time>2019-07-11T14:48:57Z</time>
      </trkpt>
      <trkpt lat="48.67155" lon="-3.58898">
        <ele>8.1</ele>
        <time>2019-07-11T14:48:58Z</time>
      </trkpt>
      <trkpt lat="48.67154" lon="-3.58903">
        <ele>8.3</ele>
        <time>2019-07-11T14:48:59Z</time>
      </trkpt>
      <trkpt lat="48.67154" lon="-3.58907">
        <ele>8.4</ele>
        <time>2019-07-11T14:49:00Z</time>
      </trkpt>
      <trkpt lat="48.67153" lon="-3.58912">
        <ele>8.9</ele>
        <time>2019-07-11T14:49:01Z</time>
      </trkpt>
      <trkpt lat="48.67152" lon="-3.58916">
        <ele>9.4</ele>
        <time>2019-07-11T14:49:02Z</time>
      </trkpt>
      <trkpt lat="48.67151" lon="-3.58921">
        <ele>9.5</ele>
        <time>2019-07-11T14:49:03Z</time>
      </trkpt>
      <trkpt lat="48.6715" lon="-3.58926">
        <ele>9.6</ele>
        <time>2019-07-11T14:49:04Z</time>
      </trkpt>
      <trkpt lat="48.67149" lon="-3.58931">
        <ele>9.7</ele>
        <time>2019-07-11T14:49:05Z</time>
      </trkpt>
      <trkpt lat="48.67148" lon="-3.58935">
        <ele>10</ele>
        <time>2019-07-11T14:49:06Z</time>
      </trkpt>
      <trkpt lat="48.67147" lon="-3.5894">
        <ele>10.3</ele>
        <time>2019-07-11T14:49:07Z</time>
      </trkpt>
      <trkpt lat="48.67146" lon="-3.58946">
        <ele>10</ele>
        <time>2019-07-11T14:49:08Z</time>
      </trkpt>
      <trkpt lat="48.67145" lon="-3.58951">
        <ele>9.9</ele>
        <time>2019-07-11T14:49:09Z</time>
      </trkpt>
      <trkpt lat="48.67144" lon="-3.58957">
        <ele>9.8</ele>
        <time>2019-07-11T14:49:10Z</time>
      </trkpt>
      <trkpt lat="48.67142" lon="-3.58962">
        <ele>10</ele>
        <time>2019-07-11T14:49:11Z</time>
      </trkpt>
      <trkpt lat="48.6714" lon="-3.58968">
        <ele>9.5</ele>
        <time>2019-07-11T14:49:12Z</time>
      </trkpt>
      <trkpt lat="48.67139" lon="-3.58973">
        <ele>9.3</ele>
        <time>2019-07-11T14:49:13Z</time>
      </trkpt>
      <trkpt lat="48.67137" lon="-3.58978">
        <ele>9.5</ele>
        <time>2019-07-11T14:49:14Z</time>
      </trkpt>
      <trkpt lat="48.67135" lon="-3.58983">
        <ele>9.1</ele>
        <time>2019-07-11T14:49:15Z</time>
      </trkpt>
      <trkpt lat="48.67133" lon="-3.58989">
        <ele>8.6</ele>
        <time>2019-07-11T14:49:16Z</time>
      </trkpt>
      <trkpt lat="48.67131" lon="-3.58993">
        <ele>8.6</ele>
        <time>2019-07-11T14:49:17Z</time>
      </trkpt>
      <trkpt lat="48.67129" lon="-3.58998">
        <ele>8.2</ele>
        <time>2019-07-11T14:49:18Z</time>
      </trkpt>
      <trkpt lat="48.67127" lon="-3.59003">
        <ele>7.9</ele>
        <time>2019-07-11T14:49:19Z</time>
      </trkpt>
      <trkpt lat="48.67124" lon="-3.59007">
        <ele>8</ele>
        <time>2019-07-11T14:49:20Z</time>
      </trkpt>
      <trkpt lat="48.67122" lon="-3.59011">
        <ele>7.7</ele>
        <time>2019-07-11T14:49:21Z</time>
      </trkpt>
      <trkpt lat="48.6712" lon="-3.59015">
        <ele>7.6</ele>
        <time>2019-07-11T14:49:22Z</time>
      </trkpt>
      <trkpt lat="48.67119" lon="-3.59019">
        <ele>7.8</ele>
        <time>2019-07-11T14:49:23Z</time>
      </trkpt>
      <trkpt lat="48.67116" lon="-3.59023">
        <ele>7.7</ele>
        <time>2019-07-11T14:49:24Z</time>
      </trkpt>
      <trkpt lat="48.67115" lon="-3.59027">
        <ele>7.5</ele>
        <time>2019-07-11T14:49:25Z</time>
      </trkpt>
      <trkpt lat="48.67113" lon="-3.59031">
        <ele>7</ele>
        <time>2019-07-11T14:49:26Z</time>
      </trkpt>
      <trkpt lat="48.67112" lon="-3.59035">
        <ele>6.8</ele>
        <time>2019-07-11T14:49:27Z</time>
      </trkpt>
      <trkpt lat="48.6711" lon="-3.59039">
        <ele>6.7</ele>
        <time>2019-07-11T14:49:28Z</time>
      </trkpt>
      <trkpt lat="48.67108" lon="-3.59043">
        <ele>6.4</ele>
        <time>2019-07-11T14:49:29Z</time>
      </trkpt>
      <trkpt lat="48.67106" lon="-3.59047">
        <ele>5.7</ele>
        <time>2019-07-11T14:49:30Z</time>
      </trkpt>
      <trkpt lat="48.67103" lon="-3.59052">
        <ele>5.3</ele>
        <time>2019-07-11T14:49:31Z</time>
      </trkpt>
      <trkpt lat="48.67101" lon="-3.59056">
        <ele>5</ele>
        <time>2019-07-11T14:49:32Z</time>
      </trkpt>
      <trkpt lat="48.67098" lon="-3.5906">
        <ele>5.1</ele>
        <time>2019-07-11T14:49:33Z</time>
      </trkpt>
      <trkpt lat="48.67096" lon="-3.59065">
        <ele>5.2</ele>
        <time>2019-07-11T14:49:34Z</time>
      </trkpt>
      <trkpt lat="48.67093" lon="-3.59069">
        <ele>4.8</ele>
        <time>2019-07-11T14:49:35Z</time>
      </trkpt>
      <trkpt lat="48.67091" lon="-3.59074">
        <ele>4.2</ele>
        <time>2019-07-11T14:49:36Z</time>
      </trkpt>
      <trkpt lat="48.67088" lon="-3.59079">
        <ele>3.9</ele>
        <time>2019-07-11T14:49:37Z</time>
      </trkpt>
      <trkpt lat="48.67086" lon="-3.59083">
        <ele>3.7</ele>
        <time>2019-07-11T14:49:38Z</time>
      </trkpt>
      <trkpt lat="48.67083" lon="-3.59088">
        <ele>3.5</ele>
        <time>2019-07-11T14:49:39Z</time>
      </trkpt>
      <trkpt lat="48.67081" lon="-3.59093">
        <ele>3.7</ele>
        <time>2019-07-11T14:49:40Z</time>
      </trkpt>
      <trkpt lat="48.67078" lon="-3.59098">
        <ele>3.9</ele>
        <time>2019-07-11T14:49:41Z</time>
      </trkpt>
      <trkpt lat="48.67075" lon="-3.59103">
        <ele>4.3</ele>
        <time>2019-07-11T14:49:42Z</time>
      </trkpt>
      <trkpt lat="48.67073" lon="-3.59108">
        <ele>4.2</ele>
        <time>2019-07-11T14:49:43Z</time>
      </trkpt>
      <trkpt lat="48.6707" lon="-3.59113">
        <ele>4</ele>
        <time>2019-07-11T14:49:44Z</time>
      </trkpt>
      <trkpt lat="48.67067" lon="-3.59118">
        <ele>3.7</ele>
        <time>2019-07-11T14:49:45Z</time>
      </trkpt>
      <trkpt lat="48.67065" lon="-3.59123">
        <ele>3.2</ele>
        <time>2019-07-11T14:49:46Z</time>
      </trkpt>
      <trkpt lat="48.67062" lon="-3.59128">
        <ele>2.9</ele>
        <time>2019-07-11T14:49:47Z</time>
      </trkpt>
      <trkpt lat="48.6706" lon="-3.59134">
        <ele>2.3</ele>
        <time>2019-07-11T14:49:48Z</time>
      </trkpt>
      <trkpt lat="48.67057" lon="-3.59139">
        <ele>2.1</ele>
        <time>2019-07-11T14:49:49Z</time>
      </trkpt>
      <trkpt lat="48.67054" lon="-3.59144">
        <ele>2.1</ele>
        <time>2019-07-11T14:49:50Z</time>
      </trkpt>
      <trkpt lat="48.67052" lon="-3.59149">
        <ele>2.2</ele>
        <time>2019-07-11T14:49:51Z</time>
      </trkpt>
      <trkpt lat="48.67049" lon="-3.59154">
        <ele>2</ele>
        <time>2019-07-11T14:49:52Z</time>
      </trkpt>
      <trkpt lat="48.67047" lon="-3.59159">
        <ele>1.9</ele>
        <time>2019-07-11T14:49:53Z</time>
      </trkpt>
      <trkpt lat="48.67044" lon="-3.59163">
        <ele>1.4</ele>
        <time>2019-07-11T14:49:54Z</time>
      </trkpt>
      <trkpt lat="48.67041" lon="-3.59168">
        <ele>1.1</ele>
        <time>2019-07-11T14:49:55Z</time>
      </trkpt>
      <trkpt lat="48.67039" lon="-3.59172">
        <ele>0.9</ele>
        <time>2019-07-11T14:49:56Z</time>
      </trkpt>
      <trkpt lat="48.67037" lon="-3.59176">
        <ele>0.8</ele>
        <time>2019-07-11T14:49:57Z</time>
      </trkpt>
      <trkpt lat="48.67035" lon="-3.5918">
        <ele>0.6</ele>
        <time>2019-07-11T14:49:58Z</time>
      </trkpt>
      <trkpt lat="48.67033" lon="-3.59184">
        <ele>0.1</ele>
        <time>2019-07-11T14:49:59Z</time>
      </trkpt>
      <trkpt lat="48.6703" lon="-3.59188">
        <ele>0.1</ele>
        <time>2019-07-11T14:50:00Z</time>
      </trkpt>
      <trkpt lat="48.67028" lon="-3.59192">
        <ele>0.6</ele>
        <time>2019-07-11T14:50:01Z</time>
      </trkpt>
      <trkpt lat="48.67027" lon="-3.59195">
        <ele>1.3</ele>
        <time>2019-07-11T14:50:02Z</time>
      </trkpt>
      <trkpt lat="48.67024" lon="-3.59198">
        <ele>1.8</ele>
        <time>2019-07-11T14:50:03Z</time>
      </trkpt>
      <trkpt lat="48.67022" lon="-3.59201">
        <ele>2.6</ele>
        <time>2019-07-11T14:50:04Z</time>
      </trkpt>
      <trkpt lat="48.67021" lon="-3.59204">
        <ele>3.4</ele>
        <time>2019-07-11T14:50:05Z</time>
      </trkpt>
      <trkpt lat="48.67019" lon="-3.59207">
        <ele>4.5</ele>
        <time>2019-07-11T14:50:06Z</time>
      </trkpt>
      <trkpt lat="48.67017" lon="-3.59209">
        <ele>5.4</ele>
        <time>2019-07-11T14:50:07Z</time>
      </trkpt>
      <trkpt lat="48.67016" lon="-3.59211">
        <ele>6.1</ele>
        <time>2019-07-11T14:50:08Z</time>
      </trkpt>
      <trkpt lat="48.67014" lon="-3.59214">
        <ele>6.5</ele>
        <time>2019-07-11T14:50:09Z</time>
      </trkpt>
      <trkpt lat="48.67013" lon="-3.59217">
        <ele>6.6</ele>
        <time>2019-07-11T14:50:10Z</time>
      </trkpt>
      <trkpt lat="48.67012" lon="-3.59221">
        <ele>6.3</ele>
        <time>2019-07-11T14:50:11Z</time>
      </trkpt>
      <trkpt lat="48.6701" lon="-3.59225">
        <ele>5.8</ele>
        <time>2019-07-11T14:50:12Z</time>
      </trkpt>
      <trkpt lat="48.67008" lon="-3.59229">
        <ele>5.8</ele>
        <time>2019-07-11T14:50:13Z</time>
      </trkpt>
      <trkpt lat="48.67006" lon="-3.59232">
        <ele>5.9</ele>
        <time>2019-07-11T14:50:14Z</time>
      </trkpt>
      <trkpt lat="48.67004" lon="-3.59236">
        <ele>6.4</ele>
        <time>2019-07-11T14:50:15Z</time>
      </trkpt>
      <trkpt lat="48.67001" lon="-3.59238">
        <ele>6</ele>
        <time>2019-07-11T14:50:16Z</time>
      </trkpt>
      <trkpt lat="48.66999" lon="-3.59241">
        <ele>5.3</ele>
        <time>2019-07-11T14:50:17Z</time>
      </trkpt>
      <trkpt lat="48.66996" lon="-3.59243">
        <ele>4.7</ele>
        <time>2019-07-11T14:50:18Z</time>
      </trkpt>
      <trkpt lat="48.66994" lon="-3.59247">
        <ele>4.7</ele>
        <time>2019-07-11T14:50:19Z</time>
      </trkpt>
      <trkpt lat="48.66992" lon="-3.5925">
        <ele>5.1</ele>
        <time>2019-07-11T14:50:20Z</time>
      </trkpt>
      <trkpt lat="48.6699" lon="-3.59255">
        <ele>5.5</ele>
        <time>2019-07-11T14:50:21Z</time>
      </trkpt>
      <trkpt lat="48.66987" lon="-3.59259">
        <ele>5.5</ele>
        <time>2019-07-11T14:50:22Z</time>
      </trkpt>
      <trkpt lat="48.66985" lon="-3.59263">
        <ele>5.6</ele>
        <time>2019-07-11T14:50:23Z</time>
      </trkpt>
      <trkpt lat="48.66982" lon="-3.59268">
        <ele>5.7</ele>
        <time>2019-07-11T14:50:24Z</time>
      </trkpt>
      <trkpt lat="48.6698" lon="-3.59272">
        <ele>5.9</ele>
        <time>2019-07-11T14:50:25Z</time>
      </trkpt>
      <trkpt lat="48.66977" lon="-3.59277">
        <ele>6.6</ele>
        <time>2019-07-11T14:50:26Z</time>
      </trkpt>
      <trkpt lat="48.66975" lon="-3.59282">
        <ele>7.1</ele>
        <time>2019-07-11T14:50:27Z</time>
      </trkpt>
      <trkpt lat="48.66972" lon="-3.59287">
        <ele>6.9</ele>
        <time>2019-07-11T14:50:28Z</time>
      </trkpt>
      <trkpt lat="48.6697" lon="-3.59292">
        <ele>6.6</ele>
        <time>2019-07-11T14:50:29Z</time>
      </trkpt>
      <trkpt lat="48.66967" lon="-3.59296">
        <ele>6.7</ele>
        <time>2019-07-11T14:50:30Z</time>
      </trkpt>
      <trkpt lat="48.66965" lon="-3.59301">
        <ele>6.9</ele>
        <time>2019-07-11T14:50:31Z</time>
      </trkpt>
      <trkpt lat="48.66962" lon="-3.59306">
        <ele>7</ele>
        <time>2019-07-11T14:50:32Z</time>
      </trkpt>
      <trkpt lat="48.66959" lon="-3.59312">
        <ele>7</ele>
        <time>2019-07-11T14:50:33Z</time>
      </trkpt>
      <trkpt lat="48.66957" lon="-3.59317">
        <ele>7.2</ele>
        <time>2019-07-11T14:50:34Z</time>
      </trkpt>
      <trkpt lat="48.66954" lon="-3.59322">
        <ele>7.2</ele>
        <time>2019-07-11T14:50:35Z</time>
      </trkpt>
      <trkpt lat="48.66952" lon="-3.59327">
        <ele>6.9</ele>
        <time>2019-07-11T14:50:36Z</time>
      </trkpt>
      <trkpt lat="48.66949" lon="-3.59332">
        <ele>6.8</ele>
        <time>2019-07-11T14:50:37Z</time>
      </trkpt>
      <trkpt lat="48.66946" lon="-3.59337">
        <ele>6.7</ele>
        <time>2019-07-11T14:50:38Z</time>
      </trkpt>
      <trkpt lat="48.66944" lon="-3.59342">
        <ele>6.5</ele>
        <time>2019-07-11T14:50:39Z</time>
      </trkpt>
      <trkpt lat="48.66942" lon="-3.59347">
        <ele>6.4</ele>
        <time>2019-07-11T14:50:40Z</time>
      </trkpt>
      <trkpt lat="48.66939" lon="-3.59352">
        <ele>6.4</ele>
        <time>2019-07-11T14:50:41Z</time>
      </trkpt>
      <trkpt lat="48.66937" lon="-3.59357">
        <ele>6.4</ele>
        <time>2019-07-11T14:50:42Z</time>
      </trkpt>
      <trkpt lat="48.66935" lon="-3.59361">
        <ele>6.1</ele>
        <time>2019-07-11T14:50:43Z</time>
      </trkpt>
      <trkpt lat="48.66933" lon="-3.59366">
        <ele>6.4</ele>
        <time>2019-07-11T14:50:44Z</time>
      </trkpt>
      <trkpt lat="48.6693" lon="-3.59371">
        <ele>6.6</ele>
        <time>2019-07-11T14:50:45Z</time>
      </trkpt>
      <trkpt lat="48.66927" lon="-3.59376">
        <ele>6.4</ele>
        <time>2019-07-11T14:50:46Z</time>
      </trkpt>
      <trkpt lat="48.66925" lon="-3.59381">
        <ele>6.6</ele>
        <time>2019-07-11T14:50:47Z</time>
      </trkpt>
      <trkpt lat="48.66922" lon="-3.59386">
        <ele>6.5</ele>
        <time>2019-07-11T14:50:48Z</time>
      </trkpt>
      <trkpt lat="48.66919" lon="-3.59391">
        <ele>6.5</ele>
        <time>2019-07-11T14:50:49Z</time>
      </trkpt>
      <trkpt lat="48.66917" lon="-3.59396">
        <ele>7</ele>
        <time>2019-07-11T14:50:50Z</time>
      </trkpt>
      <trkpt lat="48.66915" lon="-3.59401">
        <ele>7.1</ele>
        <time>2019-07-11T14:50:51Z</time>
      </trkpt>
      <trkpt lat="48.66913" lon="-3.59406">
        <ele>7</ele>
        <time>2019-07-11T14:50:52Z</time>
      </trkpt>
      <trkpt lat="48.6691" lon="-3.59411">
        <ele>7.3</ele>
        <time>2019-07-11T14:50:53Z</time>
      </trkpt>
      <trkpt lat="48.66908" lon="-3.59416">
        <ele>7.2</ele>
        <time>2019-07-11T14:50:54Z</time>
      </trkpt>
      <trkpt lat="48.66905" lon="-3.59422">
        <ele>7.5</ele>
        <time>2019-07-11T14:50:55Z</time>
      </trkpt>
      <trkpt lat="48.66903" lon="-3.59427">
        <ele>7</ele>
        <time>2019-07-11T14:50:56Z</time>
      </trkpt>
      <trkpt lat="48.669" lon="-3.59432">
        <ele>7</ele>
        <time>2019-07-11T14:50:57Z</time>
      </trkpt>
      <trkpt lat="48.66898" lon="-3.59437">
        <ele>7.2</ele>
        <time>2019-07-11T14:50:58Z</time>
      </trkpt>
      <trkpt lat="48.66896" lon="-3.59442">
        <ele>7.4</ele>
        <time>2019-07-11T14:50:59Z</time>
      </trkpt>
      <trkpt lat="48.66895" lon="-3.59447">
        <ele>7.1</ele>
        <time>2019-07-11T14:51:00Z</time>
      </trkpt>
      <trkpt lat="48.66893" lon="-3.59453">
        <ele>7.1</ele>
        <time>2019-07-11T14:51:01Z</time>
      </trkpt>
      <trkpt lat="48.66891" lon="-3.59458">
        <ele>6.8</ele>
        <time>2019-07-11T14:51:02Z</time>
      </trkpt>
      <trkpt lat="48.66889" lon="-3.59463">
        <ele>6.9</ele>
        <time>2019-07-11T14:51:03Z</time>
      </trkpt>
      <trkpt lat="48.66887" lon="-3.59469">
        <ele>6.8</ele>
        <time>2019-07-11T14:51:04Z</time>
      </trkpt>
      <trkpt lat="48.66885" lon="-3.59475">
        <ele>6.7</ele>
        <time>2019-07-11T14:51:05Z</time>
      </trkpt>
      <trkpt lat="48.66883" lon="-3.5948">
        <ele>6.9</ele>
        <time>2019-07-11T14:51:06Z</time>
      </trkpt>
      <trkpt lat="48.66881" lon="-3.59486">
        <ele>6.9</ele>
        <time>2019-07-11T14:51:07Z</time>
      </trkpt>
      <trkpt lat="48.6688" lon="-3.59491">
        <ele>6.9</ele>
        <time>2019-07-11T14:51:08Z</time>
      </trkpt>
      <trkpt lat="48.66878" lon="-3.59497">
        <ele>7.1</ele>
        <time>2019-07-11T14:51:09Z</time>
      </trkpt>
      <trkpt lat="48.66877" lon="-3.59502">
        <ele>7.2</ele>
        <time>2019-07-11T14:51:10Z</time>
      </trkpt>
      <trkpt lat="48.66875" lon="-3.59508">
        <ele>7.3</ele>
        <time>2019-07-11T14:51:11Z</time>
      </trkpt>
      <trkpt lat="48.66874" lon="-3.59513">
        <ele>7.6</ele>
        <time>2019-07-11T14:51:12Z</time>
      </trkpt>
      <trkpt lat="48.66872" lon="-3.59517">
        <ele>8.2</ele>
        <time>2019-07-11T14:51:13Z</time>
      </trkpt>
      <trkpt lat="48.66871" lon="-3.59522">
        <ele>8.5</ele>
        <time>2019-07-11T14:51:14Z</time>
      </trkpt>
      <trkpt lat="48.6687" lon="-3.59526">
        <ele>9.2</ele>
        <time>2019-07-11T14:51:15Z</time>
      </trkpt>
      <trkpt lat="48.66869" lon="-3.59531">
        <ele>9.8</ele>
        <time>2019-07-11T14:51:16Z</time>
      </trkpt>
      <trkpt lat="48.66868" lon="-3.59537">
        <ele>10.2</ele>
        <time>2019-07-11T14:51:17Z</time>
      </trkpt>
      <trkpt lat="48.66867" lon="-3.59541">
        <ele>12.5</ele>
        <time>2019-07-11T14:51:18Z</time>
      </trkpt>
      <trkpt lat="48.66866" lon="-3.59545">
        <ele>12.9</ele>
        <time>2019-07-11T14:51:19Z</time>
      </trkpt>
      <trkpt lat="48.66864" lon="-3.5955">
        <ele>13.3</ele>
        <time>2019-07-11T14:51:20Z</time>
      </trkpt>
      <trkpt lat="48.66863" lon="-3.59555">
        <ele>13.6</ele>
        <time>2019-07-11T14:51:21Z</time>
      </trkpt>
      <trkpt lat="48.66861" lon="-3.59561">
        <ele>14.1</ele>
        <time>2019-07-11T14:51:22Z</time>
      </trkpt>
      <trkpt lat="48.66861" lon="-3.59567">
        <ele>14.4</ele>
        <time>2019-07-11T14:51:23Z</time>
      </trkpt>
      <trkpt lat="48.6686" lon="-3.59573">
        <ele>14.4</ele>
        <time>2019-07-11T14:51:24Z</time>
      </trkpt>
      <trkpt lat="48.66859" lon="-3.5958">
        <ele>14.8</ele>
        <time>2019-07-11T14:51:25Z</time>
      </trkpt>
      <trkpt lat="48.66858" lon="-3.59586">
        <ele>15.3</ele>
        <time>2019-07-11T14:51:26Z</time>
      </trkpt>
      <trkpt lat="48.66857" lon="-3.59593">
        <ele>15.7</ele>
        <time>2019-07-11T14:51:27Z</time>
      </trkpt>
      <trkpt lat="48.66856" lon="-3.596">
        <ele>16.1</ele>
        <time>2019-07-11T14:51:28Z</time>
      </trkpt>
      <trkpt lat="48.66856" lon="-3.59606">
        <ele>15.5</ele>
        <time>2019-07-11T14:51:29Z</time>
      </trkpt>
      <trkpt lat="48.66855" lon="-3.59612">
        <ele>15.4</ele>
        <time>2019-07-11T14:51:30Z</time>
      </trkpt>
      <trkpt lat="48.66855" lon="-3.59619">
        <ele>15</ele>
        <time>2019-07-11T14:51:31Z</time>
      </trkpt>
      <trkpt lat="48.66855" lon="-3.59626">
        <ele>15</ele>
        <time>2019-07-11T14:51:32Z</time>
      </trkpt>
      <trkpt lat="48.66855" lon="-3.59632">
        <ele>15.6</ele>
        <time>2019-07-11T14:51:33Z</time>
      </trkpt>
      <trkpt lat="48.66855" lon="-3.59639">
        <ele>15.6</ele>
        <time>2019-07-11T14:51:34Z</time>
      </trkpt>
      <trkpt lat="48.66855" lon="-3.59645">
        <ele>14.9</ele>
        <time>2019-07-11T14:51:35Z</time>
      </trkpt>
      <trkpt lat="48.66856" lon="-3.59651">
        <ele>14.8</ele>
        <time>2019-07-11T14:51:36Z</time>
      </trkpt>
      <trkpt lat="48.66856" lon="-3.59657">
        <ele>14.8</ele>
        <time>2019-07-11T14:51:37Z</time>
      </trkpt>
      <trkpt lat="48.66856" lon="-3.59663">
        <ele>15.7</ele>
        <time>2019-07-11T14:51:38Z</time>
      </trkpt>
      <trkpt lat="48.66856" lon="-3.59669">
        <ele>16.6</ele>
        <time>2019-07-11T14:51:39Z</time>
      </trkpt>
      <trkpt lat="48.66856" lon="-3.59676">
        <ele>15.9</ele>
        <time>2019-07-11T14:51:40Z</time>
      </trkpt>
      <trkpt lat="48.66856" lon="-3.59682">
        <ele>15.3</ele>
        <time>2019-07-11T14:51:41Z</time>
      </trkpt>
      <trkpt lat="48.66857" lon="-3.59688">
        <ele>15.4</ele>
        <time>2019-07-11T14:51:42Z</time>
      </trkpt>
      <trkpt lat="48.66857" lon="-3.59694">
        <ele>15.2</ele>
        <time>2019-07-11T14:51:43Z</time>
      </trkpt>
      <trkpt lat="48.66858" lon="-3.597">
        <ele>15.3</ele>
        <time>2019-07-11T14:51:44Z</time>
      </trkpt>
      <trkpt lat="48.66857" lon="-3.59705">
        <ele>15.8</ele>
        <time>2019-07-11T14:51:45Z</time>
      </trkpt>
      <trkpt lat="48.66858" lon="-3.5971">
        <ele>15.8</ele>
        <time>2019-07-11T14:51:46Z</time>
      </trkpt>
      <trkpt lat="48.66859" lon="-3.59715">
        <ele>14.3</ele>
        <time>2019-07-11T14:51:47Z</time>
      </trkpt>
      <trkpt lat="48.66859" lon="-3.5972">
        <ele>13.4</ele>
        <time>2019-07-11T14:51:48Z</time>
      </trkpt>
      <trkpt lat="48.6686" lon="-3.59726">
        <ele>12.9</ele>
        <time>2019-07-11T14:51:49Z</time>
      </trkpt>
      <trkpt lat="48.66861" lon="-3.59732">
        <ele>12.5</ele>
        <time>2019-07-11T14:51:50Z</time>
      </trkpt>
      <trkpt lat="48.66861" lon="-3.59737">
        <ele>12.1</ele>
        <time>2019-07-11T14:51:51Z</time>
      </trkpt>
      <trkpt lat="48.66862" lon="-3.59742">
        <ele>11.2</ele>
        <time>2019-07-11T14:51:52Z</time>
      </trkpt>
      <trkpt lat="48.66864" lon="-3.59748">
        <ele>9.7</ele>
        <time>2019-07-11T14:51:53Z</time>
      </trkpt>
      <trkpt lat="48.66864" lon="-3.59754">
        <ele>9</ele>
        <time>2019-07-11T14:51:54Z</time>
      </trkpt>
      <trkpt lat="48.66864" lon="-3.59759">
        <ele>8.3</ele>
        <time>2019-07-11T14:51:55Z</time>
      </trkpt>
      <trkpt lat="48.66864" lon="-3.59763">
        <ele>7.9</ele>
        <time>2019-07-11T14:51:56Z</time>
      </trkpt>
      <trkpt lat="48.66864" lon="-3.59768">
        <ele>6.8</ele>
        <time>2019-07-11T14:51:57Z</time>
      </trkpt>
      <trkpt lat="48.66863" lon="-3.59772">
        <ele>6.4</ele>
        <time>2019-07-11T14:51:58Z</time>
      </trkpt>
      <trkpt lat="48.66863" lon="-3.59777">
        <ele>5.8</ele>
        <time>2019-07-11T14:51:59Z</time>
      </trkpt>
      <trkpt lat="48.66863" lon="-3.5978">
        <ele>5.7</ele>
        <time>2019-07-11T14:52:00Z</time>
      </trkpt>
      <trkpt lat="48.66862" lon="-3.59783">
        <ele>5.9</ele>
        <time>2019-07-11T14:52:01Z</time>
      </trkpt>
      <trkpt lat="48.66863" lon="-3.59787">
        <ele>6.7</ele>
        <time>2019-07-11T14:52:02Z</time>
      </trkpt>
      <trkpt lat="48.66863" lon="-3.5979">
        <ele>7</ele>
        <time>2019-07-11T14:52:03Z</time>
      </trkpt>
      <trkpt lat="48.66864" lon="-3.59793">
        <ele>7</ele>
        <time>2019-07-11T14:52:04Z</time>
      </trkpt>
      <trkpt lat="48.66864" lon="-3.59797">
        <ele>7.2</ele>
        <time>2019-07-11T14:52:05Z</time>
      </trkpt>
      <trkpt lat="48.66864" lon="-3.59801">
        <ele>7.6</ele>
        <time>2019-07-11T14:52:06Z</time>
      </trkpt>
      <trkpt lat="48.66864" lon="-3.59804">
        <ele>7.8</ele>
        <time>2019-07-11T14:52:07Z</time>
      </trkpt>
      <trkpt lat="48.66863" lon="-3.59808">
        <ele>7.7</ele>
        <time>2019-07-11T14:52:08Z</time>
      </trkpt>
      <trkpt lat="48.66863" lon="-3.59811">
        <ele>7.6</ele>
        <time>2019-07-11T14:52:09Z</time>
      </trkpt>
      <trkpt lat="48.66863" lon="-3.59814">
        <ele>8</ele>
        <time>2019-07-11T14:52:10Z</time>
      </trkpt>
      <trkpt lat="48.66863" lon="-3.59816">
        <ele>8.5</ele>
        <time>2019-07-11T14:52:11Z</time>
      </trkpt>
      <trkpt lat="48.66863" lon="-3.59819">
        <ele>9.4</ele>
        <time>2019-07-11T14:52:12Z</time>
      </trkpt>
      <trkpt lat="48.66863" lon="-3.59821">
        <ele>10.2</ele>
        <time>2019-07-11T14:52:13Z</time>
      </trkpt>
      <trkpt lat="48.66861" lon="-3.5983">
        <ele>11.4</ele>
        <time>2019-07-11T14:52:47Z</time>
      </trkpt>
      <trkpt lat="48.66859" lon="-3.59828">
        <ele>11.2</ele>
        <time>2019-07-11T14:52:51Z</time>
      </trkpt>
      <trkpt lat="48.66858" lon="-3.59829">
        <ele>11.1</ele>
        <time>2019-07-11T14:52:52Z</time>
      </trkpt>
      <trkpt lat="48.66856" lon="-3.59835">
        <ele>12</ele>
        <time>2019-07-11T14:53:03Z</time>
      </trkpt>
      <trkpt lat="48.66855" lon="-3.59838">
        <ele>12.4</ele>
        <time>2019-07-11T14:53:04Z</time>
      </trkpt>
      <trkpt lat="48.66855" lon="-3.59842">
        <ele>12.8</ele>
        <time>2019-07-11T14:53:05Z</time>
      </trkpt>
      <trkpt lat="48.66854" lon="-3.59847">
        <ele>13.1</ele>
        <time>2019-07-11T14:53:06Z</time>
      </trkpt>
      <trkpt lat="48.66853" lon="-3.59852">
        <ele>13.5</ele>
        <time>2019-07-11T14:53:07Z</time>
      </trkpt>
      <trkpt lat="48.66853" lon="-3.59857">
        <ele>13.6</ele>
        <time>2019-07-11T14:53:08Z</time>
      </trkpt>
      <trkpt lat="48.66852" lon="-3.59862">
        <ele>13.5</ele>
        <time>2019-07-11T14:53:09Z</time>
      </trkpt>
      <trkpt lat="48.66851" lon="-3.59867">
        <ele>13.7</ele>
        <time>2019-07-11T14:53:10Z</time>
      </trkpt>
      <trkpt lat="48.66851" lon="-3.59872">
        <ele>13.7</ele>
        <time>2019-07-11T14:53:11Z</time>
      </trkpt>
      <trkpt lat="48.66851" lon="-3.59878">
        <ele>13.3</ele>
        <time>2019-07-11T14:53:12Z</time>
      </trkpt>
      <trkpt lat="48.66851" lon="-3.59883">
        <ele>13</ele>
        <time>2019-07-11T14:53:13Z</time>
      </trkpt>
      <trkpt lat="48.6685" lon="-3.59888">
        <ele>13.3</ele>
        <time>2019-07-11T14:53:14Z</time>
      </trkpt>
      <trkpt lat="48.6685" lon="-3.59894">
        <ele>13.3</ele>
        <time>2019-07-11T14:53:15Z</time>
      </trkpt>
      <trkpt lat="48.66849" lon="-3.59899">
        <ele>13.2</ele>
        <time>2019-07-11T14:53:16Z</time>
      </trkpt>
      <trkpt lat="48.66849" lon="-3.59905">
        <ele>12.7</ele>
        <time>2019-07-11T14:53:17Z</time>
      </trkpt>
      <trkpt lat="48.66848" lon="-3.5991">
        <ele>12.3</ele>
        <time>2019-07-11T14:53:18Z</time>
      </trkpt>
      <trkpt lat="48.66848" lon="-3.59916">
        <ele>12.1</ele>
        <time>2019-07-11T14:53:19Z</time>
      </trkpt>
      <trkpt lat="48.66848" lon="-3.59922">
        <ele>12.2</ele>
        <time>2019-07-11T14:53:20Z</time>
      </trkpt>
      <trkpt lat="48.66848" lon="-3.59928">
        <ele>12.7</ele>
        <time>2019-07-11T14:53:21Z</time>
      </trkpt>
      <trkpt lat="48.66847" lon="-3.59934">
        <ele>13</ele>
        <time>2019-07-11T14:53:22Z</time>
      </trkpt>
      <trkpt lat="48.66847" lon="-3.59941">
        <ele>12.8</ele>
        <time>2019-07-11T14:53:23Z</time>
      </trkpt>
      <trkpt lat="48.66848" lon="-3.59947">
        <ele>12.3</ele>
        <time>2019-07-11T14:53:24Z</time>
      </trkpt>
      <trkpt lat="48.66848" lon="-3.59953">
        <ele>12</ele>
        <time>2019-07-11T14:53:25Z</time>
      </trkpt>
      <trkpt lat="48.66849" lon="-3.59959">
        <ele>11.9</ele>
        <time>2019-07-11T14:53:26Z</time>
      </trkpt>
      <trkpt lat="48.66848" lon="-3.59965">
        <ele>11.6</ele>
        <time>2019-07-11T14:53:27Z</time>
      </trkpt>
      <trkpt lat="48.66847" lon="-3.59972">
        <ele>11.6</ele>
        <time>2019-07-11T14:53:28Z</time>
      </trkpt>
      <trkpt lat="48.66847" lon="-3.59978">
        <ele>11.6</ele>
        <time>2019-07-11T14:53:29Z</time>
      </trkpt>
      <trkpt lat="48.66847" lon="-3.59983">
        <ele>11.4</ele>
        <time>2019-07-11T14:53:30Z</time>
      </trkpt>
      <trkpt lat="48.66847" lon="-3.5999">
        <ele>11.2</ele>
        <time>2019-07-11T14:53:31Z</time>
      </trkpt>
      <trkpt lat="48.66847" lon="-3.59996">
        <ele>10.8</ele>
        <time>2019-07-11T14:53:32Z</time>
      </trkpt>
      <trkpt lat="48.66846" lon="-3.60002">
        <ele>9.4</ele>
        <time>2019-07-11T14:53:33Z</time>
      </trkpt>
      <trkpt lat="48.66846" lon="-3.60008">
        <ele>9.9</ele>
        <time>2019-07-11T14:53:34Z</time>
      </trkpt>
      <trkpt lat="48.66845" lon="-3.60013">
        <ele>10.6</ele>
        <time>2019-07-11T14:53:35Z</time>
      </trkpt>
      <trkpt lat="48.66844" lon="-3.60019">
        <ele>11.7</ele>
        <time>2019-07-11T14:53:36Z</time>
      </trkpt>
      <trkpt lat="48.66843" lon="-3.60025">
        <ele>12.6</ele>
        <time>2019-07-11T14:53:37Z</time>
      </trkpt>
      <trkpt lat="48.66843" lon="-3.60031">
        <ele>12.9</ele>
        <time>2019-07-11T14:53:38Z</time>
      </trkpt>
      <trkpt lat="48.66842" lon="-3.60037">
        <ele>12.9</ele>
        <time>2019-07-11T14:53:39Z</time>
      </trkpt>
      <trkpt lat="48.66842" lon="-3.60043">
        <ele>12.2</ele>
        <time>2019-07-11T14:53:40Z</time>
      </trkpt>
      <trkpt lat="48.66841" lon="-3.60048">
        <ele>12</ele>
        <time>2019-07-11T14:53:41Z</time>
      </trkpt>
      <trkpt lat="48.6684" lon="-3.60052">
        <ele>12.3</ele>
        <time>2019-07-11T14:53:42Z</time>
      </trkpt>
      <trkpt lat="48.6684" lon="-3.60056">
        <ele>12.5</ele>
        <time>2019-07-11T14:53:43Z</time>
      </trkpt>
      <trkpt lat="48.6684" lon="-3.6006">
        <ele>12.5</ele>
        <time>2019-07-11T14:53:44Z</time>
      </trkpt>
      <trkpt lat="48.66839" lon="-3.60065">
        <ele>12.1</ele>
        <time>2019-07-11T14:53:45Z</time>
      </trkpt>
      <trkpt lat="48.66838" lon="-3.6007">
        <ele>12</ele>
        <time>2019-07-11T14:53:46Z</time>
      </trkpt>
      <trkpt lat="48.66836" lon="-3.60072">
        <ele>11.7</ele>
        <time>2019-07-11T14:53:47Z</time>
      </trkpt>
      <trkpt lat="48.66835" lon="-3.60074">
        <ele>11.6</ele>
        <time>2019-07-11T14:53:48Z</time>
      </trkpt>
      <trkpt lat="48.66833" lon="-3.60075">
        <ele>12.1</ele>
        <time>2019-07-11T14:53:49Z</time>
      </trkpt>
      <trkpt lat="48.66832" lon="-3.60075">
        <ele>12.6</ele>
        <time>2019-07-11T14:53:50Z</time>
      </trkpt>
      <trkpt lat="48.6683" lon="-3.60076">
        <ele>12.6</ele>
        <time>2019-07-11T14:53:51Z</time>
      </trkpt>
      <trkpt lat="48.66829" lon="-3.60076">
        <ele>12.8</ele>
        <time>2019-07-11T14:53:52Z</time>
      </trkpt>
      <trkpt lat="48.66827" lon="-3.60076">
        <ele>12.6</ele>
        <time>2019-07-11T14:53:53Z</time>
      </trkpt>
      <trkpt lat="48.66825" lon="-3.60076">
        <ele>12.5</ele>
        <time>2019-07-11T14:53:54Z</time>
      </trkpt>
      <trkpt lat="48.66822" lon="-3.60075">
        <ele>11.9</ele>
        <time>2019-07-11T14:53:55Z</time>
      </trkpt>
      <trkpt lat="48.6682" lon="-3.60075">
        <ele>11.5</ele>
        <time>2019-07-11T14:53:56Z</time>
      </trkpt>
      <trkpt lat="48.66818" lon="-3.60075">
        <ele>10.9</ele>
        <time>2019-07-11T14:53:57Z</time>
      </trkpt>
      <trkpt lat="48.66816" lon="-3.60077">
        <ele>11.1</ele>
        <time>2019-07-11T14:53:58Z</time>
      </trkpt>
      <trkpt lat="48.66814" lon="-3.60078">
        <ele>11</ele>
        <time>2019-07-11T14:53:59Z</time>
      </trkpt>
      <trkpt lat="48.66813" lon="-3.60078">
        <ele>11.4</ele>
        <time>2019-07-11T14:54:00Z</time>
      </trkpt>
      <trkpt lat="48.66812" lon="-3.60079">
        <ele>12.1</ele>
        <time>2019-07-11T14:54:01Z</time>
      </trkpt>
      <trkpt lat="48.66811" lon="-3.6008">
        <ele>12.7</ele>
        <time>2019-07-11T14:54:02Z</time>
      </trkpt>
      <trkpt lat="48.6681" lon="-3.6008">
        <ele>13.1</ele>
        <time>2019-07-11T14:54:03Z</time>
      </trkpt>
      <trkpt lat="48.66809" lon="-3.60079">
        <ele>14</ele>
        <time>2019-07-11T14:54:04Z</time>
      </trkpt>
      <trkpt lat="48.66801" lon="-3.60086">
        <ele>13.4</ele>
        <time>2019-07-11T14:54:20Z</time>
      </trkpt>
      <trkpt lat="48.66792" lon="-3.60095">
        <ele>15.9</ele>
        <time>2019-07-11T14:59:46Z</time>
      </trkpt>
      <trkpt lat="48.66792" lon="-3.60097">
        <ele>15.9</ele>
        <time>2019-07-11T14:59:47Z</time>
      </trkpt>
      <trkpt lat="48.66792" lon="-3.60099">
        <ele>15.8</ele>
        <time>2019-07-11T14:59:48Z</time>
      </trkpt>
      <trkpt lat="48.66791" lon="-3.60102">
        <ele>15.9</ele>
        <time>2019-07-11T14:59:49Z</time>
      </trkpt>
      <trkpt lat="48.66791" lon="-3.60105">
        <ele>15.9</ele>
        <time>2019-07-11T14:59:50Z</time>
      </trkpt>
      <trkpt lat="48.6679" lon="-3.60108">
        <ele>16</ele>
        <time>2019-07-11T14:59:51Z</time>
      </trkpt>
      <trkpt lat="48.6679" lon="-3.60111">
        <ele>16.1</ele>
        <time>2019-07-11T14:59:52Z</time>
      </trkpt>
      <trkpt lat="48.66789" lon="-3.60113">
        <ele>16.1</ele>
        <time>2019-07-11T14:59:53Z</time>
      </trkpt>
      <trkpt lat="48.66788" lon="-3.60115">
        <ele>16.1</ele>
        <time>2019-07-11T14:59:54Z</time>
      </trkpt>
      <trkpt lat="48.66787" lon="-3.60117">
        <ele>16.3</ele>
        <time>2019-07-11T14:59:55Z</time>
      </trkpt>
      <trkpt lat="48.66786" lon="-3.60118">
        <ele>16.4</ele>
        <time>2019-07-11T14:59:56Z</time>
      </trkpt>
      <trkpt lat="48.66784" lon="-3.6012">
        <ele>16.4</ele>
        <time>2019-07-11T14:59:57Z</time>
      </trkpt>
      <trkpt lat="48.66783" lon="-3.6012">
        <ele>16.2</ele>
        <time>2019-07-11T14:59:58Z</time>
      </trkpt>
      <trkpt lat="48.66781" lon="-3.60121">
        <ele>16.2</ele>
        <time>2019-07-11T14:59:59Z</time>
      </trkpt>
      <trkpt lat="48.66779" lon="-3.60121">
        <ele>16.2</ele>
        <time>2019-07-11T15:00:00Z</time>
      </trkpt>
      <trkpt lat="48.66778" lon="-3.6012">
        <ele>16</ele>
        <time>2019-07-11T15:00:01Z</time>
      </trkpt>
      <trkpt lat="48.66776" lon="-3.6012">
        <ele>15.9</ele>
        <time>2019-07-11T15:00:02Z</time>
      </trkpt>
      <trkpt lat="48.66774" lon="-3.60119">
        <ele>15.8</ele>
        <time>2019-07-11T15:00:03Z</time>
      </trkpt>
      <trkpt lat="48.66773" lon="-3.60119">
        <ele>15.8</ele>
        <time>2019-07-11T15:00:04Z</time>
      </trkpt>
      <trkpt lat="48.66771" lon="-3.60119">
        <ele>15.9</ele>
        <time>2019-07-11T15:00:05Z</time>
      </trkpt>
      <trkpt lat="48.66769" lon="-3.60119">
        <ele>16</ele>
        <time>2019-07-11T15:00:06Z</time>
      </trkpt>
      <trkpt lat="48.66768" lon="-3.60118">
        <ele>16.2</ele>
        <time>2019-07-11T15:00:07Z</time>
      </trkpt>
      <trkpt lat="48.66766" lon="-3.60118">
        <ele>16.2</ele>
        <time>2019-07-11T15:00:08Z</time>
      </trkpt>
      <trkpt lat="48.66765" lon="-3.60118">
        <ele>16.3</ele>
        <time>2019-07-11T15:00:09Z</time>
      </trkpt>
      <trkpt lat="48.66763" lon="-3.60118">
        <ele>16.4</ele>
        <time>2019-07-11T15:00:10Z</time>
      </trkpt>
      <trkpt lat="48.66761" lon="-3.60118">
        <ele>16.6</ele>
        <time>2019-07-11T15:00:11Z</time>
      </trkpt>
      <trkpt lat="48.6676" lon="-3.60119">
        <ele>16.8</ele>
        <time>2019-07-11T15:00:12Z</time>
      </trkpt>
      <trkpt lat="48.66758" lon="-3.60118">
        <ele>17</ele>
        <time>2019-07-11T15:00:13Z</time>
      </trkpt>
      <trkpt lat="48.66756" lon="-3.60118">
        <ele>17</ele>
        <time>2019-07-11T15:00:14Z</time>
      </trkpt>
      <trkpt lat="48.66754" lon="-3.60118">
        <ele>16.8</ele>
        <time>2019-07-11T15:00:15Z</time>
      </trkpt>
      <trkpt lat="48.66753" lon="-3.60117">
        <ele>16.3</ele>
        <time>2019-07-11T15:00:16Z</time>
      </trkpt>
      <trkpt lat="48.66751" lon="-3.60117">
        <ele>16.1</ele>
        <time>2019-07-11T15:00:17Z</time>
      </trkpt>
      <trkpt lat="48.66749" lon="-3.60117">
        <ele>16</ele>
        <time>2019-07-11T15:00:18Z</time>
      </trkpt>
      <trkpt lat="48.66747" lon="-3.60117">
        <ele>15.9</ele>
        <time>2019-07-11T15:00:19Z</time>
      </trkpt>
      <trkpt lat="48.66746" lon="-3.60117">
        <ele>15.8</ele>
        <time>2019-07-11T15:00:20Z</time>
      </trkpt>
      <trkpt lat="48.66744" lon="-3.60117">
        <ele>15.7</ele>
        <time>2019-07-11T15:00:21Z</time>
      </trkpt>
      <trkpt lat="48.66742" lon="-3.60117">
        <ele>15.8</ele>
        <time>2019-07-11T15:00:22Z</time>
      </trkpt>
      <trkpt lat="48.66741" lon="-3.60116">
        <ele>16</ele>
        <time>2019-07-11T15:00:23Z</time>
      </trkpt>
      <trkpt lat="48.6674" lon="-3.60116">
        <ele>15.9</ele>
        <time>2019-07-11T15:00:24Z</time>
      </trkpt>
      <trkpt lat="48.66736" lon="-3.60113">
        <ele>17.4</ele>
        <time>2019-07-11T15:00:56Z</time>
      </trkpt>
      <trkpt lat="48.66734" lon="-3.60113">
        <ele>17.7</ele>
        <time>2019-07-11T15:00:57Z</time>
      </trkpt>
      <trkpt lat="48.66733" lon="-3.60112">
        <ele>18.1</ele>
        <time>2019-07-11T15:00:58Z</time>
      </trkpt>
      <trkpt lat="48.66731" lon="-3.60112">
        <ele>18.2</ele>
        <time>2019-07-11T15:00:59Z</time>
      </trkpt>
      <trkpt lat="48.66729" lon="-3.60113">
        <ele>18.5</ele>
        <time>2019-07-11T15:01:00Z</time>
      </trkpt>
      <trkpt lat="48.66727" lon="-3.60113">
        <ele>18.7</ele>
        <time>2019-07-11T15:01:01Z</time>
      </trkpt>
      <trkpt lat="48.66726" lon="-3.60113">
        <ele>18.9</ele>
        <time>2019-07-11T15:01:02Z</time>
      </trkpt>
      <trkpt lat="48.66724" lon="-3.60113">
        <ele>18.9</ele>
        <time>2019-07-11T15:01:03Z</time>
      </trkpt>
      <trkpt lat="48.66723" lon="-3.60114">
        <ele>19.1</ele>
        <time>2019-07-11T15:01:04Z</time>
      </trkpt>
      <trkpt lat="48.66721" lon="-3.60113">
        <ele>18.9</ele>
        <time>2019-07-11T15:01:05Z</time>
      </trkpt>
      <trkpt lat="48.6672" lon="-3.60113">
        <ele>18.8</ele>
        <time>2019-07-11T15:01:06Z</time>
      </trkpt>
      <trkpt lat="48.66718" lon="-3.60113">
        <ele>18.8</ele>
        <time>2019-07-11T15:01:07Z</time>
      </trkpt>
      <trkpt lat="48.66716" lon="-3.60113">
        <ele>18.5</ele>
        <time>2019-07-11T15:01:08Z</time>
      </trkpt>
      <trkpt lat="48.66715" lon="-3.60112">
        <ele>18.5</ele>
        <time>2019-07-11T15:01:09Z</time>
      </trkpt>
      <trkpt lat="48.66712" lon="-3.60112">
        <ele>18.6</ele>
        <time>2019-07-11T15:01:10Z</time>
      </trkpt>
      <trkpt lat="48.66711" lon="-3.60111">
        <ele>18.9</ele>
        <time>2019-07-11T15:01:11Z</time>
      </trkpt>
      <trkpt lat="48.66709" lon="-3.60111">
        <ele>19.3</ele>
        <time>2019-07-11T15:01:12Z</time>
      </trkpt>
      <trkpt lat="48.66707" lon="-3.60111">
        <ele>19.6</ele>
        <time>2019-07-11T15:01:13Z</time>
      </trkpt>
      <trkpt lat="48.66706" lon="-3.60111">
        <ele>19.9</ele>
        <time>2019-07-11T15:01:14Z</time>
      </trkpt>
      <trkpt lat="48.66704" lon="-3.60111">
        <ele>20.2</ele>
        <time>2019-07-11T15:01:15Z</time>
      </trkpt>
      <trkpt lat="48.66703" lon="-3.6011">
        <ele>20.3</ele>
        <time>2019-07-11T15:01:16Z</time>
      </trkpt>
      <trkpt lat="48.66699" lon="-3.60107">
        <ele>19.7</ele>
        <time>2019-07-11T15:01:36Z</time>
      </trkpt>
      <trkpt lat="48.66699" lon="-3.60105">
        <ele>19.8</ele>
        <time>2019-07-11T15:01:37Z</time>
      </trkpt>
      <trkpt lat="48.66697" lon="-3.60102">
        <ele>19.8</ele>
        <time>2019-07-11T15:01:38Z</time>
      </trkpt>
      <trkpt lat="48.66697" lon="-3.60098">
        <ele>19.9</ele>
        <time>2019-07-11T15:01:39Z</time>
      </trkpt>
      <trkpt lat="48.66696" lon="-3.60095">
        <ele>20</ele>
        <time>2019-07-11T15:01:40Z</time>
      </trkpt>
      <trkpt lat="48.66695" lon="-3.6009">
        <ele>20.1</ele>
        <time>2019-07-11T15:01:41Z</time>
      </trkpt>
      <trkpt lat="48.66694" lon="-3.60086">
        <ele>20.3</ele>
        <time>2019-07-11T15:01:42Z</time>
      </trkpt>
      <trkpt lat="48.66693" lon="-3.60081">
        <ele>20.5</ele>
        <time>2019-07-11T15:01:43Z</time>
      </trkpt>
      <trkpt lat="48.66692" lon="-3.60077">
        <ele>20.5</ele>
        <time>2019-07-11T15:01:44Z</time>
      </trkpt>
      <trkpt lat="48.66691" lon="-3.60073">
        <ele>20.6</ele>
        <time>2019-07-11T15:01:45Z</time>
      </trkpt>
      <trkpt lat="48.6669" lon="-3.60071">
        <ele>20.7</ele>
        <time>2019-07-11T15:01:46Z</time>
      </trkpt>
      <trkpt lat="48.66689" lon="-3.60068">
        <ele>20.8</ele>
        <time>2019-07-11T15:01:47Z</time>
      </trkpt>
      <trkpt lat="48.66686" lon="-3.60056">
        <ele>21.4</ele>
        <time>2019-07-11T15:02:15Z</time>
      </trkpt>
      <trkpt lat="48.66686" lon="-3.60054">
        <ele>21.4</ele>
        <time>2019-07-11T15:02:16Z</time>
      </trkpt>
      <trkpt lat="48.66685" lon="-3.6005">
        <ele>21.3</ele>
        <time>2019-07-11T15:02:17Z</time>
      </trkpt>
      <trkpt lat="48.66686" lon="-3.60047">
        <ele>21.4</ele>
        <time>2019-07-11T15:02:18Z</time>
      </trkpt>
      <trkpt lat="48.66685" lon="-3.60044">
        <ele>21.4</ele>
        <time>2019-07-11T15:02:19Z</time>
      </trkpt>
      <trkpt lat="48.66687" lon="-3.6003">
        <ele>20.7</ele>
        <time>2019-07-11T15:03:06Z</time>
      </trkpt>
      <trkpt lat="48.66687" lon="-3.60027">
        <ele>20.6</ele>
        <time>2019-07-11T15:03:07Z</time>
      </trkpt>
      <trkpt lat="48.66686" lon="-3.60024">
        <ele>20.5</ele>
        <time>2019-07-11T15:03:08Z</time>
      </trkpt>
      <trkpt lat="48.66685" lon="-3.60022">
        <ele>20.5</ele>
        <time>2019-07-11T15:03:09Z</time>
      </trkpt>
      <trkpt lat="48.66687" lon="-3.60021">
        <ele>19.3</ele>
        <time>2019-07-11T15:03:35Z</time>
      </trkpt>
      <trkpt lat="48.66688" lon="-3.60023">
        <ele>19.2</ele>
        <time>2019-07-11T15:03:36Z</time>
      </trkpt>
      <trkpt lat="48.66689" lon="-3.60025">
        <ele>19.1</ele>
        <time>2019-07-11T15:03:37Z</time>
      </trkpt>
      <trkpt lat="48.6669" lon="-3.60027">
        <ele>18.9</ele>
        <time>2019-07-11T15:03:38Z</time>
      </trkpt>
      <trkpt lat="48.6669" lon="-3.60029">
        <ele>18.8</ele>
        <time>2019-07-11T15:03:39Z</time>
      </trkpt>
      <trkpt lat="48.66695" lon="-3.6003">
        <ele>19</ele>
        <time>2019-07-11T15:03:46Z</time>
      </trkpt>
      <trkpt lat="48.66697" lon="-3.60029">
        <ele>19.1</ele>
        <time>2019-07-11T15:03:47Z</time>
      </trkpt>
      <trkpt lat="48.667" lon="-3.60029">
        <ele>18.7</ele>
        <time>2019-07-11T15:03:48Z</time>
      </trkpt>
      <trkpt lat="48.66703" lon="-3.60029">
        <ele>18.5</ele>
        <time>2019-07-11T15:03:49Z</time>
      </trkpt>
      <trkpt lat="48.66707" lon="-3.60029">
        <ele>17.9</ele>
        <time>2019-07-11T15:03:50Z</time>
      </trkpt>
      <trkpt lat="48.66711" lon="-3.6003">
        <ele>18</ele>
        <time>2019-07-11T15:03:51Z</time>
      </trkpt>
      <trkpt lat="48.66715" lon="-3.6003">
        <ele>17.8</ele>
        <time>2019-07-11T15:03:52Z</time>
      </trkpt>
      <trkpt lat="48.66718" lon="-3.6003">
        <ele>17.8</ele>
        <time>2019-07-11T15:03:53Z</time>
      </trkpt>
      <trkpt lat="48.66721" lon="-3.6003">
        <ele>17.7</ele>
        <time>2019-07-11T15:03:54Z</time>
      </trkpt>
      <trkpt lat="48.66724" lon="-3.60029">
        <ele>17.6</ele>
        <time>2019-07-11T15:03:55Z</time>
      </trkpt>
      <trkpt lat="48.66727" lon="-3.60028">
        <ele>17.4</ele>
        <time>2019-07-11T15:03:56Z</time>
      </trkpt>
      <trkpt lat="48.66731" lon="-3.60028">
        <ele>17.6</ele>
        <time>2019-07-11T15:03:57Z</time>
      </trkpt>
      <trkpt lat="48.66733" lon="-3.60027">
        <ele>17.6</ele>
        <time>2019-07-11T15:03:58Z</time>
      </trkpt>
      <trkpt lat="48.66736" lon="-3.60025">
        <ele>17.5</ele>
        <time>2019-07-11T15:03:59Z</time>
      </trkpt>
      <trkpt lat="48.66738" lon="-3.60024">
        <ele>17.5</ele>
        <time>2019-07-11T15:04:00Z</time>
      </trkpt>
      <trkpt lat="48.6674" lon="-3.60023">
        <ele>17.4</ele>
        <time>2019-07-11T15:04:01Z</time>
      </trkpt>
      <trkpt lat="48.66742" lon="-3.60022">
        <ele>17.6</ele>
        <time>2019-07-11T15:04:02Z</time>
      </trkpt>
      <trkpt lat="48.66744" lon="-3.60021">
        <ele>17.4</ele>
        <time>2019-07-11T15:04:03Z</time>
      </trkpt>
      <trkpt lat="48.66745" lon="-3.6002">
        <ele>17.3</ele>
        <time>2019-07-11T15:04:04Z</time>
      </trkpt>
      <trkpt lat="48.66743" lon="-3.60019">
        <ele>15.8</ele>
        <time>2019-07-11T15:04:43Z</time>
      </trkpt>
      <trkpt lat="48.66742" lon="-3.60021">
        <ele>15.8</ele>
        <time>2019-07-11T15:04:44Z</time>
      </trkpt>
      <trkpt lat="48.66741" lon="-3.60022">
        <ele>15.9</ele>
        <time>2019-07-11T15:04:45Z</time>
      </trkpt>
      <trkpt lat="48.66739" lon="-3.60024">
        <ele>15.5</ele>
        <time>2019-07-11T15:04:46Z</time>
      </trkpt>
      <trkpt lat="48.66737" lon="-3.60026">
        <ele>15.6</ele>
        <time>2019-07-11T15:04:47Z</time>
      </trkpt>
      <trkpt lat="48.66736" lon="-3.60027">
        <ele>16</ele>
        <time>2019-07-11T15:04:48Z</time>
      </trkpt>
      <trkpt lat="48.66733" lon="-3.60027">
        <ele>16.7</ele>
        <time>2019-07-11T15:04:49Z</time>
      </trkpt>
      <trkpt lat="48.66731" lon="-3.60028">
        <ele>17.1</ele>
        <time>2019-07-11T15:04:50Z</time>
      </trkpt>
      <trkpt lat="48.66729" lon="-3.60028">
        <ele>17.5</ele>
        <time>2019-07-11T15:04:51Z</time>
      </trkpt>
      <trkpt lat="48.66726" lon="-3.60028">
        <ele>17.8</ele>
        <time>2019-07-11T15:04:52Z</time>
      </trkpt>
      <trkpt lat="48.66724" lon="-3.60028">
        <ele>18.2</ele>
        <time>2019-07-11T15:04:53Z</time>
      </trkpt>
      <trkpt lat="48.66721" lon="-3.60028">
        <ele>18.3</ele>
        <time>2019-07-11T15:04:54Z</time>
      </trkpt>
      <trkpt lat="48.66718" lon="-3.60027">
        <ele>18</ele>
        <time>2019-07-11T15:04:55Z</time>
      </trkpt>
      <trkpt lat="48.66715" lon="-3.60027">
        <ele>18.3</ele>
        <time>2019-07-11T15:04:56Z</time>
      </trkpt>
      <trkpt lat="48.66713" lon="-3.60027">
        <ele>18</ele>
        <time>2019-07-11T15:04:57Z</time>
      </trkpt>
      <trkpt lat="48.66711" lon="-3.60027">
        <ele>17.8</ele>
        <time>2019-07-11T15:04:58Z</time>
      </trkpt>
      <trkpt lat="48.66708" lon="-3.60027">
        <ele>17.9</ele>
        <time>2019-07-11T15:04:59Z</time>
      </trkpt>
      <trkpt lat="48.66706" lon="-3.60027">
        <ele>17.6</ele>
        <time>2019-07-11T15:05:00Z</time>
      </trkpt>
      <trkpt lat="48.66704" lon="-3.60027">
        <ele>17.9</ele>
        <time>2019-07-11T15:05:01Z</time>
      </trkpt>
      <trkpt lat="48.66702" lon="-3.60027">
        <ele>18.2</ele>
        <time>2019-07-11T15:05:02Z</time>
      </trkpt>
      <trkpt lat="48.667" lon="-3.60028">
        <ele>18.6</ele>
        <time>2019-07-11T15:05:03Z</time>
      </trkpt>
      <trkpt lat="48.66698" lon="-3.60028">
        <ele>19</ele>
        <time>2019-07-11T15:05:04Z</time>
      </trkpt>
      <trkpt lat="48.66697" lon="-3.60028">
        <ele>19.6</ele>
        <time>2019-07-11T15:05:05Z</time>
      </trkpt>
      <trkpt lat="48.66695" lon="-3.60028">
        <ele>20.3</ele>
        <time>2019-07-11T15:05:06Z</time>
      </trkpt>
      <trkpt lat="48.66693" lon="-3.60026">
        <ele>20.9</ele>
        <time>2019-07-11T15:05:07Z</time>
      </trkpt>
      <trkpt lat="48.66692" lon="-3.60025">
        <ele>21.2</ele>
        <time>2019-07-11T15:05:08Z</time>
      </trkpt>
      <trkpt lat="48.6669" lon="-3.60024">
        <ele>21.4</ele>
        <time>2019-07-11T15:05:09Z</time>
      </trkpt>
      <trkpt lat="48.66689" lon="-3.60023">
        <ele>21.6</ele>
        <time>2019-07-11T15:05:10Z</time>
      </trkpt>
    </trkseg>
  </trk>
</gpx>